<?xml version='1.0' encoding='UTF-8'?><gpx version="1.1" creator="JPX - https://github.com/jenetics/jpx" xmlns="http://www.topografix.com/GPX/1/1"><trk><trkseg><trkpt lat="44.56301141357571" lon="10.448395046403283"><ele>596.0</ele><time>2026-04-18T08:24:33.999Z</time></trkpt><trkpt lat="44.56306100833762" lon="10.448492757406301"><ele>596.0</ele><time>2026-04-18T08:24:36.999Z</time></trkpt><trkpt lat="44.563101861062854" lon="10.448603714546032"><ele>596.0</ele><time>2026-04-18T08:24:39.999Z</time></trkpt><trkpt lat="44.56314934529386" lon="10.448681890551562"><ele>596.0</ele><time>2026-04-18T08:24:42.999Z</time></trkpt><trkpt lat="44.56321429973772" lon="10.448791036174603"><ele>596.0</ele><time>2026-04-18T08:24:45.999Z</time></trkpt><trkpt lat="44.56325091745243" lon="10.44888194951241"><ele>596.0</ele><time>2026-04-18T08:24:47.999Z</time></trkpt><trkpt lat="44.56328964693398" lon="10.448965640699067"><ele>596.0</ele><time>2026-04-18T08:24:50.999Z</time></trkpt><trkpt lat="44.56326773867326" lon="10.44885074467497"><ele>596.0</ele><time>2026-04-18T08:25:00.999Z</time></trkpt><trkpt lat="44.56321364191639" lon="10.448758986097351"><ele>596.0</ele><time>2026-04-18T08:25:01.999Z</time></trkpt><trkpt lat="44.56313466816481" lon="10.448644616850924"><ele>596.0</ele><time>2026-04-18T08:25:02.999Z</time></trkpt><trkpt lat="44.56307169140838" lon="10.448536480085615"><ele>596.0</ele><time>2026-04-18T08:25:03.999Z</time></trkpt><trkpt lat="44.56302601274416" lon="10.448428727385666"><ele>596.0</ele><time>2026-04-18T08:25:04.999Z</time></trkpt><trkpt lat="44.56302145606454" lon="10.448318284854174"><ele>596.0</ele><time>2026-04-18T08:25:05.999Z</time></trkpt><trkpt lat="44.563075266821436" lon="10.4481869955484"><ele>596.0</ele><time>2026-04-18T08:25:06.999Z</time></trkpt><trkpt lat="44.563121727104566" lon="10.447984800739265"><ele>596.0</ele><time>2026-04-18T08:25:07.999Z</time></trkpt><trkpt lat="44.563204249796755" lon="10.447780184609949"><ele>593.25</ele><time>2026-04-18T08:25:08.999Z</time></trkpt><trkpt lat="44.563277489484236" lon="10.447585837849317"><ele>590.5</ele><time>2026-04-18T08:25:09.999Z</time></trkpt><trkpt lat="44.56335163045917" lon="10.447402585605252"><ele>587.75</ele><time>2026-04-18T08:25:10.999Z</time></trkpt><trkpt lat="44.56342059734679" lon="10.447241030528566"><ele>585.0</ele><time>2026-04-18T08:25:11.999Z</time></trkpt><trkpt lat="44.56348183296257" lon="10.447083469245529"><ele>583.4</ele><time>2026-04-18T08:25:12.999Z</time></trkpt><trkpt lat="44.56352057632803" lon="10.446924982554542"><ele>581.8</ele><time>2026-04-18T08:25:13.999Z</time></trkpt><trkpt lat="44.56354635508375" lon="10.446778552197513"><ele>580.2</ele><time>2026-04-18T08:25:14.999Z</time></trkpt><trkpt lat="44.56357600838059" lon="10.44666860861723"><ele>578.6</ele><time>2026-04-18T08:25:15.999Z</time></trkpt><trkpt lat="44.56363336003145" lon="10.44660981493415"><ele>577.0</ele><time>2026-04-18T08:25:16.999Z</time></trkpt><trkpt lat="44.563719757312356" lon="10.446601696977101"><ele>575.75</ele><time>2026-04-18T08:25:17.999Z</time></trkpt><trkpt lat="44.563813325519604" lon="10.44665740775227"><ele>574.5</ele><time>2026-04-18T08:25:18.999Z</time></trkpt><trkpt lat="44.56392001337386" lon="10.446715722609405"><ele>573.25</ele><time>2026-04-18T08:25:19.999Z</time></trkpt><trkpt lat="44.564046950646535" lon="10.446769824351623"><ele>572.0</ele><time>2026-04-18T08:25:20.999Z</time></trkpt><trkpt lat="44.564158067813935" lon="10.446845270558358"><ele>572.0</ele><time>2026-04-18T08:25:21.999Z</time></trkpt><trkpt lat="44.56425985523655" lon="10.446917323854832"><ele>572.0</ele><time>2026-04-18T08:25:22.999Z</time></trkpt><trkpt lat="44.56433793067938" lon="10.447015887887083"><ele>572.0</ele><time>2026-04-18T08:25:23.999Z</time></trkpt><trkpt lat="44.56438729427733" lon="10.44715384254039"><ele>572.0</ele><time>2026-04-18T08:25:24.999Z</time></trkpt><trkpt lat="44.56445677060205" lon="10.447307793616945"><ele>569.25</ele><time>2026-04-18T08:25:25.999Z</time></trkpt><trkpt lat="44.5645472154332" lon="10.447439410167647"><ele>566.5</ele><time>2026-04-18T08:25:26.999Z</time></trkpt><trkpt lat="44.564633589382105" lon="10.447587382726276"><ele>563.75</ele><time>2026-04-18T08:25:27.999Z</time></trkpt><trkpt lat="44.56470174376374" lon="10.447726558668975"><ele>561.0</ele><time>2026-04-18T08:25:28.999Z</time></trkpt><trkpt lat="44.56475284507463" lon="10.44787630517314"><ele>567.5</ele><time>2026-04-18T08:25:29.999Z</time></trkpt><trkpt lat="44.56481417373442" lon="10.448007640569205"><ele>574.0</ele><time>2026-04-18T08:25:30.999Z</time></trkpt><trkpt lat="44.564907940343446" lon="10.448098606105468"><ele>580.5</ele><time>2026-04-18T08:25:31.999Z</time></trkpt><trkpt lat="44.56500406417771" lon="10.44817579967815"><ele>587.0</ele><time>2026-04-18T08:25:32.999Z</time></trkpt><trkpt lat="44.565121596954846" lon="10.448192780584442"><ele>587.0</ele><time>2026-04-18T08:25:33.999Z</time></trkpt><trkpt lat="44.56523005755709" lon="10.448213951383387"><ele>587.0</ele><time>2026-04-18T08:25:34.999Z</time></trkpt><trkpt lat="44.5653379348936" lon="10.448227637283171"><ele>587.0</ele><time>2026-04-18T08:25:35.999Z</time></trkpt><trkpt lat="44.56544600454924" lon="10.448229185870657"><ele>587.0</ele><time>2026-04-18T08:25:36.999Z</time></trkpt><trkpt lat="44.56555795496756" lon="10.448208138578924"><ele>587.0</ele><time>2026-04-18T08:25:37.999Z</time></trkpt><trkpt lat="44.565664214704384" lon="10.448203785878974"><ele>582.2</ele><time>2026-04-18T08:25:38.999Z</time></trkpt><trkpt lat="44.565763288371706" lon="10.448228573152177"><ele>577.4000000000001</ele><time>2026-04-18T08:25:39.999Z</time></trkpt><trkpt lat="44.56586166204128" lon="10.44827548033738"><ele>572.5999999999999</ele><time>2026-04-18T08:25:40.999Z</time></trkpt><trkpt lat="44.565941736916926" lon="10.448359924902379"><ele>567.8</ele><time>2026-04-18T08:25:41.999Z</time></trkpt><trkpt lat="44.56601593961764" lon="10.448456202328606"><ele>563.0</ele><time>2026-04-18T08:25:42.999Z</time></trkpt><trkpt lat="44.566085167056784" lon="10.44859268422805"><ele>563.0</ele><time>2026-04-18T08:25:43.999Z</time></trkpt><trkpt lat="44.56615617841524" lon="10.448718080066415"><ele>563.0</ele><time>2026-04-18T08:25:44.999Z</time></trkpt><trkpt lat="44.56625515894331" lon="10.448815426467535"><ele>563.0</ele><time>2026-04-18T08:25:45.999Z</time></trkpt><trkpt lat="44.56637505683834" lon="10.448847127072728"><ele>563.0</ele><time>2026-04-18T08:25:46.999Z</time></trkpt><trkpt lat="44.56649782455614" lon="10.448819397413972"><ele>558.0</ele><time>2026-04-18T08:25:47.999Z</time></trkpt><trkpt lat="44.56662401896549" lon="10.448786827884485"><ele>553.0</ele><time>2026-04-18T08:25:48.999Z</time></trkpt><trkpt lat="44.566743343663944" lon="10.448743922719244"><ele>548.0</ele><time>2026-04-18T08:25:49.999Z</time></trkpt><trkpt lat="44.56684250888766" lon="10.44871868535"><ele>543.0</ele><time>2026-04-18T08:25:50.999Z</time></trkpt><trkpt lat="44.5669321412236" lon="10.448724725196609"><ele>538.0</ele><time>2026-04-18T08:25:51.999Z</time></trkpt><trkpt lat="44.56701058559678" lon="10.44877237112352"><ele>537.75</ele><time>2026-04-18T08:25:52.999Z</time></trkpt><trkpt lat="44.56706002953162" lon="10.448890957534699"><ele>537.5</ele><time>2026-04-18T08:25:53.999Z</time></trkpt><trkpt lat="44.56711102374806" lon="10.449039045939193"><ele>537.25</ele><time>2026-04-18T08:25:54.999Z</time></trkpt><trkpt lat="44.567181780295726" lon="10.449186553656714"><ele>537.0</ele><time>2026-04-18T08:25:55.999Z</time></trkpt><trkpt lat="44.56727009321433" lon="10.449302758975671"><ele>537.0</ele><time>2026-04-18T08:25:56.999Z</time></trkpt><trkpt lat="44.56735012588588" lon="10.449311308885104"><ele>537.0</ele><time>2026-04-18T08:25:57.999Z</time></trkpt><trkpt lat="44.567447330220205" lon="10.44929641957532"><ele>537.0</ele><time>2026-04-18T08:25:58.999Z</time></trkpt><trkpt lat="44.56754617650496" lon="10.449276012500382"><ele>537.0</ele><time>2026-04-18T08:25:59.999Z</time></trkpt><trkpt lat="44.56766593424202" lon="10.449284223829993"><ele>537.0</ele><time>2026-04-18T08:26:00.999Z</time></trkpt><trkpt lat="44.5677715849238" lon="10.449321863845123"><ele>537.0</ele><time>2026-04-18T08:26:01.999Z</time></trkpt><trkpt lat="44.5678497760911" lon="10.44942509593992"><ele>537.0</ele><time>2026-04-18T08:26:02.999Z</time></trkpt><trkpt lat="44.56792400316295" lon="10.449558059389217"><ele>537.0</ele><time>2026-04-18T08:26:03.999Z</time></trkpt><trkpt lat="44.56800382648034" lon="10.449682728087396"><ele>537.0</ele><time>2026-04-18T08:26:04.999Z</time></trkpt><trkpt lat="44.5680978582166" lon="10.449769022851687"><ele>540.0</ele><time>2026-04-18T08:26:05.999Z</time></trkpt><trkpt lat="44.56819651173375" lon="10.44984295371675"><ele>543.0</ele><time>2026-04-18T08:26:06.999Z</time></trkpt><trkpt lat="44.56831893024106" lon="10.44986726398509"><ele>546.0</ele><time>2026-04-18T08:26:07.999Z</time></trkpt><trkpt lat="44.568449067779525" lon="10.449851370390208"><ele>549.0</ele><time>2026-04-18T08:26:08.999Z</time></trkpt><trkpt lat="44.56858693153271" lon="10.449826995466774"><ele>548.3333333333334</ele><time>2026-04-18T08:26:09.999Z</time></trkpt><trkpt lat="44.56874013034104" lon="10.44976642134745"><ele>547.6666666666667</ele><time>2026-04-18T08:26:10.999Z</time></trkpt><trkpt lat="44.56890165773856" lon="10.449715329880947"><ele>547.0</ele><time>2026-04-18T08:26:11.999Z</time></trkpt><trkpt lat="44.56905861758143" lon="10.449678233192376"><ele>547.0</ele><time>2026-04-18T08:26:12.999Z</time></trkpt><trkpt lat="44.5692077310835" lon="10.449642990946213"><ele>547.0</ele><time>2026-04-18T08:26:13.999Z</time></trkpt><trkpt lat="44.5693527267292" lon="10.449608830868485"><ele>547.0</ele><time>2026-04-18T08:26:14.999Z</time></trkpt><trkpt lat="44.56949606801311" lon="10.449575177341027"><ele>547.0</ele><time>2026-04-18T08:26:15.999Z</time></trkpt><trkpt lat="44.56962640402954" lon="10.44954786848927"><ele>545.8000000000001</ele><time>2026-04-18T08:26:16.999Z</time></trkpt><trkpt lat="44.569746773599526" lon="10.449531273686295"><ele>544.6</ele><time>2026-04-18T08:26:17.999Z</time></trkpt><trkpt lat="44.56984626651106" lon="10.449536265315562"><ele>543.4000000000001</ele><time>2026-04-18T08:26:18.999Z</time></trkpt><trkpt lat="44.56992502783776" lon="10.449566679743542"><ele>542.2</ele><time>2026-04-18T08:26:19.999Z</time></trkpt><trkpt lat="44.5699945302359" lon="10.449601980476272"><ele>541.0</ele><time>2026-04-18T08:26:20.999Z</time></trkpt><trkpt lat="44.57006712055705" lon="10.44963677187618"><ele>541.0</ele><time>2026-04-18T08:26:21.999Z</time></trkpt><trkpt lat="44.57015354768969" lon="10.44967819694417"><ele>541.0</ele><time>2026-04-18T08:26:22.999Z</time></trkpt><trkpt lat="44.57024976163299" lon="10.449698114308202"><ele>541.0</ele><time>2026-04-18T08:26:23.999Z</time></trkpt><trkpt lat="44.57033567329334" lon="10.449719105573788"><ele>541.0</ele><time>2026-04-18T08:26:24.999Z</time></trkpt><trkpt lat="44.57042758118023" lon="10.449710670941474"><ele>541.0</ele><time>2026-04-18T08:26:25.999Z</time></trkpt><trkpt lat="44.57053146627621" lon="10.449674086081629"><ele>540.2</ele><time>2026-04-18T08:26:26.999Z</time></trkpt><trkpt lat="44.570645629617545" lon="10.449627513094375"><ele>539.4000000000001</ele><time>2026-04-18T08:26:27.999Z</time></trkpt><trkpt lat="44.57075123832483" lon="10.44959101049699"><ele>538.6</ele><time>2026-04-18T08:26:28.999Z</time></trkpt><trkpt lat="44.57084602602863" lon="10.44961208787653"><ele>537.8000000000001</ele><time>2026-04-18T08:26:29.999Z</time></trkpt><trkpt lat="44.57092135466704" lon="10.44965002931139"><ele>537.0</ele><time>2026-04-18T08:26:30.999Z</time></trkpt><trkpt lat="44.57097078608365" lon="10.449740836906981"><ele>537.0</ele><time>2026-04-18T08:26:31.999Z</time></trkpt><trkpt lat="44.57103152633705" lon="10.449848984711185"><ele>537.0</ele><time>2026-04-18T08:26:32.999Z</time></trkpt><trkpt lat="44.57109746563952" lon="10.449965080195605"><ele>537.0</ele><time>2026-04-18T08:26:33.999Z</time></trkpt><trkpt lat="44.57117147395365" lon="10.450095601133576"><ele>537.0</ele><time>2026-04-18T08:26:34.999Z</time></trkpt><trkpt lat="44.571239975622895" lon="10.450208377745719"><ele>537.0</ele><time>2026-04-18T08:26:35.999Z</time></trkpt><trkpt lat="44.57131097721003" lon="10.450295992480441"><ele>535.6666666666666</ele><time>2026-04-18T08:26:36.999Z</time></trkpt><trkpt lat="44.57136018498093" lon="10.450395702305226"><ele>534.3333333333334</ele><time>2026-04-18T08:26:37.999Z</time></trkpt><trkpt lat="44.5714080941692" lon="10.450481174649514"><ele>533.0</ele><time>2026-04-18T08:26:38.999Z</time></trkpt><trkpt lat="44.57142690359201" lon="10.450580493033382"><ele>531.6666666666667</ele><time>2026-04-18T08:26:39.999Z</time></trkpt><trkpt lat="44.571424140696365" lon="10.450674387287984"><ele>530.3333333333334</ele><time>2026-04-18T08:26:40.999Z</time></trkpt><trkpt lat="44.571395685715814" lon="10.450764321956315"><ele>529.0</ele><time>2026-04-18T08:26:41.999Z</time></trkpt><trkpt lat="44.57135542802219" lon="10.450858230573868"><ele>529.0</ele><time>2026-04-18T08:26:42.999Z</time></trkpt><trkpt lat="44.57130123103546" lon="10.450946640361556"><ele>529.0</ele><time>2026-04-18T08:26:43.999Z</time></trkpt><trkpt lat="44.57123925365236" lon="10.451040310030677"><ele>529.0</ele><time>2026-04-18T08:26:44.999Z</time></trkpt><trkpt lat="44.57117731275306" lon="10.451146635500724"><ele>529.0</ele><time>2026-04-18T08:26:45.999Z</time></trkpt><trkpt lat="44.57111927513466" lon="10.45122896362606"><ele>529.0</ele><time>2026-04-18T08:26:46.999Z</time></trkpt><trkpt lat="44.57106660244946" lon="10.451303745935064"><ele>529.0</ele><time>2026-04-18T08:26:47.999Z</time></trkpt><trkpt lat="44.571012386686874" lon="10.451372610923135"><ele>530.2</ele><time>2026-04-18T08:26:48.999Z</time></trkpt><trkpt lat="44.57096693396756" lon="10.451438523260775"><ele>531.4</ele><time>2026-04-18T08:26:49.999Z</time></trkpt><trkpt lat="44.57088238623606" lon="10.45155298553307"><ele>532.6</ele><time>2026-04-18T08:26:51.999Z</time></trkpt><trkpt lat="44.57079626808928" lon="10.45168269812134"><ele>533.8</ele><time>2026-04-18T08:26:53.999Z</time></trkpt><trkpt lat="44.57072989248989" lon="10.451771774512814"><ele>535.0</ele><time>2026-04-18T08:26:54.999Z</time></trkpt><trkpt lat="44.57066166725468" lon="10.45185711635016"><ele>535.0</ele><time>2026-04-18T08:26:55.999Z</time></trkpt><trkpt lat="44.570582932079276" lon="10.451918353755461"><ele>535.0</ele><time>2026-04-18T08:26:56.999Z</time></trkpt><trkpt lat="44.570496029884005" lon="10.451929582320357"><ele>535.0</ele><time>2026-04-18T08:26:57.999Z</time></trkpt><trkpt lat="44.57040729725248" lon="10.451887715672848"><ele>535.0</ele><time>2026-04-18T08:26:58.999Z</time></trkpt><trkpt lat="44.570317545379204" lon="10.451873299281196"><ele>535.0</ele><time>2026-04-18T08:26:59.999Z</time></trkpt><trkpt lat="44.57023413220363" lon="10.45184296900607"><ele>535.0</ele><time>2026-04-18T08:27:00.999Z</time></trkpt><trkpt lat="44.570161199348966" lon="10.451842829915943"><ele>535.4</ele><time>2026-04-18T08:27:01.999Z</time></trkpt><trkpt lat="44.57010222323999" lon="10.451877565674328"><ele>535.8</ele><time>2026-04-18T08:27:02.999Z</time></trkpt><trkpt lat="44.57003053443061" lon="10.452001357123217"><ele>536.2</ele><time>2026-04-18T08:27:04.999Z</time></trkpt><trkpt lat="44.57008129624084" lon="10.452111156162632"><ele>536.6</ele><time>2026-04-18T08:27:05.999Z</time></trkpt><trkpt lat="44.57016676726542" lon="10.452134263045824"><ele>537.0</ele><time>2026-04-18T08:27:06.999Z</time></trkpt><trkpt lat="44.57025626749569" lon="10.452162217718902"><ele>533.0</ele><time>2026-04-18T08:27:07.999Z</time></trkpt><trkpt lat="44.57036648497509" lon="10.452204256641917"><ele>529.0</ele><time>2026-04-18T08:27:08.999Z</time></trkpt><trkpt lat="44.57049265235508" lon="10.452258485388748"><ele>525.0</ele><time>2026-04-18T08:27:09.999Z</time></trkpt><trkpt lat="44.570596369411746" lon="10.45229204794612"><ele>521.0</ele><time>2026-04-18T08:27:10.999Z</time></trkpt><trkpt lat="44.570705996278974" lon="10.452306373682152"><ele>521.0</ele><time>2026-04-18T08:27:11.999Z</time></trkpt><trkpt lat="44.57081708983985" lon="10.452288960372657"><ele>521.0</ele><time>2026-04-18T08:27:12.999Z</time></trkpt><trkpt lat="44.57092886837269" lon="10.452240044340623"><ele>521.0</ele><time>2026-04-18T08:27:13.999Z</time></trkpt><trkpt lat="44.57103663091585" lon="10.452179728649016"><ele>521.0</ele><time>2026-04-18T08:27:14.999Z</time></trkpt><trkpt lat="44.57114224850777" lon="10.452130031501714"><ele>521.0</ele><time>2026-04-18T08:27:15.999Z</time></trkpt><trkpt lat="44.571251310974944" lon="10.45207629059312"><ele>521.0</ele><time>2026-04-18T08:27:16.999Z</time></trkpt><trkpt lat="44.571359458973205" lon="10.452018753394999"><ele>521.0</ele><time>2026-04-18T08:27:17.999Z</time></trkpt><trkpt lat="44.571465078818036" lon="10.451966693873382"><ele>521.0</ele><time>2026-04-18T08:27:18.999Z</time></trkpt><trkpt lat="44.57155540591049" lon="10.451929302091344"><ele>521.0</ele><time>2026-04-18T08:27:19.999Z</time></trkpt><trkpt lat="44.57164055417977" lon="10.451892635988658"><ele>521.0</ele><time>2026-04-18T08:27:20.999Z</time></trkpt><trkpt lat="44.57172723542604" lon="10.451863173438015"><ele>521.0</ele><time>2026-04-18T08:27:21.999Z</time></trkpt><trkpt lat="44.57181125392425" lon="10.451855900848408"><ele>521.0</ele><time>2026-04-18T08:27:22.999Z</time></trkpt><trkpt lat="44.5718803424451" lon="10.45193013890373"><ele>521.0</ele><time>2026-04-18T08:27:23.999Z</time></trkpt><trkpt lat="44.57194693844855" lon="10.451996991395262"><ele>521.0</ele><time>2026-04-18T08:27:24.999Z</time></trkpt><trkpt lat="44.572013349028936" lon="10.452060846714264"><ele>521.0</ele><time>2026-04-18T08:27:25.999Z</time></trkpt><trkpt lat="44.57209241947112" lon="10.45214318882193"><ele>515.6</ele><time>2026-04-18T08:27:26.999Z</time></trkpt><trkpt lat="44.57216653865652" lon="10.452234461114164"><ele>510.20000000000005</ele><time>2026-04-18T08:27:27.999Z</time></trkpt><trkpt lat="44.57222822597515" lon="10.452350792294142"><ele>504.79999999999995</ele><time>2026-04-18T08:27:28.999Z</time></trkpt><trkpt lat="44.57228146436007" lon="10.452472688624894"><ele>499.4</ele><time>2026-04-18T08:27:29.999Z</time></trkpt><trkpt lat="44.57232836300187" lon="10.452582274015956"><ele>494.0</ele><time>2026-04-18T08:27:30.999Z</time></trkpt><trkpt lat="44.57237806077725" lon="10.4526984001022"><ele>494.0</ele><time>2026-04-18T08:27:31.999Z</time></trkpt><trkpt lat="44.57242550850094" lon="10.452801447027122"><ele>494.0</ele><time>2026-04-18T08:27:32.999Z</time></trkpt><trkpt lat="44.5724990783313" lon="10.452882218217376"><ele>494.0</ele><time>2026-04-18T08:27:33.999Z</time></trkpt><trkpt lat="44.57256391811648" lon="10.4529756724558"><ele>494.0</ele><time>2026-04-18T08:27:34.999Z</time></trkpt><trkpt lat="44.5726458679358" lon="10.453066565373462"><ele>494.0</ele><time>2026-04-18T08:27:35.999Z</time></trkpt><trkpt lat="44.572733212963705" lon="10.453143305395907"><ele>493.79999999999995</ele><time>2026-04-18T08:27:36.999Z</time></trkpt><trkpt lat="44.572820315067155" lon="10.453204222231882"><ele>493.59999999999997</ele><time>2026-04-18T08:27:37.999Z</time></trkpt><trkpt lat="44.57290786304522" lon="10.45327614650005"><ele>493.4</ele><time>2026-04-18T08:27:38.999Z</time></trkpt><trkpt lat="44.57298183898132" lon="10.453357671435281"><ele>493.2</ele><time>2026-04-18T08:27:39.999Z</time></trkpt><trkpt lat="44.57304315355212" lon="10.453474979233265"><ele>493.0</ele><time>2026-04-18T08:27:40.999Z</time></trkpt><trkpt lat="44.573077995195945" lon="10.453598785253048"><ele>492.1666666666667</ele><time>2026-04-18T08:27:41.999Z</time></trkpt><trkpt lat="44.57306214694068" lon="10.453738133382412"><ele>491.33333333333337</ele><time>2026-04-18T08:27:42.999Z</time></trkpt><trkpt lat="44.573085879160054" lon="10.453855444056389"><ele>490.5</ele><time>2026-04-18T08:27:43.999Z</time></trkpt><trkpt lat="44.57312762488694" lon="10.45396743461665"><ele>489.66666666666663</ele><time>2026-04-18T08:27:44.999Z</time></trkpt><trkpt lat="44.57318448821233" lon="10.454045195149337"><ele>488.8333333333333</ele><time>2026-04-18T08:27:45.999Z</time></trkpt><trkpt lat="44.57322779899221" lon="10.454135695821769"><ele>488.0</ele><time>2026-04-18T08:27:46.999Z</time></trkpt><trkpt lat="44.57326028068603" lon="10.454246544050676"><ele>489.8333333333333</ele><time>2026-04-18T08:27:47.999Z</time></trkpt><trkpt lat="44.573257008015204" lon="10.454360044259381"><ele>491.66666666666663</ele><time>2026-04-18T08:27:48.999Z</time></trkpt><trkpt lat="44.573279554560685" lon="10.454447293999827"><ele>493.5</ele><time>2026-04-18T08:27:49.999Z</time></trkpt><trkpt lat="44.57328152355856" lon="10.454603474261969"><ele>495.33333333333337</ele><time>2026-04-18T08:27:51.999Z</time></trkpt><trkpt lat="44.57328449482175" lon="10.454699565892495"><ele>497.1666666666667</ele><time>2026-04-18T08:27:52.999Z</time></trkpt><trkpt lat="44.57329907847813" lon="10.454797598694627"><ele>499.0</ele><time>2026-04-18T08:27:53.999Z</time></trkpt><trkpt lat="44.573327160174436" lon="10.454926939960647"><ele>499.0</ele><time>2026-04-18T08:27:54.999Z</time></trkpt><trkpt lat="44.573380020024345" lon="10.455041983725822"><ele>499.0</ele><time>2026-04-18T08:27:55.999Z</time></trkpt><trkpt lat="44.57346624245311" lon="10.455170360243773"><ele>499.0</ele><time>2026-04-18T08:27:56.999Z</time></trkpt><trkpt lat="44.57356844815571" lon="10.455296960486839"><ele>499.0</ele><time>2026-04-18T08:27:57.999Z</time></trkpt><trkpt lat="44.573671371222794" lon="10.455445914106546"><ele>500.75</ele><time>2026-04-18T08:27:58.999Z</time></trkpt><trkpt lat="44.57377122011343" lon="10.45556674869078"><ele>502.5</ele><time>2026-04-18T08:27:59.999Z</time></trkpt><trkpt lat="44.573877108456685" lon="10.455629068230476"><ele>504.25</ele><time>2026-04-18T08:28:00.999Z</time></trkpt><trkpt lat="44.57398442896014" lon="10.45568473667159"><ele>506.0</ele><time>2026-04-18T08:28:01.999Z</time></trkpt><trkpt lat="44.57411172260608" lon="10.455682713537533"><ele>506.0</ele><time>2026-04-18T08:28:02.999Z</time></trkpt><trkpt lat="44.5742635246192" lon="10.455700829747716"><ele>506.0</ele><time>2026-04-18T08:28:03.999Z</time></trkpt><trkpt lat="44.57442791769489" lon="10.455708465332568"><ele>506.0</ele><time>2026-04-18T08:28:04.999Z</time></trkpt><trkpt lat="44.57458853146031" lon="10.455724575803108"><ele>509.75</ele><time>2026-04-18T08:28:05.999Z</time></trkpt><trkpt lat="44.57474629323603" lon="10.455729986535449"><ele>513.5</ele><time>2026-04-18T08:28:06.999Z</time></trkpt><trkpt lat="44.5748767915618" lon="10.455806212296208"><ele>517.25</ele><time>2026-04-18T08:28:07.999Z</time></trkpt><trkpt lat="44.57498101700519" lon="10.455900586527648"><ele>521.0</ele><time>2026-04-18T08:28:08.999Z</time></trkpt><trkpt lat="44.57507291162324" lon="10.456004379276935"><ele>521.0</ele><time>2026-04-18T08:28:09.999Z</time></trkpt><trkpt lat="44.57511342866084" lon="10.456149944595719"><ele>521.0</ele><time>2026-04-18T08:28:10.999Z</time></trkpt><trkpt lat="44.575141246097836" lon="10.456312888783375"><ele>521.0</ele><time>2026-04-18T08:28:11.999Z</time></trkpt><trkpt lat="44.57519274839269" lon="10.45650207663082"><ele>521.0</ele><time>2026-04-18T08:28:12.999Z</time></trkpt><trkpt lat="44.57526223464079" lon="10.456671461173022"><ele>523.75</ele><time>2026-04-18T08:28:13.999Z</time></trkpt><trkpt lat="44.57531958905502" lon="10.45682526155073"><ele>526.5</ele><time>2026-04-18T08:28:14.999Z</time></trkpt><trkpt lat="44.575373810062125" lon="10.45695842579983"><ele>529.25</ele><time>2026-04-18T08:28:15.999Z</time></trkpt><trkpt lat="44.57544762692349" lon="10.457081322213536"><ele>532.0</ele><time>2026-04-18T08:28:16.999Z</time></trkpt><trkpt lat="44.57553285223172" lon="10.457163286129083"><ele>526.25</ele><time>2026-04-18T08:28:17.999Z</time></trkpt><trkpt lat="44.57563016784816" lon="10.45722992407335"><ele>520.5</ele><time>2026-04-18T08:28:18.999Z</time></trkpt><trkpt lat="44.57575167251542" lon="10.457277650563336"><ele>514.75</ele><time>2026-04-18T08:28:19.999Z</time></trkpt><trkpt lat="44.57587584704183" lon="10.457310192458191"><ele>509.0</ele><time>2026-04-18T08:28:20.999Z</time></trkpt><trkpt lat="44.5759931667057" lon="10.457348114869449"><ele>509.0</ele><time>2026-04-18T08:28:21.999Z</time></trkpt><trkpt lat="44.57608692643895" lon="10.457378005984243"><ele>509.0</ele><time>2026-04-18T08:28:22.999Z</time></trkpt><trkpt lat="44.57617423061746" lon="10.4573830037647"><ele>509.0</ele><time>2026-04-18T08:28:23.999Z</time></trkpt><trkpt lat="44.57625144034326" lon="10.457331502012721"><ele>509.0</ele><time>2026-04-18T08:28:24.999Z</time></trkpt><trkpt lat="44.57631892553239" lon="10.457246342072999"><ele>509.0</ele><time>2026-04-18T08:28:25.999Z</time></trkpt><trkpt lat="44.576369583960854" lon="10.457123735258612"><ele>508.25</ele><time>2026-04-18T08:28:26.999Z</time></trkpt><trkpt lat="44.57642265984908" lon="10.456953724457449"><ele>507.5</ele><time>2026-04-18T08:28:27.999Z</time></trkpt><trkpt lat="44.576464462893185" lon="10.45675957703945"><ele>506.75</ele><time>2026-04-18T08:28:28.999Z</time></trkpt><trkpt lat="44.57650437519134" lon="10.45658031175821"><ele>506.0</ele><time>2026-04-18T08:28:29.999Z</time></trkpt><trkpt lat="44.5765145212454" lon="10.456387698732792"><ele>506.0</ele><time>2026-04-18T08:28:30.999Z</time></trkpt><trkpt lat="44.57667551657392" lon="10.456325844603823"><ele>506.0</ele><time>2026-04-18T08:28:31.999Z</time></trkpt><trkpt lat="44.57681189745894" lon="10.456211509877798"><ele>506.0</ele><time>2026-04-18T08:28:32.999Z</time></trkpt><trkpt lat="44.57693869398067" lon="10.456115521864287"><ele>504.0</ele><time>2026-04-18T08:28:33.999Z</time></trkpt><trkpt lat="44.57707778317735" lon="10.456056254559062"><ele>502.0</ele><time>2026-04-18T08:28:34.999Z</time></trkpt><trkpt lat="44.57723713804126" lon="10.456088410007785"><ele>500.0</ele><time>2026-04-18T08:28:35.999Z</time></trkpt><trkpt lat="44.57738489374197" lon="10.456072898552629"><ele>500.0</ele><time>2026-04-18T08:28:36.999Z</time></trkpt><trkpt lat="44.5775047510623" lon="10.456029179840366"><ele>500.0</ele><time>2026-04-18T08:28:37.999Z</time></trkpt><trkpt lat="44.577600491796" lon="10.455967178756328"><ele>500.0</ele><time>2026-04-18T08:28:38.999Z</time></trkpt><trkpt lat="44.577700724854296" lon="10.455850757364457"><ele>500.0</ele><time>2026-04-18T08:28:39.999Z</time></trkpt><trkpt lat="44.57783195983831" lon="10.45569582250997"><ele>501.75</ele><time>2026-04-18T08:28:40.999Z</time></trkpt><trkpt lat="44.57797606201527" lon="10.455596194413545"><ele>503.5</ele><time>2026-04-18T08:28:41.999Z</time></trkpt><trkpt lat="44.578100992757896" lon="10.455512318002981"><ele>505.25</ele><time>2026-04-18T08:28:42.999Z</time></trkpt><trkpt lat="44.57822312368671" lon="10.455442101951002"><ele>507.0</ele><time>2026-04-18T08:28:43.999Z</time></trkpt><trkpt lat="44.57833473068518" lon="10.455397772044801"><ele>507.0</ele><time>2026-04-18T08:28:44.999Z</time></trkpt><trkpt lat="44.57845648789005" lon="10.455397130003059"><ele>507.00000000000006</ele><time>2026-04-18T08:28:45.999Z</time></trkpt><trkpt lat="44.578574631963384" lon="10.455408036028674"><ele>507.00000000000006</ele><time>2026-04-18T08:28:46.999Z</time></trkpt><trkpt lat="44.57868051623575" lon="10.455416495979577"><ele>507.0</ele><time>2026-04-18T08:28:47.999Z</time></trkpt><trkpt lat="44.57876417588181" lon="10.455387586984275"><ele>507.0</ele><time>2026-04-18T08:28:48.999Z</time></trkpt><trkpt lat="44.578838125287234" lon="10.455363528055654"><ele>505.57142857142856</ele><time>2026-04-18T08:28:49.999Z</time></trkpt><trkpt lat="44.578899195907425" lon="10.455327570163849"><ele>504.14285714285717</ele><time>2026-04-18T08:28:51Z</time></trkpt><trkpt lat="44.57896189137117" lon="10.455286935588969"><ele>502.7142857142857</ele><time>2026-04-18T08:28:52Z</time></trkpt><trkpt lat="44.57901799046528" lon="10.45524092460389"><ele>501.2857142857143</ele><time>2026-04-18T08:28:53Z</time></trkpt><trkpt lat="44.579075037830684" lon="10.45519781644226"><ele>499.8571428571429</ele><time>2026-04-18T08:28:54Z</time></trkpt><trkpt lat="44.5791360354845" lon="10.455175880096625"><ele>498.42857142857144</ele><time>2026-04-18T08:28:55Z</time></trkpt><trkpt lat="44.579198127781446" lon="10.455140741973338"><ele>497.0</ele><time>2026-04-18T08:28:56Z</time></trkpt><trkpt lat="44.57926784183985" lon="10.455099130114156"><ele>497.0</ele><time>2026-04-18T08:28:57Z</time></trkpt><trkpt lat="44.57933902269949" lon="10.455106458237589"><ele>497.00000000000006</ele><time>2026-04-18T08:28:58Z</time></trkpt><trkpt lat="44.579486283803426" lon="10.455229475145249"><ele>497.00000000000006</ele><time>2026-04-18T08:29:00Z</time></trkpt><trkpt lat="44.57955641956394" lon="10.45527662476411"><ele>497.0</ele><time>2026-04-18T08:29:01Z</time></trkpt><trkpt lat="44.579628202933506" lon="10.455323507171101"><ele>497.0</ele><time>2026-04-18T08:29:02Z</time></trkpt><trkpt lat="44.57970241893123" lon="10.455371893195624"><ele>496.16666666666663</ele><time>2026-04-18T08:29:03Z</time></trkpt><trkpt lat="44.579763379472084" lon="10.455411637235112"><ele>495.3333333333333</ele><time>2026-04-18T08:29:04Z</time></trkpt><trkpt lat="44.57982643542509" lon="10.455452747358127"><ele>494.5</ele><time>2026-04-18T08:29:05Z</time></trkpt><trkpt lat="44.579894402353325" lon="10.455495121800714"><ele>493.66666666666663</ele><time>2026-04-18T08:29:06Z</time></trkpt><trkpt lat="44.579976185038326" lon="10.455521741486619"><ele>492.8333333333333</ele><time>2026-04-18T08:29:07Z</time></trkpt><trkpt lat="44.58005993148681" lon="10.455595895914051"><ele>492.0</ele><time>2026-04-18T08:29:08Z</time></trkpt><trkpt lat="44.58016853365478" lon="10.455652785754394"><ele>491.66666666666663</ele><time>2026-04-18T08:29:09Z</time></trkpt><trkpt lat="44.58029574710602" lon="10.4557099500174"><ele>491.3333333333333</ele><time>2026-04-18T08:29:10Z</time></trkpt><trkpt lat="44.580442183851375" lon="10.455774339806132"><ele>491.0</ele><time>2026-04-18T08:29:11Z</time></trkpt><trkpt lat="44.58063554546159" lon="10.455846421981336"><ele>492.66666666666663</ele><time>2026-04-18T08:29:12Z</time></trkpt><trkpt lat="44.580840230299856" lon="10.455913077141403"><ele>494.33333333333337</ele><time>2026-04-18T08:29:13Z</time></trkpt><trkpt lat="44.581028903402334" lon="10.455974518153232"><ele>496.0</ele><time>2026-04-18T08:29:14Z</time></trkpt><trkpt lat="44.581220900971665" lon="10.45604038617247"><ele>498.0</ele><time>2026-04-18T08:29:15Z</time></trkpt><trkpt lat="44.58152919110062" lon="10.456217482408727"><ele>500.0</ele><time>2026-04-18T08:29:17Z</time></trkpt><trkpt lat="44.58169233552541" lon="10.456338775653874"><ele>498.3333333333333</ele><time>2026-04-18T08:29:18Z</time></trkpt><trkpt lat="44.581840758836236" lon="10.456471764814317"><ele>496.66666666666663</ele><time>2026-04-18T08:29:19Z</time></trkpt><trkpt lat="44.58194970774114" lon="10.456619634898997"><ele>495.0</ele><time>2026-04-18T08:29:20Z</time></trkpt><trkpt lat="44.58203972861001" lon="10.456785367510854"><ele>495.0</ele><time>2026-04-18T08:29:20.999Z</time></trkpt><trkpt lat="44.58214414299429" lon="10.456920818942255"><ele>495.0</ele><time>2026-04-18T08:29:21.999Z</time></trkpt><trkpt lat="44.58228967498402" lon="10.457025656755588"><ele>495.0</ele><time>2026-04-18T08:29:22.999Z</time></trkpt><trkpt lat="44.58244170624809" lon="10.457164366853839"><ele>494.5</ele><time>2026-04-18T08:29:23.999Z</time></trkpt><trkpt lat="44.58256386769733" lon="10.45731031696921"><ele>494.0</ele><time>2026-04-18T08:29:24.999Z</time></trkpt><trkpt lat="44.58263126141423" lon="10.457472692897712"><ele>493.5</ele><time>2026-04-18T08:29:25.999Z</time></trkpt><trkpt lat="44.582669709107414" lon="10.457655809987049"><ele>493.0</ele><time>2026-04-18T08:29:26.999Z</time></trkpt><trkpt lat="44.58268269249483" lon="10.45785162415311"><ele>493.2</ele><time>2026-04-18T08:29:27.999Z</time></trkpt><trkpt lat="44.5826873052623" lon="10.45802996613513"><ele>493.4</ele><time>2026-04-18T08:29:28.999Z</time></trkpt><trkpt lat="44.582704262772324" lon="10.458173740500408"><ele>493.59999999999997</ele><time>2026-04-18T08:29:29.999Z</time></trkpt><trkpt lat="44.58274708713748" lon="10.458282424888845"><ele>493.79999999999995</ele><time>2026-04-18T08:29:30.999Z</time></trkpt><trkpt lat="44.582826490242454" lon="10.45834571927143"><ele>494.0</ele><time>2026-04-18T08:29:31.999Z</time></trkpt><trkpt lat="44.58293682651759" lon="10.458287316526677"><ele>494.0</ele><time>2026-04-18T08:29:32.999Z</time></trkpt><trkpt lat="44.58306670557525" lon="10.458248219827272"><ele>494.0</ele><time>2026-04-18T08:29:33.999Z</time></trkpt><trkpt lat="44.58322161275761" lon="10.458268141347475"><ele>494.0</ele><time>2026-04-18T08:29:34.999Z</time></trkpt><trkpt lat="44.58338972011769" lon="10.458335637495418"><ele>494.0</ele><time>2026-04-18T08:29:35.999Z</time></trkpt><trkpt lat="44.58359694598256" lon="10.458416905787322"><ele>494.0</ele><time>2026-04-18T08:29:36.999Z</time></trkpt><trkpt lat="44.58382436974789" lon="10.458497601191835"><ele>493.66666666666663</ele><time>2026-04-18T08:29:37.999Z</time></trkpt><trkpt lat="44.5840385134434" lon="10.45858584112106"><ele>493.33333333333337</ele><time>2026-04-18T08:29:38.999Z</time></trkpt><trkpt lat="44.58421080755924" lon="10.4587220505679"><ele>493.0</ele><time>2026-04-18T08:29:39.999Z</time></trkpt><trkpt lat="44.58436731914465" lon="10.458896811696858"><ele>493.0</ele><time>2026-04-18T08:29:40.999Z</time></trkpt><trkpt lat="44.584511321100656" lon="10.45904289269633"><ele>493.0</ele><time>2026-04-18T08:29:41.999Z</time></trkpt><trkpt lat="44.584674573057846" lon="10.459182647801663"><ele>493.0</ele><time>2026-04-18T08:29:42.999Z</time></trkpt><trkpt lat="44.584847792864174" lon="10.459296254616437"><ele>493.0</ele><time>2026-04-18T08:29:43.999Z</time></trkpt><trkpt lat="44.58502327105685" lon="10.45942395146102"><ele>493.0</ele><time>2026-04-18T08:29:44.999Z</time></trkpt><trkpt lat="44.585172864217775" lon="10.459550584165218"><ele>493.0</ele><time>2026-04-18T08:29:45.999Z</time></trkpt><trkpt lat="44.58532273244817" lon="10.459645347277126"><ele>497.0</ele><time>2026-04-18T08:29:46.999Z</time></trkpt><trkpt lat="44.58543974419423" lon="10.459769307662905"><ele>501.0</ele><time>2026-04-18T08:29:47.999Z</time></trkpt><trkpt lat="44.58553314558803" lon="10.459884414608075"><ele>505.0</ele><time>2026-04-18T08:29:48.999Z</time></trkpt><trkpt lat="44.58560082955003" lon="10.460033772947636"><ele>509.0</ele><time>2026-04-18T08:29:49.999Z</time></trkpt><trkpt lat="44.585660968298455" lon="10.460197031758403"><ele>509.0</ele><time>2026-04-18T08:29:50.999Z</time></trkpt><trkpt lat="44.585716459294986" lon="10.460362971999382"><ele>509.0</ele><time>2026-04-18T08:29:51.999Z</time></trkpt><trkpt lat="44.58575663086903" lon="10.46050429718509"><ele>509.0</ele><time>2026-04-18T08:29:52.999Z</time></trkpt><trkpt lat="44.58579321972317" lon="10.460633663735116"><ele>509.0</ele><time>2026-04-18T08:29:53.999Z</time></trkpt><trkpt lat="44.58582541512832" lon="10.460747495999023"><ele>509.0</ele><time>2026-04-18T08:29:54.999Z</time></trkpt><trkpt lat="44.58586758592296" lon="10.460842189462394"><ele>508.66666666666663</ele><time>2026-04-18T08:29:55.999Z</time></trkpt><trkpt lat="44.58587897996119" lon="10.460955166352548"><ele>508.3333333333333</ele><time>2026-04-18T08:29:56.999Z</time></trkpt><trkpt lat="44.585868450562124" lon="10.461053063771923"><ele>508.0</ele><time>2026-04-18T08:29:57.999Z</time></trkpt><trkpt lat="44.58583533152195" lon="10.461178817598574"><ele>507.66666666666663</ele><time>2026-04-18T08:29:58.999Z</time></trkpt><trkpt lat="44.58578928199325" lon="10.461283568447165"><ele>507.3333333333333</ele><time>2026-04-18T08:29:59.999Z</time></trkpt><trkpt lat="44.58575839184413" lon="10.46138132795955"><ele>507.0</ele><time>2026-04-18T08:30:00.999Z</time></trkpt><trkpt lat="44.585714601453155" lon="10.461460481400108"><ele>507.0</ele><time>2026-04-18T08:30:01.999Z</time></trkpt><trkpt lat="44.58573631958227" lon="10.461598138440252"><ele>507.00000000000006</ele><time>2026-04-18T08:30:02.999Z</time></trkpt><trkpt lat="44.585721444375466" lon="10.461715228608046"><ele>507.00000000000006</ele><time>2026-04-18T08:30:03.999Z</time></trkpt><trkpt lat="44.585680470633044" lon="10.461865282041355"><ele>507.0</ele><time>2026-04-18T08:30:04.999Z</time></trkpt><trkpt lat="44.58561601802354" lon="10.462026019827462"><ele>507.0</ele><time>2026-04-18T08:30:05.999Z</time></trkpt><trkpt lat="44.58556967021063" lon="10.462184130732297"><ele>508.0</ele><time>2026-04-18T08:30:06.999Z</time></trkpt><trkpt lat="44.58551884385032" lon="10.462296790175886"><ele>509.0</ele><time>2026-04-18T08:30:07.999Z</time></trkpt><trkpt lat="44.58548804173722" lon="10.462404704681243"><ele>510.0</ele><time>2026-04-18T08:30:08.999Z</time></trkpt><trkpt lat="44.585467836272485" lon="10.462493218895805"><ele>511.0</ele><time>2026-04-18T08:30:09.999Z</time></trkpt><trkpt lat="44.58546827803123" lon="10.462666211958426"><ele>512.0</ele><time>2026-04-18T08:30:11.999Z</time></trkpt><trkpt lat="44.58547762608862" lon="10.462775188693703"><ele>513.0</ele><time>2026-04-18T08:30:12.999Z</time></trkpt><trkpt lat="44.585562535615885" lon="10.462907205526063"><ele>514.6</ele><time>2026-04-18T08:30:13.999Z</time></trkpt><trkpt lat="44.58561670964239" lon="10.463032522956716"><ele>516.1999999999999</ele><time>2026-04-18T08:30:14.999Z</time></trkpt><trkpt lat="44.58568403168294" lon="10.463151891388067"><ele>517.8</ele><time>2026-04-18T08:30:15.999Z</time></trkpt><trkpt lat="44.58576303407949" lon="10.463244458098258"><ele>519.4</ele><time>2026-04-18T08:30:16.999Z</time></trkpt><trkpt lat="44.58582952529409" lon="10.463364278424747"><ele>521.0</ele><time>2026-04-18T08:30:17.999Z</time></trkpt><trkpt lat="44.58586084604713" lon="10.463492148535929"><ele>521.0</ele><time>2026-04-18T08:30:18.999Z</time></trkpt><trkpt lat="44.58587635100822" lon="10.46362479228094"><ele>521.0</ele><time>2026-04-18T08:30:19.999Z</time></trkpt><trkpt lat="44.58585010905809" lon="10.463767912583997"><ele>521.0</ele><time>2026-04-18T08:30:20.999Z</time></trkpt><trkpt lat="44.58583163460645" lon="10.463947861925881"><ele>521.0</ele><time>2026-04-18T08:30:21.999Z</time></trkpt><trkpt lat="44.58582320795976" lon="10.464129937038408"><ele>522.0</ele><time>2026-04-18T08:30:22.999Z</time></trkpt><trkpt lat="44.58582173385596" lon="10.464293227864896"><ele>523.0</ele><time>2026-04-18T08:30:23.999Z</time></trkpt><trkpt lat="44.5858292478152" lon="10.464425797484605"><ele>524.0</ele><time>2026-04-18T08:30:24.999Z</time></trkpt><trkpt lat="44.585829370218" lon="10.46455714118993"><ele>525.0</ele><time>2026-04-18T08:30:25.999Z</time></trkpt><trkpt lat="44.585829802588705" lon="10.464668535584103"><ele>526.0</ele><time>2026-04-18T08:30:26.999Z</time></trkpt><trkpt lat="44.58581129985022" lon="10.46477272932808"><ele>526.8</ele><time>2026-04-18T08:30:27.999Z</time></trkpt><trkpt lat="44.58580250809863" lon="10.464868756739968"><ele>527.6</ele><time>2026-04-18T08:30:28.999Z</time></trkpt><trkpt lat="44.58579659527715" lon="10.464978968988508"><ele>528.4</ele><time>2026-04-18T08:30:29.999Z</time></trkpt><trkpt lat="44.585775894833915" lon="10.465105788652583"><ele>529.2</ele><time>2026-04-18T08:30:30.999Z</time></trkpt><trkpt lat="44.585721408194935" lon="10.465244374835223"><ele>530.0</ele><time>2026-04-18T08:30:31.999Z</time></trkpt><trkpt lat="44.585674415299714" lon="10.465401981346595"><ele>529.5</ele><time>2026-04-18T08:30:32.999Z</time></trkpt><trkpt lat="44.58564780054316" lon="10.465580615283493"><ele>529.0</ele><time>2026-04-18T08:30:33.999Z</time></trkpt><trkpt lat="44.58560613455641" lon="10.465759370126753"><ele>528.5</ele><time>2026-04-18T08:30:34.999Z</time></trkpt><trkpt lat="44.58558232554296" lon="10.465947912082855"><ele>528.0</ele><time>2026-04-18T08:30:35.999Z</time></trkpt><trkpt lat="44.585565997013745" lon="10.466126663369785"><ele>528.0</ele><time>2026-04-18T08:30:36.999Z</time></trkpt><trkpt lat="44.585542202867316" lon="10.466256876860909"><ele>528.0</ele><time>2026-04-18T08:30:37.999Z</time></trkpt><trkpt lat="44.585502011954254" lon="10.466361666202879"><ele>528.0</ele><time>2026-04-18T08:30:38.999Z</time></trkpt><trkpt lat="44.58546492523909" lon="10.466448046912298"><ele>528.0</ele><time>2026-04-18T08:30:39.999Z</time></trkpt><trkpt lat="44.58546642873083" lon="10.466569429268397"><ele>528.0</ele><time>2026-04-18T08:30:40.999Z</time></trkpt><trkpt lat="44.58541332071245" lon="10.46663658883564"><ele>528.0</ele><time>2026-04-18T08:30:41.999Z</time></trkpt><trkpt lat="44.585354034124876" lon="10.466723946142249"><ele>528.1666666666666</ele><time>2026-04-18T08:30:42.999Z</time></trkpt><trkpt lat="44.58528196810183" lon="10.466838580177496"><ele>528.3333333333334</ele><time>2026-04-18T08:30:43.999Z</time></trkpt><trkpt lat="44.58523265167593" lon="10.466966975915899"><ele>528.5</ele><time>2026-04-18T08:30:44.999Z</time></trkpt><trkpt lat="44.58517716963263" lon="10.467036746524432"><ele>528.6666666666667</ele><time>2026-04-18T08:30:45.999Z</time></trkpt><trkpt lat="44.58513655009613" lon="10.467118637604338"><ele>528.8333333333334</ele><time>2026-04-18T08:30:46.999Z</time></trkpt><trkpt lat="44.58508590164558" lon="10.467216210257924"><ele>529.0</ele><time>2026-04-18T08:30:47.999Z</time></trkpt><trkpt lat="44.58502360124417" lon="10.467294288839545"><ele>528.2</ele><time>2026-04-18T08:30:48.999Z</time></trkpt><trkpt lat="44.58512870791762" lon="10.467572998224657"><ele>527.4</ele><time>2026-04-18T08:30:49.999Z</time></trkpt><trkpt lat="44.58511360573683" lon="10.467676861924401"><ele>526.6</ele><time>2026-04-18T08:30:50.999Z</time></trkpt><trkpt lat="44.58508540839744" lon="10.467771633030326"><ele>525.8</ele><time>2026-04-18T08:30:51.999Z</time></trkpt><trkpt lat="44.585051018642645" lon="10.467857753224441"><ele>525.0</ele><time>2026-04-18T08:30:52.999Z</time></trkpt><trkpt lat="44.58503082484381" lon="10.467981079263543"><ele>523.8</ele><time>2026-04-18T08:30:54.999Z</time></trkpt><trkpt lat="44.585010156132284" lon="10.468166359929805"><ele>522.6</ele><time>2026-04-18T08:30:56.999Z</time></trkpt><trkpt lat="44.58500854925058" lon="10.468312906679715"><ele>521.4</ele><time>2026-04-18T08:30:58.999Z</time></trkpt><trkpt lat="44.585061308190625" lon="10.468447668995996"><ele>520.2</ele><time>2026-04-18T08:31:01Z</time></trkpt><trkpt lat="44.585106203033845" lon="10.468522341336087"><ele>519.0</ele><time>2026-04-18T08:31:01.999Z</time></trkpt><trkpt lat="44.58511026793736" lon="10.468627580668247"><ele>519.0</ele><time>2026-04-18T08:31:03Z</time></trkpt><trkpt lat="44.585120796974564" lon="10.46876433876511"><ele>519.0</ele><time>2026-04-18T08:31:04Z</time></trkpt><trkpt lat="44.58513400564392" lon="10.468891033968887"><ele>519.0</ele><time>2026-04-18T08:31:05Z</time></trkpt><trkpt lat="44.58517296022008" lon="10.468994866340948"><ele>519.0</ele><time>2026-04-18T08:31:06Z</time></trkpt><trkpt lat="44.58518776714024" lon="10.469110830310498"><ele>519.0</ele><time>2026-04-18T08:31:07Z</time></trkpt><trkpt lat="44.585184372937306" lon="10.469248410687827"><ele>517.0</ele><time>2026-04-18T08:31:08Z</time></trkpt><trkpt lat="44.58516724413994" lon="10.469386190932504"><ele>515.0</ele><time>2026-04-18T08:31:09Z</time></trkpt><trkpt lat="44.5851638292652" lon="10.469512196006875"><ele>513.0</ele><time>2026-04-18T08:31:10Z</time></trkpt><trkpt lat="44.58518330242785" lon="10.469641623448492"><ele>511.0</ele><time>2026-04-18T08:31:11Z</time></trkpt><trkpt lat="44.58517639389884" lon="10.46978072128477"><ele>509.0</ele><time>2026-04-18T08:31:12Z</time></trkpt><trkpt lat="44.58515383860674" lon="10.469890502424205"><ele>508.66666666666663</ele><time>2026-04-18T08:31:13Z</time></trkpt><trkpt lat="44.58513702549883" lon="10.469992284366304"><ele>508.3333333333333</ele><time>2026-04-18T08:31:14Z</time></trkpt><trkpt lat="44.5851454760637" lon="10.470085294143086"><ele>508.0</ele><time>2026-04-18T08:31:14.999Z</time></trkpt><trkpt lat="44.58516388709677" lon="10.47021087343675"><ele>507.66666666666663</ele><time>2026-04-18T08:31:15.999Z</time></trkpt><trkpt lat="44.585173294286555" lon="10.470322363745055"><ele>507.3333333333333</ele><time>2026-04-18T08:31:16.999Z</time></trkpt><trkpt lat="44.58520437167963" lon="10.470435405479778"><ele>507.0</ele><time>2026-04-18T08:31:17.999Z</time></trkpt><trkpt lat="44.585212393995405" lon="10.470535718270167"><ele>506.1666666666667</ele><time>2026-04-18T08:31:18.999Z</time></trkpt><trkpt lat="44.5852399351564" lon="10.47066713621218"><ele>505.33333333333337</ele><time>2026-04-18T08:31:19.999Z</time></trkpt><trkpt lat="44.58525929285566" lon="10.470762635599081"><ele>504.5</ele><time>2026-04-18T08:31:20.999Z</time></trkpt><trkpt lat="44.5852940691658" lon="10.470884782594222"><ele>503.6666666666667</ele><time>2026-04-18T08:31:21.999Z</time></trkpt><trkpt lat="44.58532282655474" lon="10.47098634665881"><ele>502.83333333333337</ele><time>2026-04-18T08:31:22.999Z</time></trkpt><trkpt lat="44.585311956455016" lon="10.471102346053668"><ele>502.0</ele><time>2026-04-18T08:31:23.999Z</time></trkpt><trkpt lat="44.58526865308773" lon="10.471207912379167"><ele>499.6</ele><time>2026-04-18T08:31:24.999Z</time></trkpt><trkpt lat="44.58522706856144" lon="10.471350295562317"><ele>497.20000000000005</ele><time>2026-04-18T08:31:25.999Z</time></trkpt><trkpt lat="44.585194963844074" lon="10.471484094521923"><ele>494.8</ele><time>2026-04-18T08:31:26.999Z</time></trkpt><trkpt lat="44.58517546578085" lon="10.471606301580543"><ele>492.4</ele><time>2026-04-18T08:31:27.999Z</time></trkpt><trkpt lat="44.58514106532055" lon="10.471767512036433"><ele>490.0</ele><time>2026-04-18T08:31:29.999Z</time></trkpt><trkpt lat="44.58511825614328" lon="10.471850966935111"><ele>490.00000000000006</ele><time>2026-04-18T08:31:30.999Z</time></trkpt><trkpt lat="44.58511238354695" lon="10.471940528500994"><ele>490.0</ele><time>2026-04-18T08:31:31.999Z</time></trkpt><trkpt lat="44.5851183525845" lon="10.472071844411358"><ele>490.0</ele><time>2026-04-18T08:31:32.999Z</time></trkpt><trkpt lat="44.58510808022813" lon="10.472207720105551"><ele>490.0</ele><time>2026-04-18T08:31:33.999Z</time></trkpt><trkpt lat="44.58510157531382" lon="10.472325138136307"><ele>490.00000000000006</ele><time>2026-04-18T08:31:34.999Z</time></trkpt><trkpt lat="44.58509412497002" lon="10.47244103408763"><ele>490.0</ele><time>2026-04-18T08:31:35.999Z</time></trkpt><trkpt lat="44.58506032282944" lon="10.472554421845645"><ele>489.0</ele><time>2026-04-18T08:31:37.999Z</time></trkpt><trkpt lat="44.58508333723649" lon="10.472684390247302"><ele>488.0</ele><time>2026-04-18T08:31:39.999Z</time></trkpt><trkpt lat="44.58514117063314" lon="10.472869354832154"><ele>487.0</ele><time>2026-04-18T08:31:41.999Z</time></trkpt><trkpt lat="44.58514900886549" lon="10.472997302109274"><ele>486.0</ele><time>2026-04-18T08:31:42.999Z</time></trkpt><trkpt lat="44.5851445017709" lon="10.473120863751326"><ele>485.0</ele><time>2026-04-18T08:31:43.999Z</time></trkpt><trkpt lat="44.58513338989848" lon="10.473257670626015"><ele>485.0</ele><time>2026-04-18T08:31:44.999Z</time></trkpt><trkpt lat="44.585112965106795" lon="10.473412713642286"><ele>485.0</ele><time>2026-04-18T08:31:45.999Z</time></trkpt><trkpt lat="44.58509393707295" lon="10.473549121662833"><ele>485.0</ele><time>2026-04-18T08:31:46.999Z</time></trkpt><trkpt lat="44.58507579583508" lon="10.473678417454646"><ele>485.0</ele><time>2026-04-18T08:31:47.999Z</time></trkpt><trkpt lat="44.58505619483329" lon="10.47380332802563"><ele>485.0</ele><time>2026-04-18T08:31:48.999Z</time></trkpt><trkpt lat="44.58504096004385" lon="10.473896578610315"><ele>488.0</ele><time>2026-04-18T08:31:49.999Z</time></trkpt><trkpt lat="44.585036751118324" lon="10.474055778843633"><ele>491.0</ele><time>2026-04-18T08:31:51.999Z</time></trkpt><trkpt lat="44.58508395403349" lon="10.474207840490518"><ele>494.0</ele><time>2026-04-18T08:31:53.999Z</time></trkpt><trkpt lat="44.585107917574554" lon="10.474355679834495"><ele>497.0</ele><time>2026-04-18T08:31:55.999Z</time></trkpt><trkpt lat="44.585111094149504" lon="10.474515909382342"><ele>499.3333333333333</ele><time>2026-04-18T08:31:57.999Z</time></trkpt><trkpt lat="44.58508154843988" lon="10.474680549106507"><ele>501.66666666666663</ele><time>2026-04-18T08:31:59.999Z</time></trkpt><trkpt lat="44.58507418010882" lon="10.47476929722541"><ele>504.0</ele><time>2026-04-18T08:32:00.999Z</time></trkpt><trkpt lat="44.585079934402145" lon="10.47486729359488"><ele>506.33333333333337</ele><time>2026-04-18T08:32:01.999Z</time></trkpt><trkpt lat="44.58507781076595" lon="10.474964275469334"><ele>508.6666666666667</ele><time>2026-04-18T08:32:02.999Z</time></trkpt><trkpt lat="44.58506253449135" lon="10.475080848577985"><ele>511.0</ele><time>2026-04-18T08:32:03.999Z</time></trkpt><trkpt lat="44.58503753805839" lon="10.47519467007494"><ele>511.0</ele><time>2026-04-18T08:32:04.999Z</time></trkpt><trkpt lat="44.585028875858654" lon="10.475337277866926"><ele>511.0</ele><time>2026-04-18T08:32:05.999Z</time></trkpt><trkpt lat="44.585020550234965" lon="10.475467718238965"><ele>511.0</ele><time>2026-04-18T08:32:06.999Z</time></trkpt><trkpt lat="44.585005430872776" lon="10.475630784965952"><ele>511.0</ele><time>2026-04-18T08:32:07.999Z</time></trkpt><trkpt lat="44.584995614919386" lon="10.475744122056506"><ele>511.0</ele><time>2026-04-18T08:32:08.999Z</time></trkpt><trkpt lat="44.584979933646395" lon="10.47586529341535"><ele>514.0</ele><time>2026-04-18T08:32:09.999Z</time></trkpt><trkpt lat="44.58495338334114" lon="10.476035235661133"><ele>517.0</ele><time>2026-04-18T08:32:11.999Z</time></trkpt><trkpt lat="44.58487972008263" lon="10.476112586846519"><ele>520.0</ele><time>2026-04-18T08:32:14.999Z</time></trkpt><trkpt lat="44.584813619098206" lon="10.47606338947143"><ele>523.0</ele><time>2026-04-18T08:32:18.999Z</time></trkpt><trkpt lat="44.5847314022695" lon="10.476053655849604"><ele>526.0</ele><time>2026-04-18T08:32:20.999Z</time></trkpt><trkpt lat="44.584630875195245" lon="10.476062112326074"><ele>526.0</ele><time>2026-04-18T08:32:22.999Z</time></trkpt><trkpt lat="44.58456708093106" lon="10.476077903231667"><ele>526.0</ele><time>2026-04-18T08:32:23.999Z</time></trkpt><trkpt lat="44.58446072597861" lon="10.476084779932068"><ele>526.0</ele><time>2026-04-18T08:32:25.999Z</time></trkpt><trkpt lat="44.58435252067182" lon="10.476063804478722"><ele>526.0</ele><time>2026-04-18T08:32:27.999Z</time></trkpt><trkpt lat="44.58428265187046" lon="10.47614850039273"><ele>526.0</ele><time>2026-04-18T08:32:29.999Z</time></trkpt><trkpt lat="44.58418107009161" lon="10.476214204166817"><ele>523.8</ele><time>2026-04-18T08:32:31.999Z</time></trkpt><trkpt lat="44.584086844119085" lon="10.4763266275622"><ele>521.6</ele><time>2026-04-18T08:32:33.999Z</time></trkpt><trkpt lat="44.58400416049607" lon="10.476404476713636"><ele>519.4</ele><time>2026-04-18T08:32:35.999Z</time></trkpt><trkpt lat="44.58389616737067" lon="10.476430015072138"><ele>517.2</ele><time>2026-04-18T08:32:37.999Z</time></trkpt><trkpt lat="44.58382497118612" lon="10.476452385400602"><ele>515.0</ele><time>2026-04-18T08:32:38.999Z</time></trkpt><trkpt lat="44.58369176641213" lon="10.476495766739578"><ele>513.6</ele><time>2026-04-18T08:32:40.999Z</time></trkpt><trkpt lat="44.5835956874191" lon="10.476511978657147"><ele>512.2</ele><time>2026-04-18T08:32:41.999Z</time></trkpt><trkpt lat="44.58351444802001" lon="10.476529173802827"><ele>510.79999999999995</ele><time>2026-04-18T08:32:42.999Z</time></trkpt><trkpt lat="44.583410099836" lon="10.4765451879203"><ele>509.4</ele><time>2026-04-18T08:32:44.999Z</time></trkpt><trkpt lat="44.58332250835502" lon="10.476547515296753"><ele>508.0</ele><time>2026-04-18T08:32:46.999Z</time></trkpt><trkpt lat="44.58322630370815" lon="10.476573912454425"><ele>508.0</ele><time>2026-04-18T08:32:48.999Z</time></trkpt><trkpt lat="44.58312946219461" lon="10.476545017169283"><ele>507.99999999999994</ele><time>2026-04-18T08:32:50.999Z</time></trkpt><trkpt lat="44.58304478813477" lon="10.476548856441514"><ele>507.99999999999994</ele><time>2026-04-18T08:32:51.999Z</time></trkpt><trkpt lat="44.58295234825067" lon="10.476556577133376"><ele>508.0</ele><time>2026-04-18T08:32:52.999Z</time></trkpt><trkpt lat="44.58287594061338" lon="10.476576376077366"><ele>508.0</ele><time>2026-04-18T08:32:53.999Z</time></trkpt><trkpt lat="44.582774940603315" lon="10.476532915677927"><ele>506.79999999999995</ele><time>2026-04-18T08:32:55.999Z</time></trkpt><trkpt lat="44.58271010719638" lon="10.476533175222304"><ele>505.59999999999997</ele><time>2026-04-18T08:32:57.999Z</time></trkpt><trkpt lat="44.5826153120901" lon="10.476645837734427"><ele>504.40000000000003</ele><time>2026-04-18T08:32:59.999Z</time></trkpt><trkpt lat="44.58256589090285" lon="10.476710267731574"><ele>503.20000000000005</ele><time>2026-04-18T08:33:00.999Z</time></trkpt><trkpt lat="44.58248132773712" lon="10.47680786107729"><ele>502.0</ele><time>2026-04-18T08:33:03Z</time></trkpt><trkpt lat="44.58240771584451" lon="10.47691729096201"><ele>502.0</ele><time>2026-04-18T08:33:05Z</time></trkpt><trkpt lat="44.58229887006407" lon="10.476964384784171"><ele>502.00000000000006</ele><time>2026-04-18T08:33:07Z</time></trkpt><trkpt lat="44.58220973682894" lon="10.477084539411639"><ele>502.00000000000006</ele><time>2026-04-18T08:33:09Z</time></trkpt><trkpt lat="44.582152100894355" lon="10.477214491822702"><ele>502.0</ele><time>2026-04-18T08:33:11Z</time></trkpt><trkpt lat="44.58212289205472" lon="10.477329956103285"><ele>502.0</ele><time>2026-04-18T08:33:13Z</time></trkpt><trkpt lat="44.58205904812747" lon="10.47740973186016"><ele>500.83333333333337</ele><time>2026-04-18T08:33:15Z</time></trkpt><trkpt lat="44.58204366336538" lon="10.477523766131672"><ele>499.6666666666667</ele><time>2026-04-18T08:33:17Z</time></trkpt><trkpt lat="44.581997909473095" lon="10.477671319970844"><ele>498.5</ele><time>2026-04-18T08:33:19Z</time></trkpt><trkpt lat="44.58197302037358" lon="10.477785524274445"><ele>497.33333333333337</ele><time>2026-04-18T08:33:20Z</time></trkpt><trkpt lat="44.58197674584987" lon="10.477895870561643"><ele>496.1666666666667</ele><time>2026-04-18T08:33:22Z</time></trkpt><trkpt lat="44.58193576134681" lon="10.477987604636706"><ele>495.0</ele><time>2026-04-18T08:33:24Z</time></trkpt><trkpt lat="44.58190127262631" lon="10.478104562390813"><ele>493.0</ele><time>2026-04-18T08:33:26Z</time></trkpt><trkpt lat="44.58186146700711" lon="10.478206819819272"><ele>491.0</ele><time>2026-04-18T08:33:28Z</time></trkpt><trkpt lat="44.581799640233534" lon="10.478327649818608"><ele>489.0</ele><time>2026-04-18T08:33:30Z</time></trkpt><trkpt lat="44.58174983861056" lon="10.478467725803524"><ele>487.0</ele><time>2026-04-18T08:33:32Z</time></trkpt><trkpt lat="44.58166748900696" lon="10.478601075176819"><ele>485.0</ele><time>2026-04-18T08:33:34Z</time></trkpt><trkpt lat="44.58159837316505" lon="10.478692589636477"><ele>483.2</ele><time>2026-04-18T08:33:34.999Z</time></trkpt><trkpt lat="44.581521854587336" lon="10.478828833075381"><ele>481.4</ele><time>2026-04-18T08:33:36.999Z</time></trkpt><trkpt lat="44.58147261317953" lon="10.478940050612321"><ele>479.6</ele><time>2026-04-18T08:33:37.999Z</time></trkpt><trkpt lat="44.58141689926065" lon="10.479049738803603"><ele>477.8</ele><time>2026-04-18T08:33:38.999Z</time></trkpt><trkpt lat="44.581371544207784" lon="10.47914220962569"><ele>476.0</ele><time>2026-04-18T08:33:39.999Z</time></trkpt><trkpt lat="44.58133742620534" lon="10.479258021602226"><ele>475.99999999999994</ele><time>2026-04-18T08:33:40.999Z</time></trkpt><trkpt lat="44.58130244226886" lon="10.479398454413401"><ele>476.0</ele><time>2026-04-18T08:33:41.999Z</time></trkpt><trkpt lat="44.581267056654596" lon="10.47950880655157"><ele>476.0</ele><time>2026-04-18T08:33:42.999Z</time></trkpt><trkpt lat="44.581236418667615" lon="10.47958714820708"><ele>476.0</ele><time>2026-04-18T08:33:43.999Z</time></trkpt><trkpt lat="44.58120001905982" lon="10.479701073594054"><ele>475.99999999999994</ele><time>2026-04-18T08:33:45.999Z</time></trkpt><trkpt lat="44.581140645014884" lon="10.479814096936682"><ele>476.0</ele><time>2026-04-18T08:33:47.999Z</time></trkpt><trkpt lat="44.581091628337305" lon="10.479875268781761"><ele>474.20000000000005</ele><time>2026-04-18T08:33:49.999Z</time></trkpt><trkpt lat="44.58101553626294" lon="10.480015406548397"><ele>472.40000000000003</ele><time>2026-04-18T08:33:51.999Z</time></trkpt><trkpt lat="44.580964928660435" lon="10.480084685341632"><ele>470.6</ele><time>2026-04-18T08:33:52.999Z</time></trkpt><trkpt lat="44.58088500387782" lon="10.48020321950423"><ele>468.8</ele><time>2026-04-18T08:33:54.999Z</time></trkpt><trkpt lat="44.58083870455446" lon="10.480293171799158"><ele>467.0</ele><time>2026-04-18T08:33:56.999Z</time></trkpt><trkpt lat="44.580768029192704" lon="10.480388001079396"><ele>465.20000000000005</ele><time>2026-04-18T08:33:58.999Z</time></trkpt><trkpt lat="44.580703517788955" lon="10.480459801224933"><ele>463.40000000000003</ele><time>2026-04-18T08:33:59.999Z</time></trkpt><trkpt lat="44.580630215390606" lon="10.48049954354397"><ele>461.59999999999997</ele><time>2026-04-18T08:34:00.999Z</time></trkpt><trkpt lat="44.58050519616981" lon="10.480572315856913"><ele>459.79999999999995</ele><time>2026-04-18T08:34:02.999Z</time></trkpt><trkpt lat="44.58055248118069" lon="10.480662579537091"><ele>458.0</ele><time>2026-04-18T08:34:04.999Z</time></trkpt><trkpt lat="44.58048946187219" lon="10.480766717269326"><ele>457.99999999999994</ele><time>2026-04-18T08:34:08.999Z</time></trkpt><trkpt lat="44.58041992761496" lon="10.480830232513313"><ele>458.0</ele><time>2026-04-18T08:34:10.999Z</time></trkpt><trkpt lat="44.580331321987046" lon="10.480911275169403"><ele>458.0</ele><time>2026-04-18T08:34:12.999Z</time></trkpt><trkpt lat="44.580275413414974" lon="10.48096042821918"><ele>458.0</ele><time>2026-04-18T08:34:14.999Z</time></trkpt><trkpt lat="44.58024542421634" lon="10.481055181541757"><ele>457.99999999999994</ele><time>2026-04-18T08:34:16.999Z</time></trkpt><trkpt lat="44.58019506380912" lon="10.481135050943433"><ele>458.0</ele><time>2026-04-18T08:34:18.999Z</time></trkpt><trkpt lat="44.58018844266693" lon="10.481230776022887"><ele>454.99999999999994</ele><time>2026-04-18T08:34:20.999Z</time></trkpt><trkpt lat="44.58015187972253" lon="10.481341148446976"><ele>452.0</ele><time>2026-04-18T08:34:22.999Z</time></trkpt><trkpt lat="44.5801262531519" lon="10.481462901830865"><ele>449.0</ele><time>2026-04-18T08:34:24.999Z</time></trkpt><trkpt lat="44.58008485011346" lon="10.481530351294014"><ele>446.0</ele><time>2026-04-18T08:34:26.999Z</time></trkpt><trkpt lat="44.58004138212121" lon="10.481614777747039"><ele>442.99999999999994</ele><time>2026-04-18T08:34:28.999Z</time></trkpt><trkpt lat="44.57999841535884" lon="10.481694204522732"><ele>440.0</ele><time>2026-04-18T08:34:30.999Z</time></trkpt><trkpt lat="44.57994431051574" lon="10.481818733205122"><ele>439.99999999999994</ele><time>2026-04-18T08:34:32.999Z</time></trkpt><trkpt lat="44.57989590118778" lon="10.481938262106224"><ele>440.0</ele><time>2026-04-18T08:34:34.999Z</time></trkpt><trkpt lat="44.57982714160117" lon="10.48203633796411"><ele>440.0</ele><time>2026-04-18T08:34:36.999Z</time></trkpt><trkpt lat="44.579757663976935" lon="10.482128365544312"><ele>440.0</ele><time>2026-04-18T08:34:38.999Z</time></trkpt><trkpt lat="44.5797203603483" lon="10.482205342925056"><ele>439.99999999999994</ele><time>2026-04-18T08:34:40.999Z</time></trkpt><trkpt lat="44.579678751820765" lon="10.482299818022849"><ele>440.0</ele><time>2026-04-18T08:34:42.999Z</time></trkpt><trkpt lat="44.57966802732803" lon="10.482421010525549"><ele>437.3333333333333</ele><time>2026-04-18T08:34:49.999Z</time></trkpt><trkpt lat="44.579654292872675" lon="10.482522595243765"><ele>434.66666666666663</ele><time>2026-04-18T08:34:55.999Z</time></trkpt><trkpt lat="44.57964156216077" lon="10.482649057947938"><ele>432.0</ele><time>2026-04-18T08:34:57.999Z</time></trkpt><trkpt lat="44.57962340353302" lon="10.482757248986843"><ele>429.33333333333337</ele><time>2026-04-18T08:34:58.999Z</time></trkpt><trkpt lat="44.57961713109937" lon="10.482900178775406"><ele>426.6666666666667</ele><time>2026-04-18T08:35:00.999Z</time></trkpt><trkpt lat="44.57958235889159" lon="10.483029826978056"><ele>424.0</ele><time>2026-04-18T08:35:02.999Z</time></trkpt><trkpt lat="44.57957028419697" lon="10.483166352277612"><ele>420.79999999999995</ele><time>2026-04-18T08:35:04.999Z</time></trkpt><trkpt lat="44.57954678758239" lon="10.483279408292924"><ele>417.59999999999997</ele><time>2026-04-18T08:35:06.999Z</time></trkpt><trkpt lat="44.57952601213956" lon="10.483407586998919"><ele>414.4</ele><time>2026-04-18T08:35:10Z</time></trkpt><trkpt lat="44.57950187251286" lon="10.483528699840253"><ele>411.2</ele><time>2026-04-18T08:35:12Z</time></trkpt><trkpt lat="44.579483527681965" lon="10.4836445761182"><ele>408.0</ele><time>2026-04-18T08:35:14Z</time></trkpt><trkpt lat="44.5794347200102" lon="10.48379073801511"><ele>405.8571428571429</ele><time>2026-04-18T08:35:16Z</time></trkpt><trkpt lat="44.57939403739329" lon="10.483861090160492"><ele>403.7142857142857</ele><time>2026-04-18T08:35:17Z</time></trkpt><trkpt lat="44.579327107393645" lon="10.4839408303258"><ele>401.57142857142856</ele><time>2026-04-18T08:35:18Z</time></trkpt><trkpt lat="44.579341923263" lon="10.484030938121117"><ele>399.42857142857144</ele><time>2026-04-18T08:35:19Z</time></trkpt><trkpt lat="44.57934965360668" lon="10.484124615365538"><ele>397.2857142857143</ele><time>2026-04-18T08:35:20Z</time></trkpt><trkpt lat="44.57927666486774" lon="10.484204823908753"><ele>395.14285714285717</ele><time>2026-04-18T08:35:21Z</time></trkpt><trkpt lat="44.57924592004968" lon="10.484293030532156"><ele>393.0</ele><time>2026-04-18T08:35:22Z</time></trkpt><trkpt lat="44.57918784877566" lon="10.484436660444931"><ele>393.0</ele><time>2026-04-18T08:35:24Z</time></trkpt><trkpt lat="44.57913433534952" lon="10.484575606333344"><ele>393.0</ele><time>2026-04-18T08:35:26Z</time></trkpt><trkpt lat="44.5790957697648" lon="10.484694424908158"><ele>393.0</ele><time>2026-04-18T08:35:28Z</time></trkpt><trkpt lat="44.579066729800466" lon="10.484843731483549"><ele>393.0</ele><time>2026-04-18T08:35:30Z</time></trkpt><trkpt lat="44.579031674161996" lon="10.484981896644143"><ele>393.0</ele><time>2026-04-18T08:35:32Z</time></trkpt><trkpt lat="44.57898613120083" lon="10.485050735019081"><ele>391.42857142857144</ele><time>2026-04-18T08:35:33Z</time></trkpt><trkpt lat="44.57893792374685" lon="10.485123090538785"><ele>389.8571428571429</ele><time>2026-04-18T08:35:34Z</time></trkpt><trkpt lat="44.578891229078906" lon="10.485205205728409"><ele>388.28571428571433</ele><time>2026-04-18T08:35:35Z</time></trkpt><trkpt lat="44.57885729512026" lon="10.485289121968034"><ele>386.7142857142857</ele><time>2026-04-18T08:35:36Z</time></trkpt><trkpt lat="44.57884607015204" lon="10.485387549949918"><ele>385.1428571428571</ele><time>2026-04-18T08:35:37Z</time></trkpt><trkpt lat="44.57884895066003" lon="10.485482816939735"><ele>383.5714285714286</ele><time>2026-04-18T08:35:38Z</time></trkpt><trkpt lat="44.57879820265071" lon="10.485591418352097"><ele>382.0</ele><time>2026-04-18T08:35:41Z</time></trkpt><trkpt lat="44.57874138892819" lon="10.485688446476406"><ele>377.8333333333333</ele><time>2026-04-18T08:35:43Z</time></trkpt><trkpt lat="44.578677836849174" lon="10.485769421772343"><ele>373.66666666666663</ele><time>2026-04-18T08:35:45Z</time></trkpt><trkpt lat="44.578600751854964" lon="10.485832299312516"><ele>369.5</ele><time>2026-04-18T08:35:47Z</time></trkpt><trkpt lat="44.57855675552627" lon="10.485896593625332"><ele>365.3333333333333</ele><time>2026-04-18T08:35:48.999Z</time></trkpt><trkpt lat="44.57849115628912" lon="10.485955899824626"><ele>361.1666666666667</ele><time>2026-04-18T08:35:50.999Z</time></trkpt><trkpt lat="44.57844087442778" lon="10.486036571564863"><ele>357.0</ele><time>2026-04-18T08:35:52.999Z</time></trkpt><trkpt lat="44.57842181547297" lon="10.486129974976558"><ele>357.0</ele><time>2026-04-18T08:35:55.999Z</time></trkpt><trkpt lat="44.57841235340567" lon="10.486223435608848"><ele>357.0</ele><time>2026-04-18T08:36:03.999Z</time></trkpt><trkpt lat="44.57838118871092" lon="10.486337441561231"><ele>357.0</ele><time>2026-04-18T08:36:08.999Z</time></trkpt><trkpt lat="44.578341187291564" lon="10.486461493598306"><ele>357.0</ele><time>2026-04-18T08:36:10.999Z</time></trkpt><trkpt lat="44.57827984656055" lon="10.486561467765958"><ele>357.0</ele><time>2026-04-18T08:36:12.999Z</time></trkpt><trkpt lat="44.57822034790473" lon="10.486683057241803"><ele>355.8333333333333</ele><time>2026-04-18T08:36:14.999Z</time></trkpt><trkpt lat="44.5781553551952" lon="10.486784059471805"><ele>354.6666666666667</ele><time>2026-04-18T08:36:16.999Z</time></trkpt><trkpt lat="44.5780969562378" lon="10.486869007251094"><ele>353.5</ele><time>2026-04-18T08:36:18.999Z</time></trkpt><trkpt lat="44.57802821160452" lon="10.486896605581231"><ele>352.33333333333337</ele><time>2026-04-18T08:36:20.999Z</time></trkpt><trkpt lat="44.57794538668138" lon="10.486849503980535"><ele>351.1666666666667</ele><time>2026-04-18T08:36:22.999Z</time></trkpt><trkpt lat="44.57786058804206" lon="10.486796719362113"><ele>350.0</ele><time>2026-04-18T08:36:24.999Z</time></trkpt><trkpt lat="44.57780113424047" lon="10.486682111590778"><ele>346.2</ele><time>2026-04-18T08:36:26.999Z</time></trkpt><trkpt lat="44.57774633883602" lon="10.48655992530006"><ele>342.4</ele><time>2026-04-18T08:36:28.999Z</time></trkpt><trkpt lat="44.57772665029454" lon="10.486401549972276"><ele>338.6</ele><time>2026-04-18T08:36:30.999Z</time></trkpt><trkpt lat="44.57772404167938" lon="10.486260925585901"><ele>334.8</ele><time>2026-04-18T08:36:32.999Z</time></trkpt><trkpt lat="44.57770367421422" lon="10.486114162841108"><ele>331.0</ele><time>2026-04-18T08:36:34.999Z</time></trkpt><trkpt lat="44.577676584813595" lon="10.48596095662956"><ele>331.0</ele><time>2026-04-18T08:36:36.999Z</time></trkpt><trkpt lat="44.577652553130164" lon="10.485831469771975"><ele>331.0</ele><time>2026-04-18T08:36:38.999Z</time></trkpt><trkpt lat="44.57760514420771" lon="10.485711729773316"><ele>331.0</ele><time>2026-04-18T08:36:41.999Z</time></trkpt><trkpt lat="44.57753147004863" lon="10.485649035174685"><ele>331.0</ele><time>2026-04-18T08:36:43.999Z</time></trkpt><trkpt lat="44.57745702027622" lon="10.485606234311003"><ele>331.0</ele><time>2026-04-18T08:36:45.999Z</time></trkpt><trkpt lat="44.57739358523202" lon="10.485563177963517"><ele>331.0</ele><time>2026-04-18T08:36:48.999Z</time></trkpt><trkpt lat="44.57734316375675" lon="10.485504045909753"><ele>331.0</ele><time>2026-04-18T08:36:54.999Z</time></trkpt><trkpt lat="44.57726843676235" lon="10.485454826793225"><ele>331.0</ele><time>2026-04-18T08:53:23Z</time></trkpt><trkpt lat="44.577201866371986" lon="10.485441068212793"><ele>331.0</ele><time>2026-04-18T08:53:30Z</time></trkpt><trkpt lat="44.57711942889682" lon="10.485443416441468"><ele>331.0</ele><time>2026-04-18T08:53:33Z</time></trkpt><trkpt lat="44.57705056501711" lon="10.485452608620387"><ele>331.0</ele><time>2026-04-18T08:53:35Z</time></trkpt><trkpt lat="44.57695831028705" lon="10.485502851993136"><ele>331.0</ele><time>2026-04-18T08:53:37Z</time></trkpt><trkpt lat="44.576872678240115" lon="10.485587885436054"><ele>326.2</ele><time>2026-04-18T08:53:39Z</time></trkpt><trkpt lat="44.57680021451581" lon="10.485672171336452"><ele>321.40000000000003</ele><time>2026-04-18T08:53:41Z</time></trkpt><trkpt lat="44.57673531570281" lon="10.485727256948245"><ele>316.6</ele><time>2026-04-18T08:53:43Z</time></trkpt><trkpt lat="44.57667212625504" lon="10.485785545864127"><ele>311.8</ele><time>2026-04-18T08:53:46Z</time></trkpt><trkpt lat="44.5765859249995" lon="10.485825677339415"><ele>307.0</ele><time>2026-04-18T08:53:48Z</time></trkpt><trkpt lat="44.57647085589469" lon="10.485821389159481"><ele>307.0</ele><time>2026-04-18T08:53:50Z</time></trkpt><trkpt lat="44.576408121887695" lon="10.48578916414117"><ele>307.0</ele><time>2026-04-18T08:53:51Z</time></trkpt><trkpt lat="44.57632488030214" lon="10.485808800202054"><ele>307.0</ele><time>2026-04-18T08:53:54Z</time></trkpt><trkpt lat="44.57625509880961" lon="10.485853624846449"><ele>307.0</ele><time>2026-04-18T08:53:56Z</time></trkpt><trkpt lat="44.57616421937369" lon="10.485924830061919"><ele>307.0</ele><time>2026-04-18T08:53:58Z</time></trkpt><trkpt lat="44.576092511860566" lon="10.485993900394138"><ele>307.0</ele><time>2026-04-18T08:54:00Z</time></trkpt><trkpt lat="44.57601004752224" lon="10.486051065313653"><ele>303.0</ele><time>2026-04-18T08:54:02Z</time></trkpt><trkpt lat="44.57593302142865" lon="10.48610375526692"><ele>299.0</ele><time>2026-04-18T08:54:04Z</time></trkpt><trkpt lat="44.57586274143174" lon="10.486178998642817"><ele>295.0</ele><time>2026-04-18T08:54:06Z</time></trkpt><trkpt lat="44.57578098411985" lon="10.486258937386873"><ele>291.0</ele><time>2026-04-18T08:54:08Z</time></trkpt><trkpt lat="44.57568438026126" lon="10.486346054087075"><ele>287.0</ele><time>2026-04-18T08:54:10Z</time></trkpt><trkpt lat="44.57560593091846" lon="10.486284788913453"><ele>287.0</ele><time>2026-04-18T08:54:13Z</time></trkpt><trkpt lat="44.575538721289085" lon="10.486309135045735"><ele>287.0</ele><time>2026-04-18T08:54:16Z</time></trkpt><trkpt lat="44.575451234761246" lon="10.486191839101485"><ele>287.0</ele><time>2026-04-18T08:54:23Z</time></trkpt><trkpt lat="44.57541998499959" lon="10.486078493865245"><ele>287.0</ele><time>2026-04-18T08:54:25Z</time></trkpt><trkpt lat="44.575379180113515" lon="10.485997594515176"><ele>287.0</ele><time>2026-04-18T08:54:27Z</time></trkpt><trkpt lat="44.57533937514398" lon="10.485911329986983"><ele>287.0</ele><time>2026-04-18T08:54:29Z</time></trkpt><trkpt lat="44.575301628089385" lon="10.485831001343257"><ele>286.75</ele><time>2026-04-18T08:54:32Z</time></trkpt><trkpt lat="44.57524577018746" lon="10.485698654960139"><ele>286.5</ele><time>2026-04-18T08:56:09Z</time></trkpt><trkpt lat="44.57518632648154" lon="10.485561068881484"><ele>286.25</ele><time>2026-04-18T08:56:10Z</time></trkpt><trkpt lat="44.57512174434415" lon="10.485378572282452"><ele>286.0</ele><time>2026-04-18T08:56:11Z</time></trkpt><trkpt lat="44.57509788324781" lon="10.485212281765824"><ele>286.0</ele><time>2026-04-18T08:56:12Z</time></trkpt><trkpt lat="44.57506229676933" lon="10.48511198619133"><ele>286.0</ele><time>2026-04-18T08:56:13Z</time></trkpt><trkpt lat="44.57504857586123" lon="10.485005716332648"><ele>286.0</ele><time>2026-04-18T08:56:14Z</time></trkpt><trkpt lat="44.57502519249494" lon="10.484862185553945"><ele>286.0</ele><time>2026-04-18T08:56:16Z</time></trkpt><trkpt lat="44.57500596812303" lon="10.484753994930475"><ele>286.0</ele><time>2026-04-18T08:56:18Z</time></trkpt><trkpt lat="44.57498291527691" lon="10.4846110057274"><ele>286.0</ele><time>2026-04-18T08:56:20Z</time></trkpt><trkpt lat="44.57496114007405" lon="10.48445385964719"><ele>287.25</ele><time>2026-04-18T08:56:22Z</time></trkpt><trkpt lat="44.574937028039386" lon="10.484310795680107"><ele>288.5</ele><time>2026-04-18T08:56:24Z</time></trkpt><trkpt lat="44.57490485132742" lon="10.484143302769688"><ele>289.75</ele><time>2026-04-18T08:56:26Z</time></trkpt><trkpt lat="44.57487719886836" lon="10.48399202124565"><ele>291.0</ele><time>2026-04-18T08:56:28Z</time></trkpt><trkpt lat="44.57484668931002" lon="10.483821954594754"><ele>290.8</ele><time>2026-04-18T08:56:30Z</time></trkpt><trkpt lat="44.574824122697684" lon="10.483694233206446"><ele>290.6</ele><time>2026-04-18T08:56:31Z</time></trkpt><trkpt lat="44.57480479946475" lon="10.483544351064824"><ele>290.4</ele><time>2026-04-18T08:56:32Z</time></trkpt><trkpt lat="44.574788322263046" lon="10.483419797897467"><ele>290.2</ele><time>2026-04-18T08:56:33Z</time></trkpt><trkpt lat="44.574769672617215" lon="10.483298359279095"><ele>290.0</ele><time>2026-04-18T08:56:34Z</time></trkpt><trkpt lat="44.57476121457775" lon="10.483179536393028"><ele>290.0</ele><time>2026-04-18T08:56:35Z</time></trkpt><trkpt lat="44.57473463784763" lon="10.48305963976786"><ele>290.0</ele><time>2026-04-18T08:56:36Z</time></trkpt><trkpt lat="44.57471802099118" lon="10.482952332154051"><ele>290.0</ele><time>2026-04-18T08:56:37Z</time></trkpt><trkpt lat="44.57470687139382" lon="10.482857973600039"><ele>290.0</ele><time>2026-04-18T08:56:38Z</time></trkpt><trkpt lat="44.57467434390298" lon="10.482734250048875"><ele>290.0</ele><time>2026-04-18T08:56:40Z</time></trkpt><trkpt lat="44.574609036949525" lon="10.482595140809721"><ele>290.0</ele><time>2026-04-18T08:56:42Z</time></trkpt><trkpt lat="44.57452311992412" lon="10.482494792567158"><ele>290.5</ele><time>2026-04-18T08:56:44Z</time></trkpt><trkpt lat="44.57446004494765" lon="10.482437154822836"><ele>291.0</ele><time>2026-04-18T08:56:46Z</time></trkpt><trkpt lat="44.57437315845875" lon="10.482353346772898"><ele>291.5</ele><time>2026-04-18T08:56:49Z</time></trkpt><trkpt lat="44.57429061171761" lon="10.48227732237502"><ele>292.0</ele><time>2026-04-18T08:56:51Z</time></trkpt><trkpt lat="44.574235338919586" lon="10.482220401697498"><ele>292.5</ele><time>2026-04-18T08:56:52Z</time></trkpt><trkpt lat="44.574178145986515" lon="10.48214703937156"><ele>293.0</ele><time>2026-04-18T08:56:53Z</time></trkpt><trkpt lat="44.57411470704067" lon="10.482054020792427"><ele>293.0</ele><time>2026-04-18T08:56:54Z</time></trkpt><trkpt lat="44.574056938033316" lon="10.481948080683273"><ele>293.0</ele><time>2026-04-18T08:56:55Z</time></trkpt><trkpt lat="44.57401495991216" lon="10.48184367959881"><ele>293.0</ele><time>2026-04-18T08:56:56Z</time></trkpt><trkpt lat="44.573957460203104" lon="10.481728299527276"><ele>293.0</ele><time>2026-04-18T08:56:57Z</time></trkpt><trkpt lat="44.57390840602719" lon="10.481622315518228"><ele>293.0</ele><time>2026-04-18T08:56:58Z</time></trkpt><trkpt lat="44.573861971191796" lon="10.481512349937677"><ele>292.99999999999994</ele><time>2026-04-18T08:56:59Z</time></trkpt><trkpt lat="44.57381255332241" lon="10.481413270616196"><ele>293.0</ele><time>2026-04-18T08:57:00Z</time></trkpt><trkpt lat="44.57377664957294" lon="10.481333000686796"><ele>293.0</ele><time>2026-04-18T08:57:01Z</time></trkpt><trkpt lat="44.5737421093413" lon="10.481256713730033"><ele>293.0</ele><time>2026-04-18T08:57:02Z</time></trkpt><trkpt lat="44.5737080411919" lon="10.481161910965769"><ele>293.0</ele><time>2026-04-18T08:57:03Z</time></trkpt><trkpt lat="44.573663365816834" lon="10.481073292156603"><ele>292.99999999999994</ele><time>2026-04-18T08:57:04Z</time></trkpt><trkpt lat="44.57363750730128" lon="10.480978136420383"><ele>293.0</ele><time>2026-04-18T08:57:05Z</time></trkpt><trkpt lat="44.573604061490045" lon="10.480902164817882"><ele>293.33333333333337</ele><time>2026-04-18T08:57:06Z</time></trkpt><trkpt lat="44.57355475350214" lon="10.48082865746273"><ele>293.6666666666667</ele><time>2026-04-18T08:57:07Z</time></trkpt><trkpt lat="44.57351625341902" lon="10.480744079209407"><ele>294.0</ele><time>2026-04-18T08:57:08Z</time></trkpt><trkpt lat="44.573486111654965" lon="10.480663325753213"><ele>294.3333333333333</ele><time>2026-04-18T08:57:09Z</time></trkpt><trkpt lat="44.57342819594913" lon="10.480536828356163"><ele>294.66666666666663</ele><time>2026-04-18T08:57:11Z</time></trkpt><trkpt lat="44.573363801639466" lon="10.480425786327476"><ele>295.0</ele><time>2026-04-18T08:57:13Z</time></trkpt><trkpt lat="44.57328985047845" lon="10.480294704285914"><ele>295.0</ele><time>2026-04-18T08:57:15Z</time></trkpt><trkpt lat="44.5732183000614" lon="10.480215571848913"><ele>295.0</ele><time>2026-04-18T08:57:16Z</time></trkpt><trkpt lat="44.57313787255235" lon="10.480148172602913"><ele>295.0</ele><time>2026-04-18T08:57:17Z</time></trkpt><trkpt lat="44.57306022356997" lon="10.480093787060735"><ele>295.0</ele><time>2026-04-18T08:57:18Z</time></trkpt><trkpt lat="44.57298902755277" lon="10.48002967532971"><ele>295.0</ele><time>2026-04-18T08:57:19Z</time></trkpt><trkpt lat="44.57289510675101" lon="10.479957262232572"><ele>297.0</ele><time>2026-04-18T08:57:20Z</time></trkpt><trkpt lat="44.57279352763205" lon="10.479868797526821"><ele>299.0</ele><time>2026-04-18T08:57:21Z</time></trkpt><trkpt lat="44.57270034226736" lon="10.479789639728232"><ele>301.0</ele><time>2026-04-18T08:57:22Z</time></trkpt><trkpt lat="44.5725549046038" lon="10.47966848119375"><ele>303.0</ele><time>2026-04-18T08:57:23Z</time></trkpt><trkpt lat="44.57239279034543" lon="10.479521383207386"><ele>303.0</ele><time>2026-04-18T08:57:24Z</time></trkpt><trkpt lat="44.57224330888807" lon="10.479389358378302"><ele>303.0</ele><time>2026-04-18T08:57:25Z</time></trkpt><trkpt lat="44.57212176390989" lon="10.479287753743973"><ele>303.0</ele><time>2026-04-18T08:57:26Z</time></trkpt><trkpt lat="44.57202768127768" lon="10.479215697430085"><ele>303.0</ele><time>2026-04-18T08:57:27Z</time></trkpt><trkpt lat="44.57196738687319" lon="10.479147238877006"><ele>303.0</ele><time>2026-04-18T08:57:28Z</time></trkpt><trkpt lat="44.57196011478806" lon="10.47903401390936"><ele>303.0</ele><time>2026-04-18T08:57:29Z</time></trkpt><trkpt lat="44.57196555382672" lon="10.47894160954122"><ele>303.0</ele><time>2026-04-18T08:57:30Z</time></trkpt><trkpt lat="44.57200374279377" lon="10.478853883890377"><ele>303.0</ele><time>2026-04-18T08:57:31Z</time></trkpt><trkpt lat="44.57213167770191" lon="10.478863138396568"><ele>303.0</ele><time>2026-04-18T08:57:32Z</time></trkpt><trkpt lat="44.57221364841947" lon="10.47886613910356"><ele>303.0</ele><time>2026-04-18T08:57:33Z</time></trkpt><trkpt lat="44.57231065120891" lon="10.478844871177607"><ele>303.0</ele><time>2026-04-18T08:57:34Z</time></trkpt><trkpt lat="44.57240310678405" lon="10.478845888496586"><ele>303.0</ele><time>2026-04-18T08:57:35Z</time></trkpt><trkpt lat="44.57249462241008" lon="10.47885635270741"><ele>303.0</ele><time>2026-04-18T08:57:36Z</time></trkpt><trkpt lat="44.57257449757956" lon="10.47885377582207"><ele>303.0</ele><time>2026-04-18T08:57:37Z</time></trkpt><trkpt lat="44.572655545481076" lon="10.478848748047533"><ele>303.0</ele><time>2026-04-18T08:57:38Z</time></trkpt><trkpt lat="44.57272876108008" lon="10.47885190311246"><ele>303.0</ele><time>2026-04-18T08:57:39Z</time></trkpt><trkpt lat="44.572797769589314" lon="10.478841054296959"><ele>302.8333333333333</ele><time>2026-04-18T08:57:40Z</time></trkpt><trkpt lat="44.57286890010745" lon="10.478819689946256"><ele>302.6666666666667</ele><time>2026-04-18T08:57:41Z</time></trkpt><trkpt lat="44.572945972395516" lon="10.47877754350731"><ele>302.5</ele><time>2026-04-18T08:57:42Z</time></trkpt><trkpt lat="44.57301563409261" lon="10.478713078890925"><ele>302.33333333333337</ele><time>2026-04-18T08:57:43Z</time></trkpt><trkpt lat="44.57307907726789" lon="10.4786348754187"><ele>302.1666666666667</ele><time>2026-04-18T08:57:44Z</time></trkpt><trkpt lat="44.57312290175261" lon="10.478545616284665"><ele>302.0</ele><time>2026-04-18T08:57:45Z</time></trkpt><trkpt lat="44.57314430979987" lon="10.478418766738084"><ele>304.0</ele><time>2026-04-18T08:57:46Z</time></trkpt><trkpt lat="44.57315216057417" lon="10.478278318471014"><ele>306.0</ele><time>2026-04-18T08:57:47Z</time></trkpt><trkpt lat="44.57315500610866" lon="10.478138278879563"><ele>308.0</ele><time>2026-04-18T08:57:48Z</time></trkpt><trkpt lat="44.57314523666732" lon="10.477997138397583"><ele>310.0</ele><time>2026-04-18T08:57:49Z</time></trkpt><trkpt lat="44.573134735188454" lon="10.477889637468758"><ele>312.0</ele><time>2026-04-18T08:57:50Z</time></trkpt><trkpt lat="44.5731052898499" lon="10.47775777184275"><ele>313.3333333333333</ele><time>2026-04-18T08:57:52Z</time></trkpt><trkpt lat="44.57300847568286" lon="10.477681698400392"><ele>314.6666666666667</ele><time>2026-04-18T08:57:54Z</time></trkpt><trkpt lat="44.57294584162701" lon="10.477656658935285"><ele>316.0</ele><time>2026-04-18T08:57:55Z</time></trkpt><trkpt lat="44.572869220790515" lon="10.477703866754974"><ele>317.33333333333337</ele><time>2026-04-18T08:57:56Z</time></trkpt><trkpt lat="44.572802347890025" lon="10.47772136054046"><ele>318.6666666666667</ele><time>2026-04-18T08:57:57Z</time></trkpt><trkpt lat="44.57273842331986" lon="10.477753589314588"><ele>320.0</ele><time>2026-04-18T08:57:58Z</time></trkpt><trkpt lat="44.572671646054744" lon="10.477784122265732"><ele>322.4</ele><time>2026-04-18T08:57:59Z</time></trkpt><trkpt lat="44.572566486380936" lon="10.477793896181147"><ele>324.8</ele><time>2026-04-18T08:58:01Z</time></trkpt><trkpt lat="44.57249613570293" lon="10.477690935149948"><ele>327.20000000000005</ele><time>2026-04-18T08:58:03Z</time></trkpt><trkpt lat="44.572563894937275" lon="10.477768831099729"><ele>329.6</ele><time>2026-04-18T08:58:10Z</time></trkpt><trkpt lat="44.57262850822128" lon="10.477617930456606"><ele>332.0</ele><time>2026-04-18T08:58:12Z</time></trkpt><trkpt lat="44.572699145327725" lon="10.477581962302597"><ele>332.0</ele><time>2026-04-18T08:58:13Z</time></trkpt><trkpt lat="44.572768919830324" lon="10.47754643342571"><ele>332.0</ele><time>2026-04-18T08:58:14Z</time></trkpt><trkpt lat="44.57283272991337" lon="10.477512460272598"><ele>332.0</ele><time>2026-04-18T08:58:15Z</time></trkpt><trkpt lat="44.572895678541" lon="10.477476576057088"><ele>332.0</ele><time>2026-04-18T08:58:16Z</time></trkpt><trkpt lat="44.572985081405385" lon="10.477425611458326"><ele>332.0</ele><time>2026-04-18T08:58:18Z</time></trkpt><trkpt lat="44.573140049586264" lon="10.477904897470156"><ele>329.1428571428571</ele><time>2026-04-18T08:58:20Z</time></trkpt><trkpt lat="44.57314078615053" lon="10.478010117387079"><ele>326.28571428571433</ele><time>2026-04-18T08:58:21Z</time></trkpt><trkpt lat="44.573132915593774" lon="10.478110870957478"><ele>323.42857142857144</ele><time>2026-04-18T08:58:22Z</time></trkpt><trkpt lat="44.5731287301821" lon="10.478208141313557"><ele>320.57142857142856</ele><time>2026-04-18T08:58:23Z</time></trkpt><trkpt lat="44.5731300246164" lon="10.47830704093011"><ele>317.71428571428567</ele><time>2026-04-18T08:58:24Z</time></trkpt><trkpt lat="44.57312738471914" lon="10.478401329733067"><ele>314.8571428571429</ele><time>2026-04-18T08:58:25Z</time></trkpt><trkpt lat="44.57311067275846" lon="10.478495039708402"><ele>312.0</ele><time>2026-04-18T08:58:26Z</time></trkpt><trkpt lat="44.5730828824353" lon="10.478581195307667"><ele>312.0</ele><time>2026-04-18T08:58:27Z</time></trkpt><trkpt lat="44.573043259913746" lon="10.478661288381607"><ele>312.0</ele><time>2026-04-18T08:58:28Z</time></trkpt><trkpt lat="44.57298943130177" lon="10.478726103465485"><ele>312.0</ele><time>2026-04-18T08:58:29Z</time></trkpt><trkpt lat="44.572915517905074" lon="10.478752520939969"><ele>312.0</ele><time>2026-04-18T08:58:30Z</time></trkpt><trkpt lat="44.57284603305731" lon="10.478788891228236"><ele>312.0</ele><time>2026-04-18T08:58:31Z</time></trkpt><trkpt lat="44.57277250323337" lon="10.478799705907013"><ele>312.0</ele><time>2026-04-18T08:58:32Z</time></trkpt><trkpt lat="44.572683380393094" lon="10.478826132506258"><ele>310.5</ele><time>2026-04-18T08:58:33Z</time></trkpt><trkpt lat="44.57259359529115" lon="10.478826098902854"><ele>309.0</ele><time>2026-04-18T08:58:34Z</time></trkpt><trkpt lat="44.572495246355686" lon="10.478830688991257"><ele>307.5</ele><time>2026-04-18T08:58:35Z</time></trkpt><trkpt lat="44.57241061530015" lon="10.478834538839637"><ele>306.0</ele><time>2026-04-18T08:58:36Z</time></trkpt><trkpt lat="44.57233144333383" lon="10.478836881826767"><ele>304.5</ele><time>2026-04-18T08:58:37Z</time></trkpt><trkpt lat="44.57226601527029" lon="10.47883648604322"><ele>303.0</ele><time>2026-04-18T08:58:38Z</time></trkpt><trkpt lat="44.57219470312145" lon="10.478825539579177"><ele>303.0</ele><time>2026-04-18T08:58:39Z</time></trkpt><trkpt lat="44.57212520152397" lon="10.478841667085353"><ele>303.0</ele><time>2026-04-18T08:58:40Z</time></trkpt><trkpt lat="44.57206000611768" lon="10.478852206737724"><ele>303.0</ele><time>2026-04-18T08:58:41Z</time></trkpt><trkpt lat="44.57195737466284" lon="10.478903353226205"><ele>303.0</ele><time>2026-04-18T08:58:43Z</time></trkpt><trkpt lat="44.571928153897446" lon="10.479001715380942"><ele>303.0</ele><time>2026-04-18T08:58:44Z</time></trkpt><trkpt lat="44.571936833655975" lon="10.479107899950652"><ele>303.0</ele><time>2026-04-18T08:58:45Z</time></trkpt><trkpt lat="44.571976798988885" lon="10.479180034970392"><ele>303.0</ele><time>2026-04-18T08:58:46Z</time></trkpt><trkpt lat="44.572046727644576" lon="10.479272068069191"><ele>303.0</ele><time>2026-04-18T08:58:48Z</time></trkpt><trkpt lat="44.571958359270525" lon="10.479203264165717"><ele>303.0</ele><time>2026-04-18T08:58:55Z</time></trkpt><trkpt lat="44.57188785732061" lon="10.479182744569297"><ele>303.0</ele><time>2026-04-18T08:58:56Z</time></trkpt><trkpt lat="44.571776228314135" lon="10.479133337977197"><ele>303.0</ele><time>2026-04-18T08:58:58Z</time></trkpt><trkpt lat="44.571698060804" lon="10.479101094288849"><ele>303.2857142857143</ele><time>2026-04-18T08:58:59Z</time></trkpt><trkpt lat="44.57163098553729" lon="10.479101794752044"><ele>303.57142857142856</ele><time>2026-04-18T08:59:00Z</time></trkpt><trkpt lat="44.57156797706588" lon="10.479082352368096"><ele>303.8571428571429</ele><time>2026-04-18T08:59:01Z</time></trkpt><trkpt lat="44.57149396914972" lon="10.47906911496148"><ele>304.1428571428571</ele><time>2026-04-18T08:59:03Z</time></trkpt><trkpt lat="44.57144579715701" lon="10.479007655579428"><ele>304.4285714285714</ele><time>2026-04-18T08:59:08Z</time></trkpt><trkpt lat="44.57138374695258" lon="10.478949974333029"><ele>304.7142857142857</ele><time>2026-04-18T08:59:15Z</time></trkpt><trkpt lat="44.571352545433705" lon="10.478866776769415"><ele>305.0</ele><time>2026-04-18T08:59:17Z</time></trkpt><trkpt lat="44.57130267536993" lon="10.478756240564056"><ele>305.6666666666667</ele><time>2026-04-18T08:59:19Z</time></trkpt><trkpt lat="44.571241943108106" lon="10.47865499826869"><ele>306.33333333333337</ele><time>2026-04-18T08:59:21Z</time></trkpt><trkpt lat="44.571183152192916" lon="10.478582072674108"><ele>307.0</ele><time>2026-04-18T08:59:23Z</time></trkpt><trkpt lat="44.57110541125492" lon="10.478548026603802"><ele>307.6666666666667</ele><time>2026-04-18T08:59:40Z</time></trkpt><trkpt lat="44.57108791338936" lon="10.47845728100929"><ele>308.3333333333333</ele><time>2026-04-18T08:59:43Z</time></trkpt><trkpt lat="44.57101897730074" lon="10.478404759342245"><ele>309.0</ele><time>2026-04-18T08:59:45Z</time></trkpt><trkpt lat="44.57095589102114" lon="10.478429937395148"><ele>309.0</ele><time>2026-04-18T08:59:47Z</time></trkpt><trkpt lat="44.57093913681811" lon="10.47855711920023"><ele>309.0</ele><time>2026-04-18T08:59:50Z</time></trkpt><trkpt lat="44.57084407147986" lon="10.478559668985508"><ele>309.0</ele><time>2026-04-18T08:59:52Z</time></trkpt><trkpt lat="44.57078257134525" lon="10.478470373569289"><ele>309.0</ele><time>2026-04-18T08:59:53Z</time></trkpt><trkpt lat="44.5707322777304" lon="10.478391177181596"><ele>309.0</ele><time>2026-04-18T08:59:54Z</time></trkpt><trkpt lat="44.57064407101733" lon="10.478320064581968"><ele>309.0</ele><time>2026-04-18T08:59:56Z</time></trkpt><trkpt lat="44.5705868538082" lon="10.478358760805484"><ele>309.0</ele><time>2026-04-18T08:59:58Z</time></trkpt><trkpt lat="44.570554170415164" lon="10.478499287336827"><ele>309.0</ele><time>2026-04-18T09:00:00Z</time></trkpt><trkpt lat="44.57051071494469" lon="10.478625626084884"><ele>309.0</ele><time>2026-04-18T09:00:02Z</time></trkpt><trkpt lat="44.57045697780223" lon="10.478687212788728"><ele>309.0</ele><time>2026-04-18T09:00:04Z</time></trkpt><trkpt lat="44.570402172299964" lon="10.478756164838027"><ele>309.0</ele><time>2026-04-18T09:00:07Z</time></trkpt><trkpt lat="44.57030964014135" lon="10.47878872558174"><ele>311.8333333333333</ele><time>2026-04-18T09:00:09Z</time></trkpt><trkpt lat="44.57021969694895" lon="10.478833012883266"><ele>314.6666666666667</ele><time>2026-04-18T09:00:11Z</time></trkpt><trkpt lat="44.570158953623164" lon="10.478873213781997"><ele>317.5</ele><time>2026-04-18T09:00:13Z</time></trkpt><trkpt lat="44.570067553183115" lon="10.478988440573069"><ele>320.33333333333337</ele><time>2026-04-18T09:00:15Z</time></trkpt><trkpt lat="44.57000531151102" lon="10.4790390899704"><ele>323.1666666666667</ele><time>2026-04-18T09:00:16Z</time></trkpt><trkpt lat="44.56994363128411" lon="10.479059215917623"><ele>326.0</ele><time>2026-04-18T09:00:17Z</time></trkpt><trkpt lat="44.569874549009306" lon="10.479084266436683"><ele>326.0</ele><time>2026-04-18T09:00:18Z</time></trkpt><trkpt lat="44.56981464630443" lon="10.479148036573395"><ele>326.0</ele><time>2026-04-18T09:00:20.001Z</time></trkpt><trkpt lat="44.569766186128454" lon="10.479277285902953"><ele>326.0</ele><time>2026-04-18T09:00:22.001Z</time></trkpt><trkpt lat="44.56969181362798" lon="10.479390935639632"><ele>326.0</ele><time>2026-04-18T09:00:24.001Z</time></trkpt><trkpt lat="44.56961081173551" lon="10.479491965104668"><ele>326.0</ele><time>2026-04-18T09:00:26.001Z</time></trkpt><trkpt lat="44.569539911334225" lon="10.479532411534011"><ele>327.0</ele><time>2026-04-18T09:00:27.001Z</time></trkpt><trkpt lat="44.569483584182294" lon="10.479594836758197"><ele>328.0</ele><time>2026-04-18T09:00:28.001Z</time></trkpt><trkpt lat="44.569429147297726" lon="10.479695125280399"><ele>329.0</ele><time>2026-04-18T09:00:30.001Z</time></trkpt><trkpt lat="44.56935736885766" lon="10.479769233828572"><ele>330.0</ele><time>2026-04-18T09:00:33.001Z</time></trkpt><trkpt lat="44.56929644385472" lon="10.47989307538436"><ele>331.0</ele><time>2026-04-18T09:00:35.001Z</time></trkpt><trkpt lat="44.56925430405687" lon="10.4800158466177"><ele>334.6</ele><time>2026-04-18T09:00:37.001Z</time></trkpt><trkpt lat="44.56919530447291" lon="10.480103320881785"><ele>338.20000000000005</ele><time>2026-04-18T09:00:39.001Z</time></trkpt><trkpt lat="44.56911936124568" lon="10.48012176067754"><ele>341.79999999999995</ele><time>2026-04-18T09:00:41.001Z</time></trkpt><trkpt lat="44.569058839635055" lon="10.480242913915397"><ele>345.4</ele><time>2026-04-18T09:00:43.001Z</time></trkpt><trkpt lat="44.569029551385704" lon="10.480377606367876"><ele>349.0</ele><time>2026-04-18T09:00:45.001Z</time></trkpt><trkpt lat="44.56896766483858" lon="10.480472867394026"><ele>351.4</ele><time>2026-04-18T09:00:47.001Z</time></trkpt><trkpt lat="44.568895677732435" lon="10.480595827763715"><ele>353.79999999999995</ele><time>2026-04-18T09:00:49.001Z</time></trkpt><trkpt lat="44.568807595622445" lon="10.480707212843718"><ele>356.20000000000005</ele><time>2026-04-18T09:00:51.001Z</time></trkpt><trkpt lat="44.56871815499918" lon="10.480779910819678"><ele>358.6</ele><time>2026-04-18T09:00:53.001Z</time></trkpt><trkpt lat="44.568640162577935" lon="10.480845993840019"><ele>361.0</ele><time>2026-04-18T09:00:55.001Z</time></trkpt><trkpt lat="44.56854741118732" lon="10.480928486188441"><ele>363.3333333333333</ele><time>2026-04-18T09:00:58.001Z</time></trkpt><trkpt lat="44.56847524162967" lon="10.480998113352383"><ele>365.66666666666663</ele><time>2026-04-18T09:00:59.001Z</time></trkpt><trkpt lat="44.56841122412195" lon="10.481066415077972"><ele>368.0</ele><time>2026-04-18T09:01:00.001Z</time></trkpt><trkpt lat="44.568343452904344" lon="10.481147639793734"><ele>370.3333333333333</ele><time>2026-04-18T09:01:01.001Z</time></trkpt><trkpt lat="44.56828812207824" lon="10.481229985344726"><ele>372.6666666666667</ele><time>2026-04-18T09:01:02.001Z</time></trkpt><trkpt lat="44.568244912630206" lon="10.48129748231054"><ele>375.0</ele><time>2026-04-18T09:01:03.001Z</time></trkpt><trkpt lat="44.56816689278852" lon="10.481426481590411"><ele>377.0</ele><time>2026-04-18T09:01:05.001Z</time></trkpt><trkpt lat="44.56809437611784" lon="10.481504054752799"><ele>379.0</ele><time>2026-04-18T09:01:07.001Z</time></trkpt><trkpt lat="44.567987519828584" lon="10.481367744821613"><ele>381.0</ele><time>2026-04-18T09:01:08.001Z</time></trkpt><trkpt lat="44.567974003942695" lon="10.481469820929448"><ele>383.0</ele><time>2026-04-18T09:01:10.001Z</time></trkpt><trkpt lat="44.56790520112856" lon="10.481469829136547"><ele>385.0</ele><time>2026-04-18T09:01:12.001Z</time></trkpt><trkpt lat="44.56781936613753" lon="10.48153521837388"><ele>387.6666666666667</ele><time>2026-04-18T09:01:14.001Z</time></trkpt><trkpt lat="44.56773214955035" lon="10.481579786442708"><ele>390.33333333333337</ele><time>2026-04-18T09:01:16.001Z</time></trkpt><trkpt lat="44.567639312184006" lon="10.481531912287952"><ele>393.0</ele><time>2026-04-18T09:01:18.001Z</time></trkpt><trkpt lat="44.56756852748941" lon="10.481526057366565"><ele>395.66666666666663</ele><time>2026-04-18T09:01:20.001Z</time></trkpt><trkpt lat="44.56754651535793" lon="10.481616873399005"><ele>398.3333333333333</ele><time>2026-04-18T09:01:21.001Z</time></trkpt><trkpt lat="44.56747682065697" lon="10.481676847207236"><ele>401.0</ele><time>2026-04-18T09:01:23.001Z</time></trkpt><trkpt lat="44.567376126857916" lon="10.48172007803325"><ele>401.0</ele><time>2026-04-18T09:01:25.001Z</time></trkpt><trkpt lat="44.5672747812167" lon="10.48170488226069"><ele>401.0</ele><time>2026-04-18T09:01:27.001Z</time></trkpt><trkpt lat="44.56716794659232" lon="10.48171845580354"><ele>401.0</ele><time>2026-04-18T09:01:29.001Z</time></trkpt><trkpt lat="44.56709958424242" lon="10.481648080397605"><ele>401.0</ele><time>2026-04-18T09:01:31.001Z</time></trkpt><trkpt lat="44.56702596029152" lon="10.481591189224874"><ele>401.0</ele><time>2026-04-18T09:01:33.001Z</time></trkpt><trkpt lat="44.56693153669965" lon="10.481542557079285"><ele>402.8</ele><time>2026-04-18T09:01:35.001Z</time></trkpt><trkpt lat="44.56686377451877" lon="10.481474021233367"><ele>404.6</ele><time>2026-04-18T09:01:37.001Z</time></trkpt><trkpt lat="44.56677463194831" lon="10.48140752127051"><ele>406.4</ele><time>2026-04-18T09:01:39Z</time></trkpt><trkpt lat="44.566707277727424" lon="10.48138458605161"><ele>408.2</ele><time>2026-04-18T09:01:40Z</time></trkpt><trkpt lat="44.56660496707837" lon="10.481363000917256"><ele>410.0</ele><time>2026-04-18T09:01:42Z</time></trkpt><trkpt lat="44.566487899594975" lon="10.48134541134443"><ele>409.99999999999994</ele><time>2026-04-18T09:01:44Z</time></trkpt><trkpt lat="44.56642505745821" lon="10.481338851522938"><ele>410.0</ele><time>2026-04-18T09:01:45Z</time></trkpt><trkpt lat="44.56634770790417" lon="10.481362097177664"><ele>410.0</ele><time>2026-04-18T09:01:46Z</time></trkpt><trkpt lat="44.56628254175124" lon="10.481368468041973"><ele>410.0</ele><time>2026-04-18T09:01:47Z</time></trkpt><trkpt lat="44.56621996899714" lon="10.481385818281279"><ele>409.99999999999994</ele><time>2026-04-18T09:01:48Z</time></trkpt><trkpt lat="44.566160418154375" lon="10.481423389271411"><ele>410.0</ele><time>2026-04-18T09:01:49Z</time></trkpt><trkpt lat="44.566049923971896" lon="10.481512578989026"><ele>409.75</ele><time>2026-04-18T09:01:51Z</time></trkpt><trkpt lat="44.5659509280814" lon="10.481569504912601"><ele>409.5</ele><time>2026-04-18T09:01:53Z</time></trkpt><trkpt lat="44.56582527337803" lon="10.481533040865962"><ele>409.25</ele><time>2026-04-18T09:01:55Z</time></trkpt><trkpt lat="44.565735029595245" lon="10.481474851483018"><ele>409.0</ele><time>2026-04-18T09:01:57Z</time></trkpt><trkpt lat="44.565628848032134" lon="10.481547200734116"><ele>409.0</ele><time>2026-04-18T09:01:59Z</time></trkpt><trkpt lat="44.56555519730995" lon="10.481625368121648"><ele>409.0</ele><time>2026-04-18T09:02:01Z</time></trkpt><trkpt lat="44.56551756718009" lon="10.481699975772653"><ele>409.0</ele><time>2026-04-18T09:02:02Z</time></trkpt><trkpt lat="44.56540996029354" lon="10.481790685278467"><ele>409.0</ele><time>2026-04-18T09:02:04Z</time></trkpt><trkpt lat="44.56531794260334" lon="10.481913185725203"><ele>409.0</ele><time>2026-04-18T09:02:06Z</time></trkpt><trkpt lat="44.565280731945606" lon="10.481987072035784"><ele>409.1666666666667</ele><time>2026-04-18T09:02:07Z</time></trkpt><trkpt lat="44.56524310716102" lon="10.482073367883816"><ele>409.33333333333337</ele><time>2026-04-18T09:02:08Z</time></trkpt><trkpt lat="44.56520258155624" lon="10.48216829830055"><ele>409.5</ele><time>2026-04-18T09:02:09Z</time></trkpt><trkpt lat="44.5651545018555" lon="10.482316320734947"><ele>409.66666666666663</ele><time>2026-04-18T09:02:11Z</time></trkpt><trkpt lat="44.56506825464522" lon="10.48232080598895"><ele>409.8333333333333</ele><time>2026-04-18T09:02:14Z</time></trkpt><trkpt lat="44.564989255483674" lon="10.482316092717213"><ele>410.0</ele><time>2026-04-18T09:02:15Z</time></trkpt><trkpt lat="44.564878768389804" lon="10.482290245144283"><ele>409.99999999999994</ele><time>2026-04-18T09:02:17Z</time></trkpt><trkpt lat="44.564804589737044" lon="10.482261455037106"><ele>410.0</ele><time>2026-04-18T09:02:20Z</time></trkpt><trkpt lat="44.56473847841969" lon="10.482252728782255"><ele>410.0</ele><time>2026-04-18T09:02:22Z</time></trkpt><trkpt lat="44.56464115424671" lon="10.48223514435474"><ele>410.0</ele><time>2026-04-18T09:02:25Z</time></trkpt><trkpt lat="44.564552353217856" lon="10.482212519431396"><ele>409.99999999999994</ele><time>2026-04-18T09:02:27.001Z</time></trkpt><trkpt lat="44.56448119301672" lon="10.482187571243136"><ele>410.0</ele><time>2026-04-18T09:02:28.001Z</time></trkpt><trkpt lat="44.56439267819409" lon="10.482176799859834"><ele>410.0</ele><time>2026-04-18T09:02:30.001Z</time></trkpt><trkpt lat="44.564269483778126" lon="10.482180298849086"><ele>410.0</ele><time>2026-04-18T09:02:32.001Z</time></trkpt><trkpt lat="44.56415905152976" lon="10.482261774870949"><ele>410.0</ele><time>2026-04-18T09:02:34.001Z</time></trkpt><trkpt lat="44.56408807928305" lon="10.482348512798014"><ele>410.0</ele><time>2026-04-18T09:02:36.001Z</time></trkpt><trkpt lat="44.56400695032917" lon="10.482436852546224"><ele>410.0</ele><time>2026-04-18T09:02:38.001Z</time></trkpt><trkpt lat="44.56391033655376" lon="10.482471778985646"><ele>410.0</ele><time>2026-04-18T09:02:40.001Z</time></trkpt><trkpt lat="44.56381290414183" lon="10.482556575806194"><ele>410.0</ele><time>2026-04-18T09:02:42.001Z</time></trkpt><trkpt lat="44.56373914819967" lon="10.482565188573389"><ele>410.0</ele><time>2026-04-18T09:02:43.001Z</time></trkpt><trkpt lat="44.56367198835209" lon="10.482642765569956"><ele>410.0</ele><time>2026-04-18T09:02:45.001Z</time></trkpt><trkpt lat="44.563599085578694" lon="10.482668195819663"><ele>410.0</ele><time>2026-04-18T09:02:47.001Z</time></trkpt><trkpt lat="44.563487864412316" lon="10.482728043803776"><ele>410.0</ele><time>2026-04-18T09:02:49.001Z</time></trkpt><trkpt lat="44.56338368058627" lon="10.482753742393106"><ele>410.0</ele><time>2026-04-18T09:02:51.001Z</time></trkpt><trkpt lat="44.563294629111276" lon="10.482868243035842"><ele>410.0</ele><time>2026-04-18T09:02:53.001Z</time></trkpt><trkpt lat="44.563244252275965" lon="10.482923450296902"><ele>410.0</ele><time>2026-04-18T09:02:54.001Z</time></trkpt><trkpt lat="44.563160869548526" lon="10.483015580646098"><ele>410.0</ele><time>2026-04-18T09:02:56.001Z</time></trkpt><trkpt lat="44.56310506476663" lon="10.483134390049376"><ele>410.16666666666663</ele><time>2026-04-18T09:02:58.001Z</time></trkpt><trkpt lat="44.56307972195788" lon="10.483230554390602"><ele>410.3333333333333</ele><time>2026-04-18T09:03:00.001Z</time></trkpt><trkpt lat="44.56302879770519" lon="10.48336579701043"><ele>410.5</ele><time>2026-04-18T09:03:02.001Z</time></trkpt><trkpt lat="44.56297368292377" lon="10.483501784645476"><ele>410.66666666666663</ele><time>2026-04-18T09:03:04.001Z</time></trkpt><trkpt lat="44.56291590709323" lon="10.483546766994937"><ele>410.8333333333333</ele><time>2026-04-18T09:03:05.001Z</time></trkpt><trkpt lat="44.56287763123676" lon="10.483642640457319"><ele>411.0</ele><time>2026-04-18T09:03:06.001Z</time></trkpt><trkpt lat="44.56283529966663" lon="10.48374867268494"><ele>412.8</ele><time>2026-04-18T09:03:07.001Z</time></trkpt><trkpt lat="44.56281937367361" lon="10.483861238820626"><ele>414.6</ele><time>2026-04-18T09:03:08.001Z</time></trkpt><trkpt lat="44.5627853988161" lon="10.483996454926366"><ele>416.4</ele><time>2026-04-18T09:03:10.001Z</time></trkpt><trkpt lat="44.56273614069731" lon="10.48418001648088"><ele>418.2</ele><time>2026-04-18T09:03:12.001Z</time></trkpt><trkpt lat="44.562709731907255" lon="10.484287699135914"><ele>420.0</ele><time>2026-04-18T09:03:13.001Z</time></trkpt><trkpt lat="44.562684457430315" lon="10.484385284156643"><ele>420.0</ele><time>2026-04-18T09:03:14.001Z</time></trkpt><trkpt lat="44.56261594378191" lon="10.4845366622189"><ele>420.0</ele><time>2026-04-18T09:03:16.001Z</time></trkpt><trkpt lat="44.5625920314111" lon="10.48462570045878"><ele>420.0</ele><time>2026-04-18T09:03:17.001Z</time></trkpt><trkpt lat="44.56256606096574" lon="10.484752607358244"><ele>420.0</ele><time>2026-04-18T09:03:19.001Z</time></trkpt><trkpt lat="44.562428861205525" lon="10.484778426572857"><ele>420.0</ele><time>2026-04-18T09:03:24.001Z</time></trkpt><trkpt lat="44.56231071762626" lon="10.48476749602506"><ele>421.4</ele><time>2026-04-18T09:03:26.001Z</time></trkpt><trkpt lat="44.56221527574808" lon="10.484708570350337"><ele>422.8</ele><time>2026-04-18T09:03:28.001Z</time></trkpt><trkpt lat="44.562115282354284" lon="10.48467396736157"><ele>424.20000000000005</ele><time>2026-04-18T09:03:30.001Z</time></trkpt><trkpt lat="44.5620153114445" lon="10.484664776128284"><ele>425.6</ele><time>2026-04-18T09:03:32.001Z</time></trkpt><trkpt lat="44.5619264609062" lon="10.484612314246188"><ele>427.0</ele><time>2026-04-18T09:03:34.001Z</time></trkpt><trkpt lat="44.5618459777518" lon="10.484618689206865"><ele>427.0</ele><time>2026-04-18T09:03:36.001Z</time></trkpt><trkpt lat="44.56177638257695" lon="10.48460582295766"><ele>427.0</ele><time>2026-04-18T09:03:45.001Z</time></trkpt><trkpt lat="44.56161687367053" lon="10.484590893406978"><ele>427.0</ele><time>2026-04-18T09:03:47.001Z</time></trkpt><trkpt lat="44.56146757088096" lon="10.48461294844276"><ele>427.0</ele><time>2026-04-18T09:03:48.001Z</time></trkpt><trkpt lat="44.56132775284543" lon="10.484655236099517"><ele>427.0</ele><time>2026-04-18T09:03:49.001Z</time></trkpt><trkpt lat="44.561212822733914" lon="10.484711591412974"><ele>427.00000000000006</ele><time>2026-04-18T09:03:50.001Z</time></trkpt><trkpt lat="44.56111393267179" lon="10.48477414759756"><ele>427.00000000000006</ele><time>2026-04-18T09:03:51Z</time></trkpt><trkpt lat="44.56102442244493" lon="10.484832419526366"><ele>427.0</ele><time>2026-04-18T09:03:52Z</time></trkpt><trkpt lat="44.56094645490408" lon="10.484884254756949"><ele>427.0</ele><time>2026-04-18T09:03:53Z</time></trkpt><trkpt lat="44.560872154029575" lon="10.484926951837139"><ele>425.20000000000005</ele><time>2026-04-18T09:03:54Z</time></trkpt><trkpt lat="44.56080457566221" lon="10.484956650795702"><ele>423.40000000000003</ele><time>2026-04-18T09:03:55Z</time></trkpt><trkpt lat="44.56071088460379" lon="10.484949182090698"><ele>421.6</ele><time>2026-04-18T09:03:57Z</time></trkpt><trkpt lat="44.56060685141538" lon="10.484950859150665"><ele>419.79999999999995</ele><time>2026-04-18T09:03:59Z</time></trkpt><trkpt lat="44.56052989930886" lon="10.484917385741626"><ele>418.0</ele><time>2026-04-18T09:04:02Z</time></trkpt><trkpt lat="44.560420199095155" lon="10.484878947223041"><ele>419.2</ele><time>2026-04-18T09:04:04Z</time></trkpt><trkpt lat="44.56031622428243" lon="10.484867940542488"><ele>420.4</ele><time>2026-04-18T09:04:06Z</time></trkpt><trkpt lat="44.56022259380044" lon="10.484910452719808"><ele>421.59999999999997</ele><time>2026-04-18T09:04:08Z</time></trkpt><trkpt lat="44.56013836369843" lon="10.484950949644645"><ele>422.79999999999995</ele><time>2026-04-18T09:04:11Z</time></trkpt><trkpt lat="44.56006676454777" lon="10.484984996195847"><ele>424.0</ele><time>2026-04-18T09:04:13Z</time></trkpt><trkpt lat="44.56015895396458" lon="10.484971964817817"><ele>424.00000000000006</ele><time>2026-04-18T09:04:18Z</time></trkpt><trkpt lat="44.56027953471827" lon="10.484897220430641"><ele>424.0</ele><time>2026-04-18T09:04:20Z</time></trkpt><trkpt lat="44.560355701872055" lon="10.484865750349952"><ele>424.0</ele><time>2026-04-18T09:04:21Z</time></trkpt><trkpt lat="44.56042776276125" lon="10.484870813627259"><ele>424.0</ele><time>2026-04-18T09:04:22Z</time></trkpt><trkpt lat="44.56049319419853" lon="10.484891083064415"><ele>424.00000000000006</ele><time>2026-04-18T09:04:23Z</time></trkpt><trkpt lat="44.56055579570141" lon="10.484911467230495"><ele>424.0</ele><time>2026-04-18T09:04:24Z</time></trkpt><trkpt lat="44.56066386431749" lon="10.484951704709115"><ele>424.0</ele><time>2026-04-18T09:04:26Z</time></trkpt><trkpt lat="44.56066862192479" lon="10.485052289012295"><ele>424.0</ele><time>2026-04-18T09:04:28Z</time></trkpt><trkpt lat="44.56060305950287" lon="10.485109699294705"><ele>424.0</ele><time>2026-04-18T09:04:30Z</time></trkpt><trkpt lat="44.56053001767966" lon="10.485167322212732"><ele>424.0</ele><time>2026-04-18T09:04:34.001Z</time></trkpt><trkpt lat="44.560421231569975" lon="10.485234385426622"><ele>424.0</ele><time>2026-04-18T09:04:36.001Z</time></trkpt><trkpt lat="44.56034076501579" lon="10.485343711084862"><ele>424.00000000000006</ele><time>2026-04-18T09:04:38.001Z</time></trkpt><trkpt lat="44.56030134432536" lon="10.485417374711185"><ele>424.0</ele><time>2026-04-18T09:04:39.001Z</time></trkpt><trkpt lat="44.56023049606806" lon="10.485544330231505"><ele>424.0</ele><time>2026-04-18T09:04:41.001Z</time></trkpt><trkpt lat="44.560189532703916" lon="10.485620646593642"><ele>424.0</ele><time>2026-04-18T09:04:42.001Z</time></trkpt><trkpt lat="44.56014231238531" lon="10.485689552697687"><ele>424.00000000000006</ele><time>2026-04-18T09:04:43.001Z</time></trkpt><trkpt lat="44.56008382400696" lon="10.48575759279476"><ele>424.0</ele><time>2026-04-18T09:04:44.001Z</time></trkpt><trkpt lat="44.560023267765075" lon="10.4857872733682"><ele>423.79999999999995</ele><time>2026-04-18T09:04:45.001Z</time></trkpt><trkpt lat="44.55988631089709" lon="10.485771590737738"><ele>423.59999999999997</ele><time>2026-04-18T09:04:47.001Z</time></trkpt><trkpt lat="44.55978530310682" lon="10.485818761399024"><ele>423.4</ele><time>2026-04-18T09:04:49.001Z</time></trkpt><trkpt lat="44.55973987358962" lon="10.48595364021675"><ele>423.2</ele><time>2026-04-18T09:04:51.001Z</time></trkpt><trkpt lat="44.55970492408045" lon="10.486041559757368"><ele>423.0</ele><time>2026-04-18T09:04:52.001Z</time></trkpt><trkpt lat="44.559661163903094" lon="10.486110375793753"><ele>423.0</ele><time>2026-04-18T09:04:53.001Z</time></trkpt><trkpt lat="44.55956978556765" lon="10.486184104047174"><ele>423.0</ele><time>2026-04-18T09:04:55.001Z</time></trkpt><trkpt lat="44.55950937511444" lon="10.486223117598767"><ele>423.0</ele><time>2026-04-18T09:04:58.001Z</time></trkpt><trkpt lat="44.55941625051786" lon="10.486318892004856"><ele>423.0</ele><time>2026-04-18T09:05:00.001Z</time></trkpt><trkpt lat="44.559383417403104" lon="10.486425077350491"><ele>423.0</ele><time>2026-04-18T09:05:02.001Z</time></trkpt><trkpt lat="44.559420894769275" lon="10.486556314402648"><ele>424.1666666666667</ele><time>2026-04-18T09:05:05.001Z</time></trkpt><trkpt lat="44.55943314215261" lon="10.486698766259881"><ele>425.33333333333337</ele><time>2026-04-18T09:05:07.001Z</time></trkpt><trkpt lat="44.55943184682913" lon="10.48679659571037"><ele>426.5</ele><time>2026-04-18T09:05:08.001Z</time></trkpt><trkpt lat="44.55939678484743" lon="10.486888061284269"><ele>427.6666666666667</ele><time>2026-04-18T09:05:09.001Z</time></trkpt><trkpt lat="44.55936429629473" lon="10.486977223448084"><ele>428.83333333333337</ele><time>2026-04-18T09:05:10.001Z</time></trkpt><trkpt lat="44.559264073926094" lon="10.487079485344655"><ele>430.0</ele><time>2026-04-18T09:05:12.001Z</time></trkpt><trkpt lat="44.55919075782478" lon="10.48716712829085"><ele>430.0</ele><time>2026-04-18T09:05:14.001Z</time></trkpt><trkpt lat="44.55917687424478" lon="10.487256869659499"><ele>430.0</ele><time>2026-04-18T09:05:15.001Z</time></trkpt><trkpt lat="44.55914920016961" lon="10.487366713759421"><ele>430.0</ele><time>2026-04-18T09:05:17.001Z</time></trkpt><trkpt lat="44.55913520935118" lon="10.487514050811354"><ele>430.0</ele><time>2026-04-18T09:05:19.001Z</time></trkpt><trkpt lat="44.55909492130659" lon="10.4876774710753"><ele>430.0</ele><time>2026-04-18T09:05:21.001Z</time></trkpt><trkpt lat="44.559061595865835" lon="10.487831211417319"><ele>431.4</ele><time>2026-04-18T09:05:23.001Z</time></trkpt><trkpt lat="44.55900941392716" lon="10.487980739110963"><ele>432.8</ele><time>2026-04-18T09:05:25.001Z</time></trkpt><trkpt lat="44.55893020453188" lon="10.488068590505508"><ele>434.20000000000005</ele><time>2026-04-18T09:05:27.001Z</time></trkpt><trkpt lat="44.558861792308164" lon="10.488142092650255"><ele>435.6</ele><time>2026-04-18T09:05:29Z</time></trkpt><trkpt lat="44.558742495218006" lon="10.48818435466643"><ele>437.0</ele><time>2026-04-18T09:05:31Z</time></trkpt><trkpt lat="44.55863123231417" lon="10.488202004027999"><ele>437.0</ele><time>2026-04-18T09:05:33Z</time></trkpt><trkpt lat="44.55858059363337" lon="10.488298175945774"><ele>437.00000000000006</ele><time>2026-04-18T09:05:35Z</time></trkpt><trkpt lat="44.5585692472008" lon="10.488393626763537"><ele>437.00000000000006</ele><time>2026-04-18T09:05:37Z</time></trkpt><trkpt lat="44.55850841219146" lon="10.488500349846534"><ele>437.0</ele><time>2026-04-18T09:05:40Z</time></trkpt><trkpt lat="44.55841618028485" lon="10.488565828094506"><ele>437.0</ele><time>2026-04-18T09:05:42Z</time></trkpt><trkpt lat="44.55830947430896" lon="10.488617968741012"><ele>437.0</ele><time>2026-04-18T09:05:44Z</time></trkpt><trkpt lat="44.558244100157836" lon="10.488648411527606"><ele>437.0</ele><time>2026-04-18T09:05:45Z</time></trkpt><trkpt lat="44.55819144784258" lon="10.488710180823244"><ele>437.0</ele><time>2026-04-18T09:05:46Z</time></trkpt><trkpt lat="44.55814237221025" lon="10.488774658612016"><ele>437.0</ele><time>2026-04-18T09:05:47Z</time></trkpt><trkpt lat="44.55808978526502" lon="10.488840624312866"><ele>437.0</ele><time>2026-04-18T09:05:48Z</time></trkpt><trkpt lat="44.55803959953102" lon="10.488898148782889"><ele>437.0</ele><time>2026-04-18T09:05:49Z</time></trkpt><trkpt lat="44.55797633537654" lon="10.488966933330305"><ele>437.0</ele><time>2026-04-18T09:05:50Z</time></trkpt><trkpt lat="44.55791339717588" lon="10.489028794603675"><ele>436.16666666666663</ele><time>2026-04-18T09:05:51Z</time></trkpt><trkpt lat="44.55784702749856" lon="10.489084044622398"><ele>435.3333333333333</ele><time>2026-04-18T09:05:52Z</time></trkpt><trkpt lat="44.55774106686758" lon="10.489163217340177"><ele>434.5</ele><time>2026-04-18T09:05:54Z</time></trkpt><trkpt lat="44.557689109277845" lon="10.489214551371914"><ele>433.66666666666663</ele><time>2026-04-18T09:05:55Z</time></trkpt><trkpt lat="44.55762743325661" lon="10.48924394486609"><ele>432.8333333333333</ele><time>2026-04-18T09:05:56Z</time></trkpt><trkpt lat="44.55756685765092" lon="10.489276549042449"><ele>432.0</ele><time>2026-04-18T09:05:57Z</time></trkpt><trkpt lat="44.557462778752694" lon="10.48934333105489"><ele>432.0</ele><time>2026-04-18T09:05:59Z</time></trkpt><trkpt lat="44.55737076864916" lon="10.48942894631488"><ele>432.0</ele><time>2026-04-18T09:06:01Z</time></trkpt><trkpt lat="44.55729800417096" lon="10.489502882244349"><ele>432.0</ele><time>2026-04-18T09:06:04Z</time></trkpt><trkpt lat="44.55722531055642" lon="10.489576753811448"><ele>432.0</ele><time>2026-04-18T09:06:09Z</time></trkpt><trkpt lat="44.557173399051784" lon="10.48962899735123"><ele>432.0</ele><time>2026-04-18T09:06:11Z</time></trkpt><trkpt lat="44.557093630542795" lon="10.489697586411914"><ele>432.0</ele><time>2026-04-18T09:06:14Z</time></trkpt><trkpt lat="44.557015743141406" lon="10.489734821856665"><ele>431.3333333333333</ele><time>2026-04-18T09:06:16Z</time></trkpt><trkpt lat="44.55693854771417" lon="10.489775400420113"><ele>430.66666666666663</ele><time>2026-04-18T09:06:18Z</time></trkpt><trkpt lat="44.556876195216745" lon="10.489807900970675"><ele>430.0</ele><time>2026-04-18T09:06:20Z</time></trkpt><trkpt lat="44.55679576589442" lon="10.489839426720064"><ele>429.3333333333333</ele><time>2026-04-18T09:06:23Z</time></trkpt><trkpt lat="44.55670583363905" lon="10.489846748437381"><ele>428.66666666666663</ele><time>2026-04-18T09:07:46Z</time></trkpt><trkpt lat="44.556632539378626" lon="10.489819778540342"><ele>428.0</ele><time>2026-04-18T09:07:49Z</time></trkpt><trkpt lat="44.55658764941482" lon="10.489885693122417"><ele>427.99999999999994</ele><time>2026-04-18T09:07:52Z</time></trkpt><trkpt lat="44.55658240358781" lon="10.490009949887785"><ele>428.0</ele><time>2026-04-18T09:07:55Z</time></trkpt><trkpt lat="44.55651164393721" lon="10.490095565206122"><ele>428.0</ele><time>2026-04-18T09:07:57Z</time></trkpt><trkpt lat="44.55644963634909" lon="10.490116580094476"><ele>428.0</ele><time>2026-04-18T09:07:58Z</time></trkpt><trkpt lat="44.5563986158693" lon="10.490049522136982"><ele>427.99999999999994</ele><time>2026-04-18T09:08:00Z</time></trkpt><trkpt lat="44.556334404305986" lon="10.490061021654773"><ele>428.0</ele><time>2026-04-18T09:08:02Z</time></trkpt><trkpt lat="44.556237894631124" lon="10.490142713042363"><ele>427.99999999999994</ele><time>2026-04-18T09:08:04Z</time></trkpt><trkpt lat="44.55624589624805" lon="10.490237763039982"><ele>428.0</ele><time>2026-04-18T09:08:06Z</time></trkpt><trkpt lat="44.556307467170505" lon="10.490264774956332"><ele>428.0</ele><time>2026-04-18T09:08:09Z</time></trkpt><trkpt lat="44.55637921845589" lon="10.490353911652724"><ele>428.0</ele><time>2026-04-18T09:08:11Z</time></trkpt><trkpt lat="44.55641005899583" lon="10.490491598273781"><ele>427.99999999999994</ele><time>2026-04-18T09:08:13Z</time></trkpt><trkpt lat="44.55647838047468" lon="10.490567782654935"><ele>428.0</ele><time>2026-04-18T09:08:15Z</time></trkpt><trkpt lat="44.5565397720522" lon="10.490594851102257"><ele>427.99999999999994</ele><time>2026-04-18T09:08:17Z</time></trkpt><trkpt lat="44.556571477874634" lon="10.490705242790137"><ele>428.0</ele><time>2026-04-18T09:08:33Z</time></trkpt><trkpt lat="44.55659619255009" lon="10.490798254980598"><ele>428.0</ele><time>2026-04-18T09:08:35Z</time></trkpt><trkpt lat="44.55660536382542" lon="10.490916682785864"><ele>428.0</ele><time>2026-04-18T09:08:37Z</time></trkpt><trkpt lat="44.556637107465335" lon="10.491047708921396"><ele>427.99999999999994</ele><time>2026-04-18T09:08:39Z</time></trkpt><trkpt lat="44.556663492495545" lon="10.491149741420791"><ele>428.0</ele><time>2026-04-18T09:08:41Z</time></trkpt><trkpt lat="44.556715577741535" lon="10.491267202050388"><ele>429.79999999999995</ele><time>2026-04-18T09:08:43.001Z</time></trkpt><trkpt lat="44.556787473310244" lon="10.491354618597592"><ele>431.59999999999997</ele><time>2026-04-18T09:08:45.001Z</time></trkpt><trkpt lat="44.55686571656689" lon="10.491423985985184"><ele>433.40000000000003</ele><time>2026-04-18T09:08:48.001Z</time></trkpt><trkpt lat="44.55695650476999" lon="10.49150757617718"><ele>435.20000000000005</ele><time>2026-04-18T09:08:50.001Z</time></trkpt><trkpt lat="44.556985662461095" lon="10.491655822750205"><ele>437.0</ele><time>2026-04-18T09:08:52.001Z</time></trkpt><trkpt lat="44.55698874198317" lon="10.49174736577792"><ele>436.99999999999994</ele><time>2026-04-18T09:08:53.001Z</time></trkpt><trkpt lat="44.556971322863845" lon="10.49191525411227"><ele>437.0</ele><time>2026-04-18T09:08:55.001Z</time></trkpt><trkpt lat="44.55696627248884" lon="10.492018627936128"><ele>437.0</ele><time>2026-04-18T09:08:56.001Z</time></trkpt><trkpt lat="44.556958738343845" lon="10.49211257963078"><ele>437.0</ele><time>2026-04-18T09:08:57.001Z</time></trkpt><trkpt lat="44.55694737101539" lon="10.492203621844771"><ele>436.99999999999994</ele><time>2026-04-18T09:08:58.001Z</time></trkpt><trkpt lat="44.55693265238309" lon="10.492293819779455"><ele>437.0</ele><time>2026-04-18T09:08:59.001Z</time></trkpt><trkpt lat="44.55690538803935" lon="10.492396676779201"><ele>437.66666666666663</ele><time>2026-04-18T09:09:00.001Z</time></trkpt><trkpt lat="44.556873760320094" lon="10.492502755604718"><ele>438.3333333333333</ele><time>2026-04-18T09:09:01.001Z</time></trkpt><trkpt lat="44.55684652862495" lon="10.492619299970496"><ele>439.0</ele><time>2026-04-18T09:09:02.001Z</time></trkpt><trkpt lat="44.55681552141868" lon="10.492721531112782"><ele>439.66666666666663</ele><time>2026-04-18T09:09:03.001Z</time></trkpt><trkpt lat="44.5567866778086" lon="10.492824224379397"><ele>440.3333333333333</ele><time>2026-04-18T09:09:04.001Z</time></trkpt><trkpt lat="44.55677902623752" lon="10.492914769279139"><ele>441.0</ele><time>2026-04-18T09:09:05.001Z</time></trkpt><trkpt lat="44.556731431253176" lon="10.493088283104287"><ele>442.4</ele><time>2026-04-18T09:09:07.001Z</time></trkpt><trkpt lat="44.55672788694723" lon="10.493199995854885"><ele>443.8</ele><time>2026-04-18T09:09:08.001Z</time></trkpt><trkpt lat="44.55673921575235" lon="10.493339429584134"><ele>445.19999999999993</ele><time>2026-04-18T09:09:09.001Z</time></trkpt><trkpt lat="44.556756509376825" lon="10.493485621009816"><ele>446.59999999999997</ele><time>2026-04-18T09:09:10.001Z</time></trkpt><trkpt lat="44.556758125896444" lon="10.493629463294535"><ele>448.0</ele><time>2026-04-18T09:09:11.001Z</time></trkpt><trkpt lat="44.556753749347905" lon="10.493769211024668"><ele>449.6666666666667</ele><time>2026-04-18T09:09:12.001Z</time></trkpt><trkpt lat="44.556748936615605" lon="10.493888158974375"><ele>451.33333333333337</ele><time>2026-04-18T09:09:13.001Z</time></trkpt><trkpt lat="44.55675374355074" lon="10.493996718561599"><ele>453.0</ele><time>2026-04-18T09:09:14.001Z</time></trkpt><trkpt lat="44.55677207977096" lon="10.494126869515554"><ele>454.66666666666663</ele><time>2026-04-18T09:09:16.001Z</time></trkpt><trkpt lat="44.55668607653202" lon="10.494178788966638"><ele>456.3333333333333</ele><time>2026-04-18T09:09:19.001Z</time></trkpt><trkpt lat="44.55663958671385" lon="10.494239022411865"><ele>458.0</ele><time>2026-04-18T09:09:20.001Z</time></trkpt><trkpt lat="44.55659004170512" lon="10.494298596465509"><ele>458.0</ele><time>2026-04-18T09:09:21.001Z</time></trkpt><trkpt lat="44.556531521020354" lon="10.494365509686238"><ele>457.99999999999994</ele><time>2026-04-18T09:09:22.001Z</time></trkpt><trkpt lat="44.55648071573891" lon="10.494420738307086"><ele>457.99999999999994</ele><time>2026-04-18T09:09:23.001Z</time></trkpt><trkpt lat="44.55638546625284" lon="10.49452018932832"><ele>458.0</ele><time>2026-04-18T09:09:25.001Z</time></trkpt><trkpt lat="44.556284581954536" lon="10.494603688567423"><ele>458.0</ele><time>2026-04-18T09:09:27.001Z</time></trkpt><trkpt lat="44.556173886333255" lon="10.494662257478277"><ele>461.0</ele><time>2026-04-18T09:09:29.001Z</time></trkpt><trkpt lat="44.55611096090647" lon="10.494670709583474"><ele>463.99999999999994</ele><time>2026-04-18T09:09:30.001Z</time></trkpt><trkpt lat="44.55599413950665" lon="10.494670235423415"><ele>466.99999999999994</ele><time>2026-04-18T09:09:32.001Z</time></trkpt><trkpt lat="44.55588724774017" lon="10.494684525224455"><ele>470.0</ele><time>2026-04-18T09:09:34Z</time></trkpt><trkpt lat="44.55579279960278" lon="10.494659590908936"><ele>473.0</ele><time>2026-04-18T09:09:36Z</time></trkpt><trkpt lat="44.55575064495019" lon="10.494755104212544"><ele>472.99999999999994</ele><time>2026-04-18T09:09:37Z</time></trkpt><trkpt lat="44.55568813222438" lon="10.494814180894561"><ele>473.0</ele><time>2026-04-18T09:09:40Z</time></trkpt><trkpt lat="44.555741323817465" lon="10.49476616600133"><ele>473.0</ele><time>2026-04-18T09:09:52Z</time></trkpt><trkpt lat="44.55580753243357" lon="10.494689462553"><ele>473.0</ele><time>2026-04-18T09:09:55Z</time></trkpt><trkpt lat="44.555856571027746" lon="10.49458699007257"><ele>472.99999999999994</ele><time>2026-04-18T09:09:57Z</time></trkpt><trkpt lat="44.55580187898485" lon="10.49464319838819"><ele>473.0</ele><time>2026-04-18T09:09:59Z</time></trkpt><trkpt lat="44.555797515293165" lon="10.494412435984747"><ele>473.3333333333333</ele><time>2026-04-18T09:10:00Z</time></trkpt><trkpt lat="44.55569435691312" lon="10.494308883127374"><ele>473.66666666666663</ele><time>2026-04-18T09:10:02Z</time></trkpt><trkpt lat="44.55563348945566" lon="10.494229044441154"><ele>474.0</ele><time>2026-04-18T09:10:03Z</time></trkpt><trkpt lat="44.55559831784415" lon="10.494144147489367"><ele>474.33333333333337</ele><time>2026-04-18T09:10:04Z</time></trkpt><trkpt lat="44.555571553748706" lon="10.494063035408418"><ele>474.6666666666667</ele><time>2026-04-18T09:10:05Z</time></trkpt><trkpt lat="44.5555553126962" lon="10.493970099469108"><ele>475.0</ele><time>2026-04-18T09:10:06Z</time></trkpt><trkpt lat="44.55553130204676" lon="10.493870873252968"><ele>475.00000000000006</ele><time>2026-04-18T09:10:07Z</time></trkpt><trkpt lat="44.55550265014328" lon="10.493764521812231"><ele>475.0</ele><time>2026-04-18T09:10:08Z</time></trkpt><trkpt lat="44.55549399821585" lon="10.493643336212964"><ele>475.0</ele><time>2026-04-18T09:10:09Z</time></trkpt><trkpt lat="44.55547352407882" lon="10.493545543395397"><ele>475.0</ele><time>2026-04-18T09:10:10Z</time></trkpt><trkpt lat="44.55546032684729" lon="10.493432661540558"><ele>475.00000000000006</ele><time>2026-04-18T09:10:11Z</time></trkpt><trkpt lat="44.55544317252133" lon="10.493324818441083"><ele>475.0</ele><time>2026-04-18T09:10:12Z</time></trkpt><trkpt lat="44.55542667156932" lon="10.493226132537684"><ele>473.83333333333337</ele><time>2026-04-18T09:10:13Z</time></trkpt><trkpt lat="44.555422718354" lon="10.49312670029395"><ele>472.6666666666667</ele><time>2026-04-18T09:10:14Z</time></trkpt><trkpt lat="44.55541271789711" lon="10.493028316657654"><ele>471.5</ele><time>2026-04-18T09:10:15Z</time></trkpt><trkpt lat="44.55536256252974" lon="10.492959983894167"><ele>470.33333333333337</ele><time>2026-04-18T09:10:16Z</time></trkpt><trkpt lat="44.55529848201881" lon="10.492891173784255"><ele>469.1666666666667</ele><time>2026-04-18T09:10:17Z</time></trkpt><trkpt lat="44.55523212619797" lon="10.492818819056783"><ele>468.0</ele><time>2026-04-18T09:10:18Z</time></trkpt><trkpt lat="44.55518644882576" lon="10.492720695793057"><ele>473.4</ele><time>2026-04-18T09:10:19Z</time></trkpt><trkpt lat="44.555136609797245" lon="10.492656612524867"><ele>478.79999999999995</ele><time>2026-04-18T09:10:20Z</time></trkpt><trkpt lat="44.55507157885399" lon="10.492521465446153"><ele>484.2</ele><time>2026-04-18T09:10:22Z</time></trkpt><trkpt lat="44.55501846378685" lon="10.492393455912694"><ele>489.6</ele><time>2026-04-18T09:10:30Z</time></trkpt><trkpt lat="44.554886962384735" lon="10.492307234423897"><ele>495.0</ele><time>2026-04-18T09:10:32Z</time></trkpt><trkpt lat="44.554793471894996" lon="10.492251954079453"><ele>495.0</ele><time>2026-04-18T09:10:33Z</time></trkpt><trkpt lat="44.554688361480174" lon="10.492183205190525"><ele>495.0</ele><time>2026-04-18T09:10:35Z</time></trkpt><trkpt lat="44.55460759264532" lon="10.492207183175378"><ele>495.0</ele><time>2026-04-18T09:10:37Z</time></trkpt><trkpt lat="44.55454413450935" lon="10.492131339529863"><ele>495.0</ele><time>2026-04-18T09:10:39Z</time></trkpt><trkpt lat="44.55451683180854" lon="10.491990350901531"><ele>495.0</ele><time>2026-04-18T09:10:41Z</time></trkpt><trkpt lat="44.554452433857726" lon="10.491858963995064"><ele>496.3333333333333</ele><time>2026-04-18T09:10:43Z</time></trkpt><trkpt lat="44.55437266625457" lon="10.491759429764222"><ele>497.66666666666663</ele><time>2026-04-18T09:10:45Z</time></trkpt><trkpt lat="44.55427968020288" lon="10.491719008269136"><ele>499.0</ele><time>2026-04-18T09:10:47Z</time></trkpt><trkpt lat="44.55421952084235" lon="10.491688240468758"><ele>500.3333333333333</ele><time>2026-04-18T09:10:48Z</time></trkpt><trkpt lat="44.55413289211786" lon="10.491609963196378"><ele>501.66666666666663</ele><time>2026-04-18T09:10:50.001Z</time></trkpt><trkpt lat="44.554111559337755" lon="10.491525578499962"><ele>503.0</ele><time>2026-04-18T09:10:52.001Z</time></trkpt><trkpt lat="44.554154966032506" lon="10.491603117424187"><ele>503.0</ele><time>2026-04-18T09:11:07.001Z</time></trkpt><trkpt lat="44.55423119483154" lon="10.491683214855383"><ele>502.99999999999994</ele><time>2026-04-18T09:11:08.001Z</time></trkpt><trkpt lat="44.5543390296067" lon="10.491726695991774"><ele>502.99999999999994</ele><time>2026-04-18T09:11:10.001Z</time></trkpt><trkpt lat="44.55442676270758" lon="10.49183964592459"><ele>503.0</ele><time>2026-04-18T09:11:12.001Z</time></trkpt><trkpt lat="44.55447713015284" lon="10.491959145220228"><ele>503.0</ele><time>2026-04-18T09:11:14.001Z</time></trkpt><trkpt lat="44.55451824976167" lon="10.492106592726971"><ele>501.4</ele><time>2026-04-18T09:11:16.001Z</time></trkpt><trkpt lat="44.554574089074315" lon="10.492174349515059"><ele>499.79999999999995</ele><time>2026-04-18T09:11:18.001Z</time></trkpt><trkpt lat="44.55468582357702" lon="10.492152195034054"><ele>498.2</ele><time>2026-04-18T09:11:20Z</time></trkpt><trkpt lat="44.554798064522736" lon="10.492178011173102"><ele>496.6</ele><time>2026-04-18T09:11:22Z</time></trkpt><trkpt lat="44.554891055781326" lon="10.492272851211261"><ele>495.0</ele><time>2026-04-18T09:11:24Z</time></trkpt><trkpt lat="44.55497895728743" lon="10.492320273242537"><ele>494.99999999999994</ele><time>2026-04-18T09:11:26Z</time></trkpt><trkpt lat="44.55504586294851" lon="10.492376420754193"><ele>495.0</ele><time>2026-04-18T09:11:28Z</time></trkpt><trkpt lat="44.55505662865918" lon="10.492464981635667"><ele>494.99999999999994</ele><time>2026-04-18T09:11:33Z</time></trkpt><trkpt lat="44.554998716752415" lon="10.49242105909188"><ele>494.99999999999994</ele><time>2026-04-18T09:12:15Z</time></trkpt><trkpt lat="44.55492403443595" lon="10.492452395772462"><ele>495.0</ele><time>2026-04-18T09:12:18Z</time></trkpt><trkpt lat="44.5548540796407" lon="10.492439704777702"><ele>494.99999999999994</ele><time>2026-04-18T09:12:23Z</time></trkpt><trkpt lat="44.554789765476585" lon="10.492462694339038"><ele>494.99999999999994</ele><time>2026-04-18T09:12:32Z</time></trkpt><trkpt lat="44.5547258596687" lon="10.492471758393854"><ele>495.0</ele><time>2026-04-18T09:12:40Z</time></trkpt><trkpt lat="44.55463414289986" lon="10.49249430332836"><ele>495.0</ele><time>2026-04-18T09:12:45Z</time></trkpt><trkpt lat="44.55456807913387" lon="10.492554941039144"><ele>495.0</ele><time>2026-04-18T09:12:47Z</time></trkpt><trkpt lat="44.554496906456244" lon="10.492637615175505"><ele>495.0</ele><time>2026-04-18T09:12:49Z</time></trkpt><trkpt lat="44.55445253423578" lon="10.492745190145648"><ele>495.0</ele><time>2026-04-18T09:12:51Z</time></trkpt><trkpt lat="44.554434872016984" lon="10.49290958324099"><ele>501.4</ele><time>2026-04-18T09:12:53Z</time></trkpt><trkpt lat="44.554392223696354" lon="10.493030766248037"><ele>507.8</ele><time>2026-04-18T09:12:55.001Z</time></trkpt><trkpt lat="44.554363003493215" lon="10.4931531045165"><ele>514.2</ele><time>2026-04-18T09:12:57.001Z</time></trkpt><trkpt lat="44.55435687947894" lon="10.493319116996702"><ele>520.6</ele><time>2026-04-18T09:12:59.001Z</time></trkpt><trkpt lat="44.55442437893035" lon="10.49344701431902"><ele>527.0</ele><time>2026-04-18T09:13:01.001Z</time></trkpt><trkpt lat="44.55445687415258" lon="10.49352882367967"><ele>527.0</ele><time>2026-04-18T09:13:02.001Z</time></trkpt><trkpt lat="44.554468440567646" lon="10.493635577121024"><ele>527.0</ele><time>2026-04-18T09:13:03.001Z</time></trkpt><trkpt lat="44.554475860440355" lon="10.49373737844549"><ele>527.0</ele><time>2026-04-18T09:13:04.001Z</time></trkpt><trkpt lat="44.55447460014064" lon="10.493835410736088"><ele>527.0</ele><time>2026-04-18T09:13:05.001Z</time></trkpt><trkpt lat="44.554399032277004" lon="10.49395120767977"><ele>527.0</ele><time>2026-04-18T09:13:07.001Z</time></trkpt><trkpt lat="44.55437455489061" lon="10.494033139833359"><ele>527.0</ele><time>2026-04-18T09:13:17.001Z</time></trkpt><trkpt lat="44.55432301267301" lon="10.494100681299493"><ele>528.0</ele><time>2026-04-18T09:15:41Z</time></trkpt><trkpt lat="44.55427540453973" lon="10.494160030034086"><ele>529.0</ele><time>2026-04-18T09:15:43Z</time></trkpt><trkpt lat="44.554220840546584" lon="10.494239068279034"><ele>530.0</ele><time>2026-04-18T09:16:02Z</time></trkpt><trkpt lat="44.55416218311594" lon="10.49429203180373"><ele>531.0</ele><time>2026-04-18T09:18:45Z</time></trkpt><trkpt lat="44.55408979986034" lon="10.494390641393126"><ele>532.0</ele><time>2026-04-18T09:18:47.999Z</time></trkpt><trkpt lat="44.554050254443105" lon="10.494486247583714"><ele>533.0</ele><time>2026-04-18T09:18:49.999Z</time></trkpt><trkpt lat="44.55398598066947" lon="10.494575290114518"><ele>531.6</ele><time>2026-04-18T09:18:51.999Z</time></trkpt><trkpt lat="44.5539057184974" lon="10.49462349412633"><ele>530.1999999999999</ele><time>2026-04-18T09:18:53.999Z</time></trkpt><trkpt lat="44.553812733210385" lon="10.494674291673261"><ele>528.8</ele><time>2026-04-18T09:18:55.999Z</time></trkpt><trkpt lat="44.5537247555553" lon="10.494706135424419"><ele>527.4</ele><time>2026-04-18T09:18:57.999Z</time></trkpt><trkpt lat="44.55363844357937" lon="10.49477540485053"><ele>526.0</ele><time>2026-04-18T09:18:59.999Z</time></trkpt><trkpt lat="44.55362445565528" lon="10.494891682987582"><ele>529.8</ele><time>2026-04-18T09:19:01.999Z</time></trkpt><trkpt lat="44.553623679064565" lon="10.495038819880856"><ele>533.6</ele><time>2026-04-18T09:19:03.999Z</time></trkpt><trkpt lat="44.553586222900876" lon="10.495129891351395"><ele>537.4</ele><time>2026-04-18T09:19:05.999Z</time></trkpt><trkpt lat="44.55354405487876" lon="10.495264481828487"><ele>541.2</ele><time>2026-04-18T09:19:07.999Z</time></trkpt><trkpt lat="44.553572523922725" lon="10.495372433741466"><ele>545.0</ele><time>2026-04-18T09:19:09.999Z</time></trkpt><trkpt lat="44.55357300324058" lon="10.49548912642927"><ele>545.0</ele><time>2026-04-18T09:19:11.999Z</time></trkpt><trkpt lat="44.55351894867611" lon="10.495614145006664"><ele>545.0</ele><time>2026-04-18T09:19:14Z</time></trkpt><trkpt lat="44.5534757468746" lon="10.495735721068401"><ele>545.0</ele><time>2026-04-18T09:19:16Z</time></trkpt><trkpt lat="44.55344730014838" lon="10.495850289242169"><ele>545.0</ele><time>2026-04-18T09:19:18Z</time></trkpt><trkpt lat="44.55345901693118" lon="10.495991430881942"><ele>545.0</ele><time>2026-04-18T09:19:20Z</time></trkpt><trkpt lat="44.553422936614325" lon="10.496143365205647"><ele>545.0</ele><time>2026-04-18T09:19:22Z</time></trkpt><trkpt lat="44.553365769715086" lon="10.496203328248571"><ele>545.0</ele><time>2026-04-18T09:19:23Z</time></trkpt><trkpt lat="44.55330020541569" lon="10.49616912284718"><ele>545.0</ele><time>2026-04-18T09:19:24Z</time></trkpt><trkpt lat="44.55319023907218" lon="10.496065704881165"><ele>545.0</ele><time>2026-04-18T09:19:26Z</time></trkpt><trkpt lat="44.55311445608039" lon="10.495968125670025"><ele>545.0</ele><time>2026-04-18T09:19:28Z</time></trkpt><trkpt lat="44.55308346892528" lon="10.495799417458391"><ele>545.0</ele><time>2026-04-18T09:19:30Z</time></trkpt><trkpt lat="44.552996470854964" lon="10.49571548337732"><ele>545.0</ele><time>2026-04-18T09:19:32Z</time></trkpt><trkpt lat="44.55293290906751" lon="10.495692854602927"><ele>545.0</ele><time>2026-04-18T09:19:33Z</time></trkpt><trkpt lat="44.55280324923656" lon="10.495634148289806"><ele>545.0</ele><time>2026-04-18T09:19:35Z</time></trkpt><trkpt lat="44.55272123776363" lon="10.495583578452036"><ele>545.0</ele><time>2026-04-18T09:19:36Z</time></trkpt><trkpt lat="44.55265304159257" lon="10.495544005622845"><ele>547.25</ele><time>2026-04-18T09:19:37Z</time></trkpt><trkpt lat="44.552529332012995" lon="10.495469795375687"><ele>549.5</ele><time>2026-04-18T09:19:39Z</time></trkpt><trkpt lat="44.55241323772586" lon="10.495410581131695"><ele>551.75</ele><time>2026-04-18T09:19:41Z</time></trkpt><trkpt lat="44.55233167697418" lon="10.495340948663067"><ele>554.0</ele><time>2026-04-18T09:19:43Z</time></trkpt><trkpt lat="44.55231157239289" lon="10.495201545161104"><ele>557.5</ele><time>2026-04-18T09:19:45Z</time></trkpt><trkpt lat="44.552254285307804" lon="10.495064867314033"><ele>561.0</ele><time>2026-04-18T09:19:47Z</time></trkpt><trkpt lat="44.55236567392656" lon="10.4948226173513"><ele>564.5</ele><time>2026-04-18T09:19:48Z</time></trkpt><trkpt lat="44.55232506924349" lon="10.494754184770692"><ele>568.0</ele><time>2026-04-18T09:19:49Z</time></trkpt><trkpt lat="44.55213209697535" lon="10.494810610138401"><ele>568.0</ele><time>2026-04-18T09:19:51Z</time></trkpt><trkpt lat="44.55230587843771" lon="10.494663576031845"><ele>568.0</ele><time>2026-04-18T09:19:53Z</time></trkpt><trkpt lat="44.55235650393256" lon="10.49453859112967"><ele>568.0</ele><time>2026-04-18T09:19:58Z</time></trkpt><trkpt lat="44.55238659814416" lon="10.494406676780919"><ele>568.0</ele><time>2026-04-18T09:20:00Z</time></trkpt><trkpt lat="44.552394905103014" lon="10.494287871306465"><ele>570.6</ele><time>2026-04-18T09:20:02Z</time></trkpt><trkpt lat="44.55237539444143" lon="10.494163917934692"><ele>573.1999999999999</ele><time>2026-04-18T09:20:04Z</time></trkpt><trkpt lat="44.552296339044474" lon="10.494077844163204"><ele>575.8</ele><time>2026-04-18T09:20:06Z</time></trkpt><trkpt lat="44.552231595204965" lon="10.494036920425264"><ele>578.4</ele><time>2026-04-18T09:20:07Z</time></trkpt><trkpt lat="44.552147301517714" lon="10.493947288186703"><ele>581.0</ele><time>2026-04-18T09:20:09Z</time></trkpt><trkpt lat="44.55205870274677" lon="10.493897873142663"><ele>582.5</ele><time>2026-04-18T09:20:11Z</time></trkpt><trkpt lat="44.551975973422394" lon="10.493838006272286"><ele>584.0</ele><time>2026-04-18T09:20:13Z</time></trkpt><trkpt lat="44.5518958583751" lon="10.4937820494618"><ele>585.5</ele><time>2026-04-18T09:20:15Z</time></trkpt><trkpt lat="44.55181999101207" lon="10.493735256332652"><ele>587.0</ele><time>2026-04-18T09:20:17Z</time></trkpt><trkpt lat="44.551753843044416" lon="10.493699610083668"><ele>588.5</ele><time>2026-04-18T09:20:40.999Z</time></trkpt><trkpt lat="44.551690797888156" lon="10.49367138336748"><ele>590.0</ele><time>2026-04-18T09:20:41.999Z</time></trkpt><trkpt lat="44.55158196494019" lon="10.493634341014912"><ele>590.0</ele><time>2026-04-18T09:20:43.999Z</time></trkpt><trkpt lat="44.551512336391525" lon="10.493613853437076"><ele>590.0</ele><time>2026-04-18T09:20:45.999Z</time></trkpt><trkpt lat="44.55139914292532" lon="10.49360580382078"><ele>590.0</ele><time>2026-04-18T09:20:47.999Z</time></trkpt><trkpt lat="44.55133529044707" lon="10.493578463928866"><ele>590.0</ele><time>2026-04-18T09:20:48.999Z</time></trkpt><trkpt lat="44.55124742428986" lon="10.493550277418718"><ele>590.0</ele><time>2026-04-18T09:20:50.999Z</time></trkpt><trkpt lat="44.551160508808785" lon="10.493512355713118"><ele>590.0</ele><time>2026-04-18T09:21:01.999Z</time></trkpt><trkpt lat="44.55105718503335" lon="10.493495874472227"><ele>591.6666666666666</ele><time>2026-04-18T09:21:03.999Z</time></trkpt><trkpt lat="44.55095451694289" lon="10.493495107089002"><ele>593.3333333333333</ele><time>2026-04-18T09:21:05.999Z</time></trkpt><trkpt lat="44.55087181032327" lon="10.493483340213285"><ele>595.0</ele><time>2026-04-18T09:21:07.999Z</time></trkpt><trkpt lat="44.55078585652894" lon="10.493541120372273"><ele>596.6666666666666</ele><time>2026-04-18T09:21:09.999Z</time></trkpt><trkpt lat="44.550715623953856" lon="10.493551454176156"><ele>598.3333333333334</ele><time>2026-04-18T09:21:10.999Z</time></trkpt><trkpt lat="44.55066267253904" lon="10.493601715847374"><ele>600.0</ele><time>2026-04-18T09:21:11.999Z</time></trkpt><trkpt lat="44.55059651311486" lon="10.493611752940122"><ele>600.0</ele><time>2026-04-18T09:21:12.999Z</time></trkpt><trkpt lat="44.550520509638496" lon="10.49365057011873"><ele>600.0</ele><time>2026-04-18T09:21:13.999Z</time></trkpt><trkpt lat="44.55043607392789" lon="10.493695855501784"><ele>600.0</ele><time>2026-04-18T09:21:14.999Z</time></trkpt><trkpt lat="44.55037590165742" lon="10.493749143749502"><ele>600.0</ele><time>2026-04-18T09:21:15.999Z</time></trkpt><trkpt lat="44.550258980113796" lon="10.49379008655136"><ele>600.0</ele><time>2026-04-18T09:21:17.999Z</time></trkpt><trkpt lat="44.550142345325504" lon="10.493789596636338"><ele>600.2</ele><time>2026-04-18T09:21:20Z</time></trkpt><trkpt lat="44.55004680862763" lon="10.49375234776907"><ele>600.4</ele><time>2026-04-18T09:21:22Z</time></trkpt><trkpt lat="44.54998466176833" lon="10.493896206345697"><ele>600.6</ele><time>2026-04-18T09:21:25Z</time></trkpt><trkpt lat="44.55002077078064" lon="10.494028038902636"><ele>600.8</ele><time>2026-04-18T09:21:27Z</time></trkpt><trkpt lat="44.55004445508626" lon="10.49417496631411"><ele>601.0</ele><time>2026-04-18T09:21:29Z</time></trkpt><trkpt lat="44.550065045775696" lon="10.49427328811306"><ele>601.0</ele><time>2026-04-18T09:21:30Z</time></trkpt><trkpt lat="44.55006277135443" lon="10.494375886922304"><ele>601.0</ele><time>2026-04-18T09:21:31Z</time></trkpt><trkpt lat="44.55008137518201" lon="10.4945321879734"><ele>601.0</ele><time>2026-04-18T09:21:33Z</time></trkpt><trkpt lat="44.550087548300155" lon="10.494732356763343"><ele>601.0</ele><time>2026-04-18T09:21:35Z</time></trkpt><trkpt lat="44.55007575530348" lon="10.494896285515937"><ele>601.0</ele><time>2026-04-18T09:21:36Z</time></trkpt><trkpt lat="44.55006081936611" lon="10.49510767707868"><ele>599.5</ele><time>2026-04-18T09:21:37Z</time></trkpt><trkpt lat="44.55004809689127" lon="10.495293486693033"><ele>598.0</ele><time>2026-04-18T09:21:38Z</time></trkpt><trkpt lat="44.55004181118802" lon="10.495472897173986"><ele>596.5</ele><time>2026-04-18T09:21:39Z</time></trkpt><trkpt lat="44.55004638050639" lon="10.495621504508152"><ele>595.0</ele><time>2026-04-18T09:21:40Z</time></trkpt><trkpt lat="44.55004037850191" lon="10.495742340189071"><ele>593.4</ele><time>2026-04-18T09:21:41Z</time></trkpt><trkpt lat="44.5500073258561" lon="10.495836181615704"><ele>591.8</ele><time>2026-04-18T09:21:42Z</time></trkpt><trkpt lat="44.549954358595" lon="10.496002565768196"><ele>590.2</ele><time>2026-04-18T09:21:44Z</time></trkpt><trkpt lat="44.549920435733995" lon="10.496156177234566"><ele>588.6</ele><time>2026-04-18T09:21:45Z</time></trkpt><trkpt lat="44.54995986152049" lon="10.49632542804339"><ele>587.0</ele><time>2026-04-18T09:21:46Z</time></trkpt><trkpt lat="44.54996372518148" lon="10.496424407743016"><ele>586.1666666666666</ele><time>2026-04-18T09:21:47Z</time></trkpt><trkpt lat="44.54993668992798" lon="10.49652750371718"><ele>585.3333333333333</ele><time>2026-04-18T09:21:48Z</time></trkpt><trkpt lat="44.5499135625364" lon="10.496613989865876"><ele>584.5</ele><time>2026-04-18T09:21:49Z</time></trkpt><trkpt lat="44.54988959098579" lon="10.49670526661682"><ele>583.6666666666666</ele><time>2026-04-18T09:21:50Z</time></trkpt><trkpt lat="44.54986141992409" lon="10.496799396953978"><ele>582.8333333333334</ele><time>2026-04-18T09:21:51Z</time></trkpt><trkpt lat="44.54982727416004" lon="10.496927191736303"><ele>582.0</ele><time>2026-04-18T09:21:52Z</time></trkpt><trkpt lat="44.54978307764231" lon="10.49704911700267"><ele>581.3333333333334</ele><time>2026-04-18T09:21:53Z</time></trkpt><trkpt lat="44.54973574416656" lon="10.49714140068557"><ele>580.6666666666666</ele><time>2026-04-18T09:21:54Z</time></trkpt><trkpt lat="44.54969445643754" lon="10.49724402551683"><ele>580.0</ele><time>2026-04-18T09:21:55Z</time></trkpt><trkpt lat="44.54965202308944" lon="10.497361706456076"><ele>579.3333333333333</ele><time>2026-04-18T09:21:56Z</time></trkpt><trkpt lat="44.54961573227204" lon="10.497464666247993"><ele>578.6666666666666</ele><time>2026-04-18T09:21:57Z</time></trkpt><trkpt lat="44.549580759706075" lon="10.49755860755321"><ele>578.0</ele><time>2026-04-18T09:21:58Z</time></trkpt><trkpt lat="44.54952419061212" lon="10.497669450420824"><ele>578.0</ele><time>2026-04-18T09:21:59Z</time></trkpt><trkpt lat="44.5494697188666" lon="10.497779347399634"><ele>578.0</ele><time>2026-04-18T09:22:00Z</time></trkpt><trkpt lat="44.54941126681584" lon="10.49788465478923"><ele>578.0</ele><time>2026-04-18T09:22:01Z</time></trkpt><trkpt lat="44.54935473403584" lon="10.497957073391666"><ele>578.0</ele><time>2026-04-18T09:22:02Z</time></trkpt><trkpt lat="44.54931005736093" lon="10.498022546966002"><ele>578.0</ele><time>2026-04-18T09:22:03Z</time></trkpt><trkpt lat="44.5492450319239" lon="10.498062030701066"><ele>578.0</ele><time>2026-04-18T09:22:04Z</time></trkpt><trkpt lat="44.54918162091489" lon="10.498093734427531"><ele>578.0</ele><time>2026-04-18T09:22:05Z</time></trkpt><trkpt lat="44.549125097033624" lon="10.498144378274704"><ele>578.0</ele><time>2026-04-18T09:22:06Z</time></trkpt><trkpt lat="44.54902188602786" lon="10.498168945845423"><ele>578.0</ele><time>2026-04-18T09:22:08Z</time></trkpt><trkpt lat="44.548952082989366" lon="10.498170925454021"><ele>578.0</ele><time>2026-04-18T09:22:10Z</time></trkpt><trkpt lat="44.54892867196691" lon="10.497982943729742"><ele>578.0</ele><time>2026-04-18T09:22:11Z</time></trkpt><trkpt lat="44.548884696200986" lon="10.497888518790054"><ele>578.0</ele><time>2026-04-18T09:22:12Z</time></trkpt><trkpt lat="44.54882258229931" lon="10.49778831309145"><ele>578.0</ele><time>2026-04-18T09:22:14Z</time></trkpt><trkpt lat="44.54875948710813" lon="10.497923912516645"><ele>578.0</ele><time>2026-04-18T09:22:16Z</time></trkpt><trkpt lat="44.54873916723836" lon="10.49803646025779"><ele>578.0</ele><time>2026-04-18T09:22:17Z</time></trkpt><trkpt lat="44.54872029503922" lon="10.49816943109378"><ele>578.0</ele><time>2026-04-18T09:22:18Z</time></trkpt><trkpt lat="44.54869542334689" lon="10.498297505108031"><ele>578.8</ele><time>2026-04-18T09:22:19Z</time></trkpt><trkpt lat="44.54866899407781" lon="10.498423425090172"><ele>579.5999999999999</ele><time>2026-04-18T09:22:20Z</time></trkpt><trkpt lat="44.548644529834846" lon="10.49853215973098"><ele>580.4000000000001</ele><time>2026-04-18T09:22:21Z</time></trkpt><trkpt lat="44.548616845747986" lon="10.498643313927822"><ele>581.2</ele><time>2026-04-18T09:22:22Z</time></trkpt><trkpt lat="44.54858597201356" lon="10.498767812130042"><ele>582.0</ele><time>2026-04-18T09:22:23Z</time></trkpt><trkpt lat="44.54855056853829" lon="10.498899526313954"><ele>582.0</ele><time>2026-04-18T09:22:24Z</time></trkpt><trkpt lat="44.5485201074536" lon="10.499010289277475"><ele>582.0</ele><time>2026-04-18T09:22:25Z</time></trkpt><trkpt lat="44.54848236569476" lon="10.499118350241254"><ele>582.0</ele><time>2026-04-18T09:22:26Z</time></trkpt><trkpt lat="44.54845408816018" lon="10.499224981512299"><ele>582.0</ele><time>2026-04-18T09:22:27Z</time></trkpt><trkpt lat="44.548428498686754" lon="10.499323502418928"><ele>582.0</ele><time>2026-04-18T09:22:28Z</time></trkpt><trkpt lat="44.54840112110391" lon="10.499422135540817"><ele>582.0</ele><time>2026-04-18T09:22:29Z</time></trkpt><trkpt lat="44.54837681128288" lon="10.499518143469935"><ele>579.2</ele><time>2026-04-18T09:22:30Z</time></trkpt><trkpt lat="44.548322803588675" lon="10.499594855882853"><ele>576.4000000000001</ele><time>2026-04-18T09:22:31Z</time></trkpt><trkpt lat="44.54825981606198" lon="10.499669278190378"><ele>573.5999999999999</ele><time>2026-04-18T09:22:32Z</time></trkpt><trkpt lat="44.5481651244134" lon="10.499756073321608"><ele>570.8</ele><time>2026-04-18T09:22:33Z</time></trkpt><trkpt lat="44.548050786656965" lon="10.499853279776099"><ele>568.0</ele><time>2026-04-18T09:22:34Z</time></trkpt><trkpt lat="44.547946541347635" lon="10.499962916486226"><ele>570.5</ele><time>2026-04-18T09:22:35Z</time></trkpt><trkpt lat="44.5478457236511" lon="10.500041664300005"><ele>573.0</ele><time>2026-04-18T09:22:36Z</time></trkpt><trkpt lat="44.54775974998898" lon="10.500124367757348"><ele>575.5</ele><time>2026-04-18T09:22:37Z</time></trkpt><trkpt lat="44.54763994056338" lon="10.500207083358145"><ele>578.0</ele><time>2026-04-18T09:22:38Z</time></trkpt><trkpt lat="44.547500997124494" lon="10.500329587152391"><ele>578.0</ele><time>2026-04-18T09:22:38.999Z</time></trkpt><trkpt lat="44.547389445307864" lon="10.500413618635267"><ele>578.0</ele><time>2026-04-18T09:22:39.999Z</time></trkpt><trkpt lat="44.54727774363202" lon="10.500478435033427"><ele>578.0</ele><time>2026-04-18T09:22:40.999Z</time></trkpt><trkpt lat="44.547197265242424" lon="10.500549074055526"><ele>578.0</ele><time>2026-04-18T09:22:41.999Z</time></trkpt><trkpt lat="44.54712901260855" lon="10.500608982270625"><ele>578.0</ele><time>2026-04-18T09:22:42.999Z</time></trkpt><trkpt lat="44.547097294826" lon="10.500718946521582"><ele>577.4</ele><time>2026-04-18T09:22:43.999Z</time></trkpt><trkpt lat="44.54706441192686" lon="10.500899229156156"><ele>576.8</ele><time>2026-04-18T09:22:45.999Z</time></trkpt><trkpt lat="44.54696493150261" lon="10.500893734404457"><ele>576.2</ele><time>2026-04-18T09:22:46.999Z</time></trkpt><trkpt lat="44.546897637454514" lon="10.500977628401092"><ele>575.6</ele><time>2026-04-18T09:22:48.999Z</time></trkpt><trkpt lat="44.54684869570946" lon="10.501036185468564"><ele>575.0</ele><time>2026-04-18T09:22:49.999Z</time></trkpt><trkpt lat="44.5467945377197" lon="10.501102306683567"><ele>575.0</ele><time>2026-04-18T09:22:50.999Z</time></trkpt><trkpt lat="44.54674131191379" lon="10.501168524498276"><ele>575.0</ele><time>2026-04-18T09:22:51.999Z</time></trkpt><trkpt lat="44.54669646661645" lon="10.501230743328657"><ele>575.0</ele><time>2026-04-18T09:22:53.999Z</time></trkpt><trkpt lat="44.546657692486114" lon="10.501307950378115"><ele>575.0</ele><time>2026-04-18T09:22:54.999Z</time></trkpt><trkpt lat="44.546619437232394" lon="10.50139306766226"><ele>575.0</ele><time>2026-04-18T09:22:55.999Z</time></trkpt><trkpt lat="44.54655312769794" lon="10.501542711324579"><ele>575.0</ele><time>2026-04-18T09:22:57.999Z</time></trkpt><trkpt lat="44.546523630369826" lon="10.50162672659194"><ele>572.6666666666666</ele><time>2026-04-18T09:22:58.999Z</time></trkpt><trkpt lat="44.546495231053036" lon="10.501715509142103"><ele>570.3333333333333</ele><time>2026-04-18T09:22:59.999Z</time></trkpt><trkpt lat="44.546449207239846" lon="10.501837696070227"><ele>568.0</ele><time>2026-04-18T09:23:01.999Z</time></trkpt><trkpt lat="44.54639490482356" lon="10.501959240627572"><ele>565.6666666666666</ele><time>2026-04-18T09:23:03.999Z</time></trkpt><trkpt lat="44.54635009000269" lon="10.502033227002501"><ele>563.3333333333334</ele><time>2026-04-18T09:23:04.999Z</time></trkpt><trkpt lat="44.54630315491927" lon="10.502123497185407"><ele>561.0</ele><time>2026-04-18T09:23:05.999Z</time></trkpt><trkpt lat="44.5462520628576" lon="10.502213078714048"><ele>563.8</ele><time>2026-04-18T09:23:06.999Z</time></trkpt><trkpt lat="44.54619106717251" lon="10.502317020472093"><ele>566.6</ele><time>2026-04-18T09:23:07.999Z</time></trkpt><trkpt lat="44.546131523481364" lon="10.502418833578222"><ele>569.4</ele><time>2026-04-18T09:23:08.999Z</time></trkpt><trkpt lat="44.54607017697218" lon="10.502516479241283"><ele>572.2</ele><time>2026-04-18T09:23:09.999Z</time></trkpt><trkpt lat="44.5460115949094" lon="10.502605673521407"><ele>575.0</ele><time>2026-04-18T09:23:10.999Z</time></trkpt><trkpt lat="44.5459451344584" lon="10.502713113049158"><ele>575.0</ele><time>2026-04-18T09:23:11.999Z</time></trkpt><trkpt lat="44.54587813660875" lon="10.502832989512452"><ele>575.0</ele><time>2026-04-18T09:23:12.999Z</time></trkpt><trkpt lat="44.54581387261852" lon="10.50295692080843"><ele>575.0</ele><time>2026-04-18T09:23:13.999Z</time></trkpt><trkpt lat="44.54574929602454" lon="10.503066934854395"><ele>575.0</ele><time>2026-04-18T09:23:14.999Z</time></trkpt><trkpt lat="44.545696358363934" lon="10.503163212214767"><ele>575.0</ele><time>2026-04-18T09:23:15.999Z</time></trkpt><trkpt lat="44.54564750201542" lon="10.503252937274366"><ele>575.0</ele><time>2026-04-18T09:23:16.999Z</time></trkpt><trkpt lat="44.545607576341084" lon="10.503321473966965"><ele>575.0</ele><time>2026-04-18T09:23:17.999Z</time></trkpt><trkpt lat="44.54552331137779" lon="10.503403879524964"><ele>575.0</ele><time>2026-04-18T09:23:19.999Z</time></trkpt><trkpt lat="44.54544661856412" lon="10.503449769087187"><ele>575.0</ele><time>2026-04-18T09:23:21.999Z</time></trkpt><trkpt lat="44.54541481441771" lon="10.503562006338338"><ele>575.0</ele><time>2026-04-18T09:23:25Z</time></trkpt><trkpt lat="44.54533636308096" lon="10.503700129342946"><ele>571.7142857142857</ele><time>2026-04-18T09:23:27Z</time></trkpt><trkpt lat="44.54529120558508" lon="10.503762896623721"><ele>568.4285714285713</ele><time>2026-04-18T09:23:28Z</time></trkpt><trkpt lat="44.54525091734593" lon="10.50386462729233"><ele>565.1428571428571</ele><time>2026-04-18T09:23:29Z</time></trkpt><trkpt lat="44.54522286850021" lon="10.503945598324329"><ele>561.8571428571429</ele><time>2026-04-18T09:23:30Z</time></trkpt><trkpt lat="44.545162358772906" lon="10.50406341225707"><ele>558.5714285714287</ele><time>2026-04-18T09:23:32Z</time></trkpt><trkpt lat="44.54510217685443" lon="10.504102682729332"><ele>555.2857142857143</ele><time>2026-04-18T09:23:35Z</time></trkpt><trkpt lat="44.545035713886676" lon="10.504123794058419"><ele>552.0</ele><time>2026-04-18T09:23:50Z</time></trkpt><trkpt lat="44.54497494863842" lon="10.504050955565804"><ele>552.0</ele><time>2026-04-18T09:23:52Z</time></trkpt><trkpt lat="44.544925594535584" lon="10.503907287447506"><ele>552.0</ele><time>2026-04-18T09:23:54Z</time></trkpt><trkpt lat="44.54487622337827" lon="10.503828821041877"><ele>552.0</ele><time>2026-04-18T09:23:56Z</time></trkpt><trkpt lat="44.544848114079386" lon="10.503746285545498"><ele>552.0</ele><time>2026-04-18T09:23:58Z</time></trkpt><trkpt lat="44.54477993912524" lon="10.503640777765018"><ele>552.0</ele><time>2026-04-18T09:24:00Z</time></trkpt><trkpt lat="44.54471581626247" lon="10.503556904858032"><ele>552.0</ele><time>2026-04-18T09:24:02Z</time></trkpt><trkpt lat="44.54461846835506" lon="10.503530101469403"><ele>556.4</ele><time>2026-04-18T09:24:04Z</time></trkpt><trkpt lat="44.54452807495681" lon="10.503485265361178"><ele>560.8000000000001</ele><time>2026-04-18T09:24:05Z</time></trkpt><trkpt lat="44.544454527001285" lon="10.503418311605568"><ele>565.2</ele><time>2026-04-18T09:24:06Z</time></trkpt><trkpt lat="44.544404444863204" lon="10.50330114506055"><ele>569.6</ele><time>2026-04-18T09:24:08Z</time></trkpt><trkpt lat="44.54437303332998" lon="10.503156108488376"><ele>574.0</ele><time>2026-04-18T09:24:10Z</time></trkpt><trkpt lat="44.54435813912618" lon="10.50306981390181"><ele>574.0</ele><time>2026-04-18T09:24:11Z</time></trkpt><trkpt lat="44.54433011279523" lon="10.50294009114084"><ele>574.0</ele><time>2026-04-18T09:24:14Z</time></trkpt><trkpt lat="44.54432541423879" lon="10.50278201751419"><ele>574.0</ele><time>2026-04-18T09:24:16Z</time></trkpt><trkpt lat="44.54429318032829" lon="10.502683316106188"><ele>574.0</ele><time>2026-04-18T09:24:18Z</time></trkpt><trkpt lat="44.54423028745536" lon="10.502711941561355"><ele>574.0</ele><time>2026-04-18T09:24:21Z</time></trkpt><trkpt lat="44.54417279898417" lon="10.502806214349249"><ele>574.0</ele><time>2026-04-18T09:24:24Z</time></trkpt><trkpt lat="44.54408158059043" lon="10.502855870031494"><ele>575.0</ele><time>2026-04-18T09:24:26Z</time></trkpt><trkpt lat="44.54401907892838" lon="10.502879773220217"><ele>576.0</ele><time>2026-04-18T09:24:28Z</time></trkpt><trkpt lat="44.544080654569136" lon="10.502899100000864"><ele>577.0</ele><time>2026-04-18T09:25:17.999Z</time></trkpt><trkpt lat="44.544139883033075" lon="10.50285959002676"><ele>578.0</ele><time>2026-04-18T09:25:32Z</time></trkpt><trkpt lat="44.54419423277212" lon="10.502812752848486"><ele>579.0</ele><time>2026-04-18T09:25:42Z</time></trkpt><trkpt lat="44.54424363802636" lon="10.502747346275232"><ele>580.0</ele><time>2026-04-18T09:26:17Z</time></trkpt><trkpt lat="44.544254287799106" lon="10.502657869930543"><ele>581.0</ele><time>2026-04-18T09:26:42Z</time></trkpt><trkpt lat="44.54426646324893" lon="10.502548798322199"><ele>581.0</ele><time>2026-04-18T09:26:44Z</time></trkpt><trkpt lat="44.54426108590823" lon="10.502442353807917"><ele>581.0</ele><time>2026-04-18T09:26:44.999Z</time></trkpt><trkpt lat="44.544270315038304" lon="10.502336469579815"><ele>581.0</ele><time>2026-04-18T09:26:45.999Z</time></trkpt><trkpt lat="44.544285835931724" lon="10.502220766385763"><ele>581.0</ele><time>2026-04-18T09:26:47.999Z</time></trkpt><trkpt lat="44.544298665221824" lon="10.50210658769623"><ele>581.0</ele><time>2026-04-18T09:26:49.999Z</time></trkpt><trkpt lat="44.544343395960766" lon="10.502012410977345"><ele>581.0</ele><time>2026-04-18T09:26:52.999Z</time></trkpt><trkpt lat="44.54437677289729" lon="10.501860836304534"><ele>582.2</ele><time>2026-04-18T09:26:54.999Z</time></trkpt><trkpt lat="44.54436822104385" lon="10.501698688901302"><ele>583.4000000000001</ele><time>2026-04-18T09:26:56.999Z</time></trkpt><trkpt lat="44.544347609787025" lon="10.501606688340107"><ele>584.6</ele><time>2026-04-18T09:26:57.999Z</time></trkpt><trkpt lat="44.54435223754113" lon="10.501475420941098"><ele>585.8000000000001</ele><time>2026-04-18T09:26:59.999Z</time></trkpt><trkpt lat="44.54433817373791" lon="10.501342912039473"><ele>587.0</ele><time>2026-04-18T09:27:01.999Z</time></trkpt><trkpt lat="44.544338564664876" lon="10.501187179080407"><ele>587.0</ele><time>2026-04-18T09:27:03.999Z</time></trkpt><trkpt lat="44.54436798473205" lon="10.501050315751591"><ele>587.0</ele><time>2026-04-18T09:27:05.999Z</time></trkpt><trkpt lat="44.544372477972026" lon="10.500901590963194"><ele>587.0</ele><time>2026-04-18T09:27:14.999Z</time></trkpt><trkpt lat="44.54433456466622" lon="10.500824483719006"><ele>587.0</ele><time>2026-04-18T09:27:15.999Z</time></trkpt><trkpt lat="44.5442835028053" lon="10.500687734325986"><ele>587.0</ele><time>2026-04-18T09:27:16.999Z</time></trkpt><trkpt lat="44.54424996013498" lon="10.500582968912155"><ele>587.0</ele><time>2026-04-18T09:27:17.999Z</time></trkpt><trkpt lat="44.544229536172125" lon="10.500497497893772"><ele>587.0</ele><time>2026-04-18T09:27:18.999Z</time></trkpt><trkpt lat="44.54422785723312" lon="10.500405434437583"><ele>587.0</ele><time>2026-04-18T09:27:19.999Z</time></trkpt><trkpt lat="44.54424223013988" lon="10.500246580015958"><ele>587.0</ele><time>2026-04-18T09:27:21.999Z</time></trkpt><trkpt lat="44.54420361363575" lon="10.500172618068305"><ele>587.0</ele><time>2026-04-18T09:27:22.999Z</time></trkpt><trkpt lat="44.54413603245519" lon="10.500057002157227"><ele>587.0</ele><time>2026-04-18T09:27:24.999Z</time></trkpt><trkpt lat="44.544078881764165" lon="10.499987907660506"><ele>587.6666666666666</ele><time>2026-04-18T09:27:25.999Z</time></trkpt><trkpt lat="44.54400743483518" lon="10.499835120047496"><ele>588.3333333333333</ele><time>2026-04-18T09:27:27.999Z</time></trkpt><trkpt lat="44.54396924269974" lon="10.49974033722836"><ele>589.0</ele><time>2026-04-18T09:27:28.999Z</time></trkpt><trkpt lat="44.543937203871955" lon="10.499632772938636"><ele>589.6666666666666</ele><time>2026-04-18T09:27:30.999Z</time></trkpt><trkpt lat="44.54388588764673" lon="10.499543059911653"><ele>590.3333333333334</ele><time>2026-04-18T09:27:32.999Z</time></trkpt><trkpt lat="44.54384412400307" lon="10.499475736107172"><ele>591.0</ele><time>2026-04-18T09:27:33.999Z</time></trkpt><trkpt lat="44.543771360858756" lon="10.499363486838893"><ele>594.0</ele><time>2026-04-18T09:27:36Z</time></trkpt><trkpt lat="44.54368097358354" lon="10.499243308888731"><ele>597.0</ele><time>2026-04-18T09:27:38Z</time></trkpt><trkpt lat="44.54362569339181" lon="10.499187297583681"><ele>600.0</ele><time>2026-04-18T09:27:39Z</time></trkpt><trkpt lat="44.54357246263036" lon="10.499136484393915"><ele>603.0</ele><time>2026-04-18T09:27:40Z</time></trkpt><trkpt lat="44.543528602739435" lon="10.498984299677163"><ele>606.0</ele><time>2026-04-18T09:27:42Z</time></trkpt><trkpt lat="44.543498495084414" lon="10.498899968094413"><ele>609.0</ele><time>2026-04-18T09:27:43Z</time></trkpt><trkpt lat="44.543471273267244" lon="10.498814928341073"><ele>608.8</ele><time>2026-04-18T09:27:44Z</time></trkpt><trkpt lat="44.543417317234116" lon="10.498646462903814"><ele>608.5999999999999</ele><time>2026-04-18T09:27:46Z</time></trkpt><trkpt lat="44.54336897035853" lon="10.498495858313328"><ele>608.4</ele><time>2026-04-18T09:27:48Z</time></trkpt><trkpt lat="44.54334039596711" lon="10.498413115725803"><ele>608.1999999999999</ele><time>2026-04-18T09:27:49Z</time></trkpt><trkpt lat="44.5432814227381" lon="10.498334715407967"><ele>608.0</ele><time>2026-04-18T09:27:50Z</time></trkpt><trkpt lat="44.543221825754976" lon="10.498235220916134"><ele>608.0</ele><time>2026-04-18T09:27:51Z</time></trkpt><trkpt lat="44.543168378859384" lon="10.498151394604276"><ele>608.0</ele><time>2026-04-18T09:27:52Z</time></trkpt><trkpt lat="44.54312458816479" lon="10.498074240015217"><ele>608.0</ele><time>2026-04-18T09:27:53Z</time></trkpt><trkpt lat="44.54303928997391" lon="10.497981664023117"><ele>608.0</ele><time>2026-04-18T09:27:55Z</time></trkpt><trkpt lat="44.54297451643332" lon="10.497928121029547"><ele>608.0</ele><time>2026-04-18T09:27:57Z</time></trkpt><trkpt lat="44.5429909638385" lon="10.497799264920724"><ele>608.0</ele><time>2026-04-18T09:28:00Z</time></trkpt><trkpt lat="44.54304651401305" lon="10.497650984514255"><ele>608.0</ele><time>2026-04-18T09:28:02Z</time></trkpt><trkpt lat="44.54307598095114" lon="10.497558078878097"><ele>608.0</ele><time>2026-04-18T09:28:03Z</time></trkpt><trkpt lat="44.54311454570833" lon="10.49746685016054"><ele>608.0</ele><time>2026-04-18T09:28:04Z</time></trkpt><trkpt lat="44.54316096245744" lon="10.49735434362317"><ele>608.0</ele><time>2026-04-18T09:28:05Z</time></trkpt><trkpt lat="44.543212074904126" lon="10.4972265093563"><ele>608.0</ele><time>2026-04-18T09:28:06Z</time></trkpt><trkpt lat="44.5433027011841" lon="10.497066887049627"><ele>609.6666666666666</ele><time>2026-04-18T09:28:07Z</time></trkpt><trkpt lat="44.543455337205025" lon="10.496907041125239"><ele>611.3333333333334</ele><time>2026-04-18T09:28:08Z</time></trkpt><trkpt lat="44.54362017945539" lon="10.496722665883484"><ele>613.0</ele><time>2026-04-18T09:28:09Z</time></trkpt><trkpt lat="44.543754490478925" lon="10.496550902847694"><ele>613.0</ele><time>2026-04-18T09:28:10Z</time></trkpt><trkpt lat="44.543863387521014" lon="10.496425904938627"><ele>613.0</ele><time>2026-04-18T09:28:11Z</time></trkpt><trkpt lat="44.54395281227486" lon="10.49631740113147"><ele>613.0</ele><time>2026-04-18T09:28:12Z</time></trkpt><trkpt lat="44.54403287487297" lon="10.496205463262454"><ele>613.0</ele><time>2026-04-18T09:28:13Z</time></trkpt><trkpt lat="44.544095736501745" lon="10.49609677456991"><ele>613.4</ele><time>2026-04-18T09:28:14Z</time></trkpt><trkpt lat="44.54415737054955" lon="10.495983368264374"><ele>613.8</ele><time>2026-04-18T09:28:15Z</time></trkpt><trkpt lat="44.544219364805464" lon="10.495878569792794"><ele>614.2</ele><time>2026-04-18T09:28:16Z</time></trkpt><trkpt lat="44.54428560977589" lon="10.495783190323886"><ele>614.6</ele><time>2026-04-18T09:28:17Z</time></trkpt><trkpt lat="44.54435030823661" lon="10.495693504852142"><ele>615.0</ele><time>2026-04-18T09:28:18Z</time></trkpt><trkpt lat="44.544422998283345" lon="10.495601907630785"><ele>615.0</ele><time>2026-04-18T09:28:19Z</time></trkpt><trkpt lat="44.544494391267996" lon="10.495526377922737"><ele>615.0</ele><time>2026-04-18T09:28:20Z</time></trkpt><trkpt lat="44.54456478107144" lon="10.495455635870837"><ele>615.0</ele><time>2026-04-18T09:28:21Z</time></trkpt><trkpt lat="44.54463340598057" lon="10.495380196552864"><ele>615.0</ele><time>2026-04-18T09:28:22Z</time></trkpt><trkpt lat="44.54469159699934" lon="10.495318096180277"><ele>615.0</ele><time>2026-04-18T09:28:23Z</time></trkpt><trkpt lat="44.54478258120311" lon="10.495209327818165"><ele>617.0</ele><time>2026-04-18T09:28:25Z</time></trkpt><trkpt lat="44.544861122043365" lon="10.495129332862636"><ele>619.0</ele><time>2026-04-18T09:28:27Z</time></trkpt><trkpt lat="44.54494388453829" lon="10.495083621411966"><ele>621.0</ele><time>2026-04-18T09:28:30Z</time></trkpt><trkpt lat="44.54492601032517" lon="10.494929730690371"><ele>623.0</ele><time>2026-04-18T09:28:31Z</time></trkpt><trkpt lat="44.54492930276877" lon="10.494821262080508"><ele>625.0</ele><time>2026-04-18T09:28:32Z</time></trkpt><trkpt lat="44.54492785830117" lon="10.49472221667823"><ele>627.0</ele><time>2026-04-18T09:28:33Z</time></trkpt><trkpt lat="44.54491834660593" lon="10.49463278994775"><ele>626.0</ele><time>2026-04-18T09:28:34Z</time></trkpt><trkpt lat="44.54489852959565" lon="10.4944639304875"><ele>625.0</ele><time>2026-04-18T09:28:36Z</time></trkpt><trkpt lat="44.544878227109" lon="10.494342805389273"><ele>624.0</ele><time>2026-04-18T09:28:38Z</time></trkpt><trkpt lat="44.54487255123769" lon="10.494233144422541"><ele>623.0</ele><time>2026-04-18T09:28:40Z</time></trkpt><trkpt lat="44.54473857044387" lon="10.494184022644522"><ele>622.0</ele><time>2026-04-18T09:28:41Z</time></trkpt><trkpt lat="44.544676885180756" lon="10.494084532915732"><ele>622.0</ele><time>2026-04-18T09:28:42Z</time></trkpt><trkpt lat="44.54461953591093" lon="10.493978258803043"><ele>622.0</ele><time>2026-04-18T09:28:43Z</time></trkpt><trkpt lat="44.54456809214388" lon="10.49388269193887"><ele>622.0</ele><time>2026-04-18T09:28:44Z</time></trkpt><trkpt lat="44.54452334264248" lon="10.49381299712671"><ele>622.0</ele><time>2026-04-18T09:28:45Z</time></trkpt><trkpt lat="44.544469908475236" lon="10.493709934619181"><ele>622.0</ele><time>2026-04-18T09:28:47Z</time></trkpt><trkpt lat="44.544382865872294" lon="10.493574942810291"><ele>624.0</ele><time>2026-04-18T09:28:49Z</time></trkpt><trkpt lat="44.54432214068084" lon="10.493519391006645"><ele>626.0</ele><time>2026-04-18T09:28:49.999Z</time></trkpt><trkpt lat="44.54424686278927" lon="10.49348272539123"><ele>628.0</ele><time>2026-04-18T09:28:50.999Z</time></trkpt><trkpt lat="44.5441675979687" lon="10.4934608731984"><ele>630.0</ele><time>2026-04-18T09:28:51.999Z</time></trkpt><trkpt lat="44.54408228064706" lon="10.493449397283912"><ele>632.0</ele><time>2026-04-18T09:28:52.999Z</time></trkpt><trkpt lat="44.543995268855255" lon="10.49345430510035"><ele>634.0</ele><time>2026-04-18T09:28:53.999Z</time></trkpt><trkpt lat="44.543903146925764" lon="10.493462441316485"><ele>634.0</ele><time>2026-04-18T09:28:54.999Z</time></trkpt><trkpt lat="44.543814685635695" lon="10.49346938684605"><ele>634.0</ele><time>2026-04-18T09:28:55.999Z</time></trkpt><trkpt lat="44.543723144499054" lon="10.493471750962044"><ele>634.0</ele><time>2026-04-18T09:28:56.999Z</time></trkpt><trkpt lat="44.54363571536938" lon="10.493460479149217"><ele>634.0</ele><time>2026-04-18T09:28:57.999Z</time></trkpt><trkpt lat="44.54354386334901" lon="10.493509393066018"><ele>634.0</ele><time>2026-04-18T09:28:58.999Z</time></trkpt><trkpt lat="44.543461465737785" lon="10.493522655274619"><ele>634.0</ele><time>2026-04-18T09:28:59.999Z</time></trkpt><trkpt lat="44.5433834400775" lon="10.493547534389494"><ele>637.0</ele><time>2026-04-18T09:29:00.999Z</time></trkpt><trkpt lat="44.54331331574372" lon="10.493566374003098"><ele>640.0</ele><time>2026-04-18T09:29:01.999Z</time></trkpt><trkpt lat="44.543225412239295" lon="10.49352567903085"><ele>643.0</ele><time>2026-04-18T09:29:03.999Z</time></trkpt><trkpt lat="44.543281819576634" lon="10.49340008931951"><ele>646.0</ele><time>2026-04-18T09:29:05.999Z</time></trkpt><trkpt lat="44.54336037335617" lon="10.493399940795404"><ele>649.0</ele><time>2026-04-18T09:29:06.999Z</time></trkpt><trkpt lat="44.54342737603531" lon="10.49334210646206"><ele>652.0</ele><time>2026-04-18T09:29:07.999Z</time></trkpt><trkpt lat="44.54350412958184" lon="10.493304567975779"><ele>652.0</ele><time>2026-04-18T09:29:08.999Z</time></trkpt><trkpt lat="44.543586821543855" lon="10.493261742483451"><ele>652.0</ele><time>2026-04-18T09:29:09.999Z</time></trkpt><trkpt lat="44.54366626552326" lon="10.493242642984024"><ele>652.0</ele><time>2026-04-18T09:29:10.999Z</time></trkpt><trkpt lat="44.543736608576594" lon="10.493183373903223"><ele>652.0</ele><time>2026-04-18T09:29:11.999Z</time></trkpt><trkpt lat="44.54380341414993" lon="10.493125789079613"><ele>652.0</ele><time>2026-04-18T09:29:12.999Z</time></trkpt><trkpt lat="44.54386520801224" lon="10.492996812275944"><ele>652.0</ele><time>2026-04-18T09:29:14.999Z</time></trkpt><trkpt lat="44.543784845864714" lon="10.49290174397841"><ele>652.0</ele><time>2026-04-18T09:29:16.999Z</time></trkpt><trkpt lat="44.54371153107769" lon="10.49291467709792"><ele>652.0</ele><time>2026-04-18T09:29:17.999Z</time></trkpt><trkpt lat="44.543646717822966" lon="10.49295302276317"><ele>652.0</ele><time>2026-04-18T09:29:18.999Z</time></trkpt><trkpt lat="44.54357517692311" lon="10.492989917604923"><ele>652.0</ele><time>2026-04-18T09:29:19.999Z</time></trkpt><trkpt lat="44.54350333817753" lon="10.49302169351128"><ele>652.0</ele><time>2026-04-18T09:29:20.999Z</time></trkpt><trkpt lat="44.543426536526724" lon="10.493051319420376"><ele>652.0</ele><time>2026-04-18T09:29:21.999Z</time></trkpt><trkpt lat="44.54333568851236" lon="10.493072313454023"><ele>652.0</ele><time>2026-04-18T09:29:22.999Z</time></trkpt><trkpt lat="44.5432429469753" lon="10.493108706049671"><ele>652.0</ele><time>2026-04-18T09:29:23.999Z</time></trkpt><trkpt lat="44.543152328708935" lon="10.493164229018477"><ele>652.0</ele><time>2026-04-18T09:29:24.999Z</time></trkpt><trkpt lat="44.543058533650466" lon="10.493222746515034"><ele>652.0</ele><time>2026-04-18T09:29:25.999Z</time></trkpt><trkpt lat="44.54296069254287" lon="10.493286286600096"><ele>652.0</ele><time>2026-04-18T09:29:26.999Z</time></trkpt><trkpt lat="44.54284723369557" lon="10.493324901741628"><ele>653.0</ele><time>2026-04-18T09:29:27.999Z</time></trkpt><trkpt lat="44.542707813390656" lon="10.493390813983888"><ele>654.0</ele><time>2026-04-18T09:29:29.999Z</time></trkpt><trkpt lat="44.54261832793306" lon="10.49333650129154"><ele>655.0</ele><time>2026-04-18T09:29:30.999Z</time></trkpt><trkpt lat="44.5425475435254" lon="10.493272605207682"><ele>656.0</ele><time>2026-04-18T09:29:31.999Z</time></trkpt><trkpt lat="44.54249331690195" lon="10.493177061797926"><ele>657.0</ele><time>2026-04-18T09:29:32.999Z</time></trkpt><trkpt lat="44.54242895839241" lon="10.493076904302411"><ele>657.0</ele><time>2026-04-18T09:29:33.999Z</time></trkpt><trkpt lat="44.54236090615741" lon="10.492987610462894"><ele>657.0</ele><time>2026-04-18T09:29:34.999Z</time></trkpt><trkpt lat="44.54227693586111" lon="10.492910715586723"><ele>657.0</ele><time>2026-04-18T09:29:35.999Z</time></trkpt><trkpt lat="44.54219821438103" lon="10.49282287968458"><ele>657.0</ele><time>2026-04-18T09:29:36.999Z</time></trkpt><trkpt lat="44.54212130657381" lon="10.492712539844016"><ele>657.0</ele><time>2026-04-18T09:29:37.999Z</time></trkpt><trkpt lat="44.542027531775645" lon="10.492622849441618"><ele>659.0</ele><time>2026-04-18T09:29:38.999Z</time></trkpt><trkpt lat="44.54192930974994" lon="10.492548339274668"><ele>661.0</ele><time>2026-04-18T09:29:39.999Z</time></trkpt><trkpt lat="44.541866869925606" lon="10.492420723335055"><ele>663.0</ele><time>2026-04-18T09:29:41Z</time></trkpt><trkpt lat="44.54180275771069" lon="10.492312189347748"><ele>665.0</ele><time>2026-04-18T09:29:42Z</time></trkpt><trkpt lat="44.54172484644647" lon="10.492221939228132"><ele>667.0</ele><time>2026-04-18T09:29:43Z</time></trkpt><trkpt lat="44.54165898105246" lon="10.49212719537288"><ele>671.4000000000001</ele><time>2026-04-18T09:29:44Z</time></trkpt><trkpt lat="44.54158211675723" lon="10.492040963387515"><ele>675.8000000000001</ele><time>2026-04-18T09:29:45Z</time></trkpt><trkpt lat="44.54149665776044" lon="10.491975371372082"><ele>680.2</ele><time>2026-04-18T09:29:46Z</time></trkpt><trkpt lat="44.541405995663055" lon="10.491928562503134"><ele>684.6</ele><time>2026-04-18T09:29:47Z</time></trkpt><trkpt lat="44.54131202201805" lon="10.491900806715673"><ele>689.0</ele><time>2026-04-18T09:29:48Z</time></trkpt><trkpt lat="44.5412214895783" lon="10.491883596054196"><ele>689.4000000000001</ele><time>2026-04-18T09:29:49Z</time></trkpt><trkpt lat="44.54113671942798" lon="10.491837634366927"><ele>689.8</ele><time>2026-04-18T09:29:50Z</time></trkpt><trkpt lat="44.54104964695835" lon="10.491822590486523"><ele>690.2</ele><time>2026-04-18T09:29:51Z</time></trkpt><trkpt lat="44.54096689912294" lon="10.491794645973881"><ele>690.5999999999999</ele><time>2026-04-18T09:29:52Z</time></trkpt><trkpt lat="44.54087129823876" lon="10.491768720285314"><ele>691.0</ele><time>2026-04-18T09:29:53Z</time></trkpt><trkpt lat="44.54077448754953" lon="10.491766848595793"><ele>691.0</ele><time>2026-04-18T09:29:54Z</time></trkpt><trkpt lat="44.540680775890166" lon="10.491797898904897"><ele>691.0</ele><time>2026-04-18T09:29:55Z</time></trkpt><trkpt lat="44.54058999417521" lon="10.491839183275879"><ele>691.0</ele><time>2026-04-18T09:29:56Z</time></trkpt><trkpt lat="44.540508443648974" lon="10.491870245751088"><ele>691.0</ele><time>2026-04-18T09:29:57Z</time></trkpt><trkpt lat="44.54041484973183" lon="10.49186178383695"><ele>691.0</ele><time>2026-04-18T09:29:58Z</time></trkpt><trkpt lat="44.540346690075715" lon="10.491788557694038"><ele>692.1999999999999</ele><time>2026-04-18T09:29:59Z</time></trkpt><trkpt lat="44.54031137941746" lon="10.491661989886316"><ele>693.4</ele><time>2026-04-18T09:30:00Z</time></trkpt><trkpt lat="44.54028845842335" lon="10.491536769301588"><ele>694.6</ele><time>2026-04-18T09:30:01Z</time></trkpt><trkpt lat="44.540257821703385" lon="10.491413270415093"><ele>695.8</ele><time>2026-04-18T09:30:02Z</time></trkpt><trkpt lat="44.54022286448617" lon="10.49129069454472"><ele>697.0</ele><time>2026-04-18T09:30:03Z</time></trkpt><trkpt lat="44.54018891726679" lon="10.491167954192369"><ele>697.0</ele><time>2026-04-18T09:30:04Z</time></trkpt><trkpt lat="44.540150182395905" lon="10.491045715278085"><ele>697.0</ele><time>2026-04-18T09:30:05Z</time></trkpt><trkpt lat="44.540098688636746" lon="10.490938956973212"><ele>697.0</ele><time>2026-04-18T09:30:06Z</time></trkpt><trkpt lat="44.54003199462961" lon="10.49083926258072"><ele>697.0</ele><time>2026-04-18T09:30:07Z</time></trkpt><trkpt lat="44.53996462389386" lon="10.490758142132327"><ele>697.0</ele><time>2026-04-18T09:30:08Z</time></trkpt><trkpt lat="44.53990786365601" lon="10.490693799441415"><ele>697.0</ele><time>2026-04-18T09:30:09Z</time></trkpt><trkpt lat="44.53981456742383" lon="10.490616973091125"><ele>697.0</ele><time>2026-04-18T09:30:11Z</time></trkpt><trkpt lat="44.539751612991" lon="10.490586313129565"><ele>697.0</ele><time>2026-04-18T09:30:13Z</time></trkpt><trkpt lat="44.539832291118806" lon="10.490641185276768"><ele>697.0</ele><time>2026-04-18T09:30:17Z</time></trkpt><trkpt lat="44.539891853658744" lon="10.490693335835662"><ele>697.0</ele><time>2026-04-18T09:30:18Z</time></trkpt><trkpt lat="44.53995922742873" lon="10.490786595005305"><ele>697.0</ele><time>2026-04-18T09:30:19Z</time></trkpt><trkpt lat="44.540035538925025" lon="10.490876365850898"><ele>697.0</ele><time>2026-04-18T09:30:20Z</time></trkpt><trkpt lat="44.5401048250486" lon="10.49098819043501"><ele>697.0</ele><time>2026-04-18T09:30:21Z</time></trkpt><trkpt lat="44.540158276338964" lon="10.491117613989411"><ele>697.0</ele><time>2026-04-18T09:30:22Z</time></trkpt><trkpt lat="44.54017568415195" lon="10.49125111866479"><ele>697.0</ele><time>2026-04-18T09:30:23Z</time></trkpt><trkpt lat="44.540212574909" lon="10.491380469969375"><ele>697.0</ele><time>2026-04-18T09:30:24Z</time></trkpt><trkpt lat="44.540257633143604" lon="10.491484973389673"><ele>697.0</ele><time>2026-04-18T09:30:25Z</time></trkpt><trkpt lat="44.54028526606234" lon="10.491598345659172"><ele>696.0</ele><time>2026-04-18T09:30:26Z</time></trkpt><trkpt lat="44.54032196390982" lon="10.491696314074272"><ele>695.0</ele><time>2026-04-18T09:30:27Z</time></trkpt><trkpt lat="44.54035771946413" lon="10.491799142305435"><ele>694.0</ele><time>2026-04-18T09:30:28Z</time></trkpt><trkpt lat="44.54040078235688" lon="10.49187709245219"><ele>693.0</ele><time>2026-04-18T09:30:29Z</time></trkpt><trkpt lat="44.540439279877674" lon="10.49199429505886"><ele>692.0</ele><time>2026-04-18T09:30:31Z</time></trkpt><trkpt lat="44.54033403315904" lon="10.492079076561076"><ele>691.0</ele><time>2026-04-18T09:30:33Z</time></trkpt><trkpt lat="44.5402494606324" lon="10.492216309226228"><ele>688.0</ele><time>2026-04-18T09:30:35Z</time></trkpt><trkpt lat="44.54018734231902" lon="10.492271336887745"><ele>685.0</ele><time>2026-04-18T09:30:36Z</time></trkpt><trkpt lat="44.54013471356594" lon="10.492343296332349"><ele>682.0</ele><time>2026-04-18T09:30:37Z</time></trkpt><trkpt lat="44.54012086015176" lon="10.492571619009999"><ele>679.0</ele><time>2026-04-18T09:30:38Z</time></trkpt><trkpt lat="44.54004135371067" lon="10.492621989226127"><ele>676.0</ele><time>2026-04-18T09:30:39Z</time></trkpt><trkpt lat="44.539947380580585" lon="10.492681524615643"><ele>676.0</ele><time>2026-04-18T09:30:41Z</time></trkpt><trkpt lat="44.539831241732" lon="10.492755102792712"><ele>676.0</ele><time>2026-04-18T09:30:43Z</time></trkpt><trkpt lat="44.53972563560499" lon="10.492615087203955"><ele>676.0</ele><time>2026-04-18T09:30:44Z</time></trkpt><trkpt lat="44.539618508436675" lon="10.492645443564173"><ele>676.0</ele><time>2026-04-18T09:30:46Z</time></trkpt><trkpt lat="44.53951790529975" lon="10.492664715897913"><ele>673.3333333333334</ele><time>2026-04-18T09:30:48Z</time></trkpt><trkpt lat="44.53944866261801" lon="10.49269468606311"><ele>670.6666666666667</ele><time>2026-04-18T09:30:50Z</time></trkpt><trkpt lat="44.53936357706164" lon="10.492769305764961"><ele>668.0</ele><time>2026-04-18T09:30:53.999Z</time></trkpt><trkpt lat="44.53929164541058" lon="10.492836098559495"><ele>665.3333333333334</ele><time>2026-04-18T09:30:55.999Z</time></trkpt><trkpt lat="44.53923322952003" lon="10.492947893861533"><ele>662.6666666666666</ele><time>2026-04-18T09:30:58.999Z</time></trkpt><trkpt lat="44.539216053314135" lon="10.493050828190011"><ele>660.0</ele><time>2026-04-18T09:31:00.999Z</time></trkpt><trkpt lat="44.53924516574387" lon="10.493148904306258"><ele>660.0</ele><time>2026-04-18T09:31:03.999Z</time></trkpt><trkpt lat="44.53926665709841" lon="10.493046816774395"><ele>660.0</ele><time>2026-04-18T09:31:06.999Z</time></trkpt><trkpt lat="44.539223196043054" lon="10.492964803098658"><ele>660.0</ele><time>2026-04-18T09:31:08.999Z</time></trkpt><trkpt lat="44.53926975865451" lon="10.49284641247343"><ele>660.0</ele><time>2026-04-18T09:31:11.999Z</time></trkpt><trkpt lat="44.53937005484103" lon="10.49275021307031"><ele>660.0</ele><time>2026-04-18T09:31:13.999Z</time></trkpt><trkpt lat="44.53943579524484" lon="10.492699389241283"><ele>660.0</ele><time>2026-04-18T09:31:14.999Z</time></trkpt><trkpt lat="44.53950965230563" lon="10.4926451735166"><ele>662.6666666666666</ele><time>2026-04-18T09:31:15.999Z</time></trkpt><trkpt lat="44.5395736366018" lon="10.492624910065434"><ele>665.3333333333334</ele><time>2026-04-18T09:31:16.999Z</time></trkpt><trkpt lat="44.53963667441138" lon="10.492619189433782"><ele>668.0</ele><time>2026-04-18T09:31:17.999Z</time></trkpt><trkpt lat="44.53973600298129" lon="10.492605169771185"><ele>670.6666666666667</ele><time>2026-04-18T09:31:19.999Z</time></trkpt><trkpt lat="44.53969071291922" lon="10.492508136082469"><ele>673.3333333333334</ele><time>2026-04-18T09:31:23.999Z</time></trkpt><trkpt lat="44.53964272703514" lon="10.492376263535746"><ele>676.0</ele><time>2026-04-18T09:31:25.999Z</time></trkpt><trkpt lat="44.53960433419894" lon="10.492282254394036"><ele>676.0</ele><time>2026-04-18T09:31:26.999Z</time></trkpt><trkpt lat="44.53956339140215" lon="10.49219293038311"><ele>676.0</ele><time>2026-04-18T09:31:27.999Z</time></trkpt><trkpt lat="44.539511253505424" lon="10.492099568213812"><ele>676.0</ele><time>2026-04-18T09:31:28.999Z</time></trkpt><trkpt lat="44.53946774480903" lon="10.492023066080717"><ele>676.0</ele><time>2026-04-18T09:31:29.999Z</time></trkpt><trkpt lat="44.53941255001815" lon="10.491948959269738"><ele>676.0</ele><time>2026-04-18T09:31:30.999Z</time></trkpt><trkpt lat="44.53936208429297" lon="10.491894695510705"><ele>676.0</ele><time>2026-04-18T09:31:31.999Z</time></trkpt><trkpt lat="44.539318475720975" lon="10.491825467100055"><ele>676.0</ele><time>2026-04-18T09:31:32.999Z</time></trkpt><trkpt lat="44.539252878023696" lon="10.491706239148424"><ele>676.8</ele><time>2026-04-18T09:31:34.999Z</time></trkpt><trkpt lat="44.53918185385127" lon="10.491552334029777"><ele>677.5999999999999</ele><time>2026-04-18T09:31:36.999Z</time></trkpt><trkpt lat="44.53915266426425" lon="10.491454942053814"><ele>678.4</ele><time>2026-04-18T09:31:37.999Z</time></trkpt><trkpt lat="44.53910420290077" lon="10.491268066508919"><ele>679.2</ele><time>2026-04-18T09:31:39.999Z</time></trkpt><trkpt lat="44.53908372086346" lon="10.491164195915111"><ele>680.0</ele><time>2026-04-18T09:31:40.999Z</time></trkpt><trkpt lat="44.539033604277655" lon="10.491035474346946"><ele>680.0</ele><time>2026-04-18T09:31:42.999Z</time></trkpt><trkpt lat="44.53888781262503" lon="10.491015693069432"><ele>680.0</ele><time>2026-04-18T09:31:44.999Z</time></trkpt><trkpt lat="44.53880349248298" lon="10.491038061168151"><ele>680.0</ele><time>2026-04-18T09:31:45.999Z</time></trkpt><trkpt lat="44.53871737673484" lon="10.491042283543873"><ele>680.0</ele><time>2026-04-18T09:31:47Z</time></trkpt><trkpt lat="44.538622690854936" lon="10.491023031442356"><ele>680.0</ele><time>2026-04-18T09:31:48Z</time></trkpt><trkpt lat="44.538547700134735" lon="10.491004374681923"><ele>678.0</ele><time>2026-04-18T09:31:49Z</time></trkpt><trkpt lat="44.53847648965906" lon="10.490991280958056"><ele>676.0</ele><time>2026-04-18T09:31:50Z</time></trkpt><trkpt lat="44.53841624216241" lon="10.490953326214235"><ele>674.0</ele><time>2026-04-18T09:31:51Z</time></trkpt><trkpt lat="44.53836258980621" lon="10.490872000313985"><ele>672.0</ele><time>2026-04-18T09:31:53Z</time></trkpt><trkpt lat="44.53829790173307" lon="10.490737042919488"><ele>670.0</ele><time>2026-04-18T09:31:55Z</time></trkpt><trkpt lat="44.53821078260992" lon="10.490639663977129"><ele>668.0</ele><time>2026-04-18T09:31:56Z</time></trkpt><trkpt lat="44.53813190221006" lon="10.490565495159128"><ele>668.0</ele><time>2026-04-18T09:31:57Z</time></trkpt><trkpt lat="44.53804701955052" lon="10.490495227014561"><ele>668.0</ele><time>2026-04-18T09:31:58Z</time></trkpt><trkpt lat="44.537929417965806" lon="10.490432479098242"><ele>668.0</ele><time>2026-04-18T09:32:00Z</time></trkpt><trkpt lat="44.53783751394876" lon="10.49042054691128"><ele>668.0</ele><time>2026-04-18T09:32:02Z</time></trkpt><trkpt lat="44.537748344049156" lon="10.490508536340272"><ele>668.0</ele><time>2026-04-18T09:32:04Z</time></trkpt><trkpt lat="44.53767039873939" lon="10.49052358846947"><ele>668.5</ele><time>2026-04-18T09:32:05Z</time></trkpt><trkpt lat="44.53760645575139" lon="10.490502489705147"><ele>669.0</ele><time>2026-04-18T09:32:06Z</time></trkpt><trkpt lat="44.53755144584131" lon="10.490448450505076"><ele>669.5</ele><time>2026-04-18T09:32:07Z</time></trkpt><trkpt lat="44.53748709401239" lon="10.490423955624776"><ele>670.0</ele><time>2026-04-18T09:32:08Z</time></trkpt><trkpt lat="44.5373966454017" lon="10.490445772610826"><ele>670.5</ele><time>2026-04-18T09:32:10Z</time></trkpt><trkpt lat="44.53732771582608" lon="10.490534815104622"><ele>671.0</ele><time>2026-04-18T09:32:12Z</time></trkpt><trkpt lat="44.53725874445368" lon="10.49060337719239"><ele>671.0</ele><time>2026-04-18T09:32:13Z</time></trkpt><trkpt lat="44.537171257213785" lon="10.490701829057022"><ele>671.0</ele><time>2026-04-18T09:32:14Z</time></trkpt><trkpt lat="44.53707509404488" lon="10.490795170936236"><ele>671.0</ele><time>2026-04-18T09:32:15Z</time></trkpt><trkpt lat="44.53700525908768" lon="10.490856805444167"><ele>671.0</ele><time>2026-04-18T09:32:16Z</time></trkpt><trkpt lat="44.53692810544847" lon="10.490932892655223"><ele>671.0</ele><time>2026-04-18T09:32:17Z</time></trkpt><trkpt lat="44.53685661715456" lon="10.491005947225222"><ele>673.5999999999999</ele><time>2026-04-18T09:32:19Z</time></trkpt><trkpt lat="44.536750789267266" lon="10.491055690562368"><ele>676.2</ele><time>2026-04-18T09:32:21Z</time></trkpt><trkpt lat="44.536683644257366" lon="10.491051190071643"><ele>678.8</ele><time>2026-04-18T09:32:22Z</time></trkpt><trkpt lat="44.53660330325316" lon="10.491049954545398"><ele>681.4000000000001</ele><time>2026-04-18T09:32:23Z</time></trkpt><trkpt lat="44.53651761970357" lon="10.491051295703977"><ele>684.0</ele><time>2026-04-18T09:32:24Z</time></trkpt><trkpt lat="44.536438902416805" lon="10.491168953924639"><ele>680.6</ele><time>2026-04-18T09:32:26Z</time></trkpt><trkpt lat="44.53642601508003" lon="10.49134912610723"><ele>677.2</ele><time>2026-04-18T09:32:28Z</time></trkpt><trkpt lat="44.536435391069226" lon="10.491460221872826"><ele>673.8000000000001</ele><time>2026-04-18T09:32:29Z</time></trkpt><trkpt lat="44.536421211371724" lon="10.49156016419179"><ele>670.4000000000001</ele><time>2026-04-18T09:32:30Z</time></trkpt><trkpt lat="44.5363997014321" lon="10.49168219399764"><ele>667.0</ele><time>2026-04-18T09:32:31Z</time></trkpt><trkpt lat="44.53636832397025" lon="10.491784450472913"><ele>667.0</ele><time>2026-04-18T09:32:32Z</time></trkpt><trkpt lat="44.536345378614705" lon="10.491903381740007"><ele>667.0</ele><time>2026-04-18T09:32:33Z</time></trkpt><trkpt lat="44.53631099670179" lon="10.492024559300928"><ele>667.0</ele><time>2026-04-18T09:32:34Z</time></trkpt><trkpt lat="44.53627230394528" lon="10.49213958245174"><ele>667.0</ele><time>2026-04-18T09:32:35Z</time></trkpt><trkpt lat="44.5362345672024" lon="10.492242237564117"><ele>667.0</ele><time>2026-04-18T09:32:36Z</time></trkpt><trkpt lat="44.53619181368539" lon="10.492332737175206"><ele>667.0</ele><time>2026-04-18T09:32:37Z</time></trkpt><trkpt lat="44.536147247152066" lon="10.492403107165975"><ele>669.6666666666667</ele><time>2026-04-18T09:32:38Z</time></trkpt><trkpt lat="44.53610147106235" lon="10.492465689040916"><ele>672.3333333333334</ele><time>2026-04-18T09:32:39Z</time></trkpt><trkpt lat="44.53603290564065" lon="10.492545875855027"><ele>675.0</ele><time>2026-04-18T09:32:40Z</time></trkpt><trkpt lat="44.53595960889295" lon="10.492628100577214"><ele>677.6666666666666</ele><time>2026-04-18T09:32:41Z</time></trkpt><trkpt lat="44.53590137691799" lon="10.49269581647993"><ele>680.3333333333333</ele><time>2026-04-18T09:32:42Z</time></trkpt><trkpt lat="44.53584852453355" lon="10.492751746676028"><ele>683.0</ele><time>2026-04-18T09:32:43Z</time></trkpt><trkpt lat="44.535784935889815" lon="10.492752572899995"><ele>683.0</ele><time>2026-04-18T09:32:44Z</time></trkpt><trkpt lat="44.53572120331734" lon="10.492798779622879"><ele>683.0</ele><time>2026-04-18T09:32:45Z</time></trkpt><trkpt lat="44.53562806418465" lon="10.492861550991734"><ele>683.0</ele><time>2026-04-18T09:32:47Z</time></trkpt><trkpt lat="44.53551104526651" lon="10.49288333869694"><ele>683.0</ele><time>2026-04-18T09:32:49Z</time></trkpt><trkpt lat="44.53544656387279" lon="10.492893334037756"><ele>683.0</ele><time>2026-04-18T09:32:50Z</time></trkpt><trkpt lat="44.53533305011537" lon="10.492905333748402"><ele>683.5</ele><time>2026-04-18T09:32:51.999Z</time></trkpt><trkpt lat="44.5352315815532" lon="10.49291624234114"><ele>684.0</ele><time>2026-04-18T09:32:53.999Z</time></trkpt><trkpt lat="44.53514924978515" lon="10.49292509361263"><ele>684.5</ele><time>2026-04-18T09:32:55.999Z</time></trkpt><trkpt lat="44.53505148363702" lon="10.492936819863864"><ele>685.0</ele><time>2026-04-18T09:32:57.999Z</time></trkpt><trkpt lat="44.53498351808267" lon="10.492947321255398"><ele>685.5</ele><time>2026-04-18T09:32:58.999Z</time></trkpt><trkpt lat="44.53491906267374" lon="10.492971398555941"><ele>686.0</ele><time>2026-04-18T09:32:59.999Z</time></trkpt><trkpt lat="44.5348458641653" lon="10.492979042443801"><ele>681.6666666666666</ele><time>2026-04-18T09:33:00.999Z</time></trkpt><trkpt lat="44.53478065910186" lon="10.493015932849303"><ele>677.3333333333333</ele><time>2026-04-18T09:33:01.999Z</time></trkpt><trkpt lat="44.534712534936226" lon="10.493088113173727"><ele>673.0</ele><time>2026-04-18T09:33:03.999Z</time></trkpt><trkpt lat="44.53466539961094" lon="10.49316667360402"><ele>668.6666666666666</ele><time>2026-04-18T09:33:04.999Z</time></trkpt><trkpt lat="44.53464198100185" lon="10.493294277476213"><ele>664.3333333333334</ele><time>2026-04-18T09:33:05.999Z</time></trkpt><trkpt lat="44.53463242376996" lon="10.493412697481679"><ele>660.0</ele><time>2026-04-18T09:33:06.999Z</time></trkpt><trkpt lat="44.53464829418815" lon="10.493503961836081"><ele>660.0</ele><time>2026-04-18T09:33:07.999Z</time></trkpt><trkpt lat="44.53461789223655" lon="10.4936062715398"><ele>660.0</ele><time>2026-04-18T09:33:08.999Z</time></trkpt><trkpt lat="44.53450389351365" lon="10.493674381225464"><ele>660.0</ele><time>2026-04-18T09:33:09.999Z</time></trkpt><trkpt lat="44.534387022074114" lon="10.493762016148597"><ele>660.0</ele><time>2026-04-18T09:33:10.999Z</time></trkpt><trkpt lat="44.53429480848065" lon="10.493885374464027"><ele>660.6</ele><time>2026-04-18T09:33:11.999Z</time></trkpt><trkpt lat="44.53419132587873" lon="10.494016259284605"><ele>661.2</ele><time>2026-04-18T09:33:12.999Z</time></trkpt><trkpt lat="44.53411009112695" lon="10.494127078705118"><ele>661.8</ele><time>2026-04-18T09:33:13.999Z</time></trkpt><trkpt lat="44.53403385544185" lon="10.494211599668066"><ele>662.4</ele><time>2026-04-18T09:33:14.999Z</time></trkpt><trkpt lat="44.5339624257562" lon="10.49428674044325"><ele>663.0</ele><time>2026-04-18T09:33:15.999Z</time></trkpt><trkpt lat="44.53388336898506" lon="10.494391969353305"><ele>663.0</ele><time>2026-04-18T09:33:16.999Z</time></trkpt><trkpt lat="44.53378083294238" lon="10.494493404311594"><ele>663.0</ele><time>2026-04-18T09:33:17.999Z</time></trkpt><trkpt lat="44.53368150754568" lon="10.494632187784436"><ele>663.0</ele><time>2026-04-18T09:33:18.999Z</time></trkpt><trkpt lat="44.533588467348565" lon="10.494740288593995"><ele>663.0</ele><time>2026-04-18T09:33:19.999Z</time></trkpt><trkpt lat="44.53350166490752" lon="10.494831979393258"><ele>668.4</ele><time>2026-04-18T09:33:20.999Z</time></trkpt><trkpt lat="44.53343257201096" lon="10.494926408131857"><ele>673.8</ele><time>2026-04-18T09:33:21.999Z</time></trkpt><trkpt lat="44.5333784165621" lon="10.494997828294114"><ele>679.2</ele><time>2026-04-18T09:33:22.999Z</time></trkpt><trkpt lat="44.5333253473914" lon="10.495064784055462"><ele>684.6</ele><time>2026-04-18T09:33:24.999Z</time></trkpt><trkpt lat="44.533362629682436" lon="10.494922882638999"><ele>690.0</ele><time>2026-04-18T09:33:33.999Z</time></trkpt><trkpt lat="44.533419770905766" lon="10.494803986855935"><ele>690.0</ele><time>2026-04-18T09:33:34.999Z</time></trkpt><trkpt lat="44.53347667542926" lon="10.49469985807266"><ele>690.0</ele><time>2026-04-18T09:33:35.999Z</time></trkpt><trkpt lat="44.533515386440975" lon="10.49459601076148"><ele>690.0</ele><time>2026-04-18T09:33:36.999Z</time></trkpt><trkpt lat="44.533543980153006" lon="10.494497607544586"><ele>690.0</ele><time>2026-04-18T09:33:37.999Z</time></trkpt><trkpt lat="44.53356584776908" lon="10.494410974822978"><ele>690.0</ele><time>2026-04-18T09:33:38.999Z</time></trkpt><trkpt lat="44.53362547457774" lon="10.494230998431325"><ele>688.3333333333334</ele><time>2026-04-18T09:33:40.999Z</time></trkpt><trkpt lat="44.533653172497445" lon="10.49413424309677"><ele>686.6666666666666</ele><time>2026-04-18T09:33:41.999Z</time></trkpt><trkpt lat="44.53367839269162" lon="10.494029939870147"><ele>685.0</ele><time>2026-04-18T09:33:42.999Z</time></trkpt><trkpt lat="44.53370789485163" lon="10.493910558399406"><ele>683.3333333333333</ele><time>2026-04-18T09:33:43.999Z</time></trkpt><trkpt lat="44.53373170681019" lon="10.49379393886411"><ele>681.6666666666666</ele><time>2026-04-18T09:33:44.999Z</time></trkpt><trkpt lat="44.53376995621156" lon="10.493636875472001"><ele>680.0</ele><time>2026-04-18T09:33:45.999Z</time></trkpt><trkpt lat="44.53378572880927" lon="10.493507233132432"><ele>680.0</ele><time>2026-04-18T09:33:46.999Z</time></trkpt><trkpt lat="44.533809201143896" lon="10.49340440842181"><ele>680.0</ele><time>2026-04-18T09:33:47.999Z</time></trkpt><trkpt lat="44.533844025373725" lon="10.493258558477315"><ele>680.0</ele><time>2026-04-18T09:33:49.999Z</time></trkpt><trkpt lat="44.53386942308316" lon="10.493129613947472"><ele>680.0</ele><time>2026-04-18T09:33:51.999Z</time></trkpt><trkpt lat="44.53392316159597" lon="10.49300793255705"><ele>680.0</ele><time>2026-04-18T09:33:54Z</time></trkpt><trkpt lat="44.53387282366292" lon="10.493123450693139"><ele>680.0</ele><time>2026-04-18T09:34:02Z</time></trkpt><trkpt lat="44.53384643238223" lon="10.493266321148617"><ele>680.0</ele><time>2026-04-18T09:34:03Z</time></trkpt><trkpt lat="44.53380366550059" lon="10.493432496048486"><ele>680.0</ele><time>2026-04-18T09:34:04Z</time></trkpt><trkpt lat="44.53376145024789" lon="10.493650966162289"><ele>680.0</ele><time>2026-04-18T09:34:05Z</time></trkpt><trkpt lat="44.53373257525623" lon="10.493876876663009"><ele>686.25</ele><time>2026-04-18T09:34:06Z</time></trkpt><trkpt lat="44.53369530196835" lon="10.494077129093917"><ele>692.5</ele><time>2026-04-18T09:34:07Z</time></trkpt><trkpt lat="44.533653848858194" lon="10.494261864679743"><ele>698.75</ele><time>2026-04-18T09:34:08Z</time></trkpt><trkpt lat="44.53359107495778" lon="10.494431520252155"><ele>705.0</ele><time>2026-04-18T09:34:09Z</time></trkpt><trkpt lat="44.53351356518966" lon="10.494576164836907"><ele>702.0</ele><time>2026-04-18T09:34:10Z</time></trkpt><trkpt lat="44.53345869563857" lon="10.49472119345105"><ele>699.0</ele><time>2026-04-18T09:34:11Z</time></trkpt><trkpt lat="44.53339328729344" lon="10.494853661933734"><ele>696.0</ele><time>2026-04-18T09:34:11.999Z</time></trkpt><trkpt lat="44.53332787571809" lon="10.49497311433091"><ele>693.0</ele><time>2026-04-18T09:34:12.999Z</time></trkpt><trkpt lat="44.53327517288274" lon="10.49510282880239"><ele>690.0</ele><time>2026-04-18T09:34:13.999Z</time></trkpt><trkpt lat="44.53324758270124" lon="10.495245701066056"><ele>687.0</ele><time>2026-04-18T09:34:14.999Z</time></trkpt><trkpt lat="44.53322274453292" lon="10.49542138900188"><ele>684.0</ele><time>2026-04-18T09:34:15.999Z</time></trkpt><trkpt lat="44.533175645848665" lon="10.49561190082688"><ele>681.0</ele><time>2026-04-18T09:34:16.999Z</time></trkpt><trkpt lat="44.5331530597227" lon="10.495766090014884"><ele>678.0</ele><time>2026-04-18T09:34:17.999Z</time></trkpt><trkpt lat="44.533150189921685" lon="10.495891752370746"><ele>678.0</ele><time>2026-04-18T09:34:18.999Z</time></trkpt><trkpt lat="44.53312065386246" lon="10.49602700439375"><ele>678.0</ele><time>2026-04-18T09:34:20.999Z</time></trkpt><trkpt lat="44.53291904132441" lon="10.495974319937531"><ele>678.0</ele><time>2026-04-18T09:34:23.999Z</time></trkpt><trkpt lat="44.53282543450639" lon="10.495918163801822"><ele>678.0</ele><time>2026-04-18T09:34:25.999Z</time></trkpt><trkpt lat="44.53274721341923" lon="10.495852309842713"><ele>681.5</ele><time>2026-04-18T09:34:27.999Z</time></trkpt><trkpt lat="44.53259454329018" lon="10.49579678322726"><ele>685.0</ele><time>2026-04-18T09:34:29.998Z</time></trkpt><trkpt lat="44.53247440207407" lon="10.49575739950069"><ele>688.5</ele><time>2026-04-18T09:34:30.998Z</time></trkpt><trkpt lat="44.53236872861734" lon="10.49572738210699"><ele>692.0</ele><time>2026-04-18T09:34:31.998Z</time></trkpt><trkpt lat="44.53226381413905" lon="10.495729631797625"><ele>692.0</ele><time>2026-04-18T09:34:32.998Z</time></trkpt><trkpt lat="44.53216715543179" lon="10.49575498110334"><ele>692.0</ele><time>2026-04-18T09:34:33.998Z</time></trkpt><trkpt lat="44.532057180376924" lon="10.495754683683062"><ele>692.0</ele><time>2026-04-18T09:34:34.998Z</time></trkpt><trkpt lat="44.53195933556505" lon="10.4957540908493"><ele>692.0</ele><time>2026-04-18T09:34:35.998Z</time></trkpt><trkpt lat="44.53187122066549" lon="10.495758350768924"><ele>692.0</ele><time>2026-04-18T09:34:36.998Z</time></trkpt><trkpt lat="44.53178928580351" lon="10.495729302083651"><ele>690.5</ele><time>2026-04-18T09:34:37.998Z</time></trkpt><trkpt lat="44.53170206862611" lon="10.495710248798597"><ele>689.0</ele><time>2026-04-18T09:34:38.998Z</time></trkpt><trkpt lat="44.53161213868937" lon="10.49568922792713"><ele>687.5</ele><time>2026-04-18T09:34:39.998Z</time></trkpt><trkpt lat="44.531545550984006" lon="10.495679359098483"><ele>686.0</ele><time>2026-04-18T09:34:40.998Z</time></trkpt><trkpt lat="44.531479251705115" lon="10.495661178699187"><ele>684.5</ele><time>2026-04-18T09:34:41.998Z</time></trkpt><trkpt lat="44.5313655585409" lon="10.495629886378289"><ele>683.0</ele><time>2026-04-18T09:34:43.998Z</time></trkpt><trkpt lat="44.531287357203276" lon="10.495574982432366"><ele>682.3333333333333</ele><time>2026-04-18T09:34:45.998Z</time></trkpt><trkpt lat="44.531220041531654" lon="10.495618388956307"><ele>681.6666666666666</ele><time>2026-04-18T09:34:49.998Z</time></trkpt><trkpt lat="44.53115367045143" lon="10.495543313710323"><ele>681.0</ele><time>2026-04-18T09:34:52.998Z</time></trkpt><trkpt lat="44.53111142681364" lon="10.495387241109873"><ele>680.3333333333334</ele><time>2026-04-18T09:34:54.998Z</time></trkpt><trkpt lat="44.53108367243374" lon="10.495291581161908"><ele>679.6666666666667</ele><time>2026-04-18T09:34:55.998Z</time></trkpt><trkpt lat="44.53106123794433" lon="10.495202134740476"><ele>679.0</ele><time>2026-04-18T09:34:56.998Z</time></trkpt><trkpt lat="44.531034591054144" lon="10.495108137840115"><ele>679.0</ele><time>2026-04-18T09:34:57.998Z</time></trkpt><trkpt lat="44.530997048733475" lon="10.495033388298934"><ele>679.0</ele><time>2026-04-18T09:34:58.998Z</time></trkpt><trkpt lat="44.53091779556144" lon="10.494899862106433"><ele>679.0</ele><time>2026-04-18T09:35:00.998Z</time></trkpt><trkpt lat="44.53084269207295" lon="10.494751185519158"><ele>679.0</ele><time>2026-04-18T09:35:02.998Z</time></trkpt><trkpt lat="44.530806154300194" lon="10.49464828283919"><ele>679.0</ele><time>2026-04-18T09:35:03.998Z</time></trkpt><trkpt lat="44.530771930017046" lon="10.494535153329213"><ele>678.6</ele><time>2026-04-18T09:35:04.998Z</time></trkpt><trkpt lat="44.53072658432102" lon="10.494412328736564"><ele>678.2</ele><time>2026-04-18T09:35:05.998Z</time></trkpt><trkpt lat="44.53068515300762" lon="10.494325243569893"><ele>677.8000000000001</ele><time>2026-04-18T09:35:06.998Z</time></trkpt><trkpt lat="44.5306463623099" lon="10.494209281261455"><ele>677.4000000000001</ele><time>2026-04-18T09:35:07.998Z</time></trkpt><trkpt lat="44.530603815029664" lon="10.494107113507358"><ele>677.0</ele><time>2026-04-18T09:35:08.998Z</time></trkpt><trkpt lat="44.53055421870979" lon="10.493980772501324"><ele>677.0</ele><time>2026-04-18T09:35:09.998Z</time></trkpt><trkpt lat="44.53049254228997" lon="10.49386458549835"><ele>677.0</ele><time>2026-04-18T09:35:10.998Z</time></trkpt><trkpt lat="44.53042766076608" lon="10.493745682582652"><ele>677.0</ele><time>2026-04-18T09:35:11.998Z</time></trkpt><trkpt lat="44.53035608471722" lon="10.4936467962103"><ele>677.0</ele><time>2026-04-18T09:35:12.998Z</time></trkpt><trkpt lat="44.53027169470524" lon="10.493600569761984"><ele>677.0</ele><time>2026-04-18T09:35:13.998Z</time></trkpt><trkpt lat="44.53018546637529" lon="10.493583403897604"><ele>674.75</ele><time>2026-04-18T09:35:14.998Z</time></trkpt><trkpt lat="44.53008620348263" lon="10.493598173917327"><ele>672.5</ele><time>2026-04-18T09:35:15.998Z</time></trkpt><trkpt lat="44.52995287779731" lon="10.49363911901026"><ele>670.25</ele><time>2026-04-18T09:35:16.998Z</time></trkpt><trkpt lat="44.52982714328313" lon="10.49368763853465"><ele>668.0</ele><time>2026-04-18T09:35:17.998Z</time></trkpt><trkpt lat="44.52973221627632" lon="10.493738245936754"><ele>666.5</ele><time>2026-04-18T09:35:18.998Z</time></trkpt><trkpt lat="44.52965302610623" lon="10.493769858085253"><ele>665.0</ele><time>2026-04-18T09:35:19.998Z</time></trkpt><trkpt lat="44.52958920534882" lon="10.493793330195437"><ele>663.5</ele><time>2026-04-18T09:35:20.998Z</time></trkpt><trkpt lat="44.52949224019701" lon="10.493717172998595"><ele>662.0</ele><time>2026-04-18T09:35:22.998Z</time></trkpt><trkpt lat="44.5294564284257" lon="10.493640681351039"><ele>660.5</ele><time>2026-04-18T09:35:23.998Z</time></trkpt><trkpt lat="44.52944634117317" lon="10.493538237883111"><ele>659.0</ele><time>2026-04-18T09:35:24.998Z</time></trkpt><trkpt lat="44.52944749425658" lon="10.493426851070373"><ele>658.8000000000001</ele><time>2026-04-18T09:35:25.998Z</time></trkpt><trkpt lat="44.529439117808764" lon="10.493289999204544"><ele>658.6</ele><time>2026-04-18T09:35:26.998Z</time></trkpt><trkpt lat="44.529436215418286" lon="10.49316042665042"><ele>658.4</ele><time>2026-04-18T09:35:27.998Z</time></trkpt><trkpt lat="44.529430402124675" lon="10.493051979623292"><ele>658.2</ele><time>2026-04-18T09:35:28.998Z</time></trkpt><trkpt lat="44.52941888844791" lon="10.492947064569623"><ele>658.0</ele><time>2026-04-18T09:35:29.998Z</time></trkpt><trkpt lat="44.529298525235724" lon="10.49300389281246"><ele>658.0</ele><time>2026-04-18T09:35:30.998Z</time></trkpt><trkpt lat="44.52917305415394" lon="10.493034790346233"><ele>658.0</ele><time>2026-04-18T09:35:32.998Z</time></trkpt><trkpt lat="44.529081440012455" lon="10.493034609516563"><ele>658.0</ele><time>2026-04-18T09:35:33.998Z</time></trkpt><trkpt lat="44.528972209411144" lon="10.493017521825537"><ele>658.0</ele><time>2026-04-18T09:35:34.998Z</time></trkpt><trkpt lat="44.528873261017296" lon="10.493013703571203"><ele>658.0</ele><time>2026-04-18T09:35:35.998Z</time></trkpt><trkpt lat="44.52877901881817" lon="10.493057285518876"><ele>658.8</ele><time>2026-04-18T09:35:36.998Z</time></trkpt><trkpt lat="44.528674001913856" lon="10.493132321873064"><ele>659.5999999999999</ele><time>2026-04-18T09:35:37.998Z</time></trkpt><trkpt lat="44.528603103846336" lon="10.493172169936017"><ele>660.4000000000001</ele><time>2026-04-18T09:35:38.998Z</time></trkpt><trkpt lat="44.52851683767555" lon="10.4932593596868"><ele>661.2</ele><time>2026-04-18T09:35:39.998Z</time></trkpt><trkpt lat="44.528415996838746" lon="10.493361130205773"><ele>662.0</ele><time>2026-04-18T09:35:40.998Z</time></trkpt><trkpt lat="44.52831795173453" lon="10.49345456927942"><ele>662.0</ele><time>2026-04-18T09:35:41.998Z</time></trkpt><trkpt lat="44.5282454532469" lon="10.493508983132154"><ele>662.0</ele><time>2026-04-18T09:35:42.998Z</time></trkpt><trkpt lat="44.528126757960734" lon="10.493593911869977"><ele>662.0</ele><time>2026-04-18T09:35:44.997Z</time></trkpt><trkpt lat="44.528047380247024" lon="10.493659109143035"><ele>662.0</ele><time>2026-04-18T09:35:45.997Z</time></trkpt><trkpt lat="44.527953778182926" lon="10.493735795953215"><ele>662.0</ele><time>2026-04-18T09:35:46.997Z</time></trkpt><trkpt lat="44.52788685163743" lon="10.49378260246298"><ele>659.8</ele><time>2026-04-18T09:35:47.997Z</time></trkpt><trkpt lat="44.527832504088316" lon="10.493842416215127"><ele>657.6</ele><time>2026-04-18T09:35:48.997Z</time></trkpt><trkpt lat="44.52772780388881" lon="10.493920641415793"><ele>655.4</ele><time>2026-04-18T09:35:49.997Z</time></trkpt><trkpt lat="44.527647231443375" lon="10.493990249201596"><ele>653.1999999999999</ele><time>2026-04-18T09:35:50.997Z</time></trkpt><trkpt lat="44.52757644851564" lon="10.494067637204507"><ele>651.0</ele><time>2026-04-18T09:35:51.997Z</time></trkpt><trkpt lat="44.52750627675161" lon="10.494166710177593"><ele>651.0</ele><time>2026-04-18T09:35:52.997Z</time></trkpt><trkpt lat="44.527438766532455" lon="10.494278676561496"><ele>651.0</ele><time>2026-04-18T09:35:53.997Z</time></trkpt><trkpt lat="44.52738433191403" lon="10.494367547983643"><ele>651.0</ele><time>2026-04-18T09:35:54.997Z</time></trkpt><trkpt lat="44.52734228479429" lon="10.494436791354891"><ele>651.0</ele><time>2026-04-18T09:35:55.997Z</time></trkpt><trkpt lat="44.52726103977438" lon="10.49453185405249"><ele>651.0</ele><time>2026-04-18T09:35:57.998Z</time></trkpt><trkpt lat="44.5271510138437" lon="10.49453831879466"><ele>651.0</ele><time>2026-04-18T09:35:59.998Z</time></trkpt><trkpt lat="44.52708816126576" lon="10.494526325723198"><ele>651.0</ele><time>2026-04-18T09:36:00.998Z</time></trkpt><trkpt lat="44.52701806542275" lon="10.494502576801825"><ele>651.0</ele><time>2026-04-18T09:36:01.998Z</time></trkpt><trkpt lat="44.52695881568424" lon="10.494450156523236"><ele>651.0</ele><time>2026-04-18T09:36:02.999Z</time></trkpt><trkpt lat="44.52690672718807" lon="10.49438238544807"><ele>651.0</ele><time>2026-04-18T09:36:03.999Z</time></trkpt><trkpt lat="44.526844615249324" lon="10.494212365641598"><ele>651.0</ele><time>2026-04-18T09:36:05.999Z</time></trkpt><trkpt lat="44.52683023930391" lon="10.494113241418784"><ele>651.1999999999999</ele><time>2026-04-18T09:36:06.999Z</time></trkpt><trkpt lat="44.52683927505324" lon="10.49401843195216"><ele>651.4</ele><time>2026-04-18T09:36:07.999Z</time></trkpt><trkpt lat="44.526833589248106" lon="10.493907740428773"><ele>651.6</ele><time>2026-04-18T09:36:08.999Z</time></trkpt><trkpt lat="44.52681242621877" lon="10.493777848909067"><ele>651.8</ele><time>2026-04-18T09:36:09.999Z</time></trkpt><trkpt lat="44.52675812236376" lon="10.493616103449265"><ele>652.0</ele><time>2026-04-18T09:36:10.999Z</time></trkpt><trkpt lat="44.5266734555563" lon="10.493471075964734"><ele>652.0</ele><time>2026-04-18T09:36:11.999Z</time></trkpt><trkpt lat="44.52659579736117" lon="10.49347084777694"><ele>652.0</ele><time>2026-04-18T09:36:12.999Z</time></trkpt><trkpt lat="44.526448324924786" lon="10.493511159424504"><ele>652.0</ele><time>2026-04-18T09:36:14.999Z</time></trkpt><trkpt lat="44.526351817846454" lon="10.493530643387485"><ele>652.0</ele><time>2026-04-18T09:36:15.999Z</time></trkpt><trkpt lat="44.52624687442704" lon="10.493513477797677"><ele>652.0</ele><time>2026-04-18T09:36:16.999Z</time></trkpt><trkpt lat="44.52614449787629" lon="10.49349348242852"><ele>653.0</ele><time>2026-04-18T09:36:17.999Z</time></trkpt><trkpt lat="44.526069744479024" lon="10.493517961605018"><ele>654.0</ele><time>2026-04-18T09:36:18.999Z</time></trkpt><trkpt lat="44.52599149230886" lon="10.49357106377812"><ele>655.0</ele><time>2026-04-18T09:36:19.999Z</time></trkpt><trkpt lat="44.525932475644964" lon="10.493641581638004"><ele>656.0</ele><time>2026-04-18T09:36:20.999Z</time></trkpt><trkpt lat="44.52587894712249" lon="10.493772373396808"><ele>657.0</ele><time>2026-04-18T09:36:22Z</time></trkpt><trkpt lat="44.52581788340387" lon="10.493895788667604"><ele>655.6</ele><time>2026-04-18T09:36:23Z</time></trkpt><trkpt lat="44.525750549115855" lon="10.493987811836321"><ele>654.2</ele><time>2026-04-18T09:36:24Z</time></trkpt><trkpt lat="44.52566973519957" lon="10.494034796327638"><ele>652.8</ele><time>2026-04-18T09:36:25Z</time></trkpt><trkpt lat="44.525560003414185" lon="10.494058691773706"><ele>651.4</ele><time>2026-04-18T09:36:26Z</time></trkpt><trkpt lat="44.52543997789951" lon="10.494083379820847"><ele>650.0</ele><time>2026-04-18T09:36:27Z</time></trkpt><trkpt lat="44.52533383054508" lon="10.494142850784979"><ele>650.0</ele><time>2026-04-18T09:36:28Z</time></trkpt><trkpt lat="44.52525852495612" lon="10.49421915604046"><ele>650.0</ele><time>2026-04-18T09:36:29Z</time></trkpt><trkpt lat="44.52516841284208" lon="10.494253177357724"><ele>650.0</ele><time>2026-04-18T09:36:31Z</time></trkpt><trkpt lat="44.52509227114125" lon="10.494278598607801"><ele>650.0</ele><time>2026-04-18T09:36:33Z</time></trkpt><trkpt lat="44.52500977107795" lon="10.494296617473779"><ele>650.0</ele><time>2026-04-18T09:36:35Z</time></trkpt><trkpt lat="44.52493237187716" lon="10.494298329871288"><ele>650.0</ele><time>2026-04-18T09:36:37Z</time></trkpt><trkpt lat="44.52486216889538" lon="10.49427331321413"><ele>650.0</ele><time>2026-04-18T09:36:39Z</time></trkpt><trkpt lat="44.52478181979226" lon="10.494218183862836"><ele>650.0</ele><time>2026-04-18T09:36:41Z</time></trkpt><trkpt lat="44.52470375492218" lon="10.494141898817444"><ele>650.0</ele><time>2026-04-18T09:36:43Z</time></trkpt><trkpt lat="44.524623725651495" lon="10.494061425729019"><ele>650.0</ele><time>2026-04-18T09:36:45Z</time></trkpt><trkpt lat="44.52454667309814" lon="10.493971184255951"><ele>650.0</ele><time>2026-04-18T09:36:47Z</time></trkpt><trkpt lat="44.52444986799309" lon="10.493899508682553"><ele>649.5</ele><time>2026-04-18T09:36:49Z</time></trkpt><trkpt lat="44.524344717109095" lon="10.493833993211954"><ele>649.0</ele><time>2026-04-18T09:36:51Z</time></trkpt><trkpt lat="44.52423721492821" lon="10.493757246511542"><ele>648.5</ele><time>2026-04-18T09:36:53Z</time></trkpt><trkpt lat="44.52416807369512" lon="10.493725537090302"><ele>648.0</ele><time>2026-04-18T09:36:54Z</time></trkpt><trkpt lat="44.52409984360145" lon="10.493716009047496"><ele>647.5</ele><time>2026-04-18T09:36:55Z</time></trkpt><trkpt lat="44.52403539744844" lon="10.493716381641063"><ele>647.0</ele><time>2026-04-18T09:36:56Z</time></trkpt><trkpt lat="44.52397242121644" lon="10.49373716425054"><ele>648.2</ele><time>2026-04-18T09:36:57Z</time></trkpt><trkpt lat="44.523864716092845" lon="10.493728376314063"><ele>649.4000000000001</ele><time>2026-04-18T09:36:59Z</time></trkpt><trkpt lat="44.52381871053784" lon="10.4936612121493"><ele>650.5999999999999</ele><time>2026-04-18T09:37:01Z</time></trkpt><trkpt lat="44.52388178217558" lon="10.493510382622596"><ele>651.8</ele><time>2026-04-18T09:37:06Z</time></trkpt><trkpt lat="44.52392697589119" lon="10.493403089422749"><ele>653.0</ele><time>2026-04-18T09:37:07Z</time></trkpt><trkpt lat="44.52396416409106" lon="10.493267524821315"><ele>653.0</ele><time>2026-04-18T09:37:08Z</time></trkpt><trkpt lat="44.524011670991435" lon="10.493131978732924"><ele>653.0</ele><time>2026-04-18T09:37:09Z</time></trkpt><trkpt lat="44.52405170975671" lon="10.49300402145299"><ele>653.0</ele><time>2026-04-18T09:37:10Z</time></trkpt><trkpt lat="44.524083931671655" lon="10.492903925564063"><ele>653.0</ele><time>2026-04-18T09:37:10.999Z</time></trkpt><trkpt lat="44.524112308613915" lon="10.492809887066638"><ele>653.0</ele><time>2026-04-18T09:37:11.999Z</time></trkpt><trkpt lat="44.52413992787736" lon="10.492699226091629"><ele>653.0</ele><time>2026-04-18T09:37:12.999Z</time></trkpt><trkpt lat="44.52415501908229" lon="10.492583237270251"><ele>654.0</ele><time>2026-04-18T09:37:13.999Z</time></trkpt><trkpt lat="44.524152274079235" lon="10.492480404118316"><ele>655.0</ele><time>2026-04-18T09:37:14.999Z</time></trkpt><trkpt lat="44.52412715486416" lon="10.492392595431358"><ele>656.0</ele><time>2026-04-18T09:37:15.999Z</time></trkpt><trkpt lat="44.52408836892549" lon="10.492318083833439"><ele>657.0</ele><time>2026-04-18T09:37:16.999Z</time></trkpt><trkpt lat="44.5240056529777" lon="10.492200144157064"><ele>658.0</ele><time>2026-04-18T09:37:18.999Z</time></trkpt><trkpt lat="44.52395050729418" lon="10.492148176003418"><ele>659.0</ele><time>2026-04-18T09:37:19.999Z</time></trkpt><trkpt lat="44.52386420397053" lon="10.49207020490028"><ele>659.0</ele><time>2026-04-18T09:37:21.999Z</time></trkpt><trkpt lat="44.52397513990738" lon="10.492180181569008"><ele>659.0</ele><time>2026-04-18T09:37:28.999Z</time></trkpt><trkpt lat="44.5240557396483" lon="10.492301942679347"><ele>659.0</ele><time>2026-04-18T09:37:29.999Z</time></trkpt><trkpt lat="44.52412650791944" lon="10.492439077175042"><ele>659.0</ele><time>2026-04-18T09:37:30.999Z</time></trkpt><trkpt lat="44.524146072919976" lon="10.492602735527191"><ele>659.0</ele><time>2026-04-18T09:37:31.999Z</time></trkpt><trkpt lat="44.524117949830945" lon="10.492796227531892"><ele>659.0</ele><time>2026-04-18T09:37:32.999Z</time></trkpt><trkpt lat="44.524057632711134" lon="10.492984389362197"><ele>659.0</ele><time>2026-04-18T09:37:33.999Z</time></trkpt><trkpt lat="44.52399572314454" lon="10.49315230564129"><ele>659.0</ele><time>2026-04-18T09:37:34.999Z</time></trkpt><trkpt lat="44.523946087058" lon="10.49329027577262"><ele>658.0</ele><time>2026-04-18T09:37:35.999Z</time></trkpt><trkpt lat="44.52390583321857" lon="10.49341367345904"><ele>657.0</ele><time>2026-04-18T09:37:36.999Z</time></trkpt><trkpt lat="44.52386365792136" lon="10.493516160602264"><ele>656.0</ele><time>2026-04-18T09:37:37.999Z</time></trkpt><trkpt lat="44.52381706230668" lon="10.493598426848381"><ele>655.0</ele><time>2026-04-18T09:37:38.999Z</time></trkpt><trkpt lat="44.52376711779376" lon="10.493664417529878"><ele>654.0</ele><time>2026-04-18T09:37:39.999Z</time></trkpt><trkpt lat="44.52367359722356" lon="10.493771257051817"><ele>653.0</ele><time>2026-04-18T09:37:41.999Z</time></trkpt><trkpt lat="44.52362221430079" lon="10.493856455696834"><ele>652.0</ele><time>2026-04-18T09:37:43.999Z</time></trkpt><trkpt lat="44.52362653611061" lon="10.49394661662377"><ele>651.0</ele><time>2026-04-18T09:37:45.999Z</time></trkpt><trkpt lat="44.52366159921512" lon="10.49404277025732"><ele>650.0</ele><time>2026-04-18T09:37:48.999Z</time></trkpt><trkpt lat="44.52371828946571" lon="10.494111238037997"><ele>649.0</ele><time>2026-04-18T09:37:59.999Z</time></trkpt><trkpt lat="44.52380704521843" lon="10.494153313785068"><ele>648.0</ele><time>2026-04-18T09:38:02.999Z</time></trkpt><trkpt lat="44.52382603157306" lon="10.494267980299366"><ele>647.0</ele><time>2026-04-18T09:38:05Z</time></trkpt><trkpt lat="44.52375256907633" lon="10.494353550509091"><ele>644.6666666666666</ele><time>2026-04-18T09:38:07Z</time></trkpt><trkpt lat="44.52365915813119" lon="10.494360892982504"><ele>642.3333333333333</ele><time>2026-04-18T09:38:09Z</time></trkpt><trkpt lat="44.523594255432116" lon="10.494308639987324"><ele>640.0</ele><time>2026-04-18T09:38:25Z</time></trkpt><trkpt lat="44.52352255336071" lon="10.494265091674757"><ele>637.6666666666666</ele><time>2026-04-18T09:38:35Z</time></trkpt><trkpt lat="44.52345676913275" lon="10.494225137557828"><ele>635.3333333333334</ele><time>2026-04-18T09:38:38Z</time></trkpt><trkpt lat="44.52337900964864" lon="10.494177910251466"><ele>633.0</ele><time>2026-04-18T09:38:43Z</time></trkpt><trkpt lat="44.523286758668554" lon="10.494121881515802"><ele>633.0</ele><time>2026-04-18T09:38:46Z</time></trkpt><trkpt lat="44.523345619017235" lon="10.493805692818166"><ele>633.0</ele><time>2026-04-18T09:38:47Z</time></trkpt><trkpt lat="44.523292507144326" lon="10.493707004621728"><ele>633.0</ele><time>2026-04-18T09:38:49Z</time></trkpt><trkpt lat="44.523310071679404" lon="10.49359893068132"><ele>633.0</ele><time>2026-04-18T09:38:52Z</time></trkpt><trkpt lat="44.52334678718435" lon="10.493473976456094"><ele>633.4285714285714</ele><time>2026-04-18T09:38:54Z</time></trkpt><trkpt lat="44.52338085215833" lon="10.493390575856129"><ele>633.8571428571429</ele><time>2026-04-18T09:38:55Z</time></trkpt><trkpt lat="44.523407242311876" lon="10.493303977308296"><ele>634.2857142857142</ele><time>2026-04-18T09:38:56Z</time></trkpt><trkpt lat="44.52343889884135" lon="10.493214974617633"><ele>634.7142857142858</ele><time>2026-04-18T09:38:57Z</time></trkpt><trkpt lat="44.52346193222006" lon="10.493120991831326"><ele>635.1428571428572</ele><time>2026-04-18T09:38:58Z</time></trkpt><trkpt lat="44.523484670045214" lon="10.493033638791387"><ele>635.5714285714286</ele><time>2026-04-18T09:38:59Z</time></trkpt><trkpt lat="44.523504793687" lon="10.49294853280939"><ele>636.0</ele><time>2026-04-18T09:39:00Z</time></trkpt><trkpt lat="44.523499632514515" lon="10.492823542891538"><ele>636.0</ele><time>2026-04-18T09:39:02Z</time></trkpt><trkpt lat="44.52340442097372" lon="10.492773767974727"><ele>636.0</ele><time>2026-04-18T09:39:04.999Z</time></trkpt><trkpt lat="44.52332932859106" lon="10.492757860737434"><ele>636.0</ele><time>2026-04-18T09:39:06.999Z</time></trkpt><trkpt lat="44.52324851638078" lon="10.49272715010218"><ele>636.0</ele><time>2026-04-18T09:39:08.999Z</time></trkpt><trkpt lat="44.523161008065486" lon="10.4927191429483"><ele>636.0</ele><time>2026-04-18T09:39:10.999Z</time></trkpt><trkpt lat="44.52308330667811" lon="10.492702287528685"><ele>636.0</ele><time>2026-04-18T09:39:12.999Z</time></trkpt><trkpt lat="44.522992529592756" lon="10.492663603121652"><ele>631.4</ele><time>2026-04-18T09:39:14.999Z</time></trkpt><trkpt lat="44.522891276694764" lon="10.492625312502517"><ele>626.8</ele><time>2026-04-18T09:39:16.999Z</time></trkpt><trkpt lat="44.52280854136889" lon="10.492586662684861"><ele>622.1999999999999</ele><time>2026-04-18T09:39:18.999Z</time></trkpt><trkpt lat="44.522712794580556" lon="10.49250968592284"><ele>617.6</ele><time>2026-04-18T09:39:20.999Z</time></trkpt><trkpt lat="44.52264749081947" lon="10.492451105587987"><ele>613.0</ele><time>2026-04-18T09:39:22.999Z</time></trkpt><trkpt lat="44.52258286839722" lon="10.492406062411005"><ele>613.0</ele><time>2026-04-18T09:39:29.999Z</time></trkpt><trkpt lat="44.52251882562144" lon="10.492358594018512"><ele>613.0</ele><time>2026-04-18T09:39:31.999Z</time></trkpt><trkpt lat="44.522422623756974" lon="10.492292200834617"><ele>613.0</ele><time>2026-04-18T09:39:33.999Z</time></trkpt><trkpt lat="44.522362571255506" lon="10.49223092777344"><ele>613.0</ele><time>2026-04-18T09:39:34.999Z</time></trkpt><trkpt lat="44.52228065098827" lon="10.492132788703184"><ele>613.0</ele><time>2026-04-18T09:39:36.999Z</time></trkpt><trkpt lat="44.52224678715507" lon="10.492047351555696"><ele>613.0</ele><time>2026-04-18T09:39:38.999Z</time></trkpt><trkpt lat="44.522182981301384" lon="10.491998664913229"><ele>614.6</ele><time>2026-04-18T09:39:40.999Z</time></trkpt><trkpt lat="44.522090844431105" lon="10.49197875735741"><ele>616.1999999999999</ele><time>2026-04-18T09:39:42.999Z</time></trkpt><trkpt lat="44.52199198634843" lon="10.49190285675515"><ele>617.8</ele><time>2026-04-18T09:39:44.999Z</time></trkpt><trkpt lat="44.52192512624598" lon="10.491841590789988"><ele>619.4</ele><time>2026-04-18T09:39:46.999Z</time></trkpt><trkpt lat="44.521835347561264" lon="10.491747603099784"><ele>621.0</ele><time>2026-04-18T09:39:48.999Z</time></trkpt><trkpt lat="44.52176169603719" lon="10.49167560926067"><ele>620.9999999999999</ele><time>2026-04-18T09:39:51.999Z</time></trkpt><trkpt lat="44.52170846749708" lon="10.491627650117925"><ele>621.0</ele><time>2026-04-18T09:39:54.999Z</time></trkpt><trkpt lat="44.521632870461026" lon="10.491586698739921"><ele>621.0</ele><time>2026-04-18T09:40:06.999Z</time></trkpt><trkpt lat="44.521583075359146" lon="10.491524267071417"><ele>621.0</ele><time>2026-04-18T09:40:23Z</time></trkpt><trkpt lat="44.52165135985004" lon="10.491528890164886"><ele>621.0</ele><time>2026-04-18T09:42:23Z</time></trkpt><trkpt lat="44.52168685628913" lon="10.49162767517598"><ele>620.9999999999999</ele><time>2026-04-18T09:42:32Z</time></trkpt><trkpt lat="44.52177506533388" lon="10.491641704836466"><ele>621.0</ele><time>2026-04-18T09:42:40Z</time></trkpt><trkpt lat="44.521842147801685" lon="10.491683444271407"><ele>620.9999999999999</ele><time>2026-04-18T09:42:43Z</time></trkpt><trkpt lat="44.5218941222337" lon="10.491737688611037"><ele>621.0</ele><time>2026-04-18T09:42:45Z</time></trkpt><trkpt lat="44.521951894341086" lon="10.491798112875266"><ele>621.0</ele><time>2026-04-18T09:42:47Z</time></trkpt><trkpt lat="44.522013041706096" lon="10.491855436662172"><ele>621.0</ele><time>2026-04-18T09:42:49Z</time></trkpt><trkpt lat="44.52208591109366" lon="10.49190086719677"><ele>621.0</ele><time>2026-04-18T09:42:51Z</time></trkpt><trkpt lat="44.5221492563823" lon="10.491925694089442"><ele>620.9999999999999</ele><time>2026-04-18T09:42:52Z</time></trkpt><trkpt lat="44.522209756116574" lon="10.49197201195205"><ele>621.0</ele><time>2026-04-18T09:42:54Z</time></trkpt><trkpt lat="44.52226773244969" lon="10.492064893081478"><ele>619.6666666666666</ele><time>2026-04-18T09:42:56Z</time></trkpt><trkpt lat="44.522323929335414" lon="10.492129276679526"><ele>618.3333333333334</ele><time>2026-04-18T09:42:58Z</time></trkpt><trkpt lat="44.52239566131942" lon="10.492201485372156"><ele>617.0</ele><time>2026-04-18T09:43:00Z</time></trkpt><trkpt lat="44.52248450067646" lon="10.492285081595973"><ele>615.6666666666667</ele><time>2026-04-18T09:43:02Z</time></trkpt><trkpt lat="44.522554206363374" lon="10.492350898269542"><ele>614.3333333333334</ele><time>2026-04-18T09:43:04Z</time></trkpt><trkpt lat="44.52261110193091" lon="10.49240027280974"><ele>613.0</ele><time>2026-04-18T09:43:08Z</time></trkpt><trkpt lat="44.522672243707134" lon="10.492467220874602"><ele>613.0</ele><time>2026-04-18T09:43:16.999Z</time></trkpt><trkpt lat="44.522763255711936" lon="10.492526295229096"><ele>613.0</ele><time>2026-04-18T09:43:18.999Z</time></trkpt><trkpt lat="44.52282694932755" lon="10.492568481775017"><ele>613.0</ele><time>2026-04-18T09:43:19.999Z</time></trkpt><trkpt lat="44.522924753626086" lon="10.492615509458728"><ele>613.0</ele><time>2026-04-18T09:43:21.999Z</time></trkpt><trkpt lat="44.52302342017772" lon="10.492655783291932"><ele>613.0</ele><time>2026-04-18T09:43:23.999Z</time></trkpt><trkpt lat="44.52312791649123" lon="10.492687110013863"><ele>616.1999999999999</ele><time>2026-04-18T09:43:25.999Z</time></trkpt><trkpt lat="44.52323290369708" lon="10.492716361229997"><ele>619.4</ele><time>2026-04-18T09:43:27.999Z</time></trkpt><trkpt lat="44.523339753659556" lon="10.49275500154543"><ele>622.5999999999999</ele><time>2026-04-18T09:43:29.999Z</time></trkpt><trkpt lat="44.52345864893812" lon="10.492812333520972"><ele>625.8</ele><time>2026-04-18T09:43:31.999Z</time></trkpt><trkpt lat="44.5234963750399" lon="10.492903312630668"><ele>629.0</ele><time>2026-04-18T09:43:33.999Z</time></trkpt><trkpt lat="44.523470189731" lon="10.493060885144917"><ele>629.0</ele><time>2026-04-18T09:43:35.999Z</time></trkpt><trkpt lat="44.52344408055116" lon="10.493159994888243"><ele>629.0</ele><time>2026-04-18T09:43:36.999Z</time></trkpt><trkpt lat="44.52340237413447" lon="10.493319902396536"><ele>629.0</ele><time>2026-04-18T09:43:38.999Z</time></trkpt><trkpt lat="44.52333634550936" lon="10.493485393862297"><ele>629.0</ele><time>2026-04-18T09:43:40.999Z</time></trkpt><trkpt lat="44.52330437439239" lon="10.493574230828523"><ele>629.0</ele><time>2026-04-18T09:43:41.999Z</time></trkpt><trkpt lat="44.52329162844828" lon="10.493669258089225"><ele>629.6666666666666</ele><time>2026-04-18T09:43:43.999Z</time></trkpt><trkpt lat="44.52332889354853" lon="10.493784742782891"><ele>630.3333333333333</ele><time>2026-04-18T09:43:45.999Z</time></trkpt><trkpt lat="44.52340838323135" lon="10.493856641738663"><ele>631.0</ele><time>2026-04-18T09:43:47.999Z</time></trkpt><trkpt lat="44.52349031462834" lon="10.493862304402928"><ele>631.6666666666666</ele><time>2026-04-18T09:43:49.999Z</time></trkpt><trkpt lat="44.52356862296925" lon="10.493848552351356"><ele>632.3333333333334</ele><time>2026-04-18T09:43:51.999Z</time></trkpt><trkpt lat="44.52364326602875" lon="10.49380765238628"><ele>633.0</ele><time>2026-04-18T09:43:53.999Z</time></trkpt><trkpt lat="44.523735124244276" lon="10.493716906368569"><ele>636.5</ele><time>2026-04-18T09:43:55.999Z</time></trkpt><trkpt lat="44.52384806690776" lon="10.493810049066283"><ele>640.0</ele><time>2026-04-18T09:43:56.999Z</time></trkpt><trkpt lat="44.52394813417911" lon="10.493723579353448"><ele>643.5</ele><time>2026-04-18T09:43:58.999Z</time></trkpt><trkpt lat="44.523902535115255" lon="10.493459253264168"><ele>647.0</ele><time>2026-04-18T09:43:59.999Z</time></trkpt><trkpt lat="44.52393997876735" lon="10.493354146195639"><ele>648.2</ele><time>2026-04-18T09:44:00.999Z</time></trkpt><trkpt lat="44.52396581403973" lon="10.493247707207816"><ele>649.4000000000001</ele><time>2026-04-18T09:44:01.999Z</time></trkpt><trkpt lat="44.52400457037961" lon="10.49312954933872"><ele>650.5999999999999</ele><time>2026-04-18T09:44:02.999Z</time></trkpt><trkpt lat="44.5240574148208" lon="10.492954367669196"><ele>651.8</ele><time>2026-04-18T09:44:03.999Z</time></trkpt><trkpt lat="44.52410362974299" lon="10.492806451865933"><ele>653.0</ele><time>2026-04-18T09:44:04.999Z</time></trkpt><trkpt lat="44.524133557393405" lon="10.492676797365071"><ele>654.0</ele><time>2026-04-18T09:44:05.999Z</time></trkpt><trkpt lat="44.52414497276657" lon="10.492550148397068"><ele>655.0</ele><time>2026-04-18T09:44:06.999Z</time></trkpt><trkpt lat="44.524132328613895" lon="10.492441542093554"><ele>656.0</ele><time>2026-04-18T09:44:07.999Z</time></trkpt><trkpt lat="44.524097331299075" lon="10.49233977189889"><ele>657.0</ele><time>2026-04-18T09:44:08.999Z</time></trkpt><trkpt lat="44.524051623574415" lon="10.492267538779732"><ele>658.0</ele><time>2026-04-18T09:44:09.999Z</time></trkpt><trkpt lat="44.52399532374531" lon="10.49220450008918"><ele>659.0</ele><time>2026-04-18T09:44:10.999Z</time></trkpt><trkpt lat="44.523931836018626" lon="10.492136296286402"><ele>659.4000000000001</ele><time>2026-04-18T09:44:11.999Z</time></trkpt><trkpt lat="44.523861553092" lon="10.492072294915978"><ele>659.8</ele><time>2026-04-18T09:44:12.999Z</time></trkpt><trkpt lat="44.523771224810496" lon="10.492014142893959"><ele>660.2</ele><time>2026-04-18T09:44:13.999Z</time></trkpt><trkpt lat="44.52366390618201" lon="10.491982122369972"><ele>660.5999999999999</ele><time>2026-04-18T09:44:14.999Z</time></trkpt><trkpt lat="44.523552728426395" lon="10.49197326581811"><ele>661.0</ele><time>2026-04-18T09:44:15.999Z</time></trkpt><trkpt lat="44.52343876633629" lon="10.491972926484602"><ele>661.0</ele><time>2026-04-18T09:44:16.999Z</time></trkpt><trkpt lat="44.52333678039445" lon="10.491943954569926"><ele>661.0</ele><time>2026-04-18T09:44:17.999Z</time></trkpt><trkpt lat="44.5232467615198" lon="10.491873019638184"><ele>661.0</ele><time>2026-04-18T09:44:18.999Z</time></trkpt><trkpt lat="44.52315632491726" lon="10.491773552375573"><ele>661.0</ele><time>2026-04-18T09:44:19.999Z</time></trkpt><trkpt lat="44.52307122374843" lon="10.49170420508739"><ele>661.0</ele><time>2026-04-18T09:44:21Z</time></trkpt><trkpt lat="44.5229740163428" lon="10.491667041838499"><ele>656.5999999999999</ele><time>2026-04-18T09:44:22Z</time></trkpt><trkpt lat="44.52287377737107" lon="10.491655132121426"><ele>652.1999999999999</ele><time>2026-04-18T09:44:23Z</time></trkpt><trkpt lat="44.5227777813178" lon="10.491653265623125"><ele>647.8</ele><time>2026-04-18T09:44:24Z</time></trkpt><trkpt lat="44.52268629182992" lon="10.49163776528088"><ele>643.4</ele><time>2026-04-18T09:44:25Z</time></trkpt><trkpt lat="44.52260100021447" lon="10.491582466916052"><ele>639.0</ele><time>2026-04-18T09:44:26Z</time></trkpt><trkpt lat="44.522506085637815" lon="10.491555486365403"><ele>639.0</ele><time>2026-04-18T09:44:27Z</time></trkpt><trkpt lat="44.52241551495463" lon="10.49150045427878"><ele>639.0</ele><time>2026-04-18T09:44:28Z</time></trkpt><trkpt lat="44.52233452295194" lon="10.491447758610741"><ele>639.0</ele><time>2026-04-18T09:44:29Z</time></trkpt><trkpt lat="44.52225150459021" lon="10.49138647587893"><ele>639.0</ele><time>2026-04-18T09:44:30Z</time></trkpt><trkpt lat="44.52218180284713" lon="10.491316749564612"><ele>639.0</ele><time>2026-04-18T09:44:31Z</time></trkpt><trkpt lat="44.522154377892356" lon="10.491207120321732"><ele>637.2</ele><time>2026-04-18T09:44:32Z</time></trkpt><trkpt lat="44.522109425153374" lon="10.491095655416421"><ele>635.4</ele><time>2026-04-18T09:44:33Z</time></trkpt><trkpt lat="44.52208379208568" lon="10.490965657968925"><ele>633.6</ele><time>2026-04-18T09:44:34Z</time></trkpt><trkpt lat="44.52204592936114" lon="10.490848816988553"><ele>631.8</ele><time>2026-04-18T09:44:35Z</time></trkpt><trkpt lat="44.52200241351793" lon="10.490730888515163"><ele>630.0</ele><time>2026-04-18T09:44:36Z</time></trkpt><trkpt lat="44.52196473731298" lon="10.490611526637462"><ele>630.0</ele><time>2026-04-18T09:44:37Z</time></trkpt><trkpt lat="44.521924357832695" lon="10.49052382692836"><ele>630.0</ele><time>2026-04-18T09:44:38Z</time></trkpt><trkpt lat="44.52186464187013" lon="10.490459654529188"><ele>630.0</ele><time>2026-04-18T09:44:40Z</time></trkpt><trkpt lat="44.52179244243719" lon="10.490609356927166"><ele>630.0</ele><time>2026-04-18T09:44:43Z</time></trkpt><trkpt lat="44.52174819874194" lon="10.490696372827479"><ele>630.0</ele><time>2026-04-18T09:44:44Z</time></trkpt><trkpt lat="44.52170577012237" lon="10.49080175018339"><ele>630.0</ele><time>2026-04-18T09:44:45Z</time></trkpt><trkpt lat="44.521657323886" lon="10.49093021643953"><ele>630.0</ele><time>2026-04-18T09:44:46Z</time></trkpt><trkpt lat="44.521600478622474" lon="10.491048754470514"><ele>630.0</ele><time>2026-04-18T09:44:47Z</time></trkpt><trkpt lat="44.5215408208184" lon="10.491158481714672"><ele>630.0</ele><time>2026-04-18T09:44:48Z</time></trkpt><trkpt lat="44.52145878179312" lon="10.49124969170347"><ele>630.0</ele><time>2026-04-18T09:44:49Z</time></trkpt><trkpt lat="44.52135811786079" lon="10.491304318823083"><ele>630.0</ele><time>2026-04-18T09:44:50Z</time></trkpt><trkpt lat="44.52123925039347" lon="10.491332957020203"><ele>626.75</ele><time>2026-04-18T09:44:51Z</time></trkpt><trkpt lat="44.52111044663352" lon="10.49136151064006"><ele>623.5</ele><time>2026-04-18T09:44:52Z</time></trkpt><trkpt lat="44.52098872821698" lon="10.491401906201647"><ele>620.25</ele><time>2026-04-18T09:44:53Z</time></trkpt><trkpt lat="44.52087222168191" lon="10.491440520795539"><ele>617.0</ele><time>2026-04-18T09:44:54Z</time></trkpt><trkpt lat="44.52075276798855" lon="10.491473056017448"><ele>617.0</ele><time>2026-04-18T09:44:55Z</time></trkpt><trkpt lat="44.52063063880429" lon="10.491501799206585"><ele>617.0</ele><time>2026-04-18T09:44:56Z</time></trkpt><trkpt lat="44.52050371893956" lon="10.49153443580871"><ele>617.0</ele><time>2026-04-18T09:44:57Z</time></trkpt><trkpt lat="44.520380087886565" lon="10.491560750148228"><ele>617.0</ele><time>2026-04-18T09:44:58Z</time></trkpt><trkpt lat="44.520255633990224" lon="10.491587525914921"><ele>616.25</ele><time>2026-04-18T09:44:59Z</time></trkpt><trkpt lat="44.520129622250046" lon="10.491608241249724"><ele>615.5</ele><time>2026-04-18T09:45:00Z</time></trkpt><trkpt lat="44.52000083502349" lon="10.491616510657185"><ele>614.75</ele><time>2026-04-18T09:45:01Z</time></trkpt><trkpt lat="44.519880852729514" lon="10.491617313340777"><ele>614.0</ele><time>2026-04-18T09:45:02Z</time></trkpt><trkpt lat="44.519762742090286" lon="10.491605273435544"><ele>614.0</ele><time>2026-04-18T09:45:03Z</time></trkpt><trkpt lat="44.51964208158881" lon="10.491592884914715"><ele>614.0</ele><time>2026-04-18T09:45:04Z</time></trkpt><trkpt lat="44.5195270911778" lon="10.491586430948606"><ele>614.0</ele><time>2026-04-18T09:45:05Z</time></trkpt><trkpt lat="44.51942090599885" lon="10.491590977257598"><ele>614.0</ele><time>2026-04-18T09:45:06Z</time></trkpt><trkpt lat="44.51932284402856" lon="10.491602763374575"><ele>614.0</ele><time>2026-04-18T09:45:07Z</time></trkpt><trkpt lat="44.51921653165641" lon="10.491629595837214"><ele>614.75</ele><time>2026-04-18T09:45:07.999Z</time></trkpt><trkpt lat="44.51910785065532" lon="10.49166105174397"><ele>615.5</ele><time>2026-04-18T09:45:08.999Z</time></trkpt><trkpt lat="44.51898974930299" lon="10.491700493062947"><ele>616.25</ele><time>2026-04-18T09:45:09.999Z</time></trkpt><trkpt lat="44.518879990106036" lon="10.491760064463676"><ele>617.0</ele><time>2026-04-18T09:45:10.999Z</time></trkpt><trkpt lat="44.51876891838216" lon="10.491836923710249"><ele>614.25</ele><time>2026-04-18T09:45:11.999Z</time></trkpt><trkpt lat="44.5186527902036" lon="10.491895835458422"><ele>611.5</ele><time>2026-04-18T09:45:12.999Z</time></trkpt><trkpt lat="44.518537874285826" lon="10.491961283812063"><ele>608.75</ele><time>2026-04-18T09:45:13.999Z</time></trkpt><trkpt lat="44.518412171393834" lon="10.492029016337858"><ele>606.0</ele><time>2026-04-18T09:45:14.999Z</time></trkpt><trkpt lat="44.518281413871016" lon="10.492104919942046"><ele>606.0</ele><time>2026-04-18T09:45:15.999Z</time></trkpt><trkpt lat="44.51814757912296" lon="10.492189849493398"><ele>606.0</ele><time>2026-04-18T09:45:16.999Z</time></trkpt><trkpt lat="44.518021968360884" lon="10.49227633477715"><ele>606.0</ele><time>2026-04-18T09:45:17.999Z</time></trkpt><trkpt lat="44.5179025268345" lon="10.492351936444221"><ele>606.0</ele><time>2026-04-18T09:45:18.999Z</time></trkpt><trkpt lat="44.51780013722091" lon="10.492428071539104"><ele>607.5</ele><time>2026-04-18T09:45:19.999Z</time></trkpt><trkpt lat="44.51770085941357" lon="10.49249535771975"><ele>609.0</ele><time>2026-04-18T09:45:20.999Z</time></trkpt><trkpt lat="44.5175911046679" lon="10.492473284704705"><ele>610.5</ele><time>2026-04-18T09:45:21.999Z</time></trkpt><trkpt lat="44.51748515935282" lon="10.49243347620558"><ele>612.0</ele><time>2026-04-18T09:45:22.999Z</time></trkpt><trkpt lat="44.51736896947399" lon="10.492380928021863"><ele>612.0</ele><time>2026-04-18T09:45:23.999Z</time></trkpt><trkpt lat="44.51724654890209" lon="10.492323634471024"><ele>612.0</ele><time>2026-04-18T09:45:24.999Z</time></trkpt><trkpt lat="44.517121884712566" lon="10.492269806893603"><ele>612.0</ele><time>2026-04-18T09:45:25.999Z</time></trkpt><trkpt lat="44.5169918232775" lon="10.492228072579094"><ele>612.0</ele><time>2026-04-18T09:45:26.999Z</time></trkpt><trkpt lat="44.516855618098326" lon="10.492234167081698"><ele>609.25</ele><time>2026-04-18T09:45:27.999Z</time></trkpt><trkpt lat="44.51672382732501" lon="10.492229485228311"><ele>606.5</ele><time>2026-04-18T09:45:28.999Z</time></trkpt><trkpt lat="44.51659231656747" lon="10.492226625658391"><ele>603.75</ele><time>2026-04-18T09:45:29.999Z</time></trkpt><trkpt lat="44.516463783301354" lon="10.492223411254498"><ele>601.0</ele><time>2026-04-18T09:45:30.999Z</time></trkpt><trkpt lat="44.516331333110074" lon="10.49223584092384"><ele>601.0</ele><time>2026-04-18T09:45:31.999Z</time></trkpt><trkpt lat="44.5162056496038" lon="10.492260896136607"><ele>601.0</ele><time>2026-04-18T09:45:32.999Z</time></trkpt><trkpt lat="44.51608679968966" lon="10.492297570752473"><ele>601.0</ele><time>2026-04-18T09:45:33.999Z</time></trkpt><trkpt lat="44.51597438201459" lon="10.492315869582244"><ele>601.0</ele><time>2026-04-18T09:45:34.999Z</time></trkpt><trkpt lat="44.51585421874099" lon="10.492327233158196"><ele>601.0</ele><time>2026-04-18T09:45:35.999Z</time></trkpt><trkpt lat="44.515747226556876" lon="10.492327610904498"><ele>601.0</ele><time>2026-04-18T09:45:36.999Z</time></trkpt><trkpt lat="44.51563853506815" lon="10.492322900363707"><ele>601.0</ele><time>2026-04-18T09:45:37.999Z</time></trkpt><trkpt lat="44.51554001548992" lon="10.492370643846572"><ele>601.0</ele><time>2026-04-18T09:45:38.999Z</time></trkpt><trkpt lat="44.51546575721951" lon="10.492475842239926"><ele>601.0</ele><time>2026-04-18T09:45:39.999Z</time></trkpt><trkpt lat="44.51539411866311" lon="10.492574705081655"><ele>600.75</ele><time>2026-04-18T09:45:40.999Z</time></trkpt><trkpt lat="44.51540120939324" lon="10.492763072712284"><ele>600.5</ele><time>2026-04-18T09:45:41.999Z</time></trkpt><trkpt lat="44.51533164027748" lon="10.492945708626227"><ele>600.25</ele><time>2026-04-18T09:45:42.999Z</time></trkpt><trkpt lat="44.51527006886456" lon="10.492976313095728"><ele>600.0</ele><time>2026-04-18T09:45:43.999Z</time></trkpt><trkpt lat="44.51516462118189" lon="10.493083681012832"><ele>595.75</ele><time>2026-04-18T09:45:44.999Z</time></trkpt><trkpt lat="44.515068556191004" lon="10.493207621130729"><ele>591.5</ele><time>2026-04-18T09:45:45.999Z</time></trkpt><trkpt lat="44.51496473644024" lon="10.49328626917193"><ele>587.25</ele><time>2026-04-18T09:45:46.999Z</time></trkpt><trkpt lat="44.51486790288711" lon="10.49336728498666"><ele>583.0</ele><time>2026-04-18T09:45:47.999Z</time></trkpt><trkpt lat="44.51477169163743" lon="10.493421274971045"><ele>583.0</ele><time>2026-04-18T09:45:48.999Z</time></trkpt><trkpt lat="44.5146665439093" lon="10.493421891372174"><ele>583.0</ele><time>2026-04-18T09:45:49.999Z</time></trkpt><trkpt lat="44.514589773325476" lon="10.493329432437971"><ele>583.0</ele><time>2026-04-18T09:45:50.999Z</time></trkpt><trkpt lat="44.51458800139001" lon="10.493200134780748"><ele>583.0</ele><time>2026-04-18T09:45:51.999Z</time></trkpt><trkpt lat="44.514563609605965" lon="10.493074503887913"><ele>583.0</ele><time>2026-04-18T09:45:52.999Z</time></trkpt><trkpt lat="44.51452633113217" lon="10.49292242102568"><ele>583.0</ele><time>2026-04-18T09:45:53.999Z</time></trkpt><trkpt lat="44.514487466115774" lon="10.492791413876018"><ele>583.0</ele><time>2026-04-18T09:45:54.999Z</time></trkpt><trkpt lat="44.51444302179075" lon="10.492689196301065"><ele>583.0</ele><time>2026-04-18T09:45:55.999Z</time></trkpt><trkpt lat="44.51437578164563" lon="10.49263818432671"><ele>583.0</ele><time>2026-04-18T09:45:56.999Z</time></trkpt><trkpt lat="44.51429889275646" lon="10.49265116332981"><ele>583.0</ele><time>2026-04-18T09:45:57.999Z</time></trkpt><trkpt lat="44.514230700392915" lon="10.492711204746382"><ele>583.0</ele><time>2026-04-18T09:45:58.999Z</time></trkpt><trkpt lat="44.51419611336575" lon="10.492818693653934"><ele>582.1999999999999</ele><time>2026-04-18T09:45:59.999Z</time></trkpt><trkpt lat="44.51417495765367" lon="10.492927263972096"><ele>581.4</ele><time>2026-04-18T09:46:00.999Z</time></trkpt><trkpt lat="44.514154072523084" lon="10.493051078441855"><ele>580.5999999999999</ele><time>2026-04-18T09:46:01.999Z</time></trkpt><trkpt lat="44.51412575640565" lon="10.493192249181163"><ele>579.8</ele><time>2026-04-18T09:46:02.999Z</time></trkpt><trkpt lat="44.51408879568157" lon="10.49333863643639"><ele>579.0</ele><time>2026-04-18T09:46:03.999Z</time></trkpt><trkpt lat="44.51404593995617" lon="10.493496632804545"><ele>579.0</ele><time>2026-04-18T09:46:04.999Z</time></trkpt><trkpt lat="44.51400944023663" lon="10.493649843116794"><ele>579.0</ele><time>2026-04-18T09:46:05.999Z</time></trkpt><trkpt lat="44.513974878977756" lon="10.493795376450658"><ele>579.0</ele><time>2026-04-18T09:46:06.999Z</time></trkpt><trkpt lat="44.51394467240716" lon="10.493923181906318"><ele>579.0</ele><time>2026-04-18T09:46:07.999Z</time></trkpt><trkpt lat="44.51391041456099" lon="10.494046190495942"><ele>579.0</ele><time>2026-04-18T09:46:08.999Z</time></trkpt><trkpt lat="44.513880091086904" lon="10.494180071554783"><ele>575.0</ele><time>2026-04-18T09:46:09.999Z</time></trkpt><trkpt lat="44.51384921045002" lon="10.494324956705176"><ele>571.0</ele><time>2026-04-18T09:46:10.999Z</time></trkpt><trkpt lat="44.51381340539308" lon="10.494478792650785"><ele>567.0</ele><time>2026-04-18T09:46:11.999Z</time></trkpt><trkpt lat="44.51378489382671" lon="10.494638031011016"><ele>563.0</ele><time>2026-04-18T09:46:12.999Z</time></trkpt><trkpt lat="44.513748341724316" lon="10.494787951523945"><ele>564.4</ele><time>2026-04-18T09:46:13.999Z</time></trkpt><trkpt lat="44.513716063988454" lon="10.494932114648217"><ele>565.8</ele><time>2026-04-18T09:46:14.999Z</time></trkpt><trkpt lat="44.51367634017086" lon="10.495077762420154"><ele>567.2</ele><time>2026-04-18T09:46:15.999Z</time></trkpt><trkpt lat="44.51363454155248" lon="10.495213785315316"><ele>568.6</ele><time>2026-04-18T09:46:16.999Z</time></trkpt><trkpt lat="44.51358143641094" lon="10.495339412132443"><ele>570.0</ele><time>2026-04-18T09:46:17.999Z</time></trkpt><trkpt lat="44.51351354085164" lon="10.495446169284197"><ele>570.2</ele><time>2026-04-18T09:46:18.999Z</time></trkpt><trkpt lat="44.51343675769761" lon="10.495533584889941"><ele>570.4</ele><time>2026-04-18T09:46:19.999Z</time></trkpt><trkpt lat="44.51335162064916" lon="10.495603442218044"><ele>570.6</ele><time>2026-04-18T09:46:20.999Z</time></trkpt><trkpt lat="44.51326607126339" lon="10.495664886045585"><ele>570.8</ele><time>2026-04-18T09:46:21.999Z</time></trkpt><trkpt lat="44.51317544352676" lon="10.495713701914193"><ele>571.0</ele><time>2026-04-18T09:46:22.999Z</time></trkpt><trkpt lat="44.51309283617539" lon="10.495730584856465"><ele>571.0</ele><time>2026-04-18T09:46:23.999Z</time></trkpt><trkpt lat="44.51295076315663" lon="10.49560861944096"><ele>571.0</ele><time>2026-04-18T09:46:25.999Z</time></trkpt><trkpt lat="44.51288146881219" lon="10.49551561250512"><ele>571.0</ele><time>2026-04-18T09:46:27Z</time></trkpt><trkpt lat="44.51282672834601" lon="10.495419615863256"><ele>571.0</ele><time>2026-04-18T09:46:28Z</time></trkpt><trkpt lat="44.5127837266681" lon="10.495336059911075"><ele>571.0</ele><time>2026-04-18T09:46:29Z</time></trkpt><trkpt lat="44.5128141564102" lon="10.4951622513839"><ele>570.0</ele><time>2026-04-18T09:46:30Z</time></trkpt><trkpt lat="44.5128006003232" lon="10.495001205663021"><ele>569.0</ele><time>2026-04-18T09:46:31Z</time></trkpt><trkpt lat="44.51280155465731" lon="10.49485600589444"><ele>568.0</ele><time>2026-04-18T09:46:32Z</time></trkpt><trkpt lat="44.512772879312045" lon="10.494720941564273"><ele>567.0</ele><time>2026-04-18T09:46:33Z</time></trkpt><trkpt lat="44.512731362178705" lon="10.494595853759833"><ele>566.0</ele><time>2026-04-18T09:46:34Z</time></trkpt><trkpt lat="44.51270016209446" lon="10.494471495905902"><ele>565.3333333333333</ele><time>2026-04-18T09:46:35Z</time></trkpt><trkpt lat="44.5126593579435" lon="10.494351605640563"><ele>564.6666666666666</ele><time>2026-04-18T09:46:36Z</time></trkpt><trkpt lat="44.5126238964405" lon="10.494246077642847"><ele>564.0</ele><time>2026-04-18T09:46:37Z</time></trkpt><trkpt lat="44.51259451792159" lon="10.494151147721341"><ele>563.3333333333334</ele><time>2026-04-18T09:46:38Z</time></trkpt><trkpt lat="44.5125689726589" lon="10.494067682777276"><ele>562.6666666666667</ele><time>2026-04-18T09:46:39Z</time></trkpt><trkpt lat="44.51252183054552" lon="10.49397560885173"><ele>562.0</ele><time>2026-04-18T09:46:41Z</time></trkpt><trkpt lat="44.51256340767912" lon="10.494126814216756"><ele>562.0</ele><time>2026-04-18T09:46:45Z</time></trkpt><trkpt lat="44.51259934862958" lon="10.494236464194769"><ele>562.0</ele><time>2026-04-18T09:46:46Z</time></trkpt><trkpt lat="44.51259269811886" lon="10.494362550376962"><ele>562.0</ele><time>2026-04-18T09:46:47Z</time></trkpt><trkpt lat="44.512622836347035" lon="10.494464209526033"><ele>562.0</ele><time>2026-04-18T09:46:48Z</time></trkpt><trkpt lat="44.51265976825307" lon="10.494564647819269"><ele>562.0</ele><time>2026-04-18T09:46:49Z</time></trkpt><trkpt lat="44.512702991399586" lon="10.494671723479694"><ele>562.0</ele><time>2026-04-18T09:46:50Z</time></trkpt><trkpt lat="44.51273927472247" lon="10.494785493437405"><ele>562.6666666666667</ele><time>2026-04-18T09:46:51Z</time></trkpt><trkpt lat="44.51275242051483" lon="10.49489755888428"><ele>563.3333333333334</ele><time>2026-04-18T09:46:52Z</time></trkpt><trkpt lat="44.51273721352151" lon="10.49499375819195"><ele>564.0</ele><time>2026-04-18T09:46:53Z</time></trkpt><trkpt lat="44.51271090314239" lon="10.495149871148092"><ele>564.6666666666666</ele><time>2026-04-18T09:46:55Z</time></trkpt><trkpt lat="44.51267039982381" lon="10.49524720181383"><ele>565.3333333333333</ele><time>2026-04-18T09:46:58Z</time></trkpt><trkpt lat="44.51259599271324" lon="10.495345355649627"><ele>566.0</ele><time>2026-04-18T09:47:00Z</time></trkpt><trkpt lat="44.512550390868455" lon="10.495424578597062"><ele>566.5</ele><time>2026-04-18T09:47:01Z</time></trkpt><trkpt lat="44.51248277910012" lon="10.495491593191185"><ele>567.0</ele><time>2026-04-18T09:47:02Z</time></trkpt><trkpt lat="44.51240714632618" lon="10.49554896216452"><ele>567.5</ele><time>2026-04-18T09:47:03Z</time></trkpt><trkpt lat="44.51233184327396" lon="10.4956126513067"><ele>568.0</ele><time>2026-04-18T09:47:03.999Z</time></trkpt><trkpt lat="44.51225724963379" lon="10.495674155992157"><ele>568.5</ele><time>2026-04-18T09:47:04.999Z</time></trkpt><trkpt lat="44.51218979091994" lon="10.495733935969874"><ele>569.0</ele><time>2026-04-18T09:47:05.999Z</time></trkpt><trkpt lat="44.512116359910905" lon="10.495758553909178"><ele>568.6666666666666</ele><time>2026-04-18T09:47:06.999Z</time></trkpt><trkpt lat="44.5120361973427" lon="10.495807504248143"><ele>568.3333333333333</ele><time>2026-04-18T09:47:07.999Z</time></trkpt><trkpt lat="44.51196044586663" lon="10.495853868724042"><ele>568.0</ele><time>2026-04-18T09:47:08.999Z</time></trkpt><trkpt lat="44.51189408137396" lon="10.495904733225636"><ele>567.6666666666666</ele><time>2026-04-18T09:47:09.999Z</time></trkpt><trkpt lat="44.51183269804013" lon="10.495884839870879"><ele>567.3333333333334</ele><time>2026-04-18T09:47:10.999Z</time></trkpt><trkpt lat="44.5117597057138" lon="10.495766878549992"><ele>567.0</ele><time>2026-04-18T09:47:12.999Z</time></trkpt><trkpt lat="44.5117055626314" lon="10.495669071622439"><ele>567.0</ele><time>2026-04-18T09:47:14.999Z</time></trkpt><trkpt lat="44.51156738366478" lon="10.495679338490529"><ele>567.0</ele><time>2026-04-18T09:47:16.999Z</time></trkpt><trkpt lat="44.51144844248332" lon="10.495669406092947"><ele>567.0</ele><time>2026-04-18T09:47:18.999Z</time></trkpt><trkpt lat="44.51137141939683" lon="10.49573956892746"><ele>567.0</ele><time>2026-04-18T09:47:20.999Z</time></trkpt><trkpt lat="44.51137170228029" lon="10.495883685501942"><ele>567.0</ele><time>2026-04-18T09:47:22.999Z</time></trkpt><trkpt lat="44.51136968646594" lon="10.496026891970912"><ele>567.0</ele><time>2026-04-18T09:47:24.999Z</time></trkpt><trkpt lat="44.51119766279869" lon="10.496046633033401"><ele>567.0</ele><time>2026-04-18T09:47:28.999Z</time></trkpt><trkpt lat="44.51111786125011" lon="10.496055818336252"><ele>567.0</ele><time>2026-04-18T09:47:31.999Z</time></trkpt><trkpt lat="44.511090113782075" lon="10.495837478403843"><ele>566.3333333333334</ele><time>2026-04-18T09:47:32.999Z</time></trkpt><trkpt lat="44.511094561901906" lon="10.495688093123865"><ele>565.6666666666666</ele><time>2026-04-18T09:47:33.999Z</time></trkpt><trkpt lat="44.51110382916265" lon="10.495563673600136"><ele>565.0</ele><time>2026-04-18T09:47:34.999Z</time></trkpt><trkpt lat="44.51111624653051" lon="10.495423738719836"><ele>564.3333333333333</ele><time>2026-04-18T09:47:36.999Z</time></trkpt><trkpt lat="44.5110903083078" lon="10.495326096171755"><ele>563.6666666666666</ele><time>2026-04-18T09:47:39.999Z</time></trkpt><trkpt lat="44.511091993378514" lon="10.4954311248992"><ele>563.0</ele><time>2026-04-18T09:47:42.999Z</time></trkpt><trkpt lat="44.51108972147378" lon="10.4955256032281"><ele>563.0</ele><time>2026-04-18T09:47:43.999Z</time></trkpt><trkpt lat="44.511177066237714" lon="10.495196399064309"><ele>563.0</ele><time>2026-04-18T09:47:44.999Z</time></trkpt><trkpt lat="44.51110541859599" lon="10.495766247197134"><ele>563.0</ele><time>2026-04-18T09:47:45.999Z</time></trkpt><trkpt lat="44.51111277204792" lon="10.49594212347172"><ele>563.0</ele><time>2026-04-18T09:47:47.999Z</time></trkpt><trkpt lat="44.51112853351954" lon="10.496033326725158"><ele>563.0</ele><time>2026-04-18T09:47:48.999Z</time></trkpt><trkpt lat="44.51114672547217" lon="10.496125101650465"><ele>563.0</ele><time>2026-04-18T09:47:49.999Z</time></trkpt><trkpt lat="44.51118882455726" lon="10.496276733740972"><ele>563.0</ele><time>2026-04-18T09:47:51.999Z</time></trkpt><trkpt lat="44.51129363899453" lon="10.496386819266554"><ele>564.0</ele><time>2026-04-18T09:47:53.999Z</time></trkpt><trkpt lat="44.5113613680877" lon="10.496414249886891"><ele>565.0</ele><time>2026-04-18T09:47:54.999Z</time></trkpt><trkpt lat="44.51144034940824" lon="10.49643949975541"><ele>566.0</ele><time>2026-04-18T09:47:55.999Z</time></trkpt><trkpt lat="44.51157176230115" lon="10.496494969282384"><ele>567.0</ele><time>2026-04-18T09:47:57.999Z</time></trkpt><trkpt lat="44.511635454666504" lon="10.496520245300887"><ele>568.0</ele><time>2026-04-18T09:47:58.999Z</time></trkpt><trkpt lat="44.51171779847646" lon="10.49655114830222"><ele>569.0</ele><time>2026-04-18T09:48:00.999Z</time></trkpt><trkpt lat="44.51172399449188" lon="10.496692814801056"><ele>569.0</ele><time>2026-04-18T09:48:03.999Z</time></trkpt><trkpt lat="44.51167018014304" lon="10.496802820634361"><ele>569.0</ele><time>2026-04-18T09:48:05.999Z</time></trkpt><trkpt lat="44.5116408890021" lon="10.496907393125417"><ele>569.0</ele><time>2026-04-18T09:48:07.999Z</time></trkpt><trkpt lat="44.511612697730364" lon="10.497005014701353"><ele>569.0</ele><time>2026-04-18T09:48:09.999Z</time></trkpt><trkpt lat="44.511579099863106" lon="10.497094270242327"><ele>569.0</ele><time>2026-04-18T09:48:11.999Z</time></trkpt><trkpt lat="44.511545299097044" lon="10.497169326317842"><ele>569.0</ele><time>2026-04-18T09:48:13.999Z</time></trkpt><trkpt lat="44.51150383060533" lon="10.497283536164884"><ele>569.8333333333333</ele><time>2026-04-18T09:48:16.999Z</time></trkpt><trkpt lat="44.51148167182136" lon="10.497385748329048"><ele>570.6666666666666</ele><time>2026-04-18T09:48:19.999Z</time></trkpt><trkpt lat="44.5114480257643" lon="10.497488545979737"><ele>571.5</ele><time>2026-04-18T09:48:22.999Z</time></trkpt><trkpt lat="44.51141159570679" lon="10.49758703599995"><ele>572.3333333333334</ele><time>2026-04-18T09:48:25.999Z</time></trkpt><trkpt lat="44.511382272116506" lon="10.497677184693172"><ele>573.1666666666667</ele><time>2026-04-18T09:48:28.999Z</time></trkpt><trkpt lat="44.51134506246556" lon="10.497785134942722"><ele>574.0</ele><time>2026-04-18T09:48:31.999Z</time></trkpt><trkpt lat="44.51129674408997" lon="10.497883763207135"><ele>574.0</ele><time>2026-04-18T09:48:34Z</time></trkpt><trkpt lat="44.51125637124667" lon="10.498000238304618"><ele>574.0</ele><time>2026-04-18T09:48:36Z</time></trkpt><trkpt lat="44.511222115160976" lon="10.498099066677323"><ele>574.0</ele><time>2026-04-18T09:48:38Z</time></trkpt><trkpt lat="44.5111873554156" lon="10.498199348166672"><ele>574.0</ele><time>2026-04-18T09:48:40Z</time></trkpt><trkpt lat="44.51115367481725" lon="10.498296516333367"><ele>574.0</ele><time>2026-04-18T09:48:42Z</time></trkpt><trkpt lat="44.511113258588416" lon="10.49837582330114"><ele>574.0</ele><time>2026-04-18T09:48:44Z</time></trkpt><trkpt lat="44.51103320844653" lon="10.49839141464665"><ele>574.0</ele><time>2026-04-18T09:48:46Z</time></trkpt><trkpt lat="44.51097145720219" lon="10.498365377322827"><ele>574.0</ele><time>2026-04-18T09:48:48Z</time></trkpt><trkpt lat="44.510941227969994" lon="10.498258443001559"><ele>574.0</ele><time>2026-04-18T09:49:03Z</time></trkpt><trkpt lat="44.51095252466104" lon="10.498082107835636"><ele>574.0</ele><time>2026-04-18T09:49:04.999Z</time></trkpt><trkpt lat="44.51096919871441" lon="10.497980868633617"><ele>574.0</ele><time>2026-04-18T09:49:05.999Z</time></trkpt><trkpt lat="44.51098527792527" lon="10.497870247441982"><ele>574.0</ele><time>2026-04-18T09:49:06.999Z</time></trkpt><trkpt lat="44.510999802208765" lon="10.497762844958894"><ele>573.4285714285714</ele><time>2026-04-18T09:49:07.999Z</time></trkpt><trkpt lat="44.5110140827794" lon="10.497665020928643"><ele>572.8571428571429</ele><time>2026-04-18T09:49:08.999Z</time></trkpt><trkpt lat="44.51101930409729" lon="10.497571598545267"><ele>572.2857142857142</ele><time>2026-04-18T09:49:09.999Z</time></trkpt><trkpt lat="44.51102123322686" lon="10.497479717332043"><ele>571.7142857142858</ele><time>2026-04-18T09:49:10.999Z</time></trkpt><trkpt lat="44.51101075753784" lon="10.497382493248448"><ele>571.1428571428571</ele><time>2026-04-18T09:49:11.999Z</time></trkpt><trkpt lat="44.51098840338481" lon="10.497290208747183"><ele>570.5714285714286</ele><time>2026-04-18T09:49:12.999Z</time></trkpt><trkpt lat="44.51095447975937" lon="10.497207088153942"><ele>570.0</ele><time>2026-04-18T09:49:13.999Z</time></trkpt><trkpt lat="44.510918788136316" lon="10.4971245765435"><ele>569.0</ele><time>2026-04-18T09:49:14.999Z</time></trkpt><trkpt lat="44.51081340921297" lon="10.497010497481675"><ele>568.0</ele><time>2026-04-18T09:49:16.999Z</time></trkpt><trkpt lat="44.51074300855719" lon="10.496975012679272"><ele>567.0</ele><time>2026-04-18T09:49:17.999Z</time></trkpt><trkpt lat="44.51067681050601" lon="10.496929461878818"><ele>566.0</ele><time>2026-04-18T09:49:18.999Z</time></trkpt><trkpt lat="44.51061556586026" lon="10.496893795520984"><ele>565.0</ele><time>2026-04-18T09:49:19.999Z</time></trkpt><trkpt lat="44.510554251936426" lon="10.496860366504878"><ele>564.0</ele><time>2026-04-18T09:49:20.999Z</time></trkpt><trkpt lat="44.51049049272927" lon="10.49682807263522"><ele>564.0</ele><time>2026-04-18T09:49:21.999Z</time></trkpt><trkpt lat="44.51042236315346" lon="10.496799479371626"><ele>564.0</ele><time>2026-04-18T09:49:22.999Z</time></trkpt><trkpt lat="44.510355483843846" lon="10.496770002776023"><ele>564.0</ele><time>2026-04-18T09:49:23.999Z</time></trkpt><trkpt lat="44.51028103701783" lon="10.496727472486205"><ele>564.0</ele><time>2026-04-18T09:49:24.999Z</time></trkpt><trkpt lat="44.51019631671354" lon="10.496684127735298"><ele>564.0</ele><time>2026-04-18T09:49:25.999Z</time></trkpt><trkpt lat="44.51010643087422" lon="10.496626249675293"><ele>564.0</ele><time>2026-04-18T09:49:26.999Z</time></trkpt><trkpt lat="44.51001670612374" lon="10.496618529921626"><ele>563.6</ele><time>2026-04-18T09:49:29.999Z</time></trkpt><trkpt lat="44.50993622841281" lon="10.496775612904491"><ele>563.2</ele><time>2026-04-18T09:49:30.999Z</time></trkpt><trkpt lat="44.50985864356873" lon="10.496855743401309"><ele>562.8000000000001</ele><time>2026-04-18T09:49:31.999Z</time></trkpt><trkpt lat="44.50978822421764" lon="10.49695446481608"><ele>562.4</ele><time>2026-04-18T09:49:32.999Z</time></trkpt><trkpt lat="44.50971834980205" lon="10.497072005448004"><ele>562.0</ele><time>2026-04-18T09:49:33.999Z</time></trkpt><trkpt lat="44.509661934822326" lon="10.497206941554587"><ele>562.0</ele><time>2026-04-18T09:49:34.999Z</time></trkpt><trkpt lat="44.50960247447884" lon="10.497339617501606"><ele>562.0</ele><time>2026-04-18T09:49:35.999Z</time></trkpt><trkpt lat="44.5095534578466" lon="10.497451425497525"><ele>562.0</ele><time>2026-04-18T09:49:36.999Z</time></trkpt><trkpt lat="44.509506470534596" lon="10.497555257971271"><ele>562.0</ele><time>2026-04-18T09:49:37.999Z</time></trkpt><trkpt lat="44.50946164215966" lon="10.497655887532963"><ele>562.0</ele><time>2026-04-18T09:49:38.999Z</time></trkpt><trkpt lat="44.509432034539635" lon="10.497753703650591"><ele>560.5</ele><time>2026-04-18T09:49:39.999Z</time></trkpt><trkpt lat="44.509355688388595" lon="10.49784800382008"><ele>559.0</ele><time>2026-04-18T09:49:41.999Z</time></trkpt><trkpt lat="44.50929179731012" lon="10.497846815599804"><ele>557.5</ele><time>2026-04-18T09:49:42.999Z</time></trkpt><trkpt lat="44.509224003854406" lon="10.497795207501124"><ele>556.0</ele><time>2026-04-18T09:49:43.999Z</time></trkpt><trkpt lat="44.50915214895776" lon="10.497723272400991"><ele>554.5</ele><time>2026-04-18T09:49:44.999Z</time></trkpt><trkpt lat="44.509069682159804" lon="10.497657934889116"><ele>553.0</ele><time>2026-04-18T09:49:45.999Z</time></trkpt><trkpt lat="44.50897317898372" lon="10.497589543829006"><ele>553.0</ele><time>2026-04-18T09:49:46.999Z</time></trkpt><trkpt lat="44.50888128595075" lon="10.497529663236527"><ele>553.0</ele><time>2026-04-18T09:49:47.999Z</time></trkpt><trkpt lat="44.5087976010179" lon="10.497487019044001"><ele>553.0</ele><time>2026-04-18T09:49:48.999Z</time></trkpt><trkpt lat="44.50871254464167" lon="10.497459260462293"><ele>553.0</ele><time>2026-04-18T09:49:49.999Z</time></trkpt><trkpt lat="44.50862793096649" lon="10.497444693870152"><ele>553.0</ele><time>2026-04-18T09:49:50.999Z</time></trkpt><trkpt lat="44.508526592402326" lon="10.49744849162093"><ele>551.8</ele><time>2026-04-18T09:49:51.999Z</time></trkpt><trkpt lat="44.50843225543174" lon="10.497496156125603"><ele>550.5999999999999</ele><time>2026-04-18T09:49:52.999Z</time></trkpt><trkpt lat="44.50834308378621" lon="10.497595101317392"><ele>549.4000000000001</ele><time>2026-04-18T09:49:53.999Z</time></trkpt><trkpt lat="44.508258239521645" lon="10.497652577938151"><ele>548.2</ele><time>2026-04-18T09:49:54.999Z</time></trkpt><trkpt lat="44.50816923319396" lon="10.497667143676534"><ele>547.0</ele><time>2026-04-18T09:49:55.999Z</time></trkpt><trkpt lat="44.508090645951754" lon="10.497644047109235"><ele>547.0</ele><time>2026-04-18T09:49:56.999Z</time></trkpt><trkpt lat="44.50795823923336" lon="10.497803499284991"><ele>547.0</ele><time>2026-04-18T09:49:58.999Z</time></trkpt><trkpt lat="44.50790372725495" lon="10.49791246757986"><ele>547.0</ele><time>2026-04-18T09:49:59.999Z</time></trkpt><trkpt lat="44.5078371398052" lon="10.498017540709151"><ele>547.0</ele><time>2026-04-18T09:50:00.999Z</time></trkpt><trkpt lat="44.50778706176788" lon="10.49812234511965"><ele>548.4</ele><time>2026-04-18T09:50:01.999Z</time></trkpt><trkpt lat="44.50772621175689" lon="10.498250713468394"><ele>549.8000000000001</ele><time>2026-04-18T09:50:02.999Z</time></trkpt><trkpt lat="44.507664371131966" lon="10.498363152464051"><ele>551.2</ele><time>2026-04-18T09:50:03.999Z</time></trkpt><trkpt lat="44.50760863619919" lon="10.498449763547882"><ele>552.6</ele><time>2026-04-18T09:50:04.999Z</time></trkpt><trkpt lat="44.50752867589745" lon="10.498560502756765"><ele>554.0</ele><time>2026-04-18T09:50:06.999Z</time></trkpt><trkpt lat="44.507484716540134" lon="10.498650660880408"><ele>554.1666666666666</ele><time>2026-04-18T09:50:08.999Z</time></trkpt><trkpt lat="44.50748787009757" lon="10.498765889771349"><ele>554.3333333333333</ele><time>2026-04-18T09:50:10.999Z</time></trkpt><trkpt lat="44.507531530978" lon="10.498832865047234"><ele>554.5</ele><time>2026-04-18T09:50:11.999Z</time></trkpt><trkpt lat="44.507611244875285" lon="10.498880477821197"><ele>554.6666666666666</ele><time>2026-04-18T09:50:12.999Z</time></trkpt><trkpt lat="44.50769200178488" lon="10.498896481459873"><ele>554.8333333333334</ele><time>2026-04-18T09:50:13.999Z</time></trkpt><trkpt lat="44.507789316670184" lon="10.498887233307444"><ele>555.0</ele><time>2026-04-18T09:50:14.999Z</time></trkpt><trkpt lat="44.50791104612398" lon="10.498848628295889"><ele>555.0</ele><time>2026-04-18T09:50:15.999Z</time></trkpt><trkpt lat="44.50801630061518" lon="10.498821572263157"><ele>555.0</ele><time>2026-04-18T09:50:16.999Z</time></trkpt><trkpt lat="44.50810680671653" lon="10.498798841449537"><ele>555.0</ele><time>2026-04-18T09:50:17.999Z</time></trkpt><trkpt lat="44.508190981770014" lon="10.498773529439932"><ele>555.0</ele><time>2026-04-18T09:50:18.999Z</time></trkpt><trkpt lat="44.50826272883406" lon="10.498745872472233"><ele>555.0</ele><time>2026-04-18T09:50:19.999Z</time></trkpt><trkpt lat="44.50832944817737" lon="10.498724608824942"><ele>555.0</ele><time>2026-04-18T09:50:20.999Z</time></trkpt><trkpt lat="44.50842964323354" lon="10.498739229921144"><ele>555.0</ele><time>2026-04-18T09:50:22.999Z</time></trkpt><trkpt lat="44.50843905759149" lon="10.498916841222561"><ele>555.0</ele><time>2026-04-18T09:50:24.999Z</time></trkpt><trkpt lat="44.508411844237656" lon="10.499013465388577"><ele>555.0</ele><time>2026-04-18T09:50:25.999Z</time></trkpt><trkpt lat="44.50838891741701" lon="10.499122332582001"><ele>555.0</ele><time>2026-04-18T09:50:26.999Z</time></trkpt><trkpt lat="44.50836753722327" lon="10.499234408068462"><ele>555.0</ele><time>2026-04-18T09:50:27.999Z</time></trkpt><trkpt lat="44.508347788584544" lon="10.499337781465197"><ele>555.0</ele><time>2026-04-18T09:50:28.999Z</time></trkpt><trkpt lat="44.508329471585476" lon="10.499441379886171"><ele>555.0</ele><time>2026-04-18T09:50:29.999Z</time></trkpt><trkpt lat="44.50831209630582" lon="10.499560078746022"><ele>555.0</ele><time>2026-04-18T09:50:30.999Z</time></trkpt><trkpt lat="44.50829306903723" lon="10.49969225514872"><ele>555.0</ele><time>2026-04-18T09:50:31.999Z</time></trkpt><trkpt lat="44.50827208066905" lon="10.499824897869702"><ele>555.0</ele><time>2026-04-18T09:50:32.999Z</time></trkpt><trkpt lat="44.50827596986554" lon="10.499954747261777"><ele>555.0</ele><time>2026-04-18T09:50:33.999Z</time></trkpt><trkpt lat="44.50827036232175" lon="10.500101743232136"><ele>555.25</ele><time>2026-04-18T09:50:34.999Z</time></trkpt><trkpt lat="44.50825920903744" lon="10.50024974089961"><ele>555.5</ele><time>2026-04-18T09:50:35.999Z</time></trkpt><trkpt lat="44.508239209588204" lon="10.500413090854568"><ele>555.75</ele><time>2026-04-18T09:50:36.999Z</time></trkpt><trkpt lat="44.50821039977609" lon="10.500569583198224"><ele>556.0</ele><time>2026-04-18T09:50:37.999Z</time></trkpt><trkpt lat="44.50817033356984" lon="10.500729733749173"><ele>556.6</ele><time>2026-04-18T09:50:39Z</time></trkpt><trkpt lat="44.50813159274442" lon="10.500882704605068"><ele>557.2</ele><time>2026-04-18T09:50:40Z</time></trkpt><trkpt lat="44.508086905901386" lon="10.501021027593334"><ele>557.8</ele><time>2026-04-18T09:50:41Z</time></trkpt><trkpt lat="44.50806673243624" lon="10.501164677717002"><ele>558.4</ele><time>2026-04-18T09:50:42Z</time></trkpt><trkpt lat="44.5080256405043" lon="10.501295484331834"><ele>559.0</ele><time>2026-04-18T09:50:43Z</time></trkpt><trkpt lat="44.50799801193264" lon="10.501415665895134"><ele>559.4</ele><time>2026-04-18T09:50:44Z</time></trkpt><trkpt lat="44.50797409628063" lon="10.5015103639499"><ele>559.8</ele><time>2026-04-18T09:50:45Z</time></trkpt><trkpt lat="44.50793004630288" lon="10.501638516563869"><ele>560.2</ele><time>2026-04-18T09:50:47Z</time></trkpt><trkpt lat="44.507814174289244" lon="10.501646198395711"><ele>560.6</ele><time>2026-04-18T09:50:50Z</time></trkpt><trkpt lat="44.50773039818621" lon="10.501605501465885"><ele>561.0</ele><time>2026-04-18T09:50:51Z</time></trkpt><trkpt lat="44.50762366970485" lon="10.501571755842525"><ele>560.5</ele><time>2026-04-18T09:50:52Z</time></trkpt><trkpt lat="44.50749918138665" lon="10.501548390581416"><ele>560.0</ele><time>2026-04-18T09:50:53Z</time></trkpt><trkpt lat="44.5073576034186" lon="10.501514351018633"><ele>559.5</ele><time>2026-04-18T09:50:54Z</time></trkpt><trkpt lat="44.507200827752726" lon="10.501462427520135"><ele>559.0</ele><time>2026-04-18T09:50:55Z</time></trkpt><trkpt lat="44.507039554966326" lon="10.501412263732897"><ele>559.0</ele><time>2026-04-18T09:50:56Z</time></trkpt><trkpt lat="44.506874754496536" lon="10.501373917916881"><ele>559.0</ele><time>2026-04-18T09:50:57Z</time></trkpt><trkpt lat="44.50668842578828" lon="10.501357065778846"><ele>559.0</ele><time>2026-04-18T09:50:58Z</time></trkpt><trkpt lat="44.506502611965686" lon="10.501378842000895"><ele>559.0</ele><time>2026-04-18T09:50:59Z</time></trkpt><trkpt lat="44.50630989602497" lon="10.501413434844036"><ele>559.0</ele><time>2026-04-18T09:51:00Z</time></trkpt><trkpt lat="44.50610336296565" lon="10.501469998683193"><ele>559.0</ele><time>2026-04-18T09:51:01Z</time></trkpt><trkpt lat="44.50590700902133" lon="10.501510194694045"><ele>561.6666666666667</ele><time>2026-04-18T09:51:02Z</time></trkpt><trkpt lat="44.5057461804295" lon="10.501564000755087"><ele>564.3333333333334</ele><time>2026-04-18T09:51:03Z</time></trkpt><trkpt lat="44.50560360570636" lon="10.501616641020165"><ele>567.0</ele><time>2026-04-18T09:51:04Z</time></trkpt><trkpt lat="44.50546787689697" lon="10.501651414379902"><ele>568.25</ele><time>2026-04-18T09:51:05Z</time></trkpt><trkpt lat="44.50532848843367" lon="10.501677320475249"><ele>569.5</ele><time>2026-04-18T09:51:06Z</time></trkpt><trkpt lat="44.50519150522123" lon="10.501693165219843"><ele>570.75</ele><time>2026-04-18T09:51:07Z</time></trkpt><trkpt lat="44.505064923394144" lon="10.501669287453751"><ele>572.0</ele><time>2026-04-18T09:51:08Z</time></trkpt><trkpt lat="44.504910651157246" lon="10.501631653774703"><ele>572.0</ele><time>2026-04-18T09:51:09Z</time></trkpt><trkpt lat="44.504757802027044" lon="10.501580599476487"><ele>572.0</ele><time>2026-04-18T09:51:10Z</time></trkpt><trkpt lat="44.50458848420924" lon="10.501532852684948"><ele>572.0</ele><time>2026-04-18T09:51:11Z</time></trkpt><trkpt lat="44.504424505581106" lon="10.501495964239334"><ele>573.4</ele><time>2026-04-18T09:51:11.999Z</time></trkpt><trkpt lat="44.50428850499294" lon="10.501468858902172"><ele>574.8000000000001</ele><time>2026-04-18T09:51:12.999Z</time></trkpt><trkpt lat="44.50417044184494" lon="10.501441231977978"><ele>576.2</ele><time>2026-04-18T09:51:13.999Z</time></trkpt><trkpt lat="44.504074497427666" lon="10.501431666965942"><ele>577.6</ele><time>2026-04-18T09:51:14.999Z</time></trkpt><trkpt lat="44.50400983855088" lon="10.501435821902389"><ele>579.0</ele><time>2026-04-18T09:51:15.999Z</time></trkpt><trkpt lat="44.503927922862935" lon="10.501410787572866"><ele>578.9999999999999</ele><time>2026-04-18T09:51:17.999Z</time></trkpt><trkpt lat="44.50386038443975" lon="10.50141426046961"><ele>579.0</ele><time>2026-04-18T09:51:20.999Z</time></trkpt><trkpt lat="44.503787826602704" lon="10.501453755763405"><ele>579.0</ele><time>2026-04-18T09:51:23.999Z</time></trkpt><trkpt lat="44.50372028544245" lon="10.501549540282207"><ele>579.0</ele><time>2026-04-18T09:51:25.999Z</time></trkpt><trkpt lat="44.50368321876442" lon="10.501626583530074"><ele>579.0</ele><time>2026-04-18T09:51:26.999Z</time></trkpt><trkpt lat="44.50365054670673" lon="10.501708356024672"><ele>578.9999999999999</ele><time>2026-04-18T09:51:27.999Z</time></trkpt><trkpt lat="44.503617433824445" lon="10.501794011674361"><ele>579.0</ele><time>2026-04-18T09:51:28.999Z</time></trkpt><trkpt lat="44.50357881315138" lon="10.501876530882"><ele>580.7142857142857</ele><time>2026-04-18T09:51:29.999Z</time></trkpt><trkpt lat="44.50353207295045" lon="10.50195277184741"><ele>582.4285714285714</ele><time>2026-04-18T09:51:30.999Z</time></trkpt><trkpt lat="44.50348403150707" lon="10.502019346604875"><ele>584.1428571428571</ele><time>2026-04-18T09:51:31.999Z</time></trkpt><trkpt lat="44.5034213232557" lon="10.502049428858678"><ele>585.8571428571429</ele><time>2026-04-18T09:51:32.999Z</time></trkpt><trkpt lat="44.50335292162306" lon="10.50204843214726"><ele>587.5714285714286</ele><time>2026-04-18T09:51:33.999Z</time></trkpt><trkpt lat="44.503273887761935" lon="10.502020830480728"><ele>589.2857142857142</ele><time>2026-04-18T09:51:34.999Z</time></trkpt><trkpt lat="44.50319544678616" lon="10.50197628781983"><ele>591.0</ele><time>2026-04-18T09:51:35.999Z</time></trkpt><trkpt lat="44.50310339219043" lon="10.50192818525209"><ele>591.0</ele><time>2026-04-18T09:51:36.999Z</time></trkpt><trkpt lat="44.5029971029615" lon="10.501885262845267"><ele>591.0</ele><time>2026-04-18T09:51:37.999Z</time></trkpt><trkpt lat="44.50289036130603" lon="10.501865780996319"><ele>591.0</ele><time>2026-04-18T09:51:38.999Z</time></trkpt><trkpt lat="44.502793198993096" lon="10.501863820698189"><ele>591.0</ele><time>2026-04-18T09:51:39.999Z</time></trkpt><trkpt lat="44.50270138615233" lon="10.501860842933038"><ele>591.0</ele><time>2026-04-18T09:51:40.999Z</time></trkpt><trkpt lat="44.502606346052694" lon="10.501853184475856"><ele>593.2</ele><time>2026-04-18T09:51:41.999Z</time></trkpt><trkpt lat="44.50251336537804" lon="10.501834094685725"><ele>595.4000000000001</ele><time>2026-04-18T09:51:42.999Z</time></trkpt><trkpt lat="44.50241342286244" lon="10.501822287037877"><ele>597.6</ele><time>2026-04-18T09:51:43.999Z</time></trkpt><trkpt lat="44.502305112121064" lon="10.501817987113276"><ele>599.8000000000001</ele><time>2026-04-18T09:51:44.999Z</time></trkpt><trkpt lat="44.50218757713408" lon="10.501796025138965"><ele>602.0</ele><time>2026-04-18T09:51:45.999Z</time></trkpt><trkpt lat="44.502065163498706" lon="10.501769800696572"><ele>603.0</ele><time>2026-04-18T09:51:46.999Z</time></trkpt><trkpt lat="44.50194114900851" lon="10.50174598387379"><ele>604.0</ele><time>2026-04-18T09:51:47.999Z</time></trkpt><trkpt lat="44.50180690732599" lon="10.50172531467881"><ele>605.0</ele><time>2026-04-18T09:51:48.999Z</time></trkpt><trkpt lat="44.50167008014691" lon="10.50169610344316"><ele>606.0</ele><time>2026-04-18T09:51:49.999Z</time></trkpt><trkpt lat="44.501544271749054" lon="10.501667489423118"><ele>606.0</ele><time>2026-04-18T09:51:50.999Z</time></trkpt><trkpt lat="44.50142162945264" lon="10.501632184657032"><ele>606.0</ele><time>2026-04-18T09:51:51.999Z</time></trkpt><trkpt lat="44.501325552638235" lon="10.501606737694816"><ele>606.0</ele><time>2026-04-18T09:51:52.999Z</time></trkpt><trkpt lat="44.50123643694564" lon="10.501606327703545"><ele>606.0</ele><time>2026-04-18T09:51:53.999Z</time></trkpt><trkpt lat="44.50114152142606" lon="10.501567442291766"><ele>606.0</ele><time>2026-04-18T09:51:54.999Z</time></trkpt><trkpt lat="44.50105167453067" lon="10.501547655169544"><ele>610.25</ele><time>2026-04-18T09:51:55.999Z</time></trkpt><trkpt lat="44.50096677140461" lon="10.501528953619736"><ele>614.5</ele><time>2026-04-18T09:51:56.999Z</time></trkpt><trkpt lat="44.50083346885927" lon="10.50180392731088"><ele>618.75</ele><time>2026-04-18T09:51:57.999Z</time></trkpt><trkpt lat="44.500728258032545" lon="10.501863492078282"><ele>623.0</ele><time>2026-04-18T09:51:58.999Z</time></trkpt><trkpt lat="44.500626728967696" lon="10.501915195992249"><ele>623.0</ele><time>2026-04-18T09:51:59.999Z</time></trkpt><trkpt lat="44.50053020013372" lon="10.501976729116812"><ele>623.0</ele><time>2026-04-18T09:52:00.999Z</time></trkpt><trkpt lat="44.50044367234452" lon="10.502063500393586"><ele>623.0</ele><time>2026-04-18T09:52:01.999Z</time></trkpt><trkpt lat="44.50038357642246" lon="10.502146751382336"><ele>623.0</ele><time>2026-04-18T09:52:02.999Z</time></trkpt><trkpt lat="44.50030485097292" lon="10.502227103139173"><ele>623.0</ele><time>2026-04-18T09:52:03.999Z</time></trkpt><trkpt lat="44.50022335349127" lon="10.5022663998933"><ele>626.8</ele><time>2026-04-18T09:52:04.999Z</time></trkpt><trkpt lat="44.500122324832326" lon="10.502310855262577"><ele>630.5999999999999</ele><time>2026-04-18T09:52:05.999Z</time></trkpt><trkpt lat="44.50003076809029" lon="10.502345447314783"><ele>634.4000000000001</ele><time>2026-04-18T09:52:06.999Z</time></trkpt><trkpt lat="44.49994834713892" lon="10.502447272413052"><ele>638.2</ele><time>2026-04-18T09:52:08.999Z</time></trkpt><trkpt lat="44.49991058975737" lon="10.502544061121316"><ele>642.0</ele><time>2026-04-18T09:52:09.999Z</time></trkpt><trkpt lat="44.499891610688174" lon="10.502641760859978"><ele>642.0</ele><time>2026-04-18T09:52:10.999Z</time></trkpt><trkpt lat="44.49989162586931" lon="10.502756392195625"><ele>642.0</ele><time>2026-04-18T09:52:11.999Z</time></trkpt><trkpt lat="44.499888595626274" lon="10.502884416061963"><ele>642.0</ele><time>2026-04-18T09:52:12.999Z</time></trkpt><trkpt lat="44.49988401112103" lon="10.502994356884173"><ele>642.0</ele><time>2026-04-18T09:52:13.999Z</time></trkpt><trkpt lat="44.499854997272855" lon="10.503096047958165"><ele>642.0</ele><time>2026-04-18T09:52:14.999Z</time></trkpt><trkpt lat="44.49976762699934" lon="10.50311891845119"><ele>642.0</ele><time>2026-04-18T09:52:16.999Z</time></trkpt><trkpt lat="44.49966889397878" lon="10.503051432994585"><ele>644.0</ele><time>2026-04-18T09:52:18.999Z</time></trkpt><trkpt lat="44.49957389476973" lon="10.503032728076969"><ele>646.0</ele><time>2026-04-18T09:52:21.999Z</time></trkpt><trkpt lat="44.499509896688224" lon="10.502982851074643"><ele>648.0</ele><time>2026-04-18T09:52:22.999Z</time></trkpt><trkpt lat="44.49945022614974" lon="10.502907785047944"><ele>650.0</ele><time>2026-04-18T09:52:23.999Z</time></trkpt><trkpt lat="44.49937424285693" lon="10.502836890853564"><ele>652.0</ele><time>2026-04-18T09:52:25.999Z</time></trkpt><trkpt lat="44.49927622978662" lon="10.502759731811453"><ele>653.0</ele><time>2026-04-18T09:52:27.999Z</time></trkpt><trkpt lat="44.499193391526454" lon="10.50268343712305"><ele>654.0</ele><time>2026-04-18T09:52:29.999Z</time></trkpt><trkpt lat="44.49908929302725" lon="10.502627025188755"><ele>655.0</ele><time>2026-04-18T09:52:31.999Z</time></trkpt><trkpt lat="44.49902820884456" lon="10.502581272258421"><ele>656.0</ele><time>2026-04-18T09:52:33.999Z</time></trkpt><trkpt lat="44.49891712832109" lon="10.502539948641473"><ele>657.0</ele><time>2026-04-18T09:52:35.999Z</time></trkpt><trkpt lat="44.49884743777049" lon="10.502496220794258"><ele>660.8</ele><time>2026-04-18T09:52:36.999Z</time></trkpt><trkpt lat="44.49874803029696" lon="10.502428954227005"><ele>664.6</ele><time>2026-04-18T09:52:38.999Z</time></trkpt><trkpt lat="44.498644352345956" lon="10.502337895296183"><ele>668.4</ele><time>2026-04-18T09:52:40.999Z</time></trkpt><trkpt lat="44.49858560341296" lon="10.502298644921707"><ele>672.1999999999999</ele><time>2026-04-18T09:52:41.999Z</time></trkpt><trkpt lat="44.49849647177828" lon="10.502274797583294"><ele>676.0</ele><time>2026-04-18T09:52:43.999Z</time></trkpt><trkpt lat="44.49844652206061" lon="10.502176299379803"><ele>676.0</ele><time>2026-04-18T09:52:46Z</time></trkpt><trkpt lat="44.49836292466677" lon="10.502085238192544"><ele>676.0</ele><time>2026-04-18T09:52:48Z</time></trkpt><trkpt lat="44.49826282441533" lon="10.502063729616623"><ele>676.0</ele><time>2026-04-18T09:52:51Z</time></trkpt><trkpt lat="44.49821704923767" lon="10.502175251787865"><ele>676.0</ele><time>2026-04-18T09:52:54Z</time></trkpt><trkpt lat="44.49817099097715" lon="10.502254760767272"><ele>676.0</ele><time>2026-04-18T09:52:59Z</time></trkpt><trkpt lat="44.49813302289635" lon="10.50234547102067"><ele>676.0</ele><time>2026-04-18T09:53:01Z</time></trkpt><trkpt lat="44.49807113429966" lon="10.502364923151397"><ele>676.0</ele><time>2026-04-18T09:53:04Z</time></trkpt><trkpt lat="44.49795365562952" lon="10.502360351503775"><ele>676.0</ele><time>2026-04-18T09:53:06Z</time></trkpt><trkpt lat="44.49782704173279" lon="10.502325783983315"><ele>676.0</ele><time>2026-04-18T09:53:08Z</time></trkpt><trkpt lat="44.49771948648491" lon="10.502299868289011"><ele>676.0</ele><time>2026-04-18T09:53:10Z</time></trkpt><trkpt lat="44.49760479909209" lon="10.502290723128695"><ele>679.1999999999999</ele><time>2026-04-18T09:53:12Z</time></trkpt><trkpt lat="44.497478911036694" lon="10.502265093649834"><ele>682.4</ele><time>2026-04-18T09:53:14Z</time></trkpt><trkpt lat="44.49740915407624" lon="10.502264314688986"><ele>685.6</ele><time>2026-04-18T09:53:15Z</time></trkpt><trkpt lat="44.49732207922355" lon="10.502255009661928"><ele>688.8</ele><time>2026-04-18T09:53:17Z</time></trkpt><trkpt lat="44.49721629986151" lon="10.502185620223713"><ele>692.0</ele><time>2026-04-18T09:53:19Z</time></trkpt><trkpt lat="44.49715718760782" lon="10.502137887295392"><ele>694.2</ele><time>2026-04-18T09:53:20Z</time></trkpt><trkpt lat="44.49706490473464" lon="10.502138021428953"><ele>696.4000000000001</ele><time>2026-04-18T09:53:22Z</time></trkpt><trkpt lat="44.496923496427605" lon="10.502122765723001"><ele>698.5999999999999</ele><time>2026-04-18T09:53:23.999Z</time></trkpt><trkpt lat="44.49686198345001" lon="10.502101169711729"><ele>700.8</ele><time>2026-04-18T09:53:24.999Z</time></trkpt><trkpt lat="44.49679206618201" lon="10.502093772802338"><ele>703.0</ele><time>2026-04-18T09:53:25.999Z</time></trkpt><trkpt lat="44.49666299084901" lon="10.502135484819972"><ele>703.0</ele><time>2026-04-18T09:53:27.999Z</time></trkpt><trkpt lat="44.49656847776476" lon="10.502176226586515"><ele>703.0</ele><time>2026-04-18T09:53:29.999Z</time></trkpt><trkpt lat="44.49647642054578" lon="10.502232939052174"><ele>703.0</ele><time>2026-04-18T09:53:31.999Z</time></trkpt><trkpt lat="44.496356437262236" lon="10.502224520645632"><ele>703.0</ele><time>2026-04-18T09:53:33.999Z</time></trkpt><trkpt lat="44.49623773186091" lon="10.502199347022549"><ele>703.0</ele><time>2026-04-18T09:53:35.999Z</time></trkpt><trkpt lat="44.496149506151205" lon="10.502194815460987"><ele>702.6666666666667</ele><time>2026-04-18T09:53:36.999Z</time></trkpt><trkpt lat="44.496077663502305" lon="10.502197856608337"><ele>702.3333333333334</ele><time>2026-04-18T09:53:37.999Z</time></trkpt><trkpt lat="44.49600596164109" lon="10.502195665344814"><ele>702.0</ele><time>2026-04-18T09:53:38.999Z</time></trkpt><trkpt lat="44.49592986788573" lon="10.502187912609395"><ele>701.6666666666666</ele><time>2026-04-18T09:53:39.999Z</time></trkpt><trkpt lat="44.495845690106364" lon="10.502182032005383"><ele>701.3333333333333</ele><time>2026-04-18T09:53:40.999Z</time></trkpt><trkpt lat="44.4957012524714" lon="10.502177351402565"><ele>701.0</ele><time>2026-04-18T09:53:42.999Z</time></trkpt><trkpt lat="44.49563735656368" lon="10.502181852169093"><ele>701.0</ele><time>2026-04-18T09:53:43.999Z</time></trkpt><trkpt lat="44.4955430961837" lon="10.502161653835424"><ele>701.0</ele><time>2026-04-18T09:53:45.999Z</time></trkpt><trkpt lat="44.495490324915586" lon="10.502056076838205"><ele>701.0</ele><time>2026-04-18T09:53:47.999Z</time></trkpt><trkpt lat="44.495450423588096" lon="10.501974703886376"><ele>701.0</ele><time>2026-04-18T09:53:48.999Z</time></trkpt><trkpt lat="44.49540198056307" lon="10.50189672375225"><ele>701.0</ele><time>2026-04-18T09:53:49.999Z</time></trkpt><trkpt lat="44.495350758205305" lon="10.501815287194788"><ele>701.0</ele><time>2026-04-18T09:53:50.999Z</time></trkpt><trkpt lat="44.49530886704411" lon="10.501747396536695"><ele>701.0</ele><time>2026-04-18T09:53:51.999Z</time></trkpt><trkpt lat="44.49527156880125" lon="10.50167550697042"><ele>701.0</ele><time>2026-04-18T09:53:52.999Z</time></trkpt><trkpt lat="44.495187223510406" lon="10.501545793279705"><ele>701.0</ele><time>2026-04-18T09:53:54.999Z</time></trkpt><trkpt lat="44.495138387820774" lon="10.501473180007281"><ele>701.0</ele><time>2026-04-18T09:53:55.999Z</time></trkpt><trkpt lat="44.495088606859866" lon="10.501393251715426"><ele>701.0</ele><time>2026-04-18T09:53:56.999Z</time></trkpt><trkpt lat="44.49502923380994" lon="10.501301097673759"><ele>701.0</ele><time>2026-04-18T09:53:57.999Z</time></trkpt><trkpt lat="44.49498084263473" lon="10.501213560462173"><ele>701.8333333333333</ele><time>2026-04-18T09:53:58.999Z</time></trkpt><trkpt lat="44.49493015323654" lon="10.501124706444205"><ele>702.6666666666666</ele><time>2026-04-18T09:53:59.999Z</time></trkpt><trkpt lat="44.49488407284083" lon="10.500997036339458"><ele>703.5</ele><time>2026-04-18T09:54:01.999Z</time></trkpt><trkpt lat="44.49496005232917" lon="10.500901306212558"><ele>704.3333333333334</ele><time>2026-04-18T09:54:03.999Z</time></trkpt><trkpt lat="44.495006576816316" lon="10.500789475227997"><ele>705.1666666666667</ele><time>2026-04-18T09:54:04.999Z</time></trkpt><trkpt lat="44.49506136861168" lon="10.500737589469779"><ele>706.0</ele><time>2026-04-18T09:54:05.999Z</time></trkpt><trkpt lat="44.495118668438444" lon="10.500642815575713"><ele>706.0</ele><time>2026-04-18T09:54:06.999Z</time></trkpt><trkpt lat="44.495142482045985" lon="10.50055293650034"><ele>706.0</ele><time>2026-04-18T09:54:07.999Z</time></trkpt><trkpt lat="44.4951650253144" lon="10.500412141492436"><ele>706.0</ele><time>2026-04-18T09:54:09.999Z</time></trkpt><trkpt lat="44.4951932840171" lon="10.500290067565631"><ele>706.0</ele><time>2026-04-18T09:54:11.999Z</time></trkpt><trkpt lat="44.495228163598846" lon="10.500188956746387"><ele>706.0</ele><time>2026-04-18T09:54:13.999Z</time></trkpt><trkpt lat="44.495264095634205" lon="10.500075429959749"><ele>706.0</ele><time>2026-04-18T09:54:15.999Z</time></trkpt><trkpt lat="44.495290922373854" lon="10.49997732988511"><ele>706.0</ele><time>2026-04-18T09:54:17.999Z</time></trkpt><trkpt lat="44.49517030193911" lon="10.499795675949931"><ele>706.0</ele><time>2026-04-18T09:54:20.999Z</time></trkpt><trkpt lat="44.49519623853634" lon="10.499630957641061"><ele>706.0</ele><time>2026-04-18T09:54:22.999Z</time></trkpt><trkpt lat="44.49522027257167" lon="10.499540039728947"><ele>706.0</ele><time>2026-04-18T09:54:23.999Z</time></trkpt><trkpt lat="44.49525137462198" lon="10.499366171331719"><ele>704.8</ele><time>2026-04-18T09:54:25.999Z</time></trkpt><trkpt lat="44.49528746667933" lon="10.499211825544835"><ele>703.5999999999999</ele><time>2026-04-18T09:54:27.999Z</time></trkpt><trkpt lat="44.49532176490327" lon="10.499069724030182"><ele>702.4</ele><time>2026-04-18T09:54:29.999Z</time></trkpt><trkpt lat="44.495349444634094" lon="10.49893425656222"><ele>701.2</ele><time>2026-04-18T09:54:31.999Z</time></trkpt><trkpt lat="44.49539397080639" lon="10.498770390580331"><ele>700.0</ele><time>2026-04-18T09:54:33.999Z</time></trkpt><trkpt lat="44.49542285759768" lon="10.498678308063194"><ele>698.6666666666667</ele><time>2026-04-18T09:54:34.999Z</time></trkpt><trkpt lat="44.49546054718128" lon="10.498585707923512"><ele>697.3333333333334</ele><time>2026-04-18T09:54:35.999Z</time></trkpt><trkpt lat="44.49549604262591" lon="10.498510240494792"><ele>696.0</ele><time>2026-04-18T09:54:36.999Z</time></trkpt><trkpt lat="44.49556441827926" lon="10.498395080091486"><ele>694.6666666666666</ele><time>2026-04-18T09:54:38.999Z</time></trkpt><trkpt lat="44.495618938266" lon="10.498271326435011"><ele>693.3333333333333</ele><time>2026-04-18T09:54:40.999Z</time></trkpt><trkpt lat="44.49565998301389" lon="10.498203316255541"><ele>692.0</ele><time>2026-04-18T09:54:41.999Z</time></trkpt><trkpt lat="44.49571589033578" lon="10.498045194432393"><ele>691.2</ele><time>2026-04-18T09:54:43.999Z</time></trkpt><trkpt lat="44.495754334835205" lon="10.497892439985316"><ele>690.4000000000001</ele><time>2026-04-18T09:54:45.999Z</time></trkpt><trkpt lat="44.49578654917459" lon="10.497809501865463"><ele>689.5999999999999</ele><time>2026-04-18T09:54:46.999Z</time></trkpt><trkpt lat="44.49585545787299" lon="10.497715664974418"><ele>688.8</ele><time>2026-04-18T09:54:48.999Z</time></trkpt><trkpt lat="44.49594294103649" lon="10.497711998368768"><ele>688.0</ele><time>2026-04-18T09:54:51Z</time></trkpt><trkpt lat="44.49592684075519" lon="10.497405455430782"><ele>688.0</ele><time>2026-04-18T09:54:53Z</time></trkpt><trkpt lat="44.49595932024635" lon="10.497248451800576"><ele>688.0</ele><time>2026-04-18T09:54:55Z</time></trkpt><trkpt lat="44.496002774467975" lon="10.497112508706039"><ele>688.0</ele><time>2026-04-18T09:54:57Z</time></trkpt><trkpt lat="44.49604644101251" lon="10.497003349570514"><ele>688.0</ele><time>2026-04-18T09:54:59Z</time></trkpt><trkpt lat="44.49607129317397" lon="10.497094766219671"><ele>688.0</ele><time>2026-04-18T09:55:23Z</time></trkpt><trkpt lat="44.496148718425275" lon="10.497151078148924"><ele>688.0</ele><time>2026-04-18T09:55:25Z</time></trkpt><trkpt lat="44.49623372459656" lon="10.497228761422154"><ele>688.0</ele><time>2026-04-18T09:55:27Z</time></trkpt><trkpt lat="44.49631569632525" lon="10.49730500201913"><ele>688.0</ele><time>2026-04-18T09:55:29Z</time></trkpt><trkpt lat="44.49642061689244" lon="10.497323994556446"><ele>688.0</ele><time>2026-04-18T09:55:31Z</time></trkpt><trkpt lat="44.49649972797448" lon="10.497412507229178"><ele>688.0</ele><time>2026-04-18T09:55:33Z</time></trkpt><trkpt lat="44.496546042243075" lon="10.497477302845697"><ele>684.6666666666667</ele><time>2026-04-18T09:55:36Z</time></trkpt><trkpt lat="44.496633425963154" lon="10.497387565395698"><ele>681.3333333333334</ele><time>2026-04-18T09:55:39.999Z</time></trkpt><trkpt lat="44.496667363413806" lon="10.497305274918698"><ele>678.0</ele><time>2026-04-18T09:55:40.999Z</time></trkpt><trkpt lat="44.49672490462684" lon="10.497264580690766"><ele>674.6666666666666</ele><time>2026-04-18T09:55:41.999Z</time></trkpt><trkpt lat="44.496833726760805" lon="10.497229586715159"><ele>671.3333333333333</ele><time>2026-04-18T09:55:43.999Z</time></trkpt><trkpt lat="44.496925001358726" lon="10.497264526583862"><ele>668.0</ele><time>2026-04-18T09:55:45.999Z</time></trkpt><trkpt lat="44.49699404914108" lon="10.49736730754324"><ele>668.0</ele><time>2026-04-18T09:55:47.999Z</time></trkpt><trkpt lat="44.497048513361044" lon="10.497434201540754"><ele>668.0</ele><time>2026-04-18T09:55:48.999Z</time></trkpt><trkpt lat="44.49714797219511" lon="10.497464655860163"><ele>668.0</ele><time>2026-04-18T09:55:50.999Z</time></trkpt><trkpt lat="44.497208078204274" lon="10.49741376263027"><ele>668.0</ele><time>2026-04-18T09:55:51.999Z</time></trkpt><trkpt lat="44.49729229947853" lon="10.497377760269927"><ele>668.0</ele><time>2026-04-18T09:55:52.999Z</time></trkpt><trkpt lat="44.49737923752064" lon="10.497323284542663"><ele>668.0</ele><time>2026-04-18T09:55:53.999Z</time></trkpt><trkpt lat="44.497447811378784" lon="10.497277050560236"><ele>665.1666666666666</ele><time>2026-04-18T09:55:54.999Z</time></trkpt><trkpt lat="44.497541220951895" lon="10.497210636952486"><ele>662.3333333333333</ele><time>2026-04-18T09:55:56.999Z</time></trkpt><trkpt lat="44.49759889033829" lon="10.49709877312896"><ele>659.5</ele><time>2026-04-18T09:55:58.999Z</time></trkpt><trkpt lat="44.497641794751196" lon="10.496981196650468"><ele>656.6666666666666</ele><time>2026-04-18T09:56:00.999Z</time></trkpt><trkpt lat="44.49772481525898" lon="10.496955938343822"><ele>653.8333333333334</ele><time>2026-04-18T09:56:02.999Z</time></trkpt><trkpt lat="44.49778787532933" lon="10.496952447670854"><ele>651.0</ele><time>2026-04-18T09:56:04.999Z</time></trkpt><trkpt lat="44.497846520664105" lon="10.49691512517186"><ele>650.1666666666666</ele><time>2026-04-18T09:56:07.999Z</time></trkpt><trkpt lat="44.497913424891834" lon="10.496873955256682"><ele>649.3333333333334</ele><time>2026-04-18T09:56:10.999Z</time></trkpt><trkpt lat="44.497896635096794" lon="10.496964114882635"><ele>648.5</ele><time>2026-04-18T09:56:29.999Z</time></trkpt><trkpt lat="44.49780222619424" lon="10.496967447419786"><ele>647.6666666666667</ele><time>2026-04-18T09:56:31.999Z</time></trkpt><trkpt lat="44.49772808402545" lon="10.496972796508617"><ele>646.8333333333334</ele><time>2026-04-18T09:56:33.999Z</time></trkpt><trkpt lat="44.497657720244845" lon="10.497006684139059"><ele>646.0</ele><time>2026-04-18T09:56:43.999Z</time></trkpt><trkpt lat="44.49759766826306" lon="10.497084899117311"><ele>646.8333333333334</ele><time>2026-04-18T09:56:45.999Z</time></trkpt><trkpt lat="44.49759564593107" lon="10.497196516179315"><ele>647.6666666666667</ele><time>2026-04-18T09:56:47.999Z</time></trkpt><trkpt lat="44.49761056315377" lon="10.497327901434561"><ele>648.5</ele><time>2026-04-18T09:56:49.999Z</time></trkpt><trkpt lat="44.49760833123302" lon="10.497440115023501"><ele>649.3333333333334</ele><time>2026-04-18T09:56:51.999Z</time></trkpt><trkpt lat="44.49757443885843" lon="10.497541668159036"><ele>650.1666666666666</ele><time>2026-04-18T09:56:53.999Z</time></trkpt><trkpt lat="44.49746868793526" lon="10.497583067250252"><ele>651.0</ele><time>2026-04-18T09:56:57Z</time></trkpt><trkpt lat="44.49735907551839" lon="10.49756540784482"><ele>651.0</ele><time>2026-04-18T09:56:59Z</time></trkpt><trkpt lat="44.49726208112531" lon="10.497521285079083"><ele>651.0</ele><time>2026-04-18T09:57:01Z</time></trkpt><trkpt lat="44.49715165037077" lon="10.497471601695981"><ele>651.0</ele><time>2026-04-18T09:57:03Z</time></trkpt><trkpt lat="44.49708453168278" lon="10.497477452398822"><ele>651.0</ele><time>2026-04-18T09:57:05Z</time></trkpt><trkpt lat="44.4970129366294" lon="10.497474903701455"><ele>651.0</ele><time>2026-04-18T09:57:06Z</time></trkpt><trkpt lat="44.496975675140234" lon="10.497391499949837"><ele>651.0</ele><time>2026-04-18T09:57:08Z</time></trkpt><trkpt lat="44.49692251467959" lon="10.49726712155203"><ele>653.8333333333334</ele><time>2026-04-18T09:57:10Z</time></trkpt><trkpt lat="44.496820334911625" lon="10.497272262180845"><ele>656.6666666666666</ele><time>2026-04-18T09:57:13Z</time></trkpt><trkpt lat="44.496730251806774" lon="10.4973338099036"><ele>659.5</ele><time>2026-04-18T09:57:15Z</time></trkpt><trkpt lat="44.496670727104686" lon="10.497391569542616"><ele>662.3333333333333</ele><time>2026-04-18T09:57:16Z</time></trkpt><trkpt lat="44.496617971840614" lon="10.497506008796584"><ele>665.1666666666666</ele><time>2026-04-18T09:57:18Z</time></trkpt><trkpt lat="44.4965450894851" lon="10.49752023855861"><ele>668.0</ele><time>2026-04-18T09:57:20Z</time></trkpt><trkpt lat="44.496502768509025" lon="10.4974004362783"><ele>668.0</ele><time>2026-04-18T09:57:23Z</time></trkpt><trkpt lat="44.496439631811064" lon="10.49735253814844"><ele>668.0</ele><time>2026-04-18T09:57:26Z</time></trkpt><trkpt lat="44.496347350629705" lon="10.497304066982375"><ele>668.0</ele><time>2026-04-18T09:57:29Z</time></trkpt><trkpt lat="44.49628309588541" lon="10.49725866595004"><ele>668.0</ele><time>2026-04-18T09:57:30Z</time></trkpt><trkpt lat="44.496200579205805" lon="10.497180274714985"><ele>668.0</ele><time>2026-04-18T09:57:31Z</time></trkpt><trkpt lat="44.49614420991088" lon="10.497129179136369"><ele>668.0</ele><time>2026-04-18T09:57:32Z</time></trkpt><trkpt lat="44.4960343642861" lon="10.49709688705943"><ele>671.3333333333333</ele><time>2026-04-18T09:57:34Z</time></trkpt><trkpt lat="44.49598141298299" lon="10.49717332707598"><ele>674.6666666666666</ele><time>2026-04-18T09:57:36Z</time></trkpt><trkpt lat="44.4958930441606" lon="10.497224962319745"><ele>678.0</ele><time>2026-04-18T09:57:38Z</time></trkpt><trkpt lat="44.4958320028258" lon="10.497260137629237"><ele>681.3333333333334</ele><time>2026-04-18T09:57:39Z</time></trkpt><trkpt lat="44.49576660485651" lon="10.49731239069021"><ele>684.6666666666667</ele><time>2026-04-18T09:57:40Z</time></trkpt><trkpt lat="44.4956913746513" lon="10.497373945621732"><ele>688.0</ele><time>2026-04-18T09:57:41Z</time></trkpt><trkpt lat="44.49562311502951" lon="10.497430574703808"><ele>688.0</ele><time>2026-04-18T09:57:42Z</time></trkpt><trkpt lat="44.49553323894941" lon="10.497514993472041"><ele>688.0</ele><time>2026-04-18T09:57:44Z</time></trkpt><trkpt lat="44.49547067170513" lon="10.497551318916136"><ele>688.0</ele><time>2026-04-18T09:57:45Z</time></trkpt><trkpt lat="44.49540223475267" lon="10.497583331326226"><ele>688.0</ele><time>2026-04-18T09:57:46Z</time></trkpt><trkpt lat="44.49531368562667" lon="10.497614005963094"><ele>688.0</ele><time>2026-04-18T09:57:47Z</time></trkpt><trkpt lat="44.495210887799274" lon="10.497649948424238"><ele>688.0</ele><time>2026-04-18T09:57:48Z</time></trkpt><trkpt lat="44.49510727924098" lon="10.497678202756918"><ele>688.5</ele><time>2026-04-18T09:57:49Z</time></trkpt><trkpt lat="44.49498223825569" lon="10.497689970744924"><ele>689.0</ele><time>2026-04-18T09:57:50Z</time></trkpt><trkpt lat="44.49486448328469" lon="10.49771328356195"><ele>689.5</ele><time>2026-04-18T09:57:50.999Z</time></trkpt><trkpt lat="44.4947444564667" lon="10.49774289712005"><ele>690.0</ele><time>2026-04-18T09:57:51.999Z</time></trkpt><trkpt lat="44.49464628486157" lon="10.497771418130105"><ele>690.3333333333334</ele><time>2026-04-18T09:57:52.999Z</time></trkpt><trkpt lat="44.4945631005638" lon="10.497805109979849"><ele>690.6666666666666</ele><time>2026-04-18T09:57:53.999Z</time></trkpt><trkpt lat="44.49448570198928" lon="10.497833916433402"><ele>691.0</ele><time>2026-04-18T09:57:54.999Z</time></trkpt><trkpt lat="44.49441592107762" lon="10.49783558672985"><ele>691.3333333333333</ele><time>2026-04-18T09:57:55.999Z</time></trkpt><trkpt lat="44.49432638525901" lon="10.49786299178017"><ele>691.6666666666666</ele><time>2026-04-18T09:57:57.999Z</time></trkpt><trkpt lat="44.494265607671935" lon="10.497892094517137"><ele>692.0</ele><time>2026-04-18T09:57:58.999Z</time></trkpt><trkpt lat="44.49419910449007" lon="10.497935817414128"><ele>692.0</ele><time>2026-04-18T09:57:59.999Z</time></trkpt><trkpt lat="44.49413150283517" lon="10.497973091415524"><ele>692.0</ele><time>2026-04-18T09:58:00.999Z</time></trkpt><trkpt lat="44.49406596756025" lon="10.498008383002194"><ele>692.0</ele><time>2026-04-18T09:58:01.999Z</time></trkpt><trkpt lat="44.493949055314935" lon="10.498054782472533"><ele>692.0</ele><time>2026-04-18T09:58:03.999Z</time></trkpt><trkpt lat="44.49382630150816" lon="10.498097199210557"><ele>692.0</ele><time>2026-04-18T09:58:05.999Z</time></trkpt><trkpt lat="44.49376486437503" lon="10.498133457124041"><ele>690.6666666666666</ele><time>2026-04-18T09:58:07.999Z</time></trkpt><trkpt lat="44.493700065202226" lon="10.49805967749229"><ele>689.3333333333333</ele><time>2026-04-18T09:58:10.999Z</time></trkpt><trkpt lat="44.493634125325514" lon="10.497924268075783"><ele>688.0</ele><time>2026-04-18T09:58:12.999Z</time></trkpt><trkpt lat="44.49359872799136" lon="10.497842674744506"><ele>686.6666666666666</ele><time>2026-04-18T09:58:13.999Z</time></trkpt><trkpt lat="44.49351857151208" lon="10.497742339129271"><ele>685.3333333333334</ele><time>2026-04-18T09:58:15.999Z</time></trkpt><trkpt lat="44.4934551539142" lon="10.49772800983694"><ele>684.0</ele><time>2026-04-18T09:58:16.999Z</time></trkpt><trkpt lat="44.49338564865531" lon="10.497727397510094"><ele>683.8333333333334</ele><time>2026-04-18T09:58:17.999Z</time></trkpt><trkpt lat="44.493313773510344" lon="10.497714413245866"><ele>683.6666666666666</ele><time>2026-04-18T09:58:18.999Z</time></trkpt><trkpt lat="44.49323680855252" lon="10.49769136411923"><ele>683.5</ele><time>2026-04-18T09:58:19.999Z</time></trkpt><trkpt lat="44.493162113547314" lon="10.497679328472177"><ele>683.3333333333333</ele><time>2026-04-18T09:58:20.999Z</time></trkpt><trkpt lat="44.49309069797722" lon="10.497670104347739"><ele>683.1666666666666</ele><time>2026-04-18T09:58:21.999Z</time></trkpt><trkpt lat="44.492971605266916" lon="10.49769534391344"><ele>683.0</ele><time>2026-04-18T09:58:23.999Z</time></trkpt><trkpt lat="44.4929084062283" lon="10.49764063652359"><ele>683.0</ele><time>2026-04-18T09:58:25.999Z</time></trkpt><trkpt lat="44.49298508784654" lon="10.497486265657395"><ele>683.0</ele><time>2026-04-18T09:58:27.999Z</time></trkpt><trkpt lat="44.49303031346515" lon="10.49729077153097"><ele>683.0</ele><time>2026-04-18T09:58:29.999Z</time></trkpt><trkpt lat="44.49307837522181" lon="10.49718277898034"><ele>683.0</ele><time>2026-04-18T09:58:30.999Z</time></trkpt><trkpt lat="44.493130687888204" lon="10.497055924650546"><ele>681.25</ele><time>2026-04-18T09:58:31.999Z</time></trkpt><trkpt lat="44.49318261406623" lon="10.496908603228864"><ele>679.5</ele><time>2026-04-18T09:58:32.999Z</time></trkpt><trkpt lat="44.493223353446275" lon="10.49676485476802"><ele>677.75</ele><time>2026-04-18T09:58:33.999Z</time></trkpt><trkpt lat="44.49327698737861" lon="10.496631131109453"><ele>676.0</ele><time>2026-04-18T09:58:34.999Z</time></trkpt><trkpt lat="44.493335279921745" lon="10.496461472197263"><ele>676.0</ele><time>2026-04-18T09:58:36.999Z</time></trkpt><trkpt lat="44.493375793360855" lon="10.496358324101406"><ele>676.0</ele><time>2026-04-18T09:58:37.999Z</time></trkpt><trkpt lat="44.49340787293245" lon="10.496259899693156"><ele>676.0</ele><time>2026-04-18T09:58:38.999Z</time></trkpt><trkpt lat="44.49343843035475" lon="10.496167995895416"><ele>676.0</ele><time>2026-04-18T09:58:39.999Z</time></trkpt><trkpt lat="44.49346474390856" lon="10.49608372054637"><ele>676.0</ele><time>2026-04-18T09:58:40.999Z</time></trkpt><trkpt lat="44.493517820416315" lon="10.495928687672496"><ele>676.0</ele><time>2026-04-18T09:58:42.999Z</time></trkpt><trkpt lat="44.493567500178216" lon="10.495785091535037"><ele>674.4</ele><time>2026-04-18T09:58:44.999Z</time></trkpt><trkpt lat="44.49360636904298" lon="10.495647978170428"><ele>672.8</ele><time>2026-04-18T09:58:46.999Z</time></trkpt><trkpt lat="44.49363947275208" lon="10.495512462466928"><ele>671.1999999999999</ele><time>2026-04-18T09:58:48.999Z</time></trkpt><trkpt lat="44.493670373949" lon="10.495375919112918"><ele>669.5999999999999</ele><time>2026-04-18T09:58:50.999Z</time></trkpt><trkpt lat="44.49370030771667" lon="10.495236940449047"><ele>668.0</ele><time>2026-04-18T09:58:52.999Z</time></trkpt><trkpt lat="44.49373498981639" lon="10.495119640336316"><ele>666.2</ele><time>2026-04-18T09:58:54.999Z</time></trkpt><trkpt lat="44.493783295474195" lon="10.495003095872422"><ele>664.4</ele><time>2026-04-18T09:58:56.999Z</time></trkpt><trkpt lat="44.493804375459895" lon="10.494894081943736"><ele>662.6</ele><time>2026-04-18T09:58:59.999Z</time></trkpt><trkpt lat="44.49376515187123" lon="10.495021173406627"><ele>660.8000000000001</ele><time>2026-04-18T09:59:04Z</time></trkpt><trkpt lat="44.4936976348637" lon="10.495175380098601"><ele>659.0</ele><time>2026-04-18T09:59:05Z</time></trkpt><trkpt lat="44.49365674632237" lon="10.495380514283076"><ele>662.0</ele><time>2026-04-18T09:59:06Z</time></trkpt><trkpt lat="44.493598178191505" lon="10.495609663431553"><ele>665.0</ele><time>2026-04-18T09:59:07Z</time></trkpt><trkpt lat="44.49352238816793" lon="10.495876735902291"><ele>668.0</ele><time>2026-04-18T09:59:08Z</time></trkpt><trkpt lat="44.493424521644734" lon="10.496112413786054"><ele>670.0</ele><time>2026-04-18T09:59:09Z</time></trkpt><trkpt lat="44.4933684695298" lon="10.496322011262263"><ele>672.0</ele><time>2026-04-18T09:59:10Z</time></trkpt><trkpt lat="44.49330037444104" lon="10.496492868709655"><ele>674.0</ele><time>2026-04-18T09:59:11Z</time></trkpt><trkpt lat="44.493250871623765" lon="10.496633836076821"><ele>676.0</ele><time>2026-04-18T09:59:12Z</time></trkpt><trkpt lat="44.49320377122515" lon="10.496769909209915"><ele>676.0</ele><time>2026-04-18T09:59:13Z</time></trkpt><trkpt lat="44.4931544345386" lon="10.496899254181855"><ele>676.0</ele><time>2026-04-18T09:59:14Z</time></trkpt><trkpt lat="44.49310620183233" lon="10.49702738238406"><ele>676.0</ele><time>2026-04-18T09:59:15Z</time></trkpt><trkpt lat="44.4930577886998" lon="10.497159405185863"><ele>676.0</ele><time>2026-04-18T09:59:16Z</time></trkpt><trkpt lat="44.4930124577841" lon="10.497296253281203"><ele>676.0</ele><time>2026-04-18T09:59:17Z</time></trkpt><trkpt lat="44.492967618954935" lon="10.497429181493503"><ele>677.0</ele><time>2026-04-18T09:59:18Z</time></trkpt><trkpt lat="44.49293242530339" lon="10.49753535239981"><ele>678.0</ele><time>2026-04-18T09:59:19Z</time></trkpt><trkpt lat="44.49289140411245" lon="10.497604105399688"><ele>679.0</ele><time>2026-04-18T09:59:20Z</time></trkpt><trkpt lat="44.49299492397814" lon="10.497771542361104"><ele>680.0</ele><time>2026-04-18T09:59:23Z</time></trkpt><trkpt lat="44.49307420329682" lon="10.497690476933068"><ele>681.0</ele><time>2026-04-18T09:59:24Z</time></trkpt><trkpt lat="44.49316634574739" lon="10.497719604801292"><ele>681.4</ele><time>2026-04-18T09:59:25Z</time></trkpt><trkpt lat="44.493274714365945" lon="10.497740436334261"><ele>681.8</ele><time>2026-04-18T09:59:26Z</time></trkpt><trkpt lat="44.49337645898409" lon="10.497762162783218"><ele>682.1999999999999</ele><time>2026-04-18T09:59:27Z</time></trkpt><trkpt lat="44.493464872781956" lon="10.497781042672331"><ele>682.5999999999999</ele><time>2026-04-18T09:59:28Z</time></trkpt><trkpt lat="44.493559047952466" lon="10.497840016638133"><ele>683.0</ele><time>2026-04-18T09:59:30Z</time></trkpt><trkpt lat="44.493624682957986" lon="10.498000660770268"><ele>683.2</ele><time>2026-04-18T09:59:32Z</time></trkpt><trkpt lat="44.49368365359918" lon="10.498099843481397"><ele>683.4</ele><time>2026-04-18T09:59:33Z</time></trkpt><trkpt lat="44.49374175692825" lon="10.49820236001274"><ele>683.6</ele><time>2026-04-18T09:59:34Z</time></trkpt><trkpt lat="44.49378926156725" lon="10.498326886568494"><ele>683.8000000000001</ele><time>2026-04-18T09:59:35Z</time></trkpt><trkpt lat="44.49382550757882" lon="10.49848484702349"><ele>684.0</ele><time>2026-04-18T09:59:36Z</time></trkpt><trkpt lat="44.49384847665253" lon="10.498652796857085"><ele>686.0</ele><time>2026-04-18T09:59:37Z</time></trkpt><trkpt lat="44.4938677676681" lon="10.49881472532954"><ele>688.0</ele><time>2026-04-18T09:59:38Z</time></trkpt><trkpt lat="44.493884746956745" lon="10.498945951277369"><ele>690.0</ele><time>2026-04-18T09:59:39Z</time></trkpt><trkpt lat="44.49390490031428" lon="10.499066550294591"><ele>692.0</ele><time>2026-04-18T09:59:40Z</time></trkpt><trkpt lat="44.493931937927094" lon="10.49918487705245"><ele>694.0</ele><time>2026-04-18T09:59:41Z</time></trkpt><trkpt lat="44.49399392219662" lon="10.499293641601174"><ele>694.0</ele><time>2026-04-18T09:59:42Z</time></trkpt><trkpt lat="44.4940539151161" lon="10.499419259668278"><ele>694.0</ele><time>2026-04-18T09:59:43Z</time></trkpt><trkpt lat="44.49410117686939" lon="10.49955005987751"><ele>694.0</ele><time>2026-04-18T09:59:43.999Z</time></trkpt><trkpt lat="44.494174309506235" lon="10.499647429060811"><ele>694.0</ele><time>2026-04-18T09:59:44.999Z</time></trkpt><trkpt lat="44.49420854911611" lon="10.49977834320894"><ele>694.0</ele><time>2026-04-18T09:59:45.999Z</time></trkpt><trkpt lat="44.494238201486716" lon="10.49989936511338"><ele>694.1666666666667</ele><time>2026-04-18T09:59:46.999Z</time></trkpt><trkpt lat="44.49426590028083" lon="10.500011942707314"><ele>694.3333333333334</ele><time>2026-04-18T09:59:47.999Z</time></trkpt><trkpt lat="44.49429216326935" lon="10.500098546010156"><ele>694.5</ele><time>2026-04-18T09:59:48.999Z</time></trkpt><trkpt lat="44.49433700838612" lon="10.500176278753077"><ele>694.6666666666666</ele><time>2026-04-18T09:59:49.999Z</time></trkpt><trkpt lat="44.494373026095666" lon="10.500284610189668"><ele>694.8333333333333</ele><time>2026-04-18T09:59:50.999Z</time></trkpt><trkpt lat="44.49443268847073" lon="10.5003920520529"><ele>695.0</ele><time>2026-04-18T09:59:51.999Z</time></trkpt><trkpt lat="44.49450496627599" lon="10.500501934009039"><ele>695.0</ele><time>2026-04-18T09:59:52.999Z</time></trkpt><trkpt lat="44.49457719658084" lon="10.500614927115103"><ele>695.0</ele><time>2026-04-18T09:59:53.999Z</time></trkpt><trkpt lat="44.49464763862571" lon="10.500729721574727"><ele>695.0</ele><time>2026-04-18T09:59:54.999Z</time></trkpt><trkpt lat="44.49471751238088" lon="10.500843589905232"><ele>695.0</ele><time>2026-04-18T09:59:55.999Z</time></trkpt><trkpt lat="44.49478986514479" lon="10.500961498121859"><ele>695.0</ele><time>2026-04-18T09:59:56.999Z</time></trkpt><trkpt lat="44.494861737148454" lon="10.5010786230506"><ele>696.2</ele><time>2026-04-18T09:59:57.999Z</time></trkpt><trkpt lat="44.49493277235955" lon="10.501194279360064"><ele>697.4</ele><time>2026-04-18T09:59:58.999Z</time></trkpt><trkpt lat="44.49500122721486" lon="10.50130575091025"><ele>698.5999999999999</ele><time>2026-04-18T09:59:59.999Z</time></trkpt><trkpt lat="44.49506410213312" lon="10.501408136113293"><ele>699.8</ele><time>2026-04-18T10:00:00.999Z</time></trkpt><trkpt lat="44.49511822398007" lon="10.5014955226501"><ele>701.0</ele><time>2026-04-18T10:00:01.999Z</time></trkpt><trkpt lat="44.49517048585388" lon="10.501579189126293"><ele>701.0</ele><time>2026-04-18T10:00:02.999Z</time></trkpt><trkpt lat="44.49522931531716" lon="10.501673369722239"><ele>701.0</ele><time>2026-04-18T10:00:03.999Z</time></trkpt><trkpt lat="44.49529594297073" lon="10.501781428395162"><ele>701.0</ele><time>2026-04-18T10:00:04.999Z</time></trkpt><trkpt lat="44.49537645891372" lon="10.501877761286204"><ele>701.0</ele><time>2026-04-18T10:00:05.999Z</time></trkpt><trkpt lat="44.49543172301845" lon="10.501986667006712"><ele>701.0</ele><time>2026-04-18T10:00:06.999Z</time></trkpt><trkpt lat="44.49548102943033" lon="10.502101444288066"><ele>701.0</ele><time>2026-04-18T10:00:07.999Z</time></trkpt><trkpt lat="44.4955201726334" lon="10.502192189594176"><ele>701.0</ele><time>2026-04-18T10:00:08.999Z</time></trkpt><trkpt lat="44.49556054921359" lon="10.502281676166412"><ele>701.0</ele><time>2026-04-18T10:00:10.999Z</time></trkpt><trkpt lat="44.49587059069747" lon="10.50217864187356"><ele>701.0</ele><time>2026-04-18T10:00:12.999Z</time></trkpt><trkpt lat="44.49600039367497" lon="10.502183646888625"><ele>701.0</ele><time>2026-04-18T10:00:13.999Z</time></trkpt><trkpt lat="44.496110253196804" lon="10.502178347958587"><ele>701.0</ele><time>2026-04-18T10:00:14.999Z</time></trkpt><trkpt lat="44.4962157471957" lon="10.502187996154658"><ele>701.0</ele><time>2026-04-18T10:00:15.999Z</time></trkpt><trkpt lat="44.4962983821647" lon="10.502192679906072"><ele>701.0</ele><time>2026-04-18T10:00:16.999Z</time></trkpt><trkpt lat="44.4963636134198" lon="10.502202849623428"><ele>701.4</ele><time>2026-04-18T10:00:17.999Z</time></trkpt><trkpt lat="44.49645192691529" lon="10.502214175020978"><ele>701.8</ele><time>2026-04-18T10:00:18.999Z</time></trkpt><trkpt lat="44.49653400710761" lon="10.502204172593144"><ele>702.1999999999999</ele><time>2026-04-18T10:00:19.999Z</time></trkpt><trkpt lat="44.49661523321164" lon="10.502120419549762"><ele>702.5999999999999</ele><time>2026-04-18T10:00:21.999Z</time></trkpt><trkpt lat="44.49673188949295" lon="10.502050103075282"><ele>703.0</ele><time>2026-04-18T10:00:23.999Z</time></trkpt><trkpt lat="44.49682827971779" lon="10.502058843136279"><ele>703.0</ele><time>2026-04-18T10:00:24.999Z</time></trkpt><trkpt lat="44.4969338361635" lon="10.50209276819087"><ele>703.0</ele><time>2026-04-18T10:00:25.999Z</time></trkpt><trkpt lat="44.49701552560524" lon="10.502123548997012"><ele>703.0</ele><time>2026-04-18T10:00:26.999Z</time></trkpt><trkpt lat="44.49713496284041" lon="10.502124480399178"><ele>703.0</ele><time>2026-04-18T10:00:28.999Z</time></trkpt><trkpt lat="44.497233961650466" lon="10.502209467360313"><ele>703.0</ele><time>2026-04-18T10:00:30.999Z</time></trkpt><trkpt lat="44.49731050935067" lon="10.502252168287752"><ele>700.8</ele><time>2026-04-18T10:00:31.999Z</time></trkpt><trkpt lat="44.4973786344326" lon="10.50225675575782"><ele>698.5999999999999</ele><time>2026-04-18T10:00:32.999Z</time></trkpt><trkpt lat="44.497472811839295" lon="10.502257711430946"><ele>696.4000000000001</ele><time>2026-04-18T10:00:34.999Z</time></trkpt><trkpt lat="44.49760495534579" lon="10.502284563262624"><ele>694.2</ele><time>2026-04-18T10:00:36.999Z</time></trkpt><trkpt lat="44.49770772074898" lon="10.502335830948786"><ele>692.0</ele><time>2026-04-18T10:00:38.999Z</time></trkpt><trkpt lat="44.497833532692624" lon="10.502381466154292"><ele>692.0</ele><time>2026-04-18T10:00:40.999Z</time></trkpt><trkpt lat="44.49789750898466" lon="10.502390573779005"><ele>692.0</ele><time>2026-04-18T10:00:41.999Z</time></trkpt><trkpt lat="44.498001545285675" lon="10.502415813380326"><ele>692.0</ele><time>2026-04-18T10:00:43.999Z</time></trkpt><trkpt lat="44.498068698255935" lon="10.502393655884738"><ele>692.0</ele><time>2026-04-18T10:00:44.999Z</time></trkpt><trkpt lat="44.49814850820514" lon="10.5022716615203"><ele>692.0</ele><time>2026-04-18T10:00:46.999Z</time></trkpt><trkpt lat="44.49817739874333" lon="10.502180655057002"><ele>692.0</ele><time>2026-04-18T10:00:47.999Z</time></trkpt><trkpt lat="44.498222798496464" lon="10.502040764523608"><ele>689.3333333333333</ele><time>2026-04-18T10:00:49.999Z</time></trkpt><trkpt lat="44.49828709224774" lon="10.50201343032766"><ele>686.6666666666666</ele><time>2026-04-18T10:00:51.999Z</time></trkpt><trkpt lat="44.498359407122706" lon="10.502061710903623"><ele>684.0</ele><time>2026-04-18T10:00:53.999Z</time></trkpt><trkpt lat="44.49840591870449" lon="10.502133050818218"><ele>681.3333333333334</ele><time>2026-04-18T10:00:56.999Z</time></trkpt><trkpt lat="44.49845800798024" lon="10.502222301184945"><ele>678.6666666666667</ele><time>2026-04-18T10:00:58.999Z</time></trkpt><trkpt lat="44.49852354204841" lon="10.502271772328188"><ele>676.0</ele><time>2026-04-18T10:00:59.999Z</time></trkpt><trkpt lat="44.49861625042223" lon="10.502344602338537"><ele>676.0</ele><time>2026-04-18T10:01:00.999Z</time></trkpt><trkpt lat="44.49869795203444" lon="10.502385782547776"><ele>676.0</ele><time>2026-04-18T10:01:01.999Z</time></trkpt><trkpt lat="44.49875889333462" lon="10.50246193724488"><ele>676.0</ele><time>2026-04-18T10:01:02.999Z</time></trkpt><trkpt lat="44.49884281472025" lon="10.502547692849406"><ele>676.0</ele><time>2026-04-18T10:01:03.999Z</time></trkpt><trkpt lat="44.49881599373419" lon="10.50245968166499"><ele>676.0</ele><time>2026-04-18T10:01:04.999Z</time></trkpt><trkpt lat="44.4988773965067" lon="10.50249155581298"><ele>676.0</ele><time>2026-04-18T10:01:05.999Z</time></trkpt><trkpt lat="44.498971304032544" lon="10.50252458254186"><ele>672.8333333333334</ele><time>2026-04-18T10:01:07.999Z</time></trkpt><trkpt lat="44.499025194276385" lon="10.502582808975957"><ele>669.6666666666667</ele><time>2026-04-18T10:01:10Z</time></trkpt><trkpt lat="44.499089266518546" lon="10.502637093549446"><ele>666.5</ele><time>2026-04-18T10:01:12Z</time></trkpt><trkpt lat="44.49916823688178" lon="10.502676643368714"><ele>663.3333333333334</ele><time>2026-04-18T10:01:14Z</time></trkpt><trkpt lat="44.499258186063635" lon="10.502725510853642"><ele>660.1666666666666</ele><time>2026-04-18T10:01:16Z</time></trkpt><trkpt lat="44.4993305383889" lon="10.502774618426436"><ele>657.0</ele><time>2026-04-18T10:01:18Z</time></trkpt><trkpt lat="44.49937975889671" lon="10.502877737888761"><ele>656.0</ele><time>2026-04-18T10:01:20Z</time></trkpt><trkpt lat="44.49948448395507" lon="10.5029494033512"><ele>655.0</ele><time>2026-04-18T10:01:22Z</time></trkpt><trkpt lat="44.499557153606936" lon="10.503018200687132"><ele>654.0</ele><time>2026-04-18T10:01:23Z</time></trkpt><trkpt lat="44.499609464965864" lon="10.503075741480849"><ele>653.0</ele><time>2026-04-18T10:01:24Z</time></trkpt><trkpt lat="44.49969602230462" lon="10.503116473697576"><ele>652.0</ele><time>2026-04-18T10:01:26Z</time></trkpt><trkpt lat="44.49974983955186" lon="10.50322337534151"><ele>650.4000000000001</ele><time>2026-04-18T10:01:29Z</time></trkpt><trkpt lat="44.49982973379346" lon="10.503342157454414"><ele>648.8000000000001</ele><time>2026-04-18T10:01:31Z</time></trkpt><trkpt lat="44.49987887280951" lon="10.503470545182719"><ele>647.2</ele><time>2026-04-18T10:01:33Z</time></trkpt><trkpt lat="44.499918059249815" lon="10.503558124784636"><ele>645.6</ele><time>2026-04-18T10:01:34Z</time></trkpt><trkpt lat="44.49997455160833" lon="10.503627078229155"><ele>644.0</ele><time>2026-04-18T10:01:35Z</time></trkpt><trkpt lat="44.50009034716807" lon="10.503695219832629"><ele>643.0</ele><time>2026-04-18T10:01:37Z</time></trkpt><trkpt lat="44.50012753631399" lon="10.503776450800293"><ele>642.0</ele><time>2026-04-18T10:01:38Z</time></trkpt><trkpt lat="44.50017593716093" lon="10.503887895484588"><ele>641.0</ele><time>2026-04-18T10:01:39.999Z</time></trkpt><trkpt lat="44.50026860258472" lon="10.50397814170363"><ele>640.0</ele><time>2026-04-18T10:01:41.999Z</time></trkpt><trkpt lat="44.500316411926654" lon="10.504082844077258"><ele>639.0</ele><time>2026-04-18T10:01:43.999Z</time></trkpt><trkpt lat="44.50033990965691" lon="10.504217616846372"><ele>639.0</ele><time>2026-04-18T10:01:45.999Z</time></trkpt><trkpt lat="44.50038511713745" lon="10.504290859541326"><ele>639.0</ele><time>2026-04-18T10:01:46.999Z</time></trkpt><trkpt lat="44.50044375812283" lon="10.504362671850597"><ele>639.0</ele><time>2026-04-18T10:01:47.999Z</time></trkpt><trkpt lat="44.500499451177" lon="10.504431240261486"><ele>639.0</ele><time>2026-04-18T10:01:48.999Z</time></trkpt><trkpt lat="44.500590217410206" lon="10.504557404164263"><ele>639.0</ele><time>2026-04-18T10:01:50.999Z</time></trkpt><trkpt lat="44.50064506895387" lon="10.50464750018768"><ele>639.0</ele><time>2026-04-18T10:01:51.999Z</time></trkpt><trkpt lat="44.5007357434427" lon="10.50467921041271"><ele>635.6666666666666</ele><time>2026-04-18T10:01:53.999Z</time></trkpt><trkpt lat="44.500800269336345" lon="10.504718495762125"><ele>632.3333333333334</ele><time>2026-04-18T10:01:54.999Z</time></trkpt><trkpt lat="44.50089545664895" lon="10.50475356996706"><ele>629.0</ele><time>2026-04-18T10:01:56.999Z</time></trkpt><trkpt lat="44.50095953457778" lon="10.504719022758753"><ele>625.6666666666667</ele><time>2026-04-18T10:01:57.999Z</time></trkpt><trkpt lat="44.50103374821601" lon="10.504700509727193"><ele>622.3333333333334</ele><time>2026-04-18T10:01:58.999Z</time></trkpt><trkpt lat="44.501107165015895" lon="10.504676549055244"><ele>619.0</ele><time>2026-04-18T10:01:59.999Z</time></trkpt><trkpt lat="44.50117238755567" lon="10.504659658795177"><ele>619.0</ele><time>2026-04-18T10:02:00.999Z</time></trkpt><trkpt lat="44.50123579924414" lon="10.504712784145667"><ele>619.0</ele><time>2026-04-18T10:02:02.999Z</time></trkpt><trkpt lat="44.501214220708434" lon="10.504846824965172"><ele>619.0</ele><time>2026-04-18T10:02:04.999Z</time></trkpt><trkpt lat="44.50119293651483" lon="10.504945641273908"><ele>619.0</ele><time>2026-04-18T10:02:05.999Z</time></trkpt><trkpt lat="44.50117181052936" lon="10.505055457525593"><ele>619.0</ele><time>2026-04-18T10:02:06.999Z</time></trkpt><trkpt lat="44.50114235814848" lon="10.505155049077212"><ele>619.0</ele><time>2026-04-18T10:02:07.999Z</time></trkpt><trkpt lat="44.501107217022906" lon="10.505230246075124"><ele>619.0</ele><time>2026-04-18T10:02:08.999Z</time></trkpt><trkpt lat="44.501053181985284" lon="10.50530616092903"><ele>619.0</ele><time>2026-04-18T10:02:09.999Z</time></trkpt><trkpt lat="44.50099424846765" lon="10.50537657160683"><ele>619.0</ele><time>2026-04-18T10:02:10.999Z</time></trkpt><trkpt lat="44.50090215597095" lon="10.505470476335487"><ele>619.0</ele><time>2026-04-18T10:02:11.999Z</time></trkpt><trkpt lat="44.500810635530655" lon="10.505569523306894"><ele>619.0</ele><time>2026-04-18T10:02:12.999Z</time></trkpt><trkpt lat="44.500727900866785" lon="10.505653927440878"><ele>617.3333333333334</ele><time>2026-04-18T10:02:13.999Z</time></trkpt><trkpt lat="44.50066636792327" lon="10.505735791383808"><ele>615.6666666666667</ele><time>2026-04-18T10:02:14.999Z</time></trkpt><trkpt lat="44.500611134149764" lon="10.505844289043422"><ele>614.0</ele><time>2026-04-18T10:02:15.999Z</time></trkpt><trkpt lat="44.50059134139882" lon="10.505970495325297"><ele>612.3333333333334</ele><time>2026-04-18T10:02:16.999Z</time></trkpt><trkpt lat="44.50057270238002" lon="10.506079291142173"><ele>610.6666666666666</ele><time>2026-04-18T10:02:17.999Z</time></trkpt><trkpt lat="44.50052825757415" lon="10.50620000562619"><ele>609.0</ele><time>2026-04-18T10:02:19.999Z</time></trkpt><trkpt lat="44.500523483509696" lon="10.506310667177353"><ele>609.0</ele><time>2026-04-18T10:02:20.999Z</time></trkpt><trkpt lat="44.50053996973701" lon="10.50645497532667"><ele>609.0</ele><time>2026-04-18T10:02:21.999Z</time></trkpt><trkpt lat="44.5005695087389" lon="10.506576909981957"><ele>609.0</ele><time>2026-04-18T10:02:22.999Z</time></trkpt><trkpt lat="44.50061655941871" lon="10.506738742212248"><ele>609.0</ele><time>2026-04-18T10:02:24.999Z</time></trkpt><trkpt lat="44.500571472151776" lon="10.506878179775041"><ele>609.0</ele><time>2026-04-18T10:02:25.999Z</time></trkpt><trkpt lat="44.500616617994154" lon="10.506941467072343"><ele>609.0</ele><time>2026-04-18T10:02:28.999Z</time></trkpt><trkpt lat="44.500693906549856" lon="10.507047983050077"><ele>609.0</ele><time>2026-04-18T10:02:31.999Z</time></trkpt><trkpt lat="44.50079325837211" lon="10.507176757743169"><ele>609.0</ele><time>2026-04-18T10:02:33.999Z</time></trkpt><trkpt lat="44.50085077056438" lon="10.50724466094109"><ele>609.0</ele><time>2026-04-18T10:02:34.999Z</time></trkpt><trkpt lat="44.5009181086587" lon="10.507297505478013"><ele>609.0</ele><time>2026-04-18T10:02:35.999Z</time></trkpt><trkpt lat="44.50098229808536" lon="10.507335367152697"><ele>608.8333333333334</ele><time>2026-04-18T10:02:36.999Z</time></trkpt><trkpt lat="44.50107430993123" lon="10.507344852306607"><ele>608.6666666666666</ele><time>2026-04-18T10:02:38.999Z</time></trkpt><trkpt lat="44.50117981131631" lon="10.507370572608009"><ele>608.5</ele><time>2026-04-18T10:02:40.999Z</time></trkpt><trkpt lat="44.501277297167604" lon="10.507423068483163"><ele>608.3333333333333</ele><time>2026-04-18T10:02:42.999Z</time></trkpt><trkpt lat="44.501330652857035" lon="10.507475452561032"><ele>608.1666666666666</ele><time>2026-04-18T10:02:43.999Z</time></trkpt><trkpt lat="44.50135549565304" lon="10.507557666448527"><ele>608.0</ele><time>2026-04-18T10:02:44.999Z</time></trkpt><trkpt lat="44.50139851122888" lon="10.507678454256602"><ele>608.8</ele><time>2026-04-18T10:02:46.999Z</time></trkpt><trkpt lat="44.50149589776977" lon="10.507791137729509"><ele>609.5999999999999</ele><time>2026-04-18T10:02:48.999Z</time></trkpt><trkpt lat="44.50155869422194" lon="10.507828833415482"><ele>610.4000000000001</ele><time>2026-04-18T10:02:49.999Z</time></trkpt><trkpt lat="44.50161956395828" lon="10.50787836070534"><ele>611.2</ele><time>2026-04-18T10:02:50.999Z</time></trkpt><trkpt lat="44.50170653047425" lon="10.507947514551246"><ele>612.0</ele><time>2026-04-18T10:02:52.999Z</time></trkpt><trkpt lat="44.50179453781616" lon="10.508007136165494"><ele>612.2</ele><time>2026-04-18T10:02:54.999Z</time></trkpt><trkpt lat="44.50188946394303" lon="10.508055433479676"><ele>612.4000000000001</ele><time>2026-04-18T10:02:56.999Z</time></trkpt><trkpt lat="44.50196833259249" lon="10.508095561097079"><ele>612.5999999999999</ele><time>2026-04-18T10:03:01.999Z</time></trkpt><trkpt lat="44.502036974266396" lon="10.508130485388577"><ele>612.8</ele><time>2026-04-18T10:03:04.999Z</time></trkpt><trkpt lat="44.5021132836848" lon="10.5081693109609"><ele>613.0</ele><time>2026-04-18T10:03:07.999Z</time></trkpt><trkpt lat="44.50206758786769" lon="10.507961997041496"><ele>613.0</ele><time>2026-04-18T10:03:11.999Z</time></trkpt><trkpt lat="44.5019994267175" lon="10.507884999196083"><ele>613.0</ele><time>2026-04-18T10:03:13.999Z</time></trkpt><trkpt lat="44.50191678279876" lon="10.507916755724779"><ele>613.0</ele><time>2026-04-18T10:03:16Z</time></trkpt><trkpt lat="44.50182846113548" lon="10.507963787800561"><ele>613.0</ele><time>2026-04-18T10:03:18Z</time></trkpt><trkpt lat="44.50175353118761" lon="10.507959861429395"><ele>613.0</ele><time>2026-04-18T10:03:21Z</time></trkpt><trkpt lat="44.50167970529192" lon="10.507914153534383"><ele>613.0</ele><time>2026-04-18T10:03:26Z</time></trkpt><trkpt lat="44.501622063379244" lon="10.507834066077615"><ele>613.0</ele><time>2026-04-18T10:03:28Z</time></trkpt><trkpt lat="44.5015466326168" lon="10.507778423514049"><ele>613.0</ele><time>2026-04-18T10:03:30Z</time></trkpt><trkpt lat="44.501466002670206" lon="10.507758870755668"><ele>613.0</ele><time>2026-04-18T10:03:32Z</time></trkpt><trkpt lat="44.50141448825928" lon="10.507851955286005"><ele>613.0</ele><time>2026-04-18T10:03:34Z</time></trkpt><trkpt lat="44.50138349051254" lon="10.50802332831505"><ele>613.0</ele><time>2026-04-18T10:03:36Z</time></trkpt><trkpt lat="44.50135029695931" lon="10.508196250396859"><ele>613.0</ele><time>2026-04-18T10:03:38Z</time></trkpt><trkpt lat="44.50130814705055" lon="10.508368706788247"><ele>613.0</ele><time>2026-04-18T10:03:40Z</time></trkpt><trkpt lat="44.50125749669941" lon="10.508548720390888"><ele>613.0</ele><time>2026-04-18T10:03:42Z</time></trkpt><trkpt lat="44.50126169354583" lon="10.508645527493131"><ele>613.0</ele><time>2026-04-18T10:03:43Z</time></trkpt><trkpt lat="44.50129191492487" lon="10.50874605498728"><ele>613.0</ele><time>2026-04-18T10:03:44Z</time></trkpt><trkpt lat="44.50133591125678" lon="10.508826887888747"><ele>611.5</ele><time>2026-04-18T10:03:45Z</time></trkpt><trkpt lat="44.50140330707137" lon="10.508868269971428"><ele>610.0</ele><time>2026-04-18T10:03:46Z</time></trkpt><trkpt lat="44.501464131112954" lon="10.508916371417563"><ele>608.5</ele><time>2026-04-18T10:03:47Z</time></trkpt><trkpt lat="44.501506124858324" lon="10.50898324026916"><ele>607.0</ele><time>2026-04-18T10:03:48Z</time></trkpt><trkpt lat="44.5015530228322" lon="10.50909672955519"><ele>605.5</ele><time>2026-04-18T10:03:53.999Z</time></trkpt><trkpt lat="44.5015923868423" lon="10.509173299724795"><ele>604.0</ele><time>2026-04-18T10:03:56.999Z</time></trkpt><trkpt lat="44.50169341661931" lon="10.509195400633843"><ele>604.0</ele><time>2026-04-18T10:04:02.999Z</time></trkpt><trkpt lat="44.50175836268394" lon="10.509219941006679"><ele>604.0</ele><time>2026-04-18T10:04:06.999Z</time></trkpt><trkpt lat="44.50182089153044" lon="10.509236781817874"><ele>604.0</ele><time>2026-04-18T10:04:08.999Z</time></trkpt><trkpt lat="44.501888808687745" lon="10.509252761401513"><ele>604.0</ele><time>2026-04-18T10:04:10.999Z</time></trkpt><trkpt lat="44.50195307466415" lon="10.509336927503405"><ele>604.0</ele><time>2026-04-18T10:04:14.999Z</time></trkpt><trkpt lat="44.50215818349456" lon="10.509527456977564"><ele>603.0</ele><time>2026-04-18T10:04:17.999Z</time></trkpt><trkpt lat="44.50222493894892" lon="10.50957550133099"><ele>602.0</ele><time>2026-04-18T10:04:19.999Z</time></trkpt><trkpt lat="44.502293827984836" lon="10.509627199728126"><ele>601.0</ele><time>2026-04-18T10:04:21.999Z</time></trkpt><trkpt lat="44.5023856240059" lon="10.50968761499536"><ele>600.0</ele><time>2026-04-18T10:04:23.999Z</time></trkpt><trkpt lat="44.50247635236649" lon="10.509755515692081"><ele>599.0</ele><time>2026-04-18T10:04:25.999Z</time></trkpt><trkpt lat="44.50255853175989" lon="10.509817134769007"><ele>599.0</ele><time>2026-04-18T10:04:27.999Z</time></trkpt><trkpt lat="44.50264366544635" lon="10.509871476536192"><ele>599.0</ele><time>2026-04-18T10:04:29.999Z</time></trkpt><trkpt lat="44.5027298399697" lon="10.509951696318954"><ele>599.0</ele><time>2026-04-18T10:04:31.999Z</time></trkpt><trkpt lat="44.50280104339131" lon="10.510044824762787"><ele>599.0</ele><time>2026-04-18T10:04:33.999Z</time></trkpt><trkpt lat="44.50285170455033" lon="10.510131163065251"><ele>599.0</ele><time>2026-04-18T10:04:35.999Z</time></trkpt><trkpt lat="44.502899418411886" lon="10.510245653612794"><ele>599.0</ele><time>2026-04-18T10:04:37.999Z</time></trkpt><trkpt lat="44.5028614115593" lon="10.51036727009287"><ele>599.0</ele><time>2026-04-18T10:04:39.999Z</time></trkpt><trkpt lat="44.50278082886851" lon="10.510426195858864"><ele>599.0</ele><time>2026-04-18T10:04:41.999Z</time></trkpt><trkpt lat="44.502740158374266" lon="10.51049909718534"><ele>599.0</ele><time>2026-04-18T10:04:43.999Z</time></trkpt><trkpt lat="44.50279551252255" lon="10.510619300844013"><ele>599.0</ele><time>2026-04-18T10:04:46.999Z</time></trkpt><trkpt lat="44.50286005136333" lon="10.510665626613095"><ele>599.0</ele><time>2026-04-18T10:04:48.999Z</time></trkpt><trkpt lat="44.50292862833131" lon="10.510600617344359"><ele>599.0</ele><time>2026-04-18T10:04:50.999Z</time></trkpt><trkpt lat="44.502981404154454" lon="10.510518922814162"><ele>599.0</ele><time>2026-04-18T10:04:51.999Z</time></trkpt><trkpt lat="44.50303519986887" lon="10.510433150079882"><ele>599.0</ele><time>2026-04-18T10:04:52.999Z</time></trkpt><trkpt lat="44.50309018630671" lon="10.510367027194137"><ele>599.0</ele><time>2026-04-18T10:04:53.999Z</time></trkpt><trkpt lat="44.503152528959234" lon="10.510259046693575"><ele>599.0</ele><time>2026-04-18T10:04:55.999Z</time></trkpt><trkpt lat="44.503205709487354" lon="10.510204785249385"><ele>599.0</ele><time>2026-04-18T10:04:57.999Z</time></trkpt><trkpt lat="44.50328034516921" lon="10.510159841430486"><ele>599.0</ele><time>2026-04-18T10:05:33Z</time></trkpt><trkpt lat="44.50333723020371" lon="10.510109581970452"><ele>599.0</ele><time>2026-04-18T10:05:36Z</time></trkpt><trkpt lat="44.50341619401015" lon="10.51013893052146"><ele>599.0</ele><time>2026-04-18T10:05:38Z</time></trkpt><trkpt lat="44.50344642711938" lon="10.510252676049971"><ele>599.0</ele><time>2026-04-18T10:05:40Z</time></trkpt><trkpt lat="44.50346033435244" lon="10.510381249075811"><ele>599.0</ele><time>2026-04-18T10:05:42Z</time></trkpt><trkpt lat="44.50343709909369" lon="10.510508664623384"><ele>599.0</ele><time>2026-04-18T10:05:44Z</time></trkpt><trkpt lat="44.50341104152011" lon="10.510623690985042"><ele>599.5</ele><time>2026-04-18T10:06:02.999Z</time></trkpt><trkpt lat="44.503437382551446" lon="10.510733686823157"><ele>600.0</ele><time>2026-04-18T10:06:04.999Z</time></trkpt><trkpt lat="44.503479352050974" lon="10.51080185649857"><ele>600.5</ele><time>2026-04-18T10:06:06.999Z</time></trkpt><trkpt lat="44.5034747011818" lon="10.510890402332375"><ele>601.0</ele><time>2026-04-18T10:06:09.999Z</time></trkpt><trkpt lat="44.503382129333396" lon="10.510924712490542"><ele>601.5</ele><time>2026-04-18T10:06:12.999Z</time></trkpt><trkpt lat="44.503307104752494" lon="10.51094273827085"><ele>602.0</ele><time>2026-04-18T10:06:14.999Z</time></trkpt><trkpt lat="44.50332294629542" lon="10.51103965294813"><ele>602.0</ele><time>2026-04-18T10:06:17.999Z</time></trkpt><trkpt lat="44.50332508479888" lon="10.511133937472156"><ele>602.0</ele><time>2026-04-18T10:06:24.999Z</time></trkpt><trkpt lat="44.50332407827435" lon="10.51122965912275"><ele>602.0</ele><time>2026-04-18T10:06:34.999Z</time></trkpt><trkpt lat="44.503349315850954" lon="10.511351158210754"><ele>602.0</ele><time>2026-04-18T10:06:36.999Z</time></trkpt><trkpt lat="44.50333769727984" lon="10.51145284838057"><ele>602.0</ele><time>2026-04-18T10:06:39.999Z</time></trkpt><trkpt lat="44.503286447803966" lon="10.511550327207575"><ele>602.0</ele><time>2026-04-18T10:06:58.999Z</time></trkpt><trkpt lat="44.50329960748924" lon="10.511678523451153"><ele>603.3333333333333</ele><time>2026-04-18T10:07:05.999Z</time></trkpt><trkpt lat="44.50326122022027" lon="10.511807844311013"><ele>604.6666666666666</ele><time>2026-04-18T10:07:07.999Z</time></trkpt><trkpt lat="44.503223963640465" lon="10.511956552509654"><ele>606.0</ele><time>2026-04-18T10:07:09.999Z</time></trkpt><trkpt lat="44.50317294783847" lon="10.512030235673944"><ele>607.3333333333334</ele><time>2026-04-18T10:07:24.999Z</time></trkpt><trkpt lat="44.5031124236127" lon="10.5120999012384"><ele>608.6666666666667</ele><time>2026-04-18T10:07:27Z</time></trkpt><trkpt lat="44.503039258657004" lon="10.51212254906724"><ele>610.0</ele><time>2026-04-18T10:07:30Z</time></trkpt><trkpt lat="44.50297448909652" lon="10.512136240878155"><ele>611.3333333333334</ele><time>2026-04-18T10:07:31.999Z</time></trkpt><trkpt lat="44.50289443962521" lon="10.512143483400665"><ele>612.6666666666667</ele><time>2026-04-18T10:07:33.999Z</time></trkpt><trkpt lat="44.5028404639764" lon="10.51219409485655"><ele>614.0</ele><time>2026-04-18T10:07:35.999Z</time></trkpt><trkpt lat="44.50286274009036" lon="10.512327787243505"><ele>615.3333333333334</ele><time>2026-04-18T10:07:37.999Z</time></trkpt><trkpt lat="44.50285904178359" lon="10.512427364142242"><ele>616.6666666666666</ele><time>2026-04-18T10:07:39.999Z</time></trkpt><trkpt lat="44.50278925842556" lon="10.512460074390443"><ele>618.0</ele><time>2026-04-18T10:07:53.999Z</time></trkpt><trkpt lat="44.502715923421725" lon="10.512469678469186"><ele>618.0000000000001</ele><time>2026-04-18T10:08:07.999Z</time></trkpt><trkpt lat="44.50264744969007" lon="10.512480748992731"><ele>618.0</ele><time>2026-04-18T10:08:10.999Z</time></trkpt><trkpt lat="44.502631845897135" lon="10.512573173405515"><ele>618.0</ele><time>2026-04-18T10:08:14.999Z</time></trkpt><trkpt lat="44.50263476986051" lon="10.51267051157563"><ele>618.0</ele><time>2026-04-18T10:09:56.999Z</time></trkpt><trkpt lat="44.50263199255069" lon="10.512775848012064"><ele>618.0</ele><time>2026-04-18T10:09:58.999Z</time></trkpt><trkpt lat="44.502601094431725" lon="10.512857092743674"><ele>618.0000000000001</ele><time>2026-04-18T10:10:00.999Z</time></trkpt><trkpt lat="44.502528779865365" lon="10.512928932065718"><ele>618.0</ele><time>2026-04-18T10:10:02.999Z</time></trkpt><trkpt lat="44.50249060178376" lon="10.513012652273437"><ele>617.6</ele><time>2026-04-18T10:10:05.999Z</time></trkpt><trkpt lat="44.50243066622283" lon="10.513137382183173"><ele>617.1999999999999</ele><time>2026-04-18T10:10:16.999Z</time></trkpt><trkpt lat="44.50240285155206" lon="10.51327948246514"><ele>616.8</ele><time>2026-04-18T10:10:18.999Z</time></trkpt><trkpt lat="44.502365633782794" lon="10.51338916586271"><ele>616.4</ele><time>2026-04-18T10:10:20.999Z</time></trkpt><trkpt lat="44.50232830621343" lon="10.513469898633227"><ele>616.0</ele><time>2026-04-18T10:10:21.999Z</time></trkpt><trkpt lat="44.502253013837546" lon="10.513627601602101"><ele>616.0</ele><time>2026-04-18T10:10:23.999Z</time></trkpt><trkpt lat="44.50221484636336" lon="10.513715845578139"><ele>616.0</ele><time>2026-04-18T10:10:24.999Z</time></trkpt><trkpt lat="44.502178344661615" lon="10.513788037324208"><ele>616.0</ele><time>2026-04-18T10:10:25.999Z</time></trkpt><trkpt lat="44.5021015889708" lon="10.513929874735874"><ele>616.0</ele><time>2026-04-18T10:10:27.999Z</time></trkpt><trkpt lat="44.50205880004143" lon="10.514016110389456"><ele>616.0</ele><time>2026-04-18T10:10:28.999Z</time></trkpt><trkpt lat="44.501991441409714" lon="10.514151716226065"><ele>616.2</ele><time>2026-04-18T10:10:30.999Z</time></trkpt><trkpt lat="44.5019502115044" lon="10.514226748844882"><ele>616.4000000000001</ele><time>2026-04-18T10:10:31.999Z</time></trkpt><trkpt lat="44.50191096701702" lon="10.514303954848161"><ele>616.6</ele><time>2026-04-18T10:10:32.999Z</time></trkpt><trkpt lat="44.50187580806221" lon="10.514377696897313"><ele>616.8000000000001</ele><time>2026-04-18T10:10:33.999Z</time></trkpt><trkpt lat="44.50180397264666" lon="10.514517409967764"><ele>617.0</ele><time>2026-04-18T10:10:35.999Z</time></trkpt><trkpt lat="44.50172652304601" lon="10.514668278732259"><ele>617.2</ele><time>2026-04-18T10:10:37.999Z</time></trkpt><trkpt lat="44.50168509360509" lon="10.514736669629889"><ele>617.4000000000001</ele><time>2026-04-18T10:10:38.999Z</time></trkpt><trkpt lat="44.50164348065677" lon="10.514819279800445"><ele>617.5999999999999</ele><time>2026-04-18T10:10:39.999Z</time></trkpt><trkpt lat="44.50157264831536" lon="10.514952707704786"><ele>617.8</ele><time>2026-04-18T10:10:41.999Z</time></trkpt><trkpt lat="44.50153623956593" lon="10.51503748850266"><ele>618.0</ele><time>2026-04-18T10:10:42.999Z</time></trkpt><trkpt lat="44.501467271692725" lon="10.515187601758093"><ele>618.0</ele><time>2026-04-18T10:10:44.999Z</time></trkpt><trkpt lat="44.50140012476547" lon="10.515312975436103"><ele>618.0</ele><time>2026-04-18T10:10:46.999Z</time></trkpt><trkpt lat="44.50137284192698" lon="10.515394638894659"><ele>618.0</ele><time>2026-04-18T10:10:47.999Z</time></trkpt><trkpt lat="44.501310446107084" lon="10.515526594805257"><ele>618.0</ele><time>2026-04-18T10:10:49.999Z</time></trkpt><trkpt lat="44.501251065688585" lon="10.515662009709114"><ele>618.0</ele><time>2026-04-18T10:10:51.999Z</time></trkpt><trkpt lat="44.501184081451065" lon="10.515802269631875"><ele>617.8</ele><time>2026-04-18T10:10:53.999Z</time></trkpt><trkpt lat="44.501133016666756" lon="10.515938889325806"><ele>617.5999999999999</ele><time>2026-04-18T10:10:55.999Z</time></trkpt><trkpt lat="44.50106465938206" lon="10.516047525788556"><ele>617.4000000000001</ele><time>2026-04-18T10:10:57.999Z</time></trkpt><trkpt lat="44.501009053390284" lon="10.516153312938918"><ele>617.2</ele><time>2026-04-18T10:10:59.999Z</time></trkpt><trkpt lat="44.500955803055206" lon="10.51627850822567"><ele>617.0</ele><time>2026-04-18T10:11:01.999Z</time></trkpt><trkpt lat="44.50091073911224" lon="10.516390731034901"><ele>617.6</ele><time>2026-04-18T10:11:03.999Z</time></trkpt><trkpt lat="44.50086893447259" lon="10.51650931392156"><ele>618.2</ele><time>2026-04-18T10:11:05.999Z</time></trkpt><trkpt lat="44.50079885270762" lon="10.51657786146368"><ele>618.8</ele><time>2026-04-18T10:11:07.999Z</time></trkpt><trkpt lat="44.50072841312596" lon="10.516672367212204"><ele>619.4</ele><time>2026-04-18T10:11:09.999Z</time></trkpt><trkpt lat="44.500666954451155" lon="10.516781874091974"><ele>620.0</ele><time>2026-04-18T10:11:11.999Z</time></trkpt><trkpt lat="44.500615567566605" lon="10.516877170383173"><ele>620.0</ele><time>2026-04-18T10:11:13.999Z</time></trkpt><trkpt lat="44.50058791399207" lon="10.516988020100369"><ele>620.0</ele><time>2026-04-18T10:11:15.999Z</time></trkpt><trkpt lat="44.50056538511473" lon="10.517155730678848"><ele>620.0</ele><time>2026-04-18T10:11:17.999Z</time></trkpt><trkpt lat="44.500549501091676" lon="10.517309384687326"><ele>620.0</ele><time>2026-04-18T10:11:19.999Z</time></trkpt><trkpt lat="44.50053125446142" lon="10.51745401221513"><ele>620.0</ele><time>2026-04-18T10:11:21.999Z</time></trkpt><trkpt lat="44.50051474862644" lon="10.517585174700306"><ele>621.5</ele><time>2026-04-18T10:11:23.999Z</time></trkpt><trkpt lat="44.50050382930236" lon="10.517687185291548"><ele>623.0</ele><time>2026-04-18T10:11:25.999Z</time></trkpt><trkpt lat="44.500489217303766" lon="10.517773480054313"><ele>624.5</ele><time>2026-04-18T10:11:28.999Z</time></trkpt><trkpt lat="44.5005149071026" lon="10.517854507073343"><ele>626.0</ele><time>2026-04-18T10:12:08Z</time></trkpt><trkpt lat="44.50057721647136" lon="10.518006861843187"><ele>627.5</ele><time>2026-04-18T10:12:10Z</time></trkpt><trkpt lat="44.500617359522714" lon="10.51809695970624"><ele>629.0</ele><time>2026-04-18T10:12:11Z</time></trkpt><trkpt lat="44.50066753641743" lon="10.5181789592136"><ele>630.1666666666666</ele><time>2026-04-18T10:12:12Z</time></trkpt><trkpt lat="44.500725505239785" lon="10.518266618585837"><ele>631.3333333333333</ele><time>2026-04-18T10:12:13Z</time></trkpt><trkpt lat="44.50078386507849" lon="10.518342715021117"><ele>632.5</ele><time>2026-04-18T10:12:14Z</time></trkpt><trkpt lat="44.50082392635402" lon="10.51843975278213"><ele>633.6666666666666</ele><time>2026-04-18T10:12:15Z</time></trkpt><trkpt lat="44.500868353005686" lon="10.518521606729815"><ele>634.8333333333334</ele><time>2026-04-18T10:12:16Z</time></trkpt><trkpt lat="44.500905060552874" lon="10.518599940596093"><ele>636.0</ele><time>2026-04-18T10:12:17Z</time></trkpt><trkpt lat="44.500954800584424" lon="10.518684671902916"><ele>637.2857142857142</ele><time>2026-04-18T10:12:18Z</time></trkpt><trkpt lat="44.50101023044087" lon="10.51876388661098"><ele>638.5714285714287</ele><time>2026-04-18T10:12:20Z</time></trkpt><trkpt lat="44.50098493702985" lon="10.518849008558885"><ele>639.8571428571429</ele><time>2026-04-18T10:12:23Z</time></trkpt><trkpt lat="44.50096386311052" lon="10.518963525950683"><ele>641.1428571428571</ele><time>2026-04-18T10:12:33Z</time></trkpt><trkpt lat="44.50095254997133" lon="10.519064679179372"><ele>642.4285714285713</ele><time>2026-04-18T10:12:36Z</time></trkpt><trkpt lat="44.50093444237836" lon="10.519164031039807"><ele>643.7142857142858</ele><time>2026-04-18T10:12:46Z</time></trkpt><trkpt lat="44.50092345703939" lon="10.519251506618632"><ele>645.0</ele><time>2026-04-18T10:12:48Z</time></trkpt><trkpt lat="44.50090346812913" lon="10.519343073803201"><ele>645.0</ele><time>2026-04-18T10:12:52Z</time></trkpt><trkpt lat="44.50086539880197" lon="10.51946094894097"><ele>645.0</ele><time>2026-04-18T10:12:55Z</time></trkpt><trkpt lat="44.500814594565426" lon="10.519544378486053"><ele>645.0</ele><time>2026-04-18T10:12:58Z</time></trkpt><trkpt lat="44.500754381634266" lon="10.519581105679904"><ele>645.0</ele><time>2026-04-18T10:13:00Z</time></trkpt><trkpt lat="44.500838481252295" lon="10.519665275041145"><ele>645.0</ele><time>2026-04-18T10:13:01Z</time></trkpt><trkpt lat="44.50082526315178" lon="10.519782087153274"><ele>645.0</ele><time>2026-04-18T10:13:04Z</time></trkpt><trkpt lat="44.50081562612157" lon="10.51988461599835"><ele>646.1666666666666</ele><time>2026-04-18T10:13:06Z</time></trkpt><trkpt lat="44.50080870806523" lon="10.520004162851638"><ele>647.3333333333334</ele><time>2026-04-18T10:13:08Z</time></trkpt><trkpt lat="44.5008152251864" lon="10.520145446496306"><ele>648.5</ele><time>2026-04-18T10:13:10Z</time></trkpt><trkpt lat="44.50085375129826" lon="10.52023892904351"><ele>649.6666666666667</ele><time>2026-04-18T10:13:13Z</time></trkpt><trkpt lat="44.50078329981034" lon="10.520286759958122"><ele>650.8333333333334</ele><time>2026-04-18T10:13:21Z</time></trkpt><trkpt lat="44.5007106187086" lon="10.52019147970691"><ele>652.0</ele><time>2026-04-18T10:13:23Z</time></trkpt><trkpt lat="44.50060030156657" lon="10.52023731727719"><ele>652.0</ele><time>2026-04-18T10:13:26Z</time></trkpt><trkpt lat="44.50056887484767" lon="10.520325195447116"><ele>652.0</ele><time>2026-04-18T10:13:28Z</time></trkpt><trkpt lat="44.5004886159241" lon="10.520331973883307"><ele>652.0</ele><time>2026-04-18T10:13:31Z</time></trkpt><trkpt lat="44.50043475586096" lon="10.520271567355177"><ele>652.0</ele><time>2026-04-18T10:13:33Z</time></trkpt><trkpt lat="44.500374986341335" lon="10.52018140476983"><ele>652.0</ele><time>2026-04-18T10:13:35Z</time></trkpt><trkpt lat="44.50032131705387" lon="10.52005643805517"><ele>652.0</ele><time>2026-04-18T10:13:37Z</time></trkpt><trkpt lat="44.500287647234664" lon="10.51993736793371"><ele>651.5</ele><time>2026-04-18T10:13:39Z</time></trkpt><trkpt lat="44.500259785012624" lon="10.51979123565591"><ele>651.0</ele><time>2026-04-18T10:13:41Z</time></trkpt><trkpt lat="44.50021978198516" lon="10.519682904784256"><ele>650.5</ele><time>2026-04-18T10:13:43Z</time></trkpt><trkpt lat="44.500149156169165" lon="10.519660873933452"><ele>650.0</ele><time>2026-04-18T10:13:47Z</time></trkpt><trkpt lat="44.5001352588396" lon="10.519794133751082"><ele>649.5</ele><time>2026-04-18T10:13:50Z</time></trkpt><trkpt lat="44.500100584159874" lon="10.519883922461986"><ele>649.0</ele><time>2026-04-18T10:13:52Z</time></trkpt><trkpt lat="44.50007708303815" lon="10.519968707042299"><ele>649.0</ele><time>2026-04-18T10:13:54Z</time></trkpt><trkpt lat="44.500041902499625" lon="10.520077328991395"><ele>649.0</ele><time>2026-04-18T10:13:56Z</time></trkpt><trkpt lat="44.50001633388233" lon="10.520165576840066"><ele>649.0</ele><time>2026-04-18T10:13:58Z</time></trkpt><trkpt lat="44.499969294719456" lon="10.52023192638816"><ele>649.0</ele><time>2026-04-18T10:14:00Z</time></trkpt><trkpt lat="44.49989784222819" lon="10.520292502687553"><ele>649.0</ele><time>2026-04-18T10:14:02Z</time></trkpt><trkpt lat="44.499829219610525" lon="10.520361409893503"><ele>649.0</ele><time>2026-04-18T10:14:04Z</time></trkpt><trkpt lat="44.499741306550106" lon="10.520482298333807"><ele>649.8000000000001</ele><time>2026-04-18T10:14:06Z</time></trkpt><trkpt lat="44.49968079610767" lon="10.520583731007592"><ele>650.6</ele><time>2026-04-18T10:14:08Z</time></trkpt><trkpt lat="44.49959449864604" lon="10.520684487983887"><ele>651.4</ele><time>2026-04-18T10:14:10Z</time></trkpt><trkpt lat="44.499518150838604" lon="10.520767014267493"><ele>652.2</ele><time>2026-04-18T10:14:12Z</time></trkpt><trkpt lat="44.4994790044687" lon="10.520837395228044"><ele>653.0</ele><time>2026-04-18T10:14:14Z</time></trkpt><trkpt lat="44.4994528934195" lon="10.520965992113924"><ele>653.0</ele><time>2026-04-18T10:14:22Z</time></trkpt><trkpt lat="44.499411187739845" lon="10.521099104956342"><ele>653.0</ele><time>2026-04-18T10:14:24Z</time></trkpt><trkpt lat="44.49939433435224" lon="10.521194075208046"><ele>653.0</ele><time>2026-04-18T10:14:25Z</time></trkpt><trkpt lat="44.499359084327935" lon="10.521340955567803"><ele>653.0</ele><time>2026-04-18T10:14:27Z</time></trkpt><trkpt lat="44.49931847758186" lon="10.521480845261028"><ele>653.0</ele><time>2026-04-18T10:14:29Z</time></trkpt><trkpt lat="44.499315307475214" lon="10.521600061164605"><ele>655.5999999999999</ele><time>2026-04-18T10:14:31Z</time></trkpt><trkpt lat="44.49932583258418" lon="10.521749535096117"><ele>658.1999999999999</ele><time>2026-04-18T10:14:33Z</time></trkpt><trkpt lat="44.49930482201824" lon="10.521836737327927"><ele>660.8</ele><time>2026-04-18T10:14:34Z</time></trkpt><trkpt lat="44.49925443790187" lon="10.521962044528932"><ele>663.4</ele><time>2026-04-18T10:14:36Z</time></trkpt><trkpt lat="44.499195552350635" lon="10.522083013316877"><ele>666.0</ele><time>2026-04-18T10:14:38Z</time></trkpt><trkpt lat="44.499285413050465" lon="10.522038974737963"><ele>666.0</ele><time>2026-04-18T10:14:45Z</time></trkpt><trkpt lat="44.49933390381363" lon="10.521972397796054"><ele>666.0</ele><time>2026-04-18T10:14:46Z</time></trkpt><trkpt lat="44.49940521655231" lon="10.521875192750032"><ele>666.0</ele><time>2026-04-18T10:14:47Z</time></trkpt><trkpt lat="44.49951373926316" lon="10.52179842628984"><ele>666.0</ele><time>2026-04-18T10:14:48Z</time></trkpt><trkpt lat="44.4995831931295" lon="10.521739273002787"><ele>666.0</ele><time>2026-04-18T10:14:49Z</time></trkpt><trkpt lat="44.49965215443638" lon="10.521725259240474"><ele>666.0</ele><time>2026-04-18T10:14:50Z</time></trkpt><trkpt lat="44.49971834325176" lon="10.521737359780317"><ele>667.1666666666666</ele><time>2026-04-18T10:14:51Z</time></trkpt><trkpt lat="44.49978118734633" lon="10.521776064668698"><ele>668.3333333333334</ele><time>2026-04-18T10:14:52Z</time></trkpt><trkpt lat="44.499843212914435" lon="10.521826798885343"><ele>669.5</ele><time>2026-04-18T10:14:53Z</time></trkpt><trkpt lat="44.49990506266632" lon="10.521917094736052"><ele>670.6666666666667</ele><time>2026-04-18T10:14:54Z</time></trkpt><trkpt lat="44.499966743291864" lon="10.522018549451037"><ele>671.8333333333334</ele><time>2026-04-18T10:14:55Z</time></trkpt><trkpt lat="44.50003289550706" lon="10.522134024233809"><ele>673.0</ele><time>2026-04-18T10:14:56Z</time></trkpt><trkpt lat="44.50011103638807" lon="10.522268728341903"><ele>674.25</ele><time>2026-04-18T10:14:57Z</time></trkpt><trkpt lat="44.500190267301484" lon="10.522400735209146"><ele>675.5</ele><time>2026-04-18T10:14:58Z</time></trkpt><trkpt lat="44.500267745750484" lon="10.522528709390311"><ele>676.75</ele><time>2026-04-18T10:14:59Z</time></trkpt><trkpt lat="44.5003504648056" lon="10.522664509187546"><ele>678.0</ele><time>2026-04-18T10:15:00Z</time></trkpt><trkpt lat="44.5004270952096" lon="10.522789199254726"><ele>680.8</ele><time>2026-04-18T10:15:01Z</time></trkpt><trkpt lat="44.50050068035137" lon="10.522904079942107"><ele>683.5999999999999</ele><time>2026-04-18T10:15:02Z</time></trkpt><trkpt lat="44.50055611621367" lon="10.522998905621352"><ele>686.4000000000001</ele><time>2026-04-18T10:15:03Z</time></trkpt><trkpt lat="44.50059230319368" lon="10.523099779400704"><ele>689.2</ele><time>2026-04-18T10:15:04Z</time></trkpt><trkpt lat="44.50059306061588" lon="10.5232183191709"><ele>692.0</ele><time>2026-04-18T10:15:05Z</time></trkpt><trkpt lat="44.50058465437039" lon="10.523354509985191"><ele>692.0</ele><time>2026-04-18T10:15:06Z</time></trkpt><trkpt lat="44.50059575798815" lon="10.523483406825235"><ele>692.0</ele><time>2026-04-18T10:15:07Z</time></trkpt><trkpt lat="44.5006196590989" lon="10.523575693346457"><ele>692.0</ele><time>2026-04-18T10:15:08Z</time></trkpt><trkpt lat="44.50072198594332" lon="10.523634781254302"><ele>692.0</ele><time>2026-04-18T10:15:09Z</time></trkpt><trkpt lat="44.50083042379109" lon="10.523595059733985"><ele>692.0</ele><time>2026-04-18T10:15:10Z</time></trkpt><trkpt lat="44.500922740745466" lon="10.523489084478689"><ele>692.0</ele><time>2026-04-18T10:15:11Z</time></trkpt><trkpt lat="44.50102196341713" lon="10.523396111543281"><ele>692.0</ele><time>2026-04-18T10:15:12Z</time></trkpt><trkpt lat="44.50114470152174" lon="10.523319793978374"><ele>692.0</ele><time>2026-04-18T10:15:13Z</time></trkpt><trkpt lat="44.501246260741055" lon="10.52323393897047"><ele>692.0</ele><time>2026-04-18T10:15:14Z</time></trkpt><trkpt lat="44.50133803667052" lon="10.52318482288682"><ele>692.4000000000001</ele><time>2026-04-18T10:15:15Z</time></trkpt><trkpt lat="44.50142828620619" lon="10.523175543674677"><ele>692.8000000000001</ele><time>2026-04-18T10:15:16Z</time></trkpt><trkpt lat="44.50151738648239" lon="10.523214212450021"><ele>693.2</ele><time>2026-04-18T10:15:17Z</time></trkpt><trkpt lat="44.501600024118744" lon="10.52328794203533"><ele>693.6</ele><time>2026-04-18T10:15:18Z</time></trkpt><trkpt lat="44.50164914290083" lon="10.52339842292642"><ele>694.0</ele><time>2026-04-18T10:15:19Z</time></trkpt><trkpt lat="44.501688615934405" lon="10.523541758012046"><ele>694.0</ele><time>2026-04-18T10:15:20Z</time></trkpt><trkpt lat="44.50175342410967" lon="10.523675501576594"><ele>694.0</ele><time>2026-04-18T10:15:21Z</time></trkpt><trkpt lat="44.50186209569194" lon="10.523751708352226"><ele>694.0</ele><time>2026-04-18T10:15:22Z</time></trkpt><trkpt lat="44.50194762899184" lon="10.52379368322337"><ele>694.0</ele><time>2026-04-18T10:15:23Z</time></trkpt><trkpt lat="44.502037409780264" lon="10.523805188018937"><ele>694.0</ele><time>2026-04-18T10:15:24Z</time></trkpt><trkpt lat="44.50212170532607" lon="10.523800575766293"><ele>695.3333333333334</ele><time>2026-04-18T10:15:25Z</time></trkpt><trkpt lat="44.502215000756266" lon="10.523790655320822"><ele>696.6666666666667</ele><time>2026-04-18T10:15:26Z</time></trkpt><trkpt lat="44.502296334693085" lon="10.523794960054936"><ele>698.0</ele><time>2026-04-18T10:15:27Z</time></trkpt><trkpt lat="44.50235953380429" lon="10.523789045268094"><ele>699.3333333333334</ele><time>2026-04-18T10:15:28Z</time></trkpt><trkpt lat="44.50230311005541" lon="10.523855303850665"><ele>700.6666666666666</ele><time>2026-04-18T10:15:32Z</time></trkpt><trkpt lat="44.50222735234692" lon="10.52395085905252"><ele>702.0</ele><time>2026-04-18T10:15:34Z</time></trkpt><trkpt lat="44.50216357480604" lon="10.524033270587966"><ele>702.0</ele><time>2026-04-18T10:15:36Z</time></trkpt><trkpt lat="44.50210250118923" lon="10.524104957399564"><ele>702.0</ele><time>2026-04-18T10:15:38Z</time></trkpt><trkpt lat="44.502047099447154" lon="10.524175661045131"><ele>702.0</ele><time>2026-04-18T10:15:40Z</time></trkpt><trkpt lat="44.50204580648133" lon="10.524282015933993"><ele>702.0</ele><time>2026-04-18T10:15:41Z</time></trkpt><trkpt lat="44.50194594403947" lon="10.524263376608463"><ele>702.0</ele><time>2026-04-18T10:15:43Z</time></trkpt><trkpt lat="44.50187336415028" lon="10.52430709480387"><ele>702.0</ele><time>2026-04-18T10:15:45Z</time></trkpt><trkpt lat="44.501978823148356" lon="10.524732639944498"><ele>701.8</ele><time>2026-04-18T10:16:00Z</time></trkpt><trkpt lat="44.50199318576791" lon="10.524905887631073"><ele>701.6</ele><time>2026-04-18T10:16:01Z</time></trkpt><trkpt lat="44.502016995902856" lon="10.525043238243153"><ele>701.4</ele><time>2026-04-18T10:16:02Z</time></trkpt><trkpt lat="44.50203163355997" lon="10.52516183518275"><ele>701.1999999999999</ele><time>2026-04-18T10:16:03Z</time></trkpt><trkpt lat="44.50205496142453" lon="10.525267372079117"><ele>701.0</ele><time>2026-04-18T10:16:04Z</time></trkpt><trkpt lat="44.50209432869322" lon="10.525374389425238"><ele>702.0</ele><time>2026-04-18T10:16:05Z</time></trkpt><trkpt lat="44.50213999017121" lon="10.525455847510138"><ele>703.0</ele><time>2026-04-18T10:16:06Z</time></trkpt><trkpt lat="44.50220560286873" lon="10.525530016447977"><ele>704.0</ele><time>2026-04-18T10:16:07Z</time></trkpt><trkpt lat="44.50227770098133" lon="10.52561337135628"><ele>705.0</ele><time>2026-04-18T10:16:08Z</time></trkpt><trkpt lat="44.50231734243206" lon="10.525718368847986"><ele>706.0</ele><time>2026-04-18T10:16:09Z</time></trkpt><trkpt lat="44.50234485791524" lon="10.525838227896049"><ele>707.0</ele><time>2026-04-18T10:16:10Z</time></trkpt><trkpt lat="44.502373039005654" lon="10.52594898096089"><ele>707.0</ele><time>2026-04-18T10:16:11Z</time></trkpt><trkpt lat="44.502417165544045" lon="10.526061204410505"><ele>707.0</ele><time>2026-04-18T10:16:13Z</time></trkpt><trkpt lat="44.50242863731382" lon="10.526196358517687"><ele>707.0</ele><time>2026-04-18T10:16:15Z</time></trkpt><trkpt lat="44.502388447422334" lon="10.526278248734261"><ele>707.0</ele><time>2026-04-18T10:16:17Z</time></trkpt><trkpt lat="44.502359494340126" lon="10.526360659168105"><ele>707.0</ele><time>2026-04-18T10:16:19Z</time></trkpt><trkpt lat="44.502429840246016" lon="10.526367165908239"><ele>707.0</ele><time>2026-04-18T10:16:23Z</time></trkpt><trkpt lat="44.50242755811724" lon="10.52626564501093"><ele>707.0</ele><time>2026-04-18T10:16:25Z</time></trkpt><trkpt lat="44.50239857413749" lon="10.526088677940338"><ele>707.0</ele><time>2026-04-18T10:16:27Z</time></trkpt><trkpt lat="44.50237858927688" lon="10.525937702125145"><ele>707.0</ele><time>2026-04-18T10:16:29Z</time></trkpt><trkpt lat="44.5023400393922" lon="10.52586087378945"><ele>707.0</ele><time>2026-04-18T10:16:30Z</time></trkpt><trkpt lat="44.502280310262734" lon="10.525711430298824"><ele>707.0</ele><time>2026-04-18T10:16:32Z</time></trkpt><trkpt lat="44.50223200446934" lon="10.525566880474724"><ele>707.0</ele><time>2026-04-18T10:16:34Z</time></trkpt><trkpt lat="44.50217820331541" lon="10.525476615657132"><ele>707.0</ele><time>2026-04-18T10:16:35Z</time></trkpt><trkpt lat="44.502128461336206" lon="10.525405812945868"><ele>707.0</ele><time>2026-04-18T10:16:36Z</time></trkpt><trkpt lat="44.50206745034825" lon="10.525312393074703"><ele>707.0</ele><time>2026-04-18T10:16:37Z</time></trkpt><trkpt lat="44.50202821660853" lon="10.525178498039795"><ele>707.0</ele><time>2026-04-18T10:16:38Z</time></trkpt><trkpt lat="44.5020180561297" lon="10.525050449362144"><ele>707.0</ele><time>2026-04-18T10:16:39Z</time></trkpt><trkpt lat="44.50200138351875" lon="10.524932609719556"><ele>706.8333333333333</ele><time>2026-04-18T10:16:40Z</time></trkpt><trkpt lat="44.50198627815427" lon="10.524838950918642"><ele>706.6666666666666</ele><time>2026-04-18T10:16:41Z</time></trkpt><trkpt lat="44.50197132327528" lon="10.52472998868174"><ele>706.5</ele><time>2026-04-18T10:16:42Z</time></trkpt><trkpt lat="44.501959273132385" lon="10.524639757460049"><ele>706.3333333333334</ele><time>2026-04-18T10:16:43Z</time></trkpt><trkpt lat="44.50193841987611" lon="10.524542245983083"><ele>706.1666666666667</ele><time>2026-04-18T10:16:44Z</time></trkpt><trkpt lat="44.501918636263085" lon="10.524408005530946"><ele>706.0</ele><time>2026-04-18T10:16:46Z</time></trkpt><trkpt lat="44.50214409369683" lon="10.52421169547491"><ele>705.1999999999999</ele><time>2026-04-18T10:16:48Z</time></trkpt><trkpt lat="44.50202775523419" lon="10.52426335062959"><ele>704.4</ele><time>2026-04-18T10:16:50Z</time></trkpt><trkpt lat="44.50208788413894" lon="10.524159525744897"><ele>703.6</ele><time>2026-04-18T10:16:52Z</time></trkpt><trkpt lat="44.502164371801896" lon="10.524152582757017"><ele>702.8</ele><time>2026-04-18T10:16:58Z</time></trkpt><trkpt lat="44.50222024560567" lon="10.524059924203039"><ele>702.0</ele><time>2026-04-18T10:17:00Z</time></trkpt><trkpt lat="44.50250825914092" lon="10.523815611521478"><ele>701.0</ele><time>2026-04-18T10:17:02Z</time></trkpt><trkpt lat="44.50282698007105" lon="10.524676490650158"><ele>701.0</ele><time>2026-04-18T10:17:12Z</time></trkpt><trkpt lat="44.50290776279197" lon="10.524768940528691"><ele>701.0</ele><time>2026-04-18T10:17:14Z</time></trkpt><trkpt lat="44.503001191468265" lon="10.524799516299968"><ele>701.0</ele><time>2026-04-18T10:17:16Z</time></trkpt><trkpt lat="44.503059414885094" lon="10.524847648950201"><ele>701.0</ele><time>2026-04-18T10:17:18Z</time></trkpt><trkpt lat="44.503128984096485" lon="10.524870634755638"><ele>701.0</ele><time>2026-04-18T10:17:21Z</time></trkpt><trkpt lat="44.50316614708464" lon="10.52495932891489"><ele>701.0</ele><time>2026-04-18T10:17:24Z</time></trkpt><trkpt lat="44.50310334086992" lon="10.52494356672449"><ele>701.0</ele><time>2026-04-18T10:17:27Z</time></trkpt><trkpt lat="44.503065051357765" lon="10.524834225330366"><ele>701.0</ele><time>2026-04-18T10:17:30Z</time></trkpt><trkpt lat="44.50299394667778" lon="10.524834277879918"><ele>701.0</ele><time>2026-04-18T10:17:32Z</time></trkpt><trkpt lat="44.502911453944556" lon="10.524787854595118"><ele>701.0</ele><time>2026-04-18T10:17:34Z</time></trkpt><trkpt lat="44.50284039070035" lon="10.52471554913729"><ele>701.0</ele><time>2026-04-18T10:17:37Z</time></trkpt><trkpt lat="44.50280650131129" lon="10.524637086046479"><ele>701.0</ele><time>2026-04-18T10:17:39Z</time></trkpt><trkpt lat="44.502764090910176" lon="10.524541518071537"><ele>701.1999999999999</ele><time>2026-04-18T10:18:30Z</time></trkpt><trkpt lat="44.502695371641934" lon="10.524433484866751"><ele>701.4</ele><time>2026-04-18T10:18:33Z</time></trkpt><trkpt lat="44.502642197397556" lon="10.524364299818735"><ele>701.6</ele><time>2026-04-18T10:18:34Z</time></trkpt><trkpt lat="44.50251202941292" lon="10.52435279487177"><ele>701.8</ele><time>2026-04-18T10:18:36Z</time></trkpt><trkpt lat="44.50243766461995" lon="10.524351669612736"><ele>702.0</ele><time>2026-04-18T10:18:37Z</time></trkpt><trkpt lat="44.50236712471704" lon="10.524320995436156"><ele>702.0</ele><time>2026-04-18T10:18:38Z</time></trkpt><trkpt lat="44.50230520345076" lon="10.524339554874192"><ele>702.0</ele><time>2026-04-18T10:18:39Z</time></trkpt><trkpt lat="44.50220083814604" lon="10.524329370628692"><ele>702.0</ele><time>2026-04-18T10:18:41Z</time></trkpt><trkpt lat="44.50212895053772" lon="10.524312565659708"><ele>702.0</ele><time>2026-04-18T10:18:43Z</time></trkpt><trkpt lat="44.50205430442888" lon="10.524258806369291"><ele>702.0</ele><time>2026-04-18T10:18:45Z</time></trkpt><trkpt lat="44.50207777250244" lon="10.52454833054996"><ele>701.8333333333334</ele><time>2026-04-18T10:18:48Z</time></trkpt><trkpt lat="44.50212864734995" lon="10.524616146893148"><ele>701.6666666666666</ele><time>2026-04-18T10:18:49Z</time></trkpt><trkpt lat="44.50218456633704" lon="10.524665446753176"><ele>701.5</ele><time>2026-04-18T10:18:50Z</time></trkpt><trkpt lat="44.50224057751119" lon="10.524707566460505"><ele>701.3333333333333</ele><time>2026-04-18T10:18:51Z</time></trkpt><trkpt lat="44.502336928380416" lon="10.524794940862657"><ele>701.1666666666666</ele><time>2026-04-18T10:18:53Z</time></trkpt><trkpt lat="44.50243403469442" lon="10.524890890216934"><ele>701.0</ele><time>2026-04-18T10:18:55Z</time></trkpt><trkpt lat="44.50253224422775" lon="10.525018390623728"><ele>701.0</ele><time>2026-04-18T10:18:57Z</time></trkpt><trkpt lat="44.50258898689004" lon="10.525082579079971"><ele>701.0</ele><time>2026-04-18T10:18:58Z</time></trkpt><trkpt lat="44.50265088015747" lon="10.52514583259017"><ele>701.0</ele><time>2026-04-18T10:18:59Z</time></trkpt><trkpt lat="44.50270277755331" lon="10.525198223716945"><ele>701.0</ele><time>2026-04-18T10:19:00Z</time></trkpt><trkpt lat="44.50276128015557" lon="10.525257998667877"><ele>701.0</ele><time>2026-04-18T10:19:01Z</time></trkpt><trkpt lat="44.50281132444826" lon="10.525311987480817"><ele>701.0</ele><time>2026-04-18T10:19:02Z</time></trkpt><trkpt lat="44.50285173710574" lon="10.52538661335387"><ele>701.0</ele><time>2026-04-18T10:19:03Z</time></trkpt><trkpt lat="44.5028889007442" lon="10.525493470814116"><ele>699.5</ele><time>2026-04-18T10:19:04Z</time></trkpt><trkpt lat="44.50294346256803" lon="10.525582760088554"><ele>698.0</ele><time>2026-04-18T10:19:05Z</time></trkpt><trkpt lat="44.50300179525405" lon="10.52565283010134"><ele>696.5</ele><time>2026-04-18T10:19:06Z</time></trkpt><trkpt lat="44.50307115048833" lon="10.525684813223581"><ele>695.0</ele><time>2026-04-18T10:19:07Z</time></trkpt><trkpt lat="44.50316349589721" lon="10.525718642028815"><ele>693.5</ele><time>2026-04-18T10:19:08Z</time></trkpt><trkpt lat="44.50324817717268" lon="10.525807673978253"><ele>692.0</ele><time>2026-04-18T10:19:10Z</time></trkpt><trkpt lat="44.50327348826616" lon="10.525895828188682"><ele>692.0</ele><time>2026-04-18T10:19:11Z</time></trkpt><trkpt lat="44.503309704542836" lon="10.525969916622065"><ele>692.0</ele><time>2026-04-18T10:19:12Z</time></trkpt><trkpt lat="44.5033328801222" lon="10.526063109162234"><ele>692.0</ele><time>2026-04-18T10:19:13Z</time></trkpt><trkpt lat="44.503356673366454" lon="10.52615593290614"><ele>692.0</ele><time>2026-04-18T10:19:14Z</time></trkpt><trkpt lat="44.503394188958204" lon="10.526368197812742"><ele>692.0</ele><time>2026-04-18T10:19:16Z</time></trkpt><trkpt lat="44.50342455961501" lon="10.526474314001817"><ele>692.0</ele><time>2026-04-18T10:19:17Z</time></trkpt><trkpt lat="44.50344472020368" lon="10.526589870797169"><ele>690.6</ele><time>2026-04-18T10:19:18Z</time></trkpt><trkpt lat="44.50345123827887" lon="10.526718832125399"><ele>689.2</ele><time>2026-04-18T10:19:19Z</time></trkpt><trkpt lat="44.50347084663248" lon="10.52684466886921"><ele>687.8</ele><time>2026-04-18T10:19:20Z</time></trkpt><trkpt lat="44.503486448004296" lon="10.52697561175513"><ele>686.4</ele><time>2026-04-18T10:19:21Z</time></trkpt><trkpt lat="44.50350914430946" lon="10.527100916319938"><ele>685.0</ele><time>2026-04-18T10:19:22Z</time></trkpt><trkpt lat="44.503524550466075" lon="10.5272496313959"><ele>682.0</ele><time>2026-04-18T10:19:23Z</time></trkpt><trkpt lat="44.5035263742142" lon="10.527349750270732"><ele>679.0</ele><time>2026-04-18T10:19:24Z</time></trkpt><trkpt lat="44.503609712080944" lon="10.52751154344365"><ele>676.0</ele><time>2026-04-18T10:19:26Z</time></trkpt><trkpt lat="44.50359907937805" lon="10.527635029452851"><ele>673.0</ele><time>2026-04-18T10:19:28Z</time></trkpt><trkpt lat="44.50352270949795" lon="10.527651165430107"><ele>670.0</ele><time>2026-04-18T10:19:47Z</time></trkpt><trkpt lat="44.5034202127488" lon="10.527619023844634"><ele>670.0</ele><time>2026-04-18T10:19:49Z</time></trkpt><trkpt lat="44.50332801545681" lon="10.527598652545704"><ele>670.0</ele><time>2026-04-18T10:19:51Z</time></trkpt><trkpt lat="44.50327031500423" lon="10.527704751526857"><ele>670.0</ele><time>2026-04-18T10:19:53Z</time></trkpt><trkpt lat="44.503242620165736" lon="10.5278336931053"><ele>670.0</ele><time>2026-04-18T10:19:54Z</time></trkpt><trkpt lat="44.503203526965684" lon="10.527972548969824"><ele>670.0</ele><time>2026-04-18T10:19:55Z</time></trkpt><trkpt lat="44.503150972478466" lon="10.528104928621044"><ele>666.4</ele><time>2026-04-18T10:19:56Z</time></trkpt><trkpt lat="44.503116968399866" lon="10.52821995439737"><ele>662.8</ele><time>2026-04-18T10:19:57Z</time></trkpt><trkpt lat="44.50308580234495" lon="10.528321077819376"><ele>659.2</ele><time>2026-04-18T10:19:58Z</time></trkpt><trkpt lat="44.5030695593324" lon="10.528437676774525"><ele>655.6</ele><time>2026-04-18T10:19:59Z</time></trkpt><trkpt lat="44.50304932760834" lon="10.528592277414273"><ele>652.0</ele><time>2026-04-18T10:20:00Z</time></trkpt><trkpt lat="44.50302383327831" lon="10.528736879061094"><ele>649.8333333333334</ele><time>2026-04-18T10:20:01Z</time></trkpt><trkpt lat="44.50302067574919" lon="10.528849139169502"><ele>647.6666666666667</ele><time>2026-04-18T10:20:02Z</time></trkpt><trkpt lat="44.50300067716722" lon="10.528942160865986"><ele>645.5</ele><time>2026-04-18T10:20:03Z</time></trkpt><trkpt lat="44.50295291674985" lon="10.529050904883023"><ele>643.3333333333334</ele><time>2026-04-18T10:20:05Z</time></trkpt><trkpt lat="44.502906815224605" lon="10.529150030914327"><ele>641.1666666666666</ele><time>2026-04-18T10:20:07Z</time></trkpt><trkpt lat="44.50283722654147" lon="10.529141218669224"><ele>639.0</ele><time>2026-04-18T10:20:08Z</time></trkpt><trkpt lat="44.50276479515523" lon="10.529143165500614"><ele>639.0</ele><time>2026-04-18T10:20:09Z</time></trkpt><trkpt lat="44.50267970558874" lon="10.529156336430969"><ele>639.0</ele><time>2026-04-18T10:20:10Z</time></trkpt><trkpt lat="44.50258983716445" lon="10.52913193673786"><ele>639.0</ele><time>2026-04-18T10:20:11Z</time></trkpt><trkpt lat="44.502506192037906" lon="10.529113511355353"><ele>639.0</ele><time>2026-04-18T10:20:12Z</time></trkpt><trkpt lat="44.50243147160438" lon="10.529097653266088"><ele>639.0</ele><time>2026-04-18T10:20:13Z</time></trkpt><trkpt lat="44.50236632986318" lon="10.52908737311908"><ele>639.0</ele><time>2026-04-18T10:20:14Z</time></trkpt><trkpt lat="44.502264897493774" lon="10.529084257072764"><ele>639.0</ele><time>2026-04-18T10:20:16Z</time></trkpt><trkpt lat="44.50223861449254" lon="10.52934409136167"><ele>639.0</ele><time>2026-04-18T10:20:18Z</time></trkpt><trkpt lat="44.502251499878746" lon="10.529502564239218"><ele>639.0</ele><time>2026-04-18T10:20:19Z</time></trkpt><trkpt lat="44.50223940578693" lon="10.529653909080933"><ele>639.0</ele><time>2026-04-18T10:20:20Z</time></trkpt><trkpt lat="44.502239253282006" lon="10.52981322637685"><ele>634.75</ele><time>2026-04-18T10:20:21Z</time></trkpt><trkpt lat="44.50223925327576" lon="10.529971912071522"><ele>630.5</ele><time>2026-04-18T10:20:22Z</time></trkpt><trkpt lat="44.50223925326907" lon="10.530131569385372"><ele>626.25</ele><time>2026-04-18T10:20:23Z</time></trkpt><trkpt lat="44.5022392551418" lon="10.530299152821517"><ele>622.0</ele><time>2026-04-18T10:20:24Z</time></trkpt><trkpt lat="44.50223963848027" lon="10.530465395925715"><ele>620.6</ele><time>2026-04-18T10:20:25Z</time></trkpt><trkpt lat="44.5022400025733" lon="10.530623292371548"><ele>619.2</ele><time>2026-04-18T10:20:26Z</time></trkpt><trkpt lat="44.50224167056018" lon="10.530773807322381"><ele>617.8</ele><time>2026-04-18T10:20:27Z</time></trkpt><trkpt lat="44.50224472577144" lon="10.530923245905374"><ele>616.4</ele><time>2026-04-18T10:20:28Z</time></trkpt><trkpt lat="44.50224781008478" lon="10.531055963580439"><ele>615.0</ele><time>2026-04-18T10:20:29Z</time></trkpt><trkpt lat="44.50226563663089" lon="10.531184390240295"><ele>614.6</ele><time>2026-04-18T10:20:30Z</time></trkpt><trkpt lat="44.50224939045603" lon="10.531312366028816"><ele>614.2</ele><time>2026-04-18T10:20:31Z</time></trkpt><trkpt lat="44.50224139811628" lon="10.531428506701719"><ele>613.8</ele><time>2026-04-18T10:20:32Z</time></trkpt><trkpt lat="44.502186575594415" lon="10.531585796833218"><ele>613.4</ele><time>2026-04-18T10:20:34Z</time></trkpt><trkpt lat="44.5020724428025" lon="10.531603293865675"><ele>613.0</ele><time>2026-04-18T10:20:36Z</time></trkpt><trkpt lat="44.50201461942213" lon="10.531708494294765"><ele>612.6</ele><time>2026-04-18T10:20:37Z</time></trkpt><trkpt lat="44.502032848562145" lon="10.531859400879439"><ele>612.1999999999999</ele><time>2026-04-18T10:20:38Z</time></trkpt><trkpt lat="44.50204097762215" lon="10.53199713333925"><ele>611.8</ele><time>2026-04-18T10:20:39Z</time></trkpt><trkpt lat="44.50206481216525" lon="10.53210972631639"><ele>611.4</ele><time>2026-04-18T10:20:40Z</time></trkpt><trkpt lat="44.50209820623874" lon="10.532299535613067"><ele>611.0</ele><time>2026-04-18T10:20:42Z</time></trkpt><trkpt lat="44.502116869918545" lon="10.532413952599567"><ele>610.4</ele><time>2026-04-18T10:20:43Z</time></trkpt><trkpt lat="44.50214302919922" lon="10.532544421174512"><ele>609.8</ele><time>2026-04-18T10:20:44Z</time></trkpt><trkpt lat="44.50216093383503" lon="10.532672814363224"><ele>609.1999999999999</ele><time>2026-04-18T10:20:45Z</time></trkpt><trkpt lat="44.50221885464756" lon="10.532797912990516"><ele>608.6</ele><time>2026-04-18T10:20:46Z</time></trkpt><trkpt lat="44.502263351363226" lon="10.532907573860825"><ele>608.0</ele><time>2026-04-18T10:20:47Z</time></trkpt><trkpt lat="44.502312098385104" lon="10.533019809953943"><ele>606.6666666666666</ele><time>2026-04-18T10:20:48Z</time></trkpt><trkpt lat="44.5023641946829" lon="10.533129933175076"><ele>605.3333333333333</ele><time>2026-04-18T10:20:49Z</time></trkpt><trkpt lat="44.502414171932706" lon="10.533239758897691"><ele>604.0</ele><time>2026-04-18T10:20:50Z</time></trkpt><trkpt lat="44.50246087075304" lon="10.533329738029735"><ele>602.6666666666666</ele><time>2026-04-18T10:20:51Z</time></trkpt><trkpt lat="44.502510756337" lon="10.53343782266227"><ele>601.3333333333334</ele><time>2026-04-18T10:20:52Z</time></trkpt><trkpt lat="44.50256866226845" lon="10.533522911131511"><ele>600.0</ele><time>2026-04-18T10:20:53Z</time></trkpt><trkpt lat="44.50263092612586" lon="10.533612246246832"><ele>600.0</ele><time>2026-04-18T10:20:54Z</time></trkpt><trkpt lat="44.50269604239552" lon="10.533707280816856"><ele>600.0</ele><time>2026-04-18T10:20:55Z</time></trkpt><trkpt lat="44.502758304435226" lon="10.533804064520716"><ele>600.0</ele><time>2026-04-18T10:20:56Z</time></trkpt><trkpt lat="44.50281206654191" lon="10.533891504637856"><ele>600.0</ele><time>2026-04-18T10:20:57Z</time></trkpt><trkpt lat="44.50286174037813" lon="10.533974943728694"><ele>600.0</ele><time>2026-04-18T10:20:58Z</time></trkpt><trkpt lat="44.5029039073378" lon="10.534052940773353"><ele>600.0</ele><time>2026-04-18T10:20:59Z</time></trkpt><trkpt lat="44.502951624723025" lon="10.53416674521095"><ele>599.0</ele><time>2026-04-18T10:21:01Z</time></trkpt><trkpt lat="44.50282913747975" lon="10.53423516477928"><ele>598.0</ele><time>2026-04-18T10:21:04Z</time></trkpt><trkpt lat="44.50270617124591" lon="10.534329647724594"><ele>597.0</ele><time>2026-04-18T10:21:06Z</time></trkpt><trkpt lat="44.50263939312696" lon="10.53437781164477"><ele>596.0</ele><time>2026-04-18T10:21:07Z</time></trkpt><trkpt lat="44.502554419409414" lon="10.534431924402748"><ele>595.0</ele><time>2026-04-18T10:21:08Z</time></trkpt><trkpt lat="44.502454272934365" lon="10.53448376177336"><ele>595.0</ele><time>2026-04-18T10:21:09Z</time></trkpt><trkpt lat="44.50234379166739" lon="10.534533009183658"><ele>595.0</ele><time>2026-04-18T10:21:10Z</time></trkpt><trkpt lat="44.502227167140326" lon="10.534588759960732"><ele>595.0</ele><time>2026-04-18T10:21:11Z</time></trkpt><trkpt lat="44.50213310787098" lon="10.534648433749593"><ele>595.0</ele><time>2026-04-18T10:21:12Z</time></trkpt><trkpt lat="44.502054694822284" lon="10.534716205180855"><ele>595.0</ele><time>2026-04-18T10:21:13Z</time></trkpt><trkpt lat="44.501960130535" lon="10.534799475206574"><ele>593.4</ele><time>2026-04-18T10:21:14Z</time></trkpt><trkpt lat="44.50187342824422" lon="10.534863602598705"><ele>591.8</ele><time>2026-04-18T10:21:15Z</time></trkpt><trkpt lat="44.50178495963206" lon="10.534924161917049"><ele>590.2</ele><time>2026-04-18T10:21:16Z</time></trkpt><trkpt lat="44.5016950287606" lon="10.534980207845987"><ele>588.6</ele><time>2026-04-18T10:21:17Z</time></trkpt><trkpt lat="44.50161455688445" lon="10.535027853435833"><ele>587.0</ele><time>2026-04-18T10:21:18Z</time></trkpt><trkpt lat="44.501528255082725" lon="10.535069947429227"><ele>587.0</ele><time>2026-04-18T10:21:19Z</time></trkpt><trkpt lat="44.50140116745225" lon="10.535115884899547"><ele>587.0</ele><time>2026-04-18T10:21:20Z</time></trkpt><trkpt lat="44.50130951383862" lon="10.53514709773313"><ele>587.0</ele><time>2026-04-18T10:21:21Z</time></trkpt><trkpt lat="44.50124151964595" lon="10.535169016047476"><ele>587.0</ele><time>2026-04-18T10:21:22Z</time></trkpt><trkpt lat="44.501173350118115" lon="10.535191471607954"><ele>587.0</ele><time>2026-04-18T10:21:23Z</time></trkpt><trkpt lat="44.50105232035158" lon="10.5352486519753"><ele>583.5</ele><time>2026-04-18T10:21:24Z</time></trkpt><trkpt lat="44.50107668049153" lon="10.535451675524625"><ele>580.0</ele><time>2026-04-18T10:21:28Z</time></trkpt><trkpt lat="44.5011051642945" lon="10.5355791921004"><ele>576.5</ele><time>2026-04-18T10:21:29Z</time></trkpt><trkpt lat="44.50114182417174" lon="10.535739964038548"><ele>573.0</ele><time>2026-04-18T10:21:30Z</time></trkpt><trkpt lat="44.50116928047634" lon="10.535912275260996"><ele>573.0</ele><time>2026-04-18T10:21:31Z</time></trkpt><trkpt lat="44.501178818726224" lon="10.536039221517202"><ele>573.0</ele><time>2026-04-18T10:21:32Z</time></trkpt><trkpt lat="44.50120381154088" lon="10.536158315177493"><ele>573.0</ele><time>2026-04-18T10:21:33Z</time></trkpt><trkpt lat="44.50122467792009" lon="10.536257144989923"><ele>573.0</ele><time>2026-04-18T10:21:34Z</time></trkpt><trkpt lat="44.501231650412485" lon="10.53638071177018"><ele>573.0</ele><time>2026-04-18T10:21:35Z</time></trkpt><trkpt lat="44.50125014238516" lon="10.536485130910076"><ele>573.0</ele><time>2026-04-18T10:21:36Z</time></trkpt><trkpt lat="44.50124502754371" lon="10.536600559248232"><ele>570.6</ele><time>2026-04-18T10:21:37Z</time></trkpt><trkpt lat="44.501232790577916" lon="10.536708182802412"><ele>568.1999999999999</ele><time>2026-04-18T10:21:38Z</time></trkpt><trkpt lat="44.5012205043684" lon="10.536833044091772"><ele>565.8</ele><time>2026-04-18T10:21:39Z</time></trkpt><trkpt lat="44.50120741604311" lon="10.536971599698786"><ele>563.4</ele><time>2026-04-18T10:21:40Z</time></trkpt><trkpt lat="44.501134392106565" lon="10.53704568942559"><ele>561.0</ele><time>2026-04-18T10:21:41Z</time></trkpt><trkpt lat="44.50111949681472" lon="10.537173791416231"><ele>559.2</ele><time>2026-04-18T10:21:42Z</time></trkpt><trkpt lat="44.50105995030661" lon="10.537267117946316"><ele>557.4000000000001</ele><time>2026-04-18T10:21:43Z</time></trkpt><trkpt lat="44.50096267977517" lon="10.53735678351831"><ele>555.6</ele><time>2026-04-18T10:21:44Z</time></trkpt><trkpt lat="44.500856902926614" lon="10.537453953789873"><ele>553.8000000000001</ele><time>2026-04-18T10:21:45Z</time></trkpt><trkpt lat="44.50079193572005" lon="10.537521561836671"><ele>552.0</ele><time>2026-04-18T10:21:46Z</time></trkpt><trkpt lat="44.50071848589684" lon="10.537571222623225"><ele>552.0</ele><time>2026-04-18T10:21:47Z</time></trkpt><trkpt lat="44.50064292556198" lon="10.537568785376923"><ele>552.0</ele><time>2026-04-18T10:21:48Z</time></trkpt><trkpt lat="44.500546994274565" lon="10.53755521314583"><ele>552.0</ele><time>2026-04-18T10:21:49Z</time></trkpt><trkpt lat="44.500483520129755" lon="10.537576709265501"><ele>552.0</ele><time>2026-04-18T10:21:50Z</time></trkpt><trkpt lat="44.50044991430145" lon="10.537729863097264"><ele>552.0</ele><time>2026-04-18T10:21:52Z</time></trkpt><trkpt lat="44.50046696745692" lon="10.537853822833217"><ele>552.0</ele><time>2026-04-18T10:21:53Z</time></trkpt><trkpt lat="44.50052102658078" lon="10.537999277521543"><ele>551.0</ele><time>2026-04-18T10:21:54Z</time></trkpt><trkpt lat="44.500575291566776" lon="10.538134819730235"><ele>550.0</ele><time>2026-04-18T10:21:55Z</time></trkpt><trkpt lat="44.50060985082865" lon="10.538259741463293"><ele>549.0</ele><time>2026-04-18T10:21:56Z</time></trkpt><trkpt lat="44.50062356074823" lon="10.538408464402728"><ele>548.0</ele><time>2026-04-18T10:21:57Z</time></trkpt><trkpt lat="44.5006304238936" lon="10.538551586190746"><ele>547.0</ele><time>2026-04-18T10:21:58Z</time></trkpt><trkpt lat="44.50064112451438" lon="10.53868545932088"><ele>546.0</ele><time>2026-04-18T10:21:59Z</time></trkpt><trkpt lat="44.50062418563871" lon="10.538807986009818"><ele>545.0</ele><time>2026-04-18T10:22:00Z</time></trkpt><trkpt lat="44.5005699795688" lon="10.538910853776091"><ele>544.0</ele><time>2026-04-18T10:22:01Z</time></trkpt><trkpt lat="44.500496433875966" lon="10.539029334612916"><ele>543.0</ele><time>2026-04-18T10:22:02Z</time></trkpt><trkpt lat="44.50044592597083" lon="10.539142831773862"><ele>542.0</ele><time>2026-04-18T10:22:03Z</time></trkpt><trkpt lat="44.500428977128465" lon="10.539270031860674"><ele>542.0</ele><time>2026-04-18T10:22:04Z</time></trkpt><trkpt lat="44.50043956181397" lon="10.539421746387394"><ele>542.0</ele><time>2026-04-18T10:22:05Z</time></trkpt><trkpt lat="44.50047871226563" lon="10.539573741435124"><ele>542.0</ele><time>2026-04-18T10:22:06Z</time></trkpt><trkpt lat="44.50051501282938" lon="10.539735691815167"><ele>542.0</ele><time>2026-04-18T10:22:07Z</time></trkpt><trkpt lat="44.50054811305716" lon="10.539905249660025"><ele>540.8000000000001</ele><time>2026-04-18T10:22:08Z</time></trkpt><trkpt lat="44.50057704948047" lon="10.5400337728054"><ele>539.6</ele><time>2026-04-18T10:22:09Z</time></trkpt><trkpt lat="44.500605504558486" lon="10.540148912934406"><ele>538.4000000000001</ele><time>2026-04-18T10:22:10Z</time></trkpt><trkpt lat="44.50059945135185" lon="10.540266169811849"><ele>537.2</ele><time>2026-04-18T10:22:11Z</time></trkpt><trkpt lat="44.50057399157271" lon="10.540415052642873"><ele>536.0</ele><time>2026-04-18T10:22:12Z</time></trkpt><trkpt lat="44.50053016050086" lon="10.540534772343749"><ele>535.4</ele><time>2026-04-18T10:22:13Z</time></trkpt><trkpt lat="44.5005017769192" lon="10.540625449292532"><ele>534.8</ele><time>2026-04-18T10:22:14Z</time></trkpt><trkpt lat="44.50048497104128" lon="10.5407576283398"><ele>534.1999999999999</ele><time>2026-04-18T10:22:15Z</time></trkpt><trkpt lat="44.50045041960032" lon="10.540926183607795"><ele>533.6</ele><time>2026-04-18T10:22:16Z</time></trkpt><trkpt lat="44.50039633050466" lon="10.541110932852925"><ele>533.0</ele><time>2026-04-18T10:22:17Z</time></trkpt><trkpt lat="44.5003458974943" lon="10.541281229387575"><ele>533.0</ele><time>2026-04-18T10:22:18Z</time></trkpt><trkpt lat="44.500311146520325" lon="10.541456792544356"><ele>533.0</ele><time>2026-04-18T10:22:19Z</time></trkpt><trkpt lat="44.50029504667564" lon="10.541614034485802"><ele>533.0</ele><time>2026-04-18T10:22:20Z</time></trkpt><trkpt lat="44.500277848121584" lon="10.541756645781666"><ele>533.0</ele><time>2026-04-18T10:22:21Z</time></trkpt><trkpt lat="44.50027819677079" lon="10.54185737829213"><ele>533.0</ele><time>2026-04-18T10:22:22Z</time></trkpt><trkpt lat="44.50036093732692" lon="10.54201119103169"><ele>531.8</ele><time>2026-04-18T10:22:24Z</time></trkpt><trkpt lat="44.50044076295584" lon="10.542118547134288"><ele>530.5999999999999</ele><time>2026-04-18T10:22:25Z</time></trkpt><trkpt lat="44.500503233193925" lon="10.54222647713458"><ele>529.4000000000001</ele><time>2026-04-18T10:22:26Z</time></trkpt><trkpt lat="44.500574088541754" lon="10.542311771197266"><ele>528.2</ele><time>2026-04-18T10:22:27Z</time></trkpt><trkpt lat="44.500646893198116" lon="10.542364630052333"><ele>527.0</ele><time>2026-04-18T10:22:28Z</time></trkpt><trkpt lat="44.500731534793644" lon="10.542419663305711"><ele>527.0</ele><time>2026-04-18T10:22:29Z</time></trkpt><trkpt lat="44.50082632233425" lon="10.54245689875579"><ele>527.0</ele><time>2026-04-18T10:22:30Z</time></trkpt><trkpt lat="44.50090774110586" lon="10.542488829346093"><ele>527.0</ele><time>2026-04-18T10:22:31Z</time></trkpt><trkpt lat="44.50098231195122" lon="10.542530576736574"><ele>527.0</ele><time>2026-04-18T10:22:32Z</time></trkpt><trkpt lat="44.50106208629442" lon="10.542581096833613"><ele>527.0</ele><time>2026-04-18T10:22:33Z</time></trkpt><trkpt lat="44.50112197413698" lon="10.542621165598975"><ele>527.0</ele><time>2026-04-18T10:22:34Z</time></trkpt><trkpt lat="44.50118923424927" lon="10.542725329209194"><ele>522.6</ele><time>2026-04-18T10:22:36Z</time></trkpt><trkpt lat="44.501295763000925" lon="10.542850889833709"><ele>518.2</ele><time>2026-04-18T10:22:38Z</time></trkpt><trkpt lat="44.501348440943794" lon="10.542903879635814"><ele>513.8</ele><time>2026-04-18T10:22:39Z</time></trkpt><trkpt lat="44.50140954262746" lon="10.542972369120184"><ele>509.4</ele><time>2026-04-18T10:22:40Z</time></trkpt><trkpt lat="44.501456638987364" lon="10.543072086845322"><ele>505.0</ele><time>2026-04-18T10:22:41Z</time></trkpt><trkpt lat="44.50164442433856" lon="10.54324659090644"><ele>505.00000000000006</ele><time>2026-04-18T10:22:45Z</time></trkpt><trkpt lat="44.501722328743284" lon="10.543347998583387"><ele>505.0</ele><time>2026-04-18T10:22:47Z</time></trkpt><trkpt lat="44.50178089055598" lon="10.54347747576824"><ele>505.0</ele><time>2026-04-18T10:22:49Z</time></trkpt><trkpt lat="44.50181583759723" lon="10.543561009507187"><ele>505.0</ele><time>2026-04-18T10:22:50Z</time></trkpt><trkpt lat="44.50185007143473" lon="10.54364782120347"><ele>505.00000000000006</ele><time>2026-04-18T10:22:51Z</time></trkpt><trkpt lat="44.501902974072316" lon="10.54372974501909"><ele>505.0</ele><time>2026-04-18T10:22:52Z</time></trkpt><trkpt lat="44.50195894249084" lon="10.543801489790745"><ele>504.1666666666667</ele><time>2026-04-18T10:22:53Z</time></trkpt><trkpt lat="44.50201896669354" lon="10.543857107537871"><ele>503.33333333333337</ele><time>2026-04-18T10:22:54Z</time></trkpt><trkpt lat="44.50208426546036" lon="10.543933247654202"><ele>502.5</ele><time>2026-04-18T10:22:55Z</time></trkpt><trkpt lat="44.50214196085854" lon="10.544017026246635"><ele>501.66666666666663</ele><time>2026-04-18T10:22:56Z</time></trkpt><trkpt lat="44.50217558583717" lon="10.544122586484848"><ele>500.8333333333333</ele><time>2026-04-18T10:22:57Z</time></trkpt><trkpt lat="44.50220454023636" lon="10.544214346658803"><ele>500.0</ele><time>2026-04-18T10:22:58Z</time></trkpt><trkpt lat="44.502245454368015" lon="10.544289078881565"><ele>497.42857142857144</ele><time>2026-04-18T10:22:59Z</time></trkpt><trkpt lat="44.502296396540075" lon="10.544372671495674"><ele>494.8571428571429</ele><time>2026-04-18T10:23:00Z</time></trkpt><trkpt lat="44.50232687434111" lon="10.544468977551883"><ele>492.28571428571433</ele><time>2026-04-18T10:23:01Z</time></trkpt><trkpt lat="44.50234290430154" lon="10.544562365081823"><ele>489.7142857142857</ele><time>2026-04-18T10:23:02Z</time></trkpt><trkpt lat="44.50233460839154" lon="10.544670376916784"><ele>487.1428571428572</ele><time>2026-04-18T10:23:03Z</time></trkpt><trkpt lat="44.50233411640164" lon="10.544763677271854"><ele>484.5714285714286</ele><time>2026-04-18T10:23:04Z</time></trkpt><trkpt lat="44.50238443676845" lon="10.544840390859816"><ele>482.0</ele><time>2026-04-18T10:23:05Z</time></trkpt><trkpt lat="44.50246014262261" lon="10.544905319006444"><ele>481.99999999999994</ele><time>2026-04-18T10:23:06Z</time></trkpt><trkpt lat="44.50251674602996" lon="10.544950268976924"><ele>482.0</ele><time>2026-04-18T10:23:07Z</time></trkpt><trkpt lat="44.50260420598449" lon="10.545058177822877"><ele>482.0</ele><time>2026-04-18T10:23:09Z</time></trkpt><trkpt lat="44.50263222413642" lon="10.545150155707026"><ele>482.0</ele><time>2026-04-18T10:23:10Z</time></trkpt><trkpt lat="44.50269288894853" lon="10.545291140295967"><ele>481.99999999999994</ele><time>2026-04-18T10:23:12Z</time></trkpt><trkpt lat="44.50272975156743" lon="10.545379563916846"><ele>482.0</ele><time>2026-04-18T10:23:14Z</time></trkpt><trkpt lat="44.50270602647741" lon="10.54547016215555"><ele>480.40000000000003</ele><time>2026-04-18T10:23:16Z</time></trkpt><trkpt lat="44.50269746669006" lon="10.54556937312307"><ele>478.80000000000007</ele><time>2026-04-18T10:23:17Z</time></trkpt><trkpt lat="44.502701040081746" lon="10.54572777525823"><ele>477.2</ele><time>2026-04-18T10:23:19Z</time></trkpt><trkpt lat="44.50271498511127" lon="10.545858638286983"><ele>475.6</ele><time>2026-04-18T10:23:21Z</time></trkpt><trkpt lat="44.50274540970719" lon="10.546024614782096"><ele>474.0</ele><time>2026-04-18T10:23:23Z</time></trkpt><trkpt lat="44.502782788401554" lon="10.54609715479241"><ele>474.0</ele><time>2026-04-18T10:23:25Z</time></trkpt><trkpt lat="44.50284268220621" lon="10.54604518549391"><ele>474.0</ele><time>2026-04-18T10:23:27Z</time></trkpt><trkpt lat="44.50293541022316" lon="10.54595965450611"><ele>474.0</ele><time>2026-04-18T10:23:29Z</time></trkpt><trkpt lat="44.503008970929194" lon="10.545988626157659"><ele>474.0</ele><time>2026-04-18T10:23:31Z</time></trkpt><trkpt lat="44.50308410763697" lon="10.54607632448647"><ele>474.0</ele><time>2026-04-18T10:23:32Z</time></trkpt><trkpt lat="44.50312501495416" lon="10.54614547654021"><ele>474.0</ele><time>2026-04-18T10:23:34Z</time></trkpt><trkpt lat="44.50319136564254" lon="10.546111786651377"><ele>471.4</ele><time>2026-04-18T10:23:36Z</time></trkpt><trkpt lat="44.50327007821074" lon="10.546043096866288"><ele>468.79999999999995</ele><time>2026-04-18T10:23:38Z</time></trkpt><trkpt lat="44.50328945960695" lon="10.545837678091978"><ele>466.20000000000005</ele><time>2026-04-18T10:23:40Z</time></trkpt><trkpt lat="44.50333163725401" lon="10.545747599653998"><ele>463.6</ele><time>2026-04-18T10:23:41Z</time></trkpt><trkpt lat="44.50339027607826" lon="10.545670498220186"><ele>461.0</ele><time>2026-04-18T10:23:42Z</time></trkpt><trkpt lat="44.50345158211094" lon="10.545537130773326"><ele>461.0</ele><time>2026-04-18T10:23:44Z</time></trkpt><trkpt lat="44.50355620584043" lon="10.545444003125173"><ele>461.0</ele><time>2026-04-18T10:23:46Z</time></trkpt><trkpt lat="44.50362364068806" lon="10.545427816248512"><ele>461.0</ele><time>2026-04-18T10:23:47Z</time></trkpt><trkpt lat="44.50372603965878" lon="10.545346741487142"><ele>461.0</ele><time>2026-04-18T10:23:49Z</time></trkpt><trkpt lat="44.503779642223805" lon="10.545259445455684"><ele>461.0</ele><time>2026-04-18T10:23:50Z</time></trkpt><trkpt lat="44.50384652568445" lon="10.545211586651705"><ele>462.4</ele><time>2026-04-18T10:23:52Z</time></trkpt><trkpt lat="44.50391189813051" lon="10.545397559696145"><ele>463.8</ele><time>2026-04-18T10:23:54Z</time></trkpt><trkpt lat="44.503922534168666" lon="10.545496514227494"><ele>465.19999999999993</ele><time>2026-04-18T10:23:55Z</time></trkpt><trkpt lat="44.503891374495396" lon="10.545607566041957"><ele>466.59999999999997</ele><time>2026-04-18T10:23:56Z</time></trkpt><trkpt lat="44.50385513605722" lon="10.54568587302665"><ele>468.0</ele><time>2026-04-18T10:23:57Z</time></trkpt><trkpt lat="44.50383476170329" lon="10.545825683318087"><ele>468.0</ele><time>2026-04-18T10:23:59Z</time></trkpt><trkpt lat="44.503880067485966" lon="10.545893734680726"><ele>468.0</ele><time>2026-04-18T10:24:01Z</time></trkpt><trkpt lat="44.50394758747531" lon="10.54603039544898"><ele>468.0</ele><time>2026-04-18T10:24:03Z</time></trkpt><trkpt lat="44.50398105859362" lon="10.546112632290425"><ele>468.0</ele><time>2026-04-18T10:24:04Z</time></trkpt><trkpt lat="44.50400492422768" lon="10.546227024925267"><ele>468.0</ele><time>2026-04-18T10:24:05Z</time></trkpt><trkpt lat="44.50403008064775" lon="10.546364931155335"><ele>468.0</ele><time>2026-04-18T10:24:06Z</time></trkpt><trkpt lat="44.50406499304082" lon="10.546466451596352"><ele>465.5</ele><time>2026-04-18T10:24:07Z</time></trkpt><trkpt lat="44.50412367095565" lon="10.546558896188854"><ele>463.0</ele><time>2026-04-18T10:24:09Z</time></trkpt><trkpt lat="44.504210924478386" lon="10.546589645711082"><ele>460.5</ele><time>2026-04-18T10:24:10Z</time></trkpt><trkpt lat="44.5042943491091" lon="10.546625833830621"><ele>458.0</ele><time>2026-04-18T10:24:11Z</time></trkpt><trkpt lat="44.50436171540494" lon="10.546594515844397"><ele>455.5</ele><time>2026-04-18T10:24:14Z</time></trkpt><trkpt lat="44.50443725680703" lon="10.546552398117356"><ele>453.0</ele><time>2026-04-18T10:24:17Z</time></trkpt><trkpt lat="44.50452839178729" lon="10.546563636025093"><ele>460.5</ele><time>2026-04-18T10:24:19Z</time></trkpt><trkpt lat="44.504605275127595" lon="10.546615980253621"><ele>468.0</ele><time>2026-04-18T10:24:21Z</time></trkpt><trkpt lat="44.504687419617845" lon="10.546661583121056"><ele>475.5</ele><time>2026-04-18T10:24:23Z</time></trkpt><trkpt lat="44.504842173367486" lon="10.54674356525198"><ele>483.0</ele><time>2026-04-18T10:24:25Z</time></trkpt><trkpt lat="44.504947593313865" lon="10.54679967426948"><ele>483.0</ele><time>2026-04-18T10:24:26Z</time></trkpt><trkpt lat="44.50502521231357" lon="10.546822320825479"><ele>483.0</ele><time>2026-04-18T10:24:27Z</time></trkpt><trkpt lat="44.50509109143741" lon="10.546798749079427"><ele>483.0</ele><time>2026-04-18T10:24:28Z</time></trkpt><trkpt lat="44.50517920750336" lon="10.546765161228715"><ele>483.0</ele><time>2026-04-18T10:24:29Z</time></trkpt><trkpt lat="44.50527378037172" lon="10.54684784149067"><ele>483.0</ele><time>2026-04-18T10:24:31Z</time></trkpt><trkpt lat="44.50528932361327" lon="10.546946716529424"><ele>483.0</ele><time>2026-04-18T10:24:32Z</time></trkpt><trkpt lat="44.50530392944373" lon="10.547039014634297"><ele>485.0</ele><time>2026-04-18T10:24:33Z</time></trkpt><trkpt lat="44.505371944772456" lon="10.54710436019515"><ele>487.0</ele><time>2026-04-18T10:24:35Z</time></trkpt><trkpt lat="44.50543927329881" lon="10.547120688722691"><ele>489.0</ele><time>2026-04-18T10:24:36Z</time></trkpt><trkpt lat="44.505418218986755" lon="10.547246065492446"><ele>491.0</ele><time>2026-04-18T10:24:38Z</time></trkpt><trkpt lat="44.50537465421736" lon="10.54733416025291"><ele>493.0</ele><time>2026-04-18T10:24:40Z</time></trkpt><trkpt lat="44.50540586345826" lon="10.54744248337197"><ele>495.0</ele><time>2026-04-18T10:24:42Z</time></trkpt><trkpt lat="44.50545632998671" lon="10.547605931703332"><ele>495.0</ele><time>2026-04-18T10:24:44Z</time></trkpt><trkpt lat="44.50547019344026" lon="10.547697365367972"><ele>495.0</ele><time>2026-04-18T10:24:45Z</time></trkpt><trkpt lat="44.50551222674407" lon="10.547799126100013"><ele>495.0</ele><time>2026-04-18T10:24:47Z</time></trkpt><trkpt lat="44.50560557291462" lon="10.547913136704704"><ele>495.0</ele><time>2026-04-18T10:24:49Z</time></trkpt><trkpt lat="44.50570427492395" lon="10.547964309583367"><ele>495.0</ele><time>2026-04-18T10:24:51Z</time></trkpt><trkpt lat="44.5057711622063" lon="10.547935255134002"><ele>492.5</ele><time>2026-04-18T10:24:53Z</time></trkpt><trkpt lat="44.50584526883642" lon="10.547966112574304"><ele>490.0</ele><time>2026-04-18T10:24:54Z</time></trkpt><trkpt lat="44.50593239718792" lon="10.548022695522091"><ele>487.5</ele><time>2026-04-18T10:24:55Z</time></trkpt><trkpt lat="44.50601193819923" lon="10.548081515951004"><ele>485.0</ele><time>2026-04-18T10:24:56Z</time></trkpt><trkpt lat="44.506095158675976" lon="10.548109038317097"><ele>482.5</ele><time>2026-04-18T10:24:57Z</time></trkpt><trkpt lat="44.50618998489088" lon="10.548110803196662"><ele>480.0</ele><time>2026-04-18T10:24:58Z</time></trkpt><trkpt lat="44.50628265127635" lon="10.548114201048616"><ele>480.0</ele><time>2026-04-18T10:24:59Z</time></trkpt><trkpt lat="44.50635709397305" lon="10.548111652414446"><ele>480.0</ele><time>2026-04-18T10:25:00Z</time></trkpt><trkpt lat="44.50642113828033" lon="10.548108529264406"><ele>480.0</ele><time>2026-04-18T10:25:01Z</time></trkpt><trkpt lat="44.50649141553574" lon="10.54810539412414"><ele>480.0</ele><time>2026-04-18T10:25:02Z</time></trkpt><trkpt lat="44.506586873755126" lon="10.548130892017525"><ele>480.0</ele><time>2026-04-18T10:25:04Z</time></trkpt><trkpt lat="44.50666713642163" lon="10.548006712474784"><ele>480.0</ele><time>2026-04-18T10:25:06Z</time></trkpt><trkpt lat="44.506702213548394" lon="10.54791650915874"><ele>480.0</ele><time>2026-04-18T10:25:08Z</time></trkpt><trkpt lat="44.50679266460127" lon="10.547937956539121"><ele>480.0</ele><time>2026-04-18T10:25:09Z</time></trkpt><trkpt lat="44.506870629007636" lon="10.54794846731004"><ele>480.0</ele><time>2026-04-18T10:25:10Z</time></trkpt><trkpt lat="44.50691470742387" lon="10.547851513109334"><ele>480.0</ele><time>2026-04-18T10:25:12Z</time></trkpt><trkpt lat="44.5070266359699" lon="10.547839583279366"><ele>480.0</ele><time>2026-04-18T10:25:14Z</time></trkpt><trkpt lat="44.50713152365613" lon="10.547756791683874"><ele>485.3333333333333</ele><time>2026-04-18T10:25:16Z</time></trkpt><trkpt lat="44.50721048373075" lon="10.547714579063804"><ele>490.66666666666663</ele><time>2026-04-18T10:25:17Z</time></trkpt><trkpt lat="44.507259180044976" lon="10.5476447117517"><ele>496.0</ele><time>2026-04-18T10:25:18Z</time></trkpt><trkpt lat="44.50730969674831" lon="10.547538762199881"><ele>501.3333333333333</ele><time>2026-04-18T10:25:20Z</time></trkpt><trkpt lat="44.50742281301476" lon="10.547605147350206"><ele>506.66666666666663</ele><time>2026-04-18T10:25:22Z</time></trkpt><trkpt lat="44.50749565360125" lon="10.547654733672752"><ele>512.0</ele><time>2026-04-18T10:25:23Z</time></trkpt><trkpt lat="44.5076162467338" lon="10.547607115986281"><ele>511.99999999999994</ele><time>2026-04-18T10:25:25Z</time></trkpt><trkpt lat="44.50767645413982" lon="10.547556892813015"><ele>512.0</ele><time>2026-04-18T10:25:26Z</time></trkpt><trkpt lat="44.50774078796897" lon="10.547559889959617"><ele>512.0</ele><time>2026-04-18T10:25:27Z</time></trkpt><trkpt lat="44.50780815749266" lon="10.547571577541442"><ele>512.0</ele><time>2026-04-18T10:25:28Z</time></trkpt><trkpt lat="44.50790861353583" lon="10.547459027650476"><ele>511.99999999999994</ele><time>2026-04-18T10:25:30Z</time></trkpt><trkpt lat="44.50796836655178" lon="10.547389892396618"><ele>512.0</ele><time>2026-04-18T10:25:31Z</time></trkpt><trkpt lat="44.50803371618805" lon="10.547378009854548"><ele>511.49999999999994</ele><time>2026-04-18T10:25:32Z</time></trkpt><trkpt lat="44.50810503179546" lon="10.547417889704047"><ele>511.0</ele><time>2026-04-18T10:25:33Z</time></trkpt><trkpt lat="44.50821311508965" lon="10.547403452003854"><ele>510.5</ele><time>2026-04-18T10:25:35Z</time></trkpt><trkpt lat="44.50827648194123" lon="10.547376992730442"><ele>510.0</ele><time>2026-04-18T10:25:36Z</time></trkpt><trkpt lat="44.50834703587247" lon="10.547358318970712"><ele>509.49999999999994</ele><time>2026-04-18T10:25:37Z</time></trkpt><trkpt lat="44.508420976712344" lon="10.547356394235939"><ele>509.0</ele><time>2026-04-18T10:25:38Z</time></trkpt><trkpt lat="44.508484527776474" lon="10.547343850220566"><ele>508.99999999999994</ele><time>2026-04-18T10:25:39Z</time></trkpt><trkpt lat="44.50854743873006" lon="10.547381666802291"><ele>509.0</ele><time>2026-04-18T10:25:40Z</time></trkpt><trkpt lat="44.50856485661394" lon="10.547477178863339"><ele>508.99999999999994</ele><time>2026-04-18T10:25:41Z</time></trkpt><trkpt lat="44.50859297126435" lon="10.547556709693845"><ele>508.99999999999994</ele><time>2026-04-18T10:25:42Z</time></trkpt><trkpt lat="44.508657322939115" lon="10.547589325696014"><ele>509.0</ele><time>2026-04-18T10:25:43Z</time></trkpt><trkpt lat="44.50872878082272" lon="10.547583535325431"><ele>508.99999999999994</ele><time>2026-04-18T10:25:44Z</time></trkpt><trkpt lat="44.50879282606765" lon="10.547534468421375"><ele>508.99999999999994</ele><time>2026-04-18T10:25:45Z</time></trkpt><trkpt lat="44.508879912510714" lon="10.547483847009113"><ele>507.99999999999994</ele><time>2026-04-18T10:25:46Z</time></trkpt><trkpt lat="44.50895459059858" lon="10.54749212361576"><ele>507.0</ele><time>2026-04-18T10:25:47Z</time></trkpt><trkpt lat="44.50902708486544" lon="10.547530960128755"><ele>506.0</ele><time>2026-04-18T10:25:48Z</time></trkpt><trkpt lat="44.50912150099195" lon="10.54758813163007"><ele>505.0</ele><time>2026-04-18T10:25:50Z</time></trkpt><trkpt lat="44.50919610072484" lon="10.547550870921485"><ele>503.99999999999994</ele><time>2026-04-18T10:25:54Z</time></trkpt><trkpt lat="44.50926183116626" lon="10.547535564736753"><ele>503.0</ele><time>2026-04-18T10:26:27Z</time></trkpt><trkpt lat="44.509377095478634" lon="10.547487450919617"><ele>502.99999999999994</ele><time>2026-04-18T10:26:29Z</time></trkpt><trkpt lat="44.50945870790426" lon="10.547467168528978"><ele>503.0</ele><time>2026-04-18T10:26:30Z</time></trkpt><trkpt lat="44.50955634732064" lon="10.547439638561997"><ele>503.0</ele><time>2026-04-18T10:26:32Z</time></trkpt><trkpt lat="44.50964129910333" lon="10.547421091920228"><ele>503.0</ele><time>2026-04-18T10:26:34Z</time></trkpt><trkpt lat="44.50971956314285" lon="10.547387565642765"><ele>502.99999999999994</ele><time>2026-04-18T10:26:36Z</time></trkpt><trkpt lat="44.50979190355629" lon="10.547293709025142"><ele>503.0</ele><time>2026-04-18T10:26:38Z</time></trkpt><trkpt lat="44.50984464939942" lon="10.547233481868686"><ele>502.16666666666663</ele><time>2026-04-18T10:26:39Z</time></trkpt><trkpt lat="44.50990450890819" lon="10.547167105762655"><ele>501.3333333333333</ele><time>2026-04-18T10:26:40Z</time></trkpt><trkpt lat="44.509986992949266" lon="10.547104978019577"><ele>500.5</ele><time>2026-04-18T10:26:41Z</time></trkpt><trkpt lat="44.51009288330312" lon="10.547039463076885"><ele>499.66666666666663</ele><time>2026-04-18T10:26:42Z</time></trkpt><trkpt lat="44.51017276678803" lon="10.546998080192612"><ele>498.8333333333333</ele><time>2026-04-18T10:26:43Z</time></trkpt><trkpt lat="44.51023302416561" lon="10.546954353577446"><ele>498.0</ele><time>2026-04-18T10:26:44Z</time></trkpt><trkpt lat="44.51028939194389" lon="10.546890924429155"><ele>497.0</ele><time>2026-04-18T10:26:45Z</time></trkpt><trkpt lat="44.510350726060665" lon="10.546823118841639"><ele>496.0</ele><time>2026-04-18T10:26:46Z</time></trkpt><trkpt lat="44.510419224874084" lon="10.5467202515202"><ele>495.0</ele><time>2026-04-18T10:26:48Z</time></trkpt><trkpt lat="44.51046564224669" lon="10.546639098810738"><ele>494.0</ele><time>2026-04-18T10:26:49Z</time></trkpt><trkpt lat="44.5104973840895" lon="10.546531083197786"><ele>493.0</ele><time>2026-04-18T10:26:50Z</time></trkpt><trkpt lat="44.5105315330671" lon="10.546406443613893"><ele>492.0</ele><time>2026-04-18T10:26:51Z</time></trkpt><trkpt lat="44.510575415215236" lon="10.546300460790835"><ele>492.0</ele><time>2026-04-18T10:26:53Z</time></trkpt><trkpt lat="44.510635478739694" lon="10.546216528965015"><ele>492.00000000000006</ele><time>2026-04-18T10:26:56Z</time></trkpt><trkpt lat="44.51071045685219" lon="10.546123791353212"><ele>492.00000000000006</ele><time>2026-04-18T10:26:58Z</time></trkpt><trkpt lat="44.510789228206" lon="10.54605662723042"><ele>492.0</ele><time>2026-04-18T10:27:00Z</time></trkpt><trkpt lat="44.51088509903628" lon="10.546002737481079"><ele>492.0</ele><time>2026-04-18T10:27:02Z</time></trkpt><trkpt lat="44.51094832493095" lon="10.545936860697836"><ele>493.6</ele><time>2026-04-18T10:27:03Z</time></trkpt><trkpt lat="44.511047446943344" lon="10.545841994185986"><ele>495.20000000000005</ele><time>2026-04-18T10:27:04Z</time></trkpt><trkpt lat="44.5111226983316" lon="10.545787299845177"><ele>496.8</ele><time>2026-04-18T10:27:05Z</time></trkpt><trkpt lat="44.51113883610171" lon="10.545692544893868"><ele>498.4</ele><time>2026-04-18T10:27:07Z</time></trkpt><trkpt lat="44.51114119336624" lon="10.545565717035913"><ele>500.0</ele><time>2026-04-18T10:27:09Z</time></trkpt><trkpt lat="44.511160137745925" lon="10.54543308387979"><ele>502.49999999999994</ele><time>2026-04-18T10:27:11Z</time></trkpt><trkpt lat="44.51117494068673" lon="10.54534223236535"><ele>505.0</ele><time>2026-04-18T10:27:12Z</time></trkpt><trkpt lat="44.511212201194056" lon="10.545243273808824"><ele>507.5</ele><time>2026-04-18T10:27:13Z</time></trkpt><trkpt lat="44.51125121100815" lon="10.545151146971019"><ele>510.0</ele><time>2026-04-18T10:27:14Z</time></trkpt><trkpt lat="44.51128464598989" lon="10.545069386442183"><ele>512.5</ele><time>2026-04-18T10:27:15Z</time></trkpt><trkpt lat="44.51133922453557" lon="10.544964247406327"><ele>515.0</ele><time>2026-04-18T10:27:16Z</time></trkpt><trkpt lat="44.511387724285456" lon="10.54488020948904"><ele>510.66666666666663</ele><time>2026-04-18T10:27:17Z</time></trkpt><trkpt lat="44.51143150741787" lon="10.544777196148289"><ele>506.3333333333333</ele><time>2026-04-18T10:27:18Z</time></trkpt><trkpt lat="44.51145492357776" lon="10.544692572044491"><ele>502.0</ele><time>2026-04-18T10:27:19Z</time></trkpt><trkpt lat="44.51149512343264" lon="10.544599777971687"><ele>497.66666666666663</ele><time>2026-04-18T10:27:20Z</time></trkpt><trkpt lat="44.51153763173164" lon="10.54449711129471"><ele>493.3333333333333</ele><time>2026-04-18T10:27:21Z</time></trkpt><trkpt lat="44.51157704254247" lon="10.544405424747643"><ele>489.0</ele><time>2026-04-18T10:27:22Z</time></trkpt><trkpt lat="44.51163672986852" lon="10.544333705625894"><ele>489.0</ele><time>2026-04-18T10:27:23Z</time></trkpt><trkpt lat="44.51174157344326" lon="10.544305962649704"><ele>489.0</ele><time>2026-04-18T10:27:25Z</time></trkpt><trkpt lat="44.51179592243749" lon="10.544204947449865"><ele>489.0</ele><time>2026-04-18T10:27:26Z</time></trkpt><trkpt lat="44.51183790979591" lon="10.54411578705178"><ele>489.0</ele><time>2026-04-18T10:27:27Z</time></trkpt><trkpt lat="44.511881382377844" lon="10.544021841458667"><ele>489.0</ele><time>2026-04-18T10:27:28Z</time></trkpt><trkpt lat="44.51193173922018" lon="10.543877802626888"><ele>489.0</ele><time>2026-04-18T10:27:30Z</time></trkpt><trkpt lat="44.51197118520569" lon="10.543780139176175"><ele>489.0</ele><time>2026-04-18T10:27:32Z</time></trkpt><trkpt lat="44.51208627912261" lon="10.543729153977406"><ele>489.0</ele><time>2026-04-18T10:27:34Z</time></trkpt><trkpt lat="44.512163093341165" lon="10.543698687352043"><ele>489.0</ele><time>2026-04-18T10:27:35Z</time></trkpt><trkpt lat="44.512233001780174" lon="10.543638886108708"><ele>489.0</ele><time>2026-04-18T10:27:36Z</time></trkpt><trkpt lat="44.512280587970764" lon="10.543574850321917"><ele>489.0</ele><time>2026-04-18T10:27:37Z</time></trkpt><trkpt lat="44.51233192785768" lon="10.543428403187729"><ele>488.0</ele><time>2026-04-18T10:27:39Z</time></trkpt><trkpt lat="44.51236763146888" lon="10.5433344964078"><ele>487.0</ele><time>2026-04-18T10:27:40Z</time></trkpt><trkpt lat="44.51250192204913" lon="10.54332074652663"><ele>486.0</ele><time>2026-04-18T10:27:41Z</time></trkpt><trkpt lat="44.51252511396819" lon="10.543200020843926"><ele>485.0</ele><time>2026-04-18T10:27:43Z</time></trkpt><trkpt lat="44.512586734303696" lon="10.543170583220547"><ele>484.0</ele><time>2026-04-18T10:27:44Z</time></trkpt><trkpt lat="44.51268678911712" lon="10.543177955958237"><ele>484.0</ele><time>2026-04-18T10:27:46Z</time></trkpt><trkpt lat="44.51277501596375" lon="10.543130121523795"><ele>483.99999999999994</ele><time>2026-04-18T10:27:48Z</time></trkpt><trkpt lat="44.512830423454865" lon="10.543051343622201"><ele>484.0</ele><time>2026-04-18T10:27:49Z</time></trkpt><trkpt lat="44.51289273095066" lon="10.54302470518736"><ele>484.0</ele><time>2026-04-18T10:27:51Z</time></trkpt><trkpt lat="44.51295543867851" lon="10.543036211308994"><ele>483.99999999999994</ele><time>2026-04-18T10:27:53Z</time></trkpt><trkpt lat="44.51301992041402" lon="10.543067817291105"><ele>484.0</ele><time>2026-04-18T10:27:54Z</time></trkpt><trkpt lat="44.51309025941244" lon="10.543065066674806"><ele>484.0</ele><time>2026-04-18T10:27:55Z</time></trkpt><trkpt lat="44.51318582914013" lon="10.54321059251876"><ele>484.0</ele><time>2026-04-18T10:27:57Z</time></trkpt><trkpt lat="44.51328848561533" lon="10.543116481699503"><ele>484.0</ele><time>2026-04-18T10:27:59Z</time></trkpt><trkpt lat="44.51335491696268" lon="10.543134716094054"><ele>484.0</ele><time>2026-04-18T10:28:02Z</time></trkpt><trkpt lat="44.513420382978715" lon="10.543252741134063"><ele>484.0</ele><time>2026-04-18T10:28:04Z</time></trkpt><trkpt lat="44.513552048387645" lon="10.543329538969122"><ele>484.0</ele><time>2026-04-18T10:28:06Z</time></trkpt><trkpt lat="44.51361126109672" lon="10.543487816610938"><ele>484.00000000000006</ele><time>2026-04-18T10:28:08Z</time></trkpt><trkpt lat="44.513651536532166" lon="10.543567937248163"><ele>484.0</ele><time>2026-04-18T10:28:09Z</time></trkpt><trkpt lat="44.51372931384253" lon="10.54358466851781"><ele>484.0</ele><time>2026-04-18T10:28:11Z</time></trkpt><trkpt lat="44.51384566090966" lon="10.543518061610342"><ele>484.0</ele><time>2026-04-18T10:28:13Z</time></trkpt><trkpt lat="44.51390638733978" lon="10.543474675540695"><ele>484.00000000000006</ele><time>2026-04-18T10:28:14Z</time></trkpt><trkpt lat="44.51399179339807" lon="10.543503549577844"><ele>484.0</ele><time>2026-04-18T10:28:16Z</time></trkpt><trkpt lat="44.514056749387024" lon="10.543551593696128"><ele>486.4</ele><time>2026-04-18T10:28:17Z</time></trkpt><trkpt lat="44.514130652765715" lon="10.543627494705627"><ele>488.79999999999995</ele><time>2026-04-18T10:28:19Z</time></trkpt><trkpt lat="44.514173498811964" lon="10.54369219959507"><ele>491.20000000000005</ele><time>2026-04-18T10:28:20Z</time></trkpt><trkpt lat="44.5142407297287" lon="10.543834797340667"><ele>493.6</ele><time>2026-04-18T10:28:22Z</time></trkpt><trkpt lat="44.514284176088196" lon="10.543986220900106"><ele>496.0</ele><time>2026-04-18T10:28:24Z</time></trkpt><trkpt lat="44.51430979842047" lon="10.544088614582815"><ele>497.4</ele><time>2026-04-18T10:28:25Z</time></trkpt><trkpt lat="44.514321856962425" lon="10.544180262972317"><ele>498.8</ele><time>2026-04-18T10:28:26.001Z</time></trkpt><trkpt lat="44.514361758492306" lon="10.54432875355055"><ele>500.19999999999993</ele><time>2026-04-18T10:28:28.001Z</time></trkpt><trkpt lat="44.514394199680225" lon="10.544421953395991"><ele>501.59999999999997</ele><time>2026-04-18T10:28:29.001Z</time></trkpt><trkpt lat="44.51445619975755" lon="10.54454255140432"><ele>503.0</ele><time>2026-04-18T10:28:32.001Z</time></trkpt><trkpt lat="44.514539164828875" lon="10.544664652923679"><ele>505.59999999999997</ele><time>2026-04-18T10:28:34.001Z</time></trkpt><trkpt lat="44.51460670112879" lon="10.544771118716117"><ele>508.19999999999993</ele><time>2026-04-18T10:28:36.001Z</time></trkpt><trkpt lat="44.51474056444401" lon="10.544801082463342"><ele>510.8</ele><time>2026-04-18T10:28:38.001Z</time></trkpt><trkpt lat="44.51480610828819" lon="10.54480183042356"><ele>513.4</ele><time>2026-04-18T10:28:40.001Z</time></trkpt><trkpt lat="44.514873565114456" lon="10.544832245376531"><ele>516.0</ele><time>2026-04-18T10:28:42.001Z</time></trkpt><trkpt lat="44.515115116383676" lon="10.545028241266936"><ele>516.0</ele><time>2026-04-18T10:28:44Z</time></trkpt><trkpt lat="44.51518549343869" lon="10.545080344385324"><ele>516.0</ele><time>2026-04-18T10:28:45Z</time></trkpt><trkpt lat="44.51525180559776" lon="10.545135411164406"><ele>516.0</ele><time>2026-04-18T10:28:46Z</time></trkpt><trkpt lat="44.51534819334703" lon="10.545182997058372"><ele>516.0</ele><time>2026-04-18T10:28:48Z</time></trkpt><trkpt lat="44.515404573462135" lon="10.545246033797754"><ele>516.0</ele><time>2026-04-18T10:28:50Z</time></trkpt><trkpt lat="44.5154620831581" lon="10.5453618301744"><ele>516.0</ele><time>2026-04-18T10:28:52Z</time></trkpt><trkpt lat="44.51541251675758" lon="10.545462727787577"><ele>520.2</ele><time>2026-04-18T10:28:54Z</time></trkpt><trkpt lat="44.51532401218661" lon="10.54554369100302"><ele>524.4000000000001</ele><time>2026-04-18T10:28:56Z</time></trkpt><trkpt lat="44.51523409607119" lon="10.545627949808484"><ele>528.6</ele><time>2026-04-18T10:28:58Z</time></trkpt><trkpt lat="44.5151656534448" lon="10.545567944722466"><ele>532.8000000000001</ele><time>2026-04-18T10:29:00Z</time></trkpt><trkpt lat="44.51511553964279" lon="10.545496368953017"><ele>537.0</ele><time>2026-04-18T10:29:01Z</time></trkpt><trkpt lat="44.5150092461396" lon="10.545477623434945"><ele>537.0</ele><time>2026-04-18T10:29:04Z</time></trkpt><trkpt lat="44.51487959878222" lon="10.545458649911568"><ele>537.0</ele><time>2026-04-18T10:29:06Z</time></trkpt><trkpt lat="44.51484512651146" lon="10.54554927067138"><ele>537.0</ele><time>2026-04-18T10:29:09Z</time></trkpt><trkpt lat="44.51488329315075" lon="10.54562954701869"><ele>537.0</ele><time>2026-04-18T10:29:11Z</time></trkpt><trkpt lat="44.5149216700289" lon="10.545708701557842"><ele>537.0</ele><time>2026-04-18T10:29:13Z</time></trkpt><trkpt lat="44.51492665577792" lon="10.545879862687999"><ele>537.0</ele><time>2026-04-18T10:29:15Z</time></trkpt><trkpt lat="44.51486711205468" lon="10.545921424883632"><ele>537.0</ele><time>2026-04-18T10:29:17Z</time></trkpt><trkpt lat="44.51478537902029" lon="10.545858962453826"><ele>537.0</ele><time>2026-04-18T10:29:19Z</time></trkpt><trkpt lat="44.514720777671506" lon="10.545820564320934"><ele>537.0</ele><time>2026-04-18T10:29:21Z</time></trkpt><trkpt lat="44.51464786196726" lon="10.545751485520583"><ele>537.0</ele><time>2026-04-18T10:29:24Z</time></trkpt><trkpt lat="44.514588059692315" lon="10.54579361974088"><ele>537.0</ele><time>2026-04-18T10:29:27Z</time></trkpt><trkpt lat="44.51452894188372" lon="10.54584128598852"><ele>538.8000000000001</ele><time>2026-04-18T10:29:30Z</time></trkpt><trkpt lat="44.51446688242028" lon="10.545913914853022"><ele>540.6</ele><time>2026-04-18T10:29:32Z</time></trkpt><trkpt lat="44.51440759248275" lon="10.546050880252382"><ele>542.4000000000001</ele><time>2026-04-18T10:29:34Z</time></trkpt><trkpt lat="44.514347681862844" lon="10.546164627488464"><ele>544.2</ele><time>2026-04-18T10:29:36Z</time></trkpt><trkpt lat="44.51422898764962" lon="10.546237958370249"><ele>546.0</ele><time>2026-04-18T10:29:38Z</time></trkpt><trkpt lat="44.514152776824076" lon="10.546220483975977"><ele>546.0</ele><time>2026-04-18T10:29:39Z</time></trkpt><trkpt lat="44.514088183599085" lon="10.546201557651628"><ele>546.0</ele><time>2026-04-18T10:29:40Z</time></trkpt><trkpt lat="44.514017319754345" lon="10.54622406965078"><ele>546.0</ele><time>2026-04-18T10:29:42Z</time></trkpt><trkpt lat="44.51404550219053" lon="10.546325230586836"><ele>546.0</ele><time>2026-04-18T10:29:44Z</time></trkpt><trkpt lat="44.514129596794724" lon="10.546395039446725"><ele>546.0</ele><time>2026-04-18T10:29:46Z</time></trkpt><trkpt lat="44.5142182300794" lon="10.546479506129002"><ele>546.0</ele><time>2026-04-18T10:29:48Z</time></trkpt><trkpt lat="44.51428596012493" lon="10.546586784000622"><ele>549.8</ele><time>2026-04-18T10:29:50Z</time></trkpt><trkpt lat="44.51427260123107" lon="10.546702779874213"><ele>553.6</ele><time>2026-04-18T10:29:52Z</time></trkpt><trkpt lat="44.51418670176132" lon="10.546787262856778"><ele>557.4</ele><time>2026-04-18T10:29:54Z</time></trkpt><trkpt lat="44.51411673036029" lon="10.54682514693902"><ele>561.2</ele><time>2026-04-18T10:29:56Z</time></trkpt><trkpt lat="44.51413580801977" lon="10.546953442700476"><ele>565.0</ele><time>2026-04-18T10:29:59Z</time></trkpt><trkpt lat="44.51420274754132" lon="10.547060487360524"><ele>567.8</ele><time>2026-04-18T10:30:01Z</time></trkpt><trkpt lat="44.51418238839161" lon="10.547222601131754"><ele>570.6</ele><time>2026-04-18T10:30:03Z</time></trkpt><trkpt lat="44.51416434603632" lon="10.547318275359324"><ele>573.4</ele><time>2026-04-18T10:30:04Z</time></trkpt><trkpt lat="44.514180286299705" lon="10.547504545660168"><ele>576.2</ele><time>2026-04-18T10:30:06Z</time></trkpt><trkpt lat="44.514212708380164" lon="10.547620120258664"><ele>579.0</ele><time>2026-04-18T10:30:08Z</time></trkpt><trkpt lat="44.51430201707271" lon="10.547647820906503"><ele>579.0</ele><time>2026-04-18T10:30:10Z</time></trkpt><trkpt lat="44.514388968841864" lon="10.547727184627496"><ele>579.0</ele><time>2026-04-18T10:30:12Z</time></trkpt><trkpt lat="44.51448320406568" lon="10.547775978133055"><ele>579.0</ele><time>2026-04-18T10:30:14Z</time></trkpt><trkpt lat="44.51452712146019" lon="10.547863634588403"><ele>579.0</ele><time>2026-04-18T10:30:16Z</time></trkpt><trkpt lat="44.51456760020502" lon="10.54794130032033"><ele>579.0</ele><time>2026-04-18T10:30:17Z</time></trkpt><trkpt lat="44.514676889405514" lon="10.548049831747825"><ele>583.5</ele><time>2026-04-18T10:30:19Z</time></trkpt><trkpt lat="44.514782559612456" lon="10.54814556727277"><ele>588.0</ele><time>2026-04-18T10:30:20Z</time></trkpt><trkpt lat="44.514898439409485" lon="10.54821215280933"><ele>592.5</ele><time>2026-04-18T10:30:21Z</time></trkpt><trkpt lat="44.51497082137298" lon="10.548261010029137"><ele>597.0</ele><time>2026-04-18T10:30:22Z</time></trkpt><trkpt lat="44.5151043786651" lon="10.548269317906863"><ele>597.0</ele><time>2026-04-18T10:30:24Z</time></trkpt><trkpt lat="44.51519859150359" lon="10.548331044019443"><ele>597.0</ele><time>2026-04-18T10:30:25Z</time></trkpt><trkpt lat="44.515286512589704" lon="10.548458614242943"><ele>597.0</ele><time>2026-04-18T10:30:27Z</time></trkpt><trkpt lat="44.515363271953724" lon="10.548579112456926"><ele>597.0</ele><time>2026-04-18T10:30:29Z</time></trkpt><trkpt lat="44.5154176377335" lon="10.548681909314187"><ele>597.0</ele><time>2026-04-18T10:30:30Z</time></trkpt><trkpt lat="44.515481858097615" lon="10.548801115338788"><ele>596.6</ele><time>2026-04-18T10:30:31Z</time></trkpt><trkpt lat="44.515540822495225" lon="10.548899471431051"><ele>596.2</ele><time>2026-04-18T10:30:32.001Z</time></trkpt><trkpt lat="44.515594530076264" lon="10.548977492329753"><ele>595.8</ele><time>2026-04-18T10:30:33.001Z</time></trkpt><trkpt lat="44.51565281258615" lon="10.54905734857948"><ele>595.4</ele><time>2026-04-18T10:30:34.001Z</time></trkpt><trkpt lat="44.5157094242216" lon="10.549136667947336"><ele>595.0</ele><time>2026-04-18T10:30:35.001Z</time></trkpt><trkpt lat="44.515798757486785" lon="10.549260127499366"><ele>595.0</ele><time>2026-04-18T10:30:36.001Z</time></trkpt><trkpt lat="44.515870695674685" lon="10.549379930870678"><ele>595.0</ele><time>2026-04-18T10:30:37.001Z</time></trkpt><trkpt lat="44.51592494216778" lon="10.54949286320199"><ele>595.0</ele><time>2026-04-18T10:30:38.001Z</time></trkpt><trkpt lat="44.51598549223172" lon="10.54962217278007"><ele>595.0</ele><time>2026-04-18T10:30:39.001Z</time></trkpt><trkpt lat="44.51603506879739" lon="10.549738848697785"><ele>595.0</ele><time>2026-04-18T10:30:40.001Z</time></trkpt><trkpt lat="44.516091638755306" lon="10.549868011378038"><ele>594.0</ele><time>2026-04-18T10:30:41.001Z</time></trkpt><trkpt lat="44.516134951321675" lon="10.550004497216149"><ele>593.0</ele><time>2026-04-18T10:30:42.001Z</time></trkpt><trkpt lat="44.51617806770244" lon="10.550111153494072"><ele>592.0</ele><time>2026-04-18T10:30:43.001Z</time></trkpt><trkpt lat="44.51622658380371" lon="10.550212590532599"><ele>591.0</ele><time>2026-04-18T10:30:44.001Z</time></trkpt><trkpt lat="44.51628582663955" lon="10.550365789695077"><ele>590.0</ele><time>2026-04-18T10:30:45.001Z</time></trkpt><trkpt lat="44.516326450130876" lon="10.550504944859652"><ele>590.0</ele><time>2026-04-18T10:30:46.001Z</time></trkpt><trkpt lat="44.5163775044774" lon="10.55061189715834"><ele>590.0</ele><time>2026-04-18T10:30:47.001Z</time></trkpt><trkpt lat="44.516417855936275" lon="10.550800327356345"><ele>590.0</ele><time>2026-04-18T10:30:49Z</time></trkpt><trkpt lat="44.51644370031008" lon="10.550958105622017"><ele>590.0</ele><time>2026-04-18T10:30:50Z</time></trkpt><trkpt lat="44.51645998734331" lon="10.551114289274294"><ele>588.25</ele><time>2026-04-18T10:30:51Z</time></trkpt><trkpt lat="44.516482675463806" lon="10.551275380458812"><ele>586.5</ele><time>2026-04-18T10:30:52Z</time></trkpt><trkpt lat="44.51651935747584" lon="10.55141836338961"><ele>584.75</ele><time>2026-04-18T10:30:53Z</time></trkpt><trkpt lat="44.51658048851092" lon="10.5515827516035"><ele>583.0</ele><time>2026-04-18T10:30:54Z</time></trkpt><trkpt lat="44.51666579376124" lon="10.551776128389893"><ele>583.0</ele><time>2026-04-18T10:30:55Z</time></trkpt><trkpt lat="44.51674485537942" lon="10.55192786466183"><ele>583.0</ele><time>2026-04-18T10:30:56Z</time></trkpt><trkpt lat="44.51683372956245" lon="10.552084938619775"><ele>583.0</ele><time>2026-04-18T10:30:57Z</time></trkpt><trkpt lat="44.51689069729336" lon="10.552246977527181"><ele>583.0</ele><time>2026-04-18T10:30:58Z</time></trkpt><trkpt lat="44.51693760564613" lon="10.552393297754286"><ele>581.5</ele><time>2026-04-18T10:30:59Z</time></trkpt><trkpt lat="44.516968933964996" lon="10.552572881121302"><ele>580.0</ele><time>2026-04-18T10:31:00Z</time></trkpt><trkpt lat="44.51698441491632" lon="10.552777869345508"><ele>578.5</ele><time>2026-04-18T10:31:01Z</time></trkpt><trkpt lat="44.517016786905835" lon="10.552983330248859"><ele>577.0</ele><time>2026-04-18T10:31:02Z</time></trkpt><trkpt lat="44.5170372424307" lon="10.5531214394116"><ele>577.0</ele><time>2026-04-18T10:31:03Z</time></trkpt><trkpt lat="44.5170594176866" lon="10.553257463005767"><ele>577.0</ele><time>2026-04-18T10:31:04Z</time></trkpt><trkpt lat="44.5170952270055" lon="10.553395670945195"><ele>577.0</ele><time>2026-04-18T10:31:05Z</time></trkpt><trkpt lat="44.51716252834922" lon="10.553560879462037"><ele>577.0</ele><time>2026-04-18T10:31:06Z</time></trkpt><trkpt lat="44.51724260636643" lon="10.553783248436927"><ele>580.6666666666667</ele><time>2026-04-18T10:31:07Z</time></trkpt><trkpt lat="44.51732496021769" lon="10.554023073811745"><ele>584.3333333333334</ele><time>2026-04-18T10:31:08Z</time></trkpt><trkpt lat="44.517421659059714" lon="10.554317110129531"><ele>588.0</ele><time>2026-04-18T10:31:09Z</time></trkpt><trkpt lat="44.51751716333328" lon="10.554600035768901"><ele>589.25</ele><time>2026-04-18T10:31:10Z</time></trkpt><trkpt lat="44.51756532695295" lon="10.554726788028692"><ele>590.5</ele><time>2026-04-18T10:31:11Z</time></trkpt><trkpt lat="44.51763226203493" lon="10.554913520639019"><ele>591.75</ele><time>2026-04-18T10:31:12Z</time></trkpt><trkpt lat="44.517681283040524" lon="10.555078125751358"><ele>593.0</ele><time>2026-04-18T10:31:13Z</time></trkpt><trkpt lat="44.51773760997868" lon="10.555251002532232"><ele>593.1999999999999</ele><time>2026-04-18T10:31:14Z</time></trkpt><trkpt lat="44.517799145935136" lon="10.555413698050797"><ele>593.4</ele><time>2026-04-18T10:31:15Z</time></trkpt><trkpt lat="44.51786086455009" lon="10.555535336454422"><ele>593.5999999999999</ele><time>2026-04-18T10:31:16Z</time></trkpt><trkpt lat="44.5179232390186" lon="10.55564988871577"><ele>593.8</ele><time>2026-04-18T10:31:17Z</time></trkpt><trkpt lat="44.51796758214554" lon="10.55576067293069"><ele>594.0</ele><time>2026-04-18T10:31:18Z</time></trkpt><trkpt lat="44.51800751861919" lon="10.555849088924681"><ele>594.0</ele><time>2026-04-18T10:31:19Z</time></trkpt><trkpt lat="44.518048628255684" lon="10.555925661827077"><ele>594.0</ele><time>2026-04-18T10:31:20Z</time></trkpt><trkpt lat="44.518097665203236" lon="10.555988079437572"><ele>594.0</ele><time>2026-04-18T10:31:21Z</time></trkpt><trkpt lat="44.51815335812987" lon="10.556034604613966"><ele>594.0</ele><time>2026-04-18T10:31:22Z</time></trkpt><trkpt lat="44.51821286680654" lon="10.556063976782475"><ele>594.0</ele><time>2026-04-18T10:31:23Z</time></trkpt><trkpt lat="44.518278625527195" lon="10.556076006193072"><ele>594.0</ele><time>2026-04-18T10:31:24Z</time></trkpt><trkpt lat="44.51840170289025" lon="10.556074308656338"><ele>594.0</ele><time>2026-04-18T10:31:26Z</time></trkpt><trkpt lat="44.518479328909855" lon="10.556052081816492"><ele>594.0</ele><time>2026-04-18T10:31:27Z</time></trkpt><trkpt lat="44.518572355358394" lon="10.556010960400702"><ele>594.0</ele><time>2026-04-18T10:31:28Z</time></trkpt><trkpt lat="44.51865586403255" lon="10.555982596228553"><ele>594.0</ele><time>2026-04-18T10:31:29Z</time></trkpt><trkpt lat="44.51873362769782" lon="10.555968690793673"><ele>594.0</ele><time>2026-04-18T10:31:30Z</time></trkpt><trkpt lat="44.518801662333324" lon="10.555956691239896"><ele>594.0</ele><time>2026-04-18T10:31:31Z</time></trkpt><trkpt lat="44.518866629504224" lon="10.555975522732458"><ele>593.25</ele><time>2026-04-18T10:31:32Z</time></trkpt><trkpt lat="44.518907347897006" lon="10.55611092078469"><ele>592.5</ele><time>2026-04-18T10:31:34Z</time></trkpt><trkpt lat="44.51882723599223" lon="10.556263976702144"><ele>591.75</ele><time>2026-04-18T10:31:36Z</time></trkpt><trkpt lat="44.51877097104236" lon="10.556412930446541"><ele>591.0</ele><time>2026-04-18T10:31:37Z</time></trkpt><trkpt lat="44.51872514876478" lon="10.556558429340882"><ele>589.6</ele><time>2026-04-18T10:31:38Z</time></trkpt><trkpt lat="44.51867662674543" lon="10.55667938560022"><ele>588.2</ele><time>2026-04-18T10:31:39Z</time></trkpt><trkpt lat="44.51862374160008" lon="10.556785611282478"><ele>586.8</ele><time>2026-04-18T10:31:40Z</time></trkpt><trkpt lat="44.518601290397925" lon="10.556897376346168"><ele>585.4</ele><time>2026-04-18T10:31:41Z</time></trkpt><trkpt lat="44.51860435306401" lon="10.5570512633783"><ele>584.0</ele><time>2026-04-18T10:31:42Z</time></trkpt><trkpt lat="44.51861760036008" lon="10.557205272409066"><ele>581.2</ele><time>2026-04-18T10:31:44Z</time></trkpt><trkpt lat="44.51860154817515" lon="10.5573498034975"><ele>578.4</ele><time>2026-04-18T10:31:45Z</time></trkpt><trkpt lat="44.51858506850855" lon="10.557435298747025"><ele>575.6</ele><time>2026-04-18T10:31:46Z</time></trkpt><trkpt lat="44.51850671412677" lon="10.557503308344307"><ele>572.8</ele><time>2026-04-18T10:31:48Z</time></trkpt><trkpt lat="44.51840958788713" lon="10.557458771021452"><ele>570.0</ele><time>2026-04-18T10:31:49Z</time></trkpt><trkpt lat="44.51831131945547" lon="10.55749716896236"><ele>570.0</ele><time>2026-04-18T10:31:50Z</time></trkpt><trkpt lat="44.5182338266646" lon="10.557541503901108"><ele>570.0</ele><time>2026-04-18T10:31:52Z</time></trkpt><trkpt lat="44.518192652443474" lon="10.55768162989548"><ele>570.0</ele><time>2026-04-18T10:31:54Z</time></trkpt><trkpt lat="44.518215731561334" lon="10.557798037039712"><ele>570.0</ele><time>2026-04-18T10:31:55Z</time></trkpt><trkpt lat="44.51826063628" lon="10.55794694109252"><ele>570.0</ele><time>2026-04-18T10:31:56Z</time></trkpt><trkpt lat="44.51830512466009" lon="10.558127042814895"><ele>568.8</ele><time>2026-04-18T10:31:57Z</time></trkpt><trkpt lat="44.51835224559539" lon="10.5582822299338"><ele>567.6</ele><time>2026-04-18T10:31:58Z</time></trkpt><trkpt lat="44.51836722226302" lon="10.558427532747938"><ele>566.4</ele><time>2026-04-18T10:31:59Z</time></trkpt><trkpt lat="44.51839079718767" lon="10.558546578445995"><ele>565.2</ele><time>2026-04-18T10:32:00Z</time></trkpt><trkpt lat="44.518411549355655" lon="10.558651370112532"><ele>564.0</ele><time>2026-04-18T10:32:03Z</time></trkpt><trkpt lat="44.51839217075066" lon="10.558553514449875"><ele>564.0</ele><time>2026-04-18T10:32:18Z</time></trkpt><trkpt lat="44.518420092605794" lon="10.558697006617694"><ele>564.0</ele><time>2026-04-18T10:33:05Z</time></trkpt><trkpt lat="44.51844498566635" lon="10.558805696506221"><ele>564.0</ele><time>2026-04-18T10:33:08Z</time></trkpt><trkpt lat="44.51847651259939" lon="10.558896944998374"><ele>564.0</ele><time>2026-04-18T10:33:10Z</time></trkpt><trkpt lat="44.51852382509643" lon="10.55902341183076"><ele>564.0</ele><time>2026-04-18T10:33:12Z</time></trkpt><trkpt lat="44.51857319017147" lon="10.559152234155428"><ele>564.2</ele><time>2026-04-18T10:33:14Z</time></trkpt><trkpt lat="44.518599975509375" lon="10.559273346802295"><ele>564.4</ele><time>2026-04-18T10:33:16Z</time></trkpt><trkpt lat="44.51861258770582" lon="10.55937999259954"><ele>564.6</ele><time>2026-04-18T10:33:18Z</time></trkpt><trkpt lat="44.518642896812366" lon="10.559537148541432"><ele>564.8</ele><time>2026-04-18T10:33:21Z</time></trkpt><trkpt lat="44.51867999024483" lon="10.559656692052375"><ele>565.0</ele><time>2026-04-18T10:33:23Z</time></trkpt><trkpt lat="44.518725501410465" lon="10.559783167746456"><ele>563.0</ele><time>2026-04-18T10:33:25Z</time></trkpt><trkpt lat="44.51878703341705" lon="10.55989631644779"><ele>561.0</ele><time>2026-04-18T10:33:27Z</time></trkpt><trkpt lat="44.51883917177424" lon="10.560018969346402"><ele>559.0</ele><time>2026-04-18T10:33:29Z</time></trkpt><trkpt lat="44.51888358739695" lon="10.560160988790946"><ele>557.0</ele><time>2026-04-18T10:33:31Z</time></trkpt><trkpt lat="44.51890754328187" lon="10.560246824808258"><ele>555.0</ele><time>2026-04-18T10:33:33Z</time></trkpt><trkpt lat="44.51893698739556" lon="10.560332815902365"><ele>553.0</ele><time>2026-04-18T10:33:36Z</time></trkpt><trkpt lat="44.51880043864307" lon="10.560446497613174"><ele>553.0</ele><time>2026-04-18T10:33:40Z</time></trkpt><trkpt lat="44.51874177412676" lon="10.560517363412217"><ele>553.0</ele><time>2026-04-18T10:33:41Z</time></trkpt><trkpt lat="44.51866696375371" lon="10.560567103153678"><ele>553.0</ele><time>2026-04-18T10:33:42Z</time></trkpt><trkpt lat="44.51857800996244" lon="10.560595055308816"><ele>553.0</ele><time>2026-04-18T10:33:43Z</time></trkpt><trkpt lat="44.518501658521956" lon="10.560652514207638"><ele>553.0</ele><time>2026-04-18T10:33:44Z</time></trkpt><trkpt lat="44.5183864040721" lon="10.560677523523585"><ele>553.0</ele><time>2026-04-18T10:33:45Z</time></trkpt><trkpt lat="44.51829603998252" lon="10.560704293802862"><ele>553.0</ele><time>2026-04-18T10:33:46Z</time></trkpt><trkpt lat="44.518166392862355" lon="10.560731080119561"><ele>553.0</ele><time>2026-04-18T10:33:47Z</time></trkpt><trkpt lat="44.51806416766999" lon="10.560744785453611"><ele>553.0</ele><time>2026-04-18T10:33:48Z</time></trkpt><trkpt lat="44.5179688121597" lon="10.560760075782078"><ele>553.0</ele><time>2026-04-18T10:33:49Z</time></trkpt><trkpt lat="44.51785984622674" lon="10.560775189548021"><ele>553.25</ele><time>2026-04-18T10:33:51Z</time></trkpt><trkpt lat="44.51781209292079" lon="10.560968330265933"><ele>553.5</ele><time>2026-04-18T10:33:53Z</time></trkpt><trkpt lat="44.517773679535885" lon="10.56108306873546"><ele>553.75</ele><time>2026-04-18T10:33:54Z</time></trkpt><trkpt lat="44.517726415820086" lon="10.561210476117349"><ele>554.0</ele><time>2026-04-18T10:33:55Z</time></trkpt><trkpt lat="44.517672202885" lon="10.561348527664657"><ele>554.0</ele><time>2026-04-18T10:33:56Z</time></trkpt><trkpt lat="44.517616964818025" lon="10.561473685517289"><ele>554.0</ele><time>2026-04-18T10:33:57Z</time></trkpt><trkpt lat="44.51755986972188" lon="10.561608774447505"><ele>554.0</ele><time>2026-04-18T10:33:58Z</time></trkpt><trkpt lat="44.51748025248039" lon="10.561717223428545"><ele>554.0</ele><time>2026-04-18T10:33:59Z</time></trkpt><trkpt lat="44.51740851861672" lon="10.56185267674605"><ele>554.0</ele><time>2026-04-18T10:34:00Z</time></trkpt><trkpt lat="44.517335117839" lon="10.561996270925494"><ele>554.5</ele><time>2026-04-18T10:34:01Z</time></trkpt><trkpt lat="44.51726463092937" lon="10.56214392918936"><ele>555.0</ele><time>2026-04-18T10:34:02Z</time></trkpt><trkpt lat="44.517204209744385" lon="10.562320677070185"><ele>555.5</ele><time>2026-04-18T10:34:03Z</time></trkpt><trkpt lat="44.51714797053502" lon="10.562499713901822"><ele>556.0</ele><time>2026-04-18T10:34:04Z</time></trkpt><trkpt lat="44.51709190737859" lon="10.562686812421687"><ele>556.0</ele><time>2026-04-18T10:34:05Z</time></trkpt><trkpt lat="44.51705330822489" lon="10.562872276952938"><ele>556.0</ele><time>2026-04-18T10:34:06Z</time></trkpt><trkpt lat="44.51699882912214" lon="10.563041714294316"><ele>556.0</ele><time>2026-04-18T10:34:07Z</time></trkpt><trkpt lat="44.516933558647956" lon="10.563201520054763"><ele>556.0</ele><time>2026-04-18T10:34:08Z</time></trkpt><trkpt lat="44.516888290924484" lon="10.563339605557738"><ele>556.0</ele><time>2026-04-18T10:34:09Z</time></trkpt><trkpt lat="44.5168454374702" lon="10.56346945358703"><ele>556.0</ele><time>2026-04-18T10:34:10Z</time></trkpt><trkpt lat="44.51680006004943" lon="10.563605539645012"><ele>556.0</ele><time>2026-04-18T10:34:11Z</time></trkpt><trkpt lat="44.516772545055986" lon="10.563747527120249"><ele>556.0</ele><time>2026-04-18T10:34:12Z</time></trkpt><trkpt lat="44.51673340293338" lon="10.563867610012975"><ele>556.0</ele><time>2026-04-18T10:34:13Z</time></trkpt><trkpt lat="44.516690421836486" lon="10.56396883447067"><ele>555.6666666666667</ele><time>2026-04-18T10:34:14Z</time></trkpt><trkpt lat="44.51663643648196" lon="10.564068044690341"><ele>555.3333333333334</ele><time>2026-04-18T10:34:15Z</time></trkpt><trkpt lat="44.5165709063336" lon="10.564165729898484"><ele>555.0</ele><time>2026-04-18T10:34:16Z</time></trkpt><trkpt lat="44.51651831772056" lon="10.564235502892318"><ele>554.6666666666666</ele><time>2026-04-18T10:34:17Z</time></trkpt><trkpt lat="44.51644684259589" lon="10.564317822501186"><ele>554.3333333333333</ele><time>2026-04-18T10:34:18Z</time></trkpt><trkpt lat="44.51636673757339" lon="10.564384488360972"><ele>554.0</ele><time>2026-04-18T10:34:19Z</time></trkpt><trkpt lat="44.516266307271664" lon="10.56442092048599"><ele>555.0</ele><time>2026-04-18T10:34:20Z</time></trkpt><trkpt lat="44.51616140452879" lon="10.564492639339708"><ele>556.0</ele><time>2026-04-18T10:34:21Z</time></trkpt><trkpt lat="44.5160631799124" lon="10.564582689369724"><ele>557.0</ele><time>2026-04-18T10:34:22Z</time></trkpt><trkpt lat="44.51597602794703" lon="10.564705084110676"><ele>558.0</ele><time>2026-04-18T10:34:23Z</time></trkpt><trkpt lat="44.51591234247317" lon="10.564854664782112"><ele>558.6</ele><time>2026-04-18T10:34:24Z</time></trkpt><trkpt lat="44.51582990821557" lon="10.564993510684724"><ele>559.1999999999999</ele><time>2026-04-18T10:34:25Z</time></trkpt><trkpt lat="44.51579408943291" lon="10.565152343374962"><ele>559.8</ele><time>2026-04-18T10:34:26Z</time></trkpt><trkpt lat="44.515758697093325" lon="10.565278845863386"><ele>560.4</ele><time>2026-04-18T10:34:27Z</time></trkpt><trkpt lat="44.515737077942745" lon="10.565408761226266"><ele>561.0</ele><time>2026-04-18T10:34:28Z</time></trkpt><trkpt lat="44.51570864667522" lon="10.565513433400094"><ele>561.0</ele><time>2026-04-18T10:34:29Z</time></trkpt><trkpt lat="44.5156943459468" lon="10.565615263793907"><ele>561.0</ele><time>2026-04-18T10:34:30Z</time></trkpt><trkpt lat="44.51567500624898" lon="10.565722853491161"><ele>561.0</ele><time>2026-04-18T10:34:31Z</time></trkpt><trkpt lat="44.515647909244805" lon="10.565826884606462"><ele>561.0</ele><time>2026-04-18T10:34:32Z</time></trkpt><trkpt lat="44.51560971620682" lon="10.565938087881907"><ele>561.0</ele><time>2026-04-18T10:34:33Z</time></trkpt><trkpt lat="44.51555370126071" lon="10.56605621504718"><ele>561.0</ele><time>2026-04-18T10:34:34Z</time></trkpt><trkpt lat="44.51549384622617" lon="10.56617172652254"><ele>561.1666666666666</ele><time>2026-04-18T10:34:35Z</time></trkpt><trkpt lat="44.515450733413594" lon="10.566284430031084"><ele>561.3333333333334</ele><time>2026-04-18T10:34:36Z</time></trkpt><trkpt lat="44.515392741198035" lon="10.566368152959438"><ele>561.5</ele><time>2026-04-18T10:34:37Z</time></trkpt><trkpt lat="44.51534325680555" lon="10.566462566113868"><ele>561.6666666666667</ele><time>2026-04-18T10:34:38Z</time></trkpt><trkpt lat="44.515291974566324" lon="10.566564094717569"><ele>561.8333333333334</ele><time>2026-04-18T10:34:39Z</time></trkpt><trkpt lat="44.51524324765267" lon="10.566677141370057"><ele>562.0</ele><time>2026-04-18T10:34:40Z</time></trkpt><trkpt lat="44.515191977469286" lon="10.566781311725908"><ele>562.0</ele><time>2026-04-18T10:34:41Z</time></trkpt><trkpt lat="44.515170006991916" lon="10.566896045423164"><ele>562.0</ele><time>2026-04-18T10:34:42Z</time></trkpt><trkpt lat="44.51512138975293" lon="10.5669963728235"><ele>562.0</ele><time>2026-04-18T10:34:43Z</time></trkpt><trkpt lat="44.51509153199125" lon="10.567093699466064"><ele>562.0</ele><time>2026-04-18T10:34:44Z</time></trkpt><trkpt lat="44.51505902346891" lon="10.56720213481675"><ele>562.0</ele><time>2026-04-18T10:34:45Z</time></trkpt><trkpt lat="44.51503207329543" lon="10.567295293109902"><ele>562.0</ele><time>2026-04-18T10:34:46Z</time></trkpt><trkpt lat="44.51500967889004" lon="10.567385998509792"><ele>561.3333333333334</ele><time>2026-04-18T10:34:47Z</time></trkpt><trkpt lat="44.51499027102273" lon="10.567473548798421"><ele>560.6666666666667</ele><time>2026-04-18T10:34:48Z</time></trkpt><trkpt lat="44.51495890367818" lon="10.567624698389697"><ele>560.0</ele><time>2026-04-18T10:34:50Z</time></trkpt><trkpt lat="44.51494025115877" lon="10.5677195199525"><ele>559.3333333333334</ele><time>2026-04-18T10:34:52Z</time></trkpt><trkpt lat="44.514917714383074" lon="10.56785422036269"><ele>558.6666666666666</ele><time>2026-04-18T10:34:54Z</time></trkpt><trkpt lat="44.51490301842541" lon="10.567952897400543"><ele>558.0</ele><time>2026-04-18T10:34:55Z</time></trkpt><trkpt lat="44.51488716007926" lon="10.56808162547309"><ele>557.1999999999999</ele><time>2026-04-18T10:34:56Z</time></trkpt><trkpt lat="44.514868472116305" lon="10.568241696187863"><ele>556.4</ele><time>2026-04-18T10:34:57Z</time></trkpt><trkpt lat="44.51485110213729" lon="10.568394073064947"><ele>555.5999999999999</ele><time>2026-04-18T10:34:58Z</time></trkpt><trkpt lat="44.514836238754945" lon="10.568539550518834"><ele>554.8</ele><time>2026-04-18T10:34:59Z</time></trkpt><trkpt lat="44.51482291771395" lon="10.568661521401307"><ele>554.0</ele><time>2026-04-18T10:35:00Z</time></trkpt><trkpt lat="44.51480735825545" lon="10.568783471659264"><ele>553.5</ele><time>2026-04-18T10:35:01Z</time></trkpt><trkpt lat="44.51478729204968" lon="10.568954935304083"><ele>553.0</ele><time>2026-04-18T10:35:03Z</time></trkpt><trkpt lat="44.51477298451844" lon="10.569085328940044"><ele>552.5</ele><time>2026-04-18T10:35:05Z</time></trkpt><trkpt lat="44.51476139739077" lon="10.569190929785654"><ele>552.0</ele><time>2026-04-18T10:35:07Z</time></trkpt><trkpt lat="44.51474882860099" lon="10.569301076088218"><ele>551.5</ele><time>2026-04-18T10:35:10Z</time></trkpt><trkpt lat="44.51473721343445" lon="10.569399224235667"><ele>551.0</ele><time>2026-04-18T10:35:13Z</time></trkpt><trkpt lat="44.51472075021259" lon="10.569530163652107"><ele>549.8</ele><time>2026-04-18T10:35:16Z</time></trkpt><trkpt lat="44.51470723030967" lon="10.56963690943267"><ele>548.6</ele><time>2026-04-18T10:35:18Z</time></trkpt><trkpt lat="44.514692605706095" lon="10.569752377265758"><ele>547.4</ele><time>2026-04-18T10:35:20Z</time></trkpt><trkpt lat="44.51467499645004" lon="10.569869671985396"><ele>546.2</ele><time>2026-04-18T10:35:22Z</time></trkpt><trkpt lat="44.51465412889289" lon="10.57001833596763"><ele>545.0</ele><time>2026-04-18T10:35:24Z</time></trkpt><trkpt lat="44.514646084617645" lon="10.570165088660493"><ele>545.0</ele><time>2026-04-18T10:35:26Z</time></trkpt><trkpt lat="44.514669751902716" lon="10.570309014961625"><ele>545.0</ele><time>2026-04-18T10:35:28Z</time></trkpt><trkpt lat="44.514701678494426" lon="10.570442024603999"><ele>545.0</ele><time>2026-04-18T10:35:30Z</time></trkpt><trkpt lat="44.51472789629643" lon="10.570538812882463"><ele>545.0</ele><time>2026-04-18T10:35:32Z</time></trkpt><trkpt lat="44.514675586854125" lon="10.570367313553986"><ele>545.0</ele><time>2026-04-18T10:35:41Z</time></trkpt><trkpt lat="44.51468143333116" lon="10.57022745093715"><ele>545.0</ele><time>2026-04-18T10:35:42Z</time></trkpt><trkpt lat="44.51467394589912" lon="10.570100471582817"><ele>545.0</ele><time>2026-04-18T10:35:43Z</time></trkpt><trkpt lat="44.51468337184142" lon="10.569954106441712"><ele>545.0</ele><time>2026-04-18T10:35:44Z</time></trkpt><trkpt lat="44.51470630824839" lon="10.56979793179548"><ele>545.0</ele><time>2026-04-18T10:35:45Z</time></trkpt><trkpt lat="44.514732931162385" lon="10.569625396836393"><ele>545.0</ele><time>2026-04-18T10:35:46Z</time></trkpt><trkpt lat="44.514752459695906" lon="10.569460162506894"><ele>546.2</ele><time>2026-04-18T10:35:47Z</time></trkpt><trkpt lat="44.514774363564804" lon="10.569303829557413"><ele>547.4</ele><time>2026-04-18T10:35:48Z</time></trkpt><trkpt lat="44.51479382751729" lon="10.569163755469882"><ele>548.6</ele><time>2026-04-18T10:35:49Z</time></trkpt><trkpt lat="44.514815805147784" lon="10.569015693978926"><ele>549.8</ele><time>2026-04-18T10:35:50Z</time></trkpt><trkpt lat="44.51483374346523" lon="10.56886421871252"><ele>551.0</ele><time>2026-04-18T10:35:51Z</time></trkpt><trkpt lat="44.514847377669085" lon="10.568713142892376"><ele>551.6</ele><time>2026-04-18T10:35:52Z</time></trkpt><trkpt lat="44.51486170735557" lon="10.568560249957464"><ele>552.2</ele><time>2026-04-18T10:35:53Z</time></trkpt><trkpt lat="44.51488062895447" lon="10.568405624438475"><ele>552.8</ele><time>2026-04-18T10:35:54Z</time></trkpt><trkpt lat="44.51489654652007" lon="10.568278211723868"><ele>553.4</ele><time>2026-04-18T10:35:55Z</time></trkpt><trkpt lat="44.5149103923837" lon="10.568162008456158"><ele>554.0</ele><time>2026-04-18T10:35:56Z</time></trkpt><trkpt lat="44.51492202245242" lon="10.568060744171252"><ele>554.0</ele><time>2026-04-18T10:35:57Z</time></trkpt><trkpt lat="44.51494422472819" lon="10.56789846179058"><ele>554.0</ele><time>2026-04-18T10:35:59Z</time></trkpt><trkpt lat="44.51495358137785" lon="10.56778930011981"><ele>554.0</ele><time>2026-04-18T10:36:01Z</time></trkpt><trkpt lat="44.51477967407434" lon="10.567862441206533"><ele>554.0</ele><time>2026-04-18T10:36:06Z</time></trkpt><trkpt lat="44.51473441684718" lon="10.567943639868709"><ele>554.0</ele><time>2026-04-18T10:36:07Z</time></trkpt><trkpt lat="44.51468671305204" lon="10.568043297594738"><ele>554.0</ele><time>2026-04-18T10:36:08Z</time></trkpt><trkpt lat="44.51464290783115" lon="10.568141279065122"><ele>554.0</ele><time>2026-04-18T10:36:09Z</time></trkpt><trkpt lat="44.514583123943616" lon="10.568247959560626"><ele>554.0</ele><time>2026-04-18T10:36:10Z</time></trkpt><trkpt lat="44.51450982307968" lon="10.568367188524059"><ele>554.0</ele><time>2026-04-18T10:36:11Z</time></trkpt><trkpt lat="44.51445218785665" lon="10.568467598991788"><ele>555.0</ele><time>2026-04-18T10:36:12Z</time></trkpt><trkpt lat="44.514393867969986" lon="10.56857628143533"><ele>556.0</ele><time>2026-04-18T10:36:13Z</time></trkpt><trkpt lat="44.51434587635806" lon="10.568663195801879"><ele>557.0</ele><time>2026-04-18T10:36:14Z</time></trkpt><trkpt lat="44.51429882252849" lon="10.568734160662968"><ele>558.0</ele><time>2026-04-18T10:36:15Z</time></trkpt><trkpt lat="44.51424934654449" lon="10.568833313652263"><ele>559.0</ele><time>2026-04-18T10:36:16Z</time></trkpt><trkpt lat="44.514200897647484" lon="10.568903956921003"><ele>560.0</ele><time>2026-04-18T10:36:17Z</time></trkpt><trkpt lat="44.51415242935302" lon="10.568976290647809"><ele>560.0</ele><time>2026-04-18T10:36:18Z</time></trkpt><trkpt lat="44.514105158660456" lon="10.56904371356268"><ele>560.0</ele><time>2026-04-18T10:36:19Z</time></trkpt><trkpt lat="44.51403828638611" lon="10.569111254829197"><ele>560.0</ele><time>2026-04-18T10:36:20Z</time></trkpt><trkpt lat="44.513969837522566" lon="10.569170293385001"><ele>560.0</ele><time>2026-04-18T10:36:21Z</time></trkpt><trkpt lat="44.513846972802874" lon="10.56926118072412"><ele>560.0</ele><time>2026-04-18T10:36:23Z</time></trkpt><trkpt lat="44.51377873993204" lon="10.569310381787737"><ele>560.0</ele><time>2026-04-18T10:36:24Z</time></trkpt><trkpt lat="44.51371181296212" lon="10.569376884814389"><ele>560.0</ele><time>2026-04-18T10:36:25Z</time></trkpt><trkpt lat="44.51366116765404" lon="10.569457131044192"><ele>560.0</ele><time>2026-04-18T10:36:26Z</time></trkpt><trkpt lat="44.513606837359234" lon="10.569579864536289"><ele>560.0</ele><time>2026-04-18T10:36:27Z</time></trkpt><trkpt lat="44.513547256268936" lon="10.56966787013491"><ele>560.0</ele><time>2026-04-18T10:36:28Z</time></trkpt><trkpt lat="44.51348922399267" lon="10.569722621397597"><ele>560.0</ele><time>2026-04-18T10:36:29Z</time></trkpt><trkpt lat="44.51343036224227" lon="10.569753928668678"><ele>560.0</ele><time>2026-04-18T10:36:30Z</time></trkpt><trkpt lat="44.51336817809553" lon="10.569786396303273"><ele>560.1428571428571</ele><time>2026-04-18T10:36:31Z</time></trkpt><trkpt lat="44.51329056142295" lon="10.569810740812391"><ele>560.2857142857142</ele><time>2026-04-18T10:36:32Z</time></trkpt><trkpt lat="44.51322803658301" lon="10.569829639594936"><ele>560.4285714285714</ele><time>2026-04-18T10:36:33Z</time></trkpt><trkpt lat="44.51316173018105" lon="10.56985911489262"><ele>560.5714285714286</ele><time>2026-04-18T10:36:34Z</time></trkpt><trkpt lat="44.51307347524248" lon="10.56985956324067"><ele>560.7142857142857</ele><time>2026-04-18T10:36:36Z</time></trkpt><trkpt lat="44.5130153268004" lon="10.569918421467644"><ele>560.8571428571429</ele><time>2026-04-18T10:36:39Z</time></trkpt><trkpt lat="44.51295048961857" lon="10.569961744068676"><ele>561.0</ele><time>2026-04-18T10:36:41Z</time></trkpt><trkpt lat="44.51288906216836" lon="10.570014781616752"><ele>561.0</ele><time>2026-04-18T10:36:42.999Z</time></trkpt><trkpt lat="44.51279834615661" lon="10.570026956706593"><ele>561.0</ele><time>2026-04-18T10:36:45.999Z</time></trkpt><trkpt lat="44.512739502958595" lon="10.570084881168542"><ele>561.0</ele><time>2026-04-18T10:36:47.999Z</time></trkpt><trkpt lat="44.512666960532435" lon="10.570112693535647"><ele>561.0</ele><time>2026-04-18T10:36:51Z</time></trkpt><trkpt lat="44.51267488148533" lon="10.569983553536007"><ele>561.0</ele><time>2026-04-18T10:36:54Z</time></trkpt><trkpt lat="44.51278365242222" lon="10.569971441850022"><ele>561.0</ele><time>2026-04-18T10:36:56Z</time></trkpt><trkpt lat="44.51284976554718" lon="10.569982259555925"><ele>561.0</ele><time>2026-04-18T10:36:57Z</time></trkpt><trkpt lat="44.51293654081587" lon="10.569974874107846"><ele>561.0</ele><time>2026-04-18T10:37:29Z</time></trkpt><trkpt lat="44.51303936596488" lon="10.569894648344208"><ele>561.0</ele><time>2026-04-18T10:37:31Z</time></trkpt><trkpt lat="44.51312507477091" lon="10.569848628672867"><ele>561.0</ele><time>2026-04-18T10:37:33Z</time></trkpt><trkpt lat="44.51321937491891" lon="10.569816068907569"><ele>561.0</ele><time>2026-04-18T10:37:35Z</time></trkpt><trkpt lat="44.51328197863701" lon="10.569872187910756"><ele>561.0</ele><time>2026-04-18T10:37:37Z</time></trkpt><trkpt lat="44.51336030784557" lon="10.56997315410722"><ele>561.0</ele><time>2026-04-18T10:37:39Z</time></trkpt><trkpt lat="44.513417329363094" lon="10.570083225269569"><ele>561.0</ele><time>2026-04-18T10:37:42Z</time></trkpt><trkpt lat="44.51348405683312" lon="10.570215176289784"><ele>561.0</ele><time>2026-04-18T10:37:44Z</time></trkpt><trkpt lat="44.51352748792342" lon="10.57030483551426"><ele>561.0</ele><time>2026-04-18T10:37:45Z</time></trkpt><trkpt lat="44.513577404169716" lon="10.570417819894553"><ele>560.1666666666666</ele><time>2026-04-18T10:37:46Z</time></trkpt><trkpt lat="44.51363489191021" lon="10.57053776343569"><ele>559.3333333333334</ele><time>2026-04-18T10:37:47Z</time></trkpt><trkpt lat="44.5137016169852" lon="10.570645785689747"><ele>558.5</ele><time>2026-04-18T10:37:48Z</time></trkpt><trkpt lat="44.51376203010543" lon="10.570742240731205"><ele>557.6666666666667</ele><time>2026-04-18T10:37:49Z</time></trkpt><trkpt lat="44.51379518086737" lon="10.570822739398277"><ele>556.8333333333334</ele><time>2026-04-18T10:37:50Z</time></trkpt><trkpt lat="44.51382167413115" lon="10.57090636365639"><ele>556.0</ele><time>2026-04-18T10:37:51Z</time></trkpt><trkpt lat="44.513858475496725" lon="10.571028988662771"><ele>556.0</ele><time>2026-04-18T10:37:52Z</time></trkpt><trkpt lat="44.513883102067105" lon="10.57113889369265"><ele>556.0</ele><time>2026-04-18T10:37:53Z</time></trkpt><trkpt lat="44.513899104027985" lon="10.571234780024906"><ele>556.0</ele><time>2026-04-18T10:37:54Z</time></trkpt><trkpt lat="44.51395296329698" lon="10.57135962323174"><ele>556.0</ele><time>2026-04-18T10:37:56Z</time></trkpt><trkpt lat="44.51404292338028" lon="10.571468513278138"><ele>556.0</ele><time>2026-04-18T10:37:58Z</time></trkpt><trkpt lat="44.51410193197253" lon="10.571503188979865"><ele>556.0</ele><time>2026-04-18T10:37:59Z</time></trkpt><trkpt lat="44.51416555022819" lon="10.57152178925598"><ele>555.1666666666667</ele><time>2026-04-18T10:38:00Z</time></trkpt><trkpt lat="44.514277911767905" lon="10.571565505579096"><ele>554.3333333333334</ele><time>2026-04-18T10:38:02Z</time></trkpt><trkpt lat="44.51432385648132" lon="10.57162853465934"><ele>553.5</ele><time>2026-04-18T10:38:03Z</time></trkpt><trkpt lat="44.51437369936136" lon="10.57172015519222"><ele>552.6666666666666</ele><time>2026-04-18T10:38:04Z</time></trkpt><trkpt lat="44.51443172829704" lon="10.571801112240445"><ele>551.8333333333333</ele><time>2026-04-18T10:38:05Z</time></trkpt><trkpt lat="44.51449215498515" lon="10.57187626496854"><ele>551.0</ele><time>2026-04-18T10:38:06Z</time></trkpt><trkpt lat="44.51454920113805" lon="10.57194859124523"><ele>548.8</ele><time>2026-04-18T10:38:07Z</time></trkpt><trkpt lat="44.514605085334004" lon="10.572004990917884"><ele>546.6</ele><time>2026-04-18T10:38:08Z</time></trkpt><trkpt lat="44.514626991442206" lon="10.57215795944434"><ele>544.4</ele><time>2026-04-18T10:38:10Z</time></trkpt><trkpt lat="44.51461002872644" lon="10.572306752954363"><ele>542.2</ele><time>2026-04-18T10:38:12Z</time></trkpt><trkpt lat="44.514668874508246" lon="10.572442660632424"><ele>540.0</ele><time>2026-04-18T10:38:14Z</time></trkpt><trkpt lat="44.514705494990956" lon="10.572563311955149"><ele>540.0</ele><time>2026-04-18T10:38:16Z</time></trkpt><trkpt lat="44.51469122209623" lon="10.572746842709464"><ele>540.0</ele><time>2026-04-18T10:38:18Z</time></trkpt><trkpt lat="44.51468339730128" lon="10.572844479833812"><ele>540.0</ele><time>2026-04-18T10:38:19Z</time></trkpt><trkpt lat="44.51474151124575" lon="10.572971896406635"><ele>540.0</ele><time>2026-04-18T10:38:21Z</time></trkpt><trkpt lat="44.51479499752158" lon="10.573056544783713"><ele>540.0</ele><time>2026-04-18T10:38:44.999Z</time></trkpt><trkpt lat="44.514834537491964" lon="10.573132618587522"><ele>540.3333333333334</ele><time>2026-04-18T10:38:45.999Z</time></trkpt><trkpt lat="44.514882851471484" lon="10.573217547972067"><ele>540.6666666666666</ele><time>2026-04-18T10:38:46.999Z</time></trkpt><trkpt lat="44.51494228360881" lon="10.573344032982556"><ele>541.0</ele><time>2026-04-18T10:38:48.999Z</time></trkpt><trkpt lat="44.51501862253098" lon="10.573440635990869"><ele>541.3333333333333</ele><time>2026-04-18T10:38:50.999Z</time></trkpt><trkpt lat="44.51507476448173" lon="10.573487554289766"><ele>541.6666666666666</ele><time>2026-04-18T10:38:52.999Z</time></trkpt><trkpt lat="44.51514304837031" lon="10.573547553492425"><ele>542.0</ele><time>2026-04-18T10:38:55Z</time></trkpt><trkpt lat="44.515191733729054" lon="10.573658973595915"><ele>541.5</ele><time>2026-04-18T10:38:58Z</time></trkpt><trkpt lat="44.51525514972174" lon="10.573798394145902"><ele>541.0</ele><time>2026-04-18T10:39:00Z</time></trkpt><trkpt lat="44.51530076018229" lon="10.573883721735786"><ele>540.5</ele><time>2026-04-18T10:39:01Z</time></trkpt><trkpt lat="44.51535137908066" lon="10.573945830233122"><ele>540.0</ele><time>2026-04-18T10:39:02Z</time></trkpt><trkpt lat="44.51540763087675" lon="10.574004098903789"><ele>539.5</ele><time>2026-04-18T10:39:03Z</time></trkpt><trkpt lat="44.515468517002546" lon="10.574056871726649"><ele>539.0</ele><time>2026-04-18T10:39:04Z</time></trkpt><trkpt lat="44.51559243860318" lon="10.574137614475418"><ele>537.8333333333333</ele><time>2026-04-18T10:39:06Z</time></trkpt><trkpt lat="44.51565087118453" lon="10.574181886071013"><ele>536.6666666666666</ele><time>2026-04-18T10:39:07Z</time></trkpt><trkpt lat="44.5157265640937" lon="10.574229867820792"><ele>535.5</ele><time>2026-04-18T10:39:08Z</time></trkpt><trkpt lat="44.51579361690836" lon="10.574285063268176"><ele>534.3333333333334</ele><time>2026-04-18T10:39:09Z</time></trkpt><trkpt lat="44.51586754185755" lon="10.574354971413715"><ele>533.1666666666667</ele><time>2026-04-18T10:39:10Z</time></trkpt><trkpt lat="44.51593713411672" lon="10.574377636897603"><ele>532.0</ele><time>2026-04-18T10:39:11Z</time></trkpt><trkpt lat="44.516022806582306" lon="10.574402797439141"><ele>532.0</ele><time>2026-04-18T10:39:13Z</time></trkpt><trkpt lat="44.51606854345799" lon="10.574465065733948"><ele>532.0</ele><time>2026-04-18T10:39:16Z</time></trkpt><trkpt lat="44.51613112563793" lon="10.574516368475066"><ele>532.0</ele><time>2026-04-18T10:49:14Z</time></trkpt><trkpt lat="44.51623838037971" lon="10.574600646435105"><ele>532.0</ele><time>2026-04-18T10:49:16Z</time></trkpt><trkpt lat="44.516303897353225" lon="10.574659711526806"><ele>532.0</ele><time>2026-04-18T10:49:17Z</time></trkpt><trkpt lat="44.5163792021096" lon="10.574729130266116"><ele>532.0</ele><time>2026-04-18T10:49:18Z</time></trkpt><trkpt lat="44.51645243920747" lon="10.574795047638485"><ele>531.1666666666667</ele><time>2026-04-18T10:49:19Z</time></trkpt><trkpt lat="44.51651215685119" lon="10.574834489657912"><ele>530.3333333333334</ele><time>2026-04-18T10:49:20Z</time></trkpt><trkpt lat="44.5165839813619" lon="10.574899452369749"><ele>529.5</ele><time>2026-04-18T10:49:21Z</time></trkpt><trkpt lat="44.516656666618836" lon="10.574959401566938"><ele>528.6666666666666</ele><time>2026-04-18T10:49:22Z</time></trkpt><trkpt lat="44.51672386177862" lon="10.575024382659079"><ele>527.8333333333333</ele><time>2026-04-18T10:49:23Z</time></trkpt><trkpt lat="44.516803738437716" lon="10.575086635733776"><ele>527.0</ele><time>2026-04-18T10:49:24Z</time></trkpt><trkpt lat="44.516900132099856" lon="10.575187440238738"><ele>527.0</ele><time>2026-04-18T10:49:25Z</time></trkpt><trkpt lat="44.51700761304185" lon="10.575281812476026"><ele>527.0</ele><time>2026-04-18T10:49:26.001Z</time></trkpt><trkpt lat="44.51712525525783" lon="10.575363401521342"><ele>527.0</ele><time>2026-04-18T10:49:27Z</time></trkpt><trkpt lat="44.51724177136509" lon="10.575463812719248"><ele>527.0</ele><time>2026-04-18T10:49:28Z</time></trkpt><trkpt lat="44.51734463083291" lon="10.575546241388851"><ele>526.0</ele><time>2026-04-18T10:49:29Z</time></trkpt><trkpt lat="44.51744129188533" lon="10.575624966815816"><ele>525.0</ele><time>2026-04-18T10:49:30Z</time></trkpt><trkpt lat="44.51752228847708" lon="10.575705110559465"><ele>524.0</ele><time>2026-04-18T10:49:31Z</time></trkpt><trkpt lat="44.517599946252155" lon="10.575765722565672"><ele>523.0</ele><time>2026-04-18T10:49:32Z</time></trkpt><trkpt lat="44.517649556622445" lon="10.575864562437275"><ele>522.0</ele><time>2026-04-18T10:49:33Z</time></trkpt><trkpt lat="44.5176868995552" lon="10.575950653620884"><ele>522.0</ele><time>2026-04-18T10:49:34Z</time></trkpt><trkpt lat="44.51777270736963" lon="10.575981580561221"><ele>522.0</ele><time>2026-04-18T10:49:35Z</time></trkpt><trkpt lat="44.51783456854568" lon="10.576117591606794"><ele>522.0</ele><time>2026-04-18T10:49:37Z</time></trkpt><trkpt lat="44.51788362071736" lon="10.576230780626505"><ele>522.0</ele><time>2026-04-18T10:49:39Z</time></trkpt><trkpt lat="44.51792596804704" lon="10.576372178847524"><ele>522.0</ele><time>2026-04-18T10:49:41Z</time></trkpt><trkpt lat="44.51794971090646" lon="10.576482012032976"><ele>521.6666666666666</ele><time>2026-04-18T10:49:42Z</time></trkpt><trkpt lat="44.51797738604413" lon="10.57661022294075"><ele>521.3333333333334</ele><time>2026-04-18T10:49:43Z</time></trkpt><trkpt lat="44.518013665830566" lon="10.576721327802636"><ele>521.0</ele><time>2026-04-18T10:49:44Z</time></trkpt><trkpt lat="44.51803503687818" lon="10.576837234557543"><ele>520.6666666666667</ele><time>2026-04-18T10:49:45Z</time></trkpt><trkpt lat="44.518062449630094" lon="10.576936353636874"><ele>520.3333333333334</ele><time>2026-04-18T10:49:46Z</time></trkpt><trkpt lat="44.518070431756335" lon="10.577032342880926"><ele>520.0</ele><time>2026-04-18T10:49:47Z</time></trkpt><trkpt lat="44.51810078183937" lon="10.57718247035618"><ele>520.0</ele><time>2026-04-18T10:49:52Z</time></trkpt><trkpt lat="44.51811844970466" lon="10.57731071611697"><ele>520.0</ele><time>2026-04-18T10:49:54Z</time></trkpt><trkpt lat="44.518128781752814" lon="10.577418298654461"><ele>520.0</ele><time>2026-04-18T10:49:55Z</time></trkpt><trkpt lat="44.51814720305716" lon="10.577526591842245"><ele>520.0</ele><time>2026-04-18T10:49:56Z</time></trkpt><trkpt lat="44.518164500519035" lon="10.577646632208738"><ele>520.0</ele><time>2026-04-18T10:49:57Z</time></trkpt><trkpt lat="44.51816070176421" lon="10.57778164572087"><ele>520.0</ele><time>2026-04-18T10:49:58Z</time></trkpt><trkpt lat="44.51816811752905" lon="10.577904441015779"><ele>519.4</ele><time>2026-04-18T10:49:59Z</time></trkpt><trkpt lat="44.51818519252946" lon="10.578031330645512"><ele>518.8</ele><time>2026-04-18T10:50:00Z</time></trkpt><trkpt lat="44.51818012948712" lon="10.578161925253237"><ele>518.2</ele><time>2026-04-18T10:50:01Z</time></trkpt><trkpt lat="44.51818533095806" lon="10.578307618829811"><ele>517.6</ele><time>2026-04-18T10:50:02Z</time></trkpt><trkpt lat="44.518183719188094" lon="10.578451451078246"><ele>517.0</ele><time>2026-04-18T10:50:03Z</time></trkpt><trkpt lat="44.51817345573842" lon="10.57861536755679"><ele>517.0</ele><time>2026-04-18T10:50:04Z</time></trkpt><trkpt lat="44.518162086763404" lon="10.578776459754122"><ele>517.0</ele><time>2026-04-18T10:50:05Z</time></trkpt><trkpt lat="44.51816038125774" lon="10.578938606160289"><ele>517.0</ele><time>2026-04-18T10:50:06Z</time></trkpt><trkpt lat="44.518154840127856" lon="10.579061671258073"><ele>517.0</ele><time>2026-04-18T10:50:07Z</time></trkpt><trkpt lat="44.51813342972184" lon="10.579184177550065"><ele>517.0</ele><time>2026-04-18T10:50:08Z</time></trkpt><trkpt lat="44.51814170464524" lon="10.579306793412197"><ele>517.0</ele><time>2026-04-18T10:50:09Z</time></trkpt><trkpt lat="44.51812261187058" lon="10.5793957768042"><ele>517.0</ele><time>2026-04-18T10:50:10Z</time></trkpt><trkpt lat="44.518118165005156" lon="10.579488957587756"><ele>517.0</ele><time>2026-04-18T10:50:11Z</time></trkpt><trkpt lat="44.518111947882176" lon="10.579602650844226"><ele>517.0</ele><time>2026-04-18T10:50:12Z</time></trkpt><trkpt lat="44.51811074946418" lon="10.57973721199785"><ele>517.0</ele><time>2026-04-18T10:50:13Z</time></trkpt><trkpt lat="44.51809941117385" lon="10.579846224231789"><ele>517.0</ele><time>2026-04-18T10:50:14Z</time></trkpt><trkpt lat="44.51810230812711" lon="10.579938655045778"><ele>517.0</ele><time>2026-04-18T10:50:15Z</time></trkpt><trkpt lat="44.51814556582985" lon="10.580100932162715"><ele>517.0</ele><time>2026-04-18T10:50:17Z</time></trkpt><trkpt lat="44.51819473699417" lon="10.580169224739787"><ele>517.0</ele><time>2026-04-18T10:50:18Z</time></trkpt><trkpt lat="44.518259697199426" lon="10.580224705738337"><ele>517.0</ele><time>2026-04-18T10:50:19Z</time></trkpt><trkpt lat="44.51833472245814" lon="10.580257119149778"><ele>517.0</ele><time>2026-04-18T10:50:20Z</time></trkpt><trkpt lat="44.51842610550636" lon="10.580284720280368"><ele>517.0</ele><time>2026-04-18T10:50:21Z</time></trkpt><trkpt lat="44.51850968429468" lon="10.580311489215932"><ele>514.8000000000001</ele><time>2026-04-18T10:50:22Z</time></trkpt><trkpt lat="44.51857971056492" lon="10.580369396245084"><ele>512.6</ele><time>2026-04-18T10:50:23Z</time></trkpt><trkpt lat="44.51864061014197" lon="10.5804079482048"><ele>510.40000000000003</ele><time>2026-04-18T10:50:24Z</time></trkpt><trkpt lat="44.51875101225064" lon="10.580570265602622"><ele>508.20000000000005</ele><time>2026-04-18T10:50:25Z</time></trkpt><trkpt lat="44.51883539300641" lon="10.580641901472267"><ele>506.0</ele><time>2026-04-18T10:50:26Z</time></trkpt><trkpt lat="44.51894152751202" lon="10.580694906027196"><ele>506.0</ele><time>2026-04-18T10:50:27Z</time></trkpt><trkpt lat="44.51904012500729" lon="10.580743322555868"><ele>506.0</ele><time>2026-04-18T10:50:28Z</time></trkpt><trkpt lat="44.51912673967455" lon="10.58081797659793"><ele>506.0</ele><time>2026-04-18T10:50:29Z</time></trkpt><trkpt lat="44.51921578570924" lon="10.58084733432768"><ele>506.0</ele><time>2026-04-18T10:50:30Z</time></trkpt><trkpt lat="44.51928752279311" lon="10.58090495663373"><ele>506.0</ele><time>2026-04-18T10:50:31Z</time></trkpt><trkpt lat="44.51932521406146" lon="10.58101002258772"><ele>506.0</ele><time>2026-04-18T10:50:32Z</time></trkpt><trkpt lat="44.519341504694275" lon="10.581122962824868"><ele>506.0</ele><time>2026-04-18T10:50:33Z</time></trkpt><trkpt lat="44.519380936498294" lon="10.581258840130273"><ele>506.0</ele><time>2026-04-18T10:50:34Z</time></trkpt><trkpt lat="44.51942405736366" lon="10.58138641396085"><ele>506.0</ele><time>2026-04-18T10:50:35Z</time></trkpt><trkpt lat="44.51946969225952" lon="10.581472620744682"><ele>506.0</ele><time>2026-04-18T10:50:36Z</time></trkpt><trkpt lat="44.51958001704274" lon="10.581548460421306"><ele>505.49999999999994</ele><time>2026-04-18T10:50:38Z</time></trkpt><trkpt lat="44.51966504677711" lon="10.581581862409022"><ele>505.0</ele><time>2026-04-18T10:50:39Z</time></trkpt><trkpt lat="44.519748422094445" lon="10.581674805708442"><ele>504.5</ele><time>2026-04-18T10:50:40Z</time></trkpt><trkpt lat="44.51982136460449" lon="10.581754435050557"><ele>504.0</ele><time>2026-04-18T10:50:41Z</time></trkpt><trkpt lat="44.51983296653195" lon="10.581860313362379"><ele>503.49999999999994</ele><time>2026-04-18T10:50:42Z</time></trkpt><trkpt lat="44.51986501140195" lon="10.58196303503724"><ele>503.0</ele><time>2026-04-18T10:50:43Z</time></trkpt><trkpt lat="44.51989414414951" lon="10.582052620037471"><ele>502.99999999999994</ele><time>2026-04-18T10:50:44Z</time></trkpt><trkpt lat="44.51995738249399" lon="10.582137752158166"><ele>503.0</ele><time>2026-04-18T10:50:46Z</time></trkpt><trkpt lat="44.52005348134994" lon="10.582101074211662"><ele>503.0</ele><time>2026-04-18T10:50:48Z</time></trkpt><trkpt lat="44.52010901639813" lon="10.582031658701853"><ele>503.0</ele><time>2026-04-18T10:50:49Z</time></trkpt><trkpt lat="44.52015139565318" lon="10.581932684012143"><ele>502.99999999999994</ele><time>2026-04-18T10:50:50Z</time></trkpt><trkpt lat="44.52018826218594" lon="10.581809672366216"><ele>503.0</ele><time>2026-04-18T10:50:51Z</time></trkpt><trkpt lat="44.520280327078716" lon="10.581764233484401"><ele>502.99999999999994</ele><time>2026-04-18T10:50:52Z</time></trkpt><trkpt lat="44.520360381254434" lon="10.581730384373008"><ele>503.0</ele><time>2026-04-18T10:50:53Z</time></trkpt><trkpt lat="44.52044018156251" lon="10.581698988221156"><ele>503.0</ele><time>2026-04-18T10:50:54Z</time></trkpt><trkpt lat="44.52051521315033" lon="10.581696502833367"><ele>503.0</ele><time>2026-04-18T10:50:55Z</time></trkpt><trkpt lat="44.52059207316496" lon="10.581656275547063"><ele>502.99999999999994</ele><time>2026-04-18T10:50:56Z</time></trkpt><trkpt lat="44.520658723355496" lon="10.581619175663631"><ele>503.0</ele><time>2026-04-18T10:50:57Z</time></trkpt><trkpt lat="44.52073479779728" lon="10.58158115840087"><ele>499.0</ele><time>2026-04-18T10:50:58Z</time></trkpt><trkpt lat="44.52082213586257" lon="10.581519435452611"><ele>494.99999999999994</ele><time>2026-04-18T10:50:59Z</time></trkpt><trkpt lat="44.52089674132068" lon="10.581463076215396"><ele>490.99999999999994</ele><time>2026-04-18T10:51:00Z</time></trkpt><trkpt lat="44.520962081878245" lon="10.581419018618034"><ele>487.0</ele><time>2026-04-18T10:51:01Z</time></trkpt><trkpt lat="44.521078381767786" lon="10.581382452655689"><ele>483.0</ele><time>2026-04-18T10:51:03Z</time></trkpt><trkpt lat="44.52119809200083" lon="10.581409387931503"><ele>480.0</ele><time>2026-04-18T10:51:05Z</time></trkpt><trkpt lat="44.52131615459556" lon="10.581404763624576"><ele>477.0</ele><time>2026-04-18T10:51:07Z</time></trkpt><trkpt lat="44.52136262818271" lon="10.58134499137077"><ele>474.0</ele><time>2026-04-18T10:51:08Z</time></trkpt><trkpt lat="44.52141639106964" lon="10.581247423394643"><ele>471.0</ele><time>2026-04-18T10:51:10Z</time></trkpt><trkpt lat="44.521497707868434" lon="10.581140582776746"><ele>468.0</ele><time>2026-04-18T10:51:12Z</time></trkpt><trkpt lat="44.521557688924815" lon="10.581094323771339"><ele>465.0</ele><time>2026-04-18T10:51:14Z</time></trkpt><trkpt lat="44.52148456253642" lon="10.58113629505112"><ele>465.0</ele><time>2026-04-18T10:51:24.999Z</time></trkpt><trkpt lat="44.52143349407531" lon="10.581188043036656"><ele>465.0</ele><time>2026-04-18T10:51:26.999Z</time></trkpt><trkpt lat="44.52143263987143" lon="10.58106278279231"><ele>465.0</ele><time>2026-04-18T10:51:27.999Z</time></trkpt><trkpt lat="44.52133211718134" lon="10.581349507776123"><ele>465.0</ele><time>2026-04-18T10:51:28.999Z</time></trkpt><trkpt lat="44.521262731495476" lon="10.581402757927378"><ele>468.6</ele><time>2026-04-18T10:51:29.999Z</time></trkpt><trkpt lat="44.521128449250924" lon="10.581389917598841"><ele>472.2</ele><time>2026-04-18T10:51:32Z</time></trkpt><trkpt lat="44.5210494614975" lon="10.581371254854096"><ele>475.79999999999995</ele><time>2026-04-18T10:51:33Z</time></trkpt><trkpt lat="44.52095165780772" lon="10.581383011505263"><ele>479.4</ele><time>2026-04-18T10:51:34Z</time></trkpt><trkpt lat="44.52086055653866" lon="10.581452426812287"><ele>483.0</ele><time>2026-04-18T10:51:35Z</time></trkpt><trkpt lat="44.520751893594465" lon="10.58153842095736"><ele>483.0</ele><time>2026-04-18T10:51:36Z</time></trkpt><trkpt lat="44.520636395229424" lon="10.581595195876142"><ele>482.99999999999994</ele><time>2026-04-18T10:51:37Z</time></trkpt><trkpt lat="44.520553771256225" lon="10.58164540145949"><ele>482.99999999999994</ele><time>2026-04-18T10:51:38Z</time></trkpt><trkpt lat="44.52046919306806" lon="10.581640887357153"><ele>483.0</ele><time>2026-04-18T10:51:39Z</time></trkpt><trkpt lat="44.5203890723781" lon="10.581669064868237"><ele>483.0</ele><time>2026-04-18T10:51:40Z</time></trkpt><trkpt lat="44.5202721225845" lon="10.581743401518265"><ele>483.8333333333333</ele><time>2026-04-18T10:51:42Z</time></trkpt><trkpt lat="44.52018712336554" lon="10.581771316392096"><ele>484.66666666666663</ele><time>2026-04-18T10:51:43Z</time></trkpt><trkpt lat="44.52014582152732" lon="10.581840638496331"><ele>485.5</ele><time>2026-04-18T10:51:44Z</time></trkpt><trkpt lat="44.52009571255994" lon="10.581942226459429"><ele>486.3333333333333</ele><time>2026-04-18T10:51:45Z</time></trkpt><trkpt lat="44.52005994658991" lon="10.582041179993077"><ele>487.16666666666663</ele><time>2026-04-18T10:51:46Z</time></trkpt><trkpt lat="44.51996907783446" lon="10.582121329895509"><ele>488.0</ele><time>2026-04-18T10:51:48Z</time></trkpt><trkpt lat="44.51987822695905" lon="10.582081532788324"><ele>488.0</ele><time>2026-04-18T10:51:50Z</time></trkpt><trkpt lat="44.51986514982677" lon="10.58231866660926"><ele>487.99999999999994</ele><time>2026-04-18T10:51:56Z</time></trkpt><trkpt lat="44.51985539511641" lon="10.582415548753534"><ele>487.99999999999994</ele><time>2026-04-18T10:51:58Z</time></trkpt><trkpt lat="44.519843385389564" lon="10.582541255060178"><ele>488.0</ele><time>2026-04-18T10:52:00Z</time></trkpt><trkpt lat="44.51982394056493" lon="10.582675004808774"><ele>488.0</ele><time>2026-04-18T10:52:02Z</time></trkpt><trkpt lat="44.519793576029365" lon="10.582836095830343"><ele>482.75</ele><time>2026-04-18T10:52:04Z</time></trkpt><trkpt lat="44.51976306493947" lon="10.58298734151146"><ele>477.5</ele><time>2026-04-18T10:52:06Z</time></trkpt><trkpt lat="44.519727389380584" lon="10.583138021836872"><ele>472.25</ele><time>2026-04-18T10:52:08Z</time></trkpt><trkpt lat="44.51970782836688" lon="10.583257405271077"><ele>467.0</ele><time>2026-04-18T10:52:10Z</time></trkpt><trkpt lat="44.519705347328106" lon="10.583457288948912"><ele>466.99999999999994</ele><time>2026-04-18T10:52:12Z</time></trkpt><trkpt lat="44.519699523441595" lon="10.58359782249382"><ele>467.0</ele><time>2026-04-18T10:52:13Z</time></trkpt><trkpt lat="44.519688755298205" lon="10.583719628517066"><ele>467.0</ele><time>2026-04-18T10:52:14Z</time></trkpt><trkpt lat="44.51967797015977" lon="10.583828142250859"><ele>467.0</ele><time>2026-04-18T10:52:15Z</time></trkpt><trkpt lat="44.519658837057115" lon="10.5839362195366"><ele>466.99999999999994</ele><time>2026-04-18T10:52:16Z</time></trkpt><trkpt lat="44.51964760596755" lon="10.584034731287474"><ele>467.0</ele><time>2026-04-18T10:52:17Z</time></trkpt><trkpt lat="44.519629383509205" lon="10.584136846659797"><ele>463.8</ele><time>2026-04-18T10:52:18Z</time></trkpt><trkpt lat="44.51960768907276" lon="10.584234918120268"><ele>460.6</ele><time>2026-04-18T10:52:19Z</time></trkpt><trkpt lat="44.519589458602354" lon="10.584333128293425"><ele>457.40000000000003</ele><time>2026-04-18T10:52:20Z</time></trkpt><trkpt lat="44.519567236214954" lon="10.584493741929498"><ele>454.20000000000005</ele><time>2026-04-18T10:52:22Z</time></trkpt><trkpt lat="44.51954772571531" lon="10.584657649173929"><ele>451.0</ele><time>2026-04-18T10:52:24Z</time></trkpt><trkpt lat="44.519518665668144" lon="10.58481608825048"><ele>450.6</ele><time>2026-04-18T10:52:26Z</time></trkpt><trkpt lat="44.519492773085794" lon="10.584994135252987"><ele>450.20000000000005</ele><time>2026-04-18T10:52:28Z</time></trkpt><trkpt lat="44.519478225264535" lon="10.585084810779971"><ele>449.79999999999995</ele><time>2026-04-18T10:52:29Z</time></trkpt><trkpt lat="44.519458633737315" lon="10.585244117829864"><ele>449.4</ele><time>2026-04-18T10:52:31Z</time></trkpt><trkpt lat="44.51943210754306" lon="10.58541208667439"><ele>449.0</ele><time>2026-04-18T10:52:33Z</time></trkpt><trkpt lat="44.51942029374607" lon="10.585502080975493"><ele>446.79999999999995</ele><time>2026-04-18T10:52:34Z</time></trkpt><trkpt lat="44.51939952424312" lon="10.585641320306054"><ele>444.59999999999997</ele><time>2026-04-18T10:52:36Z</time></trkpt><trkpt lat="44.51939233999068" lon="10.585802200868525"><ele>442.4</ele><time>2026-04-18T10:52:38Z</time></trkpt><trkpt lat="44.51939121393932" lon="10.585896369570126"><ele>440.2</ele><time>2026-04-18T10:52:39Z</time></trkpt><trkpt lat="44.51939065121993" lon="10.586069191637907"><ele>438.0</ele><time>2026-04-18T10:52:41Z</time></trkpt><trkpt lat="44.519405305010814" lon="10.586213454085946"><ele>435.2</ele><time>2026-04-18T10:52:42Z</time></trkpt><trkpt lat="44.51942622872224" lon="10.58634567338515"><ele>432.4</ele><time>2026-04-18T10:52:43Z</time></trkpt><trkpt lat="44.519441242151125" lon="10.586486568531363"><ele>429.59999999999997</ele><time>2026-04-18T10:52:44Z</time></trkpt><trkpt lat="44.51946332241923" lon="10.586603418500891"><ele>426.79999999999995</ele><time>2026-04-18T10:52:45Z</time></trkpt><trkpt lat="44.51948920324588" lon="10.586717300461721"><ele>424.0</ele><time>2026-04-18T10:52:46Z</time></trkpt><trkpt lat="44.51951998679391" lon="10.58684642113177"><ele>424.00000000000006</ele><time>2026-04-18T10:52:47Z</time></trkpt><trkpt lat="44.51950422667671" lon="10.58693893590918"><ele>424.0</ele><time>2026-04-18T10:52:48Z</time></trkpt><trkpt lat="44.51953079276494" lon="10.587049117366911"><ele>424.0</ele><time>2026-04-18T10:52:49Z</time></trkpt><trkpt lat="44.51955645605595" lon="10.58714356684155"><ele>424.0</ele><time>2026-04-18T10:52:50Z</time></trkpt><trkpt lat="44.51958704374722" lon="10.58726717619707"><ele>424.00000000000006</ele><time>2026-04-18T10:52:52Z</time></trkpt><trkpt lat="44.5196040479973" lon="10.587380968206562"><ele>424.0</ele><time>2026-04-18T10:52:53.999Z</time></trkpt><trkpt lat="44.51956608407663" lon="10.58748666628429"><ele>421.2</ele><time>2026-04-18T10:52:56.999Z</time></trkpt><trkpt lat="44.519562088518626" lon="10.587609779613315"><ele>418.4</ele><time>2026-04-18T10:52:58.999Z</time></trkpt><trkpt lat="44.51956363741465" lon="10.587758384183608"><ele>415.6</ele><time>2026-04-18T10:53:00.999Z</time></trkpt><trkpt lat="44.51953781455534" lon="10.587909924028711"><ele>412.8</ele><time>2026-04-18T10:53:02.999Z</time></trkpt><trkpt lat="44.51950551879203" lon="10.588038398126141"><ele>410.0</ele><time>2026-04-18T10:53:04.999Z</time></trkpt><trkpt lat="44.51943410940897" lon="10.588102350094662"><ele>406.5</ele><time>2026-04-18T10:53:11.999Z</time></trkpt><trkpt lat="44.51927922552869" lon="10.588053253715966"><ele>403.0</ele><time>2026-04-18T10:53:13.999Z</time></trkpt><trkpt lat="44.51919826259904" lon="10.588008765534132"><ele>399.5</ele><time>2026-04-18T10:53:14.999Z</time></trkpt><trkpt lat="44.51912500165709" lon="10.58798827690116"><ele>396.0</ele><time>2026-04-18T10:53:15.999Z</time></trkpt><trkpt lat="44.51897880535667" lon="10.58792847681778"><ele>396.0</ele><time>2026-04-18T10:53:17.999Z</time></trkpt><trkpt lat="44.518909939701196" lon="10.587899256428424"><ele>396.0</ele><time>2026-04-18T10:53:18.999Z</time></trkpt><trkpt lat="44.518808173944414" lon="10.587813747634252"><ele>396.0</ele><time>2026-04-18T10:53:20.999Z</time></trkpt><trkpt lat="44.518753412021574" lon="10.587740876617369"><ele>396.0</ele><time>2026-04-18T10:53:21.999Z</time></trkpt><trkpt lat="44.51872834607864" lon="10.58762443517537"><ele>396.0</ele><time>2026-04-18T10:53:22.999Z</time></trkpt><trkpt lat="44.51868812685134" lon="10.587491541782072"><ele>395.6666666666667</ele><time>2026-04-18T10:53:23.999Z</time></trkpt><trkpt lat="44.518630912043605" lon="10.58737994194866"><ele>395.33333333333337</ele><time>2026-04-18T10:53:25.999Z</time></trkpt><trkpt lat="44.518562620155876" lon="10.587318287053114"><ele>395.0</ele><time>2026-04-18T10:53:26.999Z</time></trkpt><trkpt lat="44.51851207821508" lon="10.58723199218134"><ele>394.6666666666667</ele><time>2026-04-18T10:53:27.999Z</time></trkpt><trkpt lat="44.51848299359822" lon="10.587142824946927"><ele>394.33333333333337</ele><time>2026-04-18T10:53:28.999Z</time></trkpt><trkpt lat="44.51845398803262" lon="10.58705786474282"><ele>394.0</ele><time>2026-04-18T10:53:29.999Z</time></trkpt><trkpt lat="44.518369716741" lon="10.58689031042026"><ele>394.0</ele><time>2026-04-18T10:53:31.999Z</time></trkpt><trkpt lat="44.5182699082809" lon="10.586807916369084"><ele>394.0</ele><time>2026-04-18T10:53:33.999Z</time></trkpt><trkpt lat="44.51818508117185" lon="10.586843837696163"><ele>394.0</ele><time>2026-04-18T10:53:35.999Z</time></trkpt><trkpt lat="44.51809521568568" lon="10.5869478951954"><ele>394.0</ele><time>2026-04-18T10:53:38Z</time></trkpt><trkpt lat="44.518015920605826" lon="10.587018827310283"><ele>394.0</ele><time>2026-04-18T10:53:39Z</time></trkpt><trkpt lat="44.517952547456176" lon="10.587033097138647"><ele>394.4</ele><time>2026-04-18T10:53:40Z</time></trkpt><trkpt lat="44.51785717203804" lon="10.587087116882037"><ele>394.79999999999995</ele><time>2026-04-18T10:53:42Z</time></trkpt><trkpt lat="44.51780504169305" lon="10.587177836385532"><ele>395.20000000000005</ele><time>2026-04-18T10:53:45Z</time></trkpt><trkpt lat="44.51775321579025" lon="10.587265637042053"><ele>395.6</ele><time>2026-04-18T10:54:22Z</time></trkpt><trkpt lat="44.5177045302558" lon="10.587363722269119"><ele>396.0</ele><time>2026-04-18T10:54:24Z</time></trkpt><trkpt lat="44.51762233656759" lon="10.587456932706724"><ele>396.0</ele><time>2026-04-18T10:54:26Z</time></trkpt><trkpt lat="44.517546118787486" lon="10.587531823607993"><ele>396.0</ele><time>2026-04-18T10:54:28Z</time></trkpt><trkpt lat="44.517481004729305" lon="10.58760753189733"><ele>396.0</ele><time>2026-04-18T10:54:31Z</time></trkpt><trkpt lat="44.517424123540536" lon="10.587671862973636"><ele>396.0</ele><time>2026-04-18T10:54:32Z</time></trkpt><trkpt lat="44.517365153505075" lon="10.587750665289299"><ele>396.0</ele><time>2026-04-18T10:54:33Z</time></trkpt><trkpt lat="44.51728439805806" lon="10.587858853284013"><ele>396.0</ele><time>2026-04-18T10:54:35Z</time></trkpt><trkpt lat="44.51723239686647" lon="10.587923939231406"><ele>395.6</ele><time>2026-04-18T10:54:36Z</time></trkpt><trkpt lat="44.517142097463775" lon="10.58802406595574"><ele>395.20000000000005</ele><time>2026-04-18T10:54:38Z</time></trkpt><trkpt lat="44.517035721045644" lon="10.588061776536145"><ele>394.79999999999995</ele><time>2026-04-18T10:54:40Z</time></trkpt><trkpt lat="44.51694338308869" lon="10.588040439870035"><ele>394.4</ele><time>2026-04-18T10:54:42Z</time></trkpt><trkpt lat="44.51685812401623" lon="10.587973463000965"><ele>394.0</ele><time>2026-04-18T10:54:44Z</time></trkpt><trkpt lat="44.516788045030516" lon="10.587897059595269"><ele>394.00000000000006</ele><time>2026-04-18T10:54:45.999Z</time></trkpt><trkpt lat="44.516746973156444" lon="10.587973187538841"><ele>394.0</ele><time>2026-04-18T10:54:49.999Z</time></trkpt><trkpt lat="44.51672147949424" lon="10.58810158958652"><ele>394.0</ele><time>2026-04-18T10:54:51.999Z</time></trkpt><trkpt lat="44.516686667178526" lon="10.588179928323548"><ele>394.0</ele><time>2026-04-18T10:54:52.999Z</time></trkpt><trkpt lat="44.516619350477974" lon="10.58826473321778"><ele>394.00000000000006</ele><time>2026-04-18T10:54:53.999Z</time></trkpt><trkpt lat="44.51652209233575" lon="10.588287988568698"><ele>394.0</ele><time>2026-04-18T10:54:54.999Z</time></trkpt><trkpt lat="44.51645056476402" lon="10.588341613749897"><ele>394.00000000000006</ele><time>2026-04-18T10:54:55.999Z</time></trkpt><trkpt lat="44.51637059575325" lon="10.588399801484483"><ele>394.0</ele><time>2026-04-18T10:54:56.999Z</time></trkpt><trkpt lat="44.51628459160725" lon="10.588462509558092"><ele>394.0</ele><time>2026-04-18T10:54:57.999Z</time></trkpt><trkpt lat="44.51620681773723" lon="10.588520116983592"><ele>394.0</ele><time>2026-04-18T10:54:58.999Z</time></trkpt><trkpt lat="44.516141960295975" lon="10.588576987832138"><ele>394.00000000000006</ele><time>2026-04-18T10:54:59.999Z</time></trkpt><trkpt lat="44.516092770767614" lon="10.588642484863716"><ele>394.0</ele><time>2026-04-18T10:55:00.999Z</time></trkpt><trkpt lat="44.51607901806698" lon="10.588840749180456"><ele>391.50000000000006</ele><time>2026-04-18T10:55:02.999Z</time></trkpt><trkpt lat="44.51611432084674" lon="10.588944199376538"><ele>389.0</ele><time>2026-04-18T10:55:03.999Z</time></trkpt><trkpt lat="44.51618480806208" lon="10.589005327073691"><ele>386.5</ele><time>2026-04-18T10:55:04.999Z</time></trkpt><trkpt lat="44.51624445788246" lon="10.589068013020276"><ele>384.0</ele><time>2026-04-18T10:55:05.999Z</time></trkpt><trkpt lat="44.51630994197871" lon="10.589113643523806"><ele>381.5</ele><time>2026-04-18T10:55:06.999Z</time></trkpt><trkpt lat="44.51637921108019" lon="10.589154682386418"><ele>379.0</ele><time>2026-04-18T10:55:07.999Z</time></trkpt><trkpt lat="44.51645547374701" lon="10.589198889091346"><ele>379.0</ele><time>2026-04-18T10:55:08.999Z</time></trkpt><trkpt lat="44.51652149098399" lon="10.589267283124276"><ele>379.0</ele><time>2026-04-18T10:55:09.999Z</time></trkpt><trkpt lat="44.51658972101221" lon="10.589325825918158"><ele>379.0</ele><time>2026-04-18T10:55:10.999Z</time></trkpt><trkpt lat="44.51665426661851" lon="10.589369338708652"><ele>379.0</ele><time>2026-04-18T10:55:11.999Z</time></trkpt><trkpt lat="44.516669764156426" lon="10.589474357562732"><ele>379.0</ele><time>2026-04-18T10:55:12.999Z</time></trkpt><trkpt lat="44.51666266460424" lon="10.589577153289287"><ele>379.0</ele><time>2026-04-18T10:55:13.999Z</time></trkpt><trkpt lat="44.51662250615142" lon="10.589692372084155"><ele>377.0</ele><time>2026-04-18T10:55:14.999Z</time></trkpt><trkpt lat="44.51660767961801" lon="10.589805556317122"><ele>375.0</ele><time>2026-04-18T10:55:15.999Z</time></trkpt><trkpt lat="44.51658285703289" lon="10.589916582285358"><ele>373.0</ele><time>2026-04-18T10:55:16.999Z</time></trkpt><trkpt lat="44.51657714772854" lon="10.590025354552779"><ele>371.0</ele><time>2026-04-18T10:55:17.999Z</time></trkpt><trkpt lat="44.516585446838455" lon="10.590147468545544"><ele>369.0</ele><time>2026-04-18T10:55:18.999Z</time></trkpt><trkpt lat="44.516596892554816" lon="10.590264115563857"><ele>367.0</ele><time>2026-04-18T10:55:19.999Z</time></trkpt><trkpt lat="44.51659820080556" lon="10.590357716285842"><ele>363.8</ele><time>2026-04-18T10:55:20.999Z</time></trkpt><trkpt lat="44.516606663727366" lon="10.59048939140938"><ele>360.6</ele><time>2026-04-18T10:55:21.999Z</time></trkpt><trkpt lat="44.516587604506356" lon="10.590614566732112"><ele>357.40000000000003</ele><time>2026-04-18T10:55:22.999Z</time></trkpt><trkpt lat="44.516529772475" lon="10.59076851399438"><ele>354.20000000000005</ele><time>2026-04-18T10:55:24.999Z</time></trkpt><trkpt lat="44.51645879479886" lon="10.590815212856011"><ele>351.0</ele><time>2026-04-18T10:55:25.999Z</time></trkpt><trkpt lat="44.51637638442335" lon="10.590792453178071"><ele>351.0</ele><time>2026-04-18T10:55:26.999Z</time></trkpt><trkpt lat="44.51631690759481" lon="10.59075066132534"><ele>351.0</ele><time>2026-04-18T10:55:27.999Z</time></trkpt><trkpt lat="44.516226693013344" lon="10.590822062074647"><ele>351.0</ele><time>2026-04-18T10:55:29.999Z</time></trkpt><trkpt lat="44.51623135278346" lon="10.590938388115433"><ele>351.0</ele><time>2026-04-18T10:55:30.999Z</time></trkpt><trkpt lat="44.516300199747505" lon="10.591031138885809"><ele>351.0</ele><time>2026-04-18T10:55:31.999Z</time></trkpt><trkpt lat="44.51637091576729" lon="10.591130752853193"><ele>351.0</ele><time>2026-04-18T10:55:32.999Z</time></trkpt><trkpt lat="44.51644009393356" lon="10.59124438343208"><ele>348.8333333333333</ele><time>2026-04-18T10:55:33.999Z</time></trkpt><trkpt lat="44.51650939474555" lon="10.591332029140538"><ele>346.6666666666667</ele><time>2026-04-18T10:55:34.999Z</time></trkpt><trkpt lat="44.51658520350295" lon="10.591388604093394"><ele>344.5</ele><time>2026-04-18T10:55:35.999Z</time></trkpt><trkpt lat="44.5166714835527" lon="10.591382865267988"><ele>342.33333333333337</ele><time>2026-04-18T10:55:36.999Z</time></trkpt><trkpt lat="44.51676015827347" lon="10.591359917658266"><ele>340.1666666666667</ele><time>2026-04-18T10:55:37.999Z</time></trkpt><trkpt lat="44.516850912885275" lon="10.591359461941634"><ele>338.0</ele><time>2026-04-18T10:55:38.999Z</time></trkpt><trkpt lat="44.51693121878136" lon="10.591408424698244"><ele>338.0</ele><time>2026-04-18T10:55:39.999Z</time></trkpt><trkpt lat="44.51698898271278" lon="10.59145168123134"><ele>338.0</ele><time>2026-04-18T10:55:40.999Z</time></trkpt><trkpt lat="44.51710891873694" lon="10.591407323716892"><ele>338.0</ele><time>2026-04-18T10:55:43Z</time></trkpt><trkpt lat="44.51717642781288" lon="10.591277350519293"><ele>338.0</ele><time>2026-04-18T10:55:45Z</time></trkpt><trkpt lat="44.517215218105164" lon="10.591188824995777"><ele>338.0</ele><time>2026-04-18T10:55:46Z</time></trkpt><trkpt lat="44.51727997454411" lon="10.591087831144373"><ele>338.5</ele><time>2026-04-18T10:55:47Z</time></trkpt><trkpt lat="44.51735483968574" lon="10.591035731444688"><ele>339.0</ele><time>2026-04-18T10:55:48Z</time></trkpt><trkpt lat="44.51740635837429" lon="10.590956766951278"><ele>339.5</ele><time>2026-04-18T10:55:49Z</time></trkpt><trkpt lat="44.51745861303796" lon="10.590897884883043"><ele>340.0</ele><time>2026-04-18T10:55:50Z</time></trkpt><trkpt lat="44.517507934812684" lon="10.590840540249095"><ele>340.5</ele><time>2026-04-18T10:55:51Z</time></trkpt><trkpt lat="44.517595816090946" lon="10.590733946232369"><ele>341.0</ele><time>2026-04-18T10:55:53Z</time></trkpt><trkpt lat="44.51766333786153" lon="10.590687152058495"><ele>341.0</ele><time>2026-04-18T10:55:55Z</time></trkpt><trkpt lat="44.51780647482564" lon="10.590737620186125"><ele>341.0</ele><time>2026-04-18T10:55:58Z</time></trkpt><trkpt lat="44.51786391591551" lon="10.590830680789228"><ele>341.0</ele><time>2026-04-18T10:56:00Z</time></trkpt><trkpt lat="44.51793400659391" lon="10.590951048616"><ele>341.0</ele><time>2026-04-18T10:56:02Z</time></trkpt><trkpt lat="44.51798012948441" lon="10.591057607601995"><ele>341.0</ele><time>2026-04-18T10:56:04Z</time></trkpt><trkpt lat="44.518022971114775" lon="10.591164880365277"><ele>338.75</ele><time>2026-04-18T10:56:07Z</time></trkpt><trkpt lat="44.518060818789216" lon="10.59126553081399"><ele>336.5</ele><time>2026-04-18T10:56:09Z</time></trkpt><trkpt lat="44.518101381165735" lon="10.591426275840561"><ele>334.25</ele><time>2026-04-18T10:56:11Z</time></trkpt><trkpt lat="44.51812968481242" lon="10.591545191863835"><ele>332.0</ele><time>2026-04-18T10:56:13Z</time></trkpt><trkpt lat="44.5176978224627" lon="10.592302276467331"><ele>329.6</ele><time>2026-04-18T10:56:23Z</time></trkpt><trkpt lat="44.51779895618267" lon="10.592398020294805"><ele>327.20000000000005</ele><time>2026-04-18T10:56:25Z</time></trkpt><trkpt lat="44.51786041817028" lon="10.592444133982333"><ele>324.8</ele><time>2026-04-18T10:56:26Z</time></trkpt><trkpt lat="44.51796524789666" lon="10.592531659046733"><ele>322.4</ele><time>2026-04-18T10:56:28Z</time></trkpt><trkpt lat="44.51806961468922" lon="10.59259686516373"><ele>320.0</ele><time>2026-04-18T10:56:30Z</time></trkpt><trkpt lat="44.51813305380002" lon="10.592617233609284"><ele>319.0</ele><time>2026-04-18T10:56:31Z</time></trkpt><trkpt lat="44.5181927150368" lon="10.592671991075227"><ele>318.0</ele><time>2026-04-18T10:56:32Z</time></trkpt><trkpt lat="44.51820340981802" lon="10.592763681907911"><ele>317.0</ele><time>2026-04-18T10:56:33Z</time></trkpt><trkpt lat="44.518164854944644" lon="10.592908676324333"><ele>316.0</ele><time>2026-04-18T10:56:35Z</time></trkpt><trkpt lat="44.51819189303335" lon="10.593086872262495"><ele>315.0</ele><time>2026-04-18T10:56:37Z</time></trkpt><trkpt lat="44.518231739496066" lon="10.593242942736795"><ele>313.1666666666667</ele><time>2026-04-18T10:56:39Z</time></trkpt><trkpt lat="44.51822609946256" lon="10.593338685409648"><ele>311.3333333333333</ele><time>2026-04-18T10:56:40Z</time></trkpt><trkpt lat="44.51821577647535" lon="10.593436230830621"><ele>309.5</ele><time>2026-04-18T10:56:41Z</time></trkpt><trkpt lat="44.51824235068256" lon="10.593562572989578"><ele>307.66666666666663</ele><time>2026-04-18T10:56:43Z</time></trkpt><trkpt lat="44.518329147761996" lon="10.593579208360813"><ele>305.8333333333333</ele><time>2026-04-18T10:56:45Z</time></trkpt><trkpt lat="44.518445488224714" lon="10.593643591460742"><ele>304.0</ele><time>2026-04-18T10:56:47Z</time></trkpt><trkpt lat="44.5184906925816" lon="10.593730207684898"><ele>300.59999999999997</ele><time>2026-04-18T10:56:48Z</time></trkpt><trkpt lat="44.51853357489254" lon="10.593872913117808"><ele>297.2</ele><time>2026-04-18T10:56:49.999Z</time></trkpt><trkpt lat="44.518569331165814" lon="10.593954750114971"><ele>293.79999999999995</ele><time>2026-04-18T10:56:50.999Z</time></trkpt><trkpt lat="44.518626084994104" lon="10.594079569935593"><ele>290.4</ele><time>2026-04-18T10:56:52.999Z</time></trkpt><trkpt lat="44.518673849070055" lon="10.594213615768405"><ele>287.0</ele><time>2026-04-18T10:56:54.999Z</time></trkpt><trkpt lat="44.51869946942669" lon="10.594306993756124"><ele>287.0</ele><time>2026-04-18T10:56:55.999Z</time></trkpt><trkpt lat="44.51870952560242" lon="10.594467268062235"><ele>287.0</ele><time>2026-04-18T10:56:57.999Z</time></trkpt><trkpt lat="44.51871521157854" lon="10.594631999189321"><ele>287.0</ele><time>2026-04-18T10:56:59.999Z</time></trkpt><trkpt lat="44.51871128305174" lon="10.594779830392113"><ele>287.0</ele><time>2026-04-18T10:57:01.999Z</time></trkpt><trkpt lat="44.51865069711614" lon="10.594915731720164"><ele>286.4</ele><time>2026-04-18T10:57:03.999Z</time></trkpt><trkpt lat="44.51868543054532" lon="10.595064014662187"><ele>285.79999999999995</ele><time>2026-04-18T10:57:06.999Z</time></trkpt><trkpt lat="44.51874665925717" lon="10.59522869567116"><ele>285.2</ele><time>2026-04-18T10:57:08.999Z</time></trkpt><trkpt lat="44.51877251495856" lon="10.595330558956206"><ele>284.59999999999997</ele><time>2026-04-18T10:57:09.999Z</time></trkpt><trkpt lat="44.518790160838286" lon="10.595442190026848"><ele>284.0</ele><time>2026-04-18T10:57:10.999Z</time></trkpt><trkpt lat="44.518809122920025" lon="10.595534841905197"><ele>282.4</ele><time>2026-04-18T10:57:11.999Z</time></trkpt><trkpt lat="44.5188165498515" lon="10.595627465771438"><ele>280.79999999999995</ele><time>2026-04-18T10:57:12.999Z</time></trkpt><trkpt lat="44.51878021625908" lon="10.59581892003822"><ele>279.20000000000005</ele><time>2026-04-18T10:57:14.999Z</time></trkpt><trkpt lat="44.51876760659053" lon="10.595949068495754"><ele>277.6</ele><time>2026-04-18T10:57:15.999Z</time></trkpt><trkpt lat="44.518779480081704" lon="10.596055341037026"><ele>276.0</ele><time>2026-04-18T10:57:16.999Z</time></trkpt><trkpt lat="44.51882227078431" lon="10.596216484112771"><ele>275.1666666666667</ele><time>2026-04-18T10:57:18.999Z</time></trkpt><trkpt lat="44.51886220236168" lon="10.596311138735842"><ele>274.3333333333333</ele><time>2026-04-18T10:57:19.999Z</time></trkpt><trkpt lat="44.518904150211426" lon="10.596401373760767"><ele>273.5</ele><time>2026-04-18T10:57:20.999Z</time></trkpt><trkpt lat="44.51896806760376" lon="10.596507557883593"><ele>272.66666666666663</ele><time>2026-04-18T10:57:21.999Z</time></trkpt><trkpt lat="44.519015801845434" lon="10.596607823253718"><ele>271.8333333333333</ele><time>2026-04-18T10:57:22.999Z</time></trkpt><trkpt lat="44.51906410173996" lon="10.596671876621524"><ele>271.0</ele><time>2026-04-18T10:57:23.999Z</time></trkpt><trkpt lat="44.519147086401844" lon="10.596761714721106"><ele>271.0</ele><time>2026-04-18T10:57:24.999Z</time></trkpt><trkpt lat="44.5192236308573" lon="10.59682658486593"><ele>271.0</ele><time>2026-04-18T10:57:25.999Z</time></trkpt><trkpt lat="44.519287203766794" lon="10.596881696395917"><ele>271.0</ele><time>2026-04-18T10:57:26.999Z</time></trkpt><trkpt lat="44.51934027481419" lon="10.596939168365497"><ele>271.0</ele><time>2026-04-18T10:57:27.999Z</time></trkpt><trkpt lat="44.519382720076194" lon="10.597014161531293"><ele>271.0</ele><time>2026-04-18T10:57:28.999Z</time></trkpt><trkpt lat="44.51942960899302" lon="10.597092880784508"><ele>271.0</ele><time>2026-04-18T10:57:29.999Z</time></trkpt><trkpt lat="44.51949709842191" lon="10.597155355196183"><ele>271.6</ele><time>2026-04-18T10:57:30.999Z</time></trkpt><trkpt lat="44.519542297665716" lon="10.597241210126263"><ele>272.20000000000005</ele><time>2026-04-18T10:57:31.999Z</time></trkpt><trkpt lat="44.51964216980605" lon="10.597251158484452"><ele>272.79999999999995</ele><time>2026-04-18T10:57:33.999Z</time></trkpt><trkpt lat="44.51977271222503" lon="10.597284857672143"><ele>273.4</ele><time>2026-04-18T10:57:39.999Z</time></trkpt><trkpt lat="44.51984547756193" lon="10.597329370699692"><ele>274.0</ele><time>2026-04-18T10:57:41.999Z</time></trkpt><trkpt lat="44.51990421889116" lon="10.597367921009688"><ele>274.75</ele><time>2026-04-18T10:57:43.999Z</time></trkpt><trkpt lat="44.519971855963824" lon="10.597355771590063"><ele>275.5</ele><time>2026-04-18T10:57:46.999Z</time></trkpt><trkpt lat="44.51990472623168" lon="10.59737363410405"><ele>276.25</ele><time>2026-04-18T10:57:52Z</time></trkpt><trkpt lat="44.520016664274" lon="10.59709451333282"><ele>277.0</ele><time>2026-04-18T10:57:55Z</time></trkpt><trkpt lat="44.51990725365719" lon="10.597096932315118"><ele>277.0</ele><time>2026-04-18T10:57:57Z</time></trkpt><trkpt lat="44.51979671758898" lon="10.597103435201385"><ele>277.0</ele><time>2026-04-18T10:57:59Z</time></trkpt><trkpt lat="44.51970649591851" lon="10.597179780933772"><ele>277.0</ele><time>2026-04-18T10:58:01Z</time></trkpt><trkpt lat="44.51968377140649" lon="10.597271642845623"><ele>277.0</ele><time>2026-04-18T10:58:04Z</time></trkpt><trkpt lat="44.51975810988158" lon="10.597290188117098"><ele>277.0</ele><time>2026-04-18T10:58:07Z</time></trkpt><trkpt lat="44.519821684873044" lon="10.59729699321021"><ele>277.0</ele><time>2026-04-18T10:58:08Z</time></trkpt><trkpt lat="44.519889022553905" lon="10.597333460873955"><ele>277.0</ele><time>2026-04-18T10:58:09Z</time></trkpt><trkpt lat="44.51996131319503" lon="10.597410830296528"><ele>277.0</ele><time>2026-04-18T10:58:10Z</time></trkpt><trkpt lat="44.520018927753355" lon="10.597497063600793"><ele>277.0</ele><time>2026-04-18T10:58:11Z</time></trkpt><trkpt lat="44.52005346657525" lon="10.597591535228059"><ele>277.0</ele><time>2026-04-18T10:58:12Z</time></trkpt><trkpt lat="44.520066897833324" lon="10.597704172014044"><ele>277.0</ele><time>2026-04-18T10:58:13Z</time></trkpt><trkpt lat="44.52006653792494" lon="10.597833934206918"><ele>277.0</ele><time>2026-04-18T10:58:14Z</time></trkpt><trkpt lat="44.52007260992828" lon="10.59795318715784"><ele>279.16666666666663</ele><time>2026-04-18T10:58:15Z</time></trkpt><trkpt lat="44.52008825144345" lon="10.598063363486961"><ele>281.3333333333333</ele><time>2026-04-18T10:58:16Z</time></trkpt><trkpt lat="44.520086716277135" lon="10.598168727059935"><ele>283.5</ele><time>2026-04-18T10:58:17Z</time></trkpt><trkpt lat="44.52010122658739" lon="10.59827388206352"><ele>285.6666666666667</ele><time>2026-04-18T10:58:18Z</time></trkpt><trkpt lat="44.5201181966208" lon="10.598379720719388"><ele>287.83333333333337</ele><time>2026-04-18T10:58:19Z</time></trkpt><trkpt lat="44.52013818263456" lon="10.598492466374742"><ele>290.0</ele><time>2026-04-18T10:58:20Z</time></trkpt><trkpt lat="44.520160032930136" lon="10.598607261479975"><ele>292.6666666666667</ele><time>2026-04-18T10:58:21Z</time></trkpt><trkpt lat="44.52019645239762" lon="10.598715332067663"><ele>295.33333333333337</ele><time>2026-04-18T10:58:22Z</time></trkpt><trkpt lat="44.52021479332418" lon="10.598807163705795"><ele>298.0</ele><time>2026-04-18T10:58:23Z</time></trkpt><trkpt lat="44.520274059569765" lon="10.598893064198581"><ele>300.6666666666667</ele><time>2026-04-18T10:58:24Z</time></trkpt><trkpt lat="44.520366198632466" lon="10.59894564531618"><ele>303.3333333333333</ele><time>2026-04-18T10:58:25Z</time></trkpt><trkpt lat="44.520458604859016" lon="10.598973370033283"><ele>306.0</ele><time>2026-04-18T10:58:26Z</time></trkpt><trkpt lat="44.52054972597222" lon="10.598995773480254"><ele>307.6666666666667</ele><time>2026-04-18T10:58:27Z</time></trkpt><trkpt lat="44.520623142653925" lon="10.599009081319698"><ele>309.3333333333333</ele><time>2026-04-18T10:58:28Z</time></trkpt><trkpt lat="44.52071541738512" lon="10.59901506997908"><ele>311.0</ele><time>2026-04-18T10:58:29Z</time></trkpt><trkpt lat="44.52080846972779" lon="10.599011482072239"><ele>312.66666666666663</ele><time>2026-04-18T10:58:30Z</time></trkpt><trkpt lat="44.52089166611303" lon="10.599014634704668"><ele>314.3333333333333</ele><time>2026-04-18T10:58:31Z</time></trkpt><trkpt lat="44.52096831382665" lon="10.599039400377146"><ele>316.0</ele><time>2026-04-18T10:58:32Z</time></trkpt><trkpt lat="44.52103184880109" lon="10.599080597007754"><ele>316.0</ele><time>2026-04-18T10:58:33Z</time></trkpt><trkpt lat="44.52109508373551" lon="10.599131433461952"><ele>316.0</ele><time>2026-04-18T10:58:34Z</time></trkpt><trkpt lat="44.52111804629464" lon="10.599222630304904"><ele>316.0</ele><time>2026-04-18T10:58:35Z</time></trkpt><trkpt lat="44.521077383325355" lon="10.599353829381387"><ele>316.0</ele><time>2026-04-18T10:58:36Z</time></trkpt><trkpt lat="44.521052469821726" lon="10.59945473279978"><ele>316.0</ele><time>2026-04-18T10:58:37Z</time></trkpt><trkpt lat="44.52101058252528" lon="10.599568498528978"><ele>316.0</ele><time>2026-04-18T10:58:38Z</time></trkpt><trkpt lat="44.52096562513741" lon="10.59965769251021"><ele>318.0</ele><time>2026-04-18T10:58:39Z</time></trkpt><trkpt lat="44.520916786442434" lon="10.599754346064431"><ele>320.0</ele><time>2026-04-18T10:58:40Z</time></trkpt><trkpt lat="44.52087754651463" lon="10.599845632451368"><ele>322.0</ele><time>2026-04-18T10:58:42Z</time></trkpt><trkpt lat="44.52092588684614" lon="10.59996196396869"><ele>324.0</ele><time>2026-04-18T10:58:44Z</time></trkpt><trkpt lat="44.520950879540656" lon="10.600044913779268"><ele>326.0</ele><time>2026-04-18T10:58:45Z</time></trkpt><trkpt lat="44.52101047106777" lon="10.600110259645128"><ele>328.0</ele><time>2026-04-18T10:58:46Z</time></trkpt><trkpt lat="44.52107264200485" lon="10.600182036763016"><ele>328.0</ele><time>2026-04-18T10:58:47Z</time></trkpt><trkpt lat="44.521146177874755" lon="10.600249573913953"><ele>328.0</ele><time>2026-04-18T10:58:48Z</time></trkpt><trkpt lat="44.52121440679518" lon="10.600304831677775"><ele>328.0</ele><time>2026-04-18T10:58:49Z</time></trkpt><trkpt lat="44.52126377801068" lon="10.600430894252973"><ele>328.0</ele><time>2026-04-18T10:58:51Z</time></trkpt><trkpt lat="44.521348219084125" lon="10.600556746180198"><ele>328.0</ele><time>2026-04-18T10:58:53Z</time></trkpt><trkpt lat="44.52140426223611" lon="10.60061788035277"><ele>330.0</ele><time>2026-04-18T10:58:54Z</time></trkpt><trkpt lat="44.521458173702115" lon="10.600672194463556"><ele>332.0</ele><time>2026-04-18T10:58:55Z</time></trkpt><trkpt lat="44.52152830068672" lon="10.600714856330436"><ele>334.0</ele><time>2026-04-18T10:58:56Z</time></trkpt><trkpt lat="44.521588018290025" lon="10.600763685661319"><ele>336.0</ele><time>2026-04-18T10:58:57Z</time></trkpt><trkpt lat="44.521623739693396" lon="10.600865206424968"><ele>338.0</ele><time>2026-04-18T10:58:59Z</time></trkpt><trkpt lat="44.52158601106036" lon="10.60095650732885"><ele>340.0</ele><time>2026-04-18T10:59:00.999Z</time></trkpt><trkpt lat="44.52153202403073" lon="10.60107635532492"><ele>345.25</ele><time>2026-04-18T10:59:02.999Z</time></trkpt><trkpt lat="44.521451145696105" lon="10.601192035559432"><ele>350.5</ele><time>2026-04-18T10:59:04.999Z</time></trkpt><trkpt lat="44.52136818550892" lon="10.6012895615493"><ele>355.75</ele><time>2026-04-18T10:59:06.999Z</time></trkpt><trkpt lat="44.52129887702651" lon="10.60135733275156"><ele>361.0</ele><time>2026-04-18T10:59:08.999Z</time></trkpt><trkpt lat="44.52147769808349" lon="10.60137419342951"><ele>361.0</ele><time>2026-04-18T10:59:12.999Z</time></trkpt><trkpt lat="44.52155052080542" lon="10.601394893628251"><ele>361.0</ele><time>2026-04-18T10:59:14.999Z</time></trkpt><trkpt lat="44.52165012354589" lon="10.60140367525237"><ele>361.0</ele><time>2026-04-18T10:59:16.999Z</time></trkpt><trkpt lat="44.52171240199236" lon="10.601383267654027"><ele>361.0</ele><time>2026-04-18T10:59:17.999Z</time></trkpt><trkpt lat="44.52178668352314" lon="10.601345397279655"><ele>361.0</ele><time>2026-04-18T10:59:18.999Z</time></trkpt><trkpt lat="44.521850254035286" lon="10.601309482604831"><ele>361.0</ele><time>2026-04-18T10:59:19.999Z</time></trkpt><trkpt lat="44.52191459850907" lon="10.601320934092396"><ele>361.0</ele><time>2026-04-18T10:59:20.999Z</time></trkpt><trkpt lat="44.52202182394041" lon="10.601354864513564"><ele>361.0</ele><time>2026-04-18T10:59:22.999Z</time></trkpt><trkpt lat="44.522120429187304" lon="10.60138588230648"><ele>361.0</ele><time>2026-04-18T10:59:24.999Z</time></trkpt><trkpt lat="44.522183460956995" lon="10.60140052266703"><ele>361.0</ele><time>2026-04-18T10:59:25.999Z</time></trkpt><trkpt lat="44.52224763574903" lon="10.601419286290882"><ele>361.0</ele><time>2026-04-18T10:59:26.999Z</time></trkpt><trkpt lat="44.52231208335399" lon="10.601437995034546"><ele>361.0</ele><time>2026-04-18T10:59:27.999Z</time></trkpt><trkpt lat="44.52242392969787" lon="10.601480125387958"><ele>362.16666666666663</ele><time>2026-04-18T10:59:29.999Z</time></trkpt><trkpt lat="44.52249266009894" lon="10.601545542542091"><ele>363.3333333333333</ele><time>2026-04-18T10:59:31.999Z</time></trkpt><trkpt lat="44.52250080861121" lon="10.601694228565643"><ele>364.5</ele><time>2026-04-18T10:59:34.999Z</time></trkpt><trkpt lat="44.52246223278829" lon="10.60183885800351"><ele>365.6666666666667</ele><time>2026-04-18T10:59:36.999Z</time></trkpt><trkpt lat="44.52244609865816" lon="10.601933202794187"><ele>366.83333333333337</ele><time>2026-04-18T10:59:37.999Z</time></trkpt><trkpt lat="44.52243776410555" lon="10.602032557444057"><ele>368.0</ele><time>2026-04-18T10:59:38.999Z</time></trkpt><trkpt lat="44.522430432751406" lon="10.60213954561471"><ele>370.5714285714286</ele><time>2026-04-18T10:59:39.999Z</time></trkpt><trkpt lat="44.522420074848846" lon="10.602247840378505"><ele>373.1428571428571</ele><time>2026-04-18T10:59:40.999Z</time></trkpt><trkpt lat="44.522403357230786" lon="10.602371440872094"><ele>375.7142857142857</ele><time>2026-04-18T10:59:41.999Z</time></trkpt><trkpt lat="44.522376546284626" lon="10.602455942141997"><ele>378.28571428571433</ele><time>2026-04-18T10:59:42.999Z</time></trkpt><trkpt lat="44.52235261764593" lon="10.602548744073058"><ele>380.8571428571429</ele><time>2026-04-18T10:59:43.999Z</time></trkpt><trkpt lat="44.52233472606403" lon="10.602646768425403"><ele>383.42857142857144</ele><time>2026-04-18T10:59:44.999Z</time></trkpt><trkpt lat="44.52232548148587" lon="10.6027460793482"><ele>386.0</ele><time>2026-04-18T10:59:45.999Z</time></trkpt><trkpt lat="44.522326087233566" lon="10.602847964567987"><ele>389.3333333333333</ele><time>2026-04-18T10:59:46.999Z</time></trkpt><trkpt lat="44.522337774848395" lon="10.602948024389566"><ele>392.66666666666663</ele><time>2026-04-18T10:59:47.999Z</time></trkpt><trkpt lat="44.52235011546216" lon="10.603043022426176"><ele>396.0</ele><time>2026-04-18T10:59:48.999Z</time></trkpt><trkpt lat="44.52237393995869" lon="10.603154557542945"><ele>399.33333333333337</ele><time>2026-04-18T10:59:49.999Z</time></trkpt><trkpt lat="44.52239680210821" lon="10.603283889484242"><ele>402.6666666666667</ele><time>2026-04-18T10:59:50.999Z</time></trkpt><trkpt lat="44.52241353345152" lon="10.603393585781316"><ele>406.0</ele><time>2026-04-18T10:59:51.999Z</time></trkpt><trkpt lat="44.52242569124826" lon="10.603522595342588"><ele>406.0</ele><time>2026-04-18T10:59:53.999Z</time></trkpt><trkpt lat="44.522520359965384" lon="10.603607248770345"><ele>406.0</ele><time>2026-04-18T10:59:56Z</time></trkpt><trkpt lat="44.52260325587266" lon="10.603720847831296"><ele>406.0</ele><time>2026-04-18T10:59:58Z</time></trkpt><trkpt lat="44.52265673350281" lon="10.603787491912351"><ele>406.0</ele><time>2026-04-18T10:59:59Z</time></trkpt><trkpt lat="44.52270869272606" lon="10.603886290256987"><ele>406.0</ele><time>2026-04-18T11:00:00Z</time></trkpt><trkpt lat="44.52275422872736" lon="10.60397792094083"><ele>409.6666666666667</ele><time>2026-04-18T11:00:01Z</time></trkpt><trkpt lat="44.522791699867454" lon="10.604054817101018"><ele>413.33333333333337</ele><time>2026-04-18T11:00:02Z</time></trkpt><trkpt lat="44.522785044907124" lon="10.604217515773307"><ele>417.0</ele><time>2026-04-18T11:00:04Z</time></trkpt><trkpt lat="44.522768015539825" lon="10.60434876105958"><ele>420.66666666666663</ele><time>2026-04-18T11:00:06Z</time></trkpt><trkpt lat="44.522771064649596" lon="10.604479145775976"><ele>424.3333333333333</ele><time>2026-04-18T11:00:08Z</time></trkpt><trkpt lat="44.52278715783883" lon="10.604580779889465"><ele>428.0</ele><time>2026-04-18T11:00:09Z</time></trkpt><trkpt lat="44.522809856065486" lon="10.604680821839896"><ele>431.2</ele><time>2026-04-18T11:00:10Z</time></trkpt><trkpt lat="44.52283773094635" lon="10.604775784316498"><ele>434.4</ele><time>2026-04-18T11:00:11Z</time></trkpt><trkpt lat="44.52288450177579" lon="10.604857571736304"><ele>437.59999999999997</ele><time>2026-04-18T11:00:12Z</time></trkpt><trkpt lat="44.52297202960809" lon="10.604914512706003"><ele>440.79999999999995</ele><time>2026-04-18T11:00:13Z</time></trkpt><trkpt lat="44.52308702526004" lon="10.604932834485924"><ele>444.0</ele><time>2026-04-18T11:00:14Z</time></trkpt><trkpt lat="44.52319622924756" lon="10.6049154551222"><ele>444.0</ele><time>2026-04-18T11:00:15Z</time></trkpt><trkpt lat="44.5232857980865" lon="10.604897417633481"><ele>444.0</ele><time>2026-04-18T11:00:16Z</time></trkpt><trkpt lat="44.523350788521626" lon="10.604886823025105"><ele>444.0</ele><time>2026-04-18T11:00:17Z</time></trkpt><trkpt lat="44.52344574343944" lon="10.604890897486284"><ele>444.0</ele><time>2026-04-18T11:00:19Z</time></trkpt><trkpt lat="44.52356718471969" lon="10.604900681867672"><ele>444.0</ele><time>2026-04-18T11:00:21Z</time></trkpt><trkpt lat="44.52366320162047" lon="10.604823464904149"><ele>442.5</ele><time>2026-04-18T11:00:22Z</time></trkpt><trkpt lat="44.52374922069292" lon="10.604675611315622"><ele>441.0</ele><time>2026-04-18T11:00:23Z</time></trkpt><trkpt lat="44.52384128810477" lon="10.604552251031748"><ele>439.5</ele><time>2026-04-18T11:00:24Z</time></trkpt><trkpt lat="44.523921925963435" lon="10.604480104173463"><ele>438.0</ele><time>2026-04-18T11:00:25Z</time></trkpt><trkpt lat="44.52400870718728" lon="10.60442347234645"><ele>438.0</ele><time>2026-04-18T11:00:26Z</time></trkpt><trkpt lat="44.52411633313135" lon="10.60438929982223"><ele>437.99999999999994</ele><time>2026-04-18T11:00:27Z</time></trkpt><trkpt lat="44.52423339225979" lon="10.604466840551398"><ele>437.99999999999994</ele><time>2026-04-18T11:00:28Z</time></trkpt><trkpt lat="44.52431382686948" lon="10.604451328316305"><ele>438.0</ele><time>2026-04-18T11:00:29Z</time></trkpt><trkpt lat="44.524378166175744" lon="10.604400381604627"><ele>438.0</ele><time>2026-04-18T11:00:30Z</time></trkpt><trkpt lat="44.52443037338735" lon="10.604248434970648"><ele>438.0</ele><time>2026-04-18T11:00:31Z</time></trkpt><trkpt lat="44.52449463403685" lon="10.604136896590772"><ele>437.99999999999994</ele><time>2026-04-18T11:00:32Z</time></trkpt><trkpt lat="44.52455797545165" lon="10.604060001667216"><ele>437.99999999999994</ele><time>2026-04-18T11:00:33Z</time></trkpt><trkpt lat="44.52465029297557" lon="10.603998596460546"><ele>438.0</ele><time>2026-04-18T11:00:34Z</time></trkpt><trkpt lat="44.524736375122146" lon="10.603907976456263"><ele>438.0</ele><time>2026-04-18T11:00:35Z</time></trkpt><trkpt lat="44.52485122911287" lon="10.603871207406472"><ele>440.0</ele><time>2026-04-18T11:00:36Z</time></trkpt><trkpt lat="44.52489654682786" lon="10.603763634697696"><ele>442.0</ele><time>2026-04-18T11:00:37Z</time></trkpt><trkpt lat="44.52494393829951" lon="10.60366681259833"><ele>444.0</ele><time>2026-04-18T11:00:38Z</time></trkpt><trkpt lat="44.52499944101707" lon="10.603578228801188"><ele>446.0</ele><time>2026-04-18T11:00:39Z</time></trkpt><trkpt lat="44.52501083173973" lon="10.603464840581927"><ele>448.0</ele><time>2026-04-18T11:00:40Z</time></trkpt><trkpt lat="44.525041595981484" lon="10.603364217849217"><ele>450.0</ele><time>2026-04-18T11:00:42Z</time></trkpt><trkpt lat="44.52519779410719" lon="10.603359182031134"><ele>450.0</ele><time>2026-04-18T11:00:44Z</time></trkpt><trkpt lat="44.52530087048862" lon="10.603391803697875"><ele>450.0</ele><time>2026-04-18T11:00:45Z</time></trkpt><trkpt lat="44.52540305257793" lon="10.60342414064725"><ele>450.0</ele><time>2026-04-18T11:00:46Z</time></trkpt><trkpt lat="44.52550077216102" lon="10.603498459037775"><ele>450.0</ele><time>2026-04-18T11:00:47Z</time></trkpt><trkpt lat="44.52557129058836" lon="10.603568619385397"><ele>450.0</ele><time>2026-04-18T11:00:48Z</time></trkpt><trkpt lat="44.52562920767299" lon="10.603616324717322"><ele>453.8333333333333</ele><time>2026-04-18T11:00:49Z</time></trkpt><trkpt lat="44.5256801915603" lon="10.603711522339388"><ele>457.66666666666663</ele><time>2026-04-18T11:00:52Z</time></trkpt><trkpt lat="44.52571918046273" lon="10.6038013283432"><ele>461.5</ele><time>2026-04-18T11:00:55Z</time></trkpt><trkpt lat="44.52577228689005" lon="10.60390101771437"><ele>465.3333333333333</ele><time>2026-04-18T11:00:57Z</time></trkpt><trkpt lat="44.52581048423859" lon="10.603972720258918"><ele>469.16666666666663</ele><time>2026-04-18T11:00:58Z</time></trkpt><trkpt lat="44.52592692741888" lon="10.603966104980735"><ele>473.0</ele><time>2026-04-18T11:00:59Z</time></trkpt><trkpt lat="44.525990461095034" lon="10.604065621139572"><ele>473.0</ele><time>2026-04-18T11:01:01Z</time></trkpt><trkpt lat="44.52605484030102" lon="10.604141042389555"><ele>472.99999999999994</ele><time>2026-04-18T11:01:03Z</time></trkpt><trkpt lat="44.52609761228017" lon="10.604214768292158"><ele>472.99999999999994</ele><time>2026-04-18T11:01:04Z</time></trkpt><trkpt lat="44.52618185774241" lon="10.60435807756873"><ele>473.0</ele><time>2026-04-18T11:01:05.999Z</time></trkpt><trkpt lat="44.52623897598355" lon="10.604431905110275"><ele>473.0</ele><time>2026-04-18T11:01:06.999Z</time></trkpt><trkpt lat="44.52629756613385" lon="10.604523809052278"><ele>471.0</ele><time>2026-04-18T11:01:07.999Z</time></trkpt><trkpt lat="44.52636833810874" lon="10.604618409909177"><ele>468.99999999999994</ele><time>2026-04-18T11:01:08.999Z</time></trkpt><trkpt lat="44.52643726147444" lon="10.6047165859927"><ele>466.99999999999994</ele><time>2026-04-18T11:01:09.999Z</time></trkpt><trkpt lat="44.52648416518689" lon="10.604803079820805"><ele>465.0</ele><time>2026-04-18T11:01:10.999Z</time></trkpt><trkpt lat="44.526544474528826" lon="10.604903066248438"><ele>463.0</ele><time>2026-04-18T11:01:11.999Z</time></trkpt><trkpt lat="44.526602021218835" lon="10.605005132541395"><ele>463.0</ele><time>2026-04-18T11:01:12.999Z</time></trkpt><trkpt lat="44.526659111773256" lon="10.605108161577906"><ele>462.99999999999994</ele><time>2026-04-18T11:01:13.999Z</time></trkpt><trkpt lat="44.52671397019217" lon="10.60518539805519"><ele>462.99999999999994</ele><time>2026-04-18T11:01:14.999Z</time></trkpt><trkpt lat="44.52681789318789" lon="10.605305685533912"><ele>463.0</ele><time>2026-04-18T11:01:16.999Z</time></trkpt><trkpt lat="44.526880486887485" lon="10.605374471953033"><ele>463.0</ele><time>2026-04-18T11:01:17.999Z</time></trkpt><trkpt lat="44.526941939825235" lon="10.605450753713457"><ele>460.79999999999995</ele><time>2026-04-18T11:01:18.999Z</time></trkpt><trkpt lat="44.527005297719384" lon="10.605531682136437"><ele>458.59999999999997</ele><time>2026-04-18T11:01:20.999Z</time></trkpt><trkpt lat="44.5270467956127" lon="10.60567964323128"><ele>456.40000000000003</ele><time>2026-04-18T11:01:22.999Z</time></trkpt><trkpt lat="44.52706320692578" lon="10.605817088106411"><ele>454.20000000000005</ele><time>2026-04-18T11:01:24.999Z</time></trkpt><trkpt lat="44.52704877358162" lon="10.605938512537339"><ele>452.0</ele><time>2026-04-18T11:01:26.999Z</time></trkpt><trkpt lat="44.52705617417213" lon="10.60603221741665"><ele>456.49999999999994</ele><time>2026-04-18T11:01:27.999Z</time></trkpt><trkpt lat="44.52705642989037" lon="10.606127918746406"><ele>461.0</ele><time>2026-04-18T11:01:28.999Z</time></trkpt><trkpt lat="44.52704697771817" lon="10.606262799404531"><ele>465.5</ele><time>2026-04-18T11:01:30.999Z</time></trkpt><trkpt lat="44.52704379545425" lon="10.606386129167143"><ele>470.0</ele><time>2026-04-18T11:01:32.999Z</time></trkpt><trkpt lat="44.526988301927446" lon="10.606468321825334"><ele>474.49999999999994</ele><time>2026-04-18T11:01:37.999Z</time></trkpt><trkpt lat="44.52696478129961" lon="10.606579575024892"><ele>479.0</ele><time>2026-04-18T11:01:39.999Z</time></trkpt><trkpt lat="44.526944579015996" lon="10.606714047394199"><ele>481.4</ele><time>2026-04-18T11:01:41.999Z</time></trkpt><trkpt lat="44.526917233814416" lon="10.606809700195106"><ele>483.79999999999995</ele><time>2026-04-18T11:01:43.999Z</time></trkpt><trkpt lat="44.52682426349309" lon="10.606735324594485"><ele>486.20000000000005</ele><time>2026-04-18T11:01:46.999Z</time></trkpt><trkpt lat="44.52677789342814" lon="10.606670105686952"><ele>488.6</ele><time>2026-04-18T11:01:47.999Z</time></trkpt><trkpt lat="44.52666052704952" lon="10.606600133051868"><ele>491.0</ele><time>2026-04-18T11:01:49.999Z</time></trkpt><trkpt lat="44.526558931621096" lon="10.606585431131489"><ele>491.0</ele><time>2026-04-18T11:01:51.999Z</time></trkpt><trkpt lat="44.526562211944906" lon="10.606752660606826"><ele>491.0</ele><time>2026-04-18T11:01:53.999Z</time></trkpt><trkpt lat="44.52661177106019" lon="10.606914348759513"><ele>491.0</ele><time>2026-04-18T11:01:56.999Z</time></trkpt><trkpt lat="44.52665098477514" lon="10.607062787335886"><ele>491.0</ele><time>2026-04-18T11:01:58.999Z</time></trkpt><trkpt lat="44.52673051119578" lon="10.607163007475771"><ele>494.20000000000005</ele><time>2026-04-18T11:02:01Z</time></trkpt><trkpt lat="44.52678659163626" lon="10.607297038293481"><ele>497.40000000000003</ele><time>2026-04-18T11:02:03Z</time></trkpt><trkpt lat="44.52681475883384" lon="10.607390347549156"><ele>500.6</ele><time>2026-04-18T11:02:04Z</time></trkpt><trkpt lat="44.526881589374746" lon="10.607503307634294"><ele>503.8</ele><time>2026-04-18T11:02:06Z</time></trkpt><trkpt lat="44.52695850034327" lon="10.607632767695579"><ele>507.0</ele><time>2026-04-18T11:02:08Z</time></trkpt><trkpt lat="44.527018250616734" lon="10.607786348273974"><ele>508.3333333333333</ele><time>2026-04-18T11:02:10Z</time></trkpt><trkpt lat="44.527054898624144" lon="10.607869243043293"><ele>509.66666666666663</ele><time>2026-04-18T11:02:11Z</time></trkpt><trkpt lat="44.52708355436576" lon="10.607956565209657"><ele>511.0</ele><time>2026-04-18T11:02:12Z</time></trkpt><trkpt lat="44.52713440989063" lon="10.608035277044216"><ele>512.3333333333333</ele><time>2026-04-18T11:02:13Z</time></trkpt><trkpt lat="44.52717692857814" lon="10.608111361306472"><ele>513.6666666666666</ele><time>2026-04-18T11:02:14Z</time></trkpt><trkpt lat="44.52721359362283" lon="10.608190619711362"><ele>515.0</ele><time>2026-04-18T11:02:15Z</time></trkpt><trkpt lat="44.527211179780444" lon="10.608365080225978"><ele>515.0</ele><time>2026-04-18T11:02:17Z</time></trkpt><trkpt lat="44.52718812422946" lon="10.608448909465505"><ele>515.0</ele><time>2026-04-18T11:02:18Z</time></trkpt><trkpt lat="44.52717749175893" lon="10.608536715820902"><ele>515.0</ele><time>2026-04-18T11:02:19Z</time></trkpt><trkpt lat="44.5271377888884" lon="10.608678649826484"><ele>515.0</ele><time>2026-04-18T11:02:21Z</time></trkpt><trkpt lat="44.52706854595956" lon="10.608656974582999"><ele>515.0</ele><time>2026-04-18T11:02:42Z</time></trkpt><trkpt lat="44.527021303762034" lon="10.608575359953276"><ele>515.0</ele><time>2026-04-18T11:02:43Z</time></trkpt><trkpt lat="44.526964091284036" lon="10.608506006603337"><ele>515.0</ele><time>2026-04-18T11:02:44Z</time></trkpt><trkpt lat="44.52690490487445" lon="10.608446583911416"><ele>515.0</ele><time>2026-04-18T11:02:45Z</time></trkpt><trkpt lat="44.5268424133176" lon="10.608391571637737"><ele>515.0</ele><time>2026-04-18T11:02:46Z</time></trkpt><trkpt lat="44.5267873087767" lon="10.60833189603125"><ele>515.0</ele><time>2026-04-18T11:02:47Z</time></trkpt><trkpt lat="44.52672705656766" lon="10.608259860637544"><ele>515.0</ele><time>2026-04-18T11:02:48Z</time></trkpt><trkpt lat="44.52665662779842" lon="10.608180448408111"><ele>515.0</ele><time>2026-04-18T11:02:49Z</time></trkpt><trkpt lat="44.52657453759316" lon="10.608110899197552"><ele>515.0</ele><time>2026-04-18T11:02:50Z</time></trkpt><trkpt lat="44.52647410082463" lon="10.608081835857465"><ele>515.0</ele><time>2026-04-18T11:02:52Z</time></trkpt><trkpt lat="44.52640689486061" lon="10.608090522134056"><ele>515.0</ele><time>2026-04-18T11:02:53Z</time></trkpt><trkpt lat="44.52633148736621" lon="10.608060712369697"><ele>515.0</ele><time>2026-04-18T11:02:54Z</time></trkpt><trkpt lat="44.526220551120986" lon="10.607955687061228"><ele>515.0</ele><time>2026-04-18T11:02:56Z</time></trkpt><trkpt lat="44.52611977177221" lon="10.607882507045552"><ele>516.1666666666666</ele><time>2026-04-18T11:02:58Z</time></trkpt><trkpt lat="44.52604754728091" lon="10.607853145849027"><ele>517.3333333333333</ele><time>2026-04-18T11:02:59Z</time></trkpt><trkpt lat="44.52596919885664" lon="10.607814177630706"><ele>518.5</ele><time>2026-04-18T11:03:00Z</time></trkpt><trkpt lat="44.52589355830213" lon="10.607778439854597"><ele>519.6666666666666</ele><time>2026-04-18T11:03:01Z</time></trkpt><trkpt lat="44.52582947561634" lon="10.607744596373898"><ele>520.8333333333334</ele><time>2026-04-18T11:03:02Z</time></trkpt><trkpt lat="44.52573384875466" lon="10.607725583746925"><ele>522.0</ele><time>2026-04-18T11:03:03Z</time></trkpt><trkpt lat="44.525619875041464" lon="10.607683511739344"><ele>524.5</ele><time>2026-04-18T11:03:05Z</time></trkpt><trkpt lat="44.52555710203531" lon="10.607664236620375"><ele>527.0</ele><time>2026-04-18T11:03:06Z</time></trkpt><trkpt lat="44.52549229807105" lon="10.607655862449304"><ele>529.5</ele><time>2026-04-18T11:03:07Z</time></trkpt><trkpt lat="44.525400125721745" lon="10.607669436661203"><ele>532.0</ele><time>2026-04-18T11:03:09Z</time></trkpt><trkpt lat="44.52531786603752" lon="10.607683747809876"><ele>534.5</ele><time>2026-04-18T11:03:11Z</time></trkpt><trkpt lat="44.52521582371728" lon="10.607666938127052"><ele>537.0</ele><time>2026-04-18T11:03:12.999Z</time></trkpt><trkpt lat="44.52519818249432" lon="10.607553573751282"><ele>537.0</ele><time>2026-04-18T11:03:14.999Z</time></trkpt><trkpt lat="44.52529624480102" lon="10.607497280794423"><ele>537.0</ele><time>2026-04-18T11:03:16.999Z</time></trkpt><trkpt lat="44.525374027766894" lon="10.607524231064582"><ele>537.0</ele><time>2026-04-18T11:03:17.999Z</time></trkpt><trkpt lat="44.52546013344955" lon="10.607564882145855"><ele>537.0</ele><time>2026-04-18T11:03:18.999Z</time></trkpt><trkpt lat="44.52553743405539" lon="10.607609952564255"><ele>537.0</ele><time>2026-04-18T11:03:19.999Z</time></trkpt><trkpt lat="44.52559647155103" lon="10.607651202158936"><ele>537.0</ele><time>2026-04-18T11:03:20.999Z</time></trkpt><trkpt lat="44.525660340202826" lon="10.607682180314638"><ele>537.0</ele><time>2026-04-18T11:03:21.999Z</time></trkpt><trkpt lat="44.52575981276492" lon="10.607726424632514"><ele>537.0</ele><time>2026-04-18T11:03:23.999Z</time></trkpt><trkpt lat="44.52585352611418" lon="10.60776711466792"><ele>537.0</ele><time>2026-04-18T11:03:25.999Z</time></trkpt><trkpt lat="44.525915366204394" lon="10.607791121599762"><ele>537.0</ele><time>2026-04-18T11:03:26.999Z</time></trkpt><trkpt lat="44.52597681767479" lon="10.607820395987591"><ele>537.0</ele><time>2026-04-18T11:03:27.999Z</time></trkpt><trkpt lat="44.52608629314418" lon="10.607876618722344"><ele>537.0</ele><time>2026-04-18T11:03:29.999Z</time></trkpt><trkpt lat="44.526213764051114" lon="10.607913544674279"><ele>533.3333333333334</ele><time>2026-04-18T11:03:31.999Z</time></trkpt><trkpt lat="44.526288416064155" lon="10.607940747406227"><ele>529.6666666666666</ele><time>2026-04-18T11:03:32.999Z</time></trkpt><trkpt lat="44.52636982282365" lon="10.608046628918672"><ele>526.0</ele><time>2026-04-18T11:03:34.999Z</time></trkpt><trkpt lat="44.52644085791784" lon="10.608098755887449"><ele>522.3333333333333</ele><time>2026-04-18T11:03:35.999Z</time></trkpt><trkpt lat="44.526537087911436" lon="10.608089869954725"><ele>518.6666666666666</ele><time>2026-04-18T11:03:37.999Z</time></trkpt><trkpt lat="44.52660185597464" lon="10.608134884140041"><ele>515.0</ele><time>2026-04-18T11:03:39.999Z</time></trkpt><trkpt lat="44.526652541505236" lon="10.608202059430853"><ele>515.0</ele><time>2026-04-18T11:03:40.999Z</time></trkpt><trkpt lat="44.52671405941758" lon="10.608264529480572"><ele>515.0</ele><time>2026-04-18T11:03:41.999Z</time></trkpt><trkpt lat="44.526767980887" lon="10.60832311190429"><ele>515.0</ele><time>2026-04-18T11:03:42.999Z</time></trkpt><trkpt lat="44.5268308174078" lon="10.608412928079417"><ele>515.0</ele><time>2026-04-18T11:03:43.999Z</time></trkpt><trkpt lat="44.52690246057549" lon="10.608472100775481"><ele>515.0</ele><time>2026-04-18T11:03:44.999Z</time></trkpt><trkpt lat="44.52700201021065" lon="10.608570689933593"><ele>515.0</ele><time>2026-04-18T11:03:46.999Z</time></trkpt><trkpt lat="44.527084174608476" lon="10.608680355137517"><ele>511.2</ele><time>2026-04-18T11:03:48.999Z</time></trkpt><trkpt lat="44.52711503818386" lon="10.60878129086634"><ele>507.4</ele><time>2026-04-18T11:03:51.999Z</time></trkpt><trkpt lat="44.52706100005834" lon="10.60888921520198"><ele>503.6</ele><time>2026-04-18T11:03:53.999Z</time></trkpt><trkpt lat="44.52698810268871" lon="10.608903462235867"><ele>499.8</ele><time>2026-04-18T11:03:55.999Z</time></trkpt><trkpt lat="44.52688295173494" lon="10.608878543840284"><ele>496.0</ele><time>2026-04-18T11:03:57.999Z</time></trkpt><trkpt lat="44.526783232525005" lon="10.60886778313562"><ele>496.0</ele><time>2026-04-18T11:03:59.999Z</time></trkpt><trkpt lat="44.526672947218806" lon="10.608874615355472"><ele>496.0</ele><time>2026-04-18T11:04:01.999Z</time></trkpt><trkpt lat="44.52658879354667" lon="10.608859357605143"><ele>496.0</ele><time>2026-04-18T11:04:03.999Z</time></trkpt><trkpt lat="44.52652406582878" lon="10.608821683527117"><ele>496.0</ele><time>2026-04-18T11:04:04.999Z</time></trkpt><trkpt lat="44.52642070700705" lon="10.608806200714803"><ele>496.0</ele><time>2026-04-18T11:04:07Z</time></trkpt><trkpt lat="44.52633829482111" lon="10.608875056898748"><ele>496.00000000000006</ele><time>2026-04-18T11:04:09Z</time></trkpt><trkpt lat="44.52626052668695" lon="10.608963068281266"><ele>496.0</ele><time>2026-04-18T11:04:11Z</time></trkpt><trkpt lat="44.52615821344169" lon="10.609037806401101"><ele>496.0</ele><time>2026-04-18T11:04:13Z</time></trkpt><trkpt lat="44.526088799888235" lon="10.609045914820744"><ele>496.0</ele><time>2026-04-18T11:04:14Z</time></trkpt><trkpt lat="44.52600187613927" lon="10.609071036425963"><ele>496.00000000000006</ele><time>2026-04-18T11:04:16Z</time></trkpt><trkpt lat="44.52595024671529" lon="10.609127057691435"><ele>496.0</ele><time>2026-04-18T11:04:17Z</time></trkpt><trkpt lat="44.5258614993593" lon="10.609188514282522"><ele>496.20000000000005</ele><time>2026-04-18T11:04:19Z</time></trkpt><trkpt lat="44.525744558752976" lon="10.60922155679706"><ele>496.40000000000003</ele><time>2026-04-18T11:04:21Z</time></trkpt><trkpt lat="44.52563020629925" lon="10.60926987710179"><ele>496.6</ele><time>2026-04-18T11:04:23Z</time></trkpt><trkpt lat="44.525531925745184" lon="10.609350940197825"><ele>496.8</ele><time>2026-04-18T11:04:25Z</time></trkpt><trkpt lat="44.52550246234239" lon="10.60942905880051"><ele>497.0</ele><time>2026-04-18T11:04:26Z</time></trkpt><trkpt lat="44.52542712196368" lon="10.60951040091414"><ele>493.5</ele><time>2026-04-18T11:04:28Z</time></trkpt><trkpt lat="44.52534225077872" lon="10.609655104757513"><ele>490.0</ele><time>2026-04-18T11:04:30Z</time></trkpt><trkpt lat="44.525283967836565" lon="10.609781022980872"><ele>486.5</ele><time>2026-04-18T11:04:32Z</time></trkpt><trkpt lat="44.52518419161108" lon="10.61000293335698"><ele>483.0</ele><time>2026-04-18T11:04:34Z</time></trkpt><trkpt lat="44.5251441253745" lon="10.610091004945621"><ele>483.0</ele><time>2026-04-18T11:04:35Z</time></trkpt><trkpt lat="44.525086062232745" lon="10.610250771137103"><ele>482.99999999999994</ele><time>2026-04-18T11:04:37Z</time></trkpt><trkpt lat="44.52501560818301" lon="10.61038415983646"><ele>482.99999999999994</ele><time>2026-04-18T11:04:39Z</time></trkpt><trkpt lat="44.52494187202708" lon="10.610464700128386"><ele>483.0</ele><time>2026-04-18T11:04:41Z</time></trkpt><trkpt lat="44.52487621631306" lon="10.610469192971648"><ele>483.0</ele><time>2026-04-18T11:04:42Z</time></trkpt><trkpt lat="44.52482942158016" lon="10.610556187615835"><ele>478.59999999999997</ele><time>2026-04-18T11:04:44Z</time></trkpt><trkpt lat="44.52488413918448" lon="10.610703506137446"><ele>474.19999999999993</ele><time>2026-04-18T11:04:46Z</time></trkpt><trkpt lat="44.52490463938885" lon="10.6108088467714"><ele>469.8</ele><time>2026-04-18T11:04:48Z</time></trkpt><trkpt lat="44.524890120617954" lon="10.61092859780748"><ele>465.4</ele><time>2026-04-18T11:04:49Z</time></trkpt><trkpt lat="44.52487378470169" lon="10.611019685305553"><ele>461.0</ele><time>2026-04-18T11:04:50Z</time></trkpt><trkpt lat="44.52483114556063" lon="10.611149901723332"><ele>461.0</ele><time>2026-04-18T11:04:52Z</time></trkpt><trkpt lat="44.52475445409674" lon="10.611286437409"><ele>461.0</ele><time>2026-04-18T11:04:54Z</time></trkpt><trkpt lat="44.52468300446263" lon="10.611382628768599"><ele>461.0</ele><time>2026-04-18T11:04:56Z</time></trkpt><trkpt lat="44.52463179852857" lon="10.61143402370958"><ele>461.0</ele><time>2026-04-18T11:04:58Z</time></trkpt><trkpt lat="44.524517354676135" lon="10.611486425750435"><ele>461.0</ele><time>2026-04-18T11:05:00Z</time></trkpt><trkpt lat="44.5244322332908" lon="10.611498993128162"><ele>461.0</ele><time>2026-04-18T11:05:01Z</time></trkpt><trkpt lat="44.5243403476389" lon="10.611525805098184"><ele>461.0</ele><time>2026-04-18T11:05:02Z</time></trkpt><trkpt lat="44.5242543667207" lon="10.611556811044872"><ele>461.0</ele><time>2026-04-18T11:05:03Z</time></trkpt><trkpt lat="44.52418943793923" lon="10.611555907603742"><ele>461.0</ele><time>2026-04-18T11:05:04Z</time></trkpt><trkpt lat="44.524073869972746" lon="10.6115696861164"><ele>461.0</ele><time>2026-04-18T11:05:06Z</time></trkpt><trkpt lat="44.52398663000393" lon="10.611666880050258"><ele>461.0</ele><time>2026-04-18T11:05:07Z</time></trkpt><trkpt lat="44.5239054084412" lon="10.611701146163558"><ele>461.0</ele><time>2026-04-18T11:05:08Z</time></trkpt><trkpt lat="44.523812612503825" lon="10.611708913946266"><ele>461.0</ele><time>2026-04-18T11:05:09Z</time></trkpt><trkpt lat="44.52370711586991" lon="10.611707960956823"><ele>461.0</ele><time>2026-04-18T11:05:10Z</time></trkpt><trkpt lat="44.523622098683546" lon="10.611700137825089"><ele>461.0</ele><time>2026-04-18T11:05:11Z</time></trkpt><trkpt lat="44.52352275354202" lon="10.611695545768553"><ele>463.4</ele><time>2026-04-18T11:05:12Z</time></trkpt><trkpt lat="44.523397079706605" lon="10.611684601935245"><ele>465.8</ele><time>2026-04-18T11:05:13Z</time></trkpt><trkpt lat="44.52328793175996" lon="10.611684539061988"><ele>468.19999999999993</ele><time>2026-04-18T11:05:14Z</time></trkpt><trkpt lat="44.523205025300584" lon="10.611705691544273"><ele>470.59999999999997</ele><time>2026-04-18T11:05:15Z</time></trkpt><trkpt lat="44.523143107454395" lon="10.611759614792401"><ele>473.0</ele><time>2026-04-18T11:05:16Z</time></trkpt><trkpt lat="44.52306068648345" lon="10.611787477823972"><ele>473.0</ele><time>2026-04-18T11:05:17Z</time></trkpt><trkpt lat="44.522985504250855" lon="10.61177525676443"><ele>472.99999999999994</ele><time>2026-04-18T11:05:18Z</time></trkpt><trkpt lat="44.522872642181405" lon="10.611785697636071"><ele>472.99999999999994</ele><time>2026-04-18T11:05:19Z</time></trkpt><trkpt lat="44.52279341990989" lon="10.611809525494612"><ele>473.0</ele><time>2026-04-18T11:05:20Z</time></trkpt><trkpt lat="44.5227202140103" lon="10.61184463555871"><ele>473.0</ele><time>2026-04-18T11:05:21Z</time></trkpt><trkpt lat="44.5226082450816" lon="10.611820778496327"><ele>472.49999999999994</ele><time>2026-04-18T11:05:23Z</time></trkpt><trkpt lat="44.52253593324045" lon="10.611811578155184"><ele>472.0</ele><time>2026-04-18T11:05:24Z</time></trkpt><trkpt lat="44.52244296938639" lon="10.61174112595818"><ele>471.5</ele><time>2026-04-18T11:05:26Z</time></trkpt><trkpt lat="44.52235715059963" lon="10.61171208765486"><ele>471.0</ele><time>2026-04-18T11:05:28Z</time></trkpt><trkpt lat="44.52231423110038" lon="10.611783619738278"><ele>470.49999999999994</ele><time>2026-04-18T11:05:29Z</time></trkpt><trkpt lat="44.522258104737254" lon="10.611863059477477"><ele>470.0</ele><time>2026-04-18T11:05:30Z</time></trkpt><trkpt lat="44.52215232056657" lon="10.611873178441192"><ele>469.99999999999994</ele><time>2026-04-18T11:05:32Z</time></trkpt><trkpt lat="44.52206782141387" lon="10.611893036771558"><ele>470.0</ele><time>2026-04-18T11:05:34Z</time></trkpt><trkpt lat="44.52200046218703" lon="10.611916209057526"><ele>470.0</ele><time>2026-04-18T11:05:35Z</time></trkpt><trkpt lat="44.521875977229634" lon="10.61190297537741"><ele>470.0</ele><time>2026-04-18T11:05:36.999Z</time></trkpt><trkpt lat="44.52181310918384" lon="10.61187489320644"><ele>469.99999999999994</ele><time>2026-04-18T11:05:37.999Z</time></trkpt><trkpt lat="44.52175434301115" lon="10.611839383900596"><ele>470.0</ele><time>2026-04-18T11:05:38.999Z</time></trkpt><trkpt lat="44.52169874708131" lon="10.611779948597754"><ele>467.99999999999994</ele><time>2026-04-18T11:05:39.999Z</time></trkpt><trkpt lat="44.521648136761385" lon="10.611703028336933"><ele>466.0</ele><time>2026-04-18T11:05:40.999Z</time></trkpt><trkpt lat="44.521605176350114" lon="10.611629217972387"><ele>464.0</ele><time>2026-04-18T11:05:41.999Z</time></trkpt><trkpt lat="44.52151771832059" lon="10.611534056738783"><ele>462.0</ele><time>2026-04-18T11:05:43.999Z</time></trkpt><trkpt lat="44.52145442423351" lon="10.611517551289243"><ele>459.99999999999994</ele><time>2026-04-18T11:05:44.999Z</time></trkpt><trkpt lat="44.52138860462295" lon="10.611504448923549"><ele>458.0</ele><time>2026-04-18T11:05:45.999Z</time></trkpt><trkpt lat="44.521288073736955" lon="10.611594511727288"><ele>457.79999999999995</ele><time>2026-04-18T11:05:47.999Z</time></trkpt><trkpt lat="44.52120811922232" lon="10.61166245671086"><ele>457.59999999999997</ele><time>2026-04-18T11:05:48.999Z</time></trkpt><trkpt lat="44.52107436301638" lon="10.611642707148508"><ele>457.40000000000003</ele><time>2026-04-18T11:05:50.999Z</time></trkpt><trkpt lat="44.52098540040779" lon="10.611562038401178"><ele>457.20000000000005</ele><time>2026-04-18T11:05:51.999Z</time></trkpt><trkpt lat="44.52090016694388" lon="10.611539828067215"><ele>457.0</ele><time>2026-04-18T11:05:52.999Z</time></trkpt><trkpt lat="44.52082552698438" lon="10.611549533264418"><ele>457.00000000000006</ele><time>2026-04-18T11:05:53.999Z</time></trkpt><trkpt lat="44.52075747701705" lon="10.61154458875192"><ele>457.0</ele><time>2026-04-18T11:05:54.999Z</time></trkpt><trkpt lat="44.52066506096081" lon="10.61146339153212"><ele>457.0</ele><time>2026-04-18T11:05:56.999Z</time></trkpt><trkpt lat="44.520614558660455" lon="10.611374699258617"><ele>457.0</ele><time>2026-04-18T11:05:57.999Z</time></trkpt><trkpt lat="44.520548861586384" lon="10.61127280339167"><ele>457.00000000000006</ele><time>2026-04-18T11:05:58.999Z</time></trkpt><trkpt lat="44.52049387769187" lon="10.611222532796964"><ele>457.0</ele><time>2026-04-18T11:05:59.999Z</time></trkpt><trkpt lat="44.52039781995907" lon="10.611226732578821"><ele>456.40000000000003</ele><time>2026-04-18T11:06:01.999Z</time></trkpt><trkpt lat="44.520336295162956" lon="10.611261717526338"><ele>455.80000000000007</ele><time>2026-04-18T11:06:02.999Z</time></trkpt><trkpt lat="44.520274387120594" lon="10.611328834143363"><ele>455.2</ele><time>2026-04-18T11:06:03.999Z</time></trkpt><trkpt lat="44.52021000338162" lon="10.611406723253994"><ele>454.6</ele><time>2026-04-18T11:06:04.999Z</time></trkpt><trkpt lat="44.52013056527967" lon="10.611502725678204"><ele>454.0</ele><time>2026-04-18T11:06:05.999Z</time></trkpt><trkpt lat="44.52003584172155" lon="10.61160402895848"><ele>454.0</ele><time>2026-04-18T11:06:06.999Z</time></trkpt><trkpt lat="44.519935566354185" lon="10.611680199188287"><ele>454.0</ele><time>2026-04-18T11:06:07.999Z</time></trkpt><trkpt lat="44.51983677402103" lon="10.611769141497419"><ele>454.0</ele><time>2026-04-18T11:06:08.999Z</time></trkpt><trkpt lat="44.51975468776256" lon="10.611876069534286"><ele>454.0</ele><time>2026-04-18T11:06:09.999Z</time></trkpt><trkpt lat="44.51969419172678" lon="10.612012780296107"><ele>453.75</ele><time>2026-04-18T11:06:10.999Z</time></trkpt><trkpt lat="44.519627021507105" lon="10.612135064957531"><ele>453.5</ele><time>2026-04-18T11:06:12Z</time></trkpt><trkpt lat="44.51957049142416" lon="10.612268178577303"><ele>453.25</ele><time>2026-04-18T11:06:13Z</time></trkpt><trkpt lat="44.51951768136583" lon="10.612411250358825"><ele>453.0</ele><time>2026-04-18T11:06:14Z</time></trkpt><trkpt lat="44.51946100908754" lon="10.612554626004563"><ele>453.0</ele><time>2026-04-18T11:06:15Z</time></trkpt><trkpt lat="44.51940154153677" lon="10.612695478827188"><ele>453.0</ele><time>2026-04-18T11:06:16Z</time></trkpt><trkpt lat="44.519341567395635" lon="10.612837325228128"><ele>453.0</ele><time>2026-04-18T11:06:17Z</time></trkpt><trkpt lat="44.519281974526905" lon="10.612985754234849"><ele>453.0</ele><time>2026-04-18T11:06:18Z</time></trkpt><trkpt lat="44.51920749622186" lon="10.613116814177422"><ele>454.5</ele><time>2026-04-18T11:06:19Z</time></trkpt><trkpt lat="44.519138163361326" lon="10.61325283523315"><ele>456.0</ele><time>2026-04-18T11:06:20Z</time></trkpt><trkpt lat="44.519079600897705" lon="10.613390662294039"><ele>457.5</ele><time>2026-04-18T11:06:21Z</time></trkpt><trkpt lat="44.518982260950104" lon="10.613474257701958"><ele>459.0</ele><time>2026-04-18T11:06:22Z</time></trkpt><trkpt lat="44.5188844445153" lon="10.61356047363872"><ele>459.0</ele><time>2026-04-18T11:06:23Z</time></trkpt><trkpt lat="44.5187790200435" lon="10.613640358156033"><ele>459.0</ele><time>2026-04-18T11:06:24Z</time></trkpt><trkpt lat="44.51864992819463" lon="10.613636333695123"><ele>459.0</ele><time>2026-04-18T11:06:25Z</time></trkpt><trkpt lat="44.51852679009882" lon="10.613636822814703"><ele>459.0</ele><time>2026-04-18T11:06:26Z</time></trkpt><trkpt lat="44.51838885532601" lon="10.613638544699617"><ele>459.25</ele><time>2026-04-18T11:06:27Z</time></trkpt><trkpt lat="44.51826099087358" lon="10.613646313611719"><ele>459.5</ele><time>2026-04-18T11:06:28Z</time></trkpt><trkpt lat="44.51814061110639" lon="10.613658046357655"><ele>459.75</ele><time>2026-04-18T11:06:29Z</time></trkpt><trkpt lat="44.51801763294638" lon="10.61367843673786"><ele>460.0</ele><time>2026-04-18T11:06:30Z</time></trkpt><trkpt lat="44.517899744569185" lon="10.613712022052054"><ele>462.0</ele><time>2026-04-18T11:06:31Z</time></trkpt><trkpt lat="44.51778065469244" lon="10.61376793814083"><ele>464.0</ele><time>2026-04-18T11:06:32Z</time></trkpt><trkpt lat="44.5176603962206" lon="10.613847895495605"><ele>466.0</ele><time>2026-04-18T11:06:33Z</time></trkpt><trkpt lat="44.5175234457652" lon="10.613944110546202"><ele>468.0</ele><time>2026-04-18T11:06:34Z</time></trkpt><trkpt lat="44.517396446032706" lon="10.614058250098346"><ele>468.0</ele><time>2026-04-18T11:06:35Z</time></trkpt><trkpt lat="44.51726502081012" lon="10.614155640465754"><ele>468.0</ele><time>2026-04-18T11:06:36Z</time></trkpt><trkpt lat="44.51711729263257" lon="10.614232204620377"><ele>468.0</ele><time>2026-04-18T11:06:37Z</time></trkpt><trkpt lat="44.51696343043713" lon="10.614263450238354"><ele>466.0</ele><time>2026-04-18T11:06:38Z</time></trkpt><trkpt lat="44.516822071376495" lon="10.614279546142054"><ele>464.0</ele><time>2026-04-18T11:06:39Z</time></trkpt><trkpt lat="44.5166666523763" lon="10.614260317466757"><ele>462.0</ele><time>2026-04-18T11:06:40Z</time></trkpt><trkpt lat="44.5165149638168" lon="10.614220386311853"><ele>462.0</ele><time>2026-04-18T11:06:41Z</time></trkpt><trkpt lat="44.51635157578002" lon="10.614166855691082"><ele>462.0</ele><time>2026-04-18T11:06:42Z</time></trkpt><trkpt lat="44.51618662354814" lon="10.614125290811746"><ele>462.0</ele><time>2026-04-18T11:06:43Z</time></trkpt><trkpt lat="44.51602936660376" lon="10.614055048436732"><ele>462.75</ele><time>2026-04-18T11:06:44Z</time></trkpt><trkpt lat="44.515874728513744" lon="10.613995846308567"><ele>463.5</ele><time>2026-04-18T11:06:45Z</time></trkpt><trkpt lat="44.515746004214115" lon="10.61394858725746"><ele>464.25</ele><time>2026-04-18T11:06:46Z</time></trkpt><trkpt lat="44.51562294726997" lon="10.613902755436738"><ele>465.0</ele><time>2026-04-18T11:06:47Z</time></trkpt><trkpt lat="44.51551635994502" lon="10.613858658610324"><ele>465.0</ele><time>2026-04-18T11:06:48Z</time></trkpt><trkpt lat="44.51542458986262" lon="10.613830515100492"><ele>465.0</ele><time>2026-04-18T11:06:49Z</time></trkpt><trkpt lat="44.51533526943681" lon="10.613790623879362"><ele>465.0</ele><time>2026-04-18T11:06:50Z</time></trkpt><trkpt lat="44.51525209917501" lon="10.613773329013847"><ele>465.0</ele><time>2026-04-18T11:06:51Z</time></trkpt><trkpt lat="44.515181458711176" lon="10.613783522122938"><ele>465.0</ele><time>2026-04-18T11:06:52Z</time></trkpt><trkpt lat="44.51511828370844" lon="10.613762336228628"><ele>465.0</ele><time>2026-04-18T11:06:53Z</time></trkpt><trkpt lat="44.51504593164597" lon="10.61372440536791"><ele>466.0</ele><time>2026-04-18T11:06:55Z</time></trkpt><trkpt lat="44.514951189091136" lon="10.61368654682301"><ele>467.0</ele><time>2026-04-18T11:06:58Z</time></trkpt><trkpt lat="44.51492852529747" lon="10.613367748672143"><ele>468.0</ele><time>2026-04-18T11:06:59Z</time></trkpt><trkpt lat="44.514920992461306" lon="10.613238303574581"><ele>469.0</ele><time>2026-04-18T11:07:00Z</time></trkpt><trkpt lat="44.51494360259505" lon="10.613096827059849"><ele>469.0</ele><time>2026-04-18T11:07:01Z</time></trkpt><trkpt lat="44.514985552542306" lon="10.612962298630055"><ele>469.0</ele><time>2026-04-18T11:07:02Z</time></trkpt><trkpt lat="44.51500187347833" lon="10.612822095188747"><ele>469.0</ele><time>2026-04-18T11:07:03Z</time></trkpt><trkpt lat="44.51500616119379" lon="10.612691227947478"><ele>469.0</ele><time>2026-04-18T11:07:04Z</time></trkpt><trkpt lat="44.515002185321606" lon="10.61255284368576"><ele>469.0</ele><time>2026-04-18T11:07:05Z</time></trkpt><trkpt lat="44.514989954173515" lon="10.612451003363907"><ele>469.0</ele><time>2026-04-18T11:07:06Z</time></trkpt><trkpt lat="44.51498228061769" lon="10.612351262278786"><ele>469.0</ele><time>2026-04-18T11:07:07Z</time></trkpt><trkpt lat="44.515000237440205" lon="10.612205950242464"><ele>469.0</ele><time>2026-04-18T11:07:08Z</time></trkpt><trkpt lat="44.51501698888654" lon="10.61204826350439"><ele>469.0</ele><time>2026-04-18T11:07:09Z</time></trkpt><trkpt lat="44.51503405935708" lon="10.611909912556547"><ele>469.0</ele><time>2026-04-18T11:07:10Z</time></trkpt><trkpt lat="44.51504761664673" lon="10.611780063052036"><ele>469.4</ele><time>2026-04-18T11:07:11Z</time></trkpt><trkpt lat="44.51505485624249" lon="10.611660505965824"><ele>469.79999999999995</ele><time>2026-04-18T11:07:12Z</time></trkpt><trkpt lat="44.515069259385456" lon="10.611497659142868"><ele>470.20000000000005</ele><time>2026-04-18T11:07:14Z</time></trkpt><trkpt lat="44.515084256999934" lon="10.611335622258611"><ele>470.6</ele><time>2026-04-18T11:07:16Z</time></trkpt><trkpt lat="44.515088873795015" lon="10.611238846730942"><ele>471.0</ele><time>2026-04-18T11:07:17Z</time></trkpt><trkpt lat="44.51504802770368" lon="10.611116522464595"><ele>470.0</ele><time>2026-04-18T11:07:19Z</time></trkpt><trkpt lat="44.51498149148429" lon="10.611077751722693"><ele>469.0</ele><time>2026-04-18T11:07:20Z</time></trkpt><trkpt lat="44.5148866588075" lon="10.611031110811687"><ele>468.0</ele><time>2026-04-18T11:07:21Z</time></trkpt><trkpt lat="44.514792420658374" lon="10.610976031553937"><ele>467.0</ele><time>2026-04-18T11:07:22Z</time></trkpt><trkpt lat="44.51471798582803" lon="10.610951468071313"><ele>466.0</ele><time>2026-04-18T11:07:23Z</time></trkpt><trkpt lat="44.51464838977484" lon="10.6109341455893"><ele>465.0</ele><time>2026-04-18T11:07:24Z</time></trkpt><trkpt lat="44.51453520534398" lon="10.610848146883118"><ele>468.0</ele><time>2026-04-18T11:07:26Z</time></trkpt><trkpt lat="44.51448534665976" lon="10.610755011627559"><ele>471.0</ele><time>2026-04-18T11:07:27Z</time></trkpt><trkpt lat="44.51444318149365" lon="10.61065148188632"><ele>474.0</ele><time>2026-04-18T11:07:28Z</time></trkpt><trkpt lat="44.51440121032478" lon="10.61051690795281"><ele>477.0</ele><time>2026-04-18T11:07:29Z</time></trkpt><trkpt lat="44.51435194604245" lon="10.61039992477172"><ele>480.0</ele><time>2026-04-18T11:07:30Z</time></trkpt><trkpt lat="44.51428200421795" lon="10.610281880057942"><ele>480.0</ele><time>2026-04-18T11:07:31Z</time></trkpt><trkpt lat="44.51420627038736" lon="10.610152973736716"><ele>480.0</ele><time>2026-04-18T11:07:32Z</time></trkpt><trkpt lat="44.51410057248768" lon="10.61006435951865"><ele>480.0</ele><time>2026-04-18T11:07:34Z</time></trkpt><trkpt lat="44.51402605771028" lon="10.609904171028766"><ele>480.0</ele><time>2026-04-18T11:07:36Z</time></trkpt><trkpt lat="44.513977304696134" lon="10.609817679238045"><ele>480.0</ele><time>2026-04-18T11:07:37Z</time></trkpt><trkpt lat="44.51392744760487" lon="10.609714966489543"><ele>480.0</ele><time>2026-04-18T11:07:38Z</time></trkpt><trkpt lat="44.51389591490358" lon="10.609623428948266"><ele>480.0</ele><time>2026-04-18T11:07:39Z</time></trkpt><trkpt lat="44.51385464952233" lon="10.60953329201729"><ele>480.0</ele><time>2026-04-18T11:07:40Z</time></trkpt><trkpt lat="44.51381020858042" lon="10.6094642523028"><ele>480.0</ele><time>2026-04-18T11:07:41Z</time></trkpt><trkpt lat="44.51375494396932" lon="10.609388068831597"><ele>480.0</ele><time>2026-04-18T11:07:42Z</time></trkpt><trkpt lat="44.513698778117266" lon="10.609341638198957"><ele>480.0</ele><time>2026-04-18T11:07:43Z</time></trkpt><trkpt lat="44.513625807292854" lon="10.609278306579784"><ele>480.2</ele><time>2026-04-18T11:07:44Z</time></trkpt><trkpt lat="44.51351962420814" lon="10.609209564390039"><ele>480.4</ele><time>2026-04-18T11:07:46Z</time></trkpt><trkpt lat="44.513455171483116" lon="10.609184560426593"><ele>480.6</ele><time>2026-04-18T11:07:47Z</time></trkpt><trkpt lat="44.51332507703422" lon="10.609165557659788"><ele>480.8</ele><time>2026-04-18T11:07:49Z</time></trkpt><trkpt lat="44.513253364338965" lon="10.609177858819654"><ele>481.0</ele><time>2026-04-18T11:07:50Z</time></trkpt><trkpt lat="44.51315355864339" lon="10.609118600078522"><ele>481.0</ele><time>2026-04-18T11:07:52Z</time></trkpt><trkpt lat="44.513078486949084" lon="10.609004877550012"><ele>481.0</ele><time>2026-04-18T11:07:54Z</time></trkpt><trkpt lat="44.51306721963018" lon="10.60891770701494"><ele>481.0</ele><time>2026-04-18T11:07:55Z</time></trkpt><trkpt lat="44.51304241005357" lon="10.608776221827721"><ele>481.0</ele><time>2026-04-18T11:07:56Z</time></trkpt><trkpt lat="44.513030882067184" lon="10.608635257390649"><ele>481.0</ele><time>2026-04-18T11:07:57Z</time></trkpt><trkpt lat="44.51300553283626" lon="10.608530950071907"><ele>482.00000000000006</ele><time>2026-04-18T11:07:58Z</time></trkpt><trkpt lat="44.51295872697398" lon="10.608425141296799"><ele>483.0</ele><time>2026-04-18T11:07:59Z</time></trkpt><trkpt lat="44.512907823762845" lon="10.60833722917575"><ele>484.0</ele><time>2026-04-18T11:08:00Z</time></trkpt><trkpt lat="44.51285523096076" lon="10.608274033061177"><ele>485.0</ele><time>2026-04-18T11:08:00.999Z</time></trkpt><trkpt lat="44.51280362862233" lon="10.608200452301965"><ele>486.00000000000006</ele><time>2026-04-18T11:08:02.999Z</time></trkpt><trkpt lat="44.51272879084829" lon="10.608055415640038"><ele>487.0</ele><time>2026-04-18T11:08:04.999Z</time></trkpt><trkpt lat="44.512680671059485" lon="10.607961495649786"><ele>487.0</ele><time>2026-04-18T11:08:05.999Z</time></trkpt><trkpt lat="44.51263535214167" lon="10.607896837852593"><ele>487.0</ele><time>2026-04-18T11:08:06.999Z</time></trkpt><trkpt lat="44.51260362773547" lon="10.607656505064142"><ele>487.0</ele><time>2026-04-18T11:08:07.999Z</time></trkpt><trkpt lat="44.51258148927876" lon="10.607504367714263"><ele>487.0</ele><time>2026-04-18T11:08:08.999Z</time></trkpt><trkpt lat="44.51256849699739" lon="10.607355986209958"><ele>485.33333333333337</ele><time>2026-04-18T11:08:09.999Z</time></trkpt><trkpt lat="44.512548971731356" lon="10.607224434339116"><ele>483.6666666666667</ele><time>2026-04-18T11:08:10.999Z</time></trkpt><trkpt lat="44.51251210780281" lon="10.60710322975886"><ele>482.0</ele><time>2026-04-18T11:08:11.999Z</time></trkpt><trkpt lat="44.512474539525726" lon="10.607011256085219"><ele>480.33333333333337</ele><time>2026-04-18T11:08:12.999Z</time></trkpt><trkpt lat="44.51242546956892" lon="10.606937345086877"><ele>478.6666666666667</ele><time>2026-04-18T11:08:13.999Z</time></trkpt><trkpt lat="44.51236319314804" lon="10.606829499552507"><ele>477.0</ele><time>2026-04-18T11:08:14.999Z</time></trkpt><trkpt lat="44.51229070563241" lon="10.606742933941199"><ele>478.1666666666667</ele><time>2026-04-18T11:08:15.999Z</time></trkpt><trkpt lat="44.512229799846324" lon="10.606661585649105"><ele>479.33333333333337</ele><time>2026-04-18T11:08:17Z</time></trkpt><trkpt lat="44.51217034655225" lon="10.606569768528672"><ele>480.5</ele><time>2026-04-18T11:08:18Z</time></trkpt><trkpt lat="44.51211239502592" lon="10.606498695965282"><ele>481.6666666666667</ele><time>2026-04-18T11:08:19Z</time></trkpt><trkpt lat="44.51206815036607" lon="10.606395131727409"><ele>482.83333333333337</ele><time>2026-04-18T11:08:20Z</time></trkpt><trkpt lat="44.51201913776098" lon="10.606288932336927"><ele>484.0</ele><time>2026-04-18T11:08:21Z</time></trkpt><trkpt lat="44.51197453883707" lon="10.606181492977413"><ele>482.33333333333337</ele><time>2026-04-18T11:08:22Z</time></trkpt><trkpt lat="44.51194158666843" lon="10.606096406443335"><ele>480.6666666666667</ele><time>2026-04-18T11:08:23Z</time></trkpt><trkpt lat="44.51190057541581" lon="10.606011188693723"><ele>479.0</ele><time>2026-04-18T11:08:24Z</time></trkpt><trkpt lat="44.51185414034241" lon="10.605913217771754"><ele>477.33333333333337</ele><time>2026-04-18T11:08:25Z</time></trkpt><trkpt lat="44.5117853227126" lon="10.605806499424748"><ele>475.6666666666667</ele><time>2026-04-18T11:08:26Z</time></trkpt><trkpt lat="44.51171532467354" lon="10.605699774592301"><ele>474.0</ele><time>2026-04-18T11:08:27Z</time></trkpt><trkpt lat="44.5116591482488" lon="10.60557742766207"><ele>474.0</ele><time>2026-04-18T11:08:28Z</time></trkpt><trkpt lat="44.51160031863871" lon="10.605448857722688"><ele>474.0</ele><time>2026-04-18T11:08:29Z</time></trkpt><trkpt lat="44.51156407500214" lon="10.605332572301972"><ele>474.0</ele><time>2026-04-18T11:08:30Z</time></trkpt><trkpt lat="44.51154719799731" lon="10.605238056029213"><ele>474.0</ele><time>2026-04-18T11:08:31Z</time></trkpt><trkpt lat="44.51155417087258" lon="10.605134442228838"><ele>474.0</ele><time>2026-04-18T11:08:32Z</time></trkpt><trkpt lat="44.511565432054105" lon="10.605018877409078"><ele>474.0</ele><time>2026-04-18T11:08:33Z</time></trkpt><trkpt lat="44.5115733000741" lon="10.60490179889353"><ele>473.2</ele><time>2026-04-18T11:08:34Z</time></trkpt><trkpt lat="44.51154088356973" lon="10.604755098434554"><ele>472.4</ele><time>2026-04-18T11:08:36Z</time></trkpt><trkpt lat="44.511462500951495" lon="10.604608039660254"><ele>471.6</ele><time>2026-04-18T11:08:38Z</time></trkpt><trkpt lat="44.51140899814901" lon="10.604477824404656"><ele>470.8</ele><time>2026-04-18T11:08:39Z</time></trkpt><trkpt lat="44.5113773706293" lon="10.604349832595755"><ele>470.0</ele><time>2026-04-18T11:08:40Z</time></trkpt><trkpt lat="44.51138642197395" lon="10.604218399094604"><ele>469.66666666666663</ele><time>2026-04-18T11:08:41Z</time></trkpt><trkpt lat="44.511393805306355" lon="10.604076197969801"><ele>469.3333333333333</ele><time>2026-04-18T11:08:43Z</time></trkpt><trkpt lat="44.511318253491204" lon="10.603991997468102"><ele>469.0</ele><time>2026-04-18T11:08:45Z</time></trkpt><trkpt lat="44.51126135520201" lon="10.603930975760756"><ele>468.66666666666663</ele><time>2026-04-18T11:08:46Z</time></trkpt><trkpt lat="44.51120909241945" lon="10.603838079370034"><ele>468.3333333333333</ele><time>2026-04-18T11:08:47Z</time></trkpt><trkpt lat="44.511170095517826" lon="10.603733005175034"><ele>468.0</ele><time>2026-04-18T11:08:48Z</time></trkpt><trkpt lat="44.511146320766265" lon="10.60362922449505"><ele>467.4</ele><time>2026-04-18T11:08:49Z</time></trkpt><trkpt lat="44.51111203978655" lon="10.603511267263915"><ele>466.79999999999995</ele><time>2026-04-18T11:08:50Z</time></trkpt><trkpt lat="44.51107812632092" lon="10.603414714576646"><ele>466.2</ele><time>2026-04-18T11:08:51Z</time></trkpt><trkpt lat="44.51104641635978" lon="10.603329902554771"><ele>465.6</ele><time>2026-04-18T11:08:52Z</time></trkpt><trkpt lat="44.51098677893171" lon="10.603206168077838"><ele>465.0</ele><time>2026-04-18T11:08:54Z</time></trkpt><trkpt lat="44.51086223821651" lon="10.60302852099412"><ele>465.0</ele><time>2026-04-18T11:08:56Z</time></trkpt><trkpt lat="44.51080661080211" lon="10.602923956461519"><ele>465.0</ele><time>2026-04-18T11:08:57Z</time></trkpt><trkpt lat="44.510755315430885" lon="10.60282920382967"><ele>465.0</ele><time>2026-04-18T11:08:58Z</time></trkpt><trkpt lat="44.51070641622187" lon="10.602736571636667"><ele>465.0</ele><time>2026-04-18T11:08:59Z</time></trkpt><trkpt lat="44.51065496717919" lon="10.602625176800306"><ele>465.0</ele><time>2026-04-18T11:09:00Z</time></trkpt><trkpt lat="44.51059293796038" lon="10.602517113932338"><ele>465.4</ele><time>2026-04-18T11:09:01Z</time></trkpt><trkpt lat="44.51053079147649" lon="10.602419886802611"><ele>465.8</ele><time>2026-04-18T11:09:02Z</time></trkpt><trkpt lat="44.51049716392647" lon="10.602304738501125"><ele>466.20000000000005</ele><time>2026-04-18T11:09:03Z</time></trkpt><trkpt lat="44.5104707209407" lon="10.602202755908431"><ele>466.6</ele><time>2026-04-18T11:09:04Z</time></trkpt><trkpt lat="44.51039227266167" lon="10.60208777136841"><ele>467.0</ele><time>2026-04-18T11:09:06Z</time></trkpt><trkpt lat="44.5103241754524" lon="10.602017030523191"><ele>465.8</ele><time>2026-04-18T11:09:07Z</time></trkpt><trkpt lat="44.51024015350723" lon="10.601951316010192"><ele>464.6</ele><time>2026-04-18T11:09:08Z</time></trkpt><trkpt lat="44.510146695696726" lon="10.601884806359836"><ele>463.40000000000003</ele><time>2026-04-18T11:09:09Z</time></trkpt><trkpt lat="44.51008590815325" lon="10.601829719100678"><ele>462.20000000000005</ele><time>2026-04-18T11:09:10Z</time></trkpt><trkpt lat="44.51000433764271" lon="10.601684453349517"><ele>461.0</ele><time>2026-04-18T11:09:12Z</time></trkpt><trkpt lat="44.50999961019376" lon="10.601572944880182"><ele>460.99999999999994</ele><time>2026-04-18T11:09:13Z</time></trkpt><trkpt lat="44.51000594495354" lon="10.601481212044101"><ele>461.0</ele><time>2026-04-18T11:09:14Z</time></trkpt><trkpt lat="44.50998627516634" lon="10.601396637807504"><ele>461.0</ele><time>2026-04-18T11:09:15Z</time></trkpt><trkpt lat="44.50995720181812" lon="10.60128771770253"><ele>461.0</ele><time>2026-04-18T11:09:16Z</time></trkpt><trkpt lat="44.50993491777979" lon="10.601143319719483"><ele>460.99999999999994</ele><time>2026-04-18T11:09:17Z</time></trkpt><trkpt lat="44.50991582537532" lon="10.601017097038676"><ele>461.0</ele><time>2026-04-18T11:09:18Z</time></trkpt><trkpt lat="44.50987142417227" lon="10.600864251609904"><ele>459.6</ele><time>2026-04-18T11:09:20Z</time></trkpt><trkpt lat="44.50981567395524" lon="10.600768908879104"><ele>458.20000000000005</ele><time>2026-04-18T11:09:21Z</time></trkpt><trkpt lat="44.50975181948931" lon="10.600656038006175"><ele>456.79999999999995</ele><time>2026-04-18T11:09:22Z</time></trkpt><trkpt lat="44.509707463634456" lon="10.600584685567773"><ele>455.4</ele><time>2026-04-18T11:09:23Z</time></trkpt><trkpt lat="44.509583089964636" lon="10.600531926448715"><ele>454.0</ele><time>2026-04-18T11:09:25Z</time></trkpt><trkpt lat="44.509439856124715" lon="10.600479001616371"><ele>456.1666666666667</ele><time>2026-04-18T11:09:27Z</time></trkpt><trkpt lat="44.50936750638258" lon="10.600438852084912"><ele>458.33333333333337</ele><time>2026-04-18T11:09:28Z</time></trkpt><trkpt lat="44.50927566305891" lon="10.600374819700166"><ele>460.5</ele><time>2026-04-18T11:09:30Z</time></trkpt><trkpt lat="44.509233983999174" lon="10.600285818268173"><ele>462.66666666666663</ele><time>2026-04-18T11:09:32Z</time></trkpt><trkpt lat="44.509207270589755" lon="10.600120054436458"><ele>464.8333333333333</ele><time>2026-04-18T11:09:33Z</time></trkpt><trkpt lat="44.50922598375903" lon="10.600026239075351"><ele>467.0</ele><time>2026-04-18T11:09:34Z</time></trkpt><trkpt lat="44.509254635826615" lon="10.599927481725652"><ele>466.99999999999994</ele><time>2026-04-18T11:09:35Z</time></trkpt><trkpt lat="44.50926938660628" lon="10.599836442603735"><ele>467.0</ele><time>2026-04-18T11:09:36Z</time></trkpt><trkpt lat="44.50923801673703" lon="10.599714406844635"><ele>467.0</ele><time>2026-04-18T11:09:38Z</time></trkpt><trkpt lat="44.50916276586989" lon="10.599681968788873"><ele>467.0</ele><time>2026-04-18T11:09:40Z</time></trkpt><trkpt lat="44.509095081791" lon="10.599740237323159"><ele>466.99999999999994</ele><time>2026-04-18T11:09:44Z</time></trkpt><trkpt lat="44.509019628562555" lon="10.59982920274803"><ele>467.0</ele><time>2026-04-18T11:09:46Z</time></trkpt><trkpt lat="44.508925202467545" lon="10.599933576332521"><ele>466.99999999999994</ele><time>2026-04-18T11:09:48Z</time></trkpt><trkpt lat="44.50887543625498" lon="10.599990932763141"><ele>467.0</ele><time>2026-04-18T11:09:49Z</time></trkpt><trkpt lat="44.50880426503476" lon="10.60008211143193"><ele>467.0</ele><time>2026-04-18T11:09:51Z</time></trkpt><trkpt lat="44.508874588735324" lon="10.6001824449055"><ele>467.0</ele><time>2026-04-18T11:09:53Z</time></trkpt><trkpt lat="44.50891343925499" lon="10.60027321105034"><ele>466.99999999999994</ele><time>2026-04-18T11:09:55Z</time></trkpt><trkpt lat="44.50884554742546" lon="10.600319629708656"><ele>467.0</ele><time>2026-04-18T11:09:58Z</time></trkpt><trkpt lat="44.50876789534418" lon="10.600260847578381"><ele>470.8</ele><time>2026-04-18T11:10:00Z</time></trkpt><trkpt lat="44.508651314666174" lon="10.600213682243991"><ele>474.6</ele><time>2026-04-18T11:10:02Z</time></trkpt><trkpt lat="44.5085371919297" lon="10.600158169166882"><ele>478.40000000000003</ele><time>2026-04-18T11:10:04Z</time></trkpt><trkpt lat="44.50847633910318" lon="10.60010633148711"><ele>482.20000000000005</ele><time>2026-04-18T11:10:05Z</time></trkpt><trkpt lat="44.508390270983796" lon="10.600052234650052"><ele>486.0</ele><time>2026-04-18T11:10:06.999Z</time></trkpt><trkpt lat="44.50833801967483" lon="10.600110017537126"><ele>486.0</ele><time>2026-04-18T11:10:08.999Z</time></trkpt><trkpt lat="44.5082294303294" lon="10.600240678146063"><ele>486.0</ele><time>2026-04-18T11:10:10.999Z</time></trkpt><trkpt lat="44.50816031409343" lon="10.60031222425873"><ele>486.0</ele><time>2026-04-18T11:10:11.999Z</time></trkpt><trkpt lat="44.508104904811674" lon="10.600391949183617"><ele>486.0</ele><time>2026-04-18T11:10:12.999Z</time></trkpt><trkpt lat="44.50806763103588" lon="10.600464731589383"><ele>486.0</ele><time>2026-04-18T11:10:13.999Z</time></trkpt><trkpt lat="44.50801267415768" lon="10.600541573342069"><ele>489.0</ele><time>2026-04-18T11:10:14.999Z</time></trkpt><trkpt lat="44.50796657392244" lon="10.600637435486467"><ele>492.0</ele><time>2026-04-18T11:10:16.999Z</time></trkpt><trkpt lat="44.50789608986796" lon="10.600629321799278"><ele>495.0</ele><time>2026-04-18T11:10:29Z</time></trkpt><trkpt lat="44.50783116270057" lon="10.60059591291079"><ele>498.0</ele><time>2026-04-18T11:10:30Z</time></trkpt><trkpt lat="44.507774461859746" lon="10.600556423864266"><ele>501.0</ele><time>2026-04-18T11:10:31Z</time></trkpt><trkpt lat="44.50765845784478" lon="10.600517837292635"><ele>504.0</ele><time>2026-04-18T11:10:33Z</time></trkpt><trkpt lat="44.5075362339484" lon="10.600509598531865"><ele>504.0</ele><time>2026-04-18T11:10:35Z</time></trkpt><trkpt lat="44.50742132932184" lon="10.60052848869289"><ele>504.0</ele><time>2026-04-18T11:10:37Z</time></trkpt><trkpt lat="44.50730605826727" lon="10.600547760404078"><ele>504.0</ele><time>2026-04-18T11:10:39Z</time></trkpt><trkpt lat="44.50718630078942" lon="10.600576857739366"><ele>504.0</ele><time>2026-04-18T11:10:41Z</time></trkpt><trkpt lat="44.50707717875536" lon="10.600638655950046"><ele>506.6</ele><time>2026-04-18T11:10:43Z</time></trkpt><trkpt lat="44.506960445732076" lon="10.60068449259253"><ele>509.2</ele><time>2026-04-18T11:10:45Z</time></trkpt><trkpt lat="44.506898007790426" lon="10.600722853007042"><ele>511.80000000000007</ele><time>2026-04-18T11:10:46Z</time></trkpt><trkpt lat="44.506796932424734" lon="10.600780330792757"><ele>514.4</ele><time>2026-04-18T11:10:48Z</time></trkpt><trkpt lat="44.50672265196289" lon="10.600799648889167"><ele>517.0</ele><time>2026-04-18T11:10:50Z</time></trkpt><trkpt lat="44.5068040817795" lon="10.600817580745895"><ele>517.0</ele><time>2026-04-18T11:12:06Z</time></trkpt><trkpt lat="44.50685875614282" lon="10.600750617075233"><ele>517.0</ele><time>2026-04-18T11:12:08Z</time></trkpt><trkpt lat="44.50693767463577" lon="10.600708155325625"><ele>517.0</ele><time>2026-04-18T11:12:10.999Z</time></trkpt><trkpt lat="44.5069070288743" lon="10.600622606048196"><ele>517.0</ele><time>2026-04-18T11:12:14.999Z</time></trkpt><trkpt lat="44.50683759559453" lon="10.600610037962905"><ele>517.0</ele><time>2026-04-18T11:12:17.999Z</time></trkpt><trkpt lat="44.50677039304894" lon="10.600626618677625"><ele>517.0</ele><time>2026-04-18T11:12:19.999Z</time></trkpt><trkpt lat="44.50667473391859" lon="10.60064391527988"><ele>517.0</ele><time>2026-04-18T11:12:21.999Z</time></trkpt><trkpt lat="44.50658363597157" lon="10.600603635635059"><ele>517.0</ele><time>2026-04-18T11:12:23.999Z</time></trkpt><trkpt lat="44.50651981544513" lon="10.600615244185171"><ele>517.0</ele><time>2026-04-18T11:12:24.999Z</time></trkpt><trkpt lat="44.50640234049748" lon="10.600595545969462"><ele>517.0</ele><time>2026-04-18T11:12:26.999Z</time></trkpt><trkpt lat="44.50630388078566" lon="10.600539628620963"><ele>517.0</ele><time>2026-04-18T11:12:29Z</time></trkpt><trkpt lat="44.50620783374756" lon="10.600510943113905"><ele>515.8333333333334</ele><time>2026-04-18T11:12:31Z</time></trkpt><trkpt lat="44.50614395633068" lon="10.600471499455741"><ele>514.6666666666667</ele><time>2026-04-18T11:12:32Z</time></trkpt><trkpt lat="44.506047300876816" lon="10.600410399623032"><ele>513.5</ele><time>2026-04-18T11:12:34Z</time></trkpt><trkpt lat="44.50595735944656" lon="10.60034628892217"><ele>512.3333333333334</ele><time>2026-04-18T11:12:36Z</time></trkpt><trkpt lat="44.50587798648361" lon="10.60032645682415"><ele>511.1666666666667</ele><time>2026-04-18T11:12:38Z</time></trkpt><trkpt lat="44.50580074808294" lon="10.600267242966217"><ele>510.0</ele><time>2026-04-18T11:12:41Z</time></trkpt><trkpt lat="44.50574063543058" lon="10.600238165438892"><ele>510.0</ele><time>2026-04-18T11:12:43Z</time></trkpt><trkpt lat="44.50566029133572" lon="10.600154986801883"><ele>510.0</ele><time>2026-04-18T11:12:45Z</time></trkpt><trkpt lat="44.505595972724905" lon="10.600045556168409"><ele>510.0</ele><time>2026-04-18T11:12:47Z</time></trkpt><trkpt lat="44.50550188690771" lon="10.599992962908207"><ele>510.0</ele><time>2026-04-18T11:12:49Z</time></trkpt><trkpt lat="44.50541079704058" lon="10.599980966266415"><ele>510.0</ele><time>2026-04-18T11:12:51Z</time></trkpt><trkpt lat="44.50528762000119" lon="10.599968138936028"><ele>515.5</ele><time>2026-04-18T11:12:53Z</time></trkpt><trkpt lat="44.5051805109805" lon="10.59994156911697"><ele>521.0</ele><time>2026-04-18T11:12:55Z</time></trkpt><trkpt lat="44.50508620731045" lon="10.599930759430007"><ele>526.5</ele><time>2026-04-18T11:12:58Z</time></trkpt><trkpt lat="44.50500053429982" lon="10.599900035059887"><ele>532.0</ele><time>2026-04-18T11:13:02Z</time></trkpt><trkpt lat="44.50493147144681" lon="10.599874954206213"><ele>537.5</ele><time>2026-04-18T11:13:03Z</time></trkpt><trkpt lat="44.504858454005436" lon="10.59985322205038"><ele>543.0</ele><time>2026-04-18T11:13:05Z</time></trkpt><trkpt lat="44.50477998642314" lon="10.599785712294992"><ele>543.0</ele><time>2026-04-18T11:13:08Z</time></trkpt><trkpt lat="44.504715353280616" lon="10.599724479448252"><ele>543.0</ele><time>2026-04-18T11:13:10Z</time></trkpt><trkpt lat="44.50463795531677" lon="10.599654853408074"><ele>543.0</ele><time>2026-04-18T11:13:12Z</time></trkpt><trkpt lat="44.50457315139749" lon="10.599610350748573"><ele>543.0</ele><time>2026-04-18T11:13:14Z</time></trkpt><trkpt lat="44.50448634424606" lon="10.599557569990537"><ele>543.0</ele><time>2026-04-18T11:13:18Z</time></trkpt><trkpt lat="44.504421505604135" lon="10.59952999780904"><ele>543.0</ele><time>2026-04-18T11:13:20Z</time></trkpt><trkpt lat="44.504350508306786" lon="10.599560137443348"><ele>549.3333333333334</ele><time>2026-04-18T11:13:22Z</time></trkpt><trkpt lat="44.50426220035932" lon="10.599566035325273"><ele>555.6666666666666</ele><time>2026-04-18T11:13:24Z</time></trkpt><trkpt lat="44.50419028217449" lon="10.59954669839092"><ele>562.0</ele><time>2026-04-18T11:13:26Z</time></trkpt><trkpt lat="44.50409228505464" lon="10.599551619795687"><ele>568.3333333333333</ele><time>2026-04-18T11:13:29Z</time></trkpt><trkpt lat="44.504020536881036" lon="10.59956452703202"><ele>574.6666666666666</ele><time>2026-04-18T11:13:31Z</time></trkpt><trkpt lat="44.5039275974502" lon="10.599566595295224"><ele>581.0</ele><time>2026-04-18T11:13:33Z</time></trkpt><trkpt lat="44.50384221009172" lon="10.599510633627288"><ele>581.0</ele><time>2026-04-18T11:13:35Z</time></trkpt><trkpt lat="44.503758485756755" lon="10.599495964662317"><ele>581.0</ele><time>2026-04-18T11:13:37Z</time></trkpt><trkpt lat="44.50368823675552" lon="10.599454375178492"><ele>581.0</ele><time>2026-04-18T11:13:39Z</time></trkpt><trkpt lat="44.503674755227856" lon="10.599543881094933"><ele>581.0</ele><time>2026-04-18T11:13:43Z</time></trkpt><trkpt lat="44.5037123902887" lon="10.5996684136174"><ele>581.0</ele><time>2026-04-18T11:13:47Z</time></trkpt><trkpt lat="44.50375939651489" lon="10.599774188001716"><ele>581.0</ele><time>2026-04-18T11:13:49Z</time></trkpt><trkpt lat="44.50382694944954" lon="10.599844307461929"><ele>581.0</ele><time>2026-04-18T11:13:51Z</time></trkpt><trkpt lat="44.50376210053075" lon="10.599881693892904"><ele>581.0</ele><time>2026-04-18T11:13:56Z</time></trkpt><trkpt lat="44.50367175852978" lon="10.599855321361488"><ele>581.0</ele><time>2026-04-18T11:13:58Z</time></trkpt><trkpt lat="44.50356604724926" lon="10.599826750281814"><ele>581.0</ele><time>2026-04-18T11:14:00Z</time></trkpt><trkpt lat="44.503488961896856" lon="10.599841305265358"><ele>581.0</ele><time>2026-04-18T11:14:02Z</time></trkpt><trkpt lat="44.5033747254039" lon="10.599941086704181"><ele>583.0</ele><time>2026-04-18T11:14:04Z</time></trkpt><trkpt lat="44.50331204804183" lon="10.600004470973198"><ele>585.0</ele><time>2026-04-18T11:14:04.999Z</time></trkpt><trkpt lat="44.5032388212909" lon="10.600037690051838"><ele>587.0</ele><time>2026-04-18T11:14:05.999Z</time></trkpt><trkpt lat="44.503177321924305" lon="10.60010675436578"><ele>589.0</ele><time>2026-04-18T11:14:06.999Z</time></trkpt><trkpt lat="44.50308887661804" lon="10.600168233270415"><ele>591.0</ele><time>2026-04-18T11:14:08.999Z</time></trkpt><trkpt lat="44.502991435341706" lon="10.600302114969143"><ele>592.3333333333334</ele><time>2026-04-18T11:14:10.999Z</time></trkpt><trkpt lat="44.502960674574304" lon="10.600451141342953"><ele>593.6666666666666</ele><time>2026-04-18T11:14:11.999Z</time></trkpt><trkpt lat="44.50291908345246" lon="10.60056172837195"><ele>595.0</ele><time>2026-04-18T11:14:12.999Z</time></trkpt><trkpt lat="44.50287315687236" lon="10.600659706043217"><ele>596.3333333333333</ele><time>2026-04-18T11:14:13.999Z</time></trkpt><trkpt lat="44.50282951274876" lon="10.600755922907561"><ele>597.6666666666666</ele><time>2026-04-18T11:14:14.999Z</time></trkpt><trkpt lat="44.50280436198347" lon="10.600859827770677"><ele>599.0</ele><time>2026-04-18T11:14:15.999Z</time></trkpt><trkpt lat="44.50279920659376" lon="10.600976860378921"><ele>594.4</ele><time>2026-04-18T11:14:16.999Z</time></trkpt><trkpt lat="44.50276431866518" lon="10.601145506697836"><ele>589.8</ele><time>2026-04-18T11:14:18.999Z</time></trkpt><trkpt lat="44.50272892117436" lon="10.601236290134741"><ele>585.2</ele><time>2026-04-18T11:14:19.999Z</time></trkpt><trkpt lat="44.502685890165054" lon="10.601363051243252"><ele>580.6</ele><time>2026-04-18T11:14:20.999Z</time></trkpt><trkpt lat="44.50266136608919" lon="10.601461977598394"><ele>576.0</ele><time>2026-04-18T11:14:21.999Z</time></trkpt><trkpt lat="44.50263528621399" lon="10.601567103589066"><ele>576.0</ele><time>2026-04-18T11:14:22.999Z</time></trkpt><trkpt lat="44.502609348276906" lon="10.60166396290674"><ele>576.0</ele><time>2026-04-18T11:14:23.999Z</time></trkpt><trkpt lat="44.502578307777625" lon="10.60175126433793"><ele>576.0</ele><time>2026-04-18T11:14:24.999Z</time></trkpt><trkpt lat="44.50252651152795" lon="10.601817634994493"><ele>576.0</ele><time>2026-04-18T11:14:25.999Z</time></trkpt><trkpt lat="44.50244909075731" lon="10.601963391859186"><ele>576.0</ele><time>2026-04-18T11:14:27.999Z</time></trkpt><trkpt lat="44.50242732961667" lon="10.602057441431324"><ele>576.0</ele><time>2026-04-18T11:14:28.999Z</time></trkpt><trkpt lat="44.50242676912823" lon="10.602146166923156"><ele>576.0</ele><time>2026-04-18T11:14:29.999Z</time></trkpt><trkpt lat="44.50244786659101" lon="10.60224222371931"><ele>576.0</ele><time>2026-04-18T11:14:30.999Z</time></trkpt><trkpt lat="44.50245566340817" lon="10.60239630655643"><ele>576.0</ele><time>2026-04-18T11:14:32.999Z</time></trkpt><trkpt lat="44.50244642223138" lon="10.602545126031808"><ele>576.0</ele><time>2026-04-18T11:14:35Z</time></trkpt><trkpt lat="44.50243482299538" lon="10.602684805760601"><ele>576.0</ele><time>2026-04-18T11:14:37Z</time></trkpt><trkpt lat="44.502411865804554" lon="10.602840005466428"><ele>576.0</ele><time>2026-04-18T11:14:39Z</time></trkpt><trkpt lat="44.502371977496054" lon="10.602955785190641"><ele>576.0</ele><time>2026-04-18T11:14:41Z</time></trkpt><trkpt lat="44.50226840045112" lon="10.602875443946633"><ele>576.0</ele><time>2026-04-18T11:14:44Z</time></trkpt><trkpt lat="44.502180967656805" lon="10.602749895933764"><ele>576.0</ele><time>2026-04-18T11:14:46Z</time></trkpt><trkpt lat="44.50209888464057" lon="10.60267420143869"><ele>576.0</ele><time>2026-04-18T11:14:47Z</time></trkpt><trkpt lat="44.50201755993445" lon="10.602588870675413"><ele>576.25</ele><time>2026-04-18T11:14:48Z</time></trkpt><trkpt lat="44.5019269404821" lon="10.602502135395891"><ele>576.5</ele><time>2026-04-18T11:14:49Z</time></trkpt><trkpt lat="44.50183376582546" lon="10.602402818382808"><ele>576.75</ele><time>2026-04-18T11:14:50Z</time></trkpt><trkpt lat="44.501749588290224" lon="10.602267868281784"><ele>577.0</ele><time>2026-04-18T11:14:51Z</time></trkpt><trkpt lat="44.50167554843151" lon="10.6020789533925"><ele>572.0</ele><time>2026-04-18T11:14:52Z</time></trkpt><trkpt lat="44.501590777363575" lon="10.601847564621856"><ele>567.0</ele><time>2026-04-18T11:14:53Z</time></trkpt><trkpt lat="44.501498355151234" lon="10.601626909159373"><ele>562.0</ele><time>2026-04-18T11:14:54Z</time></trkpt><trkpt lat="44.50140227613747" lon="10.60144884011068"><ele>562.0</ele><time>2026-04-18T11:14:55Z</time></trkpt><trkpt lat="44.501262067527776" lon="10.6012657578411"><ele>562.0</ele><time>2026-04-18T11:14:56Z</time></trkpt><trkpt lat="44.50117392263165" lon="10.601114628030397"><ele>562.0</ele><time>2026-04-18T11:14:57Z</time></trkpt><trkpt lat="44.50109590248502" lon="10.601002832783562"><ele>562.0</ele><time>2026-04-18T11:14:58Z</time></trkpt><trkpt lat="44.501032110850836" lon="10.600921522943661"><ele>560.1666666666667</ele><time>2026-04-18T11:14:59Z</time></trkpt><trkpt lat="44.50096192566405" lon="10.60086015439481"><ele>558.3333333333334</ele><time>2026-04-18T11:15:00Z</time></trkpt><trkpt lat="44.500887902309024" lon="10.60081541521897"><ele>556.5</ele><time>2026-04-18T11:15:01Z</time></trkpt><trkpt lat="44.500807715944376" lon="10.60081841298019"><ele>554.6666666666666</ele><time>2026-04-18T11:15:02Z</time></trkpt><trkpt lat="44.50073470022293" lon="10.600872583509497"><ele>552.8333333333333</ele><time>2026-04-18T11:15:03Z</time></trkpt><trkpt lat="44.50067187467995" lon="10.60094872695355"><ele>551.0</ele><time>2026-04-18T11:15:04Z</time></trkpt><trkpt lat="44.500609425472554" lon="10.601041082799078"><ele>551.0</ele><time>2026-04-18T11:15:05Z</time></trkpt><trkpt lat="44.50054473776973" lon="10.601163903122881"><ele>551.0</ele><time>2026-04-18T11:15:06Z</time></trkpt><trkpt lat="44.50049444753693" lon="10.601314943403358"><ele>551.0</ele><time>2026-04-18T11:15:07Z</time></trkpt><trkpt lat="44.50044294926458" lon="10.601503884097838"><ele>551.0</ele><time>2026-04-18T11:15:08Z</time></trkpt><trkpt lat="44.50035502927616" lon="10.601677479179603"><ele>550.75</ele><time>2026-04-18T11:15:09Z</time></trkpt><trkpt lat="44.50029319022382" lon="10.601851929530214"><ele>550.5</ele><time>2026-04-18T11:15:10Z</time></trkpt><trkpt lat="44.50020375744337" lon="10.601992413217113"><ele>550.25</ele><time>2026-04-18T11:15:11Z</time></trkpt><trkpt lat="44.5001340404023" lon="10.602139397533797"><ele>550.0</ele><time>2026-04-18T11:15:12Z</time></trkpt><trkpt lat="44.50009420878307" lon="10.60230457035742"><ele>550.0</ele><time>2026-04-18T11:15:13Z</time></trkpt><trkpt lat="44.50006215220319" lon="10.602477003309318"><ele>550.0</ele><time>2026-04-18T11:15:14Z</time></trkpt><trkpt lat="44.50003296040887" lon="10.602655497940896"><ele>550.0</ele><time>2026-04-18T11:15:15Z</time></trkpt><trkpt lat="44.500003832887415" lon="10.60283076260354"><ele>550.0</ele><time>2026-04-18T11:15:16Z</time></trkpt><trkpt lat="44.4999664166165" lon="10.60297989533173"><ele>552.25</ele><time>2026-04-18T11:15:17Z</time></trkpt><trkpt lat="44.4999024374177" lon="10.603103915128907"><ele>554.5</ele><time>2026-04-18T11:15:18Z</time></trkpt><trkpt lat="44.49982254873841" lon="10.603216737356279"><ele>556.75</ele><time>2026-04-18T11:15:19Z</time></trkpt><trkpt lat="44.499701214478925" lon="10.603280125079278"><ele>559.0</ele><time>2026-04-18T11:15:20Z</time></trkpt><trkpt lat="44.49957642133276" lon="10.603369480868855"><ele>554.5</ele><time>2026-04-18T11:15:21Z</time></trkpt><trkpt lat="44.49946003531806" lon="10.603465987301997"><ele>550.0</ele><time>2026-04-18T11:15:22Z</time></trkpt><trkpt lat="44.49934217147266" lon="10.603534395929863"><ele>545.5</ele><time>2026-04-18T11:15:23Z</time></trkpt><trkpt lat="44.49922731049749" lon="10.603542188621455"><ele>541.0</ele><time>2026-04-18T11:15:24Z</time></trkpt><trkpt lat="44.499116729928915" lon="10.603539563519854"><ele>541.0</ele><time>2026-04-18T11:15:25Z</time></trkpt><trkpt lat="44.499009422640825" lon="10.6035288905967"><ele>541.0</ele><time>2026-04-18T11:15:26Z</time></trkpt><trkpt lat="44.498901736852" lon="10.60352147382435"><ele>541.0</ele><time>2026-04-18T11:15:27Z</time></trkpt><trkpt lat="44.49880392485708" lon="10.603489748988528"><ele>541.0</ele><time>2026-04-18T11:15:28Z</time></trkpt><trkpt lat="44.4987070779051" lon="10.603463807187428"><ele>541.0</ele><time>2026-04-18T11:15:29Z</time></trkpt><trkpt lat="44.498616651413556" lon="10.603434947846637"><ele>540.5</ele><time>2026-04-18T11:15:30Z</time></trkpt><trkpt lat="44.498539769885475" lon="10.60340859026347"><ele>540.0</ele><time>2026-04-18T11:15:31Z</time></trkpt><trkpt lat="44.49847351642084" lon="10.603384098758005"><ele>539.5</ele><time>2026-04-18T11:15:32Z</time></trkpt><trkpt lat="44.498361956995694" lon="10.603364854682251"><ele>539.0</ele><time>2026-04-18T11:15:34Z</time></trkpt><trkpt lat="44.498304132550444" lon="10.603409039599166"><ele>538.5</ele><time>2026-04-18T11:15:36Z</time></trkpt><trkpt lat="44.498318010621944" lon="10.603538251036456"><ele>538.0</ele><time>2026-04-18T11:15:37Z</time></trkpt><trkpt lat="44.49834549240795" lon="10.603650457600715"><ele>538.3333333333334</ele><time>2026-04-18T11:15:39Z</time></trkpt><trkpt lat="44.4983393308222" lon="10.6037554247668"><ele>538.6666666666667</ele><time>2026-04-18T11:15:41Z</time></trkpt><trkpt lat="44.498347561384335" lon="10.60390267643521"><ele>539.0</ele><time>2026-04-18T11:15:43Z</time></trkpt><trkpt lat="44.49835272902018" lon="10.603996597546729"><ele>539.3333333333334</ele><time>2026-04-18T11:15:44Z</time></trkpt><trkpt lat="44.49836073740827" lon="10.604096572302906"><ele>539.6666666666666</ele><time>2026-04-18T11:15:45Z</time></trkpt><trkpt lat="44.49837511042872" lon="10.60420817939104"><ele>540.0</ele><time>2026-04-18T11:15:46Z</time></trkpt><trkpt lat="44.498398329243315" lon="10.604326186064272"><ele>540.0</ele><time>2026-04-18T11:15:47Z</time></trkpt><trkpt lat="44.49842551964592" lon="10.604443448642224"><ele>540.0</ele><time>2026-04-18T11:15:48Z</time></trkpt><trkpt lat="44.498448992838576" lon="10.604581000020637"><ele>540.0</ele><time>2026-04-18T11:15:48.999Z</time></trkpt><trkpt lat="44.498469517151484" lon="10.604730678187476"><ele>540.0</ele><time>2026-04-18T11:15:49.999Z</time></trkpt><trkpt lat="44.4984798920367" lon="10.60489180406227"><ele>540.0</ele><time>2026-04-18T11:15:50.999Z</time></trkpt><trkpt lat="44.49847086677467" lon="10.605059952588372"><ele>539.75</ele><time>2026-04-18T11:15:51.999Z</time></trkpt><trkpt lat="44.498432726969455" lon="10.60522681556036"><ele>539.5</ele><time>2026-04-18T11:15:52.999Z</time></trkpt><trkpt lat="44.49836422029604" lon="10.605385502319495"><ele>539.25</ele><time>2026-04-18T11:15:53.999Z</time></trkpt><trkpt lat="44.49828165037919" lon="10.60553463172716"><ele>539.0</ele><time>2026-04-18T11:15:54.999Z</time></trkpt><trkpt lat="44.49820206679426" lon="10.605682611660873"><ele>539.0</ele><time>2026-04-18T11:15:55.999Z</time></trkpt><trkpt lat="44.49813826637158" lon="10.605819084182302"><ele>539.0</ele><time>2026-04-18T11:15:56.999Z</time></trkpt><trkpt lat="44.498066864844176" lon="10.605947231591179"><ele>539.0</ele><time>2026-04-18T11:15:57.999Z</time></trkpt><trkpt lat="44.49798087710319" lon="10.606045418528417"><ele>539.0</ele><time>2026-04-18T11:15:58.999Z</time></trkpt><trkpt lat="44.49788412091159" lon="10.606113594909843"><ele>537.25</ele><time>2026-04-18T11:15:59.999Z</time></trkpt><trkpt lat="44.497765574669344" lon="10.606150852864724"><ele>535.5</ele><time>2026-04-18T11:16:00.999Z</time></trkpt><trkpt lat="44.49764521302084" lon="10.606093211588783"><ele>533.75</ele><time>2026-04-18T11:16:01.999Z</time></trkpt><trkpt lat="44.49752511267248" lon="10.606046752657022"><ele>532.0</ele><time>2026-04-18T11:16:02.999Z</time></trkpt><trkpt lat="44.49738999601332" lon="10.606000258226633"><ele>532.0</ele><time>2026-04-18T11:16:03.999Z</time></trkpt><trkpt lat="44.497259250202475" lon="10.60592860130572"><ele>532.0</ele><time>2026-04-18T11:16:04.999Z</time></trkpt><trkpt lat="44.497144397325506" lon="10.605870304341284"><ele>532.0</ele><time>2026-04-18T11:16:05.999Z</time></trkpt><trkpt lat="44.497025693549865" lon="10.605833510760156"><ele>532.0</ele><time>2026-04-18T11:16:06.999Z</time></trkpt><trkpt lat="44.49690721403459" lon="10.60581119440962"><ele>531.75</ele><time>2026-04-18T11:16:07.999Z</time></trkpt><trkpt lat="44.49677798058116" lon="10.605804463606152"><ele>531.5</ele><time>2026-04-18T11:16:08.999Z</time></trkpt><trkpt lat="44.49664562942778" lon="10.605814630477068"><ele>531.25</ele><time>2026-04-18T11:16:09.999Z</time></trkpt><trkpt lat="44.496513623723466" lon="10.60581232407382"><ele>531.0</ele><time>2026-04-18T11:16:10.999Z</time></trkpt><trkpt lat="44.49638291657375" lon="10.605805493029509"><ele>531.0</ele><time>2026-04-18T11:16:11.999Z</time></trkpt><trkpt lat="44.49627643983195" lon="10.605812522224559"><ele>531.0</ele><time>2026-04-18T11:16:12.999Z</time></trkpt><trkpt lat="44.49617424119691" lon="10.605835355123642"><ele>531.0</ele><time>2026-04-18T11:16:13.999Z</time></trkpt><trkpt lat="44.49606997702693" lon="10.605897627642342"><ele>531.0</ele><time>2026-04-18T11:16:14.999Z</time></trkpt><trkpt lat="44.49597892171966" lon="10.606001032800316"><ele>531.0</ele><time>2026-04-18T11:16:15.999Z</time></trkpt><trkpt lat="44.49589504959961" lon="10.606127629989858"><ele>530.0</ele><time>2026-04-18T11:16:16.999Z</time></trkpt><trkpt lat="44.4958218008208" lon="10.606265197146806"><ele>529.0</ele><time>2026-04-18T11:16:17.999Z</time></trkpt><trkpt lat="44.49576699721743" lon="10.606428710396528"><ele>528.0</ele><time>2026-04-18T11:16:18.999Z</time></trkpt><trkpt lat="44.495735215576936" lon="10.606613722628493"><ele>527.0</ele><time>2026-04-18T11:16:19.999Z</time></trkpt><trkpt lat="44.495720092951196" lon="10.60679981628826"><ele>527.0</ele><time>2026-04-18T11:16:20.999Z</time></trkpt><trkpt lat="44.49568826683499" lon="10.606971265592517"><ele>527.0</ele><time>2026-04-18T11:16:21.999Z</time></trkpt><trkpt lat="44.495597927037785" lon="10.607096504400735"><ele>527.0</ele><time>2026-04-18T11:16:22.999Z</time></trkpt><trkpt lat="44.495491001168205" lon="10.607219016440949"><ele>527.0</ele><time>2026-04-18T11:16:23.999Z</time></trkpt><trkpt lat="44.49537812592437" lon="10.607356029797995"><ele>525.6666666666666</ele><time>2026-04-18T11:16:24.999Z</time></trkpt><trkpt lat="44.49526846681562" lon="10.607517419239079"><ele>524.3333333333334</ele><time>2026-04-18T11:16:25.999Z</time></trkpt><trkpt lat="44.49519423253945" lon="10.607723899941638"><ele>523.0</ele><time>2026-04-18T11:16:26.999Z</time></trkpt><trkpt lat="44.495140465741514" lon="10.607922392266962"><ele>522.3333333333334</ele><time>2026-04-18T11:16:27.999Z</time></trkpt><trkpt lat="44.49509327328787" lon="10.60813704903533"><ele>521.6666666666666</ele><time>2026-04-18T11:16:28.999Z</time></trkpt><trkpt lat="44.49505252564629" lon="10.60834085553112"><ele>521.0</ele><time>2026-04-18T11:16:29.999Z</time></trkpt><trkpt lat="44.495002190175164" lon="10.608537711126594"><ele>521.25</ele><time>2026-04-18T11:16:30.999Z</time></trkpt><trkpt lat="44.49493417685036" lon="10.608723448586707"><ele>521.5</ele><time>2026-04-18T11:16:31.999Z</time></trkpt><trkpt lat="44.49485617065999" lon="10.608882723423294"><ele>521.75</ele><time>2026-04-18T11:16:32.999Z</time></trkpt><trkpt lat="44.4947565719486" lon="10.609032404904879"><ele>522.0</ele><time>2026-04-18T11:16:33.999Z</time></trkpt><trkpt lat="44.49465045509176" lon="10.609177415575436"><ele>523.0</ele><time>2026-04-18T11:16:34.999Z</time></trkpt><trkpt lat="44.49455597946359" lon="10.60933170820359"><ele>524.0</ele><time>2026-04-18T11:16:35.999Z</time></trkpt><trkpt lat="44.49448895850549" lon="10.609507404714224"><ele>525.0</ele><time>2026-04-18T11:16:36.999Z</time></trkpt><trkpt lat="44.49445319095022" lon="10.609694965379447"><ele>526.0</ele><time>2026-04-18T11:16:37.999Z</time></trkpt><trkpt lat="44.494431996674166" lon="10.609896086223674"><ele>525.3333333333334</ele><time>2026-04-18T11:16:38.999Z</time></trkpt><trkpt lat="44.49441853119878" lon="10.610112295032158"><ele>524.6666666666666</ele><time>2026-04-18T11:16:39.999Z</time></trkpt><trkpt lat="44.49440486041519" lon="10.610324955923877"><ele>524.0</ele><time>2026-04-18T11:16:41Z</time></trkpt><trkpt lat="44.49439074824926" lon="10.610533895641218"><ele>524.0</ele><time>2026-04-18T11:16:42Z</time></trkpt><trkpt lat="44.49437235299909" lon="10.610725263508344"><ele>524.0</ele><time>2026-04-18T11:16:43Z</time></trkpt><trkpt lat="44.49439645561684" lon="10.610911324958241"><ele>524.0</ele><time>2026-04-18T11:16:44Z</time></trkpt><trkpt lat="44.49442428695099" lon="10.611107964862436"><ele>524.0</ele><time>2026-04-18T11:16:45Z</time></trkpt><trkpt lat="44.494470773459625" lon="10.611290332936148"><ele>523.0</ele><time>2026-04-18T11:16:46Z</time></trkpt><trkpt lat="44.494511657959634" lon="10.611450759476824"><ele>522.0</ele><time>2026-04-18T11:16:47Z</time></trkpt><trkpt lat="44.49453181730005" lon="10.611622055972425"><ele>521.0</ele><time>2026-04-18T11:16:48Z</time></trkpt><trkpt lat="44.49451540450004" lon="10.611782398713128"><ele>520.0</ele><time>2026-04-18T11:16:49Z</time></trkpt><trkpt lat="44.49446438637937" lon="10.611914627102795"><ele>520.5</ele><time>2026-04-18T11:16:50Z</time></trkpt><trkpt lat="44.494385579849514" lon="10.61201518382992"><ele>521.0</ele><time>2026-04-18T11:16:51Z</time></trkpt><trkpt lat="44.49427408903026" lon="10.61209377426788"><ele>521.5</ele><time>2026-04-18T11:16:52Z</time></trkpt><trkpt lat="44.49417079488801" lon="10.612168064783473"><ele>522.0</ele><time>2026-04-18T11:16:53Z</time></trkpt><trkpt lat="44.49407283483873" lon="10.612251946896828"><ele>522.0</ele><time>2026-04-18T11:16:54Z</time></trkpt><trkpt lat="44.49398698035306" lon="10.612334426615256"><ele>522.0</ele><time>2026-04-18T11:16:55Z</time></trkpt><trkpt lat="44.4938958824105" lon="10.61242338503898"><ele>522.0</ele><time>2026-04-18T11:16:56Z</time></trkpt><trkpt lat="44.49380167577257" lon="10.612503555879353"><ele>522.0</ele><time>2026-04-18T11:16:57Z</time></trkpt><trkpt lat="44.493696290807364" lon="10.612580901016536"><ele>522.0</ele><time>2026-04-18T11:16:58Z</time></trkpt><trkpt lat="44.49358571957221" lon="10.612637456388867"><ele>522.75</ele><time>2026-04-18T11:16:59Z</time></trkpt><trkpt lat="44.493466097487946" lon="10.612699106555064"><ele>523.5</ele><time>2026-04-18T11:17:00Z</time></trkpt><trkpt lat="44.493349606220775" lon="10.612765741726914"><ele>524.25</ele><time>2026-04-18T11:17:01Z</time></trkpt><trkpt lat="44.49323450242313" lon="10.6128510040514"><ele>525.0</ele><time>2026-04-18T11:17:02Z</time></trkpt><trkpt lat="44.493133092587996" lon="10.612967286009974"><ele>525.0</ele><time>2026-04-18T11:17:03Z</time></trkpt><trkpt lat="44.49304385357122" lon="10.613110965209664"><ele>525.0</ele><time>2026-04-18T11:17:04Z</time></trkpt><trkpt lat="44.49297017955307" lon="10.61326901422994"><ele>525.0</ele><time>2026-04-18T11:17:05Z</time></trkpt><trkpt lat="44.4928990889048" lon="10.61341948548796"><ele>525.0</ele><time>2026-04-18T11:17:06Z</time></trkpt><trkpt lat="44.49282727274565" lon="10.613558599831405"><ele>523.8</ele><time>2026-04-18T11:17:07Z</time></trkpt><trkpt lat="44.492756131396945" lon="10.6136837312284"><ele>522.6</ele><time>2026-04-18T11:17:08Z</time></trkpt><trkpt lat="44.49265938765735" lon="10.613763297281855"><ele>521.4</ele><time>2026-04-18T11:17:09Z</time></trkpt><trkpt lat="44.492559765084465" lon="10.613817955587441"><ele>520.2</ele><time>2026-04-18T11:17:10Z</time></trkpt><trkpt lat="44.49244966290899" lon="10.613867571493902"><ele>519.0</ele><time>2026-04-18T11:17:11Z</time></trkpt><trkpt lat="44.49231858113539" lon="10.6138393857816"><ele>519.0</ele><time>2026-04-18T11:17:12Z</time></trkpt><trkpt lat="44.49219622097733" lon="10.613795089095206"><ele>519.0</ele><time>2026-04-18T11:17:13Z</time></trkpt><trkpt lat="44.49209906140227" lon="10.613712608969097"><ele>519.0</ele><time>2026-04-18T11:17:14Z</time></trkpt><trkpt lat="44.4920006435368" lon="10.613656014048797"><ele>519.0</ele><time>2026-04-18T11:17:15Z</time></trkpt><trkpt lat="44.49191434295339" lon="10.613590586974672"><ele>519.0</ele><time>2026-04-18T11:17:16Z</time></trkpt><trkpt lat="44.49182375227271" lon="10.613567868950561"><ele>515.75</ele><time>2026-04-18T11:17:17Z</time></trkpt><trkpt lat="44.491722328203004" lon="10.613593873166403"><ele>512.5</ele><time>2026-04-18T11:17:18Z</time></trkpt><trkpt lat="44.491628439437726" lon="10.613673383530578"><ele>509.25</ele><time>2026-04-18T11:17:19Z</time></trkpt><trkpt lat="44.491554610968734" lon="10.613806698114544"><ele>506.0</ele><time>2026-04-18T11:17:20Z</time></trkpt><trkpt lat="44.49150624056101" lon="10.613985168211297"><ele>506.0</ele><time>2026-04-18T11:17:21Z</time></trkpt><trkpt lat="44.49147597761085" lon="10.61418262674361"><ele>506.0</ele><time>2026-04-18T11:17:22Z</time></trkpt><trkpt lat="44.49145802187221" lon="10.614377252528172"><ele>506.0</ele><time>2026-04-18T11:17:23Z</time></trkpt><trkpt lat="44.49140962926081" lon="10.614566681510153"><ele>506.0</ele><time>2026-04-18T11:17:24Z</time></trkpt><trkpt lat="44.491367772878405" lon="10.614740058848344"><ele>507.75</ele><time>2026-04-18T11:17:25Z</time></trkpt><trkpt lat="44.49130259727178" lon="10.61489205939256"><ele>509.5</ele><time>2026-04-18T11:17:26Z</time></trkpt><trkpt lat="44.491240181689975" lon="10.615034243963077"><ele>511.25</ele><time>2026-04-18T11:17:27Z</time></trkpt><trkpt lat="44.491155775902996" lon="10.615167646817318"><ele>513.0</ele><time>2026-04-18T11:17:28Z</time></trkpt><trkpt lat="44.49108546200961" lon="10.615302939413533"><ele>510.5</ele><time>2026-04-18T11:17:29Z</time></trkpt><trkpt lat="44.49099039471716" lon="10.615420565268886"><ele>508.0</ele><time>2026-04-18T11:17:30Z</time></trkpt><trkpt lat="44.490878420148235" lon="10.615512569432427"><ele>505.5</ele><time>2026-04-18T11:17:31Z</time></trkpt><trkpt lat="44.490763587010434" lon="10.615595315259714"><ele>503.0</ele><time>2026-04-18T11:17:32Z</time></trkpt><trkpt lat="44.49064517430397" lon="10.615658735161242"><ele>503.0</ele><time>2026-04-18T11:17:33Z</time></trkpt><trkpt lat="44.49053230211032" lon="10.615721752617587"><ele>503.0</ele><time>2026-04-18T11:17:34Z</time></trkpt><trkpt lat="44.49042701022968" lon="10.615805236705333"><ele>503.0</ele><time>2026-04-18T11:17:35Z</time></trkpt><trkpt lat="44.49033156794982" lon="10.61589581675786"><ele>503.0</ele><time>2026-04-18T11:17:36Z</time></trkpt><trkpt lat="44.490240730873964" lon="10.616012895283864"><ele>500.0</ele><time>2026-04-18T11:17:37Z</time></trkpt><trkpt lat="44.49016394825954" lon="10.616162313784123"><ele>497.0</ele><time>2026-04-18T11:17:38Z</time></trkpt><trkpt lat="44.4900872400659" lon="10.61633557983941"><ele>494.0</ele><time>2026-04-18T11:17:39Z</time></trkpt><trkpt lat="44.49001720210898" lon="10.616491474719885"><ele>491.0</ele><time>2026-04-18T11:17:40Z</time></trkpt><trkpt lat="44.489960922309756" lon="10.616646876414602"><ele>491.0</ele><time>2026-04-18T11:17:41Z</time></trkpt><trkpt lat="44.48992155073371" lon="10.616807294537987"><ele>491.0</ele><time>2026-04-18T11:17:41.999Z</time></trkpt><trkpt lat="44.489900181785195" lon="10.616971012694812"><ele>491.0</ele><time>2026-04-18T11:17:42.999Z</time></trkpt><trkpt lat="44.4898975364202" lon="10.617143299707555"><ele>491.0</ele><time>2026-04-18T11:17:43.999Z</time></trkpt><trkpt lat="44.48990929729171" lon="10.617310839915392"><ele>490.0</ele><time>2026-04-18T11:17:44.999Z</time></trkpt><trkpt lat="44.489923896536986" lon="10.617465069076202"><ele>489.0</ele><time>2026-04-18T11:17:45.999Z</time></trkpt><trkpt lat="44.48994038142991" lon="10.617609042831205"><ele>488.0</ele><time>2026-04-18T11:17:46.999Z</time></trkpt><trkpt lat="44.489936360877714" lon="10.617705647905689"><ele>487.0</ele><time>2026-04-18T11:17:47.999Z</time></trkpt><trkpt lat="44.49014467383901" lon="10.617534796176935"><ele>487.0</ele><time>2026-04-18T11:17:58.999Z</time></trkpt><trkpt lat="44.4901895492533" lon="10.617443780313806"><ele>487.00000000000006</ele><time>2026-04-18T11:17:59.999Z</time></trkpt><trkpt lat="44.490237151292014" lon="10.617356045640232"><ele>487.00000000000006</ele><time>2026-04-18T11:18:00.999Z</time></trkpt><trkpt lat="44.490290304064516" lon="10.617273955682483"><ele>487.0</ele><time>2026-04-18T11:18:01.999Z</time></trkpt><trkpt lat="44.49037145883169" lon="10.617168553006126"><ele>487.0</ele><time>2026-04-18T11:18:02.999Z</time></trkpt><trkpt lat="44.49046398637599" lon="10.617065546014052"><ele>492.0</ele><time>2026-04-18T11:18:03.999Z</time></trkpt><trkpt lat="44.49059872408002" lon="10.616959107451049"><ele>497.00000000000006</ele><time>2026-04-18T11:18:05.999Z</time></trkpt><trkpt lat="44.49068389275789" lon="10.616890861802354"><ele>502.00000000000006</ele><time>2026-04-18T11:18:06.999Z</time></trkpt><trkpt lat="44.490764214019464" lon="10.616846324325666"><ele>507.0</ele><time>2026-04-18T11:18:07.999Z</time></trkpt><trkpt lat="44.4908296277027" lon="10.616805426674505"><ele>512.0</ele><time>2026-04-18T11:18:08.999Z</time></trkpt><trkpt lat="44.4909046008855" lon="10.616772479374509"><ele>511.99999999999994</ele><time>2026-04-18T11:18:09.999Z</time></trkpt><trkpt lat="44.490977536913455" lon="10.61672735309508"><ele>512.0</ele><time>2026-04-18T11:18:10.999Z</time></trkpt><trkpt lat="44.49104944902229" lon="10.616655129925734"><ele>512.0</ele><time>2026-04-18T11:18:11.999Z</time></trkpt><trkpt lat="44.49115222355887" lon="10.6166538063284"><ele>512.0</ele><time>2026-04-18T11:18:13.999Z</time></trkpt><trkpt lat="44.49126451664797" lon="10.616684316301214"><ele>511.99999999999994</ele><time>2026-04-18T11:18:15.999Z</time></trkpt><trkpt lat="44.49132725079882" lon="10.616696498451516"><ele>512.0</ele><time>2026-04-18T11:18:16.999Z</time></trkpt><trkpt lat="44.491452987112034" lon="10.616707735936027"><ele>514.6666666666666</ele><time>2026-04-18T11:18:18.999Z</time></trkpt><trkpt lat="44.491514844107286" lon="10.616727526039494"><ele>517.3333333333333</ele><time>2026-04-18T11:18:19.999Z</time></trkpt><trkpt lat="44.49159713616146" lon="10.616758487495925"><ele>520.0</ele><time>2026-04-18T11:18:21.999Z</time></trkpt><trkpt lat="44.491679145434816" lon="10.616845820586141"><ele>522.6666666666666</ele><time>2026-04-18T11:18:24.999Z</time></trkpt><trkpt lat="44.491685902684914" lon="10.616985080642749"><ele>525.3333333333334</ele><time>2026-04-18T11:18:26.999Z</time></trkpt><trkpt lat="44.49169422264354" lon="10.617112640201972"><ele>528.0</ele><time>2026-04-18T11:18:28.999Z</time></trkpt><trkpt lat="44.49177514636715" lon="10.61722098846437"><ele>528.0</ele><time>2026-04-18T11:18:30.999Z</time></trkpt><trkpt lat="44.49184404815852" lon="10.617268150150116"><ele>528.0</ele><time>2026-04-18T11:18:32.999Z</time></trkpt><trkpt lat="44.49191059117921" lon="10.6173414153697"><ele>528.0</ele><time>2026-04-18T11:18:34.999Z</time></trkpt><trkpt lat="44.491982816414804" lon="10.617419396875125"><ele>528.0</ele><time>2026-04-18T11:18:36.999Z</time></trkpt><trkpt lat="44.49207741414393" lon="10.6174446533362"><ele>528.0</ele><time>2026-04-18T11:18:38.999Z</time></trkpt><trkpt lat="44.492168722592886" lon="10.617375664470343"><ele>527.1666666666666</ele><time>2026-04-18T11:18:40.999Z</time></trkpt><trkpt lat="44.49224032316138" lon="10.617313093597373"><ele>526.3333333333334</ele><time>2026-04-18T11:18:42.999Z</time></trkpt><trkpt lat="44.49231659428177" lon="10.617273872937448"><ele>525.5</ele><time>2026-04-18T11:18:44.999Z</time></trkpt><trkpt lat="44.49239076128188" lon="10.617323566708993"><ele>524.6666666666667</ele><time>2026-04-18T11:18:45.999Z</time></trkpt><trkpt lat="44.49247618304058" lon="10.617297980360828"><ele>523.8333333333334</ele><time>2026-04-18T11:18:48Z</time></trkpt><trkpt lat="44.49251993999274" lon="10.617202184941512"><ele>523.0</ele><time>2026-04-18T11:18:50Z</time></trkpt><trkpt lat="44.492568149203976" lon="10.617034754462756"><ele>525.0</ele><time>2026-04-18T11:18:52Z</time></trkpt><trkpt lat="44.492594018424796" lon="10.616947352118254"><ele>527.0</ele><time>2026-04-18T11:18:53Z</time></trkpt><trkpt lat="44.49264458290003" lon="10.61679400513965"><ele>529.0</ele><time>2026-04-18T11:18:55Z</time></trkpt><trkpt lat="44.49266890582185" lon="10.616689365964502"><ele>531.0</ele><time>2026-04-18T11:18:56Z</time></trkpt><trkpt lat="44.49268078571055" lon="10.616587080631483"><ele>533.0</ele><time>2026-04-18T11:18:57Z</time></trkpt><trkpt lat="44.4927087921756" lon="10.616481629007428"><ele>535.0</ele><time>2026-04-18T11:18:58Z</time></trkpt><trkpt lat="44.492749189159156" lon="10.61639714514116"><ele>535.0</ele><time>2026-04-18T11:18:59Z</time></trkpt><trkpt lat="44.49278817369962" lon="10.616310200531018"><ele>535.0</ele><time>2026-04-18T11:19:00Z</time></trkpt><trkpt lat="44.49282257711818" lon="10.616224280549226"><ele>535.0</ele><time>2026-04-18T11:19:01Z</time></trkpt><trkpt lat="44.49286802848572" lon="10.61614345982109"><ele>535.0</ele><time>2026-04-18T11:19:02Z</time></trkpt><trkpt lat="44.492923790273395" lon="10.616023597300218"><ele>535.0</ele><time>2026-04-18T11:19:04Z</time></trkpt><trkpt lat="44.49298234525418" lon="10.61596506530166"><ele>535.0</ele><time>2026-04-18T11:19:06Z</time></trkpt><trkpt lat="44.493049147770215" lon="10.615914968273014"><ele>529.0</ele><time>2026-04-18T11:19:53.999Z</time></trkpt><trkpt lat="44.493085262405735" lon="10.615836525565294"><ele>523.0</ele><time>2026-04-18T11:19:55.999Z</time></trkpt><trkpt lat="44.49313702971628" lon="10.615724024203674"><ele>517.0</ele><time>2026-04-18T11:19:57.999Z</time></trkpt><trkpt lat="44.49323958050112" lon="10.615606199649891"><ele>511.0</ele><time>2026-04-18T11:19:59.999Z</time></trkpt><trkpt lat="44.4932838780214" lon="10.615484753813277"><ele>505.0</ele><time>2026-04-18T11:20:01.999Z</time></trkpt><trkpt lat="44.493355659534586" lon="10.615384601468746"><ele>505.00000000000006</ele><time>2026-04-18T11:20:03.999Z</time></trkpt><trkpt lat="44.49345167358195" lon="10.615331296115592"><ele>505.0</ele><time>2026-04-18T11:20:05.999Z</time></trkpt><trkpt lat="44.49353923912503" lon="10.615345189957017"><ele>505.0</ele><time>2026-04-18T11:20:07.999Z</time></trkpt><trkpt lat="44.49351806715831" lon="10.615441152914919"><ele>505.0</ele><time>2026-04-18T11:20:12.999Z</time></trkpt><trkpt lat="44.49345738894454" lon="10.61540135547509"><ele>505.00000000000006</ele><time>2026-04-18T11:20:14.999Z</time></trkpt><trkpt lat="44.49339685932323" lon="10.615354279634818"><ele>505.0</ele><time>2026-04-18T11:20:16.999Z</time></trkpt><trkpt lat="44.493358300308074" lon="10.615439324898274"><ele>505.00000000000006</ele><time>2026-04-18T11:20:18.999Z</time></trkpt><trkpt lat="44.493274683008586" lon="10.615534377945778"><ele>505.0</ele><time>2026-04-18T11:20:20.999Z</time></trkpt><trkpt lat="44.493234420969934" lon="10.615607386297217"><ele>505.0</ele><time>2026-04-18T11:20:21.999Z</time></trkpt><trkpt lat="44.49318383383175" lon="10.615700334181257"><ele>505.0</ele><time>2026-04-18T11:20:22.999Z</time></trkpt><trkpt lat="44.49312703697115" lon="10.615796653253557"><ele>505.00000000000006</ele><time>2026-04-18T11:20:23.999Z</time></trkpt><trkpt lat="44.49307417122934" lon="10.615886013311002"><ele>505.0</ele><time>2026-04-18T11:20:24.999Z</time></trkpt><trkpt lat="44.49302805223307" lon="10.615959047775775"><ele>505.00000000000006</ele><time>2026-04-18T11:20:25.999Z</time></trkpt><trkpt lat="44.49294860955267" lon="10.616068517834535"><ele>505.0</ele><time>2026-04-18T11:20:27.999Z</time></trkpt><trkpt lat="44.492905164942194" lon="10.61617281528154"><ele>505.0</ele><time>2026-04-18T11:20:28.999Z</time></trkpt><trkpt lat="44.49286548900949" lon="10.616284986897144"><ele>505.0</ele><time>2026-04-18T11:20:29.999Z</time></trkpt><trkpt lat="44.492832172035826" lon="10.616377553212818"><ele>505.00000000000006</ele><time>2026-04-18T11:20:30.999Z</time></trkpt><trkpt lat="44.492794306156824" lon="10.61646109440431"><ele>505.0</ele><time>2026-04-18T11:20:31.999Z</time></trkpt><trkpt lat="44.49275610239204" lon="10.61654547789414"><ele>508.6</ele><time>2026-04-18T11:20:32.999Z</time></trkpt><trkpt lat="44.49272515824278" lon="10.616641671672827"><ele>512.2</ele><time>2026-04-18T11:20:33.999Z</time></trkpt><trkpt lat="44.49269619811438" lon="10.61676094792583"><ele>515.8</ele><time>2026-04-18T11:20:34.999Z</time></trkpt><trkpt lat="44.49268287446258" lon="10.616869248223647"><ele>519.4</ele><time>2026-04-18T11:20:35.999Z</time></trkpt><trkpt lat="44.492615572363164" lon="10.617013886683287"><ele>523.0</ele><time>2026-04-18T11:20:37.999Z</time></trkpt><trkpt lat="44.49257749564517" lon="10.617139608467628"><ele>523.0</ele><time>2026-04-18T11:20:38.999Z</time></trkpt><trkpt lat="44.49255478067603" lon="10.617222570372604"><ele>523.0</ele><time>2026-04-18T11:20:39.999Z</time></trkpt><trkpt lat="44.49250573181339" lon="10.617320473146496"><ele>523.0</ele><time>2026-04-18T11:20:41.999Z</time></trkpt><trkpt lat="44.49240148853651" lon="10.61732236867743"><ele>523.0</ele><time>2026-04-18T11:20:44.999Z</time></trkpt><trkpt lat="44.49229311685237" lon="10.61729321422597"><ele>523.0</ele><time>2026-04-18T11:20:46.999Z</time></trkpt><trkpt lat="44.49218857072293" lon="10.617295120538866"><ele>523.0</ele><time>2026-04-18T11:20:48.999Z</time></trkpt><trkpt lat="44.49213859539602" lon="10.61736273452448"><ele>523.0</ele><time>2026-04-18T11:20:51.999Z</time></trkpt><trkpt lat="44.4920625233058" lon="10.617419526821347"><ele>523.0</ele><time>2026-04-18T11:20:55Z</time></trkpt><trkpt lat="44.491986704905926" lon="10.617399568099419"><ele>523.0</ele><time>2026-04-18T11:23:45.999Z</time></trkpt><trkpt lat="44.49190008324881" lon="10.617315718184646"><ele>523.0</ele><time>2026-04-18T11:23:47.999Z</time></trkpt><trkpt lat="44.4918230508672" lon="10.617225649136925"><ele>523.0</ele><time>2026-04-18T11:23:49.999Z</time></trkpt><trkpt lat="44.49174170989129" lon="10.61714758308261"><ele>524.0</ele><time>2026-04-18T11:23:51.999Z</time></trkpt><trkpt lat="44.491703703572604" lon="10.617004240104768"><ele>525.0</ele><time>2026-04-18T11:23:53.999Z</time></trkpt><trkpt lat="44.49168356966653" lon="10.6168690392154"><ele>526.0</ele><time>2026-04-18T11:23:55.999Z</time></trkpt><trkpt lat="44.49168874273357" lon="10.616717125685755"><ele>527.0</ele><time>2026-04-18T11:23:57.999Z</time></trkpt><trkpt lat="44.49170782158386" lon="10.616623350618463"><ele>528.0</ele><time>2026-04-18T11:23:58.999Z</time></trkpt><trkpt lat="44.491717849971224" lon="10.616494841887995"><ele>528.0</ele><time>2026-04-18T11:23:59.999Z</time></trkpt><trkpt lat="44.491763205226924" lon="10.616371930107709"><ele>528.0</ele><time>2026-04-18T11:24:00.999Z</time></trkpt><trkpt lat="44.49179437789937" lon="10.61623308022348"><ele>528.0</ele><time>2026-04-18T11:24:01.999Z</time></trkpt><trkpt lat="44.49182584858167" lon="10.616118080506183"><ele>528.0</ele><time>2026-04-18T11:24:02.999Z</time></trkpt><trkpt lat="44.49186745310011" lon="10.616012685670714"><ele>528.0</ele><time>2026-04-18T11:24:03.999Z</time></trkpt><trkpt lat="44.49191694710983" lon="10.615932030196133"><ele>528.0</ele><time>2026-04-18T11:24:04.999Z</time></trkpt><trkpt lat="44.49198491735865" lon="10.61585914227262"><ele>528.0</ele><time>2026-04-18T11:24:05.999Z</time></trkpt><trkpt lat="44.49205374821903" lon="10.615784643312383"><ele>528.0</ele><time>2026-04-18T11:24:06.999Z</time></trkpt><trkpt lat="44.49212368107977" lon="10.615715691030593"><ele>528.0</ele><time>2026-04-18T11:24:07.999Z</time></trkpt><trkpt lat="44.492187241698595" lon="10.615638083241024"><ele>528.0</ele><time>2026-04-18T11:24:08.999Z</time></trkpt><trkpt lat="44.492258888158474" lon="10.615546142536951"><ele>528.0</ele><time>2026-04-18T11:24:09.999Z</time></trkpt><trkpt lat="44.49235231752161" lon="10.615460822247144"><ele>528.1999999999999</ele><time>2026-04-18T11:24:10.999Z</time></trkpt><trkpt lat="44.49243933877012" lon="10.615380939422069"><ele>528.4</ele><time>2026-04-18T11:24:11.999Z</time></trkpt><trkpt lat="44.4925038765748" lon="10.615297216347619"><ele>528.5999999999999</ele><time>2026-04-18T11:24:12.999Z</time></trkpt><trkpt lat="44.4925618652281" lon="10.61521430700031"><ele>528.8</ele><time>2026-04-18T11:24:13.999Z</time></trkpt><trkpt lat="44.49261714878533" lon="10.615119621543148"><ele>529.0</ele><time>2026-04-18T11:24:14.999Z</time></trkpt><trkpt lat="44.49269238983593" lon="10.614989232745765"><ele>529.0</ele><time>2026-04-18T11:24:15.999Z</time></trkpt><trkpt lat="44.49277289611514" lon="10.614820924120476"><ele>529.0</ele><time>2026-04-18T11:24:16.999Z</time></trkpt><trkpt lat="44.49281706621436" lon="10.614654898865894"><ele>529.0</ele><time>2026-04-18T11:24:17.999Z</time></trkpt><trkpt lat="44.49288314670112" lon="10.614496539523977"><ele>529.0</ele><time>2026-04-18T11:24:18.999Z</time></trkpt><trkpt lat="44.49294038077896" lon="10.61436547458121"><ele>527.0</ele><time>2026-04-18T11:24:19.999Z</time></trkpt><trkpt lat="44.4930062392627" lon="10.614243040216097"><ele>525.0</ele><time>2026-04-18T11:24:20.999Z</time></trkpt><trkpt lat="44.49307657692718" lon="10.614131004769467"><ele>523.0</ele><time>2026-04-18T11:24:21.999Z</time></trkpt><trkpt lat="44.493139116369974" lon="10.614026246397863"><ele>521.0</ele><time>2026-04-18T11:24:22.999Z</time></trkpt><trkpt lat="44.493195557547644" lon="10.613934243904593"><ele>519.0</ele><time>2026-04-18T11:24:23.999Z</time></trkpt><trkpt lat="44.49323467622946" lon="10.613843764870758"><ele>519.0</ele><time>2026-04-18T11:24:24.999Z</time></trkpt><trkpt lat="44.49325343991161" lon="10.613723180961955"><ele>519.0</ele><time>2026-04-18T11:24:25.999Z</time></trkpt><trkpt lat="44.49324926543807" lon="10.61359249283414"><ele>519.0</ele><time>2026-04-18T11:24:26.999Z</time></trkpt><trkpt lat="44.49324139645032" lon="10.613446176266391"><ele>519.0</ele><time>2026-04-18T11:24:27.999Z</time></trkpt><trkpt lat="44.49324144701864" lon="10.613304069719444"><ele>519.0</ele><time>2026-04-18T11:24:28.999Z</time></trkpt><trkpt lat="44.49327229053834" lon="10.613176670237278"><ele>518.0</ele><time>2026-04-18T11:24:29.999Z</time></trkpt><trkpt lat="44.49331534539112" lon="10.613067888122677"><ele>517.0</ele><time>2026-04-18T11:24:30.999Z</time></trkpt><trkpt lat="44.49336805236084" lon="10.612959931587458"><ele>516.0</ele><time>2026-04-18T11:24:31.999Z</time></trkpt><trkpt lat="44.49343338140941" lon="10.612862161395066"><ele>515.0</ele><time>2026-04-18T11:24:32.999Z</time></trkpt><trkpt lat="44.49351008042454" lon="10.612791657317043"><ele>514.0</ele><time>2026-04-18T11:24:33.999Z</time></trkpt><trkpt lat="44.493597118257256" lon="10.612721256092664"><ele>514.0</ele><time>2026-04-18T11:24:34.999Z</time></trkpt><trkpt lat="44.49368082718692" lon="10.612647980167957"><ele>514.0</ele><time>2026-04-18T11:24:35.999Z</time></trkpt><trkpt lat="44.493769238974785" lon="10.61256101344675"><ele>514.0</ele><time>2026-04-18T11:24:36.999Z</time></trkpt><trkpt lat="44.49386333207615" lon="10.612481481212283"><ele>514.0</ele><time>2026-04-18T11:24:37.999Z</time></trkpt><trkpt lat="44.49395958973165" lon="10.612394062959094"><ele>514.0</ele><time>2026-04-18T11:24:38.999Z</time></trkpt><trkpt lat="44.49406008833619" lon="10.612296680387335"><ele>515.5</ele><time>2026-04-18T11:24:39.999Z</time></trkpt><trkpt lat="44.4941657319175" lon="10.61219338416878"><ele>517.0</ele><time>2026-04-18T11:24:40.999Z</time></trkpt><trkpt lat="44.494275328446676" lon="10.612099113569293"><ele>518.5</ele><time>2026-04-18T11:24:41.999Z</time></trkpt><trkpt lat="44.49438091223164" lon="10.612006789492828"><ele>520.0</ele><time>2026-04-18T11:24:42.999Z</time></trkpt><trkpt lat="44.49446581650842" lon="10.611898996591952"><ele>520.0</ele><time>2026-04-18T11:24:43.999Z</time></trkpt><trkpt lat="44.49454221841985" lon="10.61178972305282"><ele>520.0</ele><time>2026-04-18T11:24:44.999Z</time></trkpt><trkpt lat="44.494549092365695" lon="10.61163846549976"><ele>520.0</ele><time>2026-04-18T11:24:45.999Z</time></trkpt><trkpt lat="44.49454073309101" lon="10.61148204843804"><ele>520.0</ele><time>2026-04-18T11:24:46.999Z</time></trkpt><trkpt lat="44.49450942460561" lon="10.611300345409967"><ele>521.0</ele><time>2026-04-18T11:24:47.999Z</time></trkpt><trkpt lat="44.49446975211343" lon="10.61112863110754"><ele>522.0</ele><time>2026-04-18T11:24:48.999Z</time></trkpt><trkpt lat="44.49442767851983" lon="10.610939260078592"><ele>523.0</ele><time>2026-04-18T11:24:49.999Z</time></trkpt><trkpt lat="44.49439708640679" lon="10.610697860342638"><ele>524.0</ele><time>2026-04-18T11:24:50.999Z</time></trkpt><trkpt lat="44.49440489695082" lon="10.610433036995445"><ele>526.6666666666666</ele><time>2026-04-18T11:24:51.999Z</time></trkpt><trkpt lat="44.49443448746284" lon="10.61017751302939"><ele>529.3333333333334</ele><time>2026-04-18T11:24:52.999Z</time></trkpt><trkpt lat="44.494462666339004" lon="10.60993552464663"><ele>532.0</ele><time>2026-04-18T11:24:53.999Z</time></trkpt><trkpt lat="44.4944931011178" lon="10.609703891539322"><ele>532.0</ele><time>2026-04-18T11:24:54.999Z</time></trkpt><trkpt lat="44.494532047071544" lon="10.609499110991825"><ele>532.0</ele><time>2026-04-18T11:24:55.999Z</time></trkpt><trkpt lat="44.49460795142305" lon="10.609307897887946"><ele>532.0</ele><time>2026-04-18T11:24:56.999Z</time></trkpt><trkpt lat="44.49469912698949" lon="10.609138556324377"><ele>529.5</ele><time>2026-04-18T11:24:57.999Z</time></trkpt><trkpt lat="44.4947817583584" lon="10.608958769114304"><ele>527.0</ele><time>2026-04-18T11:24:58.999Z</time></trkpt><trkpt lat="44.494888684816196" lon="10.608829704311908"><ele>524.5</ele><time>2026-04-18T11:24:59.999Z</time></trkpt><trkpt lat="44.49498874948195" lon="10.608667675627567"><ele>522.0</ele><time>2026-04-18T11:25:00.999Z</time></trkpt><trkpt lat="44.49505778973763" lon="10.608485757484493"><ele>521.6666666666666</ele><time>2026-04-18T11:25:01.999Z</time></trkpt><trkpt lat="44.49510755363663" lon="10.608272236395392"><ele>521.3333333333333</ele><time>2026-04-18T11:25:02.999Z</time></trkpt><trkpt lat="44.495144645513136" lon="10.608049333478409"><ele>521.0</ele><time>2026-04-18T11:25:03.999Z</time></trkpt><trkpt lat="44.49519560885998" lon="10.607816179757618"><ele>521.6666666666666</ele><time>2026-04-18T11:25:04.999Z</time></trkpt><trkpt lat="44.495265125711526" lon="10.607603809482995"><ele>522.3333333333334</ele><time>2026-04-18T11:25:05.999Z</time></trkpt><trkpt lat="44.49536107869106" lon="10.607413261086863"><ele>523.0</ele><time>2026-04-18T11:25:06.999Z</time></trkpt><trkpt lat="44.49550141965837" lon="10.607265810110947"><ele>524.0</ele><time>2026-04-18T11:25:07.999Z</time></trkpt><trkpt lat="44.49564662605527" lon="10.607088485078433"><ele>525.0</ele><time>2026-04-18T11:25:08.999Z</time></trkpt><trkpt lat="44.49573778566926" lon="10.606935821820555"><ele>526.0</ele><time>2026-04-18T11:25:09.999Z</time></trkpt><trkpt lat="44.495806404042945" lon="10.606831054179473"><ele>527.0</ele><time>2026-04-18T11:25:10.999Z</time></trkpt><trkpt lat="44.4958877779855" lon="10.606750236166665"><ele>527.0</ele><time>2026-04-18T11:25:11.999Z</time></trkpt><trkpt lat="44.49592635514503" lon="10.606644337647317"><ele>527.0</ele><time>2026-04-18T11:25:12.999Z</time></trkpt><trkpt lat="44.495976576689394" lon="10.60651036532548"><ele>527.0</ele><time>2026-04-18T11:25:13.999Z</time></trkpt><trkpt lat="44.49600931777137" lon="10.606365435623061"><ele>527.0</ele><time>2026-04-18T11:25:14.999Z</time></trkpt><trkpt lat="44.496070858496516" lon="10.60625309739469"><ele>527.0</ele><time>2026-04-18T11:25:15.999Z</time></trkpt><trkpt lat="44.49612877307751" lon="10.60614383753831"><ele>526.75</ele><time>2026-04-18T11:25:16.999Z</time></trkpt><trkpt lat="44.49616814001111" lon="10.606046869843674"><ele>526.5</ele><time>2026-04-18T11:25:17.999Z</time></trkpt><trkpt lat="44.496279799395296" lon="10.606059377918957"><ele>526.25</ele><time>2026-04-18T11:25:18.999Z</time></trkpt><trkpt lat="44.49626540701993" lon="10.605850307741244"><ele>526.0</ele><time>2026-04-18T11:25:19.999Z</time></trkpt><trkpt lat="44.496408435310855" lon="10.605848211932795"><ele>527.25</ele><time>2026-04-18T11:25:22.999Z</time></trkpt><trkpt lat="44.496535133510775" lon="10.605826682057176"><ele>528.5</ele><time>2026-04-18T11:25:23.999Z</time></trkpt><trkpt lat="44.49666750164157" lon="10.605830412330722"><ele>529.75</ele><time>2026-04-18T11:25:24.999Z</time></trkpt><trkpt lat="44.49678836267135" lon="10.605840874253785"><ele>531.0</ele><time>2026-04-18T11:25:25.999Z</time></trkpt><trkpt lat="44.496905591287614" lon="10.605847463144618"><ele>531.0</ele><time>2026-04-18T11:25:26.999Z</time></trkpt><trkpt lat="44.49702132933494" lon="10.60585598747234"><ele>531.0</ele><time>2026-04-18T11:25:27.999Z</time></trkpt><trkpt lat="44.49713939458879" lon="10.605901013634272"><ele>531.0</ele><time>2026-04-18T11:25:28.999Z</time></trkpt><trkpt lat="44.497249180736915" lon="10.605946072505096"><ele>531.0</ele><time>2026-04-18T11:25:29.999Z</time></trkpt><trkpt lat="44.497358273368576" lon="10.606003728610748"><ele>531.25</ele><time>2026-04-18T11:25:30.999Z</time></trkpt><trkpt lat="44.4974722575491" lon="10.606058148827392"><ele>531.5</ele><time>2026-04-18T11:25:31.999Z</time></trkpt><trkpt lat="44.49758880899142" lon="10.606110691220826"><ele>531.75</ele><time>2026-04-18T11:25:32.999Z</time></trkpt><trkpt lat="44.49770697431419" lon="10.606157971439195"><ele>532.0</ele><time>2026-04-18T11:25:33.999Z</time></trkpt><trkpt lat="44.49782022959722" lon="10.606181701284504"><ele>533.75</ele><time>2026-04-18T11:25:34.999Z</time></trkpt><trkpt lat="44.49793883931294" lon="10.606160164916059"><ele>535.5</ele><time>2026-04-18T11:25:35.999Z</time></trkpt><trkpt lat="44.49803783310226" lon="10.606091310443357"><ele>537.25</ele><time>2026-04-18T11:25:36.999Z</time></trkpt><trkpt lat="44.49812867912684" lon="10.605967350742365"><ele>539.0</ele><time>2026-04-18T11:25:37.999Z</time></trkpt><trkpt lat="44.49820130345669" lon="10.605819697498063"><ele>539.0</ele><time>2026-04-18T11:25:38.999Z</time></trkpt><trkpt lat="44.498261102439606" lon="10.605648504746213"><ele>539.0</ele><time>2026-04-18T11:25:39.999Z</time></trkpt><trkpt lat="44.49832187641632" lon="10.60548097180944"><ele>539.0</ele><time>2026-04-18T11:25:40.999Z</time></trkpt><trkpt lat="44.49839702524299" lon="10.6053281127277"><ele>539.0</ele><time>2026-04-18T11:25:41.999Z</time></trkpt><trkpt lat="44.49846609456581" lon="10.605183898723393"><ele>538.8</ele><time>2026-04-18T11:25:42.999Z</time></trkpt><trkpt lat="44.49851045520498" lon="10.60504644286231"><ele>538.5999999999999</ele><time>2026-04-18T11:25:43.999Z</time></trkpt><trkpt lat="44.49852380357008" lon="10.604898886630524"><ele>538.4</ele><time>2026-04-18T11:25:44.999Z</time></trkpt><trkpt lat="44.498515507065" lon="10.604750183726003"><ele>538.1999999999999</ele><time>2026-04-18T11:25:45.999Z</time></trkpt><trkpt lat="44.49849041389012" lon="10.6045951805044"><ele>538.0</ele><time>2026-04-18T11:25:46.999Z</time></trkpt><trkpt lat="44.498457289400754" lon="10.604430131647423"><ele>538.5</ele><time>2026-04-18T11:25:47.999Z</time></trkpt><trkpt lat="44.498419558490745" lon="10.604262638940986"><ele>539.0</ele><time>2026-04-18T11:25:48.999Z</time></trkpt><trkpt lat="44.498384273942364" lon="10.604105310327036"><ele>539.5</ele><time>2026-04-18T11:25:49.999Z</time></trkpt><trkpt lat="44.498364828202284" lon="10.603941595827871"><ele>540.0</ele><time>2026-04-18T11:25:50.999Z</time></trkpt><trkpt lat="44.49836918570238" lon="10.603792505398717"><ele>539.6</ele><time>2026-04-18T11:25:51.999Z</time></trkpt><trkpt lat="44.49837361783229" lon="10.603662531304806"><ele>539.2</ele><time>2026-04-18T11:25:52.999Z</time></trkpt><trkpt lat="44.49838175168526" lon="10.60354646030488"><ele>538.8</ele><time>2026-04-18T11:25:53.999Z</time></trkpt><trkpt lat="44.498441228739665" lon="10.60342421473552"><ele>538.4</ele><time>2026-04-18T11:25:55.999Z</time></trkpt><trkpt lat="44.49859975188188" lon="10.60336134233661"><ele>538.0</ele><time>2026-04-18T11:25:57.999Z</time></trkpt><trkpt lat="44.49869438448003" lon="10.603464065110382"><ele>538.75</ele><time>2026-04-18T11:25:58.999Z</time></trkpt><trkpt lat="44.49882064270636" lon="10.603512717320994"><ele>539.5</ele><time>2026-04-18T11:25:59.999Z</time></trkpt><trkpt lat="44.49895962236066" lon="10.603562213051708"><ele>540.25</ele><time>2026-04-18T11:26:00.999Z</time></trkpt><trkpt lat="44.49910422594858" lon="10.603589070702352"><ele>541.0</ele><time>2026-04-18T11:26:01.999Z</time></trkpt><trkpt lat="44.4992619809432" lon="10.603589628007587"><ele>541.0</ele><time>2026-04-18T11:26:02.999Z</time></trkpt><trkpt lat="44.499409806256175" lon="10.603551706258825"><ele>541.0</ele><time>2026-04-18T11:26:03.999Z</time></trkpt><trkpt lat="44.499579069212615" lon="10.603456431410589"><ele>541.0</ele><time>2026-04-18T11:26:04.999Z</time></trkpt><trkpt lat="44.499734898415234" lon="10.603323666561568"><ele>543.25</ele><time>2026-04-18T11:26:05.999Z</time></trkpt><trkpt lat="44.499853327615725" lon="10.603216202968161"><ele>545.5</ele><time>2026-04-18T11:26:06.999Z</time></trkpt><trkpt lat="44.49994679841928" lon="10.603088030619183"><ele>547.75</ele><time>2026-04-18T11:26:07.999Z</time></trkpt><trkpt lat="44.5000166172897" lon="10.602918288904027"><ele>550.0</ele><time>2026-04-18T11:26:08.999Z</time></trkpt><trkpt lat="44.500055633068264" lon="10.602719653461987"><ele>550.0</ele><time>2026-04-18T11:26:09.999Z</time></trkpt><trkpt lat="44.50008667893032" lon="10.602494635922294"><ele>550.0</ele><time>2026-04-18T11:26:10.999Z</time></trkpt><trkpt lat="44.500119490835715" lon="10.602281327412296"><ele>550.0</ele><time>2026-04-18T11:26:11.999Z</time></trkpt><trkpt lat="44.500182250342604" lon="10.602073910404119"><ele>547.3333333333334</ele><time>2026-04-18T11:26:12.999Z</time></trkpt><trkpt lat="44.5002949576465" lon="10.60189181988002"><ele>544.6666666666666</ele><time>2026-04-18T11:26:13.999Z</time></trkpt><trkpt lat="44.500388813943" lon="10.601669640146588"><ele>542.0</ele><time>2026-04-18T11:26:14.999Z</time></trkpt><trkpt lat="44.50047510761171" lon="10.60147315335863"><ele>544.25</ele><time>2026-04-18T11:26:15.999Z</time></trkpt><trkpt lat="44.50054250345212" lon="10.601293351949021"><ele>546.5</ele><time>2026-04-18T11:26:16.999Z</time></trkpt><trkpt lat="44.50059961716594" lon="10.601134828746579"><ele>548.75</ele><time>2026-04-18T11:26:17.999Z</time></trkpt><trkpt lat="44.50066767491163" lon="10.600996965055767"><ele>551.0</ele><time>2026-04-18T11:26:18.999Z</time></trkpt><trkpt lat="44.50075999990299" lon="10.600909837691901"><ele>551.0</ele><time>2026-04-18T11:26:19.999Z</time></trkpt><trkpt lat="44.50086261645776" lon="10.600869836335722"><ele>551.0</ele><time>2026-04-18T11:26:20.999Z</time></trkpt><trkpt lat="44.500974582958364" lon="10.600890567417965"><ele>551.0</ele><time>2026-04-18T11:26:21.999Z</time></trkpt><trkpt lat="44.501061889699784" lon="10.60100150245546"><ele>551.0</ele><time>2026-04-18T11:26:22.999Z</time></trkpt><trkpt lat="44.50114370204453" lon="10.601138366973892"><ele>554.6666666666666</ele><time>2026-04-18T11:26:23.999Z</time></trkpt><trkpt lat="44.50124942536353" lon="10.601300403235387"><ele>558.3333333333334</ele><time>2026-04-18T11:26:24.999Z</time></trkpt><trkpt lat="44.50135901610267" lon="10.6014635633174"><ele>562.0</ele><time>2026-04-18T11:26:25.999Z</time></trkpt><trkpt lat="44.501455697774034" lon="10.601665113855352"><ele>562.0</ele><time>2026-04-18T11:26:26.999Z</time></trkpt><trkpt lat="44.50153923260418" lon="10.601850992867705"><ele>562.0</ele><time>2026-04-18T11:26:27.999Z</time></trkpt><trkpt lat="44.50160965657711" lon="10.602025719638133"><ele>562.0</ele><time>2026-04-18T11:26:28.999Z</time></trkpt><trkpt lat="44.50166957793533" lon="10.602172843761304"><ele>562.0</ele><time>2026-04-18T11:26:29.999Z</time></trkpt><trkpt lat="44.50171880637534" lon="10.602305248208001"><ele>564.6</ele><time>2026-04-18T11:26:30.999Z</time></trkpt><trkpt lat="44.501775158634956" lon="10.602409005737885"><ele>567.2</ele><time>2026-04-18T11:26:31.999Z</time></trkpt><trkpt lat="44.501848427750744" lon="10.602506995166165"><ele>569.8</ele><time>2026-04-18T11:26:32.999Z</time></trkpt><trkpt lat="44.501930508515485" lon="10.602593848676555"><ele>572.4</ele><time>2026-04-18T11:26:33.999Z</time></trkpt><trkpt lat="44.50201926194244" lon="10.602669766834023"><ele>575.0</ele><time>2026-04-18T11:26:34.999Z</time></trkpt><trkpt lat="44.502102787056636" lon="10.602740946527891"><ele>575.0</ele><time>2026-04-18T11:26:35.999Z</time></trkpt><trkpt lat="44.5021686255138" lon="10.602792624850371"><ele>575.0</ele><time>2026-04-18T11:26:36.999Z</time></trkpt><trkpt lat="44.502225560103135" lon="10.602839694174683"><ele>575.0</ele><time>2026-04-18T11:26:37.999Z</time></trkpt><trkpt lat="44.50228086174972" lon="10.602939528220695"><ele>575.0</ele><time>2026-04-18T11:26:39.999Z</time></trkpt><trkpt lat="44.502326283936696" lon="10.603003085553707"><ele>575.0</ele><time>2026-04-18T11:26:42.999Z</time></trkpt><trkpt lat="44.50242866269752" lon="10.602914555889813"><ele>575.0</ele><time>2026-04-18T11:26:44.999Z</time></trkpt><trkpt lat="44.502278910794026" lon="10.602763661849872"><ele>575.0</ele><time>2026-04-18T11:29:43.999Z</time></trkpt><trkpt lat="44.502208658410325" lon="10.602833977445513"><ele>575.0</ele><time>2026-04-18T11:30:08.999Z</time></trkpt><trkpt lat="44.50206529759227" lon="10.60274798492311"><ele>575.0</ele><time>2026-04-18T11:30:10.999Z</time></trkpt><trkpt lat="44.50200653545621" lon="10.602674285568748"><ele>575.0</ele><time>2026-04-18T11:30:12.999Z</time></trkpt><trkpt lat="44.502078596653774" lon="10.60260775670746"><ele>575.0</ele><time>2026-04-18T11:30:13.999Z</time></trkpt><trkpt lat="44.502153679519346" lon="10.60260306878175"><ele>575.0</ele><time>2026-04-18T11:30:14.999Z</time></trkpt><trkpt lat="44.50232631874981" lon="10.602572914107238"><ele>575.0</ele><time>2026-04-18T11:30:15.999Z</time></trkpt><trkpt lat="44.502251513357265" lon="10.602853906787068"><ele>575.0</ele><time>2026-04-18T11:30:19.999Z</time></trkpt><trkpt lat="44.50238380028658" lon="10.602785465407964"><ele>575.0</ele><time>2026-04-18T11:33:07.999Z</time></trkpt><trkpt lat="44.50231727530366" lon="10.602757525348578"><ele>575.0</ele><time>2026-04-18T11:35:07.999Z</time></trkpt><trkpt lat="44.50229431110732" lon="10.60266184058825"><ele>575.0</ele><time>2026-04-18T11:35:11.999Z</time></trkpt><trkpt lat="44.50233914752918" lon="10.602551043291175"><ele>575.0</ele><time>2026-04-18T11:35:14.999Z</time></trkpt><trkpt lat="44.50241255768285" lon="10.602527560562995"><ele>575.0</ele><time>2026-04-18T11:35:16.999Z</time></trkpt><trkpt lat="44.502461512940584" lon="10.602458785034639"><ele>575.0</ele><time>2026-04-18T11:35:18.999Z</time></trkpt><trkpt lat="44.50248740660657" lon="10.602377710491487"><ele>575.0</ele><time>2026-04-18T11:35:20.999Z</time></trkpt><trkpt lat="44.502534870672655" lon="10.602299756881811"><ele>575.0</ele><time>2026-04-18T11:35:22.999Z</time></trkpt><trkpt lat="44.50248201387591" lon="10.602094321249464"><ele>575.0</ele><time>2026-04-18T11:35:24.999Z</time></trkpt><trkpt lat="44.502458870238016" lon="10.602006638230648"><ele>575.0</ele><time>2026-04-18T11:35:25.999Z</time></trkpt><trkpt lat="44.50250485363764" lon="10.601918072199114"><ele>575.0</ele><time>2026-04-18T11:35:27.999Z</time></trkpt><trkpt lat="44.502473190982386" lon="10.602128273127853"><ele>575.0</ele><time>2026-04-18T11:35:42.451Z</time></trkpt><trkpt lat="44.50236534817375" lon="10.602462237773256"><ele>575.0</ele><time>2026-04-18T11:35:49.391Z</time></trkpt><trkpt lat="44.50228875179378" lon="10.602734276282408"><ele>575.25</ele><time>2026-04-18T11:35:55.455Z</time></trkpt><trkpt lat="44.50233614058722" lon="10.603037627610558"><ele>575.5</ele><time>2026-04-18T11:54:06.415Z</time></trkpt><trkpt lat="44.50230220066908" lon="10.60291777685513"><ele>575.75</ele><time>2026-04-18T11:54:19.41Z</time></trkpt><trkpt lat="44.502385117130764" lon="10.60289353244256"><ele>576.0</ele><time>2026-04-18T11:54:29.998Z</time></trkpt><trkpt lat="44.50245400482522" lon="10.602901081872755"><ele>576.0</ele><time>2026-04-18T11:54:32.998Z</time></trkpt><trkpt lat="44.502411432763324" lon="10.602985002023852"><ele>576.0</ele><time>2026-04-18T11:56:39.001Z</time></trkpt><trkpt lat="44.5023763774759" lon="10.603134711038118"><ele>576.0</ele><time>2026-04-18T11:56:41.001Z</time></trkpt><trkpt lat="44.502411359394095" lon="10.603291116881062"><ele>576.0</ele><time>2026-04-18T11:56:43.001Z</time></trkpt><trkpt lat="44.50248804741933" lon="10.603425570147131"><ele>576.0</ele><time>2026-04-18T11:56:45.001Z</time></trkpt><trkpt lat="44.50255241648543" lon="10.603486890630474"><ele>576.0</ele><time>2026-04-18T11:56:46.001Z</time></trkpt><trkpt lat="44.50262633281186" lon="10.603554740428354"><ele>576.0</ele><time>2026-04-18T11:56:47.001Z</time></trkpt><trkpt lat="44.50269084805252" lon="10.603617330430223"><ele>576.0</ele><time>2026-04-18T11:56:48.001Z</time></trkpt><trkpt lat="44.50275897515835" lon="10.603681198566324"><ele>576.0</ele><time>2026-04-18T11:56:49.001Z</time></trkpt><trkpt lat="44.502832773927054" lon="10.60375300975075"><ele>576.0</ele><time>2026-04-18T11:56:50.001Z</time></trkpt><trkpt lat="44.502917551735436" lon="10.603833118281601"><ele>576.0</ele><time>2026-04-18T11:56:51.001Z</time></trkpt><trkpt lat="44.50299923242284" lon="10.603901459804106"><ele>574.8</ele><time>2026-04-18T11:56:52.001Z</time></trkpt><trkpt lat="44.50307759151794" lon="10.603955383905475"><ele>573.6</ele><time>2026-04-18T11:56:53.001Z</time></trkpt><trkpt lat="44.50315869370592" lon="10.604061415119709"><ele>572.4</ele><time>2026-04-18T11:56:54.001Z</time></trkpt><trkpt lat="44.503255323064586" lon="10.604106384763172"><ele>571.2</ele><time>2026-04-18T11:56:55.001Z</time></trkpt><trkpt lat="44.50336439657426" lon="10.604128332570243"><ele>570.0</ele><time>2026-04-18T11:56:56.001Z</time></trkpt><trkpt lat="44.50346526797713" lon="10.604134941558783"><ele>570.0</ele><time>2026-04-18T11:56:57.001Z</time></trkpt><trkpt lat="44.50355815363441" lon="10.604161818976804"><ele>570.0</ele><time>2026-04-18T11:56:58.001Z</time></trkpt><trkpt lat="44.503653607813675" lon="10.60423060516601"><ele>570.0</ele><time>2026-04-18T11:56:59.001Z</time></trkpt><trkpt lat="44.503738407388916" lon="10.604372970819837"><ele>570.0</ele><time>2026-04-18T11:57:00.001Z</time></trkpt><trkpt lat="44.50384906691765" lon="10.60453061810341"><ele>569.25</ele><time>2026-04-18T11:57:01Z</time></trkpt><trkpt lat="44.503906779103474" lon="10.604710277797428"><ele>568.5</ele><time>2026-04-18T11:57:02Z</time></trkpt><trkpt lat="44.50389886857734" lon="10.604897948246931"><ele>567.75</ele><time>2026-04-18T11:57:03Z</time></trkpt><trkpt lat="44.50390219929492" lon="10.605087573535632"><ele>567.0</ele><time>2026-04-18T11:57:04Z</time></trkpt><trkpt lat="44.50391349449638" lon="10.605277077248275"><ele>564.5</ele><time>2026-04-18T11:57:05Z</time></trkpt><trkpt lat="44.50393712472122" lon="10.60546584297725"><ele>562.0</ele><time>2026-04-18T11:57:06Z</time></trkpt><trkpt lat="44.504015757539484" lon="10.605631258305127"><ele>559.5</ele><time>2026-04-18T11:57:07Z</time></trkpt><trkpt lat="44.50410296921123" lon="10.605800279994998"><ele>557.0</ele><time>2026-04-18T11:57:08Z</time></trkpt><trkpt lat="44.5041874337922" lon="10.605959690523926"><ele>557.0</ele><time>2026-04-18T11:57:09Z</time></trkpt><trkpt lat="44.504298667617434" lon="10.606075319396847"><ele>557.0</ele><time>2026-04-18T11:57:10Z</time></trkpt><trkpt lat="44.504420752333175" lon="10.606172521401952"><ele>557.0</ele><time>2026-04-18T11:57:11Z</time></trkpt><trkpt lat="44.50454876808981" lon="10.606239405767154"><ele>557.0</ele><time>2026-04-18T11:57:12Z</time></trkpt><trkpt lat="44.5046729663022" lon="10.606269724199556"><ele>559.0</ele><time>2026-04-18T11:57:13Z</time></trkpt><trkpt lat="44.50479294632325" lon="10.606248310098511"><ele>561.0</ele><time>2026-04-18T11:57:14Z</time></trkpt><trkpt lat="44.50490834644722" lon="10.606187506046123"><ele>563.0</ele><time>2026-04-18T11:57:15Z</time></trkpt><trkpt lat="44.50501754120876" lon="10.606121834943252"><ele>565.0</ele><time>2026-04-18T11:57:16Z</time></trkpt><trkpt lat="44.50512221631625" lon="10.606105283513045"><ele>560.75</ele><time>2026-04-18T11:57:17Z</time></trkpt><trkpt lat="44.50521891410693" lon="10.606185691160421"><ele>556.5</ele><time>2026-04-18T11:57:18Z</time></trkpt><trkpt lat="44.505297444406736" lon="10.60629970801406"><ele>552.25</ele><time>2026-04-18T11:57:19Z</time></trkpt><trkpt lat="44.50536271118695" lon="10.606438887078234"><ele>548.0</ele><time>2026-04-18T11:57:20Z</time></trkpt><trkpt lat="44.505343909754615" lon="10.606618936084628"><ele>548.0</ele><time>2026-04-18T11:57:21Z</time></trkpt><trkpt lat="44.50536570340343" lon="10.606783447049754"><ele>548.0</ele><time>2026-04-18T11:57:22Z</time></trkpt><trkpt lat="44.505374258734165" lon="10.6069225891179"><ele>548.0</ele><time>2026-04-18T11:57:23Z</time></trkpt><trkpt lat="44.50543599734202" lon="10.607028958349801"><ele>548.0</ele><time>2026-04-18T11:57:24Z</time></trkpt><trkpt lat="44.50555169860599" lon="10.607133942374233"><ele>548.0</ele><time>2026-04-18T11:57:25Z</time></trkpt><trkpt lat="44.505673010499194" lon="10.60724871628363"><ele>548.0</ele><time>2026-04-18T11:57:26Z</time></trkpt><trkpt lat="44.505763121245465" lon="10.607390354569244"><ele>548.0</ele><time>2026-04-18T11:57:27Z</time></trkpt><trkpt lat="44.50579531675017" lon="10.607596359577347"><ele>548.0</ele><time>2026-04-18T11:57:28Z</time></trkpt><trkpt lat="44.50583582016056" lon="10.607778174476897"><ele>546.1999999999999</ele><time>2026-04-18T11:57:29Z</time></trkpt><trkpt lat="44.50586214511417" lon="10.60794154865757"><ele>544.4</ele><time>2026-04-18T11:57:30Z</time></trkpt><trkpt lat="44.50590910283001" lon="10.608093014394173"><ele>542.5999999999999</ele><time>2026-04-18T11:57:31Z</time></trkpt><trkpt lat="44.50596395022936" lon="10.608223437615692"><ele>540.8</ele><time>2026-04-18T11:57:32Z</time></trkpt><trkpt lat="44.50603977485984" lon="10.608312764772485"><ele>539.0</ele><time>2026-04-18T11:57:33Z</time></trkpt><trkpt lat="44.50613893930509" lon="10.6083513092598"><ele>541.5</ele><time>2026-04-18T11:57:34Z</time></trkpt><trkpt lat="44.50626161335411" lon="10.608357643585625"><ele>544.0</ele><time>2026-04-18T11:57:35Z</time></trkpt><trkpt lat="44.5064092333173" lon="10.60832782384434"><ele>546.5</ele><time>2026-04-18T11:57:36Z</time></trkpt><trkpt lat="44.50655997975054" lon="10.608310675853785"><ele>549.0</ele><time>2026-04-18T11:57:37Z</time></trkpt><trkpt lat="44.506696546456936" lon="10.608336824075645"><ele>549.0</ele><time>2026-04-18T11:57:38Z</time></trkpt><trkpt lat="44.506825451223015" lon="10.608408020879253"><ele>549.0</ele><time>2026-04-18T11:57:39Z</time></trkpt><trkpt lat="44.5069340104873" lon="10.608486437312655"><ele>549.0</ele><time>2026-04-18T11:57:40Z</time></trkpt><trkpt lat="44.50702308510538" lon="10.60857568514539"><ele>549.0</ele><time>2026-04-18T11:57:41Z</time></trkpt><trkpt lat="44.50708584704114" lon="10.608686039232092"><ele>548.75</ele><time>2026-04-18T11:57:42Z</time></trkpt><trkpt lat="44.50710088871396" lon="10.608831827496362"><ele>548.5</ele><time>2026-04-18T11:57:43Z</time></trkpt><trkpt lat="44.5070962440849" lon="10.609011707813432"><ele>548.25</ele><time>2026-04-18T11:57:44Z</time></trkpt><trkpt lat="44.50710908746533" lon="10.609215559720623"><ele>548.0</ele><time>2026-04-18T11:57:45Z</time></trkpt><trkpt lat="44.50714510084151" lon="10.60940489035103"><ele>543.0</ele><time>2026-04-18T11:57:46Z</time></trkpt><trkpt lat="44.507207437329306" lon="10.609570404868528"><ele>538.0</ele><time>2026-04-18T11:57:47Z</time></trkpt><trkpt lat="44.507291866377535" lon="10.609728812720462"><ele>533.0</ele><time>2026-04-18T11:57:48Z</time></trkpt><trkpt lat="44.507387951184114" lon="10.609884870657112"><ele>528.0</ele><time>2026-04-18T11:57:49Z</time></trkpt><trkpt lat="44.50749683862686" lon="10.610038609867129"><ele>528.0</ele><time>2026-04-18T11:57:50Z</time></trkpt><trkpt lat="44.507611012694646" lon="10.610168586885298"><ele>528.0</ele><time>2026-04-18T11:57:51Z</time></trkpt><trkpt lat="44.50772285349559" lon="10.610248073997967"><ele>528.0</ele><time>2026-04-18T11:57:52Z</time></trkpt><trkpt lat="44.507835045190745" lon="10.610289055993997"><ele>528.0</ele><time>2026-04-18T11:57:53Z</time></trkpt><trkpt lat="44.507948089166014" lon="10.610286673784929"><ele>530.5</ele><time>2026-04-18T11:57:54Z</time></trkpt><trkpt lat="44.50807018207684" lon="10.610235119240569"><ele>533.0</ele><time>2026-04-18T11:57:55Z</time></trkpt><trkpt lat="44.50818974113813" lon="10.61017634105484"><ele>535.5</ele><time>2026-04-18T11:57:56Z</time></trkpt><trkpt lat="44.50829916850037" lon="10.610115165315246"><ele>538.0</ele><time>2026-04-18T11:57:57Z</time></trkpt><trkpt lat="44.508401052486064" lon="10.61008352368991"><ele>538.0</ele><time>2026-04-18T11:57:58Z</time></trkpt><trkpt lat="44.508495136640505" lon="10.610098375591878"><ele>538.0</ele><time>2026-04-18T11:57:59Z</time></trkpt><trkpt lat="44.50857786380066" lon="10.610172795034275"><ele>538.0</ele><time>2026-04-18T11:58:00Z</time></trkpt><trkpt lat="44.50863008730017" lon="10.610296382489382"><ele>538.0</ele><time>2026-04-18T11:58:01Z</time></trkpt><trkpt lat="44.508662072720355" lon="10.61045624490784"><ele>538.0</ele><time>2026-04-18T11:58:02Z</time></trkpt><trkpt lat="44.50869165608611" lon="10.610654274603295"><ele>538.25</ele><time>2026-04-18T11:58:03Z</time></trkpt><trkpt lat="44.50872492726013" lon="10.610837213970882"><ele>538.5</ele><time>2026-04-18T11:58:04Z</time></trkpt><trkpt lat="44.50875334828852" lon="10.610991544243525"><ele>538.75</ele><time>2026-04-18T11:58:05Z</time></trkpt><trkpt lat="44.5087679776185" lon="10.611159411180408"><ele>539.0</ele><time>2026-04-18T11:58:06Z</time></trkpt><trkpt lat="44.50875456764852" lon="10.6113171881013"><ele>536.25</ele><time>2026-04-18T11:58:07Z</time></trkpt><trkpt lat="44.50872651872057" lon="10.611469271122823"><ele>533.5</ele><time>2026-04-18T11:58:08Z</time></trkpt><trkpt lat="44.5087194242805" lon="10.611608743471203"><ele>530.75</ele><time>2026-04-18T11:58:09Z</time></trkpt><trkpt lat="44.50875045440053" lon="10.61174928306341"><ele>528.0</ele><time>2026-04-18T11:58:10Z</time></trkpt><trkpt lat="44.50881784775905" lon="10.611915020051581"><ele>524.5</ele><time>2026-04-18T11:58:11Z</time></trkpt><trkpt lat="44.50889852523585" lon="10.612087391673775"><ele>521.0</ele><time>2026-04-18T11:58:12Z</time></trkpt><trkpt lat="44.50898054216981" lon="10.61224702442716"><ele>517.5</ele><time>2026-04-18T11:58:13Z</time></trkpt><trkpt lat="44.50908751377594" lon="10.61234905677329"><ele>514.0</ele><time>2026-04-18T11:58:14Z</time></trkpt><trkpt lat="44.50921163981023" lon="10.6124132893648"><ele>514.0</ele><time>2026-04-18T11:58:15Z</time></trkpt><trkpt lat="44.50931451372581" lon="10.612496145503096"><ele>514.0</ele><time>2026-04-18T11:58:16Z</time></trkpt><trkpt lat="44.50937690623494" lon="10.61263546884859"><ele>514.0</ele><time>2026-04-18T11:58:17Z</time></trkpt><trkpt lat="44.509449080127986" lon="10.6127484470687"><ele>514.0</ele><time>2026-04-18T11:58:18Z</time></trkpt><trkpt lat="44.50945953065453" lon="10.612969549211881"><ele>514.0</ele><time>2026-04-18T11:58:19Z</time></trkpt><trkpt lat="44.50955868027396" lon="10.613119446122838"><ele>514.0</ele><time>2026-04-18T11:58:20Z</time></trkpt><trkpt lat="44.50968648720943" lon="10.613254720484061"><ele>514.0</ele><time>2026-04-18T11:58:21Z</time></trkpt><trkpt lat="44.50981414831109" lon="10.613372459169748"><ele>514.0</ele><time>2026-04-18T11:58:22Z</time></trkpt><trkpt lat="44.509946436719595" lon="10.61342182720366"><ele>514.0</ele><time>2026-04-18T11:58:23Z</time></trkpt><trkpt lat="44.51010418540637" lon="10.613442596829417"><ele>514.0</ele><time>2026-04-18T11:58:24Z</time></trkpt><trkpt lat="44.510247819094886" lon="10.613468101264525"><ele>514.0</ele><time>2026-04-18T11:58:25Z</time></trkpt><trkpt lat="44.51035416644742" lon="10.613545127990566"><ele>513.75</ele><time>2026-04-18T11:58:26Z</time></trkpt><trkpt lat="44.51040925504467" lon="10.61370431280511"><ele>513.5</ele><time>2026-04-18T11:58:27Z</time></trkpt><trkpt lat="44.510467007385024" lon="10.613886090568688"><ele>513.25</ele><time>2026-04-18T11:58:28Z</time></trkpt><trkpt lat="44.51055310360658" lon="10.614100782560866"><ele>513.0</ele><time>2026-04-18T11:58:29Z</time></trkpt><trkpt lat="44.51062441772126" lon="10.614321315597065"><ele>507.66666666666663</ele><time>2026-04-18T11:58:30Z</time></trkpt><trkpt lat="44.51070688153938" lon="10.614514863356005"><ele>502.3333333333333</ele><time>2026-04-18T11:58:31Z</time></trkpt><trkpt lat="44.51079300628378" lon="10.614689013111194"><ele>497.0</ele><time>2026-04-18T11:58:32Z</time></trkpt><trkpt lat="44.510878025238775" lon="10.614848827358758"><ele>497.0</ele><time>2026-04-18T11:58:33Z</time></trkpt><trkpt lat="44.51098297393738" lon="10.614986591726083"><ele>497.0</ele><time>2026-04-18T11:58:34Z</time></trkpt><trkpt lat="44.511086610269444" lon="10.615087449675574"><ele>497.0</ele><time>2026-04-18T11:58:35Z</time></trkpt><trkpt lat="44.51120401788963" lon="10.61516731398964"><ele>497.0</ele><time>2026-04-18T11:58:36Z</time></trkpt><trkpt lat="44.511325585768056" lon="10.615202428210416"><ele>498.75</ele><time>2026-04-18T11:58:37Z</time></trkpt><trkpt lat="44.51145037446331" lon="10.615176431427917"><ele>500.5</ele><time>2026-04-18T11:58:38Z</time></trkpt><trkpt lat="44.51158065829971" lon="10.615098803444619"><ele>502.25</ele><time>2026-04-18T11:58:39Z</time></trkpt><trkpt lat="44.51171396461306" lon="10.614989617471746"><ele>504.0</ele><time>2026-04-18T11:58:40Z</time></trkpt><trkpt lat="44.51186230159782" lon="10.614940353059705"><ele>504.0</ele><time>2026-04-18T11:58:41Z</time></trkpt><trkpt lat="44.51200244955877" lon="10.614960442146442"><ele>504.0</ele><time>2026-04-18T11:58:42Z</time></trkpt><trkpt lat="44.512138279987724" lon="10.614969473314053"><ele>504.0</ele><time>2026-04-18T11:58:43Z</time></trkpt><trkpt lat="44.51226224528073" lon="10.614947237566717"><ele>504.0</ele><time>2026-04-18T11:58:44Z</time></trkpt><trkpt lat="44.5123846977444" lon="10.614910735079647"><ele>498.33333333333337</ele><time>2026-04-18T11:58:45Z</time></trkpt><trkpt lat="44.512496880332144" lon="10.614789540612291"><ele>492.6666666666667</ele><time>2026-04-18T11:58:46Z</time></trkpt><trkpt lat="44.51261243973745" lon="10.614618052903662"><ele>487.0</ele><time>2026-04-18T11:58:47Z</time></trkpt><trkpt lat="44.51278235546783" lon="10.614562613287786"><ele>486.6666666666667</ele><time>2026-04-18T11:58:48Z</time></trkpt><trkpt lat="44.512985438335456" lon="10.6144304154945"><ele>486.33333333333337</ele><time>2026-04-18T11:58:49Z</time></trkpt><trkpt lat="44.5131670283742" lon="10.614247417700636"><ele>486.0</ele><time>2026-04-18T11:58:50Z</time></trkpt><trkpt lat="44.51333944384936" lon="10.614094412597222"><ele>486.0</ele><time>2026-04-18T11:58:51Z</time></trkpt><trkpt lat="44.51350554994595" lon="10.613978651473245"><ele>486.0</ele><time>2026-04-18T11:58:52Z</time></trkpt><trkpt lat="44.513671500242125" lon="10.61389249776859"><ele>486.0</ele><time>2026-04-18T11:58:53Z</time></trkpt><trkpt lat="44.513842364846305" lon="10.613834362049253"><ele>482.0</ele><time>2026-04-18T11:58:54Z</time></trkpt><trkpt lat="44.51401325870595" lon="10.613821297043431"><ele>478.0</ele><time>2026-04-18T11:58:55Z</time></trkpt><trkpt lat="44.51417952991356" lon="10.613807134239224"><ele>474.0</ele><time>2026-04-18T11:58:56Z</time></trkpt><trkpt lat="44.51437537342028" lon="10.613793574745014"><ele>474.0</ele><time>2026-04-18T11:58:57Z</time></trkpt><trkpt lat="44.51456861441732" lon="10.61377591256845"><ele>474.0</ele><time>2026-04-18T11:58:58Z</time></trkpt><trkpt lat="44.51474479728403" lon="10.613771614400765"><ele>474.0</ele><time>2026-04-18T11:58:59Z</time></trkpt><trkpt lat="44.514918071846054" lon="10.613775260895947"><ele>472.33333333333337</ele><time>2026-04-18T11:59:00Z</time></trkpt><trkpt lat="44.51509655744876" lon="10.613777970641108"><ele>470.6666666666667</ele><time>2026-04-18T11:59:01Z</time></trkpt><trkpt lat="44.51527302644237" lon="10.613808463465393"><ele>469.0</ele><time>2026-04-18T11:59:02Z</time></trkpt><trkpt lat="44.5154410593443" lon="10.613848096369255"><ele>467.6666666666667</ele><time>2026-04-18T11:59:03Z</time></trkpt><trkpt lat="44.51562599427433" lon="10.613919422610877"><ele>466.33333333333337</ele><time>2026-04-18T11:59:04Z</time></trkpt><trkpt lat="44.51582617694255" lon="10.614000369309666"><ele>465.0</ele><time>2026-04-18T11:59:05Z</time></trkpt><trkpt lat="44.51603570389646" lon="10.614087275065812"><ele>465.0</ele><time>2026-04-18T11:59:06Z</time></trkpt><trkpt lat="44.5162250803956" lon="10.614163390990946"><ele>465.0</ele><time>2026-04-18T11:59:07Z</time></trkpt><trkpt lat="44.51639918106749" lon="10.614226750845813"><ele>465.0</ele><time>2026-04-18T11:59:08Z</time></trkpt><trkpt lat="44.5165699055634" lon="10.614279815650585"><ele>464.0</ele><time>2026-04-18T11:59:09Z</time></trkpt><trkpt lat="44.516750464636175" lon="10.61431815959576"><ele>463.0</ele><time>2026-04-18T11:59:10Z</time></trkpt><trkpt lat="44.51691328436485" lon="10.614314617065574"><ele>462.0</ele><time>2026-04-18T11:59:11Z</time></trkpt><trkpt lat="44.51709023294834" lon="10.614277539952434"><ele>464.0</ele><time>2026-04-18T11:59:12Z</time></trkpt><trkpt lat="44.51724893883352" lon="10.614190961888998"><ele>466.0</ele><time>2026-04-18T11:59:13Z</time></trkpt><trkpt lat="44.51741070567995" lon="10.614062382437373"><ele>468.0</ele><time>2026-04-18T11:59:14Z</time></trkpt><trkpt lat="44.51757151638372" lon="10.613930984638818"><ele>468.0</ele><time>2026-04-18T11:59:15Z</time></trkpt><trkpt lat="44.51776101259964" lon="10.61382082623089"><ele>468.0</ele><time>2026-04-18T11:59:16Z</time></trkpt><trkpt lat="44.517933773837235" lon="10.613741910176294"><ele>468.0</ele><time>2026-04-18T11:59:17Z</time></trkpt><trkpt lat="44.518105809275156" lon="10.613701895082954"><ele>468.5</ele><time>2026-04-18T11:59:18Z</time></trkpt><trkpt lat="44.51824980857026" lon="10.613672162658522"><ele>469.0</ele><time>2026-04-18T11:59:19Z</time></trkpt><trkpt lat="44.51837360923981" lon="10.61369205014287"><ele>469.5</ele><time>2026-04-18T11:59:20Z</time></trkpt><trkpt lat="44.51848742209626" lon="10.61371438317539"><ele>470.0</ele><time>2026-04-18T11:59:21Z</time></trkpt><trkpt lat="44.518720663627754" lon="10.613678557010966"><ele>467.25</ele><time>2026-04-18T11:59:22Z</time></trkpt><trkpt lat="44.51884834127214" lon="10.613641190805364"><ele>464.5</ele><time>2026-04-18T11:59:23Z</time></trkpt><trkpt lat="44.518969228547604" lon="10.613565497264629"><ele>461.75</ele><time>2026-04-18T11:59:24Z</time></trkpt><trkpt lat="44.51908152933664" lon="10.6134502832257"><ele>459.0</ele><time>2026-04-18T11:59:25Z</time></trkpt><trkpt lat="44.519187134730345" lon="10.613281655947418"><ele>459.0</ele><time>2026-04-18T11:59:26Z</time></trkpt><trkpt lat="44.519278495459446" lon="10.6130803860333"><ele>459.0</ele><time>2026-04-18T11:59:27Z</time></trkpt><trkpt lat="44.519365907522676" lon="10.612848270113073"><ele>459.0</ele><time>2026-04-18T11:59:28Z</time></trkpt><trkpt lat="44.51946193148573" lon="10.612605113179626"><ele>457.33333333333337</ele><time>2026-04-18T11:59:29Z</time></trkpt><trkpt lat="44.519558373157395" lon="10.612359872944873"><ele>455.6666666666667</ele><time>2026-04-18T11:59:30Z</time></trkpt><trkpt lat="44.519650556117426" lon="10.61212930099627"><ele>454.0</ele><time>2026-04-18T11:59:31Z</time></trkpt><trkpt lat="44.51976237235869" lon="10.611934660497754"><ele>454.0</ele><time>2026-04-18T11:59:32Z</time></trkpt><trkpt lat="44.519889138993626" lon="10.611769584308032"><ele>454.0</ele><time>2026-04-18T11:59:33Z</time></trkpt><trkpt lat="44.52003576375075" lon="10.611647165381244"><ele>454.0</ele><time>2026-04-18T11:59:34Z</time></trkpt><trkpt lat="44.52015715671594" lon="10.611507782772378"><ele>454.0</ele><time>2026-04-18T11:59:35Z</time></trkpt><trkpt lat="44.520252623279916" lon="10.61134751740533"><ele>454.0</ele><time>2026-04-18T11:59:36Z</time></trkpt><trkpt lat="44.52034408066065" lon="10.611191862731992"><ele>454.0</ele><time>2026-04-18T11:59:37Z</time></trkpt><trkpt lat="44.520398073751274" lon="10.611000055679517"><ele>454.0</ele><time>2026-04-18T11:59:38Z</time></trkpt><trkpt lat="44.52042923534057" lon="10.610760188409387"><ele>459.0</ele><time>2026-04-18T11:59:39Z</time></trkpt><trkpt lat="44.52043083965943" lon="10.610494227876108"><ele>464.0</ele><time>2026-04-18T11:59:40Z</time></trkpt><trkpt lat="44.52042153644571" lon="10.610220830543666"><ele>469.0</ele><time>2026-04-18T11:59:41Z</time></trkpt><trkpt lat="44.520414088492366" lon="10.609971005922299"><ele>469.5</ele><time>2026-04-18T11:59:42Z</time></trkpt><trkpt lat="44.5204341530069" lon="10.609771179305783"><ele>470.0</ele><time>2026-04-18T11:59:43Z</time></trkpt><trkpt lat="44.52047241373453" lon="10.609645339995868"><ele>470.5</ele><time>2026-04-18T11:59:44Z</time></trkpt><trkpt lat="44.52053311694858" lon="10.609502805641798"><ele>471.0</ele><time>2026-04-18T11:59:45Z</time></trkpt><trkpt lat="44.52063409496931" lon="10.609343270382343"><ele>467.66666666666663</ele><time>2026-04-18T11:59:46Z</time></trkpt><trkpt lat="44.52075138469544" lon="10.609156549292543"><ele>464.3333333333333</ele><time>2026-04-18T11:59:47Z</time></trkpt><trkpt lat="44.520865197989025" lon="10.608955046994767"><ele>461.0</ele><time>2026-04-18T11:59:48Z</time></trkpt><trkpt lat="44.520937251653834" lon="10.608749221984022"><ele>462.75</ele><time>2026-04-18T11:59:49Z</time></trkpt><trkpt lat="44.521013762811236" lon="10.608581546006324"><ele>464.5</ele><time>2026-04-18T11:59:50Z</time></trkpt><trkpt lat="44.52112744675131" lon="10.608494053006455"><ele>466.25</ele><time>2026-04-18T11:59:51Z</time></trkpt><trkpt lat="44.521240288427656" lon="10.608467662597429"><ele>468.0</ele><time>2026-04-18T11:59:52Z</time></trkpt><trkpt lat="44.52137458045126" lon="10.608428946468917"><ele>468.0</ele><time>2026-04-18T11:59:53Z</time></trkpt><trkpt lat="44.521517922265225" lon="10.608335629048861"><ele>468.0</ele><time>2026-04-18T11:59:54Z</time></trkpt><trkpt lat="44.52165179669503" lon="10.60820134559428"><ele>468.0</ele><time>2026-04-18T11:59:55Z</time></trkpt><trkpt lat="44.52175262976423" lon="10.608009304519001"><ele>461.66666666666663</ele><time>2026-04-18T11:59:56Z</time></trkpt><trkpt lat="44.52184243726073" lon="10.607782184059706"><ele>455.3333333333333</ele><time>2026-04-18T11:59:57Z</time></trkpt><trkpt lat="44.52191280519137" lon="10.607564813038545"><ele>449.0</ele><time>2026-04-18T11:59:58Z</time></trkpt><trkpt lat="44.52196887380487" lon="10.607369950201035"><ele>449.0</ele><time>2026-04-18T11:59:59Z</time></trkpt><trkpt lat="44.52204440014687" lon="10.607248128990586"><ele>449.0</ele><time>2026-04-18T12:00:00Z</time></trkpt><trkpt lat="44.52214254800463" lon="10.607154752277118"><ele>449.0</ele><time>2026-04-18T12:00:01Z</time></trkpt><trkpt lat="44.5222508127979" lon="10.607055383908145"><ele>449.0</ele><time>2026-04-18T12:00:02Z</time></trkpt><trkpt lat="44.52233529725344" lon="10.606923856315419"><ele>452.75</ele><time>2026-04-18T12:00:03Z</time></trkpt><trkpt lat="44.52239266157459" lon="10.606778207763442"><ele>456.5</ele><time>2026-04-18T12:00:04Z</time></trkpt><trkpt lat="44.52240266241865" lon="10.606588606196283"><ele>460.25</ele><time>2026-04-18T12:00:05Z</time></trkpt><trkpt lat="44.52237337980973" lon="10.606398231248887"><ele>464.0</ele><time>2026-04-18T12:00:06Z</time></trkpt><trkpt lat="44.52232489962992" lon="10.606185127005498"><ele>461.3333333333333</ele><time>2026-04-18T12:00:07Z</time></trkpt><trkpt lat="44.52221550659894" lon="10.606005446623325"><ele>458.66666666666663</ele><time>2026-04-18T12:00:08Z</time></trkpt><trkpt lat="44.52211944487484" lon="10.60582807760828"><ele>456.0</ele><time>2026-04-18T12:00:09Z</time></trkpt><trkpt lat="44.52202650959527" lon="10.605668920131391"><ele>451.6</ele><time>2026-04-18T12:00:10Z</time></trkpt><trkpt lat="44.5219604352944" lon="10.605531659580068"><ele>447.20000000000005</ele><time>2026-04-18T12:00:11Z</time></trkpt><trkpt lat="44.52191749835679" lon="10.605375772591842"><ele>442.79999999999995</ele><time>2026-04-18T12:00:12Z</time></trkpt><trkpt lat="44.521921903524614" lon="10.605236510302609"><ele>438.4</ele><time>2026-04-18T12:00:13Z</time></trkpt><trkpt lat="44.52196885207657" lon="10.605107029660374"><ele>434.0</ele><time>2026-04-18T12:00:14Z</time></trkpt><trkpt lat="44.5220483329118" lon="10.605013651698139"><ele>436.75</ele><time>2026-04-18T12:00:15Z</time></trkpt><trkpt lat="44.52213825751316" lon="10.6048860377364"><ele>439.5</ele><time>2026-04-18T12:00:16Z</time></trkpt><trkpt lat="44.52225145398969" lon="10.604777230502554"><ele>442.25</ele><time>2026-04-18T12:00:17Z</time></trkpt><trkpt lat="44.52234817440179" lon="10.604687386312301"><ele>445.0</ele><time>2026-04-18T12:00:18Z</time></trkpt><trkpt lat="44.522443941534014" lon="10.604653491566035"><ele>445.0</ele><time>2026-04-18T12:00:19Z</time></trkpt><trkpt lat="44.52254084913378" lon="10.60467664228375"><ele>445.0</ele><time>2026-04-18T12:00:20Z</time></trkpt><trkpt lat="44.522629725198" lon="10.60477875171439"><ele>445.0</ele><time>2026-04-18T12:00:21Z</time></trkpt><trkpt lat="44.522712495262084" lon="10.604903376948364"><ele>445.0</ele><time>2026-04-18T12:00:22Z</time></trkpt><trkpt lat="44.522815001391216" lon="10.605040588701087"><ele>444.75</ele><time>2026-04-18T12:00:23Z</time></trkpt><trkpt lat="44.52294398154477" lon="10.605118346536992"><ele>444.5</ele><time>2026-04-18T12:00:24Z</time></trkpt><trkpt lat="44.52307939435378" lon="10.605134953093"><ele>444.25</ele><time>2026-04-18T12:00:25Z</time></trkpt><trkpt lat="44.52321594191821" lon="10.605107090856638"><ele>444.0</ele><time>2026-04-18T12:00:26Z</time></trkpt><trkpt lat="44.52334781216368" lon="10.605036344618252"><ele>444.0</ele><time>2026-04-18T12:00:27Z</time></trkpt><trkpt lat="44.52346527457058" lon="10.604920796127258"><ele>444.0</ele><time>2026-04-18T12:00:28Z</time></trkpt><trkpt lat="44.52357017690791" lon="10.604767239358312"><ele>444.0</ele><time>2026-04-18T12:00:29Z</time></trkpt><trkpt lat="44.52367745304877" lon="10.604595853709467"><ele>442.0</ele><time>2026-04-18T12:00:30Z</time></trkpt><trkpt lat="44.52378827326145" lon="10.604429879748531"><ele>440.0</ele><time>2026-04-18T12:00:31Z</time></trkpt><trkpt lat="44.52392121158991" lon="10.604306214930604"><ele>438.0</ele><time>2026-04-18T12:00:32Z</time></trkpt><trkpt lat="44.524059496590105" lon="10.604214951215486"><ele>438.0</ele><time>2026-04-18T12:00:33Z</time></trkpt><trkpt lat="44.52419224723615" lon="10.604149038244312"><ele>438.0</ele><time>2026-04-18T12:00:34Z</time></trkpt><trkpt lat="44.52428052745587" lon="10.604025038245286"><ele>438.0</ele><time>2026-04-18T12:00:35Z</time></trkpt><trkpt lat="44.52432329315998" lon="10.60381998149086"><ele>438.0</ele><time>2026-04-18T12:00:36Z</time></trkpt><trkpt lat="44.524371034344846" lon="10.603618601624305"><ele>432.0</ele><time>2026-04-18T12:00:37Z</time></trkpt><trkpt lat="44.524393920937825" lon="10.603376086839962"><ele>426.0</ele><time>2026-04-18T12:00:38Z</time></trkpt><trkpt lat="44.52444815460444" lon="10.603162279574146"><ele>420.0</ele><time>2026-04-18T12:00:39Z</time></trkpt><trkpt lat="44.52451617648373" lon="10.60293486505799"><ele>425.0</ele><time>2026-04-18T12:00:40Z</time></trkpt><trkpt lat="44.52459883621063" lon="10.60269331587254"><ele>430.0</ele><time>2026-04-18T12:00:41Z</time></trkpt><trkpt lat="44.524668829623735" lon="10.60246772270426"><ele>435.0</ele><time>2026-04-18T12:00:42Z</time></trkpt><trkpt lat="44.52474741037548" lon="10.602259643781089"><ele>435.0</ele><time>2026-04-18T12:00:43Z</time></trkpt><trkpt lat="44.52481874806064" lon="10.602070586902707"><ele>435.0</ele><time>2026-04-18T12:00:44Z</time></trkpt><trkpt lat="44.524884009768364" lon="10.60188867186555"><ele>435.0</ele><time>2026-04-18T12:00:45Z</time></trkpt><trkpt lat="44.524937132578515" lon="10.60175206619606"><ele>435.0</ele><time>2026-04-18T12:00:46Z</time></trkpt><trkpt lat="44.52500774002932" lon="10.60163377273699"><ele>429.5</ele><time>2026-04-18T12:00:47Z</time></trkpt><trkpt lat="44.52510095538209" lon="10.601548871123375"><ele>424.0</ele><time>2026-04-18T12:00:48Z</time></trkpt><trkpt lat="44.52521858300806" lon="10.601524979241063"><ele>418.5</ele><time>2026-04-18T12:00:49Z</time></trkpt><trkpt lat="44.52534745282762" lon="10.601559045767809"><ele>413.0</ele><time>2026-04-18T12:00:50Z</time></trkpt><trkpt lat="44.52549565023643" lon="10.601568885428886"><ele>413.0</ele><time>2026-04-18T12:00:51Z</time></trkpt><trkpt lat="44.5256583980571" lon="10.601616444025186"><ele>413.0</ele><time>2026-04-18T12:00:52Z</time></trkpt><trkpt lat="44.52582796616515" lon="10.601658224193205"><ele>413.0</ele><time>2026-04-18T12:00:53Z</time></trkpt><trkpt lat="44.52600962512294" lon="10.60169712057381"><ele>413.0</ele><time>2026-04-18T12:00:54Z</time></trkpt><trkpt lat="44.52621643976562" lon="10.601730005457537"><ele>413.0</ele><time>2026-04-18T12:00:55Z</time></trkpt><trkpt lat="44.52641344085253" lon="10.601731095699108"><ele>413.0</ele><time>2026-04-18T12:00:56Z</time></trkpt><trkpt lat="44.52659755495565" lon="10.601713776213524"><ele>409.66666666666663</ele><time>2026-04-18T12:00:57Z</time></trkpt><trkpt lat="44.5267729837941" lon="10.601729154613528"><ele>406.33333333333337</ele><time>2026-04-18T12:00:58Z</time></trkpt><trkpt lat="44.52694011842319" lon="10.601770110221212"><ele>403.0</ele><time>2026-04-18T12:00:59Z</time></trkpt><trkpt lat="44.52707809848488" lon="10.601796892450773"><ele>402.79999999999995</ele><time>2026-04-18T12:01:00Z</time></trkpt><trkpt lat="44.52718768482957" lon="10.601853955559017"><ele>402.6</ele><time>2026-04-18T12:01:01Z</time></trkpt><trkpt lat="44.52726277643522" lon="10.601927723294377"><ele>402.4</ele><time>2026-04-18T12:01:02Z</time></trkpt><trkpt lat="44.527311155131684" lon="10.602035995716935"><ele>402.20000000000005</ele><time>2026-04-18T12:01:03Z</time></trkpt><trkpt lat="44.52731982818336" lon="10.602184605337067"><ele>402.0</ele><time>2026-04-18T12:01:04Z</time></trkpt><trkpt lat="44.52730230787697" lon="10.602353566024622"><ele>402.0</ele><time>2026-04-18T12:01:05Z</time></trkpt><trkpt lat="44.52730312206352" lon="10.602504872542653"><ele>402.0</ele><time>2026-04-18T12:01:06Z</time></trkpt><trkpt lat="44.52734547077102" lon="10.60263441892121"><ele>402.0</ele><time>2026-04-18T12:01:07Z</time></trkpt><trkpt lat="44.52742077958598" lon="10.602726845946789"><ele>402.0</ele><time>2026-04-18T12:01:08Z</time></trkpt><trkpt lat="44.52752492935738" lon="10.602743507136328"><ele>402.0</ele><time>2026-04-18T12:01:09Z</time></trkpt><trkpt lat="44.52765837147433" lon="10.602718146691423"><ele>402.0</ele><time>2026-04-18T12:01:10Z</time></trkpt><trkpt lat="44.52780297107593" lon="10.602693809628994"><ele>402.0</ele><time>2026-04-18T12:01:11Z</time></trkpt><trkpt lat="44.52795070950625" lon="10.60268765928459"><ele>402.0</ele><time>2026-04-18T12:01:12Z</time></trkpt><trkpt lat="44.52807951625895" lon="10.602720031856084"><ele>402.0</ele><time>2026-04-18T12:01:13Z</time></trkpt><trkpt lat="44.52819449449077" lon="10.602781067000864"><ele>401.0</ele><time>2026-04-18T12:01:14Z</time></trkpt><trkpt lat="44.52830495779124" lon="10.602890226041639"><ele>400.0</ele><time>2026-04-18T12:01:15Z</time></trkpt><trkpt lat="44.52839902190644" lon="10.603024554299935"><ele>399.0</ele><time>2026-04-18T12:01:16Z</time></trkpt><trkpt lat="44.52845605903212" lon="10.603191730365774"><ele>398.0</ele><time>2026-04-18T12:01:17Z</time></trkpt><trkpt lat="44.52849045146619" lon="10.603387788188154"><ele>398.0</ele><time>2026-04-18T12:01:18Z</time></trkpt><trkpt lat="44.52850874169332" lon="10.603599690209155"><ele>398.0</ele><time>2026-04-18T12:01:19Z</time></trkpt><trkpt lat="44.52850554506706" lon="10.603834403311373"><ele>398.0</ele><time>2026-04-18T12:01:20Z</time></trkpt><trkpt lat="44.528555426125806" lon="10.60408017041825"><ele>398.75</ele><time>2026-04-18T12:01:21Z</time></trkpt><trkpt lat="44.52860272398095" lon="10.604284597099003"><ele>399.5</ele><time>2026-04-18T12:01:22Z</time></trkpt><trkpt lat="44.52864765701661" lon="10.604487054644455"><ele>400.25</ele><time>2026-04-18T12:01:23Z</time></trkpt><trkpt lat="44.52866884831698" lon="10.604677439066998"><ele>401.0</ele><time>2026-04-18T12:01:24Z</time></trkpt><trkpt lat="44.52869628142995" lon="10.60485410507648"><ele>398.25</ele><time>2026-04-18T12:01:25Z</time></trkpt><trkpt lat="44.528756007444215" lon="10.604999944967533"><ele>395.5</ele><time>2026-04-18T12:01:26Z</time></trkpt><trkpt lat="44.52884760806827" lon="10.605097973286753"><ele>392.75</ele><time>2026-04-18T12:01:27Z</time></trkpt><trkpt lat="44.52896670264343" lon="10.605132672959789"><ele>390.0</ele><time>2026-04-18T12:01:28Z</time></trkpt><trkpt lat="44.52909365851796" lon="10.605122298656932"><ele>390.0</ele><time>2026-04-18T12:01:29Z</time></trkpt><trkpt lat="44.52924672879811" lon="10.60509417443024"><ele>390.0</ele><time>2026-04-18T12:01:30Z</time></trkpt><trkpt lat="44.52939681056667" lon="10.60509599161638"><ele>390.0</ele><time>2026-04-18T12:01:31Z</time></trkpt><trkpt lat="44.52951505464326" lon="10.605160041932622"><ele>390.0</ele><time>2026-04-18T12:01:32Z</time></trkpt><trkpt lat="44.52960690054668" lon="10.605242511054197"><ele>385.25</ele><time>2026-04-18T12:01:33Z</time></trkpt><trkpt lat="44.52968633061689" lon="10.605343450235077"><ele>380.5</ele><time>2026-04-18T12:01:34Z</time></trkpt><trkpt lat="44.52972545166597" lon="10.60549975440535"><ele>375.75</ele><time>2026-04-18T12:01:35Z</time></trkpt><trkpt lat="44.52971144546682" lon="10.605693904798507"><ele>371.0</ele><time>2026-04-18T12:01:36Z</time></trkpt><trkpt lat="44.52969484003983" lon="10.605901194015544"><ele>371.0</ele><time>2026-04-18T12:01:37Z</time></trkpt><trkpt lat="44.52973107251005" lon="10.60613207765341"><ele>371.0</ele><time>2026-04-18T12:01:38Z</time></trkpt><trkpt lat="44.529786644684904" lon="10.60634097343598"><ele>371.0</ele><time>2026-04-18T12:01:39Z</time></trkpt><trkpt lat="44.52986356738317" lon="10.606535870097279"><ele>373.25</ele><time>2026-04-18T12:01:40Z</time></trkpt><trkpt lat="44.52994232123666" lon="10.606696364529393"><ele>375.5</ele><time>2026-04-18T12:01:41Z</time></trkpt><trkpt lat="44.53002454986149" lon="10.606819580070278"><ele>377.75</ele><time>2026-04-18T12:01:42Z</time></trkpt><trkpt lat="44.530128472980145" lon="10.606891108294787"><ele>380.0</ele><time>2026-04-18T12:01:43Z</time></trkpt><trkpt lat="44.53024267471422" lon="10.606894825836582"><ele>380.0</ele><time>2026-04-18T12:01:44Z</time></trkpt><trkpt lat="44.53035391707859" lon="10.606847225708577"><ele>380.0</ele><time>2026-04-18T12:01:45Z</time></trkpt><trkpt lat="44.53045445625061" lon="10.606789051131365"><ele>380.0</ele><time>2026-04-18T12:01:46Z</time></trkpt><trkpt lat="44.53054682467082" lon="10.60681163847536"><ele>380.0</ele><time>2026-04-18T12:01:47Z</time></trkpt><trkpt lat="44.53060520799325" lon="10.606914867043663"><ele>380.0</ele><time>2026-04-18T12:01:48Z</time></trkpt><trkpt lat="44.53061442515762" lon="10.607036172166808"><ele>379.75</ele><time>2026-04-18T12:01:49Z</time></trkpt><trkpt lat="44.530570216947524" lon="10.607152780469876"><ele>379.5</ele><time>2026-04-18T12:01:50Z</time></trkpt><trkpt lat="44.53048869320093" lon="10.607236239139434"><ele>379.25</ele><time>2026-04-18T12:01:51Z</time></trkpt><trkpt lat="44.5303690287431" lon="10.607267640686993"><ele>379.0</ele><time>2026-04-18T12:01:52Z</time></trkpt><trkpt lat="44.53024904254457" lon="10.607353050487275"><ele>379.0</ele><time>2026-04-18T12:01:53Z</time></trkpt><trkpt lat="44.53013041640188" lon="10.607437733245709"><ele>379.0</ele><time>2026-04-18T12:01:54Z</time></trkpt><trkpt lat="44.53004008171412" lon="10.607557633600061"><ele>379.0</ele><time>2026-04-18T12:01:55Z</time></trkpt><trkpt lat="44.5299783325829" lon="10.60769753846985"><ele>379.0</ele><time>2026-04-18T12:01:56Z</time></trkpt><trkpt lat="44.52993885028496" lon="10.607847823133739"><ele>378.0</ele><time>2026-04-18T12:01:57Z</time></trkpt><trkpt lat="44.52992352454392" lon="10.608006245636487"><ele>377.0</ele><time>2026-04-18T12:01:58Z</time></trkpt><trkpt lat="44.52995333646409" lon="10.608185914058948"><ele>376.0</ele><time>2026-04-18T12:01:59Z</time></trkpt><trkpt lat="44.530013158639974" lon="10.608380463106066"><ele>375.0</ele><time>2026-04-18T12:02:00Z</time></trkpt><trkpt lat="44.530097843745644" lon="10.608591376516756"><ele>378.33333333333337</ele><time>2026-04-18T12:02:01Z</time></trkpt><trkpt lat="44.530185901909846" lon="10.608770690161846"><ele>381.6666666666667</ele><time>2026-04-18T12:02:02Z</time></trkpt><trkpt lat="44.530289990254914" lon="10.608936413310527"><ele>385.0</ele><time>2026-04-18T12:02:03Z</time></trkpt><trkpt lat="44.53040786726763" lon="10.609050950145457"><ele>377.0</ele><time>2026-04-18T12:02:04Z</time></trkpt><trkpt lat="44.53053843769607" lon="10.609131163049895"><ele>369.0</ele><time>2026-04-18T12:02:05Z</time></trkpt><trkpt lat="44.53068430366346" lon="10.609169152597643"><ele>361.0</ele><time>2026-04-18T12:02:06Z</time></trkpt><trkpt lat="44.5308619375062" lon="10.60917920606351"><ele>361.0</ele><time>2026-04-18T12:02:07Z</time></trkpt><trkpt lat="44.531006077819384" lon="10.609209896618365"><ele>361.0</ele><time>2026-04-18T12:02:08Z</time></trkpt><trkpt lat="44.531132747214315" lon="10.609294056618527"><ele>361.0</ele><time>2026-04-18T12:02:09Z</time></trkpt><trkpt lat="44.531208218829846" lon="10.609447490449845"><ele>361.0</ele><time>2026-04-18T12:02:10Z</time></trkpt><trkpt lat="44.53126843001054" lon="10.609564273377373"><ele>363.6</ele><time>2026-04-18T12:02:11Z</time></trkpt><trkpt lat="44.53127446246402" lon="10.609712688913124"><ele>366.20000000000005</ele><time>2026-04-18T12:02:12Z</time></trkpt><trkpt lat="44.5312508038341" lon="10.609853194526396"><ele>368.79999999999995</ele><time>2026-04-18T12:02:13Z</time></trkpt><trkpt lat="44.53118595996843" lon="10.609980750246798"><ele>371.4</ele><time>2026-04-18T12:02:14Z</time></trkpt><trkpt lat="44.531096064590244" lon="10.610106797960926"><ele>374.0</ele><time>2026-04-18T12:02:15Z</time></trkpt><trkpt lat="44.53103647770528" lon="10.610262374337768"><ele>371.5</ele><time>2026-04-18T12:02:16Z</time></trkpt><trkpt lat="44.53099833154011" lon="10.610433657548521"><ele>369.0</ele><time>2026-04-18T12:02:17Z</time></trkpt><trkpt lat="44.5310234630247" lon="10.610633263131074"><ele>366.5</ele><time>2026-04-18T12:02:18Z</time></trkpt><trkpt lat="44.53104104739557" lon="10.610817969394573"><ele>364.0</ele><time>2026-04-18T12:02:19Z</time></trkpt><trkpt lat="44.53104111188645" lon="10.61097510036414"><ele>364.0</ele><time>2026-04-18T12:02:20Z</time></trkpt><trkpt lat="44.53098842251733" lon="10.611087348551164"><ele>364.0</ele><time>2026-04-18T12:02:21Z</time></trkpt><trkpt lat="44.530925940521975" lon="10.611176848018465"><ele>364.0</ele><time>2026-04-18T12:02:22Z</time></trkpt><trkpt lat="44.53083940801156" lon="10.61121322752419"><ele>364.0</ele><time>2026-04-18T12:02:23Z</time></trkpt><trkpt lat="44.530724787857416" lon="10.611251246740704"><ele>364.0</ele><time>2026-04-18T12:02:24Z</time></trkpt><trkpt lat="44.53060759000363" lon="10.611307990760828"><ele>364.75</ele><time>2026-04-18T12:02:25Z</time></trkpt><trkpt lat="44.530512791006544" lon="10.611436255620838"><ele>365.5</ele><time>2026-04-18T12:02:26Z</time></trkpt><trkpt lat="44.530412981410954" lon="10.611596912330787"><ele>366.25</ele><time>2026-04-18T12:02:27Z</time></trkpt><trkpt lat="44.5303115713404" lon="10.61177267657323"><ele>367.0</ele><time>2026-04-18T12:02:28Z</time></trkpt><trkpt lat="44.53021792834148" lon="10.611960459946292"><ele>360.5</ele><time>2026-04-18T12:02:29Z</time></trkpt><trkpt lat="44.53013094229075" lon="10.612126833363654"><ele>354.0</ele><time>2026-04-18T12:02:30Z</time></trkpt><trkpt lat="44.530053687528536" lon="10.61226392611327"><ele>347.5</ele><time>2026-04-18T12:02:31Z</time></trkpt><trkpt lat="44.529965796729286" lon="10.6123700451551"><ele>341.0</ele><time>2026-04-18T12:02:32Z</time></trkpt><trkpt lat="44.52985380955443" lon="10.612379982461993"><ele>341.0</ele><time>2026-04-18T12:02:33Z</time></trkpt><trkpt lat="44.52974434972895" lon="10.612363466118039"><ele>341.0</ele><time>2026-04-18T12:02:34Z</time></trkpt><trkpt lat="44.529586151821036" lon="10.612336678959583"><ele>341.0</ele><time>2026-04-18T12:02:35Z</time></trkpt><trkpt lat="44.529422038471935" lon="10.612336129838866"><ele>341.0</ele><time>2026-04-18T12:02:36Z</time></trkpt><trkpt lat="44.52926408399193" lon="10.612330689493659"><ele>341.75</ele><time>2026-04-18T12:02:37Z</time></trkpt><trkpt lat="44.529119773530105" lon="10.612345876553963"><ele>342.5</ele><time>2026-04-18T12:02:38Z</time></trkpt><trkpt lat="44.52899747515876" lon="10.612409260759932"><ele>343.25</ele><time>2026-04-18T12:02:39Z</time></trkpt><trkpt lat="44.52889568003886" lon="10.612518292588831"><ele>344.0</ele><time>2026-04-18T12:02:40Z</time></trkpt><trkpt lat="44.52881670840249" lon="10.612672936691935"><ele>339.4</ele><time>2026-04-18T12:02:41Z</time></trkpt><trkpt lat="44.528761142438825" lon="10.612836032785498"><ele>334.79999999999995</ele><time>2026-04-18T12:02:42Z</time></trkpt><trkpt lat="44.5287070115952" lon="10.61297600513191"><ele>330.20000000000005</ele><time>2026-04-18T12:02:43Z</time></trkpt><trkpt lat="44.52863182306456" lon="10.6130546813107"><ele>325.6</ele><time>2026-04-18T12:02:44Z</time></trkpt><trkpt lat="44.528530470842355" lon="10.6130894706932"><ele>321.0</ele><time>2026-04-18T12:02:45Z</time></trkpt><trkpt lat="44.52840151255649" lon="10.613044363898213"><ele>321.0</ele><time>2026-04-18T12:02:46Z</time></trkpt><trkpt lat="44.528259376727476" lon="10.612996804534253"><ele>321.0</ele><time>2026-04-18T12:02:47Z</time></trkpt><trkpt lat="44.52813033569086" lon="10.612905506329433"><ele>321.0</ele><time>2026-04-18T12:02:48Z</time></trkpt><trkpt lat="44.52799456119984" lon="10.612856267844123"><ele>321.0</ele><time>2026-04-18T12:02:49Z</time></trkpt><trkpt lat="44.527875207140845" lon="10.612772012373057"><ele>323.20000000000005</ele><time>2026-04-18T12:02:50Z</time></trkpt><trkpt lat="44.527766185809654" lon="10.612732015066141"><ele>325.40000000000003</ele><time>2026-04-18T12:02:51Z</time></trkpt><trkpt lat="44.52766508392703" lon="10.61272588101109"><ele>327.6</ele><time>2026-04-18T12:02:52Z</time></trkpt><trkpt lat="44.52757828622136" lon="10.612763376284597"><ele>329.8</ele><time>2026-04-18T12:02:53Z</time></trkpt><trkpt lat="44.52751880419147" lon="10.612848081229073"><ele>332.0</ele><time>2026-04-18T12:02:54Z</time></trkpt><trkpt lat="44.527492874991644" lon="10.612964422053121"><ele>332.0</ele><time>2026-04-18T12:02:55Z</time></trkpt><trkpt lat="44.52751686793948" lon="10.613113921718988"><ele>332.0</ele><time>2026-04-18T12:02:56Z</time></trkpt><trkpt lat="44.527566654968275" lon="10.61325325623402"><ele>332.0</ele><time>2026-04-18T12:02:57Z</time></trkpt><trkpt lat="44.52761055397258" lon="10.61342876878292"><ele>332.0</ele><time>2026-04-18T12:02:58Z</time></trkpt><trkpt lat="44.52759996726178" lon="10.613555132764459"><ele>332.0</ele><time>2026-04-18T12:02:59Z</time></trkpt><trkpt lat="44.52757151013239" lon="10.613670430845564"><ele>325.75</ele><time>2026-04-18T12:03:00Z</time></trkpt><trkpt lat="44.52751010234115" lon="10.613748471257928"><ele>319.5</ele><time>2026-04-18T12:03:01Z</time></trkpt><trkpt lat="44.52740401402836" lon="10.613806975741587"><ele>313.25</ele><time>2026-04-18T12:03:02Z</time></trkpt><trkpt lat="44.527273210477745" lon="10.613895315443871"><ele>307.0</ele><time>2026-04-18T12:03:03Z</time></trkpt><trkpt lat="44.527155698656" lon="10.613989158183138"><ele>309.66666666666663</ele><time>2026-04-18T12:03:04Z</time></trkpt><trkpt lat="44.527028701775755" lon="10.614021885802371"><ele>312.3333333333333</ele><time>2026-04-18T12:03:05Z</time></trkpt><trkpt lat="44.52687254819711" lon="10.613998097250354"><ele>315.0</ele><time>2026-04-18T12:03:06Z</time></trkpt><trkpt lat="44.52669542215663" lon="10.613933461612298"><ele>315.0</ele><time>2026-04-18T12:03:07Z</time></trkpt><trkpt lat="44.52653166273921" lon="10.613918233632585"><ele>315.0</ele><time>2026-04-18T12:03:08Z</time></trkpt><trkpt lat="44.52638218131311" lon="10.613879574351936"><ele>315.0</ele><time>2026-04-18T12:03:09Z</time></trkpt><trkpt lat="44.52624105451191" lon="10.613811658481437"><ele>314.5</ele><time>2026-04-18T12:03:10Z</time></trkpt><trkpt lat="44.52610035144783" lon="10.613787584683235"><ele>314.0</ele><time>2026-04-18T12:03:11Z</time></trkpt><trkpt lat="44.525966602610005" lon="10.613778337431881"><ele>313.5</ele><time>2026-04-18T12:03:12Z</time></trkpt><trkpt lat="44.52584011134523" lon="10.613818301536297"><ele>313.0</ele><time>2026-04-18T12:03:13Z</time></trkpt><trkpt lat="44.52572500655322" lon="10.613920256884436"><ele>313.0</ele><time>2026-04-18T12:03:14Z</time></trkpt><trkpt lat="44.525610170594064" lon="10.614065582380592"><ele>313.0</ele><time>2026-04-18T12:03:15Z</time></trkpt><trkpt lat="44.52548698298286" lon="10.614242627512958"><ele>313.0</ele><time>2026-04-18T12:03:16Z</time></trkpt><trkpt lat="44.525361719963236" lon="10.614421092020141"><ele>311.5</ele><time>2026-04-18T12:03:17Z</time></trkpt><trkpt lat="44.52525484799935" lon="10.614553367020287"><ele>310.0</ele><time>2026-04-18T12:03:18Z</time></trkpt><trkpt lat="44.518105809275156" lon="10.613701895082954"><ele>350.0</ele><time>2026-04-18T11:59:18Z</time></trkpt><trkpt lat="44.51824980857026" lon="10.613672162658522"><ele>390.0</ele><time>2026-04-18T11:59:19Z</time></trkpt><trkpt lat="44.51837360923981" lon="10.61369205014287"><ele>430.0</ele><time>2026-04-18T11:59:20Z</time></trkpt><trkpt lat="44.51848742209626" lon="10.61371438317539"><ele>470.0</ele><time>2026-04-18T11:59:21Z</time></trkpt><trkpt lat="44.518720663627754" lon="10.613678557010966"><ele>467.25</ele><time>2026-04-18T11:59:22Z</time></trkpt><trkpt lat="44.51884834127214" lon="10.613641190805364"><ele>464.5</ele><time>2026-04-18T11:59:23Z</time></trkpt><trkpt lat="44.518969228547604" lon="10.613565497264629"><ele>461.75</ele><time>2026-04-18T11:59:24Z</time></trkpt><trkpt lat="44.51908152933664" lon="10.6134502832257"><ele>459.0</ele><time>2026-04-18T11:59:25Z</time></trkpt><trkpt lat="44.519187134730345" lon="10.613281655947418"><ele>459.0</ele><time>2026-04-18T11:59:26Z</time></trkpt><trkpt lat="44.519278495459446" lon="10.6130803860333"><ele>459.0</ele><time>2026-04-18T11:59:27Z</time></trkpt><trkpt lat="44.519365907522676" lon="10.612848270113073"><ele>459.0</ele><time>2026-04-18T11:59:28Z</time></trkpt><trkpt lat="44.51946193148573" lon="10.612605113179626"><ele>457.33333333333337</ele><time>2026-04-18T11:59:29Z</time></trkpt><trkpt lat="44.519558373157395" lon="10.612359872944873"><ele>455.6666666666667</ele><time>2026-04-18T11:59:30Z</time></trkpt><trkpt lat="44.519650556117426" lon="10.61212930099627"><ele>454.0</ele><time>2026-04-18T11:59:31Z</time></trkpt><trkpt lat="44.51976237235869" lon="10.611934660497754"><ele>454.0</ele><time>2026-04-18T11:59:32Z</time></trkpt><trkpt lat="44.519889138993626" lon="10.611769584308032"><ele>454.0</ele><time>2026-04-18T11:59:33Z</time></trkpt><trkpt lat="44.52003576375075" lon="10.611647165381244"><ele>454.0</ele><time>2026-04-18T11:59:34Z</time></trkpt><trkpt lat="44.52015715671594" lon="10.611507782772378"><ele>454.0</ele><time>2026-04-18T11:59:35Z</time></trkpt><trkpt lat="44.520252623279916" lon="10.61134751740533"><ele>454.0</ele><time>2026-04-18T11:59:36Z</time></trkpt><trkpt lat="44.52034408066065" lon="10.611191862731992"><ele>454.0</ele><time>2026-04-18T11:59:37Z</time></trkpt><trkpt lat="44.520398073751274" lon="10.611000055679517"><ele>454.0</ele><time>2026-04-18T11:59:38Z</time></trkpt><trkpt lat="44.52042923534057" lon="10.610760188409387"><ele>459.0</ele><time>2026-04-18T11:59:39Z</time></trkpt><trkpt lat="44.52043083965943" lon="10.610494227876108"><ele>464.0</ele><time>2026-04-18T11:59:40Z</time></trkpt><trkpt lat="44.52042153644571" lon="10.610220830543666"><ele>469.0</ele><time>2026-04-18T11:59:41Z</time></trkpt><trkpt lat="44.520414088492366" lon="10.609971005922299"><ele>469.5</ele><time>2026-04-18T11:59:42Z</time></trkpt><trkpt lat="44.5204341530069" lon="10.609771179305783"><ele>470.0</ele><time>2026-04-18T11:59:43Z</time></trkpt><trkpt lat="44.52047241373453" lon="10.609645339995868"><ele>470.5</ele><time>2026-04-18T11:59:44Z</time></trkpt><trkpt lat="44.52053311694858" lon="10.609502805641798"><ele>471.0</ele><time>2026-04-18T11:59:45Z</time></trkpt><trkpt lat="44.52063409496931" lon="10.609343270382343"><ele>467.66666666666663</ele><time>2026-04-18T11:59:46Z</time></trkpt><trkpt lat="44.52075138469544" lon="10.609156549292543"><ele>464.3333333333333</ele><time>2026-04-18T11:59:47Z</time></trkpt><trkpt lat="44.520865197989025" lon="10.608955046994767"><ele>461.0</ele><time>2026-04-18T11:59:48Z</time></trkpt><trkpt lat="44.520937251653834" lon="10.608749221984022"><ele>462.75</ele><time>2026-04-18T11:59:49Z</time></trkpt><trkpt lat="44.521013762811236" lon="10.608581546006324"><ele>464.5</ele><time>2026-04-18T11:59:50Z</time></trkpt><trkpt lat="44.52112744675131" lon="10.608494053006455"><ele>466.25</ele><time>2026-04-18T11:59:51Z</time></trkpt><trkpt lat="44.521240288427656" lon="10.608467662597429"><ele>468.0</ele><time>2026-04-18T11:59:52Z</time></trkpt><trkpt lat="44.52137458045126" lon="10.608428946468917"><ele>468.0</ele><time>2026-04-18T11:59:53Z</time></trkpt><trkpt lat="44.521517922265225" lon="10.608335629048861"><ele>468.0</ele><time>2026-04-18T11:59:54Z</time></trkpt><trkpt lat="44.52165179669503" lon="10.60820134559428"><ele>468.0</ele><time>2026-04-18T11:59:55Z</time></trkpt><trkpt lat="44.52175262976423" lon="10.608009304519001"><ele>461.66666666666663</ele><time>2026-04-18T11:59:56Z</time></trkpt><trkpt lat="44.52184243726073" lon="10.607782184059706"><ele>455.3333333333333</ele><time>2026-04-18T11:59:57Z</time></trkpt><trkpt lat="44.52191280519137" lon="10.607564813038545"><ele>449.0</ele><time>2026-04-18T11:59:58Z</time></trkpt><trkpt lat="44.52196887380487" lon="10.607369950201035"><ele>449.0</ele><time>2026-04-18T11:59:59Z</time></trkpt><trkpt lat="44.52204440014687" lon="10.607248128990586"><ele>449.0</ele><time>2026-04-18T12:00:00Z</time></trkpt><trkpt lat="44.52214254800463" lon="10.607154752277118"><ele>449.0</ele><time>2026-04-18T12:00:01Z</time></trkpt><trkpt lat="44.5222508127979" lon="10.607055383908145"><ele>449.0</ele><time>2026-04-18T12:00:02Z</time></trkpt><trkpt lat="44.52233529725344" lon="10.606923856315419"><ele>452.75</ele><time>2026-04-18T12:00:03Z</time></trkpt><trkpt lat="44.52239266157459" lon="10.606778207763442"><ele>456.5</ele><time>2026-04-18T12:00:04Z</time></trkpt><trkpt lat="44.52240266241865" lon="10.606588606196283"><ele>460.25</ele><time>2026-04-18T12:00:05Z</time></trkpt><trkpt lat="44.52237337980973" lon="10.606398231248887"><ele>464.0</ele><time>2026-04-18T12:00:06Z</time></trkpt><trkpt lat="44.52232489962992" lon="10.606185127005498"><ele>461.3333333333333</ele><time>2026-04-18T12:00:07Z</time></trkpt><trkpt lat="44.52221550659894" lon="10.606005446623325"><ele>458.66666666666663</ele><time>2026-04-18T12:00:08Z</time></trkpt><trkpt lat="44.52211944487484" lon="10.60582807760828"><ele>456.0</ele><time>2026-04-18T12:00:09Z</time></trkpt><trkpt lat="44.52202650959527" lon="10.605668920131391"><ele>451.6</ele><time>2026-04-18T12:00:10Z</time></trkpt><trkpt lat="44.5219604352944" lon="10.605531659580068"><ele>447.20000000000005</ele><time>2026-04-18T12:00:11Z</time></trkpt><trkpt lat="44.52191749835679" lon="10.605375772591842"><ele>442.79999999999995</ele><time>2026-04-18T12:00:12Z</time></trkpt><trkpt lat="44.521921903524614" lon="10.605236510302609"><ele>438.4</ele><time>2026-04-18T12:00:13Z</time></trkpt><trkpt lat="44.52196885207657" lon="10.605107029660374"><ele>434.0</ele><time>2026-04-18T12:00:14Z</time></trkpt><trkpt lat="44.5220483329118" lon="10.605013651698139"><ele>436.75</ele><time>2026-04-18T12:00:15Z</time></trkpt><trkpt lat="44.52213825751316" lon="10.6048860377364"><ele>439.5</ele><time>2026-04-18T12:00:16Z</time></trkpt><trkpt lat="44.52225145398969" lon="10.604777230502554"><ele>442.25</ele><time>2026-04-18T12:00:17Z</time></trkpt><trkpt lat="44.52234817440179" lon="10.604687386312301"><ele>445.0</ele><time>2026-04-18T12:00:18Z</time></trkpt><trkpt lat="44.522443941534014" lon="10.604653491566035"><ele>445.0</ele><time>2026-04-18T12:00:19Z</time></trkpt><trkpt lat="44.52254084913378" lon="10.60467664228375"><ele>445.0</ele><time>2026-04-18T12:00:20Z</time></trkpt><trkpt lat="44.522629725198" lon="10.60477875171439"><ele>445.0</ele><time>2026-04-18T12:00:21Z</time></trkpt><trkpt lat="44.522712495262084" lon="10.604903376948364"><ele>445.0</ele><time>2026-04-18T12:00:22Z</time></trkpt><trkpt lat="44.522815001391216" lon="10.605040588701087"><ele>444.75</ele><time>2026-04-18T12:00:23Z</time></trkpt><trkpt lat="44.52294398154477" lon="10.605118346536992"><ele>444.5</ele><time>2026-04-18T12:00:24Z</time></trkpt><trkpt lat="44.52307939435378" lon="10.605134953093"><ele>444.25</ele><time>2026-04-18T12:00:25Z</time></trkpt><trkpt lat="44.52321594191821" lon="10.605107090856638"><ele>444.0</ele><time>2026-04-18T12:00:26Z</time></trkpt><trkpt lat="44.52334781216368" lon="10.605036344618252"><ele>444.0</ele><time>2026-04-18T12:00:27Z</time></trkpt><trkpt lat="44.52346527457058" lon="10.604920796127258"><ele>444.0</ele><time>2026-04-18T12:00:28Z</time></trkpt><trkpt lat="44.52357017690791" lon="10.604767239358312"><ele>444.0</ele><time>2026-04-18T12:00:29Z</time></trkpt><trkpt lat="44.52367745304877" lon="10.604595853709467"><ele>442.0</ele><time>2026-04-18T12:00:30Z</time></trkpt><trkpt lat="44.52378827326145" lon="10.604429879748531"><ele>440.0</ele><time>2026-04-18T12:00:31Z</time></trkpt><trkpt lat="44.52392121158991" lon="10.604306214930604"><ele>438.0</ele><time>2026-04-18T12:00:32Z</time></trkpt><trkpt lat="44.524059496590105" lon="10.604214951215486"><ele>438.0</ele><time>2026-04-18T12:00:33Z</time></trkpt><trkpt lat="44.52419224723615" lon="10.604149038244312"><ele>438.0</ele><time>2026-04-18T12:00:34Z</time></trkpt><trkpt lat="44.52428052745587" lon="10.604025038245286"><ele>438.0</ele><time>2026-04-18T12:00:35Z</time></trkpt><trkpt lat="44.52432329315998" lon="10.60381998149086"><ele>438.0</ele><time>2026-04-18T12:00:36Z</time></trkpt><trkpt lat="44.524371034344846" lon="10.603618601624305"><ele>432.0</ele><time>2026-04-18T12:00:37Z</time></trkpt><trkpt lat="44.524393920937825" lon="10.603376086839962"><ele>426.0</ele><time>2026-04-18T12:00:38Z</time></trkpt><trkpt lat="44.52444815460444" lon="10.603162279574146"><ele>420.0</ele><time>2026-04-18T12:00:39Z</time></trkpt><trkpt lat="44.52451617648373" lon="10.60293486505799"><ele>425.0</ele><time>2026-04-18T12:00:40Z</time></trkpt><trkpt lat="44.52459883621063" lon="10.60269331587254"><ele>430.0</ele><time>2026-04-18T12:00:41Z</time></trkpt><trkpt lat="44.524668829623735" lon="10.60246772270426"><ele>435.0</ele><time>2026-04-18T12:00:42Z</time></trkpt><trkpt lat="44.52474741037548" lon="10.602259643781089"><ele>435.0</ele><time>2026-04-18T12:00:43Z</time></trkpt><trkpt lat="44.52481874806064" lon="10.602070586902707"><ele>435.0</ele><time>2026-04-18T12:00:44Z</time></trkpt><trkpt lat="44.524884009768364" lon="10.60188867186555"><ele>435.0</ele><time>2026-04-18T12:00:45Z</time></trkpt><trkpt lat="44.524937132578515" lon="10.60175206619606"><ele>435.0</ele><time>2026-04-18T12:00:46Z</time></trkpt><trkpt lat="44.52500774002932" lon="10.60163377273699"><ele>429.5</ele><time>2026-04-18T12:00:47Z</time></trkpt><trkpt lat="44.52510095538209" lon="10.601548871123375"><ele>424.0</ele><time>2026-04-18T12:00:48Z</time></trkpt><trkpt lat="44.52521858300806" lon="10.601524979241063"><ele>418.5</ele><time>2026-04-18T12:00:49Z</time></trkpt><trkpt lat="44.52534745282762" lon="10.601559045767809"><ele>413.0</ele><time>2026-04-18T12:00:50Z</time></trkpt><trkpt lat="44.52549565023643" lon="10.601568885428886"><ele>413.0</ele><time>2026-04-18T12:00:51Z</time></trkpt><trkpt lat="44.5256583980571" lon="10.601616444025186"><ele>413.0</ele><time>2026-04-18T12:00:52Z</time></trkpt><trkpt lat="44.52582796616515" lon="10.601658224193205"><ele>413.0</ele><time>2026-04-18T12:00:53Z</time></trkpt><trkpt lat="44.52600962512294" lon="10.60169712057381"><ele>413.0</ele><time>2026-04-18T12:00:54Z</time></trkpt><trkpt lat="44.52621643976562" lon="10.601730005457537"><ele>413.0</ele><time>2026-04-18T12:00:55Z</time></trkpt><trkpt lat="44.52641344085253" lon="10.601731095699108"><ele>413.0</ele><time>2026-04-18T12:00:56Z</time></trkpt><trkpt lat="44.52659755495565" lon="10.601713776213524"><ele>409.66666666666663</ele><time>2026-04-18T12:00:57Z</time></trkpt><trkpt lat="44.5267729837941" lon="10.601729154613528"><ele>406.33333333333337</ele><time>2026-04-18T12:00:58Z</time></trkpt><trkpt lat="44.52694011842319" lon="10.601770110221212"><ele>403.0</ele><time>2026-04-18T12:00:59Z</time></trkpt><trkpt lat="44.52707809848488" lon="10.601796892450773"><ele>402.79999999999995</ele><time>2026-04-18T12:01:00Z</time></trkpt><trkpt lat="44.52718768482957" lon="10.601853955559017"><ele>402.6</ele><time>2026-04-18T12:01:01Z</time></trkpt><trkpt lat="44.52726277643522" lon="10.601927723294377"><ele>402.4</ele><time>2026-04-18T12:01:02Z</time></trkpt><trkpt lat="44.527311155131684" lon="10.602035995716935"><ele>402.20000000000005</ele><time>2026-04-18T12:01:03Z</time></trkpt><trkpt lat="44.52731982818336" lon="10.602184605337067"><ele>402.0</ele><time>2026-04-18T12:01:04Z</time></trkpt><trkpt lat="44.52730230787697" lon="10.602353566024622"><ele>402.0</ele><time>2026-04-18T12:01:05Z</time></trkpt><trkpt lat="44.52730312206352" lon="10.602504872542653"><ele>402.0</ele><time>2026-04-18T12:01:06Z</time></trkpt><trkpt lat="44.52734547077102" lon="10.60263441892121"><ele>402.0</ele><time>2026-04-18T12:01:07Z</time></trkpt><trkpt lat="44.52742077958598" lon="10.602726845946789"><ele>402.0</ele><time>2026-04-18T12:01:08Z</time></trkpt><trkpt lat="44.52752492935738" lon="10.602743507136328"><ele>402.0</ele><time>2026-04-18T12:01:09Z</time></trkpt><trkpt lat="44.52765837147433" lon="10.602718146691423"><ele>402.0</ele><time>2026-04-18T12:01:10Z</time></trkpt><trkpt lat="44.52780297107593" lon="10.602693809628994"><ele>402.0</ele><time>2026-04-18T12:01:11Z</time></trkpt><trkpt lat="44.52795070950625" lon="10.60268765928459"><ele>402.0</ele><time>2026-04-18T12:01:12Z</time></trkpt><trkpt lat="44.52807951625895" lon="10.602720031856084"><ele>402.0</ele><time>2026-04-18T12:01:13Z</time></trkpt><trkpt lat="44.52819449449077" lon="10.602781067000864"><ele>401.0</ele><time>2026-04-18T12:01:14Z</time></trkpt><trkpt lat="44.52830495779124" lon="10.602890226041639"><ele>400.0</ele><time>2026-04-18T12:01:15Z</time></trkpt><trkpt lat="44.52839902190644" lon="10.603024554299935"><ele>399.0</ele><time>2026-04-18T12:01:16Z</time></trkpt><trkpt lat="44.52845605903212" lon="10.603191730365774"><ele>398.0</ele><time>2026-04-18T12:01:17Z</time></trkpt><trkpt lat="44.52849045146619" lon="10.603387788188154"><ele>398.0</ele><time>2026-04-18T12:01:18Z</time></trkpt><trkpt lat="44.52850874169332" lon="10.603599690209155"><ele>398.0</ele><time>2026-04-18T12:01:19Z</time></trkpt><trkpt lat="44.52850554506706" lon="10.603834403311373"><ele>398.0</ele><time>2026-04-18T12:01:20Z</time></trkpt><trkpt lat="44.528555426125806" lon="10.60408017041825"><ele>398.75</ele><time>2026-04-18T12:01:21Z</time></trkpt><trkpt lat="44.52860272398095" lon="10.604284597099003"><ele>399.5</ele><time>2026-04-18T12:01:22Z</time></trkpt><trkpt lat="44.52864765701661" lon="10.604487054644455"><ele>400.25</ele><time>2026-04-18T12:01:23Z</time></trkpt><trkpt lat="44.52866884831698" lon="10.604677439066998"><ele>401.0</ele><time>2026-04-18T12:01:24Z</time></trkpt><trkpt lat="44.52869628142995" lon="10.60485410507648"><ele>398.25</ele><time>2026-04-18T12:01:25Z</time></trkpt><trkpt lat="44.528756007444215" lon="10.604999944967533"><ele>395.5</ele><time>2026-04-18T12:01:26Z</time></trkpt><trkpt lat="44.52884760806827" lon="10.605097973286753"><ele>392.75</ele><time>2026-04-18T12:01:27Z</time></trkpt><trkpt lat="44.52896670264343" lon="10.605132672959789"><ele>390.0</ele><time>2026-04-18T12:01:28Z</time></trkpt><trkpt lat="44.52909365851796" lon="10.605122298656932"><ele>390.0</ele><time>2026-04-18T12:01:29Z</time></trkpt><trkpt lat="44.52924672879811" lon="10.60509417443024"><ele>390.0</ele><time>2026-04-18T12:01:30Z</time></trkpt><trkpt lat="44.52939681056667" lon="10.60509599161638"><ele>390.0</ele><time>2026-04-18T12:01:31Z</time></trkpt><trkpt lat="44.52951505464326" lon="10.605160041932622"><ele>390.0</ele><time>2026-04-18T12:01:32Z</time></trkpt><trkpt lat="44.52960690054668" lon="10.605242511054197"><ele>385.25</ele><time>2026-04-18T12:01:33Z</time></trkpt><trkpt lat="44.52968633061689" lon="10.605343450235077"><ele>380.5</ele><time>2026-04-18T12:01:34Z</time></trkpt><trkpt lat="44.52972545166597" lon="10.60549975440535"><ele>375.75</ele><time>2026-04-18T12:01:35Z</time></trkpt><trkpt lat="44.52971144546682" lon="10.605693904798507"><ele>371.0</ele><time>2026-04-18T12:01:36Z</time></trkpt><trkpt lat="44.52969484003983" lon="10.605901194015544"><ele>371.0</ele><time>2026-04-18T12:01:37Z</time></trkpt><trkpt lat="44.52973107251005" lon="10.60613207765341"><ele>371.0</ele><time>2026-04-18T12:01:38Z</time></trkpt><trkpt lat="44.529786644684904" lon="10.60634097343598"><ele>371.0</ele><time>2026-04-18T12:01:39Z</time></trkpt><trkpt lat="44.52986356738317" lon="10.606535870097279"><ele>373.25</ele><time>2026-04-18T12:01:40Z</time></trkpt><trkpt lat="44.52994232123666" lon="10.606696364529393"><ele>375.5</ele><time>2026-04-18T12:01:41Z</time></trkpt><trkpt lat="44.53002454986149" lon="10.606819580070278"><ele>377.75</ele><time>2026-04-18T12:01:42Z</time></trkpt><trkpt lat="44.530128472980145" lon="10.606891108294787"><ele>380.0</ele><time>2026-04-18T12:01:43Z</time></trkpt><trkpt lat="44.53024267471422" lon="10.606894825836582"><ele>380.0</ele><time>2026-04-18T12:01:44Z</time></trkpt><trkpt lat="44.53035391707859" lon="10.606847225708577"><ele>380.0</ele><time>2026-04-18T12:01:45Z</time></trkpt><trkpt lat="44.53045445625061" lon="10.606789051131365"><ele>380.0</ele><time>2026-04-18T12:01:46Z</time></trkpt><trkpt lat="44.53054682467082" lon="10.60681163847536"><ele>380.0</ele><time>2026-04-18T12:01:47Z</time></trkpt><trkpt lat="44.53060520799325" lon="10.606914867043663"><ele>380.0</ele><time>2026-04-18T12:01:48Z</time></trkpt><trkpt lat="44.53061442515762" lon="10.607036172166808"><ele>379.75</ele><time>2026-04-18T12:01:49Z</time></trkpt><trkpt lat="44.530570216947524" lon="10.607152780469876"><ele>379.5</ele><time>2026-04-18T12:01:50Z</time></trkpt><trkpt lat="44.53048869320093" lon="10.607236239139434"><ele>379.25</ele><time>2026-04-18T12:01:51Z</time></trkpt><trkpt lat="44.5303690287431" lon="10.607267640686993"><ele>379.0</ele><time>2026-04-18T12:01:52Z</time></trkpt><trkpt lat="44.53024904254457" lon="10.607353050487275"><ele>379.0</ele><time>2026-04-18T12:01:53Z</time></trkpt><trkpt lat="44.53013041640188" lon="10.607437733245709"><ele>379.0</ele><time>2026-04-18T12:01:54Z</time></trkpt><trkpt lat="44.53004008171412" lon="10.607557633600061"><ele>379.0</ele><time>2026-04-18T12:01:55Z</time></trkpt><trkpt lat="44.5299783325829" lon="10.60769753846985"><ele>379.0</ele><time>2026-04-18T12:01:56Z</time></trkpt><trkpt lat="44.52993885028496" lon="10.607847823133739"><ele>378.0</ele><time>2026-04-18T12:01:57Z</time></trkpt><trkpt lat="44.52992352454392" lon="10.608006245636487"><ele>377.0</ele><time>2026-04-18T12:01:58Z</time></trkpt><trkpt lat="44.52995333646409" lon="10.608185914058948"><ele>376.0</ele><time>2026-04-18T12:01:59Z</time></trkpt><trkpt lat="44.530013158639974" lon="10.608380463106066"><ele>375.0</ele><time>2026-04-18T12:02:00Z</time></trkpt><trkpt lat="44.530097843745644" lon="10.608591376516756"><ele>378.33333333333337</ele><time>2026-04-18T12:02:01Z</time></trkpt><trkpt lat="44.530185901909846" lon="10.608770690161846"><ele>381.6666666666667</ele><time>2026-04-18T12:02:02Z</time></trkpt><trkpt lat="44.530289990254914" lon="10.608936413310527"><ele>385.0</ele><time>2026-04-18T12:02:03Z</time></trkpt><trkpt lat="44.53040786726763" lon="10.609050950145457"><ele>377.0</ele><time>2026-04-18T12:02:04Z</time></trkpt><trkpt lat="44.53053843769607" lon="10.609131163049895"><ele>369.0</ele><time>2026-04-18T12:02:05Z</time></trkpt><trkpt lat="44.53068430366346" lon="10.609169152597643"><ele>361.0</ele><time>2026-04-18T12:02:06Z</time></trkpt><trkpt lat="44.5308619375062" lon="10.60917920606351"><ele>361.0</ele><time>2026-04-18T12:02:07Z</time></trkpt><trkpt lat="44.531006077819384" lon="10.609209896618365"><ele>361.0</ele><time>2026-04-18T12:02:08Z</time></trkpt><trkpt lat="44.531132747214315" lon="10.609294056618527"><ele>361.0</ele><time>2026-04-18T12:02:09Z</time></trkpt><trkpt lat="44.531208218829846" lon="10.609447490449845"><ele>361.0</ele><time>2026-04-18T12:02:10Z</time></trkpt><trkpt lat="44.53126843001054" lon="10.609564273377373"><ele>363.6</ele><time>2026-04-18T12:02:11Z</time></trkpt><trkpt lat="44.53127446246402" lon="10.609712688913124"><ele>366.20000000000005</ele><time>2026-04-18T12:02:12Z</time></trkpt><trkpt lat="44.5312508038341" lon="10.609853194526396"><ele>368.79999999999995</ele><time>2026-04-18T12:02:13Z</time></trkpt><trkpt lat="44.53118595996843" lon="10.609980750246798"><ele>371.4</ele><time>2026-04-18T12:02:14Z</time></trkpt><trkpt lat="44.531096064590244" lon="10.610106797960926"><ele>374.0</ele><time>2026-04-18T12:02:15Z</time></trkpt><trkpt lat="44.53103647770528" lon="10.610262374337768"><ele>371.5</ele><time>2026-04-18T12:02:16Z</time></trkpt><trkpt lat="44.53099833154011" lon="10.610433657548521"><ele>369.0</ele><time>2026-04-18T12:02:17Z</time></trkpt><trkpt lat="44.5310234630247" lon="10.610633263131074"><ele>366.5</ele><time>2026-04-18T12:02:18Z</time></trkpt><trkpt lat="44.53104104739557" lon="10.610817969394573"><ele>364.0</ele><time>2026-04-18T12:02:19Z</time></trkpt><trkpt lat="44.53104111188645" lon="10.61097510036414"><ele>364.0</ele><time>2026-04-18T12:02:20Z</time></trkpt><trkpt lat="44.53098842251733" lon="10.611087348551164"><ele>364.0</ele><time>2026-04-18T12:02:21Z</time></trkpt><trkpt lat="44.530925940521975" lon="10.611176848018465"><ele>364.0</ele><time>2026-04-18T12:02:22Z</time></trkpt><trkpt lat="44.53083940801156" lon="10.61121322752419"><ele>364.0</ele><time>2026-04-18T12:02:23Z</time></trkpt><trkpt lat="44.530724787857416" lon="10.611251246740704"><ele>364.0</ele><time>2026-04-18T12:02:24Z</time></trkpt><trkpt lat="44.53060759000363" lon="10.611307990760828"><ele>364.75</ele><time>2026-04-18T12:02:25Z</time></trkpt><trkpt lat="44.530512791006544" lon="10.611436255620838"><ele>365.5</ele><time>2026-04-18T12:02:26Z</time></trkpt><trkpt lat="44.530412981410954" lon="10.611596912330787"><ele>366.25</ele><time>2026-04-18T12:02:27Z</time></trkpt><trkpt lat="44.5303115713404" lon="10.61177267657323"><ele>367.0</ele><time>2026-04-18T12:02:28Z</time></trkpt><trkpt lat="44.53021792834148" lon="10.611960459946292"><ele>360.5</ele><time>2026-04-18T12:02:29Z</time></trkpt><trkpt lat="44.53013094229075" lon="10.612126833363654"><ele>354.0</ele><time>2026-04-18T12:02:30Z</time></trkpt><trkpt lat="44.530053687528536" lon="10.61226392611327"><ele>347.5</ele><time>2026-04-18T12:02:31Z</time></trkpt><trkpt lat="44.529965796729286" lon="10.6123700451551"><ele>341.0</ele><time>2026-04-18T12:02:32Z</time></trkpt><trkpt lat="44.52985380955443" lon="10.612379982461993"><ele>341.0</ele><time>2026-04-18T12:02:33Z</time></trkpt><trkpt lat="44.52974434972895" lon="10.612363466118039"><ele>341.0</ele><time>2026-04-18T12:02:34Z</time></trkpt><trkpt lat="44.529586151821036" lon="10.612336678959583"><ele>341.0</ele><time>2026-04-18T12:02:35Z</time></trkpt><trkpt lat="44.529422038471935" lon="10.612336129838866"><ele>341.0</ele><time>2026-04-18T12:02:36Z</time></trkpt><trkpt lat="44.52926408399193" lon="10.612330689493659"><ele>341.75</ele><time>2026-04-18T12:02:37Z</time></trkpt><trkpt lat="44.529119773530105" lon="10.612345876553963"><ele>342.5</ele><time>2026-04-18T12:02:38Z</time></trkpt><trkpt lat="44.52899747515876" lon="10.612409260759932"><ele>343.25</ele><time>2026-04-18T12:02:39Z</time></trkpt><trkpt lat="44.52889568003886" lon="10.612518292588831"><ele>344.0</ele><time>2026-04-18T12:02:40Z</time></trkpt><trkpt lat="44.52881670840249" lon="10.612672936691935"><ele>339.4</ele><time>2026-04-18T12:02:41Z</time></trkpt><trkpt lat="44.528761142438825" lon="10.612836032785498"><ele>334.79999999999995</ele><time>2026-04-18T12:02:42Z</time></trkpt><trkpt lat="44.5287070115952" lon="10.61297600513191"><ele>330.20000000000005</ele><time>2026-04-18T12:02:43Z</time></trkpt><trkpt lat="44.52863182306456" lon="10.6130546813107"><ele>325.6</ele><time>2026-04-18T12:02:44Z</time></trkpt><trkpt lat="44.528530470842355" lon="10.6130894706932"><ele>321.0</ele><time>2026-04-18T12:02:45Z</time></trkpt><trkpt lat="44.52840151255649" lon="10.613044363898213"><ele>321.0</ele><time>2026-04-18T12:02:46Z</time></trkpt><trkpt lat="44.528259376727476" lon="10.612996804534253"><ele>321.0</ele><time>2026-04-18T12:02:47Z</time></trkpt><trkpt lat="44.52813033569086" lon="10.612905506329433"><ele>321.0</ele><time>2026-04-18T12:02:48Z</time></trkpt><trkpt lat="44.52799456119984" lon="10.612856267844123"><ele>321.0</ele><time>2026-04-18T12:02:49Z</time></trkpt><trkpt lat="44.527875207140845" lon="10.612772012373057"><ele>323.20000000000005</ele><time>2026-04-18T12:02:50Z</time></trkpt><trkpt lat="44.527766185809654" lon="10.612732015066141"><ele>325.40000000000003</ele><time>2026-04-18T12:02:51Z</time></trkpt><trkpt lat="44.52766508392703" lon="10.61272588101109"><ele>327.6</ele><time>2026-04-18T12:02:52Z</time></trkpt><trkpt lat="44.52757828622136" lon="10.612763376284597"><ele>329.8</ele><time>2026-04-18T12:02:53Z</time></trkpt><trkpt lat="44.52751880419147" lon="10.612848081229073"><ele>332.0</ele><time>2026-04-18T12:02:54Z</time></trkpt><trkpt lat="44.527492874991644" lon="10.612964422053121"><ele>332.0</ele><time>2026-04-18T12:02:55Z</time></trkpt><trkpt lat="44.52751686793948" lon="10.613113921718988"><ele>332.0</ele><time>2026-04-18T12:02:56Z</time></trkpt><trkpt lat="44.527566654968275" lon="10.61325325623402"><ele>332.0</ele><time>2026-04-18T12:02:57Z</time></trkpt><trkpt lat="44.52761055397258" lon="10.61342876878292"><ele>332.0</ele><time>2026-04-18T12:02:58Z</time></trkpt><trkpt lat="44.52759996726178" lon="10.613555132764459"><ele>332.0</ele><time>2026-04-18T12:02:59Z</time></trkpt><trkpt lat="44.52757151013239" lon="10.613670430845564"><ele>325.75</ele><time>2026-04-18T12:03:00Z</time></trkpt><trkpt lat="44.52751010234115" lon="10.613748471257928"><ele>319.5</ele><time>2026-04-18T12:03:01Z</time></trkpt><trkpt lat="44.52740401402836" lon="10.613806975741587"><ele>313.25</ele><time>2026-04-18T12:03:02Z</time></trkpt><trkpt lat="44.527273210477745" lon="10.613895315443871"><ele>307.0</ele><time>2026-04-18T12:03:03Z</time></trkpt><trkpt lat="44.527155698656" lon="10.613989158183138"><ele>309.66666666666663</ele><time>2026-04-18T12:03:04Z</time></trkpt><trkpt lat="44.527028701775755" lon="10.614021885802371"><ele>312.3333333333333</ele><time>2026-04-18T12:03:05Z</time></trkpt><trkpt lat="44.52687254819711" lon="10.613998097250354"><ele>315.0</ele><time>2026-04-18T12:03:06Z</time></trkpt><trkpt lat="44.52669542215663" lon="10.613933461612298"><ele>315.0</ele><time>2026-04-18T12:03:07Z</time></trkpt><trkpt lat="44.52653166273921" lon="10.613918233632585"><ele>315.0</ele><time>2026-04-18T12:03:08Z</time></trkpt><trkpt lat="44.52638218131311" lon="10.613879574351936"><ele>315.0</ele><time>2026-04-18T12:03:09Z</time></trkpt><trkpt lat="44.52624105451191" lon="10.613811658481437"><ele>314.5</ele><time>2026-04-18T12:03:10Z</time></trkpt><trkpt lat="44.52610035144783" lon="10.613787584683235"><ele>314.0</ele><time>2026-04-18T12:03:11Z</time></trkpt><trkpt lat="44.525966602610005" lon="10.613778337431881"><ele>313.5</ele><time>2026-04-18T12:03:12Z</time></trkpt><trkpt lat="44.52584011134523" lon="10.613818301536297"><ele>313.0</ele><time>2026-04-18T12:03:13Z</time></trkpt><trkpt lat="44.52572500655322" lon="10.613920256884436"><ele>313.0</ele><time>2026-04-18T12:03:14Z</time></trkpt><trkpt lat="44.525610170594064" lon="10.614065582380592"><ele>313.0</ele><time>2026-04-18T12:03:15Z</time></trkpt><trkpt lat="44.52548698298286" lon="10.614242627512958"><ele>313.0</ele><time>2026-04-18T12:03:16Z</time></trkpt><trkpt lat="44.525361719963236" lon="10.614421092020141"><ele>312.25</ele><time>2026-04-18T12:03:17Z</time></trkpt><trkpt lat="44.52525484799935" lon="10.614553367020287"><ele>311.5</ele><time>2026-04-18T12:03:18Z</time></trkpt><trkpt lat="44.52514406499762" lon="10.614665498388815"><ele>310.75</ele><time>2026-04-18T12:03:19Z</time></trkpt><trkpt lat="44.52504698143341" lon="10.61473717571744"><ele>310.0</ele><time>2026-04-18T12:03:20Z</time></trkpt><trkpt lat="44.52498133027737" lon="10.61483074068662"><ele>310.0</ele><time>2026-04-18T12:03:21Z</time></trkpt><trkpt lat="44.524957670918944" lon="10.614944011055393"><ele>310.0</ele><time>2026-04-18T12:03:22Z</time></trkpt><trkpt lat="44.52499194041044" lon="10.615067295734972"><ele>310.0</ele><time>2026-04-18T12:03:23Z</time></trkpt><trkpt lat="44.52504961172839" lon="10.615181085684538"><ele>310.0</ele><time>2026-04-18T12:03:24Z</time></trkpt><trkpt lat="44.52512435897589" lon="10.615336035520665"><ele>310.0</ele><time>2026-04-18T12:03:25Z</time></trkpt><trkpt lat="44.525188743570645" lon="10.615486837520594"><ele>309.16666666666663</ele><time>2026-04-18T12:03:26Z</time></trkpt><trkpt lat="44.52523347672207" lon="10.615623310151303"><ele>308.3333333333333</ele><time>2026-04-18T12:03:27Z</time></trkpt><trkpt lat="44.525269986058994" lon="10.615727307858775"><ele>307.5</ele><time>2026-04-18T12:03:28Z</time></trkpt><trkpt lat="44.52532740725021" lon="10.615781158069899"><ele>306.6666666666667</ele><time>2026-04-18T12:03:29Z</time></trkpt><trkpt lat="44.52540518726115" lon="10.61576060502293"><ele>305.83333333333337</ele><time>2026-04-18T12:03:30Z</time></trkpt><trkpt lat="44.52549611318296" lon="10.615677273182273"><ele>305.0</ele><time>2026-04-18T12:03:31Z</time></trkpt><trkpt lat="44.52560391484181" lon="10.615563579731074"><ele>303.0</ele><time>2026-04-18T12:03:32Z</time></trkpt><trkpt lat="44.525752508745484" lon="10.615446345533993"><ele>301.0</ele><time>2026-04-18T12:03:33Z</time></trkpt><trkpt lat="44.52589368410461" lon="10.615328854906338"><ele>299.0</ele><time>2026-04-18T12:03:34Z</time></trkpt><trkpt lat="44.525997940332026" lon="10.61522056578592"><ele>299.0</ele><time>2026-04-18T12:03:35Z</time></trkpt><trkpt lat="44.52610206230718" lon="10.61518505203892"><ele>299.0</ele><time>2026-04-18T12:03:36Z</time></trkpt><trkpt lat="44.52620156742949" lon="10.615217573127717"><ele>299.0</ele><time>2026-04-18T12:03:37Z</time></trkpt><trkpt lat="44.52631469376065" lon="10.61530494292604"><ele>299.0</ele><time>2026-04-18T12:03:38Z</time></trkpt><trkpt lat="44.52646429011742" lon="10.61540348331957"><ele>305.6666666666667</ele><time>2026-04-18T12:03:39Z</time></trkpt><trkpt lat="44.52662815323179" lon="10.615454449565277"><ele>312.3333333333333</ele><time>2026-04-18T12:03:40Z</time></trkpt><trkpt lat="44.5268353069039" lon="10.615506068858235"><ele>319.0</ele><time>2026-04-18T12:03:41Z</time></trkpt><trkpt lat="44.527025829728565" lon="10.615545399015724"><ele>316.0</ele><time>2026-04-18T12:03:42Z</time></trkpt><trkpt lat="44.527182292767904" lon="10.61557379762"><ele>313.0</ele><time>2026-04-18T12:03:43Z</time></trkpt><trkpt lat="44.52734296828797" lon="10.615577834298154"><ele>310.0</ele><time>2026-04-18T12:03:44Z</time></trkpt><trkpt lat="44.52750379198976" lon="10.615531833666614"><ele>310.0</ele><time>2026-04-18T12:03:45Z</time></trkpt><trkpt lat="44.52769694607448" lon="10.615454830589524"><ele>310.0</ele><time>2026-04-18T12:03:46Z</time></trkpt><trkpt lat="44.5278887358854" lon="10.615384506032754"><ele>310.0</ele><time>2026-04-18T12:03:47Z</time></trkpt><trkpt lat="44.5280946054508" lon="10.615316982997328"><ele>303.66666666666663</ele><time>2026-04-18T12:03:48Z</time></trkpt><trkpt lat="44.5282903583635" lon="10.615266594088343"><ele>297.3333333333333</ele><time>2026-04-18T12:03:49Z</time></trkpt><trkpt lat="44.52847470711653" lon="10.615186748986897"><ele>291.0</ele><time>2026-04-18T12:03:50Z</time></trkpt><trkpt lat="44.52866109058215" lon="10.615129020719552"><ele>290.3333333333333</ele><time>2026-04-18T12:03:51Z</time></trkpt><trkpt lat="44.52884301443344" lon="10.615085107258153"><ele>289.66666666666663</ele><time>2026-04-18T12:03:52Z</time></trkpt><trkpt lat="44.52902230715816" lon="10.615051063270638"><ele>289.0</ele><time>2026-04-18T12:03:53Z</time></trkpt><trkpt lat="44.5292069208503" lon="10.615033336946983"><ele>289.0</ele><time>2026-04-18T12:03:54Z</time></trkpt><trkpt lat="44.52937104872444" lon="10.615042491188065"><ele>289.0</ele><time>2026-04-18T12:03:55Z</time></trkpt><trkpt lat="44.529548211396616" lon="10.615103686697223"><ele>289.0</ele><time>2026-04-18T12:03:56Z</time></trkpt><trkpt lat="44.52972533890794" lon="10.615177961921376"><ele>286.3333333333333</ele><time>2026-04-18T12:03:57Z</time></trkpt><trkpt lat="44.52989112840006" lon="10.615216963053925"><ele>283.6666666666667</ele><time>2026-04-18T12:03:58Z</time></trkpt><trkpt lat="44.53010399876138" lon="10.615225034500257"><ele>281.0</ele><time>2026-04-18T12:03:59Z</time></trkpt><trkpt lat="44.53028899929664" lon="10.615203670264355"><ele>284.6666666666667</ele><time>2026-04-18T12:04:00Z</time></trkpt><trkpt lat="44.530462774942336" lon="10.615153579116908"><ele>288.3333333333333</ele><time>2026-04-18T12:04:01Z</time></trkpt><trkpt lat="44.53062950595515" lon="10.615081461853546"><ele>292.0</ele><time>2026-04-18T12:04:02Z</time></trkpt><trkpt lat="44.53080761084358" lon="10.614986647745242"><ele>292.0</ele><time>2026-04-18T12:04:03Z</time></trkpt><trkpt lat="44.53096099232286" lon="10.614841622166624"><ele>292.0</ele><time>2026-04-18T12:04:04Z</time></trkpt><trkpt lat="44.5311239134303" lon="10.614696977560648"><ele>292.0</ele><time>2026-04-18T12:04:05Z</time></trkpt><trkpt lat="44.531286849712984" lon="10.614550607160293"><ele>286.3333333333333</ele><time>2026-04-18T12:04:06Z</time></trkpt><trkpt lat="44.53144932298784" lon="10.614407289862278"><ele>280.6666666666667</ele><time>2026-04-18T12:04:07Z</time></trkpt><trkpt lat="44.531584305925215" lon="10.61428365544671"><ele>275.0</ele><time>2026-04-18T12:04:08Z</time></trkpt><trkpt lat="44.53170182224876" lon="10.614181432955899"><ele>275.0</ele><time>2026-04-18T12:04:09Z</time></trkpt><trkpt lat="44.53183740921313" lon="10.614114076065988"><ele>275.0</ele><time>2026-04-18T12:04:10Z</time></trkpt><trkpt lat="44.53197799679196" lon="10.61410255944018"><ele>275.0</ele><time>2026-04-18T12:04:11Z</time></trkpt><trkpt lat="44.53212952241777" lon="10.614092110843863"><ele>275.0</ele><time>2026-04-18T12:04:12Z</time></trkpt><trkpt lat="44.53227236118302" lon="10.614039459470483"><ele>272.0</ele><time>2026-04-18T12:04:13Z</time></trkpt><trkpt lat="44.53239883888168" lon="10.613936235837896"><ele>269.0</ele><time>2026-04-18T12:04:14Z</time></trkpt><trkpt lat="44.53250518895129" lon="10.613784072473798"><ele>266.0</ele><time>2026-04-18T12:04:15Z</time></trkpt><trkpt lat="44.53261056074938" lon="10.613604891466641"><ele>266.0</ele><time>2026-04-18T12:04:16Z</time></trkpt><trkpt lat="44.532717338897974" lon="10.61347819119949"><ele>266.0</ele><time>2026-04-18T12:04:17Z</time></trkpt><trkpt lat="44.532814027769014" lon="10.613374064581231"><ele>266.0</ele><time>2026-04-18T12:04:18Z</time></trkpt><trkpt lat="44.53292480332216" lon="10.613334543696777"><ele>266.0</ele><time>2026-04-18T12:04:19Z</time></trkpt><trkpt lat="44.53306235579222" lon="10.613279133500516"><ele>268.6666666666667</ele><time>2026-04-18T12:04:20Z</time></trkpt><trkpt lat="44.533219477754535" lon="10.613195934538808"><ele>271.3333333333333</ele><time>2026-04-18T12:04:21Z</time></trkpt><trkpt lat="44.53336719719983" lon="10.613130269850219"><ele>274.0</ele><time>2026-04-18T12:04:22Z</time></trkpt><trkpt lat="44.53351541142162" lon="10.613121008023656"><ele>274.0</ele><time>2026-04-18T12:04:23Z</time></trkpt><trkpt lat="44.53365586829484" lon="10.613070212648637"><ele>274.0</ele><time>2026-04-18T12:04:24Z</time></trkpt><trkpt lat="44.533794474805745" lon="10.612953749873833"><ele>274.0</ele><time>2026-04-18T12:04:25Z</time></trkpt><trkpt lat="44.533918057507535" lon="10.612805504294094"><ele>269.0</ele><time>2026-04-18T12:04:26Z</time></trkpt><trkpt lat="44.53405556330911" lon="10.61271024822863"><ele>264.0</ele><time>2026-04-18T12:04:27Z</time></trkpt><trkpt lat="44.534188338327084" lon="10.61263589637347"><ele>259.0</ele><time>2026-04-18T12:04:28Z</time></trkpt><trkpt lat="44.534337292036895" lon="10.612577070996586"><ele>259.0</ele><time>2026-04-18T12:04:29Z</time></trkpt><trkpt lat="44.53448801098069" lon="10.612498529304517"><ele>259.0</ele><time>2026-04-18T12:04:30Z</time></trkpt><trkpt lat="44.53461909777784" lon="10.612473677307923"><ele>259.0</ele><time>2026-04-18T12:04:31Z</time></trkpt><trkpt lat="44.53473178028247" lon="10.612485875450664"><ele>259.0</ele><time>2026-04-18T12:04:32Z</time></trkpt><trkpt lat="44.53481997654138" lon="10.612547992712132"><ele>260.0</ele><time>2026-04-18T12:04:33Z</time></trkpt><trkpt lat="44.534886369904484" lon="10.612671450229875"><ele>261.0</ele><time>2026-04-18T12:04:34Z</time></trkpt><trkpt lat="44.53496632216238" lon="10.612843460098052"><ele>262.0</ele><time>2026-04-18T12:04:35Z</time></trkpt><trkpt lat="44.535059408502974" lon="10.613015452842774"><ele>263.0</ele><time>2026-04-18T12:04:36Z</time></trkpt><trkpt lat="44.535148293439754" lon="10.6131680913604"><ele>263.0</ele><time>2026-04-18T12:04:37Z</time></trkpt><trkpt lat="44.535230447564594" lon="10.613288778792366"><ele>263.0</ele><time>2026-04-18T12:04:38Z</time></trkpt><trkpt lat="44.535336275935244" lon="10.613373295837865"><ele>263.0</ele><time>2026-04-18T12:04:39Z</time></trkpt><trkpt lat="44.535451383505894" lon="10.613412840505676"><ele>263.0</ele><time>2026-04-18T12:04:40Z</time></trkpt><trkpt lat="44.53559375164033" lon="10.613419584098217"><ele>258.6666666666667</ele><time>2026-04-18T12:04:41Z</time></trkpt><trkpt lat="44.535746660271606" lon="10.613439550087843"><ele>254.33333333333331</ele><time>2026-04-18T12:04:42Z</time></trkpt><trkpt lat="44.53590784071441" lon="10.61350364261169"><ele>250.0</ele><time>2026-04-18T12:04:43Z</time></trkpt><trkpt lat="44.536066307825784" lon="10.61359566893781"><ele>249.66666666666666</ele><time>2026-04-18T12:04:44Z</time></trkpt><trkpt lat="44.5362170615283" lon="10.613691416221124"><ele>249.33333333333331</ele><time>2026-04-18T12:04:45Z</time></trkpt><trkpt lat="44.53635935798386" lon="10.613789475823918"><ele>249.0</ele><time>2026-04-18T12:04:46Z</time></trkpt><trkpt lat="44.53650404435043" lon="10.6139077131792"><ele>249.0</ele><time>2026-04-18T12:04:47Z</time></trkpt><trkpt lat="44.536639361645754" lon="10.614050388794155"><ele>249.0</ele><time>2026-04-18T12:04:48Z</time></trkpt><trkpt lat="44.53675568675062" lon="10.614204263924147"><ele>249.0</ele><time>2026-04-18T12:04:49Z</time></trkpt><trkpt lat="44.53686536132787" lon="10.614364796872009"><ele>248.75</ele><time>2026-04-18T12:04:50Z</time></trkpt><trkpt lat="44.53696022782955" lon="10.614527009197593"><ele>248.5</ele><time>2026-04-18T12:04:51Z</time></trkpt><trkpt lat="44.53702918136591" lon="10.614691523579577"><ele>248.25</ele><time>2026-04-18T12:04:52Z</time></trkpt><trkpt lat="44.537073497401785" lon="10.614867251416461"><ele>248.0</ele><time>2026-04-18T12:04:53Z</time></trkpt><trkpt lat="44.53707642188042" lon="10.615076142471521"><ele>244.0</ele><time>2026-04-18T12:04:54Z</time></trkpt><trkpt lat="44.53708241472134" lon="10.615275404073751"><ele>240.0</ele><time>2026-04-18T12:04:55Z</time></trkpt><trkpt lat="44.537124200897495" lon="10.61549125699862"><ele>236.0</ele><time>2026-04-18T12:04:56Z</time></trkpt><trkpt lat="44.53720723282703" lon="10.615717794027308"><ele>236.0</ele><time>2026-04-18T12:04:57Z</time></trkpt><trkpt lat="44.537307298800954" lon="10.61591718343649"><ele>236.0</ele><time>2026-04-18T12:04:58Z</time></trkpt><trkpt lat="44.53741616312365" lon="10.616084831017027"><ele>236.0</ele><time>2026-04-18T12:04:59Z</time></trkpt><trkpt lat="44.53752312066976" lon="10.616257170641068"><ele>235.5</ele><time>2026-04-18T12:05:00Z</time></trkpt><trkpt lat="44.53762585829652" lon="10.61640020093499"><ele>235.0</ele><time>2026-04-18T12:05:01Z</time></trkpt><trkpt lat="44.53772596852389" lon="10.616535371722916"><ele>234.5</ele><time>2026-04-18T12:05:02Z</time></trkpt><trkpt lat="44.53781788657429" lon="10.616662039505933"><ele>234.0</ele><time>2026-04-18T12:05:03Z</time></trkpt><trkpt lat="44.537913771076624" lon="10.61678405687063"><ele>234.0</ele><time>2026-04-18T12:05:04Z</time></trkpt><trkpt lat="44.53800402741724" lon="10.616902084310206"><ele>234.0</ele><time>2026-04-18T12:05:05Z</time></trkpt><trkpt lat="44.53808427801232" lon="10.617021997635943"><ele>234.0</ele><time>2026-04-18T12:05:06Z</time></trkpt><trkpt lat="44.53815259770974" lon="10.617144128449814"><ele>234.0</ele><time>2026-04-18T12:05:07Z</time></trkpt><trkpt lat="44.53821778315999" lon="10.617262870318383"><ele>234.6</ele><time>2026-04-18T12:05:08Z</time></trkpt><trkpt lat="44.538291879295095" lon="10.617366178454507"><ele>235.2</ele><time>2026-04-18T12:05:09Z</time></trkpt><trkpt lat="44.53838166737425" lon="10.61743238548861"><ele>235.79999999999998</ele><time>2026-04-18T12:05:10Z</time></trkpt><trkpt lat="44.538475311829195" lon="10.617474028780078"><ele>236.39999999999998</ele><time>2026-04-18T12:05:11Z</time></trkpt><trkpt lat="44.538563033305444" lon="10.617507604186047"><ele>237.0</ele><time>2026-04-18T12:05:12Z</time></trkpt><trkpt lat="44.53864498184185" lon="10.61753862117329"><ele>237.6</ele><time>2026-04-18T12:05:13Z</time></trkpt><trkpt lat="44.53872060059281" lon="10.6175649652997"><ele>238.2</ele><time>2026-04-18T12:05:14Z</time></trkpt><trkpt lat="44.53879968478205" lon="10.61760596437608"><ele>238.8</ele><time>2026-04-18T12:05:15Z</time></trkpt><trkpt lat="44.538878510793516" lon="10.61766175839677"><ele>239.4</ele><time>2026-04-18T12:05:16Z</time></trkpt><trkpt lat="44.538969618790226" lon="10.61774215295894"><ele>240.0</ele><time>2026-04-18T12:05:17Z</time></trkpt><trkpt lat="44.53907132512957" lon="10.617833479345377"><ele>240.0</ele><time>2026-04-18T12:05:18Z</time></trkpt><trkpt lat="44.539180647867425" lon="10.617927404954182"><ele>240.0</ele><time>2026-04-18T12:05:19Z</time></trkpt><trkpt lat="44.53929291422013" lon="10.618013534524403"><ele>240.0</ele><time>2026-04-18T12:05:20Z</time></trkpt><trkpt lat="44.539413956663516" lon="10.61807836326684"><ele>240.0</ele><time>2026-04-18T12:05:21Z</time></trkpt><trkpt lat="44.53953497248521" lon="10.618129885036177"><ele>236.75</ele><time>2026-04-18T12:05:22Z</time></trkpt><trkpt lat="44.53966902992983" lon="10.618171274495337"><ele>233.5</ele><time>2026-04-18T12:05:23Z</time></trkpt><trkpt lat="44.539808758724" lon="10.618190541530664"><ele>230.25</ele><time>2026-04-18T12:05:24Z</time></trkpt><trkpt lat="44.539958545354324" lon="10.618177508156352"><ele>227.0</ele><time>2026-04-18T12:05:25Z</time></trkpt><trkpt lat="44.540130761449" lon="10.618116447813865"><ele>227.0</ele><time>2026-04-18T12:05:26Z</time></trkpt><trkpt lat="44.54032220136564" lon="10.61804227343928"><ele>227.0</ele><time>2026-04-18T12:05:27Z</time></trkpt><trkpt lat="44.54050805151547" lon="10.617971355498034"><ele>227.0</ele><time>2026-04-18T12:05:28Z</time></trkpt><trkpt lat="44.54067628553799" lon="10.617919916286073"><ele>225.33333333333334</ele><time>2026-04-18T12:05:29Z</time></trkpt><trkpt lat="44.54083583538038" lon="10.617865023632334"><ele>223.66666666666669</ele><time>2026-04-18T12:05:30Z</time></trkpt><trkpt lat="44.54098154904373" lon="10.61781506715121"><ele>222.0</ele><time>2026-04-18T12:05:31Z</time></trkpt><trkpt lat="44.541118170166605" lon="10.617755619093174"><ele>223.0</ele><time>2026-04-18T12:05:32Z</time></trkpt><trkpt lat="44.541247324430195" lon="10.617719372270935"><ele>224.0</ele><time>2026-04-18T12:05:33Z</time></trkpt><trkpt lat="44.541366979141195" lon="10.617742161055299"><ele>225.0</ele><time>2026-04-18T12:05:34Z</time></trkpt><trkpt lat="44.541476371436474" lon="10.617781855995405"><ele>226.0</ele><time>2026-04-18T12:05:35Z</time></trkpt><trkpt lat="44.541567469459864" lon="10.61785982221452"><ele>226.0</ele><time>2026-04-18T12:05:36Z</time></trkpt><trkpt lat="44.541647316453144" lon="10.61794976381168"><ele>226.00000000000003</ele><time>2026-04-18T12:05:37Z</time></trkpt><trkpt lat="44.54171926971134" lon="10.618038742386732"><ele>226.00000000000003</ele><time>2026-04-18T12:05:38Z</time></trkpt><trkpt lat="44.541773310869075" lon="10.618151276080589"><ele>226.0</ele><time>2026-04-18T12:05:39Z</time></trkpt><trkpt lat="44.541822120731226" lon="10.618275333826064"><ele>226.0</ele><time>2026-04-18T12:05:40Z</time></trkpt><trkpt lat="44.54186807665101" lon="10.618403911171804"><ele>226.0</ele><time>2026-04-18T12:05:41Z</time></trkpt><trkpt lat="44.54191783424631" lon="10.618539853002499"><ele>226.0</ele><time>2026-04-18T12:05:42Z</time></trkpt><trkpt lat="44.54196998522866" lon="10.618679503719443"><ele>226.0</ele><time>2026-04-18T12:05:43Z</time></trkpt><trkpt lat="44.54202858913661" lon="10.61882762314072"><ele>226.0</ele><time>2026-04-18T12:05:44Z</time></trkpt><trkpt lat="44.542087777201644" lon="10.618973941544176"><ele>226.8</ele><time>2026-04-18T12:05:45Z</time></trkpt><trkpt lat="44.54214506591074" lon="10.619121517398206"><ele>227.60000000000002</ele><time>2026-04-18T12:05:46Z</time></trkpt><trkpt lat="44.54220085157609" lon="10.619259073015359"><ele>228.4</ele><time>2026-04-18T12:05:47Z</time></trkpt><trkpt lat="44.542253550736184" lon="10.619383868496138"><ele>229.2</ele><time>2026-04-18T12:05:48Z</time></trkpt><trkpt lat="44.54229382676755" lon="10.619467105033669"><ele>230.0</ele><time>2026-04-18T12:05:49Z</time></trkpt><trkpt lat="44.54239213968549" lon="10.619374184968649"><ele>230.0</ele><time>2026-04-18T12:05:52Z</time></trkpt><trkpt lat="44.54244592519569" lon="10.619292270204447"><ele>230.0</ele><time>2026-04-18T12:05:53Z</time></trkpt><trkpt lat="44.54251807105515" lon="10.61918366615766"><ele>230.0</ele><time>2026-04-18T12:05:54Z</time></trkpt><trkpt lat="44.542591790267295" lon="10.619066616613878"><ele>230.0</ele><time>2026-04-18T12:05:55Z</time></trkpt><trkpt lat="44.54266114744866" lon="10.618968552067853"><ele>230.0</ele><time>2026-04-18T12:05:56Z</time></trkpt><trkpt lat="44.54271837647161" lon="10.618877836468597"><ele>230.0</ele><time>2026-04-18T12:05:57Z</time></trkpt><trkpt lat="44.54276196215987" lon="10.618802863817258"><ele>230.0</ele><time>2026-04-18T12:05:58Z</time></trkpt><trkpt lat="44.542838611405806" lon="10.618679252255644"><ele>230.0</ele><time>2026-04-18T12:06:00Z</time></trkpt><trkpt lat="44.54290956139003" lon="10.61857612150486"><ele>230.0</ele><time>2026-04-18T12:06:02Z</time></trkpt><trkpt lat="44.54298671056038" lon="10.618466032160075"><ele>230.0</ele><time>2026-04-18T12:06:04Z</time></trkpt><trkpt lat="44.54303636972942" lon="10.618393891705155"><ele>230.5</ele><time>2026-04-18T12:06:06Z</time></trkpt><trkpt lat="44.54296985405756" lon="10.618217615302276"><ele>231.0</ele><time>2026-04-18T12:06:08Z</time></trkpt><trkpt lat="44.54291561714332" lon="10.618090749106152"><ele>231.5</ele><time>2026-04-18T12:06:09Z</time></trkpt><trkpt lat="44.542827051634134" lon="10.617927533557424"><ele>232.0</ele><time>2026-04-18T12:06:10Z</time></trkpt><trkpt lat="44.54276066562087" lon="10.61780331031556"><ele>232.66666666666666</ele><time>2026-04-18T12:06:11Z</time></trkpt><trkpt lat="44.54270721575755" lon="10.617707521391653"><ele>233.33333333333331</ele><time>2026-04-18T12:06:12Z</time></trkpt><trkpt lat="44.54266517264948" lon="10.617639550039659"><ele>234.0</ele><time>2026-04-18T12:06:13Z</time></trkpt><trkpt lat="44.54260752010764" lon="10.61756176671727"><ele>234.66666666666669</ele><time>2026-04-18T12:06:15Z</time></trkpt><trkpt lat="44.542539179950715" lon="10.617523596385094"><ele>235.33333333333334</ele><time>2026-04-18T12:06:37Z</time></trkpt><trkpt lat="44.54246813264038" lon="10.617428164020758"><ele>236.0</ele><time>2026-04-18T12:06:39Z</time></trkpt><trkpt lat="44.54237965849622" lon="10.61734193677119"><ele>236.00000000000003</ele><time>2026-04-18T12:06:41Z</time></trkpt><trkpt lat="44.54230504568113" lon="10.617343533919156"><ele>236.0</ele><time>2026-04-18T12:06:42Z</time></trkpt><trkpt lat="44.5422026418396" lon="10.617235753472126"><ele>236.0</ele><time>2026-04-18T12:06:44Z</time></trkpt><trkpt lat="44.54215296094795" lon="10.61717471370382"><ele>236.0</ele><time>2026-04-18T12:06:45Z</time></trkpt><trkpt lat="44.54210609699047" lon="10.617111034170822"><ele>236.00000000000003</ele><time>2026-04-18T12:06:46Z</time></trkpt><trkpt lat="44.542060021160715" lon="10.617042196213525"><ele>236.0</ele><time>2026-04-18T12:06:47Z</time></trkpt><trkpt lat="44.54201811620092" lon="10.616972669199475"><ele>236.00000000000003</ele><time>2026-04-18T12:06:48Z</time></trkpt><trkpt lat="44.54200335793923" lon="10.61686429462016"><ele>236.0</ele><time>2026-04-18T12:06:49Z</time></trkpt><trkpt lat="44.54193806415131" lon="10.616766310350332"><ele>236.0</ele><time>2026-04-18T12:06:51Z</time></trkpt><trkpt lat="44.54200548733499" lon="10.616832423329818"><ele>236.0</ele><time>2026-04-18T12:06:59Z</time></trkpt><trkpt lat="44.542097672752575" lon="10.616865035109424"><ele>236.00000000000003</ele><time>2026-04-18T12:07:00Z</time></trkpt><trkpt lat="44.54214015724806" lon="10.616930365801664"><ele>236.0</ele><time>2026-04-18T12:07:01Z</time></trkpt><trkpt lat="44.542184338057815" lon="10.617009886893596"><ele>236.0</ele><time>2026-04-18T12:07:02Z</time></trkpt><trkpt lat="44.54225304163521" lon="10.617091163109167"><ele>236.00000000000003</ele><time>2026-04-18T12:07:04Z</time></trkpt><trkpt lat="44.54233026370968" lon="10.617107109755171"><ele>236.00000000000003</ele><time>2026-04-18T12:07:05Z</time></trkpt><trkpt lat="44.54238018592615" lon="10.61716696355826"><ele>236.0</ele><time>2026-04-18T12:07:06Z</time></trkpt><trkpt lat="44.54247081720231" lon="10.617282801926876"><ele>236.0</ele><time>2026-04-18T12:07:07.999Z</time></trkpt><trkpt lat="44.542436631738624" lon="10.617462209280063"><ele>236.00000000000003</ele><time>2026-04-18T12:07:09Z</time></trkpt><trkpt lat="44.54252081006965" lon="10.617543964100172"><ele>236.0</ele><time>2026-04-18T12:07:11Z</time></trkpt><trkpt lat="44.54258339303867" lon="10.617533317881017"><ele>236.0</ele><time>2026-04-18T12:07:15Z</time></trkpt><trkpt lat="44.5425647618908" lon="10.617415611119176"><ele>236.0</ele><time>2026-04-18T12:07:18Z</time></trkpt><trkpt lat="44.54249453710406" lon="10.617425523566414"><ele>236.00000000000003</ele><time>2026-04-18T12:07:19Z</time></trkpt><trkpt lat="44.5424231642131" lon="10.617355963738248"><ele>236.0</ele><time>2026-04-18T12:07:21Z</time></trkpt><trkpt lat="44.542357632521224" lon="10.617292094626963"><ele>236.0</ele><time>2026-04-18T12:07:24Z</time></trkpt><trkpt lat="44.54249648723977" lon="10.617143841321878"><ele>236.00000000000003</ele><time>2026-04-18T12:07:26Z</time></trkpt><trkpt lat="44.542552109830936" lon="10.617085137131319"><ele>236.00000000000003</ele><time>2026-04-18T12:07:27Z</time></trkpt><trkpt lat="44.5426292751322" lon="10.61700505833067"><ele>236.0</ele><time>2026-04-18T12:07:29Z</time></trkpt><trkpt lat="44.5427131510243" lon="10.616913923899892"><ele>236.0</ele><time>2026-04-18T12:07:31Z</time></trkpt><trkpt lat="44.542795435681555" lon="10.616815945366566"><ele>237.20000000000002</ele><time>2026-04-18T12:07:33Z</time></trkpt><trkpt lat="44.54286714149578" lon="10.616723442982737"><ele>238.40000000000003</ele><time>2026-04-18T12:07:36Z</time></trkpt><trkpt lat="44.54294006821829" lon="10.616643780044344"><ele>239.6</ele><time>2026-04-18T12:07:38Z</time></trkpt><trkpt lat="44.542998260632395" lon="10.616556662328788"><ele>240.8</ele><time>2026-04-18T12:07:41Z</time></trkpt><trkpt lat="44.54300340278516" lon="10.616460913638903"><ele>242.0</ele><time>2026-04-18T12:07:47Z</time></trkpt><trkpt lat="44.543214398511296" lon="10.616373071085357"><ele>243.28571428571428</ele><time>2026-04-18T12:08:22Z</time></trkpt><trkpt lat="44.54326478408727" lon="10.616284489765103"><ele>244.57142857142856</ele><time>2026-04-18T12:08:30Z</time></trkpt><trkpt lat="44.543303000705244" lon="10.616214191561362"><ele>245.85714285714283</ele><time>2026-04-18T12:08:43Z</time></trkpt><trkpt lat="44.543367474899135" lon="10.616172218204639"><ele>247.1428571428571</ele><time>2026-04-18T12:08:45Z</time></trkpt><trkpt lat="44.54342022645146" lon="10.616117550367948"><ele>248.42857142857142</ele><time>2026-04-18T12:08:47Z</time></trkpt><trkpt lat="44.543484183823466" lon="10.616081583764002"><ele>249.71428571428567</ele><time>2026-04-18T12:08:56Z</time></trkpt><trkpt lat="44.54355712139626" lon="10.616083366656795"><ele>250.99999999999997</ele><time>2026-04-18T12:09:12.999Z</time></trkpt><trkpt lat="44.54365147257139" lon="10.616107070216565"><ele>252.00000000000003</ele><time>2026-04-18T12:09:24Z</time></trkpt><trkpt lat="44.543713457357114" lon="10.616143297791675"><ele>253.0</ele><time>2026-04-18T12:09:27Z</time></trkpt><trkpt lat="44.543775541162205" lon="10.616168808414475"><ele>254.0</ele><time>2026-04-18T12:09:31Z</time></trkpt><trkpt lat="44.54384724959993" lon="10.616158285494231"><ele>255.0</ele><time>2026-04-18T12:09:35Z</time></trkpt><trkpt lat="44.543917441382156" lon="10.616124872962388"><ele>256.0</ele><time>2026-04-18T12:09:38Z</time></trkpt><trkpt lat="44.54398039865202" lon="10.616031791114928"><ele>257.0</ele><time>2026-04-18T12:09:41Z</time></trkpt><trkpt lat="44.54402635064859" lon="10.615918594607678"><ele>258.5</ele><time>2026-04-18T12:09:43Z</time></trkpt><trkpt lat="44.54405159961924" lon="10.615774444997752"><ele>260.0</ele><time>2026-04-18T12:09:45Z</time></trkpt><trkpt lat="44.544100088693106" lon="10.615673609821865"><ele>261.5</ele><time>2026-04-18T12:09:47Z</time></trkpt><trkpt lat="44.54418812498279" lon="10.615704926430494"><ele>263.0</ele><time>2026-04-18T12:09:49Z</time></trkpt><trkpt lat="44.54425763292337" lon="10.615735269838499"><ele>264.5</ele><time>2026-04-18T12:09:50Z</time></trkpt><trkpt lat="44.544318423919464" lon="10.61575861091492"><ele>266.0</ele><time>2026-04-18T12:09:51Z</time></trkpt><trkpt lat="44.544430822917626" lon="10.615795021350154"><ele>266.0</ele><time>2026-04-18T12:09:53Z</time></trkpt><trkpt lat="44.54453707026418" lon="10.61581155643801"><ele>266.0</ele><time>2026-04-18T12:09:55Z</time></trkpt><trkpt lat="44.54461931304104" lon="10.615820912619805"><ele>266.0</ele><time>2026-04-18T12:09:57Z</time></trkpt><trkpt lat="44.5447328123787" lon="10.615852380942234"><ele>266.0</ele><time>2026-04-18T12:09:59Z</time></trkpt><trkpt lat="44.54483970314791" lon="10.615871434175517"><ele>266.0</ele><time>2026-04-18T12:10:01Z</time></trkpt><trkpt lat="44.54495239014638" lon="10.615895648249257"><ele>266.6</ele><time>2026-04-18T12:10:03Z</time></trkpt><trkpt lat="44.545048361760436" lon="10.615911920254849"><ele>267.20000000000005</ele><time>2026-04-18T12:10:05Z</time></trkpt><trkpt lat="44.545174710591944" lon="10.615933712470156"><ele>267.79999999999995</ele><time>2026-04-18T12:10:07Z</time></trkpt><trkpt lat="44.54529677382329" lon="10.61596851723901"><ele>268.4</ele><time>2026-04-18T12:10:09Z</time></trkpt><trkpt lat="44.54536059925718" lon="10.615986566240263"><ele>269.0</ele><time>2026-04-18T12:10:10Z</time></trkpt><trkpt lat="44.54542324694769" lon="10.616006476387902"><ele>270.59999999999997</ele><time>2026-04-18T12:10:11Z</time></trkpt><trkpt lat="44.54555697740633" lon="10.616057817676554"><ele>272.2</ele><time>2026-04-18T12:10:13Z</time></trkpt><trkpt lat="44.545626322704166" lon="10.616083306533714"><ele>273.79999999999995</ele><time>2026-04-18T12:10:14Z</time></trkpt><trkpt lat="44.54572240114811" lon="10.616102238516175"><ele>275.4</ele><time>2026-04-18T12:10:16Z</time></trkpt><trkpt lat="44.54581187616177" lon="10.616073574158637"><ele>277.0</ele><time>2026-04-18T12:10:18Z</time></trkpt><trkpt lat="44.54588379810829" lon="10.615988422995386"><ele>277.0</ele><time>2026-04-18T12:10:20Z</time></trkpt><trkpt lat="44.54591796754393" lon="10.615913161185967"><ele>277.0</ele><time>2026-04-18T12:10:21Z</time></trkpt><trkpt lat="44.54595088968338" lon="10.615824905566592"><ele>277.0</ele><time>2026-04-18T12:10:22Z</time></trkpt><trkpt lat="44.54598983116158" lon="10.615743840005054"><ele>277.0</ele><time>2026-04-18T12:10:23Z</time></trkpt><trkpt lat="44.54601897586507" lon="10.615652726863797"><ele>277.0</ele><time>2026-04-18T12:10:24Z</time></trkpt><trkpt lat="44.5460528305437" lon="10.615576227181126"><ele>277.0</ele><time>2026-04-18T12:10:25Z</time></trkpt><trkpt lat="44.54609044103437" lon="10.61548455359374"><ele>277.0</ele><time>2026-04-18T12:10:26Z</time></trkpt><trkpt lat="44.546135827513126" lon="10.615368621037216"><ele>279.16666666666663</ele><time>2026-04-18T12:10:27Z</time></trkpt><trkpt lat="44.546172846392345" lon="10.615276715046573"><ele>281.3333333333333</ele><time>2026-04-18T12:10:28Z</time></trkpt><trkpt lat="44.54621026844176" lon="10.615175617353158"><ele>283.5</ele><time>2026-04-18T12:10:29Z</time></trkpt><trkpt lat="44.54625019724613" lon="10.615077886251548"><ele>285.6666666666667</ele><time>2026-04-18T12:10:30Z</time></trkpt><trkpt lat="44.54628817725192" lon="10.614985480342403"><ele>287.83333333333337</ele><time>2026-04-18T12:10:31Z</time></trkpt><trkpt lat="44.546325776266016" lon="10.614888332870454"><ele>290.0</ele><time>2026-04-18T12:10:32Z</time></trkpt><trkpt lat="44.54637163914133" lon="10.614772803185536"><ele>294.0</ele><time>2026-04-18T12:10:33Z</time></trkpt><trkpt lat="44.546415697750106" lon="10.61466155541432"><ele>298.0</ele><time>2026-04-18T12:10:34Z</time></trkpt><trkpt lat="44.5464539383616" lon="10.614563225372576"><ele>302.0</ele><time>2026-04-18T12:10:35Z</time></trkpt><trkpt lat="44.546492667828225" lon="10.614446058048467"><ele>306.0</ele><time>2026-04-18T12:10:36Z</time></trkpt><trkpt lat="44.54653083154388" lon="10.614333976569112"><ele>310.0</ele><time>2026-04-18T12:10:37Z</time></trkpt><trkpt lat="44.54659819214651" lon="10.614165421172828"><ele>311.0</ele><time>2026-04-18T12:10:39Z</time></trkpt><trkpt lat="44.546630705578885" lon="10.614081348721383"><ele>312.0</ele><time>2026-04-18T12:10:40Z</time></trkpt><trkpt lat="44.546634633693486" lon="10.613941023310646"><ele>313.0</ele><time>2026-04-18T12:10:42Z</time></trkpt><trkpt lat="44.54661333543544" lon="10.613850762789786"><ele>314.0</ele><time>2026-04-18T12:10:44Z</time></trkpt><trkpt lat="44.54658764663354" lon="10.613702672945555"><ele>315.0</ele><time>2026-04-18T12:10:46Z</time></trkpt><trkpt lat="44.546503346124055" lon="10.61357964352065"><ele>315.0</ele><time>2026-04-18T12:10:48Z</time></trkpt><trkpt lat="44.546457997307336" lon="10.613515918544632"><ele>315.0</ele><time>2026-04-18T12:10:49Z</time></trkpt><trkpt lat="44.54639933789091" lon="10.613435432433207"><ele>315.0</ele><time>2026-04-18T12:10:50Z</time></trkpt><trkpt lat="44.54632614681235" lon="10.613339977071814"><ele>315.0</ele><time>2026-04-18T12:10:51Z</time></trkpt><trkpt lat="44.546259796933825" lon="10.613253989833346"><ele>315.0</ele><time>2026-04-18T12:10:52Z</time></trkpt><trkpt lat="44.54621172107412" lon="10.613192136754432"><ele>315.0</ele><time>2026-04-18T12:10:53Z</time></trkpt><trkpt lat="44.54612685431233" lon="10.613082950543983"><ele>315.8</ele><time>2026-04-18T12:10:55Z</time></trkpt><trkpt lat="44.546030061863924" lon="10.612958420889198"><ele>316.6</ele><time>2026-04-18T12:10:57Z</time></trkpt><trkpt lat="44.54597096941286" lon="10.612882394609976"><ele>317.4</ele><time>2026-04-18T12:10:58Z</time></trkpt><trkpt lat="44.54591477229361" lon="10.612810093416684"><ele>318.2</ele><time>2026-04-18T12:10:59Z</time></trkpt><trkpt lat="44.545852998708476" lon="10.612729406812086"><ele>319.0</ele><time>2026-04-18T12:11:00Z</time></trkpt><trkpt lat="44.54579402852286" lon="10.612651511786584"><ele>319.0</ele><time>2026-04-18T12:11:01Z</time></trkpt><trkpt lat="44.54573235599206" lon="10.612570047867235"><ele>319.0</ele><time>2026-04-18T12:11:02Z</time></trkpt><trkpt lat="44.54567644603789" lon="10.612493444232204"><ele>319.0</ele><time>2026-04-18T12:11:03Z</time></trkpt><trkpt lat="44.545624550165535" lon="10.612413168023389"><ele>319.0</ele><time>2026-04-18T12:11:04Z</time></trkpt><trkpt lat="44.54557934199901" lon="10.612330321381483"><ele>319.0</ele><time>2026-04-18T12:11:05Z</time></trkpt><trkpt lat="44.5455396641853" lon="10.612249604830156"><ele>319.0</ele><time>2026-04-18T12:11:06Z</time></trkpt><trkpt lat="44.545491558137485" lon="10.612150821878348"><ele>319.0</ele><time>2026-04-18T12:11:07Z</time></trkpt><trkpt lat="44.54547228235544" lon="10.612064150853419"><ele>319.0</ele><time>2026-04-18T12:11:08Z</time></trkpt><trkpt lat="44.54543194988091" lon="10.611925640357317"><ele>319.0</ele><time>2026-04-18T12:11:09Z</time></trkpt><trkpt lat="44.54544269796057" lon="10.6115238283993"><ele>319.25</ele><time>2026-04-18T12:11:10Z</time></trkpt><trkpt lat="44.545264818099334" lon="10.611286250141584"><ele>319.5</ele><time>2026-04-18T12:11:11Z</time></trkpt><trkpt lat="44.545213199625515" lon="10.611228461148933"><ele>319.75</ele><time>2026-04-18T12:11:12Z</time></trkpt><trkpt lat="44.54515591720211" lon="10.611154597641217"><ele>320.0</ele><time>2026-04-18T12:11:13Z</time></trkpt><trkpt lat="44.54506213786466" lon="10.611058751800721"><ele>341.0</ele><time>2026-04-18T12:11:14.999Z</time></trkpt><trkpt lat="44.54448978228853" lon="10.61134192417941"><ele>341.0</ele><time>2026-04-18T12:11:41Z</time></trkpt><trkpt lat="44.544425763655504" lon="10.611325150033617"><ele>341.0</ele><time>2026-04-18T12:11:42Z</time></trkpt><trkpt lat="44.544298805717524" lon="10.611283185561414"><ele>341.0</ele><time>2026-04-18T12:11:44Z</time></trkpt><trkpt lat="44.544233878995115" lon="10.611240583677755"><ele>341.0</ele><time>2026-04-18T12:11:45Z</time></trkpt><trkpt lat="44.54418495179214" lon="10.611177845573998"><ele>341.0</ele><time>2026-04-18T12:11:46Z</time></trkpt><trkpt lat="44.54413623980178" lon="10.611108323478708"><ele>341.0</ele><time>2026-04-18T12:11:47Z</time></trkpt><trkpt lat="44.54407508648198" lon="10.611061468413835"><ele>341.83333333333337</ele><time>2026-04-18T12:11:48Z</time></trkpt><trkpt lat="44.54399834327782" lon="10.611001789784634"><ele>342.6666666666667</ele><time>2026-04-18T12:11:49Z</time></trkpt><trkpt lat="44.543924388820756" lon="10.610947716452207"><ele>343.5</ele><time>2026-04-18T12:11:50Z</time></trkpt><trkpt lat="44.54387186636576" lon="10.61089037669563"><ele>344.3333333333333</ele><time>2026-04-18T12:11:51Z</time></trkpt><trkpt lat="44.54380714129646" lon="10.610748465717188"><ele>345.16666666666663</ele><time>2026-04-18T12:11:53Z</time></trkpt><trkpt lat="44.543782617337484" lon="10.610645700369504"><ele>346.0</ele><time>2026-04-18T12:11:54Z</time></trkpt><trkpt lat="44.543778645840455" lon="10.610524330585962"><ele>346.0</ele><time>2026-04-18T12:11:55Z</time></trkpt><trkpt lat="44.54377881086215" lon="10.610410923194715"><ele>346.0</ele><time>2026-04-18T12:11:56Z</time></trkpt><trkpt lat="44.543793451207264" lon="10.610284312549338"><ele>346.0</ele><time>2026-04-18T12:11:57Z</time></trkpt><trkpt lat="44.543818902473596" lon="10.610152988025437"><ele>346.0</ele><time>2026-04-18T12:11:58Z</time></trkpt><trkpt lat="44.54384907528016" lon="10.610017848382789"><ele>346.0</ele><time>2026-04-18T12:11:59Z</time></trkpt><trkpt lat="44.543879934626055" lon="10.609859980198047"><ele>346.6</ele><time>2026-04-18T12:12:00Z</time></trkpt><trkpt lat="44.54390994007084" lon="10.609724029682507"><ele>347.20000000000005</ele><time>2026-04-18T12:12:01Z</time></trkpt><trkpt lat="44.54393798411876" lon="10.609583779488078"><ele>347.79999999999995</ele><time>2026-04-18T12:12:02Z</time></trkpt><trkpt lat="44.543951378607936" lon="10.609433641221347"><ele>348.4</ele><time>2026-04-18T12:12:03Z</time></trkpt><trkpt lat="44.54393193258327" lon="10.609259129467144"><ele>349.0</ele><time>2026-04-18T12:12:04Z</time></trkpt><trkpt lat="44.54392089078773" lon="10.609108493559871"><ele>349.6</ele><time>2026-04-18T12:12:05Z</time></trkpt><trkpt lat="44.5439225555401" lon="10.608937748333204"><ele>350.2</ele><time>2026-04-18T12:12:06Z</time></trkpt><trkpt lat="44.54393557466759" lon="10.60878931692477"><ele>350.8</ele><time>2026-04-18T12:12:07Z</time></trkpt><trkpt lat="44.543932043098486" lon="10.608631902613892"><ele>351.40000000000003</ele><time>2026-04-18T12:12:08Z</time></trkpt><trkpt lat="44.5438926063039" lon="10.60849137447198"><ele>352.0</ele><time>2026-04-18T12:12:09Z</time></trkpt><trkpt lat="44.54384836486152" lon="10.608330765832202"><ele>352.16666666666663</ele><time>2026-04-18T12:12:10Z</time></trkpt><trkpt lat="44.54382264177787" lon="10.60819236824333"><ele>352.3333333333333</ele><time>2026-04-18T12:12:11Z</time></trkpt><trkpt lat="44.543814673319915" lon="10.608077514958746"><ele>352.5</ele><time>2026-04-18T12:12:12Z</time></trkpt><trkpt lat="44.54379232460834" lon="10.607991393283706"><ele>352.6666666666667</ele><time>2026-04-18T12:12:13Z</time></trkpt><trkpt lat="44.54373619309976" lon="10.607921023554185"><ele>352.83333333333337</ele><time>2026-04-18T12:12:14Z</time></trkpt><trkpt lat="44.54366638134823" lon="10.60784359172931"><ele>353.0</ele><time>2026-04-18T12:12:15Z</time></trkpt><trkpt lat="44.54359955624658" lon="10.607776983719873"><ele>357.2</ele><time>2026-04-18T12:12:16Z</time></trkpt><trkpt lat="44.54349442738169" lon="10.607752000177024"><ele>361.4</ele><time>2026-04-18T12:12:18Z</time></trkpt><trkpt lat="44.5434260226074" lon="10.607743775526167"><ele>365.59999999999997</ele><time>2026-04-18T12:12:19Z</time></trkpt><trkpt lat="44.54333533227908" lon="10.607712878490902"><ele>369.79999999999995</ele><time>2026-04-18T12:12:20Z</time></trkpt><trkpt lat="44.543200991774164" lon="10.607697348209948"><ele>374.0</ele><time>2026-04-18T12:12:22Z</time></trkpt><trkpt lat="44.54314770432726" lon="10.607605208636594"><ele>374.0</ele><time>2026-04-18T12:12:24Z</time></trkpt><trkpt lat="44.54313725839752" lon="10.60751768944648"><ele>374.0</ele><time>2026-04-18T12:12:25Z</time></trkpt><trkpt lat="44.54306282326641" lon="10.607394213243614"><ele>374.0</ele><time>2026-04-18T12:12:28Z</time></trkpt><trkpt lat="44.543054539547285" lon="10.60730060592484"><ele>374.0</ele><time>2026-04-18T12:12:30Z</time></trkpt><trkpt lat="44.543096910058786" lon="10.607140262713322"><ele>374.0</ele><time>2026-04-18T12:12:32Z</time></trkpt><trkpt lat="44.54311228649829" lon="10.60704450142285"><ele>374.0</ele><time>2026-04-18T12:12:33Z</time></trkpt><trkpt lat="44.54316528483656" lon="10.606860834240774"><ele>375.6</ele><time>2026-04-18T12:12:35Z</time></trkpt><trkpt lat="44.543214326070036" lon="10.606770919253089"><ele>377.2</ele><time>2026-04-18T12:12:36Z</time></trkpt><trkpt lat="44.54327078557479" lon="10.606650744899499"><ele>378.8</ele><time>2026-04-18T12:12:37Z</time></trkpt><trkpt lat="44.543345534153474" lon="10.606509091427336"><ele>380.40000000000003</ele><time>2026-04-18T12:12:38Z</time></trkpt><trkpt lat="44.54339668600802" lon="10.606408417730549"><ele>382.0</ele><time>2026-04-18T12:12:39Z</time></trkpt><trkpt lat="44.54344281498595" lon="10.606294321883668"><ele>382.0</ele><time>2026-04-18T12:12:40Z</time></trkpt><trkpt lat="44.54345322778141" lon="10.606200431824108"><ele>382.0</ele><time>2026-04-18T12:12:41Z</time></trkpt><trkpt lat="44.543468857502354" lon="10.606086116973666"><ele>382.0</ele><time>2026-04-18T12:12:42Z</time></trkpt><trkpt lat="44.543505818777625" lon="10.605934375090998"><ele>382.0</ele><time>2026-04-18T12:12:43Z</time></trkpt><trkpt lat="44.54355684278228" lon="10.605737818373429"><ele>382.0</ele><time>2026-04-18T12:12:44Z</time></trkpt><trkpt lat="44.543593034996945" lon="10.60558032970903"><ele>384.20000000000005</ele><time>2026-04-18T12:12:45Z</time></trkpt><trkpt lat="44.54361665501878" lon="10.605423355846153"><ele>386.4</ele><time>2026-04-18T12:12:46Z</time></trkpt><trkpt lat="44.54362415916062" lon="10.605316062214344"><ele>388.6</ele><time>2026-04-18T12:12:47Z</time></trkpt><trkpt lat="44.54362169804858" lon="10.605141314039253"><ele>390.79999999999995</ele><time>2026-04-18T12:12:49Z</time></trkpt><trkpt lat="44.54359075902882" lon="10.605044057303674"><ele>393.0</ele><time>2026-04-18T12:12:50Z</time></trkpt><trkpt lat="44.54354284604365" lon="10.604935452421445"><ele>397.2</ele><time>2026-04-18T12:12:51Z</time></trkpt><trkpt lat="44.54349685251376" lon="10.604845257126271"><ele>401.4</ele><time>2026-04-18T12:12:52Z</time></trkpt><trkpt lat="44.54340841233711" lon="10.604725313895532"><ele>405.59999999999997</ele><time>2026-04-18T12:12:54Z</time></trkpt><trkpt lat="44.543334491279985" lon="10.604642907878334"><ele>409.79999999999995</ele><time>2026-04-18T12:12:55Z</time></trkpt><trkpt lat="44.54325597003823" lon="10.604563101760258"><ele>414.0</ele><time>2026-04-18T12:12:56Z</time></trkpt><trkpt lat="44.54317241532958" lon="10.604518795206825"><ele>414.0</ele><time>2026-04-18T12:12:57Z</time></trkpt><trkpt lat="44.54309884912486" lon="10.60450185457209"><ele>414.0</ele><time>2026-04-18T12:12:58Z</time></trkpt><trkpt lat="44.54301301144179" lon="10.604398339224863"><ele>414.0</ele><time>2026-04-18T12:13:00Z</time></trkpt><trkpt lat="44.543003913541796" lon="10.604293728533667"><ele>414.0</ele><time>2026-04-18T12:13:02Z</time></trkpt><trkpt lat="44.54305699995203" lon="10.60419070923197"><ele>414.0</ele><time>2026-04-18T12:13:04Z</time></trkpt><trkpt lat="44.54314646860422" lon="10.604104430754711"><ele>416.2</ele><time>2026-04-18T12:13:06Z</time></trkpt><trkpt lat="44.543233899969785" lon="10.604118383381126"><ele>418.4</ele><time>2026-04-18T12:13:08Z</time></trkpt><trkpt lat="44.543313392565956" lon="10.604119114332882"><ele>420.6</ele><time>2026-04-18T12:13:10Z</time></trkpt><trkpt lat="44.543334106618225" lon="10.603969077915625"><ele>422.8</ele><time>2026-04-18T12:13:13Z</time></trkpt><trkpt lat="44.54335412214375" lon="10.60385605101523"><ele>425.0</ele><time>2026-04-18T12:13:15Z</time></trkpt><trkpt lat="44.54337042022325" lon="10.60365430090619"><ele>425.0</ele><time>2026-04-18T12:13:17Z</time></trkpt><trkpt lat="44.54337776825002" lon="10.603511285155557"><ele>425.0</ele><time>2026-04-18T12:13:18Z</time></trkpt><trkpt lat="44.543366045844984" lon="10.603379040029179"><ele>425.0</ele><time>2026-04-18T12:13:19Z</time></trkpt><trkpt lat="44.54333600735991" lon="10.603220774236437"><ele>425.0</ele><time>2026-04-18T12:13:20Z</time></trkpt><trkpt lat="44.54332234808475" lon="10.603054432154812"><ele>425.0</ele><time>2026-04-18T12:13:21Z</time></trkpt><trkpt lat="44.54332685368375" lon="10.602894546968898"><ele>424.99999999999994</ele><time>2026-04-18T12:13:22Z</time></trkpt><trkpt lat="44.54333751736035" lon="10.602770939534619"><ele>425.0</ele><time>2026-04-18T12:13:24Z</time></trkpt><trkpt lat="44.54340716696524" lon="10.602794567114763"><ele>425.0</ele><time>2026-04-18T12:13:27Z</time></trkpt><trkpt lat="44.54351107472076" lon="10.602827062079822"><ele>425.0</ele><time>2026-04-18T12:13:29Z</time></trkpt><trkpt lat="44.54358359353053" lon="10.602841250442154"><ele>424.99999999999994</ele><time>2026-04-18T12:13:30Z</time></trkpt><trkpt lat="44.54367057230556" lon="10.602842423663427"><ele>425.0</ele><time>2026-04-18T12:13:31Z</time></trkpt><trkpt lat="44.54377156251546" lon="10.602844809112275"><ele>421.5</ele><time>2026-04-18T12:13:32Z</time></trkpt><trkpt lat="44.54389512555294" lon="10.60283714469877"><ele>418.0</ele><time>2026-04-18T12:13:33Z</time></trkpt><trkpt lat="44.54397768129686" lon="10.60279988933182"><ele>414.5</ele><time>2026-04-18T12:13:34Z</time></trkpt><trkpt lat="44.544060191801144" lon="10.602768822827178"><ele>411.0</ele><time>2026-04-18T12:13:35Z</time></trkpt><trkpt lat="44.5442439119666" lon="10.602817719438907"><ele>411.0</ele><time>2026-04-18T12:13:37Z</time></trkpt><trkpt lat="44.54433055973293" lon="10.602834014119626"><ele>411.0</ele><time>2026-04-18T12:13:38Z</time></trkpt><trkpt lat="44.54443208621312" lon="10.602872901168018"><ele>411.0</ele><time>2026-04-18T12:13:39Z</time></trkpt><trkpt lat="44.54451166534767" lon="10.60282851502676"><ele>411.0</ele><time>2026-04-18T12:13:41Z</time></trkpt><trkpt lat="44.544589456384145" lon="10.60286473266688"><ele>411.0</ele><time>2026-04-18T12:13:42Z</time></trkpt><trkpt lat="44.54469483930208" lon="10.602921326149135"><ele>407.6</ele><time>2026-04-18T12:13:43Z</time></trkpt><trkpt lat="44.54477881932966" lon="10.602946062706632"><ele>404.20000000000005</ele><time>2026-04-18T12:13:44Z</time></trkpt><trkpt lat="44.54486043068264" lon="10.602964242789017"><ele>400.79999999999995</ele><time>2026-04-18T12:13:45Z</time></trkpt><trkpt lat="44.54492453993746" lon="10.602942296041444"><ele>397.4</ele><time>2026-04-18T12:13:46Z</time></trkpt><trkpt lat="44.54503317943197" lon="10.602893311420866"><ele>394.0</ele><time>2026-04-18T12:13:48Z</time></trkpt><trkpt lat="44.54514260321754" lon="10.602829814772402"><ele>392.5</ele><time>2026-04-18T12:13:50Z</time></trkpt><trkpt lat="44.54524352230138" lon="10.602789031916167"><ele>391.0</ele><time>2026-04-18T12:13:52Z</time></trkpt><trkpt lat="44.54533670838872" lon="10.602708522537895"><ele>389.5</ele><time>2026-04-18T12:13:54Z</time></trkpt><trkpt lat="44.54541126582847" lon="10.6026057057459"><ele>388.0</ele><time>2026-04-18T12:13:56Z</time></trkpt><trkpt lat="44.54552145779029" lon="10.602498643122548"><ele>384.0</ele><time>2026-04-18T12:13:58Z</time></trkpt><trkpt lat="44.54561735890543" lon="10.602395461624369"><ele>380.0</ele><time>2026-04-18T12:14:00Z</time></trkpt><trkpt lat="44.54568390432818" lon="10.602359013429805"><ele>376.0</ele><time>2026-04-18T12:14:01Z</time></trkpt><trkpt lat="44.54578056270746" lon="10.602323648498265"><ele>372.0</ele><time>2026-04-18T12:14:03Z</time></trkpt><trkpt lat="44.54585056269" lon="10.602288090040362"><ele>368.0</ele><time>2026-04-18T12:14:05Z</time></trkpt><trkpt lat="44.54592824682641" lon="10.602207221753579"><ele>368.0</ele><time>2026-04-18T12:14:08Z</time></trkpt><trkpt lat="44.54600556399694" lon="10.602127802549745"><ele>368.0</ele><time>2026-04-18T12:14:10Z</time></trkpt><trkpt lat="44.54604000204962" lon="10.602047428375771"><ele>368.0</ele><time>2026-04-18T12:14:12Z</time></trkpt><trkpt lat="44.54592191196424" lon="10.60203069587892"><ele>368.0</ele><time>2026-04-18T12:14:22Z</time></trkpt><trkpt lat="44.54580472179612" lon="10.602014708204424"><ele>368.0</ele><time>2026-04-18T12:14:24Z</time></trkpt><trkpt lat="44.5456940737781" lon="10.601985392733006"><ele>366.83333333333337</ele><time>2026-04-18T12:14:26Z</time></trkpt><trkpt lat="44.545620864387296" lon="10.601955550146108"><ele>365.6666666666667</ele><time>2026-04-18T12:14:28Z</time></trkpt><trkpt lat="44.54553507566958" lon="10.601963067795694"><ele>364.5</ele><time>2026-04-18T12:14:30Z</time></trkpt><trkpt lat="44.54540733376329" lon="10.601965696704907"><ele>363.3333333333333</ele><time>2026-04-18T12:14:32Z</time></trkpt><trkpt lat="44.54534272914608" lon="10.601970094569996"><ele>362.16666666666663</ele><time>2026-04-18T12:14:33Z</time></trkpt><trkpt lat="44.545275161200856" lon="10.60196942286051"><ele>361.0</ele><time>2026-04-18T12:14:34Z</time></trkpt><trkpt lat="44.54520901453728" lon="10.60196851433208"><ele>361.0</ele><time>2026-04-18T12:14:35Z</time></trkpt><trkpt lat="44.54508230846934" lon="10.601964493339457"><ele>361.0</ele><time>2026-04-18T12:14:37Z</time></trkpt><trkpt lat="44.54499458328936" lon="10.601941080626158"><ele>361.0</ele><time>2026-04-18T12:14:38Z</time></trkpt><trkpt lat="44.54493455738459" lon="10.601893473157103"><ele>361.0</ele><time>2026-04-18T12:14:39Z</time></trkpt><trkpt lat="44.544870865842576" lon="10.601832887825163"><ele>361.0</ele><time>2026-04-18T12:14:40Z</time></trkpt><trkpt lat="44.544801343208555" lon="10.60168515601054"><ele>361.0</ele><time>2026-04-18T12:14:42Z</time></trkpt><trkpt lat="44.544791753641775" lon="10.60156575802114"><ele>361.0</ele><time>2026-04-18T12:14:44Z</time></trkpt><trkpt lat="44.54479723775836" lon="10.601473810865656"><ele>361.0</ele><time>2026-04-18T12:15:13Z</time></trkpt><trkpt lat="44.5447971936135" lon="10.601372089817428"><ele>361.0</ele><time>2026-04-18T12:15:16Z</time></trkpt><trkpt lat="44.544803281229136" lon="10.601280654288052"><ele>361.0</ele><time>2026-04-18T12:15:19Z</time></trkpt><trkpt lat="44.54479352771992" lon="10.601169179333558"><ele>361.0</ele><time>2026-04-18T12:15:22Z</time></trkpt><trkpt lat="44.54477602344882" lon="10.601058478284353"><ele>357.16666666666663</ele><time>2026-04-18T12:15:26Z</time></trkpt><trkpt lat="44.54476922677867" lon="10.600955122486837"><ele>353.3333333333333</ele><time>2026-04-18T12:15:27.999Z</time></trkpt><trkpt lat="44.544764487472385" lon="10.600829516166272"><ele>349.5</ele><time>2026-04-18T12:15:30.999Z</time></trkpt><trkpt lat="44.54479237881773" lon="10.600740103524087"><ele>345.6666666666667</ele><time>2026-04-18T12:15:33Z</time></trkpt><trkpt lat="44.54482169899229" lon="10.600646083506128"><ele>341.83333333333337</ele><time>2026-04-18T12:15:38Z</time></trkpt><trkpt lat="44.54487329278362" lon="10.600560268025689"><ele>338.0</ele><time>2026-04-18T12:15:43Z</time></trkpt><trkpt lat="44.54492727670328" lon="10.60048851464369"><ele>338.0</ele><time>2026-04-18T12:15:45Z</time></trkpt><trkpt lat="44.544956712731455" lon="10.600381728955686"><ele>338.0</ele><time>2026-04-18T12:15:47Z</time></trkpt><trkpt lat="44.54496595771061" lon="10.600282039628096"><ele>338.0</ele><time>2026-04-18T12:15:50Z</time></trkpt><trkpt lat="44.54491323011779" lon="10.60016710453634"><ele>338.0</ele><time>2026-04-18T12:15:52Z</time></trkpt><trkpt lat="44.54485012594486" lon="10.600048497733637"><ele>338.0</ele><time>2026-04-18T12:15:54Z</time></trkpt><trkpt lat="44.544802933916976" lon="10.599907309610938"><ele>335.5</ele><time>2026-04-18T12:15:56Z</time></trkpt><trkpt lat="44.544746861627544" lon="10.599770294574713"><ele>333.0</ele><time>2026-04-18T12:15:58Z</time></trkpt><trkpt lat="44.544700155104" lon="10.599683712560905"><ele>330.5</ele><time>2026-04-18T12:16:00Z</time></trkpt><trkpt lat="44.544663930044386" lon="10.599605028246515"><ele>328.0</ele><time>2026-04-18T12:16:09Z</time></trkpt><trkpt lat="44.54463965718247" lon="10.599500030436191"><ele>325.5</ele><time>2026-04-18T12:16:10Z</time></trkpt><trkpt lat="44.54466486338309" lon="10.599407668686071"><ele>323.0</ele><time>2026-04-18T12:16:12Z</time></trkpt><trkpt lat="44.544751663678035" lon="10.599427813440903"><ele>323.0</ele><time>2026-04-18T12:16:16Z</time></trkpt><trkpt lat="44.54483574560442" lon="10.599525921204043"><ele>323.0</ele><time>2026-04-18T12:16:18Z</time></trkpt><trkpt lat="44.54489677550854" lon="10.599587962201024"><ele>323.0</ele><time>2026-04-18T12:16:19Z</time></trkpt><trkpt lat="44.544969675187666" lon="10.599613486840493"><ele>323.0</ele><time>2026-04-18T12:16:20Z</time></trkpt><trkpt lat="44.54503866134865" lon="10.599612983989957"><ele>323.0</ele><time>2026-04-18T12:16:21Z</time></trkpt><trkpt lat="44.54510472838004" lon="10.599615779905932"><ele>323.0</ele><time>2026-04-18T12:16:22Z</time></trkpt><trkpt lat="44.545176473620174" lon="10.599634430475023"><ele>323.0</ele><time>2026-04-18T12:16:23Z</time></trkpt><trkpt lat="44.54524983319061" lon="10.599672815242725"><ele>323.0</ele><time>2026-04-18T12:16:24Z</time></trkpt><trkpt lat="44.54531980707441" lon="10.59970776684556"><ele>323.0</ele><time>2026-04-18T12:16:25Z</time></trkpt><trkpt lat="44.54543352361719" lon="10.599765072124153"><ele>323.0</ele><time>2026-04-18T12:16:27Z</time></trkpt><trkpt lat="44.54551990153497" lon="10.599799688801015"><ele>323.0</ele><time>2026-04-18T12:16:28Z</time></trkpt><trkpt lat="44.5455833523544" lon="10.599833799066417"><ele>323.0</ele><time>2026-04-18T12:16:29Z</time></trkpt><trkpt lat="44.54570185436385" lon="10.59990277432681"><ele>321.33333333333337</ele><time>2026-04-18T12:16:31Z</time></trkpt><trkpt lat="44.54580110511706" lon="10.59999021512555"><ele>319.6666666666667</ele><time>2026-04-18T12:16:33Z</time></trkpt><trkpt lat="44.54585369139474" lon="10.600040393092597"><ele>318.0</ele><time>2026-04-18T12:16:34Z</time></trkpt><trkpt lat="44.5459300807311" lon="10.60009741043814"><ele>316.3333333333333</ele><time>2026-04-18T12:16:35Z</time></trkpt><trkpt lat="44.546000865530424" lon="10.600129986513966"><ele>314.66666666666663</ele><time>2026-04-18T12:16:36Z</time></trkpt><trkpt lat="44.54608004191911" lon="10.600160714951116"><ele>313.0</ele><time>2026-04-18T12:16:37Z</time></trkpt><trkpt lat="44.546175038156264" lon="10.600196727385155"><ele>313.8</ele><time>2026-04-18T12:16:38Z</time></trkpt><trkpt lat="44.546268789879356" lon="10.600247307346178"><ele>314.6</ele><time>2026-04-18T12:16:39Z</time></trkpt><trkpt lat="44.54633403517354" lon="10.600274928797674"><ele>315.4</ele><time>2026-04-18T12:16:40Z</time></trkpt><trkpt lat="44.546447407709394" lon="10.600329942903764"><ele>316.2</ele><time>2026-04-18T12:16:41Z</time></trkpt><trkpt lat="44.546555822965686" lon="10.600350917115023"><ele>317.0</ele><time>2026-04-18T12:16:42Z</time></trkpt><trkpt lat="44.54663967094143" lon="10.600366424608385"><ele>317.0</ele><time>2026-04-18T12:16:43Z</time></trkpt><trkpt lat="44.54672470597083" lon="10.600369289222884"><ele>317.0</ele><time>2026-04-18T12:16:44Z</time></trkpt><trkpt lat="44.54679738611063" lon="10.600412970669582"><ele>317.0</ele><time>2026-04-18T12:16:45Z</time></trkpt><trkpt lat="44.54686070152567" lon="10.600409041939596"><ele>317.0</ele><time>2026-04-18T12:16:46Z</time></trkpt><trkpt lat="44.54695881691334" lon="10.60042001773037"><ele>317.0</ele><time>2026-04-18T12:16:47Z</time></trkpt><trkpt lat="44.54707146514851" lon="10.60044531675883"><ele>317.0</ele><time>2026-04-18T12:16:48Z</time></trkpt><trkpt lat="44.54716884936734" lon="10.600480742789804"><ele>315.2</ele><time>2026-04-18T12:16:49Z</time></trkpt><trkpt lat="44.54723718973371" lon="10.600499728029419"><ele>313.4</ele><time>2026-04-18T12:16:50Z</time></trkpt><trkpt lat="44.54736156364567" lon="10.600541915380926"><ele>311.6</ele><time>2026-04-18T12:16:52Z</time></trkpt><trkpt lat="44.54745583941925" lon="10.600598970219067"><ele>309.8</ele><time>2026-04-18T12:16:54Z</time></trkpt><trkpt lat="44.54752939244539" lon="10.600644497700728"><ele>308.0</ele><time>2026-04-18T12:16:56Z</time></trkpt><trkpt lat="44.54759048161234" lon="10.600705142720289"><ele>308.0</ele><time>2026-04-18T12:17:14Z</time></trkpt><trkpt lat="44.54765193189359" lon="10.600749630244966"><ele>308.0</ele><time>2026-04-18T12:17:15Z</time></trkpt><trkpt lat="44.547711607337284" lon="10.600796140346931"><ele>308.0</ele><time>2026-04-18T12:17:16Z</time></trkpt><trkpt lat="44.547772177277494" lon="10.60085282357177"><ele>308.0</ele><time>2026-04-18T12:17:17Z</time></trkpt><trkpt lat="44.547830221970706" lon="10.60090643513393"><ele>308.0</ele><time>2026-04-18T12:17:18Z</time></trkpt><trkpt lat="44.54788759429919" lon="10.60094666468971"><ele>308.0</ele><time>2026-04-18T12:17:19Z</time></trkpt><trkpt lat="44.548007654329155" lon="10.601038905715384"><ele>308.1666666666667</ele><time>2026-04-18T12:17:21Z</time></trkpt><trkpt lat="44.54806425890356" lon="10.601092689439149"><ele>308.33333333333337</ele><time>2026-04-18T12:17:22Z</time></trkpt><trkpt lat="44.548150891541894" lon="10.601177636810872"><ele>308.5</ele><time>2026-04-18T12:17:24Z</time></trkpt><trkpt lat="44.54820354643377" lon="10.601235300516297"><ele>308.6666666666667</ele><time>2026-04-18T12:17:25Z</time></trkpt><trkpt lat="44.54827474012447" lon="10.601303723403706"><ele>308.8333333333333</ele><time>2026-04-18T12:17:26Z</time></trkpt><trkpt lat="44.548352091083316" lon="10.601360988567599"><ele>309.0</ele><time>2026-04-18T12:17:27Z</time></trkpt><trkpt lat="44.54841379783" lon="10.601408600506629"><ele>309.0</ele><time>2026-04-18T12:17:28Z</time></trkpt><trkpt lat="44.548471344767506" lon="10.601444926033537"><ele>309.0</ele><time>2026-04-18T12:17:29Z</time></trkpt><trkpt lat="44.548557264228116" lon="10.601504756221113"><ele>309.0</ele><time>2026-04-18T12:17:32Z</time></trkpt><trkpt lat="44.54861269030323" lon="10.601552279895687"><ele>309.0</ele><time>2026-04-18T12:17:33Z</time></trkpt><trkpt lat="44.5486961780882" lon="10.60163460795045"><ele>309.0</ele><time>2026-04-18T12:17:35Z</time></trkpt><trkpt lat="44.54876183703961" lon="10.601687738421914"><ele>309.0</ele><time>2026-04-18T12:17:37Z</time></trkpt><trkpt lat="44.548861625139274" lon="10.601730582944251"><ele>308.0</ele><time>2026-04-18T12:17:40Z</time></trkpt><trkpt lat="44.548974200043055" lon="10.60170086972275"><ele>307.0</ele><time>2026-04-18T12:17:42Z</time></trkpt><trkpt lat="44.549044322749886" lon="10.601666652479802"><ele>306.0</ele><time>2026-04-18T12:17:43Z</time></trkpt><trkpt lat="44.549129030480835" lon="10.601690012891188"><ele>305.0</ele><time>2026-04-18T12:17:44Z</time></trkpt><trkpt lat="44.54921064067024" lon="10.601656370465918"><ele>304.0</ele><time>2026-04-18T12:17:45Z</time></trkpt><trkpt lat="44.54928353853764" lon="10.601586729839978"><ele>303.0</ele><time>2026-04-18T12:17:46Z</time></trkpt><trkpt lat="44.54933428106929" lon="10.601453845585713"><ele>303.0</ele><time>2026-04-18T12:17:47Z</time></trkpt><trkpt lat="44.54934466100484" lon="10.601296624205336"><ele>303.0</ele><time>2026-04-18T12:17:48Z</time></trkpt><trkpt lat="44.54935025276251" lon="10.6011531759224"><ele>303.0</ele><time>2026-04-18T12:17:49Z</time></trkpt><trkpt lat="44.54935576539544" lon="10.60102326275679"><ele>303.0</ele><time>2026-04-18T12:17:50Z</time></trkpt><trkpt lat="44.54936175002917" lon="10.600878432884434"><ele>303.0</ele><time>2026-04-18T12:17:51Z</time></trkpt><trkpt lat="44.54936943921503" lon="10.600741504401963"><ele>301.4</ele><time>2026-04-18T12:17:52Z</time></trkpt><trkpt lat="44.549377547321996" lon="10.600597116580655"><ele>299.8</ele><time>2026-04-18T12:17:53Z</time></trkpt><trkpt lat="44.54938544596069" lon="10.600454765393357"><ele>298.2</ele><time>2026-04-18T12:17:54Z</time></trkpt><trkpt lat="44.549389789241545" lon="10.600319894489104"><ele>296.6</ele><time>2026-04-18T12:17:55Z</time></trkpt><trkpt lat="44.549374625436144" lon="10.600192142000306"><ele>295.0</ele><time>2026-04-18T12:17:56Z</time></trkpt><trkpt lat="44.54932093383483" lon="10.600068842145733"><ele>292.8333333333333</ele><time>2026-04-18T12:17:57Z</time></trkpt><trkpt lat="44.549259692502496" lon="10.599991603235717"><ele>290.66666666666663</ele><time>2026-04-18T12:17:58Z</time></trkpt><trkpt lat="44.549212317553554" lon="10.599930511806651"><ele>288.5</ele><time>2026-04-18T12:17:59Z</time></trkpt><trkpt lat="44.54914736138355" lon="10.599840335774276"><ele>286.3333333333333</ele><time>2026-04-18T12:18:01Z</time></trkpt><trkpt lat="44.54925130527986" lon="10.599776681039401"><ele>284.1666666666667</ele><time>2026-04-18T12:18:03Z</time></trkpt><trkpt lat="44.5493212051688" lon="10.599739987845007"><ele>282.0</ele><time>2026-04-18T12:18:04Z</time></trkpt><trkpt lat="44.549383443006256" lon="10.599701999457677"><ele>282.0</ele><time>2026-04-18T12:18:05Z</time></trkpt><trkpt lat="44.54946324582419" lon="10.599647132587789"><ele>282.0</ele><time>2026-04-18T12:18:06Z</time></trkpt><trkpt lat="44.54953090994565" lon="10.599595093517339"><ele>282.0</ele><time>2026-04-18T12:18:07Z</time></trkpt><trkpt lat="44.549594730774565" lon="10.599539640285297"><ele>282.0</ele><time>2026-04-18T12:18:08Z</time></trkpt><trkpt lat="44.54966355497849" lon="10.599477299026626"><ele>282.0</ele><time>2026-04-18T12:18:09Z</time></trkpt><trkpt lat="44.549721846658386" lon="10.59942660884361"><ele>282.0</ele><time>2026-04-18T12:18:10Z</time></trkpt><trkpt lat="44.54985020180361" lon="10.599327892802322"><ele>279.6</ele><time>2026-04-18T12:18:12Z</time></trkpt><trkpt lat="44.549932271452256" lon="10.599275172851437"><ele>277.2</ele><time>2026-04-18T12:18:13Z</time></trkpt><trkpt lat="44.55002650783163" lon="10.599230952408647"><ele>274.8</ele><time>2026-04-18T12:18:14Z</time></trkpt><trkpt lat="44.550138090419644" lon="10.599189158172573"><ele>272.4</ele><time>2026-04-18T12:18:15Z</time></trkpt><trkpt lat="44.550249194275395" lon="10.599165123385333"><ele>270.0</ele><time>2026-04-18T12:18:16Z</time></trkpt><trkpt lat="44.55035667178405" lon="10.599158903052894"><ele>269.0</ele><time>2026-04-18T12:18:17Z</time></trkpt><trkpt lat="44.550479687978445" lon="10.599139330247334"><ele>268.0</ele><time>2026-04-18T12:18:18Z</time></trkpt><trkpt lat="44.55059902581502" lon="10.599093913980491"><ele>267.0</ele><time>2026-04-18T12:18:19Z</time></trkpt><trkpt lat="44.55069346824644" lon="10.599076662891823"><ele>266.0</ele><time>2026-04-18T12:18:20Z</time></trkpt><trkpt lat="44.55079262852565" lon="10.599062452895822"><ele>265.0</ele><time>2026-04-18T12:18:21Z</time></trkpt><trkpt lat="44.55087167516138" lon="10.59904470348185"><ele>265.0</ele><time>2026-04-18T12:18:22Z</time></trkpt><trkpt lat="44.55098432531255" lon="10.599030923620898"><ele>265.0</ele><time>2026-04-18T12:18:23Z</time></trkpt><trkpt lat="44.55108771876358" lon="10.599022698487332"><ele>265.0</ele><time>2026-04-18T12:18:24Z</time></trkpt><trkpt lat="44.551191886640744" lon="10.599027837463577"><ele>265.0</ele><time>2026-04-18T12:18:25Z</time></trkpt><trkpt lat="44.551290666535195" lon="10.599027697755089"><ele>265.0</ele><time>2026-04-18T12:18:26Z</time></trkpt><trkpt lat="44.55139453045884" lon="10.599028797183909"><ele>264.6</ele><time>2026-04-18T12:18:27Z</time></trkpt><trkpt lat="44.551475862483564" lon="10.599057856826347"><ele>264.2</ele><time>2026-04-18T12:18:28Z</time></trkpt><trkpt lat="44.55154562168485" lon="10.599057261031636"><ele>263.8</ele><time>2026-04-18T12:18:29Z</time></trkpt><trkpt lat="44.551683304637784" lon="10.599027078837084"><ele>263.4</ele><time>2026-04-18T12:18:30Z</time></trkpt><trkpt lat="44.55178106471993" lon="10.599032712444957"><ele>263.0</ele><time>2026-04-18T12:18:31Z</time></trkpt><trkpt lat="44.55187985823966" lon="10.599019779611089"><ele>263.0</ele><time>2026-04-18T12:18:32Z</time></trkpt><trkpt lat="44.55197713436846" lon="10.59901329615473"><ele>263.0</ele><time>2026-04-18T12:18:33Z</time></trkpt><trkpt lat="44.55206288532609" lon="10.599009562637988"><ele>263.0</ele><time>2026-04-18T12:18:34Z</time></trkpt><trkpt lat="44.55213486878298" lon="10.598996921622303"><ele>263.0</ele><time>2026-04-18T12:18:35Z</time></trkpt><trkpt lat="44.55220259583662" lon="10.598984195887347"><ele>263.0</ele><time>2026-04-18T12:18:36Z</time></trkpt><trkpt lat="44.55226830109863" lon="10.598962772835872"><ele>263.0</ele><time>2026-04-18T12:18:37Z</time></trkpt><trkpt lat="44.55233768399344" lon="10.598949063822356"><ele>262.2</ele><time>2026-04-18T12:18:38Z</time></trkpt><trkpt lat="44.55242041800288" lon="10.598919077515438"><ele>261.4</ele><time>2026-04-18T12:18:39Z</time></trkpt><trkpt lat="44.552495299851465" lon="10.598891937170716"><ele>260.59999999999997</ele><time>2026-04-18T12:18:40Z</time></trkpt><trkpt lat="44.552562616724046" lon="10.59886753869271"><ele>259.8</ele><time>2026-04-18T12:18:41Z</time></trkpt><trkpt lat="44.55268122877454" lon="10.599029796605343"><ele>259.0</ele><time>2026-04-18T12:18:42Z</time></trkpt><trkpt lat="44.55280482222446" lon="10.59906229810573"><ele>257.2</ele><time>2026-04-18T12:18:43Z</time></trkpt><trkpt lat="44.55292848824611" lon="10.5990850612979"><ele>255.39999999999998</ele><time>2026-04-18T12:18:44Z</time></trkpt><trkpt lat="44.55304349459168" lon="10.599110473469738"><ele>253.6</ele><time>2026-04-18T12:18:45Z</time></trkpt><trkpt lat="44.55314541344609" lon="10.59913760676385"><ele>251.8</ele><time>2026-04-18T12:18:46Z</time></trkpt><trkpt lat="44.55324541169339" lon="10.599166814229593"><ele>250.0</ele><time>2026-04-18T12:18:47Z</time></trkpt><trkpt lat="44.55334297027797" lon="10.599211344025061"><ele>250.0</ele><time>2026-04-18T12:18:48Z</time></trkpt><trkpt lat="44.55344016082232" lon="10.59927867607333"><ele>250.0</ele><time>2026-04-18T12:18:49Z</time></trkpt><trkpt lat="44.553528183392594" lon="10.599344551936673"><ele>250.0</ele><time>2026-04-18T12:18:50Z</time></trkpt><trkpt lat="44.55362600868133" lon="10.599394559548138"><ele>250.0</ele><time>2026-04-18T12:18:51Z</time></trkpt><trkpt lat="44.553725226185215" lon="10.599418846609844"><ele>250.0</ele><time>2026-04-18T12:18:52Z</time></trkpt><trkpt lat="44.55382682534164" lon="10.59941835623371"><ele>247.99999999999997</ele><time>2026-04-18T12:18:53Z</time></trkpt><trkpt lat="44.553929385205095" lon="10.599402605243906"><ele>246.0</ele><time>2026-04-18T12:18:54Z</time></trkpt><trkpt lat="44.55401059710629" lon="10.599374483178241"><ele>244.0</ele><time>2026-04-18T12:18:55Z</time></trkpt><trkpt lat="44.554078229572404" lon="10.599332218303449"><ele>242.0</ele><time>2026-04-18T12:18:56Z</time></trkpt><trkpt lat="44.55415285796293" lon="10.599285472657684"><ele>239.99999999999997</ele><time>2026-04-18T12:18:57Z</time></trkpt><trkpt lat="44.55424059127192" lon="10.5992368988816"><ele>238.0</ele><time>2026-04-18T12:18:58Z</time></trkpt><trkpt lat="44.55433235225735" lon="10.59919220702968"><ele>237.99999999999997</ele><time>2026-04-18T12:18:59Z</time></trkpt><trkpt lat="44.55441993092389" lon="10.599155871669964"><ele>238.0</ele><time>2026-04-18T12:19:00Z</time></trkpt><trkpt lat="44.55450631248452" lon="10.59912668637957"><ele>238.0</ele><time>2026-04-18T12:19:01Z</time></trkpt><trkpt lat="44.5545791325012" lon="10.599102357208238"><ele>238.0</ele><time>2026-04-18T12:19:02Z</time></trkpt><trkpt lat="44.55464455944106" lon="10.599072400641857"><ele>237.99999999999997</ele><time>2026-04-18T12:19:03Z</time></trkpt><trkpt lat="44.55470858003659" lon="10.599048419854505"><ele>238.0</ele><time>2026-04-18T12:19:04Z</time></trkpt><trkpt lat="44.55478824510124" lon="10.599168815520017"><ele>235.0</ele><time>2026-04-18T12:19:06Z</time></trkpt><trkpt lat="44.55481125689652" lon="10.5992890287017"><ele>232.0</ele><time>2026-04-18T12:19:07Z</time></trkpt><trkpt lat="44.554804390680744" lon="10.599424589535928"><ele>229.0</ele><time>2026-04-18T12:19:08Z</time></trkpt><trkpt lat="44.55475687163058" lon="10.599573548622503"><ele>226.0</ele><time>2026-04-18T12:19:10Z</time></trkpt><trkpt lat="44.55482414875838" lon="10.599666266279279"><ele>223.0</ele><time>2026-04-18T12:19:12Z</time></trkpt><trkpt lat="44.554951157053345" lon="10.59964558650966"><ele>222.99999999999997</ele><time>2026-04-18T12:19:14Z</time></trkpt><trkpt lat="44.55503518627172" lon="10.59963918828361"><ele>223.0</ele><time>2026-04-18T12:19:15Z</time></trkpt><trkpt lat="44.555147801829264" lon="10.59961431976324"><ele>223.0</ele><time>2026-04-18T12:19:16Z</time></trkpt><trkpt lat="44.55523091884292" lon="10.599589857319776"><ele>223.0</ele><time>2026-04-18T12:19:17Z</time></trkpt><trkpt lat="44.555293633280485" lon="10.59955592045349"><ele>222.99999999999997</ele><time>2026-04-18T12:19:18Z</time></trkpt><trkpt lat="44.55535236365947" lon="10.599448571168825"><ele>223.0</ele><time>2026-04-18T12:19:20Z</time></trkpt><trkpt lat="44.55535825277892" lon="10.599309737595792"><ele>223.0</ele><time>2026-04-18T12:19:22Z</time></trkpt><trkpt lat="44.5553243261647" lon="10.599229856407456"><ele>223.0</ele><time>2026-04-18T12:19:27Z</time></trkpt><trkpt lat="44.55531115204105" lon="10.599081214203954"><ele>223.0</ele><time>2026-04-18T12:19:29Z</time></trkpt><trkpt lat="44.555304855456754" lon="10.598904934928878"><ele>223.0</ele><time>2026-04-18T12:19:31Z</time></trkpt><trkpt lat="44.55539378672978" lon="10.598810699420277"><ele>223.0</ele><time>2026-04-18T12:19:33Z</time></trkpt><trkpt lat="44.55545969796944" lon="10.598817163040193"><ele>222.4</ele><time>2026-04-18T12:19:34Z</time></trkpt><trkpt lat="44.55553575337806" lon="10.59883471289426"><ele>221.8</ele><time>2026-04-18T12:19:35Z</time></trkpt><trkpt lat="44.55562926432953" lon="10.598844623625766"><ele>221.2</ele><time>2026-04-18T12:19:37Z</time></trkpt><trkpt lat="44.55574325727415" lon="10.598871225271179"><ele>220.6</ele><time>2026-04-18T12:19:40Z</time></trkpt><trkpt lat="44.55581319377602" lon="10.598873863929748"><ele>220.0</ele><time>2026-04-18T12:19:41Z</time></trkpt><trkpt lat="44.555938562635816" lon="10.598880890907862"><ele>219.99999999999997</ele><time>2026-04-18T12:19:43Z</time></trkpt><trkpt lat="44.556009899137045" lon="10.598879275273845"><ele>220.0</ele><time>2026-04-18T12:19:44Z</time></trkpt><trkpt lat="44.55607367756071" lon="10.598873706516596"><ele>220.0</ele><time>2026-04-18T12:19:45Z</time></trkpt><trkpt lat="44.55613980287776" lon="10.598869371003271"><ele>220.0</ele><time>2026-04-18T12:19:46Z</time></trkpt><trkpt lat="44.55620337465759" lon="10.598857409541564"><ele>220.0</ele><time>2026-04-18T12:19:47Z</time></trkpt><trkpt lat="44.556275265948514" lon="10.598843123959343"><ele>219.99999999999997</ele><time>2026-04-18T12:19:48Z</time></trkpt><trkpt lat="44.55634326272138" lon="10.598825236876786"><ele>220.0</ele><time>2026-04-18T12:19:49Z</time></trkpt><trkpt lat="44.556409977254084" lon="10.598811254246872"><ele>222.8</ele><time>2026-04-18T12:19:50Z</time></trkpt><trkpt lat="44.556476222436565" lon="10.598796099703303"><ele>225.6</ele><time>2026-04-18T12:19:51Z</time></trkpt><trkpt lat="44.55660665707514" lon="10.598785890777075"><ele>228.39999999999998</ele><time>2026-04-18T12:19:53Z</time></trkpt><trkpt lat="44.55668218668187" lon="10.598794645968297"><ele>231.2</ele><time>2026-04-18T12:19:54Z</time></trkpt><trkpt lat="44.556825081593374" lon="10.598821784231545"><ele>234.0</ele><time>2026-04-18T12:19:56Z</time></trkpt><trkpt lat="44.55693755308588" lon="10.598864003388545"><ele>234.0</ele><time>2026-04-18T12:19:58Z</time></trkpt><trkpt lat="44.55701665276118" lon="10.598861980918647"><ele>234.00000000000003</ele><time>2026-04-18T12:19:59Z</time></trkpt><trkpt lat="44.55709335501919" lon="10.598831997040817"><ele>234.0</ele><time>2026-04-18T12:20:00Z</time></trkpt><trkpt lat="44.55716523307503" lon="10.598793420798797"><ele>234.0</ele><time>2026-04-18T12:20:01Z</time></trkpt><trkpt lat="44.55723400545474" lon="10.598758515491678"><ele>234.00000000000003</ele><time>2026-04-18T12:20:02Z</time></trkpt><trkpt lat="44.55729292182016" lon="10.598717319932224"><ele>234.0</ele><time>2026-04-18T12:20:03Z</time></trkpt><trkpt lat="44.55735859269991" lon="10.598672822567606"><ele>234.0</ele><time>2026-04-18T12:20:04Z</time></trkpt><trkpt lat="44.557470773020675" lon="10.5985966283004"><ele>235.39999999999998</ele><time>2026-04-18T12:20:06Z</time></trkpt><trkpt lat="44.557581144099046" lon="10.598540245825754"><ele>236.79999999999998</ele><time>2026-04-18T12:20:08Z</time></trkpt><trkpt lat="44.55764355063428" lon="10.598499389256643"><ele>238.20000000000002</ele><time>2026-04-18T12:20:09Z</time></trkpt><trkpt lat="44.55774862551159" lon="10.598410885535126"><ele>239.60000000000002</ele><time>2026-04-18T12:20:11Z</time></trkpt><trkpt lat="44.557846680267545" lon="10.598330562316987"><ele>241.0</ele><time>2026-04-18T12:20:13Z</time></trkpt><trkpt lat="44.55793528964091" lon="10.598289201466624"><ele>243.16666666666666</ele><time>2026-04-18T12:20:15Z</time></trkpt><trkpt lat="44.55800383451195" lon="10.598284020174452"><ele>245.33333333333331</ele><time>2026-04-18T12:20:16Z</time></trkpt><trkpt lat="44.55807835908398" lon="10.598291636213602"><ele>247.5</ele><time>2026-04-18T12:20:17Z</time></trkpt><trkpt lat="44.55814620394952" lon="10.598316207830365"><ele>249.66666666666669</ele><time>2026-04-18T12:20:18Z</time></trkpt><trkpt lat="44.558211578169995" lon="10.59835231731344"><ele>251.83333333333334</ele><time>2026-04-18T12:20:19Z</time></trkpt><trkpt lat="44.55833997513084" lon="10.59842315862543"><ele>254.0</ele><time>2026-04-18T12:20:21Z</time></trkpt><trkpt lat="44.55841483188246" lon="10.598465671775589"><ele>254.0</ele><time>2026-04-18T12:20:22Z</time></trkpt><trkpt lat="44.55847732375474" lon="10.598495040047874"><ele>254.0</ele><time>2026-04-18T12:20:23Z</time></trkpt><trkpt lat="44.55854153948529" lon="10.598525779079443"><ele>254.0</ele><time>2026-04-18T12:20:24Z</time></trkpt><trkpt lat="44.558608890532064" lon="10.598558554005203"><ele>254.0</ele><time>2026-04-18T12:20:25Z</time></trkpt><trkpt lat="44.55867723122373" lon="10.598591037645026"><ele>254.0</ele><time>2026-04-18T12:20:26Z</time></trkpt><trkpt lat="44.558750842059105" lon="10.598618698118614"><ele>254.0</ele><time>2026-04-18T12:20:27Z</time></trkpt><trkpt lat="44.558812144503676" lon="10.598646449863327"><ele>254.0</ele><time>2026-04-18T12:20:28Z</time></trkpt><trkpt lat="44.5588751221564" lon="10.598663298571548"><ele>255.83333333333334</ele><time>2026-04-18T12:20:29Z</time></trkpt><trkpt lat="44.558939970815416" lon="10.59868527065162"><ele>257.6666666666667</ele><time>2026-04-18T12:20:30Z</time></trkpt><trkpt lat="44.5590707088562" lon="10.598665046696746"><ele>259.5</ele><time>2026-04-18T12:20:32Z</time></trkpt><trkpt lat="44.55914133977736" lon="10.598636324962246"><ele>261.3333333333333</ele><time>2026-04-18T12:20:33Z</time></trkpt><trkpt lat="44.559212754088335" lon="10.598626161425662"><ele>263.16666666666663</ele><time>2026-04-18T12:20:34Z</time></trkpt><trkpt lat="44.55930084388867" lon="10.598616806083637"><ele>265.0</ele><time>2026-04-18T12:20:36Z</time></trkpt><trkpt lat="44.5593631104447" lon="10.598592476579613"><ele>265.0</ele><time>2026-04-18T12:20:37Z</time></trkpt><trkpt lat="44.55945655881277" lon="10.598540919137816"><ele>265.0</ele><time>2026-04-18T12:20:38Z</time></trkpt><trkpt lat="44.5595242595399" lon="10.598521047947997"><ele>265.0</ele><time>2026-04-18T12:20:39Z</time></trkpt><trkpt lat="44.559588045961476" lon="10.59850873128498"><ele>265.0</ele><time>2026-04-18T12:20:40Z</time></trkpt><trkpt lat="44.55966383932781" lon="10.598471500615812"><ele>265.0</ele><time>2026-04-18T12:20:41Z</time></trkpt><trkpt lat="44.55972081858001" lon="10.598399739619547"><ele>265.0</ele><time>2026-04-18T12:20:42Z</time></trkpt><trkpt lat="44.559746434040306" lon="10.598295584350192"><ele>266.66666666666663</ele><time>2026-04-18T12:20:43Z</time></trkpt><trkpt lat="44.559767702890085" lon="10.598188687958672"><ele>268.3333333333333</ele><time>2026-04-18T12:20:44Z</time></trkpt><trkpt lat="44.55979316067607" lon="10.59806409656908"><ele>270.0</ele><time>2026-04-18T12:20:45Z</time></trkpt><trkpt lat="44.55979936794275" lon="10.597908006064667"><ele>271.6666666666667</ele><time>2026-04-18T12:20:47Z</time></trkpt><trkpt lat="44.55979653685856" lon="10.597811714778615"><ele>273.33333333333337</ele><time>2026-04-18T12:20:49Z</time></trkpt><trkpt lat="44.559805235474165" lon="10.597708995738373"><ele>275.0</ele><time>2026-04-18T12:20:51Z</time></trkpt><trkpt lat="44.5598003685675" lon="10.597610536739793"><ele>275.0</ele><time>2026-04-18T12:20:52Z</time></trkpt><trkpt lat="44.559804508767314" lon="10.597519269516352"><ele>275.0</ele><time>2026-04-18T12:20:53Z</time></trkpt><trkpt lat="44.559830974885756" lon="10.597424943323766"><ele>275.0</ele><time>2026-04-18T12:20:54Z</time></trkpt><trkpt lat="44.55991483796881" lon="10.59731331117309"><ele>275.0</ele><time>2026-04-18T12:20:56Z</time></trkpt><trkpt lat="44.55997908955118" lon="10.59728000623577"><ele>275.0</ele><time>2026-04-18T12:20:57Z</time></trkpt><trkpt lat="44.56006353127071" lon="10.597234144039817"><ele>275.0</ele><time>2026-04-18T12:20:58Z</time></trkpt><trkpt lat="44.56015205505961" lon="10.597185336713554"><ele>275.0</ele><time>2026-04-18T12:20:59Z</time></trkpt><trkpt lat="44.56026120966627" lon="10.59712497220613"><ele>275.0</ele><time>2026-04-18T12:21:00Z</time></trkpt><trkpt lat="44.5603961571228" lon="10.597042831693127"><ele>275.0</ele><time>2026-04-18T12:21:01Z</time></trkpt><trkpt lat="44.56052158189187" lon="10.596971580702013"><ele>275.0</ele><time>2026-04-18T12:21:02Z</time></trkpt><trkpt lat="44.560637032104665" lon="10.596913241167925"><ele>278.0</ele><time>2026-04-18T12:21:03Z</time></trkpt><trkpt lat="44.56076801047369" lon="10.596855369362064"><ele>281.0</ele><time>2026-04-18T12:21:04Z</time></trkpt><trkpt lat="44.56088463502462" lon="10.596807375379033"><ele>284.0</ele><time>2026-04-18T12:21:05Z</time></trkpt><trkpt lat="44.56094934101959" lon="10.59679583823506"><ele>287.0</ele><time>2026-04-18T12:21:06Z</time></trkpt><trkpt lat="44.56105221310777" lon="10.596796220903327"><ele>290.0</ele><time>2026-04-18T12:21:07Z</time></trkpt><trkpt lat="44.56115413968911" lon="10.596837731970389"><ele>292.0</ele><time>2026-04-18T12:21:08Z</time></trkpt><trkpt lat="44.561282008739475" lon="10.596896259568508"><ele>294.0</ele><time>2026-04-18T12:21:09Z</time></trkpt><trkpt lat="44.56142813063585" lon="10.596939025491203"><ele>296.0</ele><time>2026-04-18T12:21:10Z</time></trkpt><trkpt lat="44.56156296540272" lon="10.596966322458835"><ele>298.0</ele><time>2026-04-18T12:21:11Z</time></trkpt><trkpt lat="44.561698072854234" lon="10.59697640560309"><ele>298.0</ele><time>2026-04-18T12:21:12Z</time></trkpt><trkpt lat="44.56182664404115" lon="10.59697879291035"><ele>298.0</ele><time>2026-04-18T12:21:13Z</time></trkpt><trkpt lat="44.5619150757611" lon="10.597001320700507"><ele>298.0</ele><time>2026-04-18T12:21:14Z</time></trkpt><trkpt lat="44.56201293702194" lon="10.597029403441383"><ele>298.0</ele><time>2026-04-18T12:21:15Z</time></trkpt><trkpt lat="44.562108374373025" lon="10.597067555092126"><ele>298.0</ele><time>2026-04-18T12:21:16Z</time></trkpt><trkpt lat="44.56220683516193" lon="10.597067549499414"><ele>304.25</ele><time>2026-04-18T12:21:18Z</time></trkpt><trkpt lat="44.56236137135779" lon="10.597077532000718"><ele>310.5</ele><time>2026-04-18T12:21:20Z</time></trkpt><trkpt lat="44.562477589402455" lon="10.597121739056083"><ele>316.75</ele><time>2026-04-18T12:21:21Z</time></trkpt><trkpt lat="44.562606345732945" lon="10.597191225269844"><ele>323.0</ele><time>2026-04-18T12:21:22Z</time></trkpt><trkpt lat="44.562746148408756" lon="10.597260468553273"><ele>323.0</ele><time>2026-04-18T12:21:23Z</time></trkpt><trkpt lat="44.56283413520942" lon="10.597295099978451"><ele>323.0</ele><time>2026-04-18T12:21:24Z</time></trkpt><trkpt lat="44.562908263750025" lon="10.597313275933482"><ele>323.0</ele><time>2026-04-18T12:21:25Z</time></trkpt><trkpt lat="44.56298051785582" lon="10.597335951889923"><ele>323.0</ele><time>2026-04-18T12:21:26Z</time></trkpt><trkpt lat="44.563057468386724" lon="10.597314294176776"><ele>323.0</ele><time>2026-04-18T12:21:27Z</time></trkpt><trkpt lat="44.563129384498225" lon="10.597241069643056"><ele>323.0</ele><time>2026-04-18T12:21:28Z</time></trkpt><trkpt lat="44.563171866050745" lon="10.597124438488304"><ele>326.79999999999995</ele><time>2026-04-18T12:21:29Z</time></trkpt><trkpt lat="44.56320045575991" lon="10.59703092494718"><ele>330.6</ele><time>2026-04-18T12:21:30Z</time></trkpt><trkpt lat="44.56333386082973" lon="10.597105991540156"><ele>334.4</ele><time>2026-04-18T12:21:33Z</time></trkpt><trkpt lat="44.56337351865491" lon="10.597234334143952"><ele>338.20000000000005</ele><time>2026-04-18T12:21:34Z</time></trkpt><trkpt lat="44.56343594922025" lon="10.59732228291365"><ele>342.0</ele><time>2026-04-18T12:21:35Z</time></trkpt><trkpt lat="44.56352808576374" lon="10.597381567215923"><ele>342.0</ele><time>2026-04-18T12:21:36Z</time></trkpt><trkpt lat="44.56365843772288" lon="10.59741371675418"><ele>342.0</ele><time>2026-04-18T12:21:37Z</time></trkpt><trkpt lat="44.56378502784847" lon="10.597428359324407"><ele>342.0</ele><time>2026-04-18T12:21:38Z</time></trkpt><trkpt lat="44.56389416081032" lon="10.597473722832913"><ele>342.0</ele><time>2026-04-18T12:21:39Z</time></trkpt><trkpt lat="44.563961017055846" lon="10.59751707384512"><ele>342.0</ele><time>2026-04-18T12:21:40Z</time></trkpt><trkpt lat="44.56405519238465" lon="10.597571420752807"><ele>343.5</ele><time>2026-04-18T12:21:41Z</time></trkpt><trkpt lat="44.564147963435026" lon="10.597649932472617"><ele>345.0</ele><time>2026-04-18T12:21:42Z</time></trkpt><trkpt lat="44.56426059152352" lon="10.597718991812362"><ele>346.5</ele><time>2026-04-18T12:21:43Z</time></trkpt><trkpt lat="44.56439587187076" lon="10.597772987590426"><ele>348.0</ele><time>2026-04-18T12:21:44Z</time></trkpt><trkpt lat="44.56454942682014" lon="10.597836512537375"><ele>355.0</ele><time>2026-04-18T12:21:45Z</time></trkpt><trkpt lat="44.564732605518174" lon="10.597882316412337"><ele>362.0</ele><time>2026-04-18T12:21:46Z</time></trkpt><trkpt lat="44.56489783479819" lon="10.597927150303953"><ele>369.0</ele><time>2026-04-18T12:21:47Z</time></trkpt><trkpt lat="44.56503677262148" lon="10.597959640377862"><ele>369.0</ele><time>2026-04-18T12:21:48Z</time></trkpt><trkpt lat="44.565137954701996" lon="10.597967826688667"><ele>369.0</ele><time>2026-04-18T12:21:49Z</time></trkpt><trkpt lat="44.56523944630404" lon="10.59794677957069"><ele>369.0</ele><time>2026-04-18T12:21:49.999Z</time></trkpt><trkpt lat="44.565323710283174" lon="10.597956941996099"><ele>369.0</ele><time>2026-04-18T12:21:51Z</time></trkpt><trkpt lat="44.56545347458172" lon="10.597968496416748"><ele>369.0</ele><time>2026-04-18T12:21:53Z</time></trkpt><trkpt lat="44.56553053962874" lon="10.597951939985597"><ele>369.2</ele><time>2026-04-18T12:21:54Z</time></trkpt><trkpt lat="44.56562499144643" lon="10.597965129377966"><ele>369.4</ele><time>2026-04-18T12:21:55Z</time></trkpt><trkpt lat="44.56572334697854" lon="10.597966610991838"><ele>369.6</ele><time>2026-04-18T12:21:56Z</time></trkpt><trkpt lat="44.56583400544934" lon="10.597959236968999"><ele>369.8</ele><time>2026-04-18T12:21:57Z</time></trkpt><trkpt lat="44.56591915839597" lon="10.597923698123044"><ele>370.0</ele><time>2026-04-18T12:21:58Z</time></trkpt><trkpt lat="44.56600397349518" lon="10.59791618118953"><ele>370.0</ele><time>2026-04-18T12:21:59Z</time></trkpt><trkpt lat="44.566126204922895" lon="10.597864440225484"><ele>370.0</ele><time>2026-04-18T12:22:00Z</time></trkpt><trkpt lat="44.56623306326518" lon="10.597816284356933"><ele>370.0</ele><time>2026-04-18T12:22:01Z</time></trkpt><trkpt lat="44.56634765694415" lon="10.597771060980525"><ele>370.0</ele><time>2026-04-18T12:22:02Z</time></trkpt><trkpt lat="44.56644841813932" lon="10.597743974992294"><ele>370.4</ele><time>2026-04-18T12:22:03Z</time></trkpt><trkpt lat="44.56653744564799" lon="10.597713907890038"><ele>370.8</ele><time>2026-04-18T12:22:04Z</time></trkpt><trkpt lat="44.566627034267746" lon="10.597717274248948"><ele>371.20000000000005</ele><time>2026-04-18T12:22:05Z</time></trkpt><trkpt lat="44.566724404166294" lon="10.597729831910472"><ele>371.6</ele><time>2026-04-18T12:22:06Z</time></trkpt><trkpt lat="44.56681857682461" lon="10.597725428499087"><ele>372.0</ele><time>2026-04-18T12:22:07Z</time></trkpt><trkpt lat="44.56691996812848" lon="10.597728710862564"><ele>372.0</ele><time>2026-04-18T12:22:08Z</time></trkpt><trkpt lat="44.56700563289139" lon="10.597691222234053"><ele>372.0</ele><time>2026-04-18T12:22:09Z</time></trkpt><trkpt lat="44.567101149470616" lon="10.597618401975065"><ele>372.0</ele><time>2026-04-18T12:22:10Z</time></trkpt><trkpt lat="44.56717886152618" lon="10.597518979181919"><ele>372.0</ele><time>2026-04-18T12:22:11Z</time></trkpt><trkpt lat="44.56722066590801" lon="10.597400162925451"><ele>372.0</ele><time>2026-04-18T12:22:12Z</time></trkpt><trkpt lat="44.567258556388985" lon="10.597257630272933"><ele>372.20000000000005</ele><time>2026-04-18T12:22:13Z</time></trkpt><trkpt lat="44.56730602073087" lon="10.597148755342271"><ele>372.4</ele><time>2026-04-18T12:22:14Z</time></trkpt><trkpt lat="44.56736163948765" lon="10.597078585751557"><ele>372.6</ele><time>2026-04-18T12:22:15Z</time></trkpt><trkpt lat="44.567526017331474" lon="10.597046570575424"><ele>372.79999999999995</ele><time>2026-04-18T12:22:17Z</time></trkpt><trkpt lat="44.56761387064274" lon="10.596956049983724"><ele>373.0</ele><time>2026-04-18T12:22:18Z</time></trkpt><trkpt lat="44.567682067608736" lon="10.596841172497236"><ele>372.59999999999997</ele><time>2026-04-18T12:22:19Z</time></trkpt><trkpt lat="44.567723145758286" lon="10.596698079179136"><ele>372.2</ele><time>2026-04-18T12:22:20Z</time></trkpt><trkpt lat="44.567780437397225" lon="10.59659772352367"><ele>371.8</ele><time>2026-04-18T12:22:21Z</time></trkpt><trkpt lat="44.567885922102136" lon="10.596540884278793"><ele>371.4</ele><time>2026-04-18T12:22:23Z</time></trkpt><trkpt lat="44.567960843419435" lon="10.596521941723735"><ele>371.0</ele><time>2026-04-18T12:22:24Z</time></trkpt><trkpt lat="44.56805590060243" lon="10.596514348217893"><ele>374.20000000000005</ele><time>2026-04-18T12:22:25Z</time></trkpt><trkpt lat="44.56815700436562" lon="10.596573200763947"><ele>377.40000000000003</ele><time>2026-04-18T12:22:26Z</time></trkpt><trkpt lat="44.56824476463902" lon="10.596641007439946"><ele>380.6</ele><time>2026-04-18T12:22:27Z</time></trkpt><trkpt lat="44.568332280107256" lon="10.596693537890982"><ele>383.8</ele><time>2026-04-18T12:22:28Z</time></trkpt><trkpt lat="44.56843155350093" lon="10.596685894837822"><ele>387.0</ele><time>2026-04-18T12:22:29Z</time></trkpt><trkpt lat="44.568540932214944" lon="10.596648822203257"><ele>387.0</ele><time>2026-04-18T12:22:30Z</time></trkpt><trkpt lat="44.568660442321416" lon="10.596685536381436"><ele>387.0</ele><time>2026-04-18T12:22:31Z</time></trkpt><trkpt lat="44.568801275650024" lon="10.596729649389948"><ele>387.0</ele><time>2026-04-18T12:22:32Z</time></trkpt><trkpt lat="44.568952426548165" lon="10.59673094851181"><ele>387.0</ele><time>2026-04-18T12:22:33Z</time></trkpt><trkpt lat="44.56907346562967" lon="10.596727229433935"><ele>389.8</ele><time>2026-04-18T12:22:34Z</time></trkpt><trkpt lat="44.56918391037767" lon="10.596726101283936"><ele>392.6</ele><time>2026-04-18T12:22:35Z</time></trkpt><trkpt lat="44.56928831184666" lon="10.59674400094569"><ele>395.40000000000003</ele><time>2026-04-18T12:22:36Z</time></trkpt><trkpt lat="44.56938683804559" lon="10.59674312128603"><ele>398.20000000000005</ele><time>2026-04-18T12:22:37Z</time></trkpt><trkpt lat="44.569505768405975" lon="10.596715929190792"><ele>401.0</ele><time>2026-04-18T12:22:38Z</time></trkpt><trkpt lat="44.56961249611949" lon="10.596660303836329"><ele>403.0</ele><time>2026-04-18T12:22:39Z</time></trkpt><trkpt lat="44.56968598849396" lon="10.596593649022783"><ele>405.0</ele><time>2026-04-18T12:22:40Z</time></trkpt><trkpt lat="44.56975677614365" lon="10.596486382402803"><ele>407.0</ele><time>2026-04-18T12:22:41Z</time></trkpt><trkpt lat="44.569842722032256" lon="10.596382338891976"><ele>409.0</ele><time>2026-04-18T12:22:42Z</time></trkpt><trkpt lat="44.569919848535505" lon="10.596241521278541"><ele>411.0</ele><time>2026-04-18T12:22:43Z</time></trkpt><trkpt lat="44.56992724808333" lon="10.596050010374396"><ele>412.20000000000005</ele><time>2026-04-18T12:22:44Z</time></trkpt><trkpt lat="44.56998020490067" lon="10.595911476003376"><ele>413.40000000000003</ele><time>2026-04-18T12:22:45Z</time></trkpt><trkpt lat="44.57002543091532" lon="10.595814967335707"><ele>414.6</ele><time>2026-04-18T12:22:46Z</time></trkpt><trkpt lat="44.57007519369495" lon="10.595702652982308"><ele>415.8</ele><time>2026-04-18T12:22:47Z</time></trkpt><trkpt lat="44.57018466288007" lon="10.595651107885768"><ele>417.0</ele><time>2026-04-18T12:22:49Z</time></trkpt><trkpt lat="44.57027293441973" lon="10.595639097054704"><ele>420.6</ele><time>2026-04-18T12:22:50Z</time></trkpt><trkpt lat="44.570399616161346" lon="10.595609188658685"><ele>424.20000000000005</ele><time>2026-04-18T12:22:51Z</time></trkpt><trkpt lat="44.57051181950805" lon="10.59556433203977"><ele>427.8</ele><time>2026-04-18T12:22:52Z</time></trkpt><trkpt lat="44.570573407524115" lon="10.595483170171038"><ele>431.4</ele><time>2026-04-18T12:22:53Z</time></trkpt><trkpt lat="44.570652329836996" lon="10.595430372398356"><ele>435.0</ele><time>2026-04-18T12:22:54Z</time></trkpt><trkpt lat="44.57074699033276" lon="10.59534076155875"><ele>434.33333333333337</ele><time>2026-04-18T12:22:55Z</time></trkpt><trkpt lat="44.57085978572534" lon="10.595226864156212"><ele>433.6666666666667</ele><time>2026-04-18T12:22:56Z</time></trkpt><trkpt lat="44.57098940342076" lon="10.595088422483643"><ele>433.0</ele><time>2026-04-18T12:22:57Z</time></trkpt><trkpt lat="44.57112638539919" lon="10.59492580474876"><ele>434.5</ele><time>2026-04-18T12:22:58Z</time></trkpt><trkpt lat="44.571252696662434" lon="10.59474698611783"><ele>436.0</ele><time>2026-04-18T12:22:59Z</time></trkpt><trkpt lat="44.57134419405325" lon="10.594605215601131"><ele>437.5</ele><time>2026-04-18T12:23:00Z</time></trkpt><trkpt lat="44.57142356635088" lon="10.594475209420771"><ele>439.0</ele><time>2026-04-18T12:23:01Z</time></trkpt><trkpt lat="44.571494325754216" lon="10.594333166076238"><ele>440.0</ele><time>2026-04-18T12:23:02Z</time></trkpt><trkpt lat="44.5715524281863" lon="10.594153314940021"><ele>441.0</ele><time>2026-04-18T12:23:03Z</time></trkpt><trkpt lat="44.57160383495404" lon="10.593926653507415"><ele>442.0</ele><time>2026-04-18T12:23:04Z</time></trkpt><trkpt lat="44.57163296430636" lon="10.593713531300088"><ele>442.0</ele><time>2026-04-18T12:23:05Z</time></trkpt><trkpt lat="44.57165284529179" lon="10.593554410496372"><ele>442.00000000000006</ele><time>2026-04-18T12:23:06Z</time></trkpt><trkpt lat="44.5716788033612" lon="10.593432854671557"><ele>442.00000000000006</ele><time>2026-04-18T12:23:07Z</time></trkpt><trkpt lat="44.571720304532526" lon="10.59335767813565"><ele>442.0</ele><time>2026-04-18T12:23:08Z</time></trkpt><trkpt lat="44.57178308320398" lon="10.593315809328336"><ele>442.0</ele><time>2026-04-18T12:23:09Z</time></trkpt><trkpt lat="44.57187700768765" lon="10.593222535619034"><ele>442.0</ele><time>2026-04-18T12:23:10Z</time></trkpt><trkpt lat="44.57199865216117" lon="10.593099002991444"><ele>442.0</ele><time>2026-04-18T12:23:11Z</time></trkpt><trkpt lat="44.57212703187007" lon="10.592940433076635"><ele>442.0</ele><time>2026-04-18T12:23:12Z</time></trkpt><trkpt lat="44.57225718413294" lon="10.592781576941055"><ele>444.8</ele><time>2026-04-18T12:23:13Z</time></trkpt><trkpt lat="44.57235686375247" lon="10.59267307158759"><ele>447.6</ele><time>2026-04-18T12:23:14Z</time></trkpt><trkpt lat="44.57245340889003" lon="10.59256930994372"><ele>450.40000000000003</ele><time>2026-04-18T12:23:15Z</time></trkpt><trkpt lat="44.57252820096664" lon="10.59248609306647"><ele>453.20000000000005</ele><time>2026-04-18T12:23:16Z</time></trkpt><trkpt lat="44.57257592939837" lon="10.592404890784296"><ele>456.0</ele><time>2026-04-18T12:23:17Z</time></trkpt><trkpt lat="44.57258225895477" lon="10.592283155251296"><ele>456.0</ele><time>2026-04-18T12:23:18Z</time></trkpt><trkpt lat="44.57259375187123" lon="10.59217239073189"><ele>456.0</ele><time>2026-04-18T12:23:19Z</time></trkpt><trkpt lat="44.57260231809719" lon="10.592047890841513"><ele>456.0</ele><time>2026-04-18T12:23:20Z</time></trkpt><trkpt lat="44.57261401570332" lon="10.591893937833275"><ele>456.0</ele><time>2026-04-18T12:23:21Z</time></trkpt><trkpt lat="44.57263133344969" lon="10.59172921112256"><ele>456.0</ele><time>2026-04-18T12:23:22Z</time></trkpt><trkpt lat="44.57264916304008" lon="10.591580348887954"><ele>456.0</ele><time>2026-04-18T12:23:23Z</time></trkpt><trkpt lat="44.57266763588818" lon="10.591410319962622"><ele>456.0</ele><time>2026-04-18T12:23:24Z</time></trkpt><trkpt lat="44.572680046982036" lon="10.591238573018796"><ele>456.0</ele><time>2026-04-18T12:23:25Z</time></trkpt><trkpt lat="44.57268951167688" lon="10.591065966800935"><ele>456.0</ele><time>2026-04-18T12:23:26Z</time></trkpt><trkpt lat="44.57270136806557" lon="10.59088862950585"><ele>456.0</ele><time>2026-04-18T12:23:27Z</time></trkpt><trkpt lat="44.57271296233378" lon="10.590730184314978"><ele>456.0</ele><time>2026-04-18T12:23:28Z</time></trkpt><trkpt lat="44.5727210147598" lon="10.590593018970855"><ele>456.0</ele><time>2026-04-18T12:23:29Z</time></trkpt><trkpt lat="44.57272251807144" lon="10.590463575980422"><ele>456.0</ele><time>2026-04-18T12:23:30Z</time></trkpt><trkpt lat="44.57272798087731" lon="10.59036007616126"><ele>456.0</ele><time>2026-04-18T12:23:31Z</time></trkpt><trkpt lat="44.57277085652191" lon="10.590239419656415"><ele>458.4</ele><time>2026-04-18T12:23:33Z</time></trkpt><trkpt lat="44.572858065611484" lon="10.590109954844626"><ele>460.8</ele><time>2026-04-18T12:23:35Z</time></trkpt><trkpt lat="44.57293584679126" lon="10.59000512634441"><ele>463.19999999999993</ele><time>2026-04-18T12:23:36Z</time></trkpt><trkpt lat="44.57299326551064" lon="10.589890038332763"><ele>465.59999999999997</ele><time>2026-04-18T12:23:37Z</time></trkpt><trkpt lat="44.57301264212212" lon="10.589744756253605"><ele>468.0</ele><time>2026-04-18T12:23:38Z</time></trkpt><trkpt lat="44.57303534761147" lon="10.58959733461792"><ele>466.59999999999997</ele><time>2026-04-18T12:23:39Z</time></trkpt><trkpt lat="44.57307683728581" lon="10.589480393557126"><ele>465.19999999999993</ele><time>2026-04-18T12:23:40Z</time></trkpt><trkpt lat="44.573140017938606" lon="10.589370864269313"><ele>463.8</ele><time>2026-04-18T12:23:41Z</time></trkpt><trkpt lat="44.5732124234483" lon="10.5892750257758"><ele>462.4</ele><time>2026-04-18T12:23:42Z</time></trkpt><trkpt lat="44.57326997952214" lon="10.589184427352851"><ele>461.0</ele><time>2026-04-18T12:23:43Z</time></trkpt><trkpt lat="44.57331423312077" lon="10.589083442153143"><ele>461.0</ele><time>2026-04-18T12:23:44Z</time></trkpt><trkpt lat="44.57334067300765" lon="10.588956204242589"><ele>461.0</ele><time>2026-04-18T12:23:45Z</time></trkpt><trkpt lat="44.57335321546973" lon="10.588834296402066"><ele>461.0</ele><time>2026-04-18T12:23:46Z</time></trkpt><trkpt lat="44.573322413879765" lon="10.588710987495451"><ele>461.0</ele><time>2026-04-18T12:23:47Z</time></trkpt><trkpt lat="44.57329543393175" lon="10.588606839113114"><ele>461.0</ele><time>2026-04-18T12:23:48Z</time></trkpt><trkpt lat="44.57325787116081" lon="10.588450811322259"><ele>460.3333333333333</ele><time>2026-04-18T12:23:50Z</time></trkpt><trkpt lat="44.57318254300081" lon="10.588311441191767"><ele>459.66666666666663</ele><time>2026-04-18T12:23:52Z</time></trkpt><trkpt lat="44.57316000275108" lon="10.588217062687049"><ele>459.0</ele><time>2026-04-18T12:23:53Z</time></trkpt><trkpt lat="44.57313159259526" lon="10.588130737158428"><ele>458.33333333333337</ele><time>2026-04-18T12:23:54Z</time></trkpt><trkpt lat="44.573113453468" lon="10.58803663765812"><ele>457.6666666666667</ele><time>2026-04-18T12:23:55Z</time></trkpt><trkpt lat="44.573146202647806" lon="10.587930590124921"><ele>457.0</ele><time>2026-04-18T12:23:56Z</time></trkpt><trkpt lat="44.573150893981726" lon="10.587775357770104"><ele>456.6</ele><time>2026-04-18T12:23:58Z</time></trkpt><trkpt lat="44.57319911828019" lon="10.58765183797184"><ele>456.20000000000005</ele><time>2026-04-18T12:24:00Z</time></trkpt><trkpt lat="44.57327058801981" lon="10.587561155921176"><ele>455.8</ele><time>2026-04-18T12:24:02Z</time></trkpt><trkpt lat="44.573366687498364" lon="10.587468896519274"><ele>455.4</ele><time>2026-04-18T12:24:04Z</time></trkpt><trkpt lat="44.57344096252581" lon="10.587404377992849"><ele>455.0</ele><time>2026-04-18T12:24:05Z</time></trkpt><trkpt lat="44.57350263312563" lon="10.587356284084333"><ele>454.99999999999994</ele><time>2026-04-18T12:24:06Z</time></trkpt><trkpt lat="44.57357266194306" lon="10.587303228973921"><ele>455.0</ele><time>2026-04-18T12:24:07Z</time></trkpt><trkpt lat="44.57362628997003" lon="10.587254053689254"><ele>455.0</ele><time>2026-04-18T12:24:08Z</time></trkpt><trkpt lat="44.57368531088918" lon="10.587209517401101"><ele>455.0</ele><time>2026-04-18T12:24:09Z</time></trkpt><trkpt lat="44.57374898286122" lon="10.587199167335234"><ele>454.99999999999994</ele><time>2026-04-18T12:24:10Z</time></trkpt><trkpt lat="44.57385634198772" lon="10.587140443193336"><ele>455.0</ele><time>2026-04-18T12:24:12Z</time></trkpt><trkpt lat="44.57395265558965" lon="10.587111118901527"><ele>454.16666666666663</ele><time>2026-04-18T12:24:14Z</time></trkpt><trkpt lat="44.57384963492881" lon="10.587006273796366"><ele>453.3333333333333</ele><time>2026-04-18T12:24:19Z</time></trkpt><trkpt lat="44.57377830898294" lon="10.58700876296196"><ele>452.5</ele><time>2026-04-18T12:24:20Z</time></trkpt><trkpt lat="44.57370285250341" lon="10.587000808002381"><ele>451.66666666666663</ele><time>2026-04-18T12:24:21Z</time></trkpt><trkpt lat="44.57362527444651" lon="10.586988953716777"><ele>450.8333333333333</ele><time>2026-04-18T12:24:22Z</time></trkpt><trkpt lat="44.57353557538678" lon="10.586957305118897"><ele>450.0</ele><time>2026-04-18T12:24:23Z</time></trkpt><trkpt lat="44.57344860526556" lon="10.586943391780022"><ele>450.0</ele><time>2026-04-18T12:24:24Z</time></trkpt><trkpt lat="44.57337107847209" lon="10.586928825031617"><ele>450.0</ele><time>2026-04-18T12:24:25Z</time></trkpt><trkpt lat="44.57330278787214" lon="10.586915185259539"><ele>450.0</ele><time>2026-04-18T12:24:26Z</time></trkpt><trkpt lat="44.57323217041472" lon="10.586935064579217"><ele>450.0</ele><time>2026-04-18T12:24:27Z</time></trkpt><trkpt lat="44.57311988509566" lon="10.586906963677112"><ele>450.0</ele><time>2026-04-18T12:24:29Z</time></trkpt><trkpt lat="44.57301579765937" lon="10.586882824441137"><ele>450.0</ele><time>2026-04-18T12:24:31Z</time></trkpt><trkpt lat="44.57292031252648" lon="10.586866488805242"><ele>450.0</ele><time>2026-04-18T12:24:33Z</time></trkpt><trkpt lat="44.572840984664815" lon="10.586798501319791"><ele>450.0</ele><time>2026-04-18T12:24:35Z</time></trkpt><trkpt lat="44.572857337111344" lon="10.586708767887835"><ele>450.0</ele><time>2026-04-18T12:24:36Z</time></trkpt><trkpt lat="44.57282218106036" lon="10.586570311643056"><ele>450.0</ele><time>2026-04-18T12:24:38Z</time></trkpt><trkpt lat="44.572782752800165" lon="10.5864346432231"><ele>450.0</ele><time>2026-04-18T12:24:40Z</time></trkpt><trkpt lat="44.572728845565244" lon="10.586320053483627"><ele>450.0</ele><time>2026-04-18T12:24:42Z</time></trkpt><trkpt lat="44.57268474910907" lon="10.586250305010935"><ele>450.0</ele><time>2026-04-18T12:24:43Z</time></trkpt><trkpt lat="44.57263859830824" lon="10.58618037949803"><ele>450.0</ele><time>2026-04-18T12:24:44Z</time></trkpt><trkpt lat="44.57258264264977" lon="10.586095596615028"><ele>450.0</ele><time>2026-04-18T12:24:45Z</time></trkpt><trkpt lat="44.57252599442787" lon="10.586008463205202"><ele>450.0</ele><time>2026-04-18T12:24:46Z</time></trkpt><trkpt lat="44.57247204742507" lon="10.585914208869072"><ele>450.0</ele><time>2026-04-18T12:24:47Z</time></trkpt><trkpt lat="44.57241961056797" lon="10.585818900234164"><ele>450.00000000000006</ele><time>2026-04-18T12:24:48Z</time></trkpt><trkpt lat="44.57237609395753" lon="10.585716029947282"><ele>450.0</ele><time>2026-04-18T12:24:49Z</time></trkpt><trkpt lat="44.57233406310893" lon="10.58561807433204"><ele>450.00000000000006</ele><time>2026-04-18T12:24:50Z</time></trkpt><trkpt lat="44.57229359409864" lon="10.585535893837617"><ele>450.00000000000006</ele><time>2026-04-18T12:24:51Z</time></trkpt><trkpt lat="44.57225066485653" lon="10.585444749425893"><ele>450.0</ele><time>2026-04-18T12:24:52Z</time></trkpt><trkpt lat="44.572217011904876" lon="10.585361942400384"><ele>450.00000000000006</ele><time>2026-04-18T12:24:53Z</time></trkpt><trkpt lat="44.572198754072296" lon="10.585274262459114"><ele>450.00000000000006</ele><time>2026-04-18T12:24:54Z</time></trkpt><trkpt lat="44.57218030534432" lon="10.58507329176473"><ele>450.5</ele><time>2026-04-18T12:24:56Z</time></trkpt><trkpt lat="44.572169919441855" lon="10.584952597827249"><ele>451.0</ele><time>2026-04-18T12:24:57Z</time></trkpt><trkpt lat="44.572159453060216" lon="10.584830966549626"><ele>451.5</ele><time>2026-04-18T12:24:58Z</time></trkpt><trkpt lat="44.57214930296672" lon="10.584705742345994"><ele>452.0</ele><time>2026-04-18T12:24:59Z</time></trkpt><trkpt lat="44.57214824696664" lon="10.584577790092975"><ele>452.5</ele><time>2026-04-18T12:25:00Z</time></trkpt><trkpt lat="44.572150668601346" lon="10.5844462724673"><ele>453.0</ele><time>2026-04-18T12:25:01Z</time></trkpt><trkpt lat="44.57214751637554" lon="10.584307485714348"><ele>453.4</ele><time>2026-04-18T12:25:02Z</time></trkpt><trkpt lat="44.57214358430053" lon="10.584182063567848"><ele>453.79999999999995</ele><time>2026-04-18T12:25:03Z</time></trkpt><trkpt lat="44.57207953961811" lon="10.584039947509265"><ele>454.2</ele><time>2026-04-18T12:25:04Z</time></trkpt><trkpt lat="44.57202526709544" lon="10.583919635640543"><ele>454.6</ele><time>2026-04-18T12:25:05Z</time></trkpt><trkpt lat="44.57196004355362" lon="10.583791033219867"><ele>455.0</ele><time>2026-04-18T12:25:06Z</time></trkpt><trkpt lat="44.571894883473284" lon="10.583667144064345"><ele>456.4</ele><time>2026-04-18T12:25:07Z</time></trkpt><trkpt lat="44.571831007284096" lon="10.583546971390597"><ele>457.8</ele><time>2026-04-18T12:25:08Z</time></trkpt><trkpt lat="44.571768705596874" lon="10.583433657328754"><ele>459.20000000000005</ele><time>2026-04-18T12:25:09Z</time></trkpt><trkpt lat="44.57169989974423" lon="10.583310806475316"><ele>460.6</ele><time>2026-04-18T12:25:10Z</time></trkpt><trkpt lat="44.571633336939605" lon="10.583193273988782"><ele>462.0</ele><time>2026-04-18T12:25:11Z</time></trkpt><trkpt lat="44.57155292258368" lon="10.583069629652766"><ele>462.0</ele><time>2026-04-18T12:25:12Z</time></trkpt><trkpt lat="44.57146338134988" lon="10.582961593573682"><ele>462.00000000000006</ele><time>2026-04-18T12:25:13Z</time></trkpt><trkpt lat="44.57139168614854" lon="10.58287483099268"><ele>462.00000000000006</ele><time>2026-04-18T12:25:14Z</time></trkpt><trkpt lat="44.57132878187448" lon="10.582792653580729"><ele>462.0</ele><time>2026-04-18T12:25:15Z</time></trkpt><trkpt lat="44.57127290471559" lon="10.582695344111848"><ele>462.0</ele><time>2026-04-18T12:25:16Z</time></trkpt><trkpt lat="44.571251148243306" lon="10.582588896599022"><ele>462.6</ele><time>2026-04-18T12:25:17Z</time></trkpt><trkpt lat="44.57122967592073" lon="10.582479765296977"><ele>463.20000000000005</ele><time>2026-04-18T12:25:18Z</time></trkpt><trkpt lat="44.57119662658246" lon="10.582354733657773"><ele>463.8</ele><time>2026-04-18T12:25:19Z</time></trkpt><trkpt lat="44.57116178892382" lon="10.582229762576995"><ele>464.4</ele><time>2026-04-18T12:25:20Z</time></trkpt><trkpt lat="44.571114745127005" lon="10.582085744291971"><ele>465.0</ele><time>2026-04-18T12:25:21Z</time></trkpt><trkpt lat="44.57107401521698" lon="10.581953831368686"><ele>465.0</ele><time>2026-04-18T12:25:22Z</time></trkpt><trkpt lat="44.57104136714155" lon="10.581831080658581"><ele>465.0</ele><time>2026-04-18T12:25:23Z</time></trkpt><trkpt lat="44.57100980875282" lon="10.581707517830067"><ele>465.0</ele><time>2026-04-18T12:25:24Z</time></trkpt><trkpt lat="44.570981694092005" lon="10.581584519814696"><ele>465.0</ele><time>2026-04-18T12:25:25Z</time></trkpt><trkpt lat="44.570957751970454" lon="10.581470697994058"><ele>465.0</ele><time>2026-04-18T12:25:26Z</time></trkpt><trkpt lat="44.570951094233806" lon="10.581351702907511"><ele>465.0</ele><time>2026-04-18T12:25:27Z</time></trkpt><trkpt lat="44.57095574791113" lon="10.581204851814833"><ele>462.75</ele><time>2026-04-18T12:25:28Z</time></trkpt><trkpt lat="44.57097871906978" lon="10.581044163735003"><ele>460.5</ele><time>2026-04-18T12:25:29Z</time></trkpt><trkpt lat="44.5710034941069" lon="10.580864881227022"><ele>458.25</ele><time>2026-04-18T12:25:30Z</time></trkpt><trkpt lat="44.57103068460008" lon="10.580687556453368"><ele>456.0</ele><time>2026-04-18T12:25:31Z</time></trkpt><trkpt lat="44.571059631626746" lon="10.580506067725985"><ele>453.75</ele><time>2026-04-18T12:25:32Z</time></trkpt><trkpt lat="44.571088686962" lon="10.58032620926858"><ele>451.5</ele><time>2026-04-18T12:25:33Z</time></trkpt><trkpt lat="44.57111480016095" lon="10.580159179190353"><ele>449.25</ele><time>2026-04-18T12:25:34Z</time></trkpt><trkpt lat="44.57114116583802" lon="10.580000338685089"><ele>447.0</ele><time>2026-04-18T12:25:35Z</time></trkpt><trkpt lat="44.571172514695384" lon="10.57984271481012"><ele>449.0</ele><time>2026-04-18T12:25:36Z</time></trkpt><trkpt lat="44.5712082839269" lon="10.579692666629663"><ele>451.0</ele><time>2026-04-18T12:25:37Z</time></trkpt><trkpt lat="44.57125137844509" lon="10.579542628659773"><ele>453.0</ele><time>2026-04-18T12:25:38Z</time></trkpt><trkpt lat="44.57130214514117" lon="10.579394429797896"><ele>455.0</ele><time>2026-04-18T12:25:39Z</time></trkpt><trkpt lat="44.571359276605435" lon="10.579244364603467"><ele>455.0</ele><time>2026-04-18T12:25:40Z</time></trkpt><trkpt lat="44.57141359941925" lon="10.579102472824431"><ele>455.0</ele><time>2026-04-18T12:25:41Z</time></trkpt><trkpt lat="44.57146543779974" lon="10.578958788309071"><ele>455.0</ele><time>2026-04-18T12:25:42Z</time></trkpt><trkpt lat="44.5715058816195" lon="10.578812300460475"><ele>455.0</ele><time>2026-04-18T12:25:43Z</time></trkpt><trkpt lat="44.57153098061067" lon="10.578652533477591"><ele>452.8</ele><time>2026-04-18T12:25:44Z</time></trkpt><trkpt lat="44.571542932996564" lon="10.578498842390069"><ele>450.6</ele><time>2026-04-18T12:25:45Z</time></trkpt><trkpt lat="44.57155874798221" lon="10.578350560684216"><ele>448.4</ele><time>2026-04-18T12:25:46Z</time></trkpt><trkpt lat="44.57158603557659" lon="10.578232516546414"><ele>446.2</ele><time>2026-04-18T12:25:47Z</time></trkpt><trkpt lat="44.571647891420135" lon="10.578129287433471"><ele>444.0</ele><time>2026-04-18T12:25:48Z</time></trkpt><trkpt lat="44.571735678469004" lon="10.578058628178153"><ele>444.0</ele><time>2026-04-18T12:25:49Z</time></trkpt><trkpt lat="44.57182517436538" lon="10.578043535076413"><ele>444.0</ele><time>2026-04-18T12:25:50Z</time></trkpt><trkpt lat="44.571941412075255" lon="10.57804506807709"><ele>444.0</ele><time>2026-04-18T12:25:51Z</time></trkpt><trkpt lat="44.57205397718105" lon="10.578095187389625"><ele>444.0</ele><time>2026-04-18T12:25:52Z</time></trkpt><trkpt lat="44.57215726568436" lon="10.578133277168687"><ele>444.0</ele><time>2026-04-18T12:25:53Z</time></trkpt><trkpt lat="44.572253138564164" lon="10.578168715489786"><ele>444.0</ele><time>2026-04-18T12:25:54Z</time></trkpt><trkpt lat="44.572318964714285" lon="10.578177194404326"><ele>444.0</ele><time>2026-04-18T12:25:55Z</time></trkpt><trkpt lat="44.57240674711673" lon="10.578114217021012"><ele>444.0</ele><time>2026-04-18T12:25:57Z</time></trkpt><trkpt lat="44.572406247033946" lon="10.578001095742076"><ele>444.0</ele><time>2026-04-18T12:25:58Z</time></trkpt><trkpt lat="44.572346251906104" lon="10.577906942905498"><ele>444.0</ele><time>2026-04-18T12:25:59Z</time></trkpt><trkpt lat="44.572252883453956" lon="10.57786494559776"><ele>444.0</ele><time>2026-04-18T12:26:00Z</time></trkpt><trkpt lat="44.57216633001183" lon="10.577798974511477"><ele>441.3333333333333</ele><time>2026-04-18T12:26:01Z</time></trkpt><trkpt lat="44.57207594106268" lon="10.577737329875667"><ele>438.66666666666663</ele><time>2026-04-18T12:26:02Z</time></trkpt><trkpt lat="44.57199711925721" lon="10.577682710832546"><ele>436.0</ele><time>2026-04-18T12:26:03Z</time></trkpt><trkpt lat="44.57192641817828" lon="10.577617520918713"><ele>433.3333333333333</ele><time>2026-04-18T12:26:04Z</time></trkpt><trkpt lat="44.57186285225692" lon="10.577535335075174"><ele>430.66666666666663</ele><time>2026-04-18T12:26:05Z</time></trkpt><trkpt lat="44.571862560808874" lon="10.577429309353"><ele>428.0</ele><time>2026-04-18T12:26:06Z</time></trkpt><trkpt lat="44.57186866121396" lon="10.577294405409999"><ele>428.0</ele><time>2026-04-18T12:26:07Z</time></trkpt><trkpt lat="44.57188179099206" lon="10.577127834474137"><ele>428.0</ele><time>2026-04-18T12:26:08Z</time></trkpt><trkpt lat="44.57189349872699" lon="10.576955181883802"><ele>428.0</ele><time>2026-04-18T12:26:09Z</time></trkpt><trkpt lat="44.571897098671165" lon="10.576760339674882"><ele>428.0</ele><time>2026-04-18T12:26:10Z</time></trkpt><trkpt lat="44.571891290053074" lon="10.576547180655927"><ele>427.5</ele><time>2026-04-18T12:26:11Z</time></trkpt><trkpt lat="44.571888585758046" lon="10.576331886393492"><ele>427.0</ele><time>2026-04-18T12:26:12Z</time></trkpt><trkpt lat="44.57189687281874" lon="10.57612878894243"><ele>426.5</ele><time>2026-04-18T12:26:13Z</time></trkpt><trkpt lat="44.571925107519014" lon="10.575935507127594"><ele>426.0</ele><time>2026-04-18T12:26:14Z</time></trkpt><trkpt lat="44.571975206517195" lon="10.575768873235535"><ele>427.20000000000005</ele><time>2026-04-18T12:26:15Z</time></trkpt><trkpt lat="44.57200075224481" lon="10.57562548669875"><ele>428.40000000000003</ele><time>2026-04-18T12:26:16Z</time></trkpt><trkpt lat="44.57203679434568" lon="10.57551782639469"><ele>429.6</ele><time>2026-04-18T12:26:17Z</time></trkpt><trkpt lat="44.5720269088518" lon="10.575396788447812"><ele>430.8</ele><time>2026-04-18T12:26:18Z</time></trkpt><trkpt lat="44.57195891434565" lon="10.575252838840466"><ele>432.0</ele><time>2026-04-18T12:26:19Z</time></trkpt><trkpt lat="44.571836616828314" lon="10.575149463592417"><ele>432.6</ele><time>2026-04-18T12:26:20Z</time></trkpt><trkpt lat="44.57173323443069" lon="10.575030135019558"><ele>433.20000000000005</ele><time>2026-04-18T12:26:21Z</time></trkpt><trkpt lat="44.57164739568967" lon="10.57491750585848"><ele>433.8</ele><time>2026-04-18T12:26:22Z</time></trkpt><trkpt lat="44.571613894090895" lon="10.57478154716214"><ele>434.4</ele><time>2026-04-18T12:26:23Z</time></trkpt><trkpt lat="44.57161055198222" lon="10.574660779884274"><ele>435.0</ele><time>2026-04-18T12:26:24Z</time></trkpt><trkpt lat="44.57166725195466" lon="10.57452673809796"><ele>437.0</ele><time>2026-04-18T12:26:25Z</time></trkpt><trkpt lat="44.57173175157462" lon="10.574360049877654"><ele>439.0</ele><time>2026-04-18T12:26:26Z</time></trkpt><trkpt lat="44.5718022670455" lon="10.574163783523547"><ele>441.0</ele><time>2026-04-18T12:26:27Z</time></trkpt><trkpt lat="44.57187222430716" lon="10.573954193071671"><ele>441.0</ele><time>2026-04-18T12:26:28Z</time></trkpt><trkpt lat="44.57192833665944" lon="10.573762026084149"><ele>441.0</ele><time>2026-04-18T12:26:29Z</time></trkpt><trkpt lat="44.571979984508964" lon="10.573573690921"><ele>441.0</ele><time>2026-04-18T12:26:30Z</time></trkpt><trkpt lat="44.57202662856131" lon="10.573368640826587"><ele>441.0</ele><time>2026-04-18T12:26:31Z</time></trkpt><trkpt lat="44.572066116093524" lon="10.573126130889209"><ele>441.25</ele><time>2026-04-18T12:26:32Z</time></trkpt><trkpt lat="44.57210412136028" lon="10.57288483124757"><ele>441.5</ele><time>2026-04-18T12:26:33Z</time></trkpt><trkpt lat="44.57213144695253" lon="10.572683624017674"><ele>441.75</ele><time>2026-04-18T12:26:34Z</time></trkpt><trkpt lat="44.57215037590879" lon="10.572521827738179"><ele>442.0</ele><time>2026-04-18T12:26:35Z</time></trkpt><trkpt lat="44.5721565320639" lon="10.572334198167699"><ele>442.0</ele><time>2026-04-18T12:26:36Z</time></trkpt><trkpt lat="44.5721535784054" lon="10.572188705141038"><ele>442.00000000000006</ele><time>2026-04-18T12:26:37Z</time></trkpt><trkpt lat="44.572152046983675" lon="10.572045667049668"><ele>442.00000000000006</ele><time>2026-04-18T12:26:38Z</time></trkpt><trkpt lat="44.57215962887798" lon="10.571899037168476"><ele>442.0</ele><time>2026-04-18T12:26:39Z</time></trkpt><trkpt lat="44.572195053281376" lon="10.571766432100558"><ele>442.0</ele><time>2026-04-18T12:26:40Z</time></trkpt><trkpt lat="44.57223529024067" lon="10.571620252733343"><ele>442.20000000000005</ele><time>2026-04-18T12:26:41Z</time></trkpt><trkpt lat="44.57226315631733" lon="10.571472267571265"><ele>442.40000000000003</ele><time>2026-04-18T12:26:42Z</time></trkpt><trkpt lat="44.57230457329748" lon="10.571356013058432"><ele>442.59999999999997</ele><time>2026-04-18T12:26:43Z</time></trkpt><trkpt lat="44.57243261695223" lon="10.57134794897642"><ele>442.79999999999995</ele><time>2026-04-18T12:26:44Z</time></trkpt><trkpt lat="44.572533759710666" lon="10.571271229312583"><ele>443.0</ele><time>2026-04-18T12:26:45Z</time></trkpt><trkpt lat="44.57263098662809" lon="10.571195087818918"><ele>442.75</ele><time>2026-04-18T12:26:46Z</time></trkpt><trkpt lat="44.572726377351145" lon="10.571098617205859"><ele>442.5</ele><time>2026-04-18T12:26:47Z</time></trkpt><trkpt lat="44.57280229632819" lon="10.570953552792147"><ele>442.25</ele><time>2026-04-18T12:26:48Z</time></trkpt><trkpt lat="44.57284564862608" lon="10.570767749111099"><ele>442.0</ele><time>2026-04-18T12:26:49Z</time></trkpt><trkpt lat="44.57289220850782" lon="10.570581017441974"><ele>441.6666666666667</ele><time>2026-04-18T12:26:50Z</time></trkpt><trkpt lat="44.572948378587576" lon="10.57037770596117"><ele>441.33333333333337</ele><time>2026-04-18T12:26:51Z</time></trkpt><trkpt lat="44.573006894264886" lon="10.570172784434524"><ele>441.0</ele><time>2026-04-18T12:26:52Z</time></trkpt><trkpt lat="44.57306305931418" lon="10.56997580728933"><ele>441.0</ele><time>2026-04-18T12:26:53Z</time></trkpt><trkpt lat="44.57312308524761" lon="10.569756793517993"><ele>441.0</ele><time>2026-04-18T12:26:54Z</time></trkpt><trkpt lat="44.57318834855833" lon="10.569518167050214"><ele>441.0</ele><time>2026-04-18T12:26:55Z</time></trkpt><trkpt lat="44.57325188116941" lon="10.569286672343416"><ele>441.0</ele><time>2026-04-18T12:26:56Z</time></trkpt><trkpt lat="44.57331504048425" lon="10.56906931170059"><ele>441.0</ele><time>2026-04-18T12:26:57Z</time></trkpt><trkpt lat="44.57338034993374" lon="10.568854076446392"><ele>441.0</ele><time>2026-04-18T12:26:58Z</time></trkpt><trkpt lat="44.57344152218474" lon="10.568655236259094"><ele>440.0</ele><time>2026-04-18T12:26:59Z</time></trkpt><trkpt lat="44.573503157716104" lon="10.568463962393867"><ele>439.0</ele><time>2026-04-18T12:27:00Z</time></trkpt><trkpt lat="44.573560198776704" lon="10.568270600551799"><ele>438.0</ele><time>2026-04-18T12:27:01Z</time></trkpt><trkpt lat="44.57361663662333" lon="10.568073437459525"><ele>438.0</ele><time>2026-04-18T12:27:02Z</time></trkpt><trkpt lat="44.57367647849531" lon="10.56787258804613"><ele>438.0</ele><time>2026-04-18T12:27:03Z</time></trkpt><trkpt lat="44.57373700576055" lon="10.567666942010149"><ele>438.0</ele><time>2026-04-18T12:27:04Z</time></trkpt><trkpt lat="44.573793235421036" lon="10.567470365096623"><ele>438.0</ele><time>2026-04-18T12:27:05Z</time></trkpt><trkpt lat="44.57384042460887" lon="10.567282892631878"><ele>438.0</ele><time>2026-04-18T12:27:06Z</time></trkpt><trkpt lat="44.57386493192471" lon="10.567088537462391"><ele>438.0</ele><time>2026-04-18T12:27:07Z</time></trkpt><trkpt lat="44.57386447160242" lon="10.566883868249523"><ele>438.0</ele><time>2026-04-18T12:27:08Z</time></trkpt><trkpt lat="44.573861936828536" lon="10.566680139640454"><ele>438.0</ele><time>2026-04-18T12:27:09Z</time></trkpt><trkpt lat="44.573866769032485" lon="10.566482286668938"><ele>438.0</ele><time>2026-04-18T12:27:10Z</time></trkpt><trkpt lat="44.57387260485141" lon="10.566295383922286"><ele>438.0</ele><time>2026-04-18T12:27:11Z</time></trkpt><trkpt lat="44.57386678246171" lon="10.566120407029956"><ele>438.0</ele><time>2026-04-18T12:27:12Z</time></trkpt><trkpt lat="44.57380910016394" lon="10.565953862776192"><ele>438.33333333333337</ele><time>2026-04-18T12:27:13Z</time></trkpt><trkpt lat="44.57375371908267" lon="10.565774335697862"><ele>438.6666666666667</ele><time>2026-04-18T12:27:14Z</time></trkpt><trkpt lat="44.573702695603885" lon="10.565571957032558"><ele>439.0</ele><time>2026-04-18T12:27:15Z</time></trkpt><trkpt lat="44.573603427841995" lon="10.565375686749295"><ele>438.0</ele><time>2026-04-18T12:27:16Z</time></trkpt><trkpt lat="44.57348277376972" lon="10.565188029282483"><ele>437.0</ele><time>2026-04-18T12:27:17Z</time></trkpt><trkpt lat="44.5733391615798" lon="10.565011860734618"><ele>436.0</ele><time>2026-04-18T12:27:18Z</time></trkpt><trkpt lat="44.57320476276248" lon="10.564771018517819"><ele>435.6666666666667</ele><time>2026-04-18T12:27:19Z</time></trkpt><trkpt lat="44.57307761374545" lon="10.564524117356871"><ele>435.33333333333337</ele><time>2026-04-18T12:27:20Z</time></trkpt><trkpt lat="44.57297343368675" lon="10.564293952006814"><ele>435.0</ele><time>2026-04-18T12:27:21Z</time></trkpt><trkpt lat="44.57287636612118" lon="10.564087311518714"><ele>436.25</ele><time>2026-04-18T12:27:22Z</time></trkpt><trkpt lat="44.5727755342556" lon="10.563906567847546"><ele>437.5</ele><time>2026-04-18T12:27:23Z</time></trkpt><trkpt lat="44.57268893086943" lon="10.563763630204281"><ele>438.75</ele><time>2026-04-18T12:27:24Z</time></trkpt><trkpt lat="44.57261784672651" lon="10.563647423411684"><ele>440.0</ele><time>2026-04-18T12:27:25Z</time></trkpt><trkpt lat="44.572552152688715" lon="10.563539678997401"><ele>442.0</ele><time>2026-04-18T12:27:26Z</time></trkpt><trkpt lat="44.572485839865" lon="10.56344916366991"><ele>444.0</ele><time>2026-04-18T12:27:27Z</time></trkpt><trkpt lat="44.572425975088294" lon="10.563390249620454"><ele>446.0</ele><time>2026-04-18T12:27:28Z</time></trkpt><trkpt lat="44.57211342272543" lon="10.563059928406178"><ele>446.0</ele><time>2026-04-18T12:27:33Z</time></trkpt><trkpt lat="44.572138458342096" lon="10.562971920269042"><ele>446.0</ele><time>2026-04-18T12:27:35Z</time></trkpt><trkpt lat="44.5724810907662" lon="10.563127871889924"><ele>446.0</ele><time>2026-04-18T12:27:44Z</time></trkpt><trkpt lat="44.57244595175626" lon="10.563281150477197"><ele>446.0</ele><time>2026-04-18T12:27:46Z</time></trkpt><trkpt lat="44.57240115914961" lon="10.563383275888675"><ele>446.0</ele><time>2026-04-18T12:27:48Z</time></trkpt><trkpt lat="44.57232791929911" lon="10.563413932843039"><ele>446.0</ele><time>2026-04-18T12:27:51Z</time></trkpt><trkpt lat="44.57223454492107" lon="10.563354658286766"><ele>446.0</ele><time>2026-04-18T12:27:53Z</time></trkpt><trkpt lat="44.572169175953114" lon="10.563323851628594"><ele>446.0</ele><time>2026-04-18T12:27:54Z</time></trkpt><trkpt lat="44.5720580044492" lon="10.563253497922684"><ele>445.99999999999994</ele><time>2026-04-18T12:27:56Z</time></trkpt><trkpt lat="44.57204421056946" lon="10.563117828635356"><ele>446.0</ele><time>2026-04-18T12:27:58Z</time></trkpt><trkpt lat="44.57207663583731" lon="10.563028722057044"><ele>446.0</ele><time>2026-04-18T12:27:59Z</time></trkpt><trkpt lat="44.57210864715944" lon="10.562927258057998"><ele>446.0</ele><time>2026-04-18T12:28:00Z</time></trkpt><trkpt lat="44.572132446263346" lon="10.562817582866783"><ele>445.99999999999994</ele><time>2026-04-18T12:28:01Z</time></trkpt><trkpt lat="44.57212954097968" lon="10.562689287969972"><ele>446.0</ele><time>2026-04-18T12:28:02Z</time></trkpt><trkpt lat="44.57210664156124" lon="10.562560884369384"><ele>446.42857142857144</ele><time>2026-04-18T12:28:03Z</time></trkpt><trkpt lat="44.57206233750234" lon="10.562466919674359"><ele>446.85714285714283</ele><time>2026-04-18T12:28:04Z</time></trkpt><trkpt lat="44.57201706073914" lon="10.56235760255522"><ele>447.2857142857143</ele><time>2026-04-18T12:28:05Z</time></trkpt><trkpt lat="44.57197604528641" lon="10.56228265785563"><ele>447.71428571428567</ele><time>2026-04-18T12:28:06Z</time></trkpt><trkpt lat="44.571944578098176" lon="10.562192626454147"><ele>448.1428571428571</ele><time>2026-04-18T12:28:07Z</time></trkpt><trkpt lat="44.57191985991718" lon="10.56211088424296"><ele>448.57142857142856</ele><time>2026-04-18T12:28:08Z</time></trkpt><trkpt lat="44.571938436917144" lon="10.562016647157288"><ele>449.0</ele><time>2026-04-18T12:28:09Z</time></trkpt><trkpt lat="44.571913502480626" lon="10.561805911053431"><ele>447.0</ele><time>2026-04-18T12:28:11Z</time></trkpt><trkpt lat="44.57192059328953" lon="10.561651752099388"><ele>445.0</ele><time>2026-04-18T12:28:12Z</time></trkpt><trkpt lat="44.571945652986805" lon="10.56142381924552"><ele>443.0</ele><time>2026-04-18T12:28:13Z</time></trkpt><trkpt lat="44.57195144698609" lon="10.561156316778415"><ele>443.0</ele><time>2026-04-18T12:28:14Z</time></trkpt><trkpt lat="44.57193397088571" lon="10.56084172855069"><ele>443.0</ele><time>2026-04-18T12:28:15Z</time></trkpt><trkpt lat="44.57190178340917" lon="10.56052781449148"><ele>444.66666666666663</ele><time>2026-04-18T12:28:16Z</time></trkpt><trkpt lat="44.57186971136151" lon="10.560246997439053"><ele>446.33333333333337</ele><time>2026-04-18T12:28:17Z</time></trkpt><trkpt lat="44.57184556791596" lon="10.55998631831254"><ele>448.0</ele><time>2026-04-18T12:28:18Z</time></trkpt><trkpt lat="44.57184803277014" lon="10.5597157390606"><ele>448.00000000000006</ele><time>2026-04-18T12:28:19Z</time></trkpt><trkpt lat="44.571826465045476" lon="10.559570990709071"><ele>448.0</ele><time>2026-04-18T12:28:20Z</time></trkpt><trkpt lat="44.57178656473524" lon="10.559441885053232"><ele>448.0</ele><time>2026-04-18T12:28:21Z</time></trkpt><trkpt lat="44.57175933466912" lon="10.559327267765129"><ele>448.0</ele><time>2026-04-18T12:28:22Z</time></trkpt><trkpt lat="44.571737698163965" lon="10.55920962857425"><ele>448.00000000000006</ele><time>2026-04-18T12:28:23Z</time></trkpt><trkpt lat="44.57173582065448" lon="10.559116882555996"><ele>448.0</ele><time>2026-04-18T12:28:24Z</time></trkpt><trkpt lat="44.57175028849338" lon="10.558970508837511"><ele>450.0</ele><time>2026-04-18T12:28:25Z</time></trkpt><trkpt lat="44.571773546656004" lon="10.558794108974155"><ele>452.0</ele><time>2026-04-18T12:28:26Z</time></trkpt><trkpt lat="44.571793460875114" lon="10.558570899053036"><ele>454.0</ele><time>2026-04-18T12:28:27Z</time></trkpt><trkpt lat="44.57180951674363" lon="10.558332966540375"><ele>454.0</ele><time>2026-04-18T12:28:28Z</time></trkpt><trkpt lat="44.571828222778095" lon="10.558107959588773"><ele>454.0</ele><time>2026-04-18T12:28:29Z</time></trkpt><trkpt lat="44.57185047738844" lon="10.55787902270972"><ele>454.0</ele><time>2026-04-18T12:28:30Z</time></trkpt><trkpt lat="44.57186907849353" lon="10.557680557332171"><ele>454.0</ele><time>2026-04-18T12:28:31Z</time></trkpt><trkpt lat="44.571884233937496" lon="10.557511814029779"><ele>454.0</ele><time>2026-04-18T12:28:32Z</time></trkpt><trkpt lat="44.57189675133485" lon="10.557372443201603"><ele>454.0</ele><time>2026-04-18T12:28:33Z</time></trkpt><trkpt lat="44.57190753547588" lon="10.55725237058381"><ele>454.0</ele><time>2026-04-18T12:28:34Z</time></trkpt><trkpt lat="44.57191540727354" lon="10.557152458576462"><ele>454.0</ele><time>2026-04-18T12:28:35Z</time></trkpt><trkpt lat="44.571917046940584" lon="10.557017281986031"><ele>456.0</ele><time>2026-04-18T12:28:37Z</time></trkpt><trkpt lat="44.571892324060066" lon="10.556883106948842"><ele>458.0</ele><time>2026-04-18T12:28:39Z</time></trkpt><trkpt lat="44.57184493606833" lon="10.556771345894724"><ele>460.0</ele><time>2026-04-18T12:28:41Z</time></trkpt><trkpt lat="44.57180209396009" lon="10.556700917157364"><ele>462.0</ele><time>2026-04-18T12:28:43Z</time></trkpt><trkpt lat="44.57174933285524" lon="10.556608168318222"><ele>464.0</ele><time>2026-04-18T12:28:52Z</time></trkpt><trkpt lat="44.57168076490905" lon="10.556477053134769"><ele>463.99999999999994</ele><time>2026-04-18T12:28:54Z</time></trkpt><trkpt lat="44.57164434225871" lon="10.5563785491373"><ele>464.0</ele><time>2026-04-18T12:28:55Z</time></trkpt><trkpt lat="44.57160940015809" lon="10.556278228729818"><ele>464.0</ele><time>2026-04-18T12:28:56Z</time></trkpt><trkpt lat="44.57157787372515" lon="10.556187714877016"><ele>464.0</ele><time>2026-04-18T12:28:57Z</time></trkpt><trkpt lat="44.57154325287135" lon="10.556065218676451"><ele>463.99999999999994</ele><time>2026-04-18T12:28:59Z</time></trkpt><trkpt lat="44.57152767577788" lon="10.555935722605845"><ele>464.0</ele><time>2026-04-18T12:29:10Z</time></trkpt><trkpt lat="44.57154117075027" lon="10.55583781922354"><ele>465.0</ele><time>2026-04-18T12:29:11Z</time></trkpt><trkpt lat="44.57157358916331" lon="10.555715688502222"><ele>466.0</ele><time>2026-04-18T12:29:12Z</time></trkpt><trkpt lat="44.57157269820076" lon="10.555571566624339"><ele>467.0</ele><time>2026-04-18T12:29:13Z</time></trkpt><trkpt lat="44.571527824900166" lon="10.555423380023422"><ele>468.0</ele><time>2026-04-18T12:29:14Z</time></trkpt><trkpt lat="44.57140562485838" lon="10.555292467115626"><ele>468.0</ele><time>2026-04-18T12:29:15Z</time></trkpt><trkpt lat="44.571322924791495" lon="10.55514920746417"><ele>468.0</ele><time>2026-04-18T12:29:16Z</time></trkpt><trkpt lat="44.57126610053545" lon="10.555005154850422"><ele>468.0</ele><time>2026-04-18T12:29:17Z</time></trkpt><trkpt lat="44.57120497133776" lon="10.554850647075247"><ele>468.0</ele><time>2026-04-18T12:29:18Z</time></trkpt><trkpt lat="44.57115206438833" lon="10.554702452508787"><ele>466.5</ele><time>2026-04-18T12:29:19Z</time></trkpt><trkpt lat="44.57114718834764" lon="10.55453975073872"><ele>465.0</ele><time>2026-04-18T12:29:20Z</time></trkpt><trkpt lat="44.571109622987834" lon="10.55439223663984"><ele>463.5</ele><time>2026-04-18T12:29:21Z</time></trkpt><trkpt lat="44.57105077986896" lon="10.554245338131931"><ele>462.0</ele><time>2026-04-18T12:29:22Z</time></trkpt><trkpt lat="44.570982577695624" lon="10.554123065888644"><ele>462.0</ele><time>2026-04-18T12:29:23Z</time></trkpt><trkpt lat="44.5708908023111" lon="10.553991918378914"><ele>462.0</ele><time>2026-04-18T12:29:24Z</time></trkpt><trkpt lat="44.570791916432434" lon="10.553878748583644"><ele>462.0</ele><time>2026-04-18T12:29:25Z</time></trkpt><trkpt lat="44.57069339590812" lon="10.553763196566258"><ele>462.0</ele><time>2026-04-18T12:29:26Z</time></trkpt><trkpt lat="44.5706076236971" lon="10.553649687426441"><ele>462.25</ele><time>2026-04-18T12:29:27Z</time></trkpt><trkpt lat="44.57051833139154" lon="10.553509994951169"><ele>462.5</ele><time>2026-04-18T12:29:28Z</time></trkpt><trkpt lat="44.57043726629327" lon="10.553360964673088"><ele>462.75</ele><time>2026-04-18T12:29:29Z</time></trkpt><trkpt lat="44.570357109528956" lon="10.553207558239125"><ele>463.0</ele><time>2026-04-18T12:29:30Z</time></trkpt><trkpt lat="44.5702791731974" lon="10.553066679672298"><ele>463.0</ele><time>2026-04-18T12:29:31Z</time></trkpt><trkpt lat="44.57019361012551" lon="10.552912014993332"><ele>463.0</ele><time>2026-04-18T12:29:32Z</time></trkpt><trkpt lat="44.57012773623614" lon="10.552782569707018"><ele>463.0</ele><time>2026-04-18T12:29:33Z</time></trkpt><trkpt lat="44.57006645347731" lon="10.55265333979881"><ele>463.0</ele><time>2026-04-18T12:29:34Z</time></trkpt><trkpt lat="44.56999385640355" lon="10.552542210301478"><ele>463.75</ele><time>2026-04-18T12:29:35Z</time></trkpt><trkpt lat="44.56993284165183" lon="10.55243852757023"><ele>464.5</ele><time>2026-04-18T12:29:36Z</time></trkpt><trkpt lat="44.56987440744047" lon="10.552321638350008"><ele>465.25</ele><time>2026-04-18T12:29:37Z</time></trkpt><trkpt lat="44.569813171395964" lon="10.552174092150409"><ele>466.0</ele><time>2026-04-18T12:29:38Z</time></trkpt><trkpt lat="44.569756837886445" lon="10.551992913967293"><ele>466.0</ele><time>2026-04-18T12:29:39Z</time></trkpt><trkpt lat="44.56970231246826" lon="10.551792831643294"><ele>466.0</ele><time>2026-04-18T12:29:40Z</time></trkpt><trkpt lat="44.56964408233925" lon="10.551565973971266"><ele>466.0</ele><time>2026-04-18T12:29:41Z</time></trkpt><trkpt lat="44.56958859183371" lon="10.551356817441865"><ele>466.5</ele><time>2026-04-18T12:29:42Z</time></trkpt><trkpt lat="44.56953844339899" lon="10.551171892300603"><ele>467.0</ele><time>2026-04-18T12:29:43Z</time></trkpt><trkpt lat="44.56948540123453" lon="10.551010453802515"><ele>467.5</ele><time>2026-04-18T12:29:44Z</time></trkpt><trkpt lat="44.56944584916975" lon="10.550868501556575"><ele>468.0</ele><time>2026-04-18T12:29:45Z</time></trkpt><trkpt lat="44.56941627515657" lon="10.550736700073362"><ele>465.6666666666667</ele><time>2026-04-18T12:29:46Z</time></trkpt><trkpt lat="44.56940442011951" lon="10.550609793208633"><ele>463.33333333333337</ele><time>2026-04-18T12:29:47Z</time></trkpt><trkpt lat="44.56940594695844" lon="10.550490437535283"><ele>461.0</ele><time>2026-04-18T12:29:48Z</time></trkpt><trkpt lat="44.569418580123006" lon="10.550355372461548"><ele>458.6666666666667</ele><time>2026-04-18T12:29:49Z</time></trkpt><trkpt lat="44.56943710354518" lon="10.550235586114379"><ele>456.33333333333337</ele><time>2026-04-18T12:29:50Z</time></trkpt><trkpt lat="44.56947611322075" lon="10.550139145571496"><ele>454.0</ele><time>2026-04-18T12:29:51Z</time></trkpt><trkpt lat="44.569523472197965" lon="10.550031677414978"><ele>454.00000000000006</ele><time>2026-04-18T12:29:52Z</time></trkpt><trkpt lat="44.56955727531257" lon="10.549932776648188"><ele>454.0</ele><time>2026-04-18T12:29:53Z</time></trkpt><trkpt lat="44.56957741185579" lon="10.54983617956773"><ele>454.0</ele><time>2026-04-18T12:29:54Z</time></trkpt><trkpt lat="44.569559328098784" lon="10.549745502935885"><ele>454.0</ele><time>2026-04-18T12:29:55Z</time></trkpt><trkpt lat="44.569514675325905" lon="10.54965579393832"><ele>454.00000000000006</ele><time>2026-04-18T12:29:56Z</time></trkpt><trkpt lat="44.5693857793071" lon="10.549613324159374"><ele>454.0</ele><time>2026-04-18T12:29:57Z</time></trkpt><trkpt lat="44.56929146403505" lon="10.549538936282422"><ele>454.0</ele><time>2026-04-18T12:29:58Z</time></trkpt><trkpt lat="44.56917776712032" lon="10.549444335858572"><ele>454.0</ele><time>2026-04-18T12:29:59Z</time></trkpt><trkpt lat="44.56905354155249" lon="10.549340034995268"><ele>454.0</ele><time>2026-04-18T12:30:00Z</time></trkpt><trkpt lat="44.56892269861874" lon="10.54922450522946"><ele>454.0</ele><time>2026-04-18T12:30:01Z</time></trkpt><trkpt lat="44.568785605975215" lon="10.54910131583843"><ele>451.75</ele><time>2026-04-18T12:30:02Z</time></trkpt><trkpt lat="44.56865204574815" lon="10.548989268426295"><ele>449.5</ele><time>2026-04-18T12:30:03Z</time></trkpt><trkpt lat="44.568534975753366" lon="10.548904224071004"><ele>447.25</ele><time>2026-04-18T12:30:04Z</time></trkpt><trkpt lat="44.56841170141982" lon="10.548841209379905"><ele>445.0</ele><time>2026-04-18T12:30:05Z</time></trkpt><trkpt lat="44.56827051186425" lon="10.54883453969014"><ele>445.0</ele><time>2026-04-18T12:30:06Z</time></trkpt><trkpt lat="44.56813520178274" lon="10.548776301940967"><ele>445.0</ele><time>2026-04-18T12:30:07Z</time></trkpt><trkpt lat="44.568014976431726" lon="10.548736451365953"><ele>445.0</ele><time>2026-04-18T12:30:08Z</time></trkpt><trkpt lat="44.5679012774263" lon="10.548701930334337"><ele>445.0</ele><time>2026-04-18T12:30:09Z</time></trkpt><trkpt lat="44.56779497079484" lon="10.548671636626645"><ele>446.0</ele><time>2026-04-18T12:30:10Z</time></trkpt><trkpt lat="44.56769021908695" lon="10.548642979627617"><ele>447.0</ele><time>2026-04-18T12:30:11Z</time></trkpt><trkpt lat="44.56759467187447" lon="10.548616840683435"><ele>448.0</ele><time>2026-04-18T12:30:12Z</time></trkpt><trkpt lat="44.56749661244801" lon="10.54858416436746"><ele>449.0</ele><time>2026-04-18T12:30:13Z</time></trkpt><trkpt lat="44.567401640293625" lon="10.548553106185945"><ele>450.0</ele><time>2026-04-18T12:30:14Z</time></trkpt><trkpt lat="44.567315164462755" lon="10.54854568862272"><ele>450.0</ele><time>2026-04-18T12:30:15Z</time></trkpt><trkpt lat="44.567235647466184" lon="10.548570010806783"><ele>450.0</ele><time>2026-04-18T12:30:16Z</time></trkpt><trkpt lat="44.56715582358958" lon="10.548607481682946"><ele>450.0</ele><time>2026-04-18T12:30:17Z</time></trkpt><trkpt lat="44.56708783441189" lon="10.548690973802591"><ele>450.0</ele><time>2026-04-18T12:30:18Z</time></trkpt><trkpt lat="44.56704344432134" lon="10.548822126694349"><ele>450.0</ele><time>2026-04-18T12:30:19Z</time></trkpt><trkpt lat="44.56700485727433" lon="10.548978857351615"><ele>441.0</ele><time>2026-04-18T12:30:20Z</time></trkpt><trkpt lat="44.56697258611929" lon="10.54915339148632"><ele>432.0</ele><time>2026-04-18T12:30:21Z</time></trkpt><trkpt lat="44.56693960680857" lon="10.549323001566659"><ele>423.0</ele><time>2026-04-18T12:30:22Z</time></trkpt><trkpt lat="44.56689995437576" lon="10.549504608487204"><ele>414.0</ele><time>2026-04-18T12:30:23Z</time></trkpt><trkpt lat="44.56685501323108" lon="10.549678848239372"><ele>412.25</ele><time>2026-04-18T12:30:24Z</time></trkpt><trkpt lat="44.566810559802406" lon="10.5498564609627"><ele>410.5</ele><time>2026-04-18T12:30:25Z</time></trkpt><trkpt lat="44.56676590195879" lon="10.55002674116548"><ele>408.75</ele><time>2026-04-18T12:30:26Z</time></trkpt><trkpt lat="44.56672649258834" lon="10.550195380012056"><ele>407.0</ele><time>2026-04-18T12:30:27Z</time></trkpt><trkpt lat="44.56668636762682" lon="10.550370957519347"><ele>405.75</ele><time>2026-04-18T12:30:28Z</time></trkpt><trkpt lat="44.566654209860495" lon="10.550546085606983"><ele>404.5</ele><time>2026-04-18T12:30:29Z</time></trkpt><trkpt lat="44.566604655401406" lon="10.550707498222396"><ele>403.25</ele><time>2026-04-18T12:30:30Z</time></trkpt><trkpt lat="44.56655398229197" lon="10.55085740773475"><ele>402.0</ele><time>2026-04-18T12:30:31Z</time></trkpt><trkpt lat="44.566496364182065" lon="10.551022842006214"><ele>402.0</ele><time>2026-04-18T12:30:32Z</time></trkpt><trkpt lat="44.56643779420719" lon="10.551191097309195"><ele>402.0</ele><time>2026-04-18T12:30:33Z</time></trkpt><trkpt lat="44.5663993649011" lon="10.551371707010354"><ele>402.0</ele><time>2026-04-18T12:30:34Z</time></trkpt><trkpt lat="44.56636237960304" lon="10.55156434521014"><ele>402.0</ele><time>2026-04-18T12:30:35Z</time></trkpt><trkpt lat="44.566330188313636" lon="10.551733087898006"><ele>400.5</ele><time>2026-04-18T12:30:36Z</time></trkpt><trkpt lat="44.566304699329045" lon="10.551880206042565"><ele>399.0</ele><time>2026-04-18T12:30:37Z</time></trkpt><trkpt lat="44.56627800377146" lon="10.551998077991366"><ele>397.5</ele><time>2026-04-18T12:30:38Z</time></trkpt><trkpt lat="44.56624260201994" lon="10.552080799536038"><ele>396.0</ele><time>2026-04-18T12:30:39Z</time></trkpt><trkpt lat="44.56618301216583" lon="10.552144866342282"><ele>394.5</ele><time>2026-04-18T12:30:40Z</time></trkpt><trkpt lat="44.566092424479656" lon="10.552172541450272"><ele>393.0</ele><time>2026-04-18T12:30:41Z</time></trkpt><trkpt lat="44.56601472739857" lon="10.552196909759893"><ele>389.0</ele><time>2026-04-18T12:30:42Z</time></trkpt><trkpt lat="44.56592262885288" lon="10.552214263550963"><ele>385.0</ele><time>2026-04-18T12:30:43Z</time></trkpt><trkpt lat="44.56580803737088" lon="10.552226779626432"><ele>381.0</ele><time>2026-04-18T12:30:44Z</time></trkpt><trkpt lat="44.565699043680105" lon="10.552232305754881"><ele>377.0</ele><time>2026-04-18T12:30:45Z</time></trkpt><trkpt lat="44.565598593944785" lon="10.552227026833146"><ele>373.0</ele><time>2026-04-18T12:30:46Z</time></trkpt><trkpt lat="44.565505876263764" lon="10.55220100766123"><ele>373.0</ele><time>2026-04-18T12:30:47Z</time></trkpt><trkpt lat="44.56541654393619" lon="10.552162340831456"><ele>373.0</ele><time>2026-04-18T12:30:48Z</time></trkpt><trkpt lat="44.565353407393346" lon="10.552102417323171"><ele>373.0</ele><time>2026-04-18T12:30:49Z</time></trkpt><trkpt lat="44.56531657622117" lon="10.552021624659607"><ele>373.0</ele><time>2026-04-18T12:30:50Z</time></trkpt><trkpt lat="44.565308203479326" lon="10.551824983956386"><ele>373.0</ele><time>2026-04-18T12:30:52Z</time></trkpt><trkpt lat="44.56525922868673" lon="10.551707723193694"><ele>368.5</ele><time>2026-04-18T12:30:53Z</time></trkpt><trkpt lat="44.56516191064615" lon="10.55163699837577"><ele>364.0</ele><time>2026-04-18T12:30:54Z</time></trkpt><trkpt lat="44.56504904789065" lon="10.551593624955027"><ele>359.5</ele><time>2026-04-18T12:30:55Z</time></trkpt><trkpt lat="44.564929371928386" lon="10.55151820437878"><ele>355.0</ele><time>2026-04-18T12:30:56Z</time></trkpt><trkpt lat="44.564810603741165" lon="10.551447829236698"><ele>355.0</ele><time>2026-04-18T12:30:57Z</time></trkpt><trkpt lat="44.56468984006963" lon="10.551392514508148"><ele>355.0</ele><time>2026-04-18T12:30:58Z</time></trkpt><trkpt lat="44.56457538013756" lon="10.551367250851712"><ele>355.0</ele><time>2026-04-18T12:30:59Z</time></trkpt><trkpt lat="44.56447043339065" lon="10.55134500435646"><ele>355.0</ele><time>2026-04-18T12:31:00Z</time></trkpt><trkpt lat="44.56438067306238" lon="10.55130542009827"><ele>355.0</ele><time>2026-04-18T12:31:01Z</time></trkpt><trkpt lat="44.564296974835905" lon="10.551296197145346"><ele>353.16666666666663</ele><time>2026-04-18T12:31:02Z</time></trkpt><trkpt lat="44.564229515448616" lon="10.551278358169457"><ele>351.3333333333333</ele><time>2026-04-18T12:31:03Z</time></trkpt><trkpt lat="44.564204938158646" lon="10.551189025220992"><ele>349.5</ele><time>2026-04-18T12:31:05Z</time></trkpt><trkpt lat="44.56429533605685" lon="10.551161075671443"><ele>347.6666666666667</ele><time>2026-04-18T12:31:06Z</time></trkpt><trkpt lat="44.56435740800818" lon="10.55109138180139"><ele>345.83333333333337</ele><time>2026-04-18T12:31:07Z</time></trkpt><trkpt lat="44.56440836758022" lon="10.55100544534852"><ele>344.0</ele><time>2026-04-18T12:31:08Z</time></trkpt><trkpt lat="44.56441386552442" lon="10.5508274015788"><ele>343.75</ele><time>2026-04-18T12:31:10Z</time></trkpt><trkpt lat="44.56424956596535" lon="10.550825679693725"><ele>343.5</ele><time>2026-04-18T12:31:12Z</time></trkpt><trkpt lat="44.56415151446349" lon="10.550846251888954"><ele>343.25</ele><time>2026-04-18T12:31:13Z</time></trkpt><trkpt lat="44.564032514007586" lon="10.55086875975882"><ele>343.0</ele><time>2026-04-18T12:31:14Z</time></trkpt><trkpt lat="44.56391087515913" lon="10.550884968020984"><ele>343.0</ele><time>2026-04-18T12:31:15Z</time></trkpt><trkpt lat="44.56378706671526" lon="10.55089646255926"><ele>343.0</ele><time>2026-04-18T12:31:16Z</time></trkpt><trkpt lat="44.5636627771467" lon="10.5508652006411"><ele>343.0</ele><time>2026-04-18T12:31:17Z</time></trkpt><trkpt lat="44.56353353112748" lon="10.550878589379943"><ele>343.0</ele><time>2026-04-18T12:31:18Z</time></trkpt><trkpt lat="44.56340173282585" lon="10.550871714816235"><ele>339.25</ele><time>2026-04-18T12:31:19Z</time></trkpt><trkpt lat="44.56326236511935" lon="10.550875047888272"><ele>335.5</ele><time>2026-04-18T12:31:20Z</time></trkpt><trkpt lat="44.56312645660774" lon="10.5508867679113"><ele>331.75</ele><time>2026-04-18T12:31:21Z</time></trkpt><trkpt lat="44.56299935632424" lon="10.550897696374244"><ele>328.0</ele><time>2026-04-18T12:31:22Z</time></trkpt><trkpt lat="44.56287791534368" lon="10.550901385978955"><ele>324.59999999999997</ele><time>2026-04-18T12:31:23Z</time></trkpt><trkpt lat="44.56277068874195" lon="10.550858567069204"><ele>321.2</ele><time>2026-04-18T12:31:24Z</time></trkpt><trkpt lat="44.56266311202442" lon="10.550832589711167"><ele>317.8</ele><time>2026-04-18T12:31:25Z</time></trkpt><trkpt lat="44.562544018345854" lon="10.550839777131914"><ele>314.4</ele><time>2026-04-18T12:31:26Z</time></trkpt><trkpt lat="44.56243672354605" lon="10.550820917294386"><ele>311.0</ele><time>2026-04-18T12:31:27Z</time></trkpt><trkpt lat="44.56233954999947" lon="10.550815001282674"><ele>311.0</ele><time>2026-04-18T12:31:28Z</time></trkpt><trkpt lat="44.56225103324112" lon="10.550815067953552"><ele>311.0</ele><time>2026-04-18T12:31:29Z</time></trkpt><trkpt lat="44.5621677508048" lon="10.550812902472519"><ele>311.0</ele><time>2026-04-18T12:31:30Z</time></trkpt><trkpt lat="44.56210041739923" lon="10.550805736103321"><ele>311.0</ele><time>2026-04-18T12:31:31Z</time></trkpt><trkpt lat="44.56202154984944" lon="10.550749175709203"><ele>311.0</ele><time>2026-04-18T12:31:33Z</time></trkpt><trkpt lat="44.56208314200354" lon="10.550553838701942"><ele>311.0</ele><time>2026-04-18T12:31:35Z</time></trkpt><trkpt lat="44.56209577921424" lon="10.550406603502866"><ele>311.0</ele><time>2026-04-18T12:31:36Z</time></trkpt><trkpt lat="44.56210856982297" lon="10.550257581370106"><ele>311.0</ele><time>2026-04-18T12:31:37Z</time></trkpt><trkpt lat="44.56212238550797" lon="10.550096615634137"><ele>311.0</ele><time>2026-04-18T12:31:38Z</time></trkpt><trkpt lat="44.56213558150747" lon="10.549911429989614"><ele>310.6666666666667</ele><time>2026-04-18T12:31:39Z</time></trkpt><trkpt lat="44.56215110527952" lon="10.549686159793596"><ele>310.3333333333333</ele><time>2026-04-18T12:31:40Z</time></trkpt><trkpt lat="44.56217274587633" lon="10.549418708158875"><ele>310.0</ele><time>2026-04-18T12:31:41Z</time></trkpt><trkpt lat="44.56219478015652" lon="10.549179037733218"><ele>311.0</ele><time>2026-04-18T12:31:42Z</time></trkpt><trkpt lat="44.56221408315431" lon="10.54897562349151"><ele>312.0</ele><time>2026-04-18T12:31:43Z</time></trkpt><trkpt lat="44.562226898169136" lon="10.548780849466398"><ele>313.0</ele><time>2026-04-18T12:31:44Z</time></trkpt><trkpt lat="44.562227647379345" lon="10.548617104623998"><ele>314.0</ele><time>2026-04-18T12:31:45Z</time></trkpt><trkpt lat="44.56220211217834" lon="10.548443955790006"><ele>314.0</ele><time>2026-04-18T12:31:46Z</time></trkpt><trkpt lat="44.562192602675275" lon="10.548269197474424"><ele>314.0</ele><time>2026-04-18T12:31:47Z</time></trkpt><trkpt lat="44.56221720202723" lon="10.54805654718711"><ele>314.0</ele><time>2026-04-18T12:31:48Z</time></trkpt><trkpt lat="44.562248962649655" lon="10.547848096514779"><ele>314.0</ele><time>2026-04-18T12:31:49Z</time></trkpt><trkpt lat="44.56226788785311" lon="10.547668327965097"><ele>314.0</ele><time>2026-04-18T12:31:50Z</time></trkpt><trkpt lat="44.56228415038313" lon="10.547489762589485"><ele>314.0</ele><time>2026-04-18T12:31:51Z</time></trkpt><trkpt lat="44.56229927616935" lon="10.547323678578918"><ele>314.0</ele><time>2026-04-18T12:31:52Z</time></trkpt><trkpt lat="44.56232490655096" lon="10.547173791653757"><ele>314.0</ele><time>2026-04-18T12:31:53Z</time></trkpt><trkpt lat="44.56236409771895" lon="10.547027407652646"><ele>311.33333333333337</ele><time>2026-04-18T12:31:54Z</time></trkpt><trkpt lat="44.56243159160899" lon="10.546851304356077"><ele>308.6666666666667</ele><time>2026-04-18T12:31:55Z</time></trkpt><trkpt lat="44.56251869401298" lon="10.546646069325817"><ele>306.0</ele><time>2026-04-18T12:31:56Z</time></trkpt><trkpt lat="44.56258518295497" lon="10.54639972934241"><ele>304.0</ele><time>2026-04-18T12:31:57Z</time></trkpt><trkpt lat="44.562617870254506" lon="10.54615750512648"><ele>302.0</ele><time>2026-04-18T12:31:58Z</time></trkpt><trkpt lat="44.56266771744453" lon="10.545889309714502"><ele>300.0</ele><time>2026-04-18T12:31:59Z</time></trkpt><trkpt lat="44.562748517450814" lon="10.545626108834886"><ele>302.0</ele><time>2026-04-18T12:32:00Z</time></trkpt><trkpt lat="44.56281003355624" lon="10.545377105832566"><ele>304.0</ele><time>2026-04-18T12:32:01Z</time></trkpt><trkpt lat="44.562855707918686" lon="10.545129640439235"><ele>306.0</ele><time>2026-04-18T12:32:02Z</time></trkpt><trkpt lat="44.56289548990963" lon="10.544899412633645"><ele>306.0</ele><time>2026-04-18T12:32:03Z</time></trkpt><trkpt lat="44.5629469465665" lon="10.544662374518598"><ele>306.0</ele><time>2026-04-18T12:32:04Z</time></trkpt><trkpt lat="44.56299151593905" lon="10.544446026602712"><ele>306.0</ele><time>2026-04-18T12:32:05Z</time></trkpt><trkpt lat="44.56301602258731" lon="10.544236208453508"><ele>305.0</ele><time>2026-04-18T12:32:06Z</time></trkpt><trkpt lat="44.563031055743295" lon="10.544076679674596"><ele>304.0</ele><time>2026-04-18T12:32:07Z</time></trkpt><trkpt lat="44.56305898577787" lon="10.543938442225219"><ele>303.0</ele><time>2026-04-18T12:32:08Z</time></trkpt><trkpt lat="44.563085442369136" lon="10.543839804987376"><ele>302.0</ele><time>2026-04-18T12:32:09Z</time></trkpt><trkpt lat="44.56310852544012" lon="10.543752830655693"><ele>301.0</ele><time>2026-04-18T12:32:10Z</time></trkpt><trkpt lat="44.56313324167242" lon="10.543659659881763"><ele>300.0</ele><time>2026-04-18T12:32:11Z</time></trkpt><trkpt lat="44.563157230885814" lon="10.543574116307125"><ele>299.0</ele><time>2026-04-18T12:32:12Z</time></trkpt><trkpt lat="44.56318980231849" lon="10.543455681994729"><ele>298.0</ele><time>2026-04-18T12:32:13Z</time></trkpt><trkpt lat="44.56321506271029" lon="10.543349127298965"><ele>297.0</ele><time>2026-04-18T12:32:14Z</time></trkpt><trkpt lat="44.563242470678645" lon="10.543212609713683"><ele>296.0</ele><time>2026-04-18T12:32:15Z</time></trkpt><trkpt lat="44.5632668512623" lon="10.54304454686769"><ele>295.0</ele><time>2026-04-18T12:32:16Z</time></trkpt><trkpt lat="44.56326490754219" lon="10.542843050693588"><ele>293.0</ele><time>2026-04-18T12:32:17Z</time></trkpt><trkpt lat="44.56329080411809" lon="10.542651591527546"><ele>291.0</ele><time>2026-04-18T12:32:18Z</time></trkpt><trkpt lat="44.56330752108747" lon="10.542464124280043"><ele>289.0</ele><time>2026-04-18T12:32:19Z</time></trkpt><trkpt lat="44.563363056169564" lon="10.542310600242809"><ele>287.0</ele><time>2026-04-18T12:32:20Z</time></trkpt><trkpt lat="44.563421274949576" lon="10.542154789555829"><ele>285.5</ele><time>2026-04-18T12:32:21Z</time></trkpt><trkpt lat="44.56349293956424" lon="10.541999572939812"><ele>284.0</ele><time>2026-04-18T12:32:22Z</time></trkpt><trkpt lat="44.56355113627359" lon="10.541818648361811"><ele>282.5</ele><time>2026-04-18T12:32:23Z</time></trkpt><trkpt lat="44.56361152791773" lon="10.541661322098753"><ele>281.0</ele><time>2026-04-18T12:32:24Z</time></trkpt><trkpt lat="44.56366778897482" lon="10.541514646156163"><ele>282.0</ele><time>2026-04-18T12:32:25Z</time></trkpt><trkpt lat="44.563736301309326" lon="10.541380561817608"><ele>283.0</ele><time>2026-04-18T12:32:26Z</time></trkpt><trkpt lat="44.56381158846922" lon="10.541235602472607"><ele>284.0</ele><time>2026-04-18T12:32:27Z</time></trkpt><trkpt lat="44.563905471023546" lon="10.541088755637768"><ele>285.0</ele><time>2026-04-18T12:32:28Z</time></trkpt><trkpt lat="44.56398970001998" lon="10.540933655755524"><ele>285.0</ele><time>2026-04-18T12:32:29Z</time></trkpt><trkpt lat="44.56406471395199" lon="10.540783860688615"><ele>285.0</ele><time>2026-04-18T12:32:30Z</time></trkpt><trkpt lat="44.56411877140986" lon="10.540617319709387"><ele>285.0</ele><time>2026-04-18T12:32:31Z</time></trkpt><trkpt lat="44.56417738242877" lon="10.540471922029571"><ele>285.0</ele><time>2026-04-18T12:32:32Z</time></trkpt><trkpt lat="44.564249875532994" lon="10.540347117714484"><ele>284.0</ele><time>2026-04-18T12:32:33Z</time></trkpt><trkpt lat="44.5643208477963" lon="10.540221423921336"><ele>283.0</ele><time>2026-04-18T12:32:34Z</time></trkpt><trkpt lat="44.564386092971176" lon="10.540080040620829"><ele>282.0</ele><time>2026-04-18T12:32:35Z</time></trkpt><trkpt lat="44.564478550887486" lon="10.53996364938635"><ele>281.0</ele><time>2026-04-18T12:32:36Z</time></trkpt><trkpt lat="44.564603945934934" lon="10.539868413604555"><ele>281.0</ele><time>2026-04-18T12:32:37Z</time></trkpt><trkpt lat="44.56473188763918" lon="10.539776171851145"><ele>281.0</ele><time>2026-04-18T12:32:38Z</time></trkpt><trkpt lat="44.56484529377612" lon="10.539657909802091"><ele>281.0</ele><time>2026-04-18T12:32:39Z</time></trkpt><trkpt lat="44.56495851240776" lon="10.53956798223451"><ele>281.0</ele><time>2026-04-18T12:32:40Z</time></trkpt><trkpt lat="44.5650494816721" lon="10.539462970286865"><ele>278.8</ele><time>2026-04-18T12:32:41Z</time></trkpt><trkpt lat="44.565124448446035" lon="10.53936946514274"><ele>276.6</ele><time>2026-04-18T12:32:42Z</time></trkpt><trkpt lat="44.56519731544489" lon="10.539261132325652"><ele>274.4</ele><time>2026-04-18T12:32:43Z</time></trkpt><trkpt lat="44.56526092832986" lon="10.539129949897005"><ele>272.2</ele><time>2026-04-18T12:32:44Z</time></trkpt><trkpt lat="44.565314948702444" lon="10.538973641995932"><ele>270.0</ele><time>2026-04-18T12:32:45Z</time></trkpt><trkpt lat="44.56533137643129" lon="10.53878230407524"><ele>269.6</ele><time>2026-04-18T12:32:46Z</time></trkpt><trkpt lat="44.56533896501942" lon="10.53859905711225"><ele>269.2</ele><time>2026-04-18T12:32:47Z</time></trkpt><trkpt lat="44.56534033610212" lon="10.538448071266867"><ele>268.8</ele><time>2026-04-18T12:32:48Z</time></trkpt><trkpt lat="44.56533293069674" lon="10.538320809261961"><ele>268.4</ele><time>2026-04-18T12:32:49Z</time></trkpt><trkpt lat="44.56530520151302" lon="10.538167791060104"><ele>268.0</ele><time>2026-04-18T12:32:50Z</time></trkpt><trkpt lat="44.56526401900603" lon="10.538017536135342"><ele>268.3333333333333</ele><time>2026-04-18T12:32:51Z</time></trkpt><trkpt lat="44.56522890371223" lon="10.537884788960595"><ele>268.66666666666663</ele><time>2026-04-18T12:32:52Z</time></trkpt><trkpt lat="44.56519876859953" lon="10.537767032582325"><ele>269.0</ele><time>2026-04-18T12:32:53Z</time></trkpt><trkpt lat="44.565178413627095" lon="10.537648879748497"><ele>269.3333333333333</ele><time>2026-04-18T12:32:54Z</time></trkpt><trkpt lat="44.565169920205044" lon="10.537555065331443"><ele>269.6666666666667</ele><time>2026-04-18T12:32:55Z</time></trkpt><trkpt lat="44.56517094747617" lon="10.537462073750856"><ele>270.0</ele><time>2026-04-18T12:32:56Z</time></trkpt><trkpt lat="44.56519083643244" lon="10.537373575302865"><ele>270.0</ele><time>2026-04-18T12:32:57Z</time></trkpt><trkpt lat="44.5652144588482" lon="10.537281261403487"><ele>270.0</ele><time>2026-04-18T12:32:58Z</time></trkpt><trkpt lat="44.565234557886534" lon="10.537177572352691"><ele>270.0</ele><time>2026-04-18T12:32:59Z</time></trkpt><trkpt lat="44.56524554926041" lon="10.53706895603406"><ele>270.0</ele><time>2026-04-18T12:33:00Z</time></trkpt><trkpt lat="44.56525779616505" lon="10.536955449690733"><ele>270.0</ele><time>2026-04-18T12:33:01Z</time></trkpt><trkpt lat="44.56527262215905" lon="10.53681660714539"><ele>270.0</ele><time>2026-04-18T12:33:02Z</time></trkpt><trkpt lat="44.56529739175282" lon="10.536626757239146"><ele>269.25</ele><time>2026-04-18T12:33:03Z</time></trkpt><trkpt lat="44.56532587472515" lon="10.53644422065394"><ele>268.5</ele><time>2026-04-18T12:33:04Z</time></trkpt><trkpt lat="44.56533768227968" lon="10.536241990197626"><ele>267.75</ele><time>2026-04-18T12:33:05Z</time></trkpt><trkpt lat="44.565311076081855" lon="10.5360531067504"><ele>267.0</ele><time>2026-04-18T12:33:06Z</time></trkpt><trkpt lat="44.56528817417415" lon="10.535869835990473"><ele>265.75</ele><time>2026-04-18T12:33:07Z</time></trkpt><trkpt lat="44.565289423828034" lon="10.53569537663132"><ele>264.5</ele><time>2026-04-18T12:33:08Z</time></trkpt><trkpt lat="44.56533095617832" lon="10.53553344650365"><ele>263.25</ele><time>2026-04-18T12:33:09Z</time></trkpt><trkpt lat="44.565375902450434" lon="10.535347605000736"><ele>262.0</ele><time>2026-04-18T12:33:10Z</time></trkpt><trkpt lat="44.56542447953056" lon="10.535157884576844"><ele>261.75</ele><time>2026-04-18T12:33:11Z</time></trkpt><trkpt lat="44.56546729001999" lon="10.534991874029147"><ele>261.5</ele><time>2026-04-18T12:33:12Z</time></trkpt><trkpt lat="44.565510596623376" lon="10.534838846822865"><ele>261.25</ele><time>2026-04-18T12:33:13Z</time></trkpt><trkpt lat="44.565562023396666" lon="10.534695959324152"><ele>261.0</ele><time>2026-04-18T12:33:14Z</time></trkpt><trkpt lat="44.565622300513496" lon="10.53455000718541"><ele>259.25</ele><time>2026-04-18T12:33:15Z</time></trkpt><trkpt lat="44.56569098704835" lon="10.534392340824171"><ele>257.5</ele><time>2026-04-18T12:33:16Z</time></trkpt><trkpt lat="44.565772102922104" lon="10.534207963070545"><ele>255.75</ele><time>2026-04-18T12:33:17Z</time></trkpt><trkpt lat="44.56585543492744" lon="10.534043385380883"><ele>254.0</ele><time>2026-04-18T12:33:18Z</time></trkpt><trkpt lat="44.565935135437115" lon="10.533898968820171"><ele>254.0</ele><time>2026-04-18T12:33:19Z</time></trkpt><trkpt lat="44.566012448710985" lon="10.533772669867444"><ele>254.0</ele><time>2026-04-18T12:33:20Z</time></trkpt><trkpt lat="44.566100310340836" lon="10.53364724941959"><ele>254.0</ele><time>2026-04-18T12:33:21Z</time></trkpt><trkpt lat="44.56618112048909" lon="10.533515995679561"><ele>254.0</ele><time>2026-04-18T12:33:22Z</time></trkpt><trkpt lat="44.566247365108154" lon="10.533366940348902"><ele>254.5</ele><time>2026-04-18T12:33:23Z</time></trkpt><trkpt lat="44.56629752499454" lon="10.533205522791686"><ele>255.0</ele><time>2026-04-18T12:33:24Z</time></trkpt><trkpt lat="44.566335351209744" lon="10.533002517013205"><ele>255.5</ele><time>2026-04-18T12:33:25Z</time></trkpt><trkpt lat="44.56635028006375" lon="10.532817966594832"><ele>256.0</ele><time>2026-04-18T12:33:26Z</time></trkpt><trkpt lat="44.56635845132845" lon="10.532651442762221"><ele>253.0</ele><time>2026-04-18T12:33:27Z</time></trkpt><trkpt lat="44.56636431032004" lon="10.53249212252089"><ele>250.0</ele><time>2026-04-18T12:33:28Z</time></trkpt><trkpt lat="44.566368860724786" lon="10.532330435476476"><ele>247.0</ele><time>2026-04-18T12:33:29Z</time></trkpt><trkpt lat="44.5663708154832" lon="10.532165618030211"><ele>244.0</ele><time>2026-04-18T12:33:30Z</time></trkpt><trkpt lat="44.56636812350889" lon="10.53199351876221"><ele>242.5</ele><time>2026-04-18T12:33:31Z</time></trkpt><trkpt lat="44.56633663453274" lon="10.531816273312034"><ele>241.0</ele><time>2026-04-18T12:33:32Z</time></trkpt><trkpt lat="44.56627958979595" lon="10.531660498761326"><ele>239.5</ele><time>2026-04-18T12:33:33Z</time></trkpt><trkpt lat="44.566190804240925" lon="10.531527285234912"><ele>238.0</ele><time>2026-04-18T12:33:34Z</time></trkpt><trkpt lat="44.566125674002855" lon="10.531405238905666"><ele>238.0</ele><time>2026-04-18T12:33:35Z</time></trkpt><trkpt lat="44.566064635091735" lon="10.531286908257302"><ele>238.0</ele><time>2026-04-18T12:33:36Z</time></trkpt><trkpt lat="44.56601484625576" lon="10.531188959398717"><ele>238.0</ele><time>2026-04-18T12:33:37Z</time></trkpt><trkpt lat="44.565955642482805" lon="10.531072493291255"><ele>238.0</ele><time>2026-04-18T12:33:39Z</time></trkpt><trkpt lat="44.56602314598577" lon="10.531144693290909"><ele>238.0</ele><time>2026-04-18T12:33:42Z</time></trkpt><trkpt lat="44.566042091712006" lon="10.531294835276553"><ele>237.99999999999997</ele><time>2026-04-18T12:33:44Z</time></trkpt><trkpt lat="44.56608347638455" lon="10.531412046084306"><ele>238.0</ele><time>2026-04-18T12:33:45Z</time></trkpt><trkpt lat="44.56613690011022" lon="10.531523924809841"><ele>238.0</ele><time>2026-04-18T12:33:46Z</time></trkpt><trkpt lat="44.566196810658965" lon="10.531635032102704"><ele>238.0</ele><time>2026-04-18T12:33:47Z</time></trkpt><trkpt lat="44.566243470391626" lon="10.53172518691007"><ele>237.99999999999997</ele><time>2026-04-18T12:33:48Z</time></trkpt><trkpt lat="44.56629885962021" lon="10.531780638821107"><ele>238.0</ele><time>2026-04-18T12:33:49Z</time></trkpt><trkpt lat="44.56639751136744" lon="10.531730212799758"><ele>237.60000000000002</ele><time>2026-04-18T12:33:51Z</time></trkpt><trkpt lat="44.56643856448014" lon="10.531646389406761"><ele>237.20000000000002</ele><time>2026-04-18T12:33:52Z</time></trkpt><trkpt lat="44.56649617798646" lon="10.531535305569141"><ele>236.8</ele><time>2026-04-18T12:33:53Z</time></trkpt><trkpt lat="44.566556495720384" lon="10.531418236615867"><ele>236.4</ele><time>2026-04-18T12:33:54Z</time></trkpt><trkpt lat="44.56666011419237" lon="10.531270978938448"><ele>236.0</ele><time>2026-04-18T12:33:55Z</time></trkpt><trkpt lat="44.56675373823949" lon="10.531123644026408"><ele>235.5</ele><time>2026-04-18T12:33:56Z</time></trkpt><trkpt lat="44.56686792581077" lon="10.530998918520474"><ele>235.0</ele><time>2026-04-18T12:33:57Z</time></trkpt><trkpt lat="44.566988815101375" lon="10.530906255722186"><ele>234.5</ele><time>2026-04-18T12:33:58Z</time></trkpt><trkpt lat="44.5671243985259" lon="10.530823458604125"><ele>234.0</ele><time>2026-04-18T12:33:59Z</time></trkpt><trkpt lat="44.567256554170264" lon="10.53075407286537"><ele>233.25</ele><time>2026-04-18T12:34:00Z</time></trkpt><trkpt lat="44.567371735416536" lon="10.530699929568819"><ele>232.5</ele><time>2026-04-18T12:34:01Z</time></trkpt><trkpt lat="44.56747068505972" lon="10.530636149012361"><ele>231.75</ele><time>2026-04-18T12:34:02Z</time></trkpt><trkpt lat="44.56757193474991" lon="10.530564072029874"><ele>231.0</ele><time>2026-04-18T12:34:03Z</time></trkpt><trkpt lat="44.56767213325063" lon="10.530479478729582"><ele>231.0</ele><time>2026-04-18T12:34:04Z</time></trkpt><trkpt lat="44.56778978026121" lon="10.530399437450175"><ele>231.0</ele><time>2026-04-18T12:34:05Z</time></trkpt><trkpt lat="44.56792016513698" lon="10.530345621137771"><ele>231.0</ele><time>2026-04-18T12:34:06Z</time></trkpt><trkpt lat="44.568057974788594" lon="10.530291313705996"><ele>231.0</ele><time>2026-04-18T12:34:07Z</time></trkpt><trkpt lat="44.56819202824409" lon="10.530240734038879"><ele>230.75</ele><time>2026-04-18T12:34:08Z</time></trkpt><trkpt lat="44.568316735370146" lon="10.530206889621796"><ele>230.5</ele><time>2026-04-18T12:34:09Z</time></trkpt><trkpt lat="44.56843955809551" lon="10.530194297879705"><ele>230.25</ele><time>2026-04-18T12:34:10Z</time></trkpt><trkpt lat="44.56856259000817" lon="10.530182440840587"><ele>230.0</ele><time>2026-04-18T12:34:11Z</time></trkpt><trkpt lat="44.568674492414644" lon="10.530182782529252"><ele>229.4</ele><time>2026-04-18T12:34:12Z</time></trkpt><trkpt lat="44.56876806597263" lon="10.53020184752803"><ele>228.8</ele><time>2026-04-18T12:34:13Z</time></trkpt><trkpt lat="44.568858683965715" lon="10.530207596345369"><ele>228.2</ele><time>2026-04-18T12:34:14Z</time></trkpt><trkpt lat="44.56895457994932" lon="10.530225977632972"><ele>227.6</ele><time>2026-04-18T12:34:14.999Z</time></trkpt><trkpt lat="44.56905312926045" lon="10.530189345212545"><ele>227.0</ele><time>2026-04-18T12:34:15.999Z</time></trkpt><trkpt lat="44.56916007017075" lon="10.530104064446915"><ele>227.0</ele><time>2026-04-18T12:34:16.999Z</time></trkpt><trkpt lat="44.56924872040731" lon="10.530038548327692"><ele>227.0</ele><time>2026-04-18T12:34:17.999Z</time></trkpt><trkpt lat="44.56934124583933" lon="10.529955982829494"><ele>227.0</ele><time>2026-04-18T12:34:18.999Z</time></trkpt><trkpt lat="44.56943027570573" lon="10.529851781744199"><ele>227.0</ele><time>2026-04-18T12:34:19.999Z</time></trkpt><trkpt lat="44.56953074151825" lon="10.529712513921965"><ele>227.25</ele><time>2026-04-18T12:34:20.999Z</time></trkpt><trkpt lat="44.56961686142054" lon="10.529580641028923"><ele>227.5</ele><time>2026-04-18T12:34:21.999Z</time></trkpt><trkpt lat="44.56969095263048" lon="10.529440622904335"><ele>227.75</ele><time>2026-04-18T12:34:22.999Z</time></trkpt><trkpt lat="44.569762199526274" lon="10.529275561162553"><ele>228.0</ele><time>2026-04-18T12:34:23.999Z</time></trkpt><trkpt lat="44.569816325576404" lon="10.529091709371581"><ele>227.25</ele><time>2026-04-18T12:34:24.999Z</time></trkpt><trkpt lat="44.56987244033123" lon="10.528914372310672"><ele>226.5</ele><time>2026-04-18T12:34:26Z</time></trkpt><trkpt lat="44.56993395493318" lon="10.528748645126244"><ele>225.75</ele><time>2026-04-18T12:34:27Z</time></trkpt><trkpt lat="44.569992158373786" lon="10.528606879607194"><ele>225.0</ele><time>2026-04-18T12:34:28Z</time></trkpt><trkpt lat="44.57005729239255" lon="10.52846066194107"><ele>224.5</ele><time>2026-04-18T12:34:29Z</time></trkpt><trkpt lat="44.57012215878474" lon="10.528338373575831"><ele>224.0</ele><time>2026-04-18T12:34:30Z</time></trkpt><trkpt lat="44.57020178533275" lon="10.528204938920428"><ele>223.5</ele><time>2026-04-18T12:34:31Z</time></trkpt><trkpt lat="44.57028903860511" lon="10.528093347271911"><ele>223.0</ele><time>2026-04-18T12:34:32Z</time></trkpt><trkpt lat="44.57038153841493" lon="10.528008487873555"><ele>222.8</ele><time>2026-04-18T12:34:33Z</time></trkpt><trkpt lat="44.57047618935203" lon="10.527950012151551"><ele>222.60000000000002</ele><time>2026-04-18T12:34:34Z</time></trkpt><trkpt lat="44.57057803902443" lon="10.527900015398318"><ele>222.39999999999998</ele><time>2026-04-18T12:34:35Z</time></trkpt><trkpt lat="44.57066479090494" lon="10.52787173048526"><ele>222.2</ele><time>2026-04-18T12:34:36Z</time></trkpt><trkpt lat="44.5707503104837" lon="10.527844321640679"><ele>222.0</ele><time>2026-04-18T12:34:37Z</time></trkpt><trkpt lat="44.570839434787864" lon="10.527873486697317"><ele>222.0</ele><time>2026-04-18T12:34:38Z</time></trkpt><trkpt lat="44.57091954992917" lon="10.527916625789588"><ele>222.0</ele><time>2026-04-18T12:34:39Z</time></trkpt><trkpt lat="44.57101681417415" lon="10.527976393497243"><ele>222.0</ele><time>2026-04-18T12:34:41Z</time></trkpt><trkpt lat="44.571121373518274" lon="10.528031574138382"><ele>222.0</ele><time>2026-04-18T12:34:43Z</time></trkpt><trkpt lat="44.57122522159258" lon="10.528101347631623"><ele>222.0</ele><time>2026-04-18T12:34:45Z</time></trkpt><trkpt lat="44.57128840418354" lon="10.528138564624813"><ele>221.8</ele><time>2026-04-18T12:34:46Z</time></trkpt><trkpt lat="44.57135812371037" lon="10.528175227620494"><ele>221.6</ele><time>2026-04-18T12:34:47Z</time></trkpt><trkpt lat="44.57143709151101" lon="10.528211836779525"><ele>221.40000000000003</ele><time>2026-04-18T12:34:48Z</time></trkpt><trkpt lat="44.57152233815045" lon="10.528242343919226"><ele>221.20000000000002</ele><time>2026-04-18T12:34:49Z</time></trkpt><trkpt lat="44.5716161789017" lon="10.528279910323748"><ele>221.0</ele><time>2026-04-18T12:34:50Z</time></trkpt><trkpt lat="44.571723479905785" lon="10.528311292189228"><ele>221.0</ele><time>2026-04-18T12:34:51Z</time></trkpt><trkpt lat="44.571840200054716" lon="10.528340384963695"><ele>221.0</ele><time>2026-04-18T12:34:52Z</time></trkpt><trkpt lat="44.571963770437904" lon="10.528398257099639"><ele>221.0</ele><time>2026-04-18T12:34:53Z</time></trkpt><trkpt lat="44.572102416204" lon="10.528422578135814"><ele>221.0</ele><time>2026-04-18T12:34:54Z</time></trkpt><trkpt lat="44.57224392366791" lon="10.528469412684347"><ele>220.75</ele><time>2026-04-18T12:34:55Z</time></trkpt><trkpt lat="44.57237058435804" lon="10.528533265447486"><ele>220.5</ele><time>2026-04-18T12:34:56Z</time></trkpt><trkpt lat="44.57248515478655" lon="10.528550011837485"><ele>220.25</ele><time>2026-04-18T12:34:57Z</time></trkpt><trkpt lat="44.57259106853423" lon="10.528586394966911"><ele>220.0</ele><time>2026-04-18T12:34:58Z</time></trkpt><trkpt lat="44.57268313136943" lon="10.52862680385074"><ele>219.99999999999997</ele><time>2026-04-18T12:34:59Z</time></trkpt><trkpt lat="44.57276606316716" lon="10.528665456515279"><ele>220.0</ele><time>2026-04-18T12:35:00Z</time></trkpt><trkpt lat="44.57283946742712" lon="10.52871102432466"><ele>220.0</ele><time>2026-04-18T12:35:01Z</time></trkpt><trkpt lat="44.57289907594354" lon="10.528750734254583"><ele>220.0</ele><time>2026-04-18T12:35:02Z</time></trkpt><trkpt lat="44.57299349232568" lon="10.528840744414742"><ele>219.99999999999997</ele><time>2026-04-18T12:35:04Z</time></trkpt><trkpt lat="44.57308326236253" lon="10.528864907066156"><ele>220.0</ele><time>2026-04-18T12:35:06Z</time></trkpt><trkpt lat="44.57303926917159" lon="10.528607931787066"><ele>220.0</ele><time>2026-04-18T12:35:08Z</time></trkpt><trkpt lat="44.572981086550314" lon="10.528530857448546"><ele>220.0</ele><time>2026-04-18T12:35:09Z</time></trkpt><trkpt lat="44.572946775555735" lon="10.528422193596496"><ele>220.0</ele><time>2026-04-18T12:35:10Z</time></trkpt><trkpt lat="44.57289432772116" lon="10.528316568619397"><ele>220.0</ele><time>2026-04-18T12:35:11Z</time></trkpt><trkpt lat="44.57282595230281" lon="10.52822161766667"><ele>220.0</ele><time>2026-04-18T12:35:12Z</time></trkpt><trkpt lat="44.57275628661942" lon="10.528105697047405"><ele>220.0</ele><time>2026-04-18T12:35:13Z</time></trkpt><trkpt lat="44.572677114708746" lon="10.527992603301676"><ele>220.0</ele><time>2026-04-18T12:35:14Z</time></trkpt><trkpt lat="44.57261211376808" lon="10.527915446220145"><ele>220.0</ele><time>2026-04-18T12:35:15Z</time></trkpt><trkpt lat="44.572608628875095" lon="10.527811679156262"><ele>220.0</ele><time>2026-04-18T12:35:17Z</time></trkpt><trkpt lat="44.572690156424976" lon="10.52782682271903"><ele>220.0</ele><time>2026-04-18T12:35:19Z</time></trkpt><trkpt lat="44.572800992378596" lon="10.527822376268695"><ele>221.5</ele><time>2026-04-18T12:35:21Z</time></trkpt><trkpt lat="44.57291461729474" lon="10.527834737266438"><ele>223.0</ele><time>2026-04-18T12:35:22Z</time></trkpt><trkpt lat="44.573059532947944" lon="10.52785467013388"><ele>224.5</ele><time>2026-04-18T12:35:23Z</time></trkpt><trkpt lat="44.57317813749805" lon="10.52786848949517"><ele>226.0</ele><time>2026-04-18T12:35:24Z</time></trkpt><trkpt lat="44.573280630509224" lon="10.527864777787292"><ele>225.99999999999997</ele><time>2026-04-18T12:35:25Z</time></trkpt><trkpt lat="44.57337221227879" lon="10.527889702535466"><ele>226.0</ele><time>2026-04-18T12:35:26Z</time></trkpt><trkpt lat="44.573432518874654" lon="10.527928158662347"><ele>226.0</ele><time>2026-04-18T12:35:27Z</time></trkpt><trkpt lat="44.57349474959877" lon="10.528020806664307"><ele>226.0</ele><time>2026-04-18T12:35:29Z</time></trkpt><trkpt lat="44.573549054792686" lon="10.528108289314003"><ele>225.99999999999997</ele><time>2026-04-18T12:35:30Z</time></trkpt><trkpt lat="44.57363495463257" lon="10.528190432628593"><ele>226.0</ele><time>2026-04-18T12:35:31Z</time></trkpt><trkpt lat="44.57372057529646" lon="10.528292237026461"><ele>224.8</ele><time>2026-04-18T12:35:32Z</time></trkpt><trkpt lat="44.573823269980615" lon="10.528369604340043"><ele>223.60000000000002</ele><time>2026-04-18T12:35:33Z</time></trkpt><trkpt lat="44.573918360674064" lon="10.528412723619837"><ele>222.4</ele><time>2026-04-18T12:35:34Z</time></trkpt><trkpt lat="44.57400653809578" lon="10.528435652146326"><ele>221.2</ele><time>2026-04-18T12:35:35Z</time></trkpt><trkpt lat="44.574106657096976" lon="10.528430735863513"><ele>220.0</ele><time>2026-04-18T12:35:36Z</time></trkpt><trkpt lat="44.57422075080368" lon="10.528403370833221"><ele>219.99999999999997</ele><time>2026-04-18T12:35:37Z</time></trkpt><trkpt lat="44.57431611865483" lon="10.528377508548996"><ele>220.0</ele><time>2026-04-18T12:35:38Z</time></trkpt><trkpt lat="44.574395321546625" lon="10.528339698364071"><ele>220.0</ele><time>2026-04-18T12:35:39Z</time></trkpt><trkpt lat="44.57446752010878" lon="10.528288877445837"><ele>220.0</ele><time>2026-04-18T12:35:40Z</time></trkpt><trkpt lat="44.57453136652175" lon="10.528265537347627"><ele>219.99999999999997</ele><time>2026-04-18T12:35:41Z</time></trkpt><trkpt lat="44.574626493433456" lon="10.528211609301414"><ele>220.0</ele><time>2026-04-18T12:35:43Z</time></trkpt><trkpt lat="44.57466963348534" lon="10.528119219486005"><ele>219.8</ele><time>2026-04-18T12:35:44Z</time></trkpt><trkpt lat="44.57472358154017" lon="10.528037382347689"><ele>219.6</ele><time>2026-04-18T12:35:45Z</time></trkpt><trkpt lat="44.57480167171247" lon="10.527972490695209"><ele>219.39999999999998</ele><time>2026-04-18T12:35:46Z</time></trkpt><trkpt lat="44.574907586306274" lon="10.52798616126659"><ele>219.2</ele><time>2026-04-18T12:35:47Z</time></trkpt><trkpt lat="44.575041630525114" lon="10.527961597011915"><ele>219.0</ele><time>2026-04-18T12:35:48Z</time></trkpt><trkpt lat="44.57519446016388" lon="10.52792631047264"><ele>219.0</ele><time>2026-04-18T12:35:49Z</time></trkpt><trkpt lat="44.575314043478805" lon="10.527900490378824"><ele>219.0</ele><time>2026-04-18T12:35:50Z</time></trkpt><trkpt lat="44.57545331670416" lon="10.527873207435894"><ele>219.0</ele><time>2026-04-18T12:35:51Z</time></trkpt><trkpt lat="44.57560412419287" lon="10.527844556764222"><ele>219.0</ele><time>2026-04-18T12:35:52Z</time></trkpt><trkpt lat="44.575749927320274" lon="10.527816856829919"><ele>218.66666666666669</ele><time>2026-04-18T12:35:53Z</time></trkpt><trkpt lat="44.57591903931098" lon="10.527784728636403"><ele>218.33333333333334</ele><time>2026-04-18T12:35:54Z</time></trkpt><trkpt lat="44.57608041400292" lon="10.527730922512136"><ele>218.0</ele><time>2026-04-18T12:35:55Z</time></trkpt><trkpt lat="44.57623434958487" lon="10.52770091871185"><ele>218.0</ele><time>2026-04-18T12:35:56Z</time></trkpt><trkpt lat="44.57637051483268" lon="10.52767320596448"><ele>218.0</ele><time>2026-04-18T12:35:57Z</time></trkpt><trkpt lat="44.57651182216865" lon="10.527657752095388"><ele>218.0</ele><time>2026-04-18T12:35:58Z</time></trkpt><trkpt lat="44.57664310454759" lon="10.527632496177494"><ele>218.0</ele><time>2026-04-18T12:35:59Z</time></trkpt><trkpt lat="44.576783522590674" lon="10.527615418658698"><ele>218.0</ele><time>2026-04-18T12:36:00Z</time></trkpt><trkpt lat="44.5769282625385" lon="10.52763224093323"><ele>218.0</ele><time>2026-04-18T12:36:01Z</time></trkpt><trkpt lat="44.57705396331948" lon="10.527669699251938"><ele>218.0</ele><time>2026-04-18T12:36:02Z</time></trkpt><trkpt lat="44.57716206532411" lon="10.52771005995694"><ele>218.0</ele><time>2026-04-18T12:36:03Z</time></trkpt><trkpt lat="44.57724691363591" lon="10.527793672157433"><ele>217.66666666666669</ele><time>2026-04-18T12:36:05Z</time></trkpt><trkpt lat="44.57731859568418" lon="10.527863530312121"><ele>217.33333333333334</ele><time>2026-04-18T12:36:08Z</time></trkpt><trkpt lat="44.57739729285112" lon="10.52788672901843"><ele>217.0</ele><time>2026-04-18T12:36:12Z</time></trkpt><trkpt lat="44.5774699817605" lon="10.5279132986563"><ele>216.66666666666669</ele><time>2026-04-18T12:36:14Z</time></trkpt><trkpt lat="44.577532356339404" lon="10.527937131879098"><ele>216.33333333333334</ele><time>2026-04-18T12:36:16Z</time></trkpt><trkpt lat="44.57762705771851" lon="10.527978443983038"><ele>216.0</ele><time>2026-04-18T12:36:17.999Z</time></trkpt><trkpt lat="44.57776133561938" lon="10.528044315818336"><ele>217.0</ele><time>2026-04-18T12:36:19.999Z</time></trkpt><trkpt lat="44.57786066318437" lon="10.528092961714123"><ele>218.0</ele><time>2026-04-18T12:36:20.999Z</time></trkpt><trkpt lat="44.57796565502698" lon="10.528165988736857"><ele>219.0</ele><time>2026-04-18T12:36:21.999Z</time></trkpt><trkpt lat="44.57808652888705" lon="10.52823235045046"><ele>220.0</ele><time>2026-04-18T12:36:22.999Z</time></trkpt><trkpt lat="44.578228589167544" lon="10.528298798457023"><ele>220.0</ele><time>2026-04-18T12:36:23.999Z</time></trkpt><trkpt lat="44.5783733941973" lon="10.52838032809896"><ele>220.0</ele><time>2026-04-18T12:36:24.999Z</time></trkpt><trkpt lat="44.578513003703044" lon="10.528472450507715"><ele>220.0</ele><time>2026-04-18T12:36:25.999Z</time></trkpt><trkpt lat="44.578633745106124" lon="10.528567941558155"><ele>220.0</ele><time>2026-04-18T12:36:26.999Z</time></trkpt><trkpt lat="44.57873183611978" lon="10.528672560365086"><ele>220.33333333333331</ele><time>2026-04-18T12:36:27.999Z</time></trkpt><trkpt lat="44.57880527630716" lon="10.528781582359853"><ele>220.66666666666666</ele><time>2026-04-18T12:36:28.999Z</time></trkpt><trkpt lat="44.578850148532496" lon="10.528879949072419"><ele>221.0</ele><time>2026-04-18T12:36:29.999Z</time></trkpt><trkpt lat="44.578881643891144" lon="10.528960707509288"><ele>221.33333333333331</ele><time>2026-04-18T12:36:31Z</time></trkpt><trkpt lat="44.578923362900014" lon="10.529042383363853"><ele>221.66666666666666</ele><time>2026-04-18T12:36:33Z</time></trkpt><trkpt lat="44.5789051292986" lon="10.528953711458184"><ele>222.0</ele><time>2026-04-18T12:36:36Z</time></trkpt><trkpt lat="44.578888321912466" lon="10.52886291944281"><ele>222.0</ele><time>2026-04-18T12:36:37Z</time></trkpt><trkpt lat="44.578830019135616" lon="10.528778405167335"><ele>222.0</ele><time>2026-04-18T12:36:38Z</time></trkpt><trkpt lat="44.578782084749186" lon="10.528709853677844"><ele>222.0</ele><time>2026-04-18T12:36:39Z</time></trkpt><trkpt lat="44.578714928934595" lon="10.528606888627156"><ele>222.0</ele><time>2026-04-18T12:36:41Z</time></trkpt><trkpt lat="44.578727092114946" lon="10.52849047750657"><ele>222.0</ele><time>2026-04-18T12:36:43Z</time></trkpt><trkpt lat="44.57879619456997" lon="10.528405373534424"><ele>222.0</ele><time>2026-04-18T12:36:45Z</time></trkpt><trkpt lat="44.57889195165694" lon="10.528298893958485"><ele>223.14285714285714</ele><time>2026-04-18T12:36:47Z</time></trkpt><trkpt lat="44.57893972070695" lon="10.528239832156444"><ele>224.28571428571428</ele><time>2026-04-18T12:36:48Z</time></trkpt><trkpt lat="44.57899070236077" lon="10.528158489899228"><ele>225.42857142857142</ele><time>2026-04-18T12:36:49Z</time></trkpt><trkpt lat="44.579031298555954" lon="10.528068418781883"><ele>226.57142857142856</ele><time>2026-04-18T12:36:50Z</time></trkpt><trkpt lat="44.57907454116766" lon="10.527998807422257"><ele>227.71428571428572</ele><time>2026-04-18T12:36:51Z</time></trkpt><trkpt lat="44.579131838507074" lon="10.527906570948174"><ele>228.85714285714283</ele><time>2026-04-18T12:36:53Z</time></trkpt><trkpt lat="44.57920867526388" lon="10.527921098357838"><ele>229.99999999999997</ele><time>2026-04-18T12:36:54Z</time></trkpt><trkpt lat="44.57927647365358" lon="10.527936096894374"><ele>230.0</ele><time>2026-04-18T12:36:55Z</time></trkpt><trkpt lat="44.579341960001344" lon="10.527942379188579"><ele>230.0</ele><time>2026-04-18T12:36:56Z</time></trkpt><trkpt lat="44.579444706125905" lon="10.527994777538689"><ele>230.0</ele><time>2026-04-18T12:36:58Z</time></trkpt><trkpt lat="44.57953370558824" lon="10.528069189483212"><ele>230.0</ele><time>2026-04-18T12:37:00Z</time></trkpt><trkpt lat="44.579647577601534" lon="10.52815957611787"><ele>230.0</ele><time>2026-04-18T12:37:02Z</time></trkpt><trkpt lat="44.579708601184" lon="10.528194700166884"><ele>233.8</ele><time>2026-04-18T12:37:03Z</time></trkpt><trkpt lat="44.57979559259994" lon="10.528137877065372"><ele>237.6</ele><time>2026-04-18T12:37:06Z</time></trkpt><trkpt lat="44.57974751558095" lon="10.528033583943111"><ele>241.39999999999998</ele><time>2026-04-18T12:37:08Z</time></trkpt><trkpt lat="44.57974711067781" lon="10.527891198140676"><ele>245.2</ele><time>2026-04-18T12:37:10Z</time></trkpt><trkpt lat="44.57980522219042" lon="10.52774162227732"><ele>249.0</ele><time>2026-04-18T12:37:12Z</time></trkpt><trkpt lat="44.579846083521765" lon="10.52759252062478"><ele>249.5</ele><time>2026-04-18T12:37:14Z</time></trkpt><trkpt lat="44.57988451201431" lon="10.527470398623155"><ele>250.0</ele><time>2026-04-18T12:37:16Z</time></trkpt><trkpt lat="44.57993134641763" lon="10.527369501506696"><ele>250.5</ele><time>2026-04-18T12:37:18Z</time></trkpt><trkpt lat="44.5799939750314" lon="10.52730978271249"><ele>251.0</ele><time>2026-04-18T12:37:20Z</time></trkpt><trkpt lat="44.580092355389695" lon="10.527318053592369"><ele>251.5</ele><time>2026-04-18T12:37:22Z</time></trkpt><trkpt lat="44.58016600871938" lon="10.527316316987669"><ele>252.0</ele><time>2026-04-18T12:37:24Z</time></trkpt><trkpt lat="44.5802322257347" lon="10.527346087926471"><ele>252.0</ele><time>2026-04-18T12:37:26Z</time></trkpt><trkpt lat="44.58029174488832" lon="10.527387838718152"><ele>252.0</ele><time>2026-04-18T12:37:28Z</time></trkpt><trkpt lat="44.58036289507731" lon="10.52736183269974"><ele>252.0</ele><time>2026-04-18T12:37:31Z</time></trkpt><trkpt lat="44.58045436812269" lon="10.527340307102765"><ele>252.0</ele><time>2026-04-18T12:37:33Z</time></trkpt><trkpt lat="44.580538928851446" lon="10.527317765047055"><ele>252.0</ele><time>2026-04-18T12:37:34Z</time></trkpt><trkpt lat="44.580617483427865" lon="10.527311975927162"><ele>252.0</ele><time>2026-04-18T12:37:35Z</time></trkpt><trkpt lat="44.58068766068125" lon="10.527312889648396"><ele>257.0</ele><time>2026-04-18T12:37:36Z</time></trkpt><trkpt lat="44.58077130621645" lon="10.527307521884753"><ele>262.0</ele><time>2026-04-18T12:37:37Z</time></trkpt><trkpt lat="44.580876182111304" lon="10.527315676938024"><ele>267.0</ele><time>2026-04-18T12:37:38Z</time></trkpt><trkpt lat="44.580975696378765" lon="10.527327607985338"><ele>272.0</ele><time>2026-04-18T12:37:39Z</time></trkpt><trkpt lat="44.58107572908712" lon="10.527340589453562"><ele>277.0</ele><time>2026-04-18T12:37:40Z</time></trkpt><trkpt lat="44.58116417764355" lon="10.527350209097403"><ele>281.4</ele><time>2026-04-18T12:37:41Z</time></trkpt><trkpt lat="44.581243890700094" lon="10.527375665555027"><ele>285.79999999999995</ele><time>2026-04-18T12:37:42Z</time></trkpt><trkpt lat="44.58134295247183" lon="10.527421398964886"><ele>290.2</ele><time>2026-04-18T12:37:43Z</time></trkpt><trkpt lat="44.581452003076784" lon="10.52741712742507"><ele>294.59999999999997</ele><time>2026-04-18T12:37:45Z</time></trkpt><trkpt lat="44.58157048630118" lon="10.527372990245235"><ele>299.0</ele><time>2026-04-18T12:37:47Z</time></trkpt><trkpt lat="44.5816448199379" lon="10.527358677520374"><ele>299.0</ele><time>2026-04-18T12:37:48Z</time></trkpt><trkpt lat="44.581754223177676" lon="10.527322226175691"><ele>299.0</ele><time>2026-04-18T12:37:50Z</time></trkpt><trkpt lat="44.581831339250755" lon="10.527300324716874"><ele>299.0</ele><time>2026-04-18T12:37:51Z</time></trkpt><trkpt lat="44.58190477287969" lon="10.527298153449804"><ele>299.0</ele><time>2026-04-18T12:37:52Z</time></trkpt><trkpt lat="44.5819787831519" lon="10.527294742317629"><ele>299.0</ele><time>2026-04-18T12:37:53Z</time></trkpt><trkpt lat="44.5820528156854" lon="10.527302080536534"><ele>299.0</ele><time>2026-04-18T12:37:54Z</time></trkpt><trkpt lat="44.582117004443965" lon="10.527313346424721"><ele>302.1666666666667</ele><time>2026-04-18T12:37:55Z</time></trkpt><trkpt lat="44.58218023734605" lon="10.527329734020332"><ele>305.33333333333337</ele><time>2026-04-18T12:37:56Z</time></trkpt><trkpt lat="44.58224769853155" lon="10.527327161250701"><ele>308.5</ele><time>2026-04-18T12:37:57Z</time></trkpt><trkpt lat="44.58234846428229" lon="10.527354106416375"><ele>311.6666666666667</ele><time>2026-04-18T12:37:58Z</time></trkpt><trkpt lat="44.58243825218974" lon="10.527370127350082"><ele>314.8333333333333</ele><time>2026-04-18T12:37:59Z</time></trkpt><trkpt lat="44.58254643577972" lon="10.527403874115668"><ele>318.0</ele><time>2026-04-18T12:38:01Z</time></trkpt><trkpt lat="44.5826138823445" lon="10.527420033830943"><ele>318.0</ele><time>2026-04-18T12:38:02Z</time></trkpt><trkpt lat="44.58271112820941" lon="10.527433536344747"><ele>318.0</ele><time>2026-04-18T12:38:03Z</time></trkpt><trkpt lat="44.582828219667455" lon="10.527454639700945"><ele>318.0</ele><time>2026-04-18T12:38:04Z</time></trkpt><trkpt lat="44.582918363256" lon="10.527480194686769"><ele>318.0</ele><time>2026-04-18T12:38:05Z</time></trkpt><trkpt lat="44.58301248783409" lon="10.52749726162135"><ele>318.0</ele><time>2026-04-18T12:38:06Z</time></trkpt><trkpt lat="44.58308859641633" lon="10.527514001043434"><ele>321.3333333333333</ele><time>2026-04-18T12:38:07Z</time></trkpt><trkpt lat="44.583164673868865" lon="10.527530464900307"><ele>324.6666666666667</ele><time>2026-04-18T12:38:08Z</time></trkpt><trkpt lat="44.58322816194938" lon="10.527546473885204"><ele>328.0</ele><time>2026-04-18T12:38:09Z</time></trkpt><trkpt lat="44.58331142775782" lon="10.527560938665674"><ele>331.33333333333337</ele><time>2026-04-18T12:38:10Z</time></trkpt><trkpt lat="44.58339884855006" lon="10.527577500068162"><ele>334.6666666666667</ele><time>2026-04-18T12:38:10.999Z</time></trkpt><trkpt lat="44.583474757273045" lon="10.527578575879474"><ele>338.0</ele><time>2026-04-18T12:38:11.999Z</time></trkpt><trkpt lat="44.58356221581727" lon="10.527564665547306"><ele>338.0</ele><time>2026-04-18T12:38:12.999Z</time></trkpt><trkpt lat="44.58366183203759" lon="10.52754473833819"><ele>338.0</ele><time>2026-04-18T12:38:13.999Z</time></trkpt><trkpt lat="44.58375369423517" lon="10.527529217879692"><ele>338.0</ele><time>2026-04-18T12:38:14.999Z</time></trkpt><trkpt lat="44.58382755030874" lon="10.527514800476965"><ele>338.0</ele><time>2026-04-18T12:38:15.999Z</time></trkpt><trkpt lat="44.583903218692264" lon="10.527482444747454"><ele>338.0</ele><time>2026-04-18T12:38:16.999Z</time></trkpt><trkpt lat="44.583976407644094" lon="10.527424398440182"><ele>338.0</ele><time>2026-04-18T12:38:17.999Z</time></trkpt><trkpt lat="44.584045272166016" lon="10.527352731480002"><ele>339.4</ele><time>2026-04-18T12:38:18.999Z</time></trkpt><trkpt lat="44.58412229861198" lon="10.527263678936627"><ele>340.79999999999995</ele><time>2026-04-18T12:38:19.999Z</time></trkpt><trkpt lat="44.5842034162835" lon="10.527180700614714"><ele>342.2</ele><time>2026-04-18T12:38:20.999Z</time></trkpt><trkpt lat="44.58431079974516" lon="10.527077186015465"><ele>343.6</ele><time>2026-04-18T12:38:21.999Z</time></trkpt><trkpt lat="44.58441124642455" lon="10.526989994881685"><ele>345.0</ele><time>2026-04-18T12:38:22.999Z</time></trkpt><trkpt lat="44.584499758927315" lon="10.526915543969102"><ele>347.2</ele><time>2026-04-18T12:38:23.999Z</time></trkpt><trkpt lat="44.58458650304498" lon="10.526838779078838"><ele>349.4</ele><time>2026-04-18T12:38:24.999Z</time></trkpt><trkpt lat="44.584681540296444" lon="10.526746927077333"><ele>351.6</ele><time>2026-04-18T12:38:25.999Z</time></trkpt><trkpt lat="44.584750281889086" lon="10.526691480723583"><ele>353.8</ele><time>2026-04-18T12:38:26.999Z</time></trkpt><trkpt lat="44.58480735198421" lon="10.526619532846095"><ele>356.0</ele><time>2026-04-18T12:38:27.999Z</time></trkpt><trkpt lat="44.584899920880865" lon="10.52648710831485"><ele>356.0</ele><time>2026-04-18T12:38:28.999Z</time></trkpt><trkpt lat="44.58499658906321" lon="10.526342798577634"><ele>356.0</ele><time>2026-04-18T12:38:29.999Z</time></trkpt><trkpt lat="44.58506104422659" lon="10.526219019408442"><ele>356.0</ele><time>2026-04-18T12:38:30.999Z</time></trkpt><trkpt lat="44.58513869113984" lon="10.526104250032468"><ele>356.0</ele><time>2026-04-18T12:38:31.999Z</time></trkpt><trkpt lat="44.58520579350735" lon="10.526008461712056"><ele>355.83333333333337</ele><time>2026-04-18T12:38:32.999Z</time></trkpt><trkpt lat="44.5852567967112" lon="10.525919133636917"><ele>355.6666666666667</ele><time>2026-04-18T12:38:33.999Z</time></trkpt><trkpt lat="44.58528917098774" lon="10.5258383361302"><ele>355.5</ele><time>2026-04-18T12:38:34.999Z</time></trkpt><trkpt lat="44.58533738838914" lon="10.525742480267322"><ele>355.3333333333333</ele><time>2026-04-18T12:38:35.999Z</time></trkpt><trkpt lat="44.585411421209024" lon="10.525658038610043"><ele>355.16666666666663</ele><time>2026-04-18T12:38:37Z</time></trkpt><trkpt lat="44.58546815958929" lon="10.525568802826488"><ele>355.0</ele><time>2026-04-18T12:38:38Z</time></trkpt><trkpt lat="44.58550552350934" lon="10.525486956657737"><ele>356.0</ele><time>2026-04-18T12:38:39Z</time></trkpt><trkpt lat="44.58555743620354" lon="10.525406616427622"><ele>357.0</ele><time>2026-04-18T12:38:40Z</time></trkpt><trkpt lat="44.58566477811111" lon="10.52536009534281"><ele>358.0</ele><time>2026-04-18T12:38:42Z</time></trkpt><trkpt lat="44.585731257200315" lon="10.525304086772595"><ele>359.0</ele><time>2026-04-18T12:38:44Z</time></trkpt><trkpt lat="44.5857972481899" lon="10.52523025982001"><ele>360.0</ele><time>2026-04-18T12:38:46Z</time></trkpt><trkpt lat="44.58588551643811" lon="10.525106905431674"><ele>361.4</ele><time>2026-04-18T12:38:48Z</time></trkpt><trkpt lat="44.585937971993985" lon="10.52501504131519"><ele>362.8</ele><time>2026-04-18T12:38:49Z</time></trkpt><trkpt lat="44.585993249448116" lon="10.524924323664225"><ele>364.20000000000005</ele><time>2026-04-18T12:38:50Z</time></trkpt><trkpt lat="44.58606246361726" lon="10.524748906702298"><ele>365.6</ele><time>2026-04-18T12:38:52Z</time></trkpt><trkpt lat="44.58612422977955" lon="10.524667661400438"><ele>367.0</ele><time>2026-04-18T12:38:53Z</time></trkpt><trkpt lat="44.58617940714075" lon="10.524594115095166"><ele>372.0</ele><time>2026-04-18T12:38:54Z</time></trkpt><trkpt lat="44.586282808925354" lon="10.524466459848416"><ele>377.0</ele><time>2026-04-18T12:38:56Z</time></trkpt><trkpt lat="44.586394518867834" lon="10.524370015668655"><ele>382.0</ele><time>2026-04-18T12:38:58Z</time></trkpt><trkpt lat="44.58646987522629" lon="10.524287529893293"><ele>387.0</ele><time>2026-04-18T12:38:59Z</time></trkpt><trkpt lat="44.586530151789646" lon="10.524187399860473"><ele>387.0</ele><time>2026-04-18T12:39:00Z</time></trkpt><trkpt lat="44.58659951372944" lon="10.524109491441614"><ele>387.0</ele><time>2026-04-18T12:39:01Z</time></trkpt><trkpt lat="44.58663666638893" lon="10.524032745480465"><ele>387.0</ele><time>2026-04-18T12:39:02Z</time></trkpt><trkpt lat="44.58665886874162" lon="10.523902902258067"><ele>387.0</ele><time>2026-04-18T12:39:04Z</time></trkpt><trkpt lat="44.586680975635296" lon="10.523762028877606"><ele>387.0</ele><time>2026-04-18T12:39:07Z</time></trkpt><trkpt lat="44.58673369816593" lon="10.52363393325578"><ele>387.8333333333333</ele><time>2026-04-18T12:39:09Z</time></trkpt><trkpt lat="44.58675678041903" lon="10.523530300708314"><ele>388.66666666666663</ele><time>2026-04-18T12:39:11Z</time></trkpt><trkpt lat="44.58679771479547" lon="10.523412461178454"><ele>389.5</ele><time>2026-04-18T12:39:13Z</time></trkpt><trkpt lat="44.58685057575701" lon="10.523343574160105"><ele>390.3333333333333</ele><time>2026-04-18T12:39:14Z</time></trkpt><trkpt lat="44.586918974599705" lon="10.523300716145165"><ele>391.16666666666663</ele><time>2026-04-18T12:39:15Z</time></trkpt><trkpt lat="44.58699293944572" lon="10.523268927177265"><ele>392.0</ele><time>2026-04-18T12:39:16Z</time></trkpt><trkpt lat="44.587065755956544" lon="10.523238208482423"><ele>393.49999999999994</ele><time>2026-04-18T12:39:19Z</time></trkpt><trkpt lat="44.58713979273785" lon="10.523213654555583"><ele>395.0</ele><time>2026-04-18T12:39:21Z</time></trkpt><trkpt lat="44.58723457745878" lon="10.523250153740241"><ele>396.5</ele><time>2026-04-18T12:39:23Z</time></trkpt><trkpt lat="44.58730696791124" lon="10.523288628994933"><ele>398.0</ele><time>2026-04-18T12:39:24Z</time></trkpt><trkpt lat="44.58737479187601" lon="10.523325044160622"><ele>399.49999999999994</ele><time>2026-04-18T12:39:25Z</time></trkpt><trkpt lat="44.58746817099349" lon="10.523374399487357"><ele>401.0</ele><time>2026-04-18T12:39:27Z</time></trkpt><trkpt lat="44.587588699961344" lon="10.523392250687015"><ele>401.0</ele><time>2026-04-18T12:39:30Z</time></trkpt><trkpt lat="44.58769315940571" lon="10.523376776707575"><ele>401.0</ele><time>2026-04-18T12:39:32Z</time></trkpt><trkpt lat="44.587849520342836" lon="10.523390987546605"><ele>401.0</ele><time>2026-04-18T12:39:35Z</time></trkpt><trkpt lat="44.58793255814028" lon="10.523445344204433"><ele>401.0</ele><time>2026-04-18T12:39:36Z</time></trkpt><trkpt lat="44.58800754132844" lon="10.523498395467419"><ele>401.0</ele><time>2026-04-18T12:39:37Z</time></trkpt><trkpt lat="44.58807344929195" lon="10.523521542802948"><ele>401.49999999999994</ele><time>2026-04-18T12:39:38Z</time></trkpt><trkpt lat="44.58815450566798" lon="10.52353484565581"><ele>402.0</ele><time>2026-04-18T12:39:39Z</time></trkpt><trkpt lat="44.58823555871732" lon="10.523549815414928"><ele>402.5</ele><time>2026-04-18T12:39:40Z</time></trkpt><trkpt lat="44.588298798627456" lon="10.523571093298674"><ele>403.0</ele><time>2026-04-18T12:39:41Z</time></trkpt><trkpt lat="44.588390779058905" lon="10.523635968669497"><ele>403.49999999999994</ele><time>2026-04-18T12:39:43Z</time></trkpt><trkpt lat="44.5885017356553" lon="10.523685952627929"><ele>404.0</ele><time>2026-04-18T12:39:45Z</time></trkpt><trkpt lat="44.58859707751638" lon="10.523686365111676"><ele>403.99999999999994</ele><time>2026-04-18T12:39:47Z</time></trkpt><trkpt lat="44.58861982115447" lon="10.523603473948798"><ele>404.0</ele><time>2026-04-18T12:39:50Z</time></trkpt><trkpt lat="44.588708100530646" lon="10.523502539830513"><ele>404.0</ele><time>2026-04-18T12:39:53Z</time></trkpt><trkpt lat="44.58877251640202" lon="10.52345238834799"><ele>404.0</ele><time>2026-04-18T12:39:54Z</time></trkpt><trkpt lat="44.5888485521927" lon="10.523437069818186"><ele>403.99999999999994</ele><time>2026-04-18T12:39:55Z</time></trkpt><trkpt lat="44.58891794576459" lon="10.523397357355003"><ele>404.0</ele><time>2026-04-18T12:41:37Z</time></trkpt><trkpt lat="44.58895372937416" lon="10.523221705976516"><ele>404.0</ele><time>2026-04-18T12:41:39Z</time></trkpt><trkpt lat="44.5889642207614" lon="10.523073259985432"><ele>404.0</ele><time>2026-04-18T12:41:41Z</time></trkpt><trkpt lat="44.589023614015815" lon="10.523042032920266"><ele>404.0</ele><time>2026-04-18T12:41:43Z</time></trkpt><trkpt lat="44.58911168477185" lon="10.522933436318196"><ele>404.0</ele><time>2026-04-18T12:41:45Z</time></trkpt><trkpt lat="44.589229170220435" lon="10.52287501855933"><ele>404.0</ele><time>2026-04-18T12:41:47Z</time></trkpt><trkpt lat="44.589306796640855" lon="10.52284942201544"><ele>403.99999999999994</ele><time>2026-04-18T12:41:48Z</time></trkpt><trkpt lat="44.589384955021124" lon="10.522815322576138"><ele>404.0</ele><time>2026-04-18T12:41:49Z</time></trkpt><trkpt lat="44.58946141607919" lon="10.522781867660468"><ele>404.0</ele><time>2026-04-18T12:41:50Z</time></trkpt><trkpt lat="44.58952808696688" lon="10.52274487247125"><ele>404.0</ele><time>2026-04-18T12:41:51Z</time></trkpt><trkpt lat="44.58959515926378" lon="10.522694531190968"><ele>403.99999999999994</ele><time>2026-04-18T12:41:52Z</time></trkpt><trkpt lat="44.58967695714432" lon="10.522616956574105"><ele>404.0</ele><time>2026-04-18T12:41:53Z</time></trkpt><trkpt lat="44.58973695415219" lon="10.5225331481078"><ele>405.2</ele><time>2026-04-18T12:41:54Z</time></trkpt><trkpt lat="44.58979059881744" lon="10.522467999180076"><ele>406.4</ele><time>2026-04-18T12:41:55Z</time></trkpt><trkpt lat="44.589846678048104" lon="10.522377904398592"><ele>407.6</ele><time>2026-04-18T12:41:56Z</time></trkpt><trkpt lat="44.589921565683845" lon="10.522275785504247"><ele>408.8</ele><time>2026-04-18T12:41:57Z</time></trkpt><trkpt lat="44.590010144307314" lon="10.522106294897497"><ele>410.0</ele><time>2026-04-18T12:41:58.999Z</time></trkpt><trkpt lat="44.59004142621919" lon="10.52198195265191"><ele>410.2</ele><time>2026-04-18T12:41:59.999Z</time></trkpt><trkpt lat="44.59009112387483" lon="10.521892393361158"><ele>410.4</ele><time>2026-04-18T12:42:00.999Z</time></trkpt><trkpt lat="44.59012330390599" lon="10.521802525995957"><ele>410.6</ele><time>2026-04-18T12:42:01.999Z</time></trkpt><trkpt lat="44.59020027431159" lon="10.521586123154552"><ele>410.8</ele><time>2026-04-18T12:42:03.999Z</time></trkpt><trkpt lat="44.59024223671786" lon="10.521459896379413"><ele>411.0</ele><time>2026-04-18T12:42:04.999Z</time></trkpt><trkpt lat="44.590313406608644" lon="10.521344510708914"><ele>410.6</ele><time>2026-04-18T12:42:05.999Z</time></trkpt><trkpt lat="44.59038183930879" lon="10.52125190774811"><ele>410.20000000000005</ele><time>2026-04-18T12:42:06.999Z</time></trkpt><trkpt lat="44.59046422960414" lon="10.521175101187131"><ele>409.79999999999995</ele><time>2026-04-18T12:42:07.999Z</time></trkpt><trkpt lat="44.590543666994144" lon="10.521112332609288"><ele>409.4</ele><time>2026-04-18T12:42:08.999Z</time></trkpt><trkpt lat="44.59066434191118" lon="10.521031370917136"><ele>409.0</ele><time>2026-04-18T12:42:09.999Z</time></trkpt><trkpt lat="44.59075519206983" lon="10.520988141443564"><ele>410.1666666666667</ele><time>2026-04-18T12:42:10.999Z</time></trkpt><trkpt lat="44.59082847379173" lon="10.520951875910239"><ele>411.33333333333337</ele><time>2026-04-18T12:42:12.999Z</time></trkpt><trkpt lat="44.59092442346185" lon="10.520922686350934"><ele>412.5</ele><time>2026-04-18T12:42:14.999Z</time></trkpt><trkpt lat="44.591014892851895" lon="10.520846002690314"><ele>413.66666666666663</ele><time>2026-04-18T12:42:16.999Z</time></trkpt><trkpt lat="44.59106519373505" lon="10.520777190216538"><ele>414.8333333333333</ele><time>2026-04-18T12:42:17.999Z</time></trkpt><trkpt lat="44.59112228308275" lon="10.520685882400167"><ele>416.0</ele><time>2026-04-18T12:42:18.999Z</time></trkpt><trkpt lat="44.59118676952913" lon="10.520564932968874"><ele>416.8</ele><time>2026-04-18T12:42:19.999Z</time></trkpt><trkpt lat="44.5912591772813" lon="10.520457639211157"><ele>417.6</ele><time>2026-04-18T12:42:20.999Z</time></trkpt><trkpt lat="44.591321445336895" lon="10.520403924765352"><ele>418.4</ele><time>2026-04-18T12:42:21.999Z</time></trkpt><trkpt lat="44.591452857161514" lon="10.520370601928281"><ele>419.2</ele><time>2026-04-18T12:42:23.999Z</time></trkpt><trkpt lat="44.59157589034892" lon="10.520381701294573"><ele>420.0</ele><time>2026-04-18T12:42:25.999Z</time></trkpt><trkpt lat="44.591644596854614" lon="10.520392395511793"><ele>420.0</ele><time>2026-04-18T12:42:26.999Z</time></trkpt><trkpt lat="44.591709883624524" lon="10.52042190133721"><ele>420.0</ele><time>2026-04-18T12:42:27.999Z</time></trkpt><trkpt lat="44.59178163254621" lon="10.520493410740759"><ele>420.0</ele><time>2026-04-18T12:42:29.999Z</time></trkpt><trkpt lat="44.591850448460725" lon="10.520629334931547"><ele>420.0</ele><time>2026-04-18T12:42:31.999Z</time></trkpt><trkpt lat="44.591875018399485" lon="10.52071093974472"><ele>420.0</ele><time>2026-04-18T12:42:32.999Z</time></trkpt><trkpt lat="44.59190449798303" lon="10.520805938595295"><ele>420.0</ele><time>2026-04-18T12:42:33.999Z</time></trkpt><trkpt lat="44.591943343862106" lon="10.52087866659566"><ele>420.0</ele><time>2026-04-18T12:42:34.999Z</time></trkpt><trkpt lat="44.59200271966678" lon="10.520923554858214"><ele>420.0</ele><time>2026-04-18T12:42:35.999Z</time></trkpt><trkpt lat="44.592082146216235" lon="10.521042248551487"><ele>420.0</ele><time>2026-04-18T12:42:37.999Z</time></trkpt><trkpt lat="44.59215196836249" lon="10.521157653936664"><ele>420.0</ele><time>2026-04-18T12:42:39.999Z</time></trkpt><trkpt lat="44.5922473791413" lon="10.521201174524881"><ele>420.0</ele><time>2026-04-18T12:42:41.999Z</time></trkpt><trkpt lat="44.592294337881206" lon="10.521260641379898"><ele>416.6</ele><time>2026-04-18T12:42:42.999Z</time></trkpt><trkpt lat="44.592359726422906" lon="10.521336353995332"><ele>413.2</ele><time>2026-04-18T12:42:43.999Z</time></trkpt><trkpt lat="44.59243401388139" lon="10.521433407756415"><ele>409.79999999999995</ele><time>2026-04-18T12:42:44.999Z</time></trkpt><trkpt lat="44.592492931489026" lon="10.521488738235826"><ele>406.4</ele><time>2026-04-18T12:42:45.999Z</time></trkpt><trkpt lat="44.592557474619454" lon="10.521610058747653"><ele>403.0</ele><time>2026-04-18T12:42:47.999Z</time></trkpt><trkpt lat="44.59255477659055" lon="10.521803110938265"><ele>403.0</ele><time>2026-04-18T12:42:50Z</time></trkpt><trkpt lat="44.592578934777265" lon="10.521892428369151"><ele>403.0</ele><time>2026-04-18T12:42:51Z</time></trkpt><trkpt lat="44.59266173250923" lon="10.522036461635023"><ele>403.0</ele><time>2026-04-18T12:42:53Z</time></trkpt><trkpt lat="44.592723354130456" lon="10.522104184477476"><ele>403.0</ele><time>2026-04-18T12:42:54Z</time></trkpt><trkpt lat="44.59276664144401" lon="10.522182707069058"><ele>403.0</ele><time>2026-04-18T12:42:55Z</time></trkpt><trkpt lat="44.59286249581753" lon="10.52229279371896"><ele>400.1666666666667</ele><time>2026-04-18T12:42:57Z</time></trkpt><trkpt lat="44.59290131659596" lon="10.522385709673138"><ele>397.33333333333337</ele><time>2026-04-18T12:42:58Z</time></trkpt><trkpt lat="44.59294334077697" lon="10.522479785051521"><ele>394.5</ele><time>2026-04-18T12:42:59Z</time></trkpt><trkpt lat="44.59299675900074" lon="10.5225699266126"><ele>391.66666666666663</ele><time>2026-04-18T12:43:00Z</time></trkpt><trkpt lat="44.59311226672185" lon="10.522633457883865"><ele>388.8333333333333</ele><time>2026-04-18T12:43:01.999Z</time></trkpt><trkpt lat="44.593165374912516" lon="10.52270788363654"><ele>386.0</ele><time>2026-04-18T12:43:02.999Z</time></trkpt><trkpt lat="44.59323260860077" lon="10.522774547166776"><ele>385.99999999999994</ele><time>2026-04-18T12:43:04.999Z</time></trkpt><trkpt lat="44.593266287899525" lon="10.522861553949564"><ele>386.0</ele><time>2026-04-18T12:43:05.999Z</time></trkpt><trkpt lat="44.593346009537704" lon="10.522930920193122"><ele>386.0</ele><time>2026-04-18T12:43:07.999Z</time></trkpt><trkpt lat="44.593444730011605" lon="10.52292499282627"><ele>386.0</ele><time>2026-04-18T12:43:09.999Z</time></trkpt><trkpt lat="44.59354916312314" lon="10.522952805889425"><ele>385.99999999999994</ele><time>2026-04-18T12:43:11.999Z</time></trkpt><trkpt lat="44.593595120886036" lon="10.523042116128515"><ele>386.0</ele><time>2026-04-18T12:43:13.999Z</time></trkpt><trkpt lat="44.59362647562791" lon="10.523213449597604"><ele>384.49999999999994</ele><time>2026-04-18T12:43:15.999Z</time></trkpt><trkpt lat="44.59366678772807" lon="10.52333790320522"><ele>383.0</ele><time>2026-04-18T12:43:16.999Z</time></trkpt><trkpt lat="44.59369278705065" lon="10.523440949896871"><ele>381.5</ele><time>2026-04-18T12:43:17.999Z</time></trkpt><trkpt lat="44.593725252152275" lon="10.523524478071305"><ele>380.0</ele><time>2026-04-18T12:43:18.999Z</time></trkpt><trkpt lat="44.59377460865871" lon="10.523587495954581"><ele>378.5</ele><time>2026-04-18T12:43:19.999Z</time></trkpt><trkpt lat="44.59385330953664" lon="10.523723749710495"><ele>377.0</ele><time>2026-04-18T12:43:21.999Z</time></trkpt><trkpt lat="44.59386266125216" lon="10.52390585409863"><ele>376.20000000000005</ele><time>2026-04-18T12:43:23.999Z</time></trkpt><trkpt lat="44.59389894624705" lon="10.524035693260863"><ele>375.4</ele><time>2026-04-18T12:43:24.999Z</time></trkpt><trkpt lat="44.59395714649121" lon="10.524147497025679"><ele>374.6</ele><time>2026-04-18T12:43:25.999Z</time></trkpt><trkpt lat="44.59404398503929" lon="10.524281885999475"><ele>373.79999999999995</ele><time>2026-04-18T12:43:26.999Z</time></trkpt><trkpt lat="44.59410811680496" lon="10.524412614401243"><ele>373.0</ele><time>2026-04-18T12:43:27.999Z</time></trkpt><trkpt lat="44.594138405164294" lon="10.524527009649843"><ele>370.79999999999995</ele><time>2026-04-18T12:43:28.999Z</time></trkpt><trkpt lat="44.59417263447764" lon="10.524623485650572"><ele>368.6</ele><time>2026-04-18T12:43:29.999Z</time></trkpt><trkpt lat="44.59421818329798" lon="10.52473160312717"><ele>366.4</ele><time>2026-04-18T12:43:30.999Z</time></trkpt><trkpt lat="44.594275842029056" lon="10.524850880839788"><ele>364.20000000000005</ele><time>2026-04-18T12:43:31.999Z</time></trkpt><trkpt lat="44.59435373156352" lon="10.524953499076833"><ele>362.0</ele><time>2026-04-18T12:43:32.999Z</time></trkpt><trkpt lat="44.59444839448293" lon="10.525028090778836"><ele>362.6</ele><time>2026-04-18T12:43:33.999Z</time></trkpt><trkpt lat="44.59452182958616" lon="10.525071680300023"><ele>363.20000000000005</ele><time>2026-04-18T12:43:34.999Z</time></trkpt><trkpt lat="44.59456910817916" lon="10.525131335253468"><ele>363.8</ele><time>2026-04-18T12:43:35.999Z</time></trkpt><trkpt lat="44.594622662174075" lon="10.525256205794765"><ele>364.4</ele><time>2026-04-18T12:43:36.999Z</time></trkpt><trkpt lat="44.59466500386793" lon="10.525391311706317"><ele>365.0</ele><time>2026-04-18T12:43:37.999Z</time></trkpt><trkpt lat="44.59470787644281" lon="10.525549418718837"><ele>365.25</ele><time>2026-04-18T12:43:38.999Z</time></trkpt><trkpt lat="44.594748504826335" lon="10.525720167187947"><ele>365.5</ele><time>2026-04-18T12:43:39.999Z</time></trkpt><trkpt lat="44.59479364088235" lon="10.525896898881898"><ele>365.75</ele><time>2026-04-18T12:43:40.999Z</time></trkpt><trkpt lat="44.59484537244448" lon="10.526085867972707"><ele>366.0</ele><time>2026-04-18T12:43:41.999Z</time></trkpt><trkpt lat="44.59488968098425" lon="10.52627293806615"><ele>366.0</ele><time>2026-04-18T12:43:42.999Z</time></trkpt><trkpt lat="44.594911177051976" lon="10.52642078558874"><ele>366.0</ele><time>2026-04-18T12:43:43.999Z</time></trkpt><trkpt lat="44.59493473871749" lon="10.526513352828003"><ele>366.0</ele><time>2026-04-18T12:43:44.999Z</time></trkpt><trkpt lat="44.59496713217115" lon="10.526632741086779"><ele>366.0</ele><time>2026-04-18T12:43:45.999Z</time></trkpt><trkpt lat="44.59501448912908" lon="10.526729421712322"><ele>366.0</ele><time>2026-04-18T12:43:46.999Z</time></trkpt><trkpt lat="44.595106873298526" lon="10.526847257968507"><ele>366.0</ele><time>2026-04-18T12:43:47.999Z</time></trkpt><trkpt lat="44.59521081256286" lon="10.526962403464903"><ele>366.0</ele><time>2026-04-18T12:43:48.999Z</time></trkpt><trkpt lat="44.59527938986967" lon="10.527059739379736"><ele>366.0</ele><time>2026-04-18T12:43:49.999Z</time></trkpt><trkpt lat="44.595324117904305" lon="10.527254182051037"><ele>366.0</ele><time>2026-04-18T12:43:51.999Z</time></trkpt><trkpt lat="44.59534527362677" lon="10.52739909700032"><ele>365.4</ele><time>2026-04-18T12:43:52.999Z</time></trkpt><trkpt lat="44.59538694060233" lon="10.527517804022507"><ele>364.8</ele><time>2026-04-18T12:43:53.999Z</time></trkpt><trkpt lat="44.59542099824648" lon="10.527623473760652"><ele>364.2</ele><time>2026-04-18T12:43:54.999Z</time></trkpt><trkpt lat="44.59546049200597" lon="10.52772295380365"><ele>363.59999999999997</ele><time>2026-04-18T12:43:55.999Z</time></trkpt><trkpt lat="44.595484913503704" lon="10.527858285785875"><ele>363.0</ele><time>2026-04-18T12:43:56.999Z</time></trkpt><trkpt lat="44.59551166516513" lon="10.527988355172642"><ele>363.0</ele><time>2026-04-18T12:43:57.999Z</time></trkpt><trkpt lat="44.595501899217126" lon="10.528147195060845"><ele>363.0</ele><time>2026-04-18T12:43:58.999Z</time></trkpt><trkpt lat="44.59551366826424" lon="10.528246887951633"><ele>363.0</ele><time>2026-04-18T12:43:59.999Z</time></trkpt><trkpt lat="44.59553465802404" lon="10.528380564242198"><ele>363.0</ele><time>2026-04-18T12:44:00.999Z</time></trkpt><trkpt lat="44.595559965863906" lon="10.528544136887625"><ele>363.0</ele><time>2026-04-18T12:44:01.999Z</time></trkpt><trkpt lat="44.595593764642786" lon="10.528714326676624"><ele>361.79999999999995</ele><time>2026-04-18T12:44:02.999Z</time></trkpt><trkpt lat="44.59565021570543" lon="10.528856042055912"><ele>360.6</ele><time>2026-04-18T12:44:03.999Z</time></trkpt><trkpt lat="44.59569095657707" lon="10.528975185533188"><ele>359.4</ele><time>2026-04-18T12:44:04.999Z</time></trkpt><trkpt lat="44.59573432827159" lon="10.52907262032713"><ele>358.20000000000005</ele><time>2026-04-18T12:44:05.999Z</time></trkpt><trkpt lat="44.59571776052935" lon="10.529198503127189"><ele>357.0</ele><time>2026-04-18T12:44:06.999Z</time></trkpt><trkpt lat="44.59571141798119" lon="10.529296312956937"><ele>357.0</ele><time>2026-04-18T12:44:07.999Z</time></trkpt><trkpt lat="44.59571237438708" lon="10.529385376419624"><ele>357.0</ele><time>2026-04-18T12:44:08.999Z</time></trkpt><trkpt lat="44.59577486409417" lon="10.529550153883909"><ele>357.0</ele><time>2026-04-18T12:44:10.999Z</time></trkpt><trkpt lat="44.5958432464783" lon="10.529639959830341"><ele>357.0</ele><time>2026-04-18T12:44:11.999Z</time></trkpt><trkpt lat="44.59591669948556" lon="10.529715456179144"><ele>357.0</ele><time>2026-04-18T12:44:12.999Z</time></trkpt><trkpt lat="44.59599316896818" lon="10.529796528230131"><ele>354.6</ele><time>2026-04-18T12:44:13.999Z</time></trkpt><trkpt lat="44.59605468177194" lon="10.529904458510336"><ele>352.20000000000005</ele><time>2026-04-18T12:44:14.999Z</time></trkpt><trkpt lat="44.59611018104043" lon="10.530025900027017"><ele>349.8</ele><time>2026-04-18T12:44:15.999Z</time></trkpt><trkpt lat="44.59615247327139" lon="10.530121929130157"><ele>347.4</ele><time>2026-04-18T12:44:16.999Z</time></trkpt><trkpt lat="44.59624652909488" lon="10.530180192334278"><ele>345.0</ele><time>2026-04-18T12:44:18.999Z</time></trkpt><trkpt lat="44.596312544707686" lon="10.530171247269204"><ele>344.6</ele><time>2026-04-18T12:44:19.999Z</time></trkpt><trkpt lat="44.59637559923873" lon="10.530221401759984"><ele>344.2</ele><time>2026-04-18T12:44:20.999Z</time></trkpt><trkpt lat="44.59644764555125" lon="10.530319298900595"><ele>343.79999999999995</ele><time>2026-04-18T12:44:21.999Z</time></trkpt><trkpt lat="44.596489628425616" lon="10.530446761713991"><ele>343.4</ele><time>2026-04-18T12:44:23.999Z</time></trkpt><trkpt lat="44.59652457687222" lon="10.53054818655717"><ele>343.0</ele><time>2026-04-18T12:44:24.999Z</time></trkpt><trkpt lat="44.596570023568994" lon="10.53067603358005"><ele>343.0</ele><time>2026-04-18T12:44:25.999Z</time></trkpt><trkpt lat="44.596606077536826" lon="10.530780933861147"><ele>343.0</ele><time>2026-04-18T12:44:26.999Z</time></trkpt><trkpt lat="44.59663139497857" lon="10.530878424214318"><ele>343.0</ele><time>2026-04-18T12:44:27.999Z</time></trkpt><trkpt lat="44.59666502446104" lon="10.530983423945743"><ele>343.0</ele><time>2026-04-18T12:44:28.999Z</time></trkpt><trkpt lat="44.59670669433727" lon="10.531087397476524"><ele>343.0</ele><time>2026-04-18T12:44:29.999Z</time></trkpt><trkpt lat="44.59676934607036" lon="10.531198548842928"><ele>343.0</ele><time>2026-04-18T12:44:30.999Z</time></trkpt><trkpt lat="44.59683589255968" lon="10.531297866882497"><ele>342.2</ele><time>2026-04-18T12:44:31.999Z</time></trkpt><trkpt lat="44.59686119207627" lon="10.531379778994488"><ele>341.4</ele><time>2026-04-18T12:44:32.999Z</time></trkpt><trkpt lat="44.596870191820614" lon="10.531498289728358"><ele>340.59999999999997</ele><time>2026-04-18T12:44:33.999Z</time></trkpt><trkpt lat="44.596871523347836" lon="10.531624865767654"><ele>339.79999999999995</ele><time>2026-04-18T12:44:34.999Z</time></trkpt><trkpt lat="44.596835956337436" lon="10.531777366128939"><ele>339.0</ele><time>2026-04-18T12:44:35.999Z</time></trkpt><trkpt lat="44.59681531862511" lon="10.531931687619695"><ele>340.3333333333333</ele><time>2026-04-18T12:44:36.999Z</time></trkpt><trkpt lat="44.596804806064284" lon="10.532075762850383"><ele>341.6666666666667</ele><time>2026-04-18T12:44:37.999Z</time></trkpt><trkpt lat="44.59682176089783" lon="10.532192875334095"><ele>343.0</ele><time>2026-04-18T12:44:39.999Z</time></trkpt><trkpt lat="44.596895689913175" lon="10.532166262932368"><ele>344.33333333333337</ele><time>2026-04-18T12:44:41.999Z</time></trkpt><trkpt lat="44.59695783575166" lon="10.532137129176892"><ele>345.6666666666667</ele><time>2026-04-18T12:44:42.999Z</time></trkpt><trkpt lat="44.5970532559981" lon="10.53214654595698"><ele>347.0</ele><time>2026-04-18T12:44:44.999Z</time></trkpt><trkpt lat="44.597155949538056" lon="10.5322504762873"><ele>347.0</ele><time>2026-04-18T12:44:46.999Z</time></trkpt><trkpt lat="44.5972069389618" lon="10.532340560127743"><ele>347.0</ele><time>2026-04-18T12:44:47.999Z</time></trkpt><trkpt lat="44.597264541768176" lon="10.532440944213098"><ele>347.0</ele><time>2026-04-18T12:44:48.999Z</time></trkpt><trkpt lat="44.59731655999236" lon="10.532544393896755"><ele>347.0</ele><time>2026-04-18T12:44:49.999Z</time></trkpt><trkpt lat="44.59738372939741" lon="10.532653985750954"><ele>347.0</ele><time>2026-04-18T12:44:50.999Z</time></trkpt><trkpt lat="44.59745208317304" lon="10.532749063549167"><ele>347.0</ele><time>2026-04-18T12:44:51.999Z</time></trkpt><trkpt lat="44.59751705490487" lon="10.532840620861249"><ele>347.0</ele><time>2026-04-18T12:44:52.999Z</time></trkpt><trkpt lat="44.59758142435477" lon="10.532926849088486"><ele>347.0</ele><time>2026-04-18T12:44:53.999Z</time></trkpt><trkpt lat="44.59764108084365" lon="10.53301194463021"><ele>347.0</ele><time>2026-04-18T12:44:54.999Z</time></trkpt><trkpt lat="44.59771448399519" lon="10.533111818774806"><ele>347.0</ele><time>2026-04-18T12:44:55.999Z</time></trkpt><trkpt lat="44.59778530182355" lon="10.533205990780111"><ele>343.6666666666667</ele><time>2026-04-18T12:44:56.999Z</time></trkpt><trkpt lat="44.59784837904736" lon="10.533288165238226"><ele>340.33333333333337</ele><time>2026-04-18T12:44:57.999Z</time></trkpt><trkpt lat="44.597909007058085" lon="10.533379747283847"><ele>337.0</ele><time>2026-04-18T12:44:58.999Z</time></trkpt><trkpt lat="44.59795490700857" lon="10.533441567250234"><ele>333.6666666666667</ele><time>2026-04-18T12:44:59.999Z</time></trkpt><trkpt lat="44.598016051459695" lon="10.533513445061486"><ele>330.3333333333333</ele><time>2026-04-18T12:45:00.999Z</time></trkpt><trkpt lat="44.59806824137161" lon="10.533606833883061"><ele>327.0</ele><time>2026-04-18T12:45:01.999Z</time></trkpt><trkpt lat="44.598133012891665" lon="10.533672741820062"><ele>327.6666666666667</ele><time>2026-04-18T12:45:02.999Z</time></trkpt><trkpt lat="44.598159673131875" lon="10.533775875660103"><ele>328.3333333333333</ele><time>2026-04-18T12:45:03.999Z</time></trkpt><trkpt lat="44.5981835353468" lon="10.533869154938591"><ele>329.0</ele><time>2026-04-18T12:45:04.999Z</time></trkpt><trkpt lat="44.59817889423965" lon="10.533983382317146"><ele>329.66666666666663</ele><time>2026-04-18T12:45:05.999Z</time></trkpt><trkpt lat="44.59814747740618" lon="10.53410241665509"><ele>330.3333333333333</ele><time>2026-04-18T12:45:06.999Z</time></trkpt><trkpt lat="44.59816947432947" lon="10.534255291855166"><ele>331.0</ele><time>2026-04-18T12:45:08.999Z</time></trkpt><trkpt lat="44.598270372507095" lon="10.534320004569764"><ele>331.0</ele><time>2026-04-18T12:45:10.999Z</time></trkpt><trkpt lat="44.59842077997456" lon="10.534322960253991"><ele>331.0</ele><time>2026-04-18T12:45:13Z</time></trkpt><trkpt lat="44.59853135975202" lon="10.534312884769244"><ele>331.0</ele><time>2026-04-18T12:45:14Z</time></trkpt><trkpt lat="44.598633748378575" lon="10.53430443146819"><ele>331.0</ele><time>2026-04-18T12:45:15Z</time></trkpt><trkpt lat="44.598726593525626" lon="10.534298518702828"><ele>327.2</ele><time>2026-04-18T12:45:16Z</time></trkpt><trkpt lat="44.59879913462842" lon="10.53429439929502"><ele>323.40000000000003</ele><time>2026-04-18T12:45:17Z</time></trkpt><trkpt lat="44.59892282985729" lon="10.534303487302191"><ele>319.6</ele><time>2026-04-18T12:45:19Z</time></trkpt><trkpt lat="44.59894746586449" lon="10.534412471232606"><ele>315.8</ele><time>2026-04-18T12:45:21Z</time></trkpt><trkpt lat="44.59893707516221" lon="10.534553486646628"><ele>312.0</ele><time>2026-04-18T12:45:23Z</time></trkpt><trkpt lat="44.59891777868627" lon="10.534705063023894"><ele>310.6</ele><time>2026-04-18T12:45:24Z</time></trkpt><trkpt lat="44.598900119301796" lon="10.534837911275515"><ele>309.2</ele><time>2026-04-18T12:45:25Z</time></trkpt><trkpt lat="44.598896071887864" lon="10.53495100592427"><ele>307.8</ele><time>2026-04-18T12:45:26Z</time></trkpt><trkpt lat="44.598905830541845" lon="10.535060689405991"><ele>306.4</ele><time>2026-04-18T12:45:27Z</time></trkpt><trkpt lat="44.59898555570824" lon="10.535207552763126"><ele>305.0</ele><time>2026-04-18T12:45:29Z</time></trkpt><trkpt lat="44.599047355048" lon="10.53533395035985"><ele>303.83333333333337</ele><time>2026-04-18T12:45:30Z</time></trkpt><trkpt lat="44.59911166646954" lon="10.535445165246625"><ele>302.6666666666667</ele><time>2026-04-18T12:45:31Z</time></trkpt><trkpt lat="44.59916404461893" lon="10.535515349646213"><ele>301.5</ele><time>2026-04-18T12:45:32Z</time></trkpt><trkpt lat="44.599266365632666" lon="10.53559539229476"><ele>300.3333333333333</ele><time>2026-04-18T12:45:34Z</time></trkpt><trkpt lat="44.59932273540524" lon="10.535547286902247"><ele>299.16666666666663</ele><time>2026-04-18T12:45:35Z</time></trkpt><trkpt lat="44.59940068465388" lon="10.535537745752944"><ele>298.0</ele><time>2026-04-18T12:45:36Z</time></trkpt><trkpt lat="44.59948853140753" lon="10.535480179742367"><ele>295.66666666666663</ele><time>2026-04-18T12:45:37Z</time></trkpt><trkpt lat="44.59956431645324" lon="10.535421754229843"><ele>293.3333333333333</ele><time>2026-04-18T12:45:38Z</time></trkpt><trkpt lat="44.59961852412922" lon="10.535371949700249"><ele>291.0</ele><time>2026-04-18T12:45:38.999Z</time></trkpt><trkpt lat="44.59967028803" lon="10.535315206706246"><ele>288.6666666666667</ele><time>2026-04-18T12:45:39.999Z</time></trkpt><trkpt lat="44.59971416662709" lon="10.535248647130937"><ele>286.33333333333337</ele><time>2026-04-18T12:45:40.999Z</time></trkpt><trkpt lat="44.59977606805963" lon="10.535330231318182"><ele>284.0</ele><time>2026-04-18T12:45:43.999Z</time></trkpt><trkpt lat="44.599788077120834" lon="10.535563294181127"><ele>284.0</ele><time>2026-04-18T12:45:45.999Z</time></trkpt><trkpt lat="44.59978534024476" lon="10.535709915341679"><ele>284.0</ele><time>2026-04-18T12:45:46.999Z</time></trkpt><trkpt lat="44.599789172908984" lon="10.535825110769128"><ele>284.0</ele><time>2026-04-18T12:45:47.999Z</time></trkpt><trkpt lat="44.599821353482376" lon="10.535942611308213"><ele>284.0</ele><time>2026-04-18T12:45:48.999Z</time></trkpt><trkpt lat="44.59987468802551" lon="10.536036133797571"><ele>284.0</ele><time>2026-04-18T12:45:49.999Z</time></trkpt><trkpt lat="44.599947642816055" lon="10.536130292113617"><ele>283.25</ele><time>2026-04-18T12:45:50.999Z</time></trkpt><trkpt lat="44.60005438415277" lon="10.53624938984346"><ele>282.5</ele><time>2026-04-18T12:45:51.999Z</time></trkpt><trkpt lat="44.60013853437511" lon="10.536371107755862"><ele>281.75</ele><time>2026-04-18T12:45:52.999Z</time></trkpt><trkpt lat="44.60021436706333" lon="10.536485282239562"><ele>281.0</ele><time>2026-04-18T12:45:53.999Z</time></trkpt><trkpt lat="44.60030996181583" lon="10.536606082911238"><ele>277.0</ele><time>2026-04-18T12:45:54.999Z</time></trkpt><trkpt lat="44.60040809899203" lon="10.536737463360183"><ele>273.0</ele><time>2026-04-18T12:45:55.999Z</time></trkpt><trkpt lat="44.60050413548095" lon="10.536879246366066"><ele>269.0</ele><time>2026-04-18T12:45:56.999Z</time></trkpt><trkpt lat="44.60060924455698" lon="10.53703496911452"><ele>265.0</ele><time>2026-04-18T12:45:57.999Z</time></trkpt><trkpt lat="44.60073921815994" lon="10.537213742924058"><ele>265.0</ele><time>2026-04-18T12:45:58.999Z</time></trkpt><trkpt lat="44.600851779672645" lon="10.537373465328892"><ele>265.0</ele><time>2026-04-18T12:45:59.999Z</time></trkpt><trkpt lat="44.600968986324446" lon="10.537542906673242"><ele>265.0</ele><time>2026-04-18T12:46:00.999Z</time></trkpt><trkpt lat="44.601099197073346" lon="10.537739265622653"><ele>265.3333333333333</ele><time>2026-04-18T12:46:01.999Z</time></trkpt><trkpt lat="44.601221861200614" lon="10.537936918233543"><ele>265.6666666666667</ele><time>2026-04-18T12:46:02.999Z</time></trkpt><trkpt lat="44.60135876744874" lon="10.538178547078475"><ele>266.0</ele><time>2026-04-18T12:46:03.999Z</time></trkpt><trkpt lat="44.601474123658015" lon="10.53843782653883"><ele>266.0</ele><time>2026-04-18T12:46:04.999Z</time></trkpt><trkpt lat="44.60156837319146" lon="10.53867003509815"><ele>266.0</ele><time>2026-04-18T12:46:05.999Z</time></trkpt><trkpt lat="44.60164001002805" lon="10.538897111096905"><ele>266.0</ele><time>2026-04-18T12:46:06.999Z</time></trkpt><trkpt lat="44.60171292552363" lon="10.53912739209771"><ele>266.75</ele><time>2026-04-18T12:46:07.999Z</time></trkpt><trkpt lat="44.601762699801746" lon="10.539287479198807"><ele>267.5</ele><time>2026-04-18T12:46:08.999Z</time></trkpt><trkpt lat="44.60181181659316" lon="10.53943545135779"><ele>268.25</ele><time>2026-04-18T12:46:09.999Z</time></trkpt><trkpt lat="44.60185696284634" lon="10.53959671704426"><ele>269.0</ele><time>2026-04-18T12:46:10.999Z</time></trkpt><trkpt lat="44.60189698553035" lon="10.53971507390589"><ele>267.59999999999997</ele><time>2026-04-18T12:46:11.999Z</time></trkpt><trkpt lat="44.60193683536802" lon="10.539806530145679"><ele>266.2</ele><time>2026-04-18T12:46:12.999Z</time></trkpt><trkpt lat="44.60199319132068" lon="10.539895286108695"><ele>264.79999999999995</ele><time>2026-04-18T12:46:13.999Z</time></trkpt><trkpt lat="44.60205867406606" lon="10.540010522231027"><ele>263.4</ele><time>2026-04-18T12:46:14.999Z</time></trkpt><trkpt lat="44.60210126073254" lon="10.540108003658835"><ele>262.0</ele><time>2026-04-18T12:46:15.999Z</time></trkpt><trkpt lat="44.60215017143668" lon="10.540261254806595"><ele>261.6</ele><time>2026-04-18T12:46:16.999Z</time></trkpt><trkpt lat="44.60219634764604" lon="10.540394932665563"><ele>261.2</ele><time>2026-04-18T12:46:17.999Z</time></trkpt><trkpt lat="44.60223911750362" lon="10.540509542671627"><ele>260.8</ele><time>2026-04-18T12:46:18.999Z</time></trkpt><trkpt lat="44.60228494949072" lon="10.54063879601884"><ele>260.4</ele><time>2026-04-18T12:46:19.999Z</time></trkpt><trkpt lat="44.602323431341155" lon="10.540756391313867"><ele>260.0</ele><time>2026-04-18T12:46:20.999Z</time></trkpt><trkpt lat="44.60235657915959" lon="10.540849817854832"><ele>260.00000000000006</ele><time>2026-04-18T12:46:21.999Z</time></trkpt><trkpt lat="44.602386860648274" lon="10.540942632308651"><ele>260.0</ele><time>2026-04-18T12:46:22.999Z</time></trkpt><trkpt lat="44.60241956202771" lon="10.541023879513851"><ele>260.0</ele><time>2026-04-18T12:46:23.999Z</time></trkpt><trkpt lat="44.602448207271536" lon="10.541114163672743"><ele>260.0</ele><time>2026-04-18T12:46:24.999Z</time></trkpt><trkpt lat="44.602479003328135" lon="10.541216534506562"><ele>260.0</ele><time>2026-04-18T12:46:25.999Z</time></trkpt><trkpt lat="44.602513251463755" lon="10.54132375374458"><ele>260.00000000000006</ele><time>2026-04-18T12:46:26.999Z</time></trkpt><trkpt lat="44.602547397584495" lon="10.541417157778683"><ele>260.0</ele><time>2026-04-18T12:46:27.999Z</time></trkpt><trkpt lat="44.60258965582439" lon="10.54156493649983"><ele>258.25</ele><time>2026-04-18T12:46:28.999Z</time></trkpt><trkpt lat="44.60263986874011" lon="10.541725803446862"><ele>256.5</ele><time>2026-04-18T12:46:29.999Z</time></trkpt><trkpt lat="44.60269123938908" lon="10.541865903720444"><ele>254.75</ele><time>2026-04-18T12:46:30.999Z</time></trkpt><trkpt lat="44.602737326677065" lon="10.542009188063739"><ele>253.0</ele><time>2026-04-18T12:46:31.999Z</time></trkpt><trkpt lat="44.60279724436495" lon="10.54215515757147"><ele>249.75</ele><time>2026-04-18T12:46:32.999Z</time></trkpt><trkpt lat="44.60288053749299" lon="10.542301204058596"><ele>246.5</ele><time>2026-04-18T12:46:33.999Z</time></trkpt><trkpt lat="44.60298294361363" lon="10.542448562738373"><ele>243.25</ele><time>2026-04-18T12:46:34.999Z</time></trkpt><trkpt lat="44.60308406346919" lon="10.542583738166936"><ele>240.0</ele><time>2026-04-18T12:46:35.999Z</time></trkpt><trkpt lat="44.60318979675469" lon="10.542718820456967"><ele>240.0</ele><time>2026-04-18T12:46:36.999Z</time></trkpt><trkpt lat="44.60328532051268" lon="10.542852438983912"><ele>240.0</ele><time>2026-04-18T12:46:37.999Z</time></trkpt><trkpt lat="44.60338753905732" lon="10.542994335080724"><ele>240.0</ele><time>2026-04-18T12:46:38.999Z</time></trkpt><trkpt lat="44.60347619276519" lon="10.54312773133015"><ele>240.0</ele><time>2026-04-18T12:46:39.999Z</time></trkpt><trkpt lat="44.603562457557295" lon="10.543252523651123"><ele>238.4</ele><time>2026-04-18T12:46:40.999Z</time></trkpt><trkpt lat="44.603646131066895" lon="10.543378402198398"><ele>236.8</ele><time>2026-04-18T12:46:41.999Z</time></trkpt><trkpt lat="44.60372726881886" lon="10.543484198345197"><ele>235.2</ele><time>2026-04-18T12:46:42.999Z</time></trkpt><trkpt lat="44.60379748644796" lon="10.543577781598644"><ele>233.6</ele><time>2026-04-18T12:46:43.999Z</time></trkpt><trkpt lat="44.60385445519684" lon="10.543672229777266"><ele>232.0</ele><time>2026-04-18T12:46:44.999Z</time></trkpt><trkpt lat="44.60391234801474" lon="10.543772927083365"><ele>230.39999999999998</ele><time>2026-04-18T12:46:45.999Z</time></trkpt><trkpt lat="44.60395551514047" lon="10.543903026833792"><ele>228.79999999999998</ele><time>2026-04-18T12:46:46.999Z</time></trkpt><trkpt lat="44.603994122459845" lon="10.544042499445755"><ele>227.2</ele><time>2026-04-18T12:46:47.999Z</time></trkpt><trkpt lat="44.604032626328504" lon="10.544199699755794"><ele>225.6</ele><time>2026-04-18T12:46:48.999Z</time></trkpt><trkpt lat="44.604068570476194" lon="10.54434475969063"><ele>224.0</ele><time>2026-04-18T12:46:49.999Z</time></trkpt><trkpt lat="44.604101242309504" lon="10.544474842685228"><ele>221.79999999999998</ele><time>2026-04-18T12:46:50.999Z</time></trkpt><trkpt lat="44.6041309744061" lon="10.544594034427389"><ele>219.59999999999997</ele><time>2026-04-18T12:46:51.999Z</time></trkpt><trkpt lat="44.60417200812085" lon="10.544703530958873"><ele>217.4</ele><time>2026-04-18T12:46:52.999Z</time></trkpt><trkpt lat="44.60422229462679" lon="10.544811925114656"><ele>215.2</ele><time>2026-04-18T12:46:53.999Z</time></trkpt><trkpt lat="44.604301497542934" lon="10.544907870991777"><ele>213.0</ele><time>2026-04-18T12:46:54.999Z</time></trkpt><trkpt lat="44.60438935968841" lon="10.54499675071229"><ele>213.0</ele><time>2026-04-18T12:46:55.999Z</time></trkpt><trkpt lat="44.604473279417995" lon="10.545105981619747"><ele>213.0</ele><time>2026-04-18T12:46:56.999Z</time></trkpt><trkpt lat="44.60454819437865" lon="10.54519747768757"><ele>213.0</ele><time>2026-04-18T12:46:57.999Z</time></trkpt><trkpt lat="44.60461422232612" lon="10.545293850280956"><ele>213.0</ele><time>2026-04-18T12:46:58.999Z</time></trkpt><trkpt lat="44.60467441147488" lon="10.545406093856506"><ele>213.0</ele><time>2026-04-18T12:46:59.999Z</time></trkpt><trkpt lat="44.604750874290566" lon="10.545489917661016"><ele>207.75</ele><time>2026-04-18T12:47:01Z</time></trkpt><trkpt lat="44.6047416488389" lon="10.545697705434671"><ele>202.5</ele><time>2026-04-18T12:47:02Z</time></trkpt><trkpt lat="44.60476298865409" lon="10.545837456072874"><ele>197.25</ele><time>2026-04-18T12:47:03Z</time></trkpt><trkpt lat="44.60480065759076" lon="10.545986926258847"><ele>192.0</ele><time>2026-04-18T12:47:04Z</time></trkpt><trkpt lat="44.60483934335411" lon="10.54612603879173"><ele>190.5</ele><time>2026-04-18T12:47:05Z</time></trkpt><trkpt lat="44.60489995885619" lon="10.546258088032003"><ele>189.0</ele><time>2026-04-18T12:47:06Z</time></trkpt><trkpt lat="44.604963237209255" lon="10.546387475749077"><ele>187.5</ele><time>2026-04-18T12:47:07Z</time></trkpt><trkpt lat="44.60502424689044" lon="10.546523982734819"><ele>186.0</ele><time>2026-04-18T12:47:08Z</time></trkpt><trkpt lat="44.6050799537756" lon="10.546661110192995"><ele>186.0</ele><time>2026-04-18T12:47:09Z</time></trkpt><trkpt lat="44.60512401744493" lon="10.546774189118269"><ele>186.0</ele><time>2026-04-18T12:47:10Z</time></trkpt><trkpt lat="44.60515428519238" lon="10.54685493882267"><ele>186.0</ele><time>2026-04-18T12:47:11Z</time></trkpt><trkpt lat="44.60516071265311" lon="10.546994609805447"><ele>186.0</ele><time>2026-04-18T12:47:13Z</time></trkpt><trkpt lat="44.60520227445838" lon="10.547079015868432"><ele>186.0</ele><time>2026-04-18T12:47:16Z</time></trkpt><trkpt lat="44.60518891544678" lon="10.546979308089481"><ele>186.0</ele><time>2026-04-18T12:47:19Z</time></trkpt><trkpt lat="44.60517521038197" lon="10.546889470030443"><ele>186.0</ele><time>2026-04-18T12:47:20Z</time></trkpt><trkpt lat="44.60513713130766" lon="10.546815747710694"><ele>186.0</ele><time>2026-04-18T12:47:21Z</time></trkpt><trkpt lat="44.605124502561274" lon="10.546728966689946"><ele>186.0</ele><time>2026-04-18T12:47:23Z</time></trkpt><trkpt lat="44.605304414423486" lon="10.546565057582248"><ele>186.0</ele><time>2026-04-18T12:47:24Z</time></trkpt><trkpt lat="44.605361590814574" lon="10.546481150395916"><ele>186.0</ele><time>2026-04-18T12:47:25Z</time></trkpt><trkpt lat="44.60542327540274" lon="10.546389274488476"><ele>182.83333333333334</ele><time>2026-04-18T12:47:26Z</time></trkpt><trkpt lat="44.60548455852247" lon="10.546314638938442"><ele>179.66666666666666</ele><time>2026-04-18T12:47:27Z</time></trkpt><trkpt lat="44.605533824230434" lon="10.546251104376548"><ele>176.5</ele><time>2026-04-18T12:47:28Z</time></trkpt><trkpt lat="44.60560448369682" lon="10.54617118878285"><ele>173.33333333333331</ele><time>2026-04-18T12:47:30Z</time></trkpt><trkpt lat="44.60569002763724" lon="10.54608560913903"><ele>170.16666666666666</ele><time>2026-04-18T12:47:32Z</time></trkpt><trkpt lat="44.60574223568805" lon="10.54602929884977"><ele>167.0</ele><time>2026-04-18T12:47:33Z</time></trkpt><trkpt lat="44.60580145930463" lon="10.54597115749548"><ele>167.0</ele><time>2026-04-18T12:47:34Z</time></trkpt><trkpt lat="44.60590688837298" lon="10.54585922271869"><ele>167.0</ele><time>2026-04-18T12:47:36Z</time></trkpt><trkpt lat="44.60596675998319" lon="10.545794384674487"><ele>167.0</ele><time>2026-04-18T12:47:37Z</time></trkpt><trkpt lat="44.60603577664164" lon="10.545720367681252"><ele>167.0</ele><time>2026-04-18T12:47:39Z</time></trkpt><trkpt lat="44.60612254691729" lon="10.545607334306878"><ele>167.0</ele><time>2026-04-18T12:47:41Z</time></trkpt><trkpt lat="44.606208550388864" lon="10.545502062517551"><ele>165.4</ele><time>2026-04-18T12:47:42Z</time></trkpt><trkpt lat="44.60628537374949" lon="10.545420664655797"><ele>163.79999999999998</ele><time>2026-04-18T12:47:43Z</time></trkpt><trkpt lat="44.606344120599715" lon="10.545347459583457"><ele>162.2</ele><time>2026-04-18T12:47:44Z</time></trkpt><trkpt lat="44.60641575485972" lon="10.54525564086375"><ele>160.6</ele><time>2026-04-18T12:47:46Z</time></trkpt><trkpt lat="44.606508576802746" lon="10.545189211400361"><ele>159.0</ele><time>2026-04-18T12:47:48Z</time></trkpt><trkpt lat="44.60659297792465" lon="10.54515100722386"><ele>159.0</ele><time>2026-04-18T12:47:49Z</time></trkpt><trkpt lat="44.606668518587334" lon="10.545102990221288"><ele>159.0</ele><time>2026-04-18T12:47:50Z</time></trkpt><trkpt lat="44.60674070708499" lon="10.545061851125846"><ele>159.0</ele><time>2026-04-18T12:47:51Z</time></trkpt><trkpt lat="44.60684437543095" lon="10.545018773265804"><ele>159.0</ele><time>2026-04-18T12:47:53Z</time></trkpt><trkpt lat="44.60692954144428" lon="10.545053683863188"><ele>159.0</ele><time>2026-04-18T12:47:55Z</time></trkpt><trkpt lat="44.606979452085476" lon="10.545116913974587"><ele>159.0</ele><time>2026-04-18T12:47:56Z</time></trkpt><trkpt lat="44.60705255502874" lon="10.545271085493656"><ele>158.6</ele><time>2026-04-18T12:47:58Z</time></trkpt><trkpt lat="44.60710833927719" lon="10.54538606762848"><ele>158.2</ele><time>2026-04-18T12:48:00Z</time></trkpt><trkpt lat="44.607171804610125" lon="10.545520313743593"><ele>157.79999999999998</ele><time>2026-04-18T12:48:02Z</time></trkpt><trkpt lat="44.60718036423125" lon="10.54565292034112"><ele>157.4</ele><time>2026-04-18T12:48:04Z</time></trkpt><trkpt lat="44.60719849555159" lon="10.545765202479977"><ele>157.0</ele><time>2026-04-18T12:48:06Z</time></trkpt><trkpt lat="44.60724438864442" lon="10.545886283308887"><ele>157.0</ele><time>2026-04-18T12:48:08Z</time></trkpt><trkpt lat="44.607288423093834" lon="10.54596524377871"><ele>157.0</ele><time>2026-04-18T12:48:10Z</time></trkpt><trkpt lat="44.607361938169454" lon="10.54599909592436"><ele>157.0</ele><time>2026-04-18T12:48:12Z</time></trkpt><trkpt lat="44.60746703347787" lon="10.545949077004888"><ele>157.0</ele><time>2026-04-18T12:48:14Z</time></trkpt><trkpt lat="44.60754165369978" lon="10.545884440928218"><ele>157.0</ele><time>2026-04-18T12:48:15Z</time></trkpt><trkpt lat="44.60762264446468" lon="10.54581181130471"><ele>157.0</ele><time>2026-04-18T12:48:16Z</time></trkpt><trkpt lat="44.60770435274534" lon="10.545745289012547"><ele>157.0</ele><time>2026-04-18T12:48:17Z</time></trkpt><trkpt lat="44.60778378455424" lon="10.545676621275808"><ele>157.0</ele><time>2026-04-18T12:48:17.999Z</time></trkpt><trkpt lat="44.60785315415933" lon="10.545618059164118"><ele>157.0</ele><time>2026-04-18T12:48:18.999Z</time></trkpt><trkpt lat="44.60791749017687" lon="10.545557183569302"><ele>157.0</ele><time>2026-04-18T12:48:19.999Z</time></trkpt><trkpt lat="44.60798247079025" lon="10.545487147253027"><ele>157.0</ele><time>2026-04-18T12:48:20.999Z</time></trkpt><trkpt lat="44.60806296859883" lon="10.545407984974974"><ele>157.0</ele><time>2026-04-18T12:48:21.999Z</time></trkpt><trkpt lat="44.608154064515574" lon="10.545317057322046"><ele>158.39999999999998</ele><time>2026-04-18T12:48:22.999Z</time></trkpt><trkpt lat="44.6082520231428" lon="10.545217668335424"><ele>159.79999999999998</ele><time>2026-04-18T12:48:23.999Z</time></trkpt><trkpt lat="44.608332926267785" lon="10.545134036846731"><ele>161.2</ele><time>2026-04-18T12:48:24.999Z</time></trkpt><trkpt lat="44.60841057849557" lon="10.545054849522938"><ele>162.6</ele><time>2026-04-18T12:48:25.999Z</time></trkpt><trkpt lat="44.60848235068584" lon="10.544978483151224"><ele>164.0</ele><time>2026-04-18T12:48:26.999Z</time></trkpt><trkpt lat="44.60855290066107" lon="10.544892998244965"><ele>164.0</ele><time>2026-04-18T12:48:27.999Z</time></trkpt><trkpt lat="44.60863516190261" lon="10.544807372022799"><ele>164.0</ele><time>2026-04-18T12:48:28.999Z</time></trkpt><trkpt lat="44.60870148732672" lon="10.544760933424149"><ele>164.0</ele><time>2026-04-18T12:48:29.999Z</time></trkpt><trkpt lat="44.60876164942736" lon="10.544700219835786"><ele>164.0</ele><time>2026-04-18T12:48:30.999Z</time></trkpt><trkpt lat="44.60883958999607" lon="10.544634836839172"><ele>164.0</ele><time>2026-04-18T12:48:31.999Z</time></trkpt><trkpt lat="44.60891087864641" lon="10.544584837067013"><ele>164.0</ele><time>2026-04-18T12:48:32.999Z</time></trkpt><trkpt lat="44.60901776351725" lon="10.54450793430563"><ele>165.6</ele><time>2026-04-18T12:48:34.999Z</time></trkpt><trkpt lat="44.6091063901738" lon="10.544429420385988"><ele>167.2</ele><time>2026-04-18T12:48:36.999Z</time></trkpt><trkpt lat="44.609192408733655" lon="10.5443895241729"><ele>168.79999999999998</ele><time>2026-04-18T12:48:38.999Z</time></trkpt><trkpt lat="44.609194820544126" lon="10.544246827200048"><ele>170.39999999999998</ele><time>2026-04-18T12:48:41.999Z</time></trkpt><trkpt lat="44.609243921477386" lon="10.54415812485153"><ele>172.0</ele><time>2026-04-18T12:48:43.999Z</time></trkpt><trkpt lat="44.60922052234479" lon="10.54405058090286"><ele>172.0</ele><time>2026-04-18T12:48:44.999Z</time></trkpt><trkpt lat="44.60919513474211" lon="10.543915026553794"><ele>172.0</ele><time>2026-04-18T12:48:45.999Z</time></trkpt><trkpt lat="44.609149629007646" lon="10.543776206335984"><ele>172.0</ele><time>2026-04-18T12:48:46.999Z</time></trkpt><trkpt lat="44.60913658161699" lon="10.543644066483575"><ele>172.0</ele><time>2026-04-18T12:48:47.999Z</time></trkpt><trkpt lat="44.609129549255414" lon="10.54348343746417"><ele>172.0</ele><time>2026-04-18T12:48:48.999Z</time></trkpt><trkpt lat="44.60912971605911" lon="10.543310050666667"><ele>173.0</ele><time>2026-04-18T12:48:49.999Z</time></trkpt><trkpt lat="44.609159174883004" lon="10.543127061629491"><ele>174.0</ele><time>2026-04-18T12:48:50.999Z</time></trkpt><trkpt lat="44.60915541006292" lon="10.542925680386993"><ele>175.0</ele><time>2026-04-18T12:48:51.999Z</time></trkpt><trkpt lat="44.60915033765376" lon="10.542677396304724"><ele>176.0</ele><time>2026-04-18T12:48:52.999Z</time></trkpt><trkpt lat="44.609142502747574" lon="10.542382404723973"><ele>177.0</ele><time>2026-04-18T12:48:53.999Z</time></trkpt><trkpt lat="44.60913697636026" lon="10.54212019006009"><ele>178.0</ele><time>2026-04-18T12:48:54.999Z</time></trkpt><trkpt lat="44.60912832983645" lon="10.54182846337451"><ele>179.0</ele><time>2026-04-18T12:48:55.999Z</time></trkpt><trkpt lat="44.609099375279925" lon="10.541595416104501"><ele>180.0</ele><time>2026-04-18T12:48:56.999Z</time></trkpt><trkpt lat="44.60905297575203" lon="10.541392156351607"><ele>181.0</ele><time>2026-04-18T12:48:57.999Z</time></trkpt><trkpt lat="44.609004554892635" lon="10.541189274218498"><ele>181.75</ele><time>2026-04-18T12:48:58.999Z</time></trkpt><trkpt lat="44.60894445310793" lon="10.54100249885469"><ele>182.5</ele><time>2026-04-18T12:48:59.999Z</time></trkpt><trkpt lat="44.60890994485873" lon="10.540819648210721"><ele>183.25</ele><time>2026-04-18T12:49:00.999Z</time></trkpt><trkpt lat="44.60885558653994" lon="10.540634362685541"><ele>184.0</ele><time>2026-04-18T12:49:01.999Z</time></trkpt><trkpt lat="44.60879439195864" lon="10.54045218171948"><ele>183.0</ele><time>2026-04-18T12:49:02.999Z</time></trkpt><trkpt lat="44.608720988028054" lon="10.540274276690539"><ele>182.0</ele><time>2026-04-18T12:49:03.999Z</time></trkpt><trkpt lat="44.60865737061589" lon="10.540122327732867"><ele>181.0</ele><time>2026-04-18T12:49:04.999Z</time></trkpt><trkpt lat="44.60860171937157" lon="10.539991267460028"><ele>180.0</ele><time>2026-04-18T12:49:05.999Z</time></trkpt><trkpt lat="44.60856039608394" lon="10.53989471641756"><ele>180.0</ele><time>2026-04-18T12:49:07Z</time></trkpt><trkpt lat="44.60850204663872" lon="10.53998032452658"><ele>180.0</ele><time>2026-04-18T12:49:13Z</time></trkpt><trkpt lat="44.60854464340239" lon="10.54007422602764"><ele>180.0</ele><time>2026-04-18T12:49:14Z</time></trkpt><trkpt lat="44.608604116857634" lon="10.54018282614984"><ele>180.0</ele><time>2026-04-18T12:49:15Z</time></trkpt><trkpt lat="44.60865891616615" lon="10.540315180277995"><ele>180.0</ele><time>2026-04-18T12:49:16Z</time></trkpt><trkpt lat="44.60871930275581" lon="10.540468953251565"><ele>181.0</ele><time>2026-04-18T12:49:17Z</time></trkpt><trkpt lat="44.608782533035445" lon="10.540623155076021"><ele>182.0</ele><time>2026-04-18T12:49:18Z</time></trkpt><trkpt lat="44.60883355688714" lon="10.540753245187762"><ele>183.0</ele><time>2026-04-18T12:49:19Z</time></trkpt><trkpt lat="44.60887591593415" lon="10.540873744956086"><ele>184.0</ele><time>2026-04-18T12:49:20Z</time></trkpt><trkpt lat="44.608746242453144" lon="10.541085595229987"><ele>184.0</ele><time>2026-04-18T12:49:21Z</time></trkpt><trkpt lat="44.60878276487643" lon="10.54119432040816"><ele>184.0</ele><time>2026-04-18T12:49:22Z</time></trkpt><trkpt lat="44.60881512861172" lon="10.541290664311056"><ele>184.0</ele><time>2026-04-18T12:49:23Z</time></trkpt><trkpt lat="44.608862209544725" lon="10.541430819970772"><ele>184.0</ele><time>2026-04-18T12:49:25Z</time></trkpt><trkpt lat="44.6089132200843" lon="10.54149464490633"><ele>184.0</ele><time>2026-04-18T12:49:27Z</time></trkpt><trkpt lat="44.60919392648061" lon="10.541322209457094"><ele>184.0</ele><time>2026-04-18T12:49:28Z</time></trkpt><trkpt lat="44.60924917217142" lon="10.541258069394681"><ele>184.0</ele><time>2026-04-18T12:49:29Z</time></trkpt><trkpt lat="44.60928507064071" lon="10.541164920541652"><ele>184.0</ele><time>2026-04-18T12:49:30Z</time></trkpt><trkpt lat="44.609281571850566" lon="10.541061770643234"><ele>184.0</ele><time>2026-04-18T12:49:31Z</time></trkpt><trkpt lat="44.60925018716759" lon="10.540956697956316"><ele>184.0</ele><time>2026-04-18T12:49:32Z</time></trkpt><trkpt lat="44.60921684074173" lon="10.54084376181268"><ele>184.0</ele><time>2026-04-18T12:49:33Z</time></trkpt><trkpt lat="44.60918362029198" lon="10.540730150176575"><ele>184.0</ele><time>2026-04-18T12:49:34Z</time></trkpt><trkpt lat="44.60915155809427" lon="10.54062505122263"><ele>184.0</ele><time>2026-04-18T12:49:35Z</time></trkpt><trkpt lat="44.609117470041674" lon="10.54050546761256"><ele>184.0</ele><time>2026-04-18T12:49:36Z</time></trkpt><trkpt lat="44.60908882672343" lon="10.540386605548594"><ele>184.0</ele><time>2026-04-18T12:49:37Z</time></trkpt><trkpt lat="44.609078458851876" lon="10.540296718349849"><ele>184.0</ele><time>2026-04-18T12:49:38Z</time></trkpt><trkpt lat="44.60908501363789" lon="10.540185016149616"><ele>184.0</ele><time>2026-04-18T12:49:39Z</time></trkpt><trkpt lat="44.60909442615185" lon="10.540069199034694"><ele>185.2</ele><time>2026-04-18T12:49:40Z</time></trkpt><trkpt lat="44.60909143887249" lon="10.539977884545387"><ele>186.39999999999998</ele><time>2026-04-18T12:49:41Z</time></trkpt><trkpt lat="44.60907143007824" lon="10.53983579110644"><ele>187.6</ele><time>2026-04-18T12:49:43Z</time></trkpt><trkpt lat="44.60912901985848" lon="10.539728048045765"><ele>188.8</ele><time>2026-04-18T12:49:45Z</time></trkpt><trkpt lat="44.60918077316881" lon="10.539672934517355"><ele>190.0</ele><time>2026-04-18T12:49:46Z</time></trkpt><trkpt lat="44.609267646929155" lon="10.539510050555617"><ele>191.5</ele><time>2026-04-18T12:49:48Z</time></trkpt><trkpt lat="44.60932457873188" lon="10.539366866934312"><ele>193.0</ele><time>2026-04-18T12:49:49Z</time></trkpt><trkpt lat="44.60938357487985" lon="10.539200371195918"><ele>194.5</ele><time>2026-04-18T12:49:50Z</time></trkpt><trkpt lat="44.60945757843041" lon="10.5390301317455"><ele>196.0</ele><time>2026-04-18T12:49:51Z</time></trkpt><trkpt lat="44.60956978544573" lon="10.538906540727117"><ele>199.4</ele><time>2026-04-18T12:49:52Z</time></trkpt><trkpt lat="44.60961814528404" lon="10.538767997193695"><ele>202.8</ele><time>2026-04-18T12:49:53Z</time></trkpt><trkpt lat="44.609648679041555" lon="10.538640802853912"><ele>206.20000000000002</ele><time>2026-04-18T12:49:54Z</time></trkpt><trkpt lat="44.60966250459415" lon="10.538519724002331"><ele>209.60000000000002</ele><time>2026-04-18T12:49:55Z</time></trkpt><trkpt lat="44.60967846641699" lon="10.538371787002207"><ele>213.0</ele><time>2026-04-18T12:49:56Z</time></trkpt><trkpt lat="44.609705501804065" lon="10.538244128134561"><ele>214.0</ele><time>2026-04-18T12:49:57Z</time></trkpt><trkpt lat="44.609747644228655" lon="10.538127781"><ele>215.0</ele><time>2026-04-18T12:49:58Z</time></trkpt><trkpt lat="44.609807811525826" lon="10.538019532429661"><ele>216.0</ele><time>2026-04-18T12:49:59Z</time></trkpt><trkpt lat="44.60987161721606" lon="10.53792130197471"><ele>217.0</ele><time>2026-04-18T12:50:00Z</time></trkpt><trkpt lat="44.60994145045769" lon="10.537836641013353"><ele>218.0</ele><time>2026-04-18T12:50:01Z</time></trkpt><trkpt lat="44.61001956257748" lon="10.537761123441092"><ele>219.00000000000003</ele><time>2026-04-18T12:50:02Z</time></trkpt><trkpt lat="44.610103856998506" lon="10.537689463758989"><ele>220.0</ele><time>2026-04-18T12:50:03Z</time></trkpt><trkpt lat="44.61017046531635" lon="10.537598162892511"><ele>221.0</ele><time>2026-04-18T12:50:04Z</time></trkpt><trkpt lat="44.61024034875734" lon="10.537534719381876"><ele>222.0</ele><time>2026-04-18T12:50:05Z</time></trkpt><trkpt lat="44.61027670160478" lon="10.537452006055418"><ele>223.00000000000003</ele><time>2026-04-18T12:50:06Z</time></trkpt><trkpt lat="44.61031452769614" lon="10.537351827390726"><ele>224.0</ele><time>2026-04-18T12:50:07Z</time></trkpt><trkpt lat="44.61032680523287" lon="10.537251391105572"><ele>224.33333333333334</ele><time>2026-04-18T12:50:08Z</time></trkpt><trkpt lat="44.61034188081351" lon="10.537093188951307"><ele>224.66666666666669</ele><time>2026-04-18T12:50:10Z</time></trkpt><trkpt lat="44.6103418963332" lon="10.536991196456142"><ele>225.0</ele><time>2026-04-18T12:50:11Z</time></trkpt><trkpt lat="44.61034612488031" lon="10.536884100932944"><ele>225.33333333333331</ele><time>2026-04-18T12:50:12Z</time></trkpt><trkpt lat="44.61034490709463" lon="10.53679384190857"><ele>225.66666666666666</ele><time>2026-04-18T12:50:13Z</time></trkpt><trkpt lat="44.61035414433263" lon="10.53668023190664"><ele>226.0</ele><time>2026-04-18T12:50:14Z</time></trkpt><trkpt lat="44.61036045910093" lon="10.536579404616841"><ele>227.0</ele><time>2026-04-18T12:50:15Z</time></trkpt><trkpt lat="44.610360086054776" lon="10.53648946475176"><ele>228.0</ele><time>2026-04-18T12:50:16Z</time></trkpt><trkpt lat="44.61040670398243" lon="10.53640178687907"><ele>229.0</ele><time>2026-04-18T12:50:17Z</time></trkpt><trkpt lat="44.61041115474005" lon="10.53630766241552"><ele>230.0</ele><time>2026-04-18T12:50:18Z</time></trkpt><trkpt lat="44.61041728923696" lon="10.536194550111622"><ele>231.0</ele><time>2026-04-18T12:50:19Z</time></trkpt><trkpt lat="44.61042449087444" lon="10.536098702617812"><ele>232.0</ele><time>2026-04-18T12:50:20Z</time></trkpt><trkpt lat="44.61043651963725" lon="10.535973174649982"><ele>233.0</ele><time>2026-04-18T12:50:21Z</time></trkpt><trkpt lat="44.610456156680684" lon="10.535847399700113"><ele>235.2</ele><time>2026-04-18T12:50:22Z</time></trkpt><trkpt lat="44.610491393266535" lon="10.535714933904304"><ele>237.4</ele><time>2026-04-18T12:50:23Z</time></trkpt><trkpt lat="44.61052096991163" lon="10.535624184189231"><ele>239.59999999999997</ele><time>2026-04-18T12:50:24Z</time></trkpt><trkpt lat="44.61056575186699" lon="10.535497599567016"><ele>241.79999999999998</ele><time>2026-04-18T12:50:25Z</time></trkpt><trkpt lat="44.61061824258656" lon="10.535391183330534"><ele>244.0</ele><time>2026-04-18T12:50:26Z</time></trkpt><trkpt lat="44.61066002576032" lon="10.535258112999587"><ele>246.39999999999998</ele><time>2026-04-18T12:50:27Z</time></trkpt><trkpt lat="44.61068311193331" lon="10.535153658002917"><ele>248.79999999999998</ele><time>2026-04-18T12:50:28Z</time></trkpt><trkpt lat="44.61070018008305" lon="10.535037269893566"><ele>251.20000000000002</ele><time>2026-04-18T12:50:29Z</time></trkpt><trkpt lat="44.61072159855948" lon="10.534892835590012"><ele>253.60000000000002</ele><time>2026-04-18T12:50:30Z</time></trkpt><trkpt lat="44.610743057139636" lon="10.53472760873926"><ele>256.0</ele><time>2026-04-18T12:50:30.999Z</time></trkpt><trkpt lat="44.61075814155587" lon="10.534588752652123"><ele>257.5</ele><time>2026-04-18T12:50:31.999Z</time></trkpt><trkpt lat="44.610768981623536" lon="10.534451651854395"><ele>259.0</ele><time>2026-04-18T12:50:32.999Z</time></trkpt><trkpt lat="44.61077218491908" lon="10.534328563469149"><ele>260.5</ele><time>2026-04-18T12:50:33.999Z</time></trkpt><trkpt lat="44.61077510930331" lon="10.534220336351186"><ele>262.0</ele><time>2026-04-18T12:50:34.999Z</time></trkpt><trkpt lat="44.61077746458019" lon="10.53410581071546"><ele>263.5</ele><time>2026-04-18T12:50:35.999Z</time></trkpt><trkpt lat="44.61078064338118" lon="10.533995279522678"><ele>265.0</ele><time>2026-04-18T12:50:36.999Z</time></trkpt><trkpt lat="44.61078673775804" lon="10.533839519858418"><ele>264.99999999999994</ele><time>2026-04-18T12:50:38.999Z</time></trkpt><trkpt lat="44.61079152546647" lon="10.533742614751878"><ele>265.0</ele><time>2026-04-18T12:50:40.999Z</time></trkpt><trkpt lat="44.61072160799912" lon="10.533695079805208"><ele>265.0</ele><time>2026-04-18T12:50:45.999Z</time></trkpt><trkpt lat="44.61076068302148" lon="10.533621102912448"><ele>265.0</ele><time>2026-04-18T12:50:49.999Z</time></trkpt><trkpt lat="44.61077921859753" lon="10.533524686861615"><ele>265.0</ele><time>2026-04-18T12:50:52.999Z</time></trkpt><trkpt lat="44.61080300934183" lon="10.533434375477448"><ele>264.99999999999994</ele><time>2026-04-18T12:50:55.999Z</time></trkpt><trkpt lat="44.6108403979063" lon="10.533336872005052"><ele>265.0</ele><time>2026-04-18T12:51:00.999Z</time></trkpt><trkpt lat="44.61087389353806" lon="10.533258342934795"><ele>265.0</ele><time>2026-04-18T12:51:02.999Z</time></trkpt><trkpt lat="44.61089881437677" lon="10.53310742072732"><ele>265.0</ele><time>2026-04-18T12:51:04.999Z</time></trkpt><trkpt lat="44.610919654669445" lon="10.533015111085389"><ele>265.0</ele><time>2026-04-18T12:51:05.999Z</time></trkpt><trkpt lat="44.610940947029256" lon="10.532907722621975"><ele>265.0</ele><time>2026-04-18T12:51:06.999Z</time></trkpt><trkpt lat="44.610963309903454" lon="10.532808170839473"><ele>265.0</ele><time>2026-04-18T12:51:07.999Z</time></trkpt><trkpt lat="44.61099100132377" lon="10.532684690298503"><ele>265.0</ele><time>2026-04-18T12:51:08.999Z</time></trkpt><trkpt lat="44.61102828821088" lon="10.532554434525391"><ele>265.0</ele><time>2026-04-18T12:51:09.999Z</time></trkpt><trkpt lat="44.61105252231225" lon="10.532425220110799"><ele>265.0</ele><time>2026-04-18T12:51:10.999Z</time></trkpt><trkpt lat="44.6110775769059" lon="10.532292399937061"><ele>265.0</ele><time>2026-04-18T12:51:12Z</time></trkpt><trkpt lat="44.61108850070891" lon="10.532196221842334"><ele>265.0</ele><time>2026-04-18T12:51:13Z</time></trkpt><trkpt lat="44.611108474594964" lon="10.532108726578711"><ele>265.0</ele><time>2026-04-18T12:51:14Z</time></trkpt><trkpt lat="44.61113181745469" lon="10.532022618366184"><ele>265.0</ele><time>2026-04-18T12:51:15Z</time></trkpt><trkpt lat="44.611159378963876" lon="10.531925190053544"><ele>264.8333333333333</ele><time>2026-04-18T12:51:16Z</time></trkpt><trkpt lat="44.6111947112988" lon="10.531829857642023"><ele>264.66666666666663</ele><time>2026-04-18T12:51:17Z</time></trkpt><trkpt lat="44.61126039889477" lon="10.531686516266992"><ele>264.5</ele><time>2026-04-18T12:51:19Z</time></trkpt><trkpt lat="44.61130083721259" lon="10.531617754128158"><ele>264.3333333333333</ele><time>2026-04-18T12:51:20Z</time></trkpt><trkpt lat="44.611349207859284" lon="10.531558023569112"><ele>264.1666666666667</ele><time>2026-04-18T12:51:21Z</time></trkpt><trkpt lat="44.6114354400125" lon="10.531521260817305"><ele>264.0</ele><time>2026-04-18T12:51:22Z</time></trkpt><trkpt lat="44.611530540177434" lon="10.531446445184057"><ele>264.0</ele><time>2026-04-18T12:51:23Z</time></trkpt><trkpt lat="44.611638689270585" lon="10.5313817512462"><ele>264.0</ele><time>2026-04-18T12:51:24Z</time></trkpt><trkpt lat="44.61174770882847" lon="10.531332872800487"><ele>264.0</ele><time>2026-04-18T12:51:25Z</time></trkpt><trkpt lat="44.61184397383474" lon="10.531265889190694"><ele>264.0</ele><time>2026-04-18T12:51:26Z</time></trkpt><trkpt lat="44.61193951479026" lon="10.531223037664734"><ele>264.0</ele><time>2026-04-18T12:51:27Z</time></trkpt><trkpt lat="44.61201879563056" lon="10.531166396598021"><ele>263.4</ele><time>2026-04-18T12:51:28Z</time></trkpt><trkpt lat="44.612076481280425" lon="10.531093111635101"><ele>262.79999999999995</ele><time>2026-04-18T12:51:29Z</time></trkpt><trkpt lat="44.612139281220486" lon="10.531002255102404"><ele>262.20000000000005</ele><time>2026-04-18T12:51:30Z</time></trkpt><trkpt lat="44.612205388134115" lon="10.530874042796732"><ele>261.6</ele><time>2026-04-18T12:51:31Z</time></trkpt><trkpt lat="44.61229480187738" lon="10.530759190152253"><ele>261.0</ele><time>2026-04-18T12:51:32Z</time></trkpt><trkpt lat="44.61236992201771" lon="10.530635335742975"><ele>261.0</ele><time>2026-04-18T12:51:33Z</time></trkpt><trkpt lat="44.612432375252226" lon="10.530533127547207"><ele>261.0</ele><time>2026-04-18T12:51:34Z</time></trkpt><trkpt lat="44.612490290084395" lon="10.530440684226603"><ele>261.0</ele><time>2026-04-18T12:51:35Z</time></trkpt><trkpt lat="44.61254108134004" lon="10.530358414180993"><ele>261.0</ele><time>2026-04-18T12:51:36Z</time></trkpt><trkpt lat="44.61258999779295" lon="10.530277106882028"><ele>261.0</ele><time>2026-04-18T12:51:37Z</time></trkpt><trkpt lat="44.61263494123971" lon="10.53020854148282"><ele>261.0</ele><time>2026-04-18T12:51:38Z</time></trkpt><trkpt lat="44.61270486365516" lon="10.530128994113133"><ele>261.6666666666667</ele><time>2026-04-18T12:51:40Z</time></trkpt><trkpt lat="44.61271887559237" lon="10.530040114765667"><ele>262.3333333333333</ele><time>2026-04-18T12:51:41Z</time></trkpt><trkpt lat="44.61271466956293" lon="10.529951346951862"><ele>263.0</ele><time>2026-04-18T12:51:42Z</time></trkpt><trkpt lat="44.612702953579735" lon="10.529763123842004"><ele>263.66666666666663</ele><time>2026-04-18T12:51:44Z</time></trkpt><trkpt lat="44.612685444078814" lon="10.52965884069609"><ele>264.3333333333333</ele><time>2026-04-18T12:51:45Z</time></trkpt><trkpt lat="44.61266997096835" lon="10.529549028598513"><ele>265.0</ele><time>2026-04-18T12:51:46Z</time></trkpt><trkpt lat="44.61265603837196" lon="10.529435525368296"><ele>265.0</ele><time>2026-04-18T12:51:47Z</time></trkpt><trkpt lat="44.612643741129155" lon="10.529326865365574"><ele>265.0</ele><time>2026-04-18T12:51:48Z</time></trkpt><trkpt lat="44.61262733145895" lon="10.529175988704496"><ele>265.0</ele><time>2026-04-18T12:51:49Z</time></trkpt><trkpt lat="44.61260973431627" lon="10.529013030093154"><ele>265.0</ele><time>2026-04-18T12:51:50Z</time></trkpt><trkpt lat="44.612593974754105" lon="10.528862078798788"><ele>265.0</ele><time>2026-04-18T12:51:51Z</time></trkpt><trkpt lat="44.612579499565065" lon="10.52873110654127"><ele>264.8</ele><time>2026-04-18T12:51:52Z</time></trkpt><trkpt lat="44.61254673670254" lon="10.528609521559495"><ele>264.6</ele><time>2026-04-18T12:51:53Z</time></trkpt><trkpt lat="44.61252666574349" lon="10.528501709606294"><ele>264.4</ele><time>2026-04-18T12:51:54Z</time></trkpt><trkpt lat="44.6125067613881" lon="10.52837200431061"><ele>264.2</ele><time>2026-04-18T12:51:55Z</time></trkpt><trkpt lat="44.61246548364439" lon="10.528255774642439"><ele>264.0</ele><time>2026-04-18T12:51:56Z</time></trkpt><trkpt lat="44.61247465032889" lon="10.528084434106473"><ele>264.0</ele><time>2026-04-18T12:51:58Z</time></trkpt><trkpt lat="44.61245503828147" lon="10.527959143239077"><ele>264.0</ele><time>2026-04-18T12:52:01Z</time></trkpt><trkpt lat="44.61236399747142" lon="10.527877926695862"><ele>264.0</ele><time>2026-04-18T12:52:03Z</time></trkpt><trkpt lat="44.61230778449517" lon="10.52776419912118"><ele>264.0</ele><time>2026-04-18T12:52:04Z</time></trkpt><trkpt lat="44.61227999174731" lon="10.527655778855943"><ele>264.0</ele><time>2026-04-18T12:52:05Z</time></trkpt><trkpt lat="44.61222396359891" lon="10.527537516703891"><ele>263.75</ele><time>2026-04-18T12:52:06Z</time></trkpt><trkpt lat="44.61216417560359" lon="10.527423797596041"><ele>263.5</ele><time>2026-04-18T12:52:07Z</time></trkpt><trkpt lat="44.61203744411435" lon="10.527334040167524"><ele>263.25</ele><time>2026-04-18T12:52:09Z</time></trkpt><trkpt lat="44.61195535191872" lon="10.527274838140045"><ele>263.0</ele><time>2026-04-18T12:52:10Z</time></trkpt><trkpt lat="44.61185327822127" lon="10.527184545056588"><ele>263.8</ele><time>2026-04-18T12:52:11Z</time></trkpt><trkpt lat="44.61172818969547" lon="10.527101171275778"><ele>264.6</ele><time>2026-04-18T12:52:12Z</time></trkpt><trkpt lat="44.611640073635954" lon="10.527039596267567"><ele>265.4</ele><time>2026-04-18T12:52:13Z</time></trkpt><trkpt lat="44.61154682041033" lon="10.52698730675672"><ele>266.2</ele><time>2026-04-18T12:52:14Z</time></trkpt><trkpt lat="44.61146967192169" lon="10.52692703594025"><ele>267.0</ele><time>2026-04-18T12:52:15Z</time></trkpt><trkpt lat="44.61138648272066" lon="10.52687019531585"><ele>267.0</ele><time>2026-04-18T12:52:16Z</time></trkpt><trkpt lat="44.6113152050342" lon="10.52682096019035"><ele>267.0</ele><time>2026-04-18T12:52:17Z</time></trkpt><trkpt lat="44.61124206895169" lon="10.526746253158484"><ele>267.0</ele><time>2026-04-18T12:52:18Z</time></trkpt><trkpt lat="44.61116868347477" lon="10.52669754680026"><ele>267.0</ele><time>2026-04-18T12:52:19Z</time></trkpt><trkpt lat="44.6110812035818" lon="10.526637067906984"><ele>267.0</ele><time>2026-04-18T12:52:20Z</time></trkpt><trkpt lat="44.61098461299455" lon="10.526562936866316"><ele>267.0</ele><time>2026-04-18T12:52:21Z</time></trkpt><trkpt lat="44.61090792691966" lon="10.526473363432514"><ele>267.0</ele><time>2026-04-18T12:52:22Z</time></trkpt><trkpt lat="44.61086443240242" lon="10.526377767435772"><ele>267.0</ele><time>2026-04-18T12:52:23Z</time></trkpt><trkpt lat="44.61082919337387" lon="10.526277985735886"><ele>267.0</ele><time>2026-04-18T12:52:24Z</time></trkpt><trkpt lat="44.61077420422579" lon="10.526121356613123"><ele>267.0</ele><time>2026-04-18T12:52:25Z</time></trkpt><trkpt lat="44.61071625982462" lon="10.525940012742417"><ele>265.75</ele><time>2026-04-18T12:52:26Z</time></trkpt><trkpt lat="44.610651117813376" lon="10.525767788639458"><ele>264.5</ele><time>2026-04-18T12:52:27Z</time></trkpt><trkpt lat="44.610623895759005" lon="10.525590835128684"><ele>263.25</ele><time>2026-04-18T12:52:28Z</time></trkpt><trkpt lat="44.61057600957176" lon="10.525405185536963"><ele>262.0</ele><time>2026-04-18T12:52:29Z</time></trkpt><trkpt lat="44.61052843938409" lon="10.525226066434332"><ele>260.5</ele><time>2026-04-18T12:52:30Z</time></trkpt><trkpt lat="44.6104884863561" lon="10.525058236634482"><ele>259.0</ele><time>2026-04-18T12:52:31Z</time></trkpt><trkpt lat="44.61046310318076" lon="10.524903087486654"><ele>257.5</ele><time>2026-04-18T12:52:32Z</time></trkpt><trkpt lat="44.61043354411797" lon="10.524739507503194"><ele>256.0</ele><time>2026-04-18T12:52:33Z</time></trkpt><trkpt lat="44.61038011625735" lon="10.52459237477281"><ele>255.5</ele><time>2026-04-18T12:52:34Z</time></trkpt><trkpt lat="44.61032596195801" lon="10.524452068017382"><ele>255.0</ele><time>2026-04-18T12:52:35Z</time></trkpt><trkpt lat="44.61026885939301" lon="10.524274479031615"><ele>254.5</ele><time>2026-04-18T12:52:36Z</time></trkpt><trkpt lat="44.61019460792129" lon="10.524080761385187"><ele>254.0</ele><time>2026-04-18T12:52:37Z</time></trkpt><trkpt lat="44.61013459705966" lon="10.523905648500095"><ele>254.0</ele><time>2026-04-18T12:52:38Z</time></trkpt><trkpt lat="44.610087036553494" lon="10.523759632701639"><ele>253.99999999999997</ele><time>2026-04-18T12:52:39Z</time></trkpt><trkpt lat="44.610040610232375" lon="10.523617099061177"><ele>253.99999999999997</ele><time>2026-04-18T12:52:39.999Z</time></trkpt><trkpt lat="44.60999330538382" lon="10.523469808379998"><ele>254.0</ele><time>2026-04-18T12:52:40.999Z</time></trkpt><trkpt lat="44.6099516287697" lon="10.523338754631713"><ele>254.0</ele><time>2026-04-18T12:52:41.999Z</time></trkpt><trkpt lat="44.60991741771538" lon="10.523220482634"><ele>254.16666666666669</ele><time>2026-04-18T12:52:42.999Z</time></trkpt><trkpt lat="44.60989154553478" lon="10.523127086984493"><ele>254.33333333333334</ele><time>2026-04-18T12:52:43.999Z</time></trkpt><trkpt lat="44.60986320592986" lon="10.523013149403576"><ele>254.5</ele><time>2026-04-18T12:52:44.999Z</time></trkpt><trkpt lat="44.609837070141964" lon="10.522897961592449"><ele>254.66666666666669</ele><time>2026-04-18T12:52:45.999Z</time></trkpt><trkpt lat="44.609811612695445" lon="10.522771606954793"><ele>254.83333333333334</ele><time>2026-04-18T12:52:46.999Z</time></trkpt><trkpt lat="44.60978801454982" lon="10.522653955387089"><ele>255.0</ele><time>2026-04-18T12:52:47.999Z</time></trkpt><trkpt lat="44.60976015546956" lon="10.52252632618423"><ele>255.0</ele><time>2026-04-18T12:52:48.999Z</time></trkpt><trkpt lat="44.60971302074476" lon="10.522397957519471"><ele>255.0</ele><time>2026-04-18T12:52:49.999Z</time></trkpt><trkpt lat="44.609675649527816" lon="10.522276570488497"><ele>255.0</ele><time>2026-04-18T12:52:50.999Z</time></trkpt><trkpt lat="44.60963994186882" lon="10.522160888303834"><ele>255.0</ele><time>2026-04-18T12:52:51.999Z</time></trkpt><trkpt lat="44.60959309553211" lon="10.522055360796006"><ele>255.0</ele><time>2026-04-18T12:52:52.999Z</time></trkpt><trkpt lat="44.60955379841681" lon="10.521950537929216"><ele>253.5</ele><time>2026-04-18T12:52:53.999Z</time></trkpt><trkpt lat="44.60950792132318" lon="10.521828909144789"><ele>252.0</ele><time>2026-04-18T12:52:54.999Z</time></trkpt><trkpt lat="44.60945140797931" lon="10.521674145891414"><ele>250.5</ele><time>2026-04-18T12:52:55.999Z</time></trkpt><trkpt lat="44.60938481304181" lon="10.521516267558129"><ele>249.0</ele><time>2026-04-18T12:52:56.999Z</time></trkpt><trkpt lat="44.609317450342495" lon="10.521392139955168"><ele>249.66666666666669</ele><time>2026-04-18T12:52:57.999Z</time></trkpt><trkpt lat="44.609253084919494" lon="10.521282771617548"><ele>250.33333333333334</ele><time>2026-04-18T12:52:58.999Z</time></trkpt><trkpt lat="44.609158408175944" lon="10.521209274895648"><ele>251.0</ele><time>2026-04-18T12:52:59.999Z</time></trkpt><trkpt lat="44.6093240087894" lon="10.52092911220185"><ele>251.0</ele><time>2026-04-18T12:53:00.999Z</time></trkpt><trkpt lat="44.60939236490209" lon="10.520778504723603"><ele>251.0</ele><time>2026-04-18T12:53:01.999Z</time></trkpt><trkpt lat="44.6094405114661" lon="10.520684005188874"><ele>251.0</ele><time>2026-04-18T12:53:02.999Z</time></trkpt><trkpt lat="44.609458858462325" lon="10.520563590661386"><ele>251.0</ele><time>2026-04-18T12:53:03.999Z</time></trkpt><trkpt lat="44.608997692715526" lon="10.520162055404935"><ele>252.75</ele><time>2026-04-18T12:53:04.999Z</time></trkpt><trkpt lat="44.608942078469475" lon="10.51997651301834"><ele>254.5</ele><time>2026-04-18T12:53:05.999Z</time></trkpt><trkpt lat="44.60888115940198" lon="10.51982957888495"><ele>256.25</ele><time>2026-04-18T12:53:06.999Z</time></trkpt><trkpt lat="44.60882303201561" lon="10.519706288254152"><ele>258.0</ele><time>2026-04-18T12:53:07.999Z</time></trkpt><trkpt lat="44.60874186839692" lon="10.51957863304161"><ele>258.4</ele><time>2026-04-18T12:53:08.999Z</time></trkpt><trkpt lat="44.6086984768383" lon="10.519498608380568"><ele>258.8</ele><time>2026-04-18T12:53:09.999Z</time></trkpt><trkpt lat="44.60870314571734" lon="10.519387082473727"><ele>259.2</ele><time>2026-04-18T12:53:11.999Z</time></trkpt><trkpt lat="44.60872277414012" lon="10.519292319780146"><ele>259.6</ele><time>2026-04-18T12:53:12.999Z</time></trkpt><trkpt lat="44.60874346610901" lon="10.519115532681019"><ele>260.0</ele><time>2026-04-18T12:53:13.999Z</time></trkpt><trkpt lat="44.60874136108874" lon="10.518950380994832"><ele>260.0</ele><time>2026-04-18T12:53:14.999Z</time></trkpt><trkpt lat="44.60870871909401" lon="10.518778050227997"><ele>260.0</ele><time>2026-04-18T12:53:15.999Z</time></trkpt><trkpt lat="44.60867486923209" lon="10.51859812777751"><ele>260.0</ele><time>2026-04-18T12:53:16.999Z</time></trkpt><trkpt lat="44.60864193316332" lon="10.518416709945928"><ele>260.0</ele><time>2026-04-18T12:53:18Z</time></trkpt><trkpt lat="44.608601810589676" lon="10.518269820034607"><ele>262.0</ele><time>2026-04-18T12:53:19Z</time></trkpt><trkpt lat="44.60854922590449" lon="10.518121383692844"><ele>264.0</ele><time>2026-04-18T12:53:20Z</time></trkpt><trkpt lat="44.608496784606324" lon="10.517993534565944"><ele>266.0</ele><time>2026-04-18T12:53:21Z</time></trkpt><trkpt lat="44.608437791003006" lon="10.517874926597587"><ele>268.0</ele><time>2026-04-18T12:53:22Z</time></trkpt><trkpt lat="44.60836320335579" lon="10.517757475455616"><ele>270.0</ele><time>2026-04-18T12:53:23Z</time></trkpt><trkpt lat="44.60832260925622" lon="10.517635296834516"><ele>272.8</ele><time>2026-04-18T12:53:24Z</time></trkpt><trkpt lat="44.60827575032146" lon="10.517518854329333"><ele>275.6</ele><time>2026-04-18T12:53:25Z</time></trkpt><trkpt lat="44.60823610849505" lon="10.517372060128277"><ele>278.4</ele><time>2026-04-18T12:53:26Z</time></trkpt><trkpt lat="44.60820302441722" lon="10.51727082905913"><ele>281.2</ele><time>2026-04-18T12:53:27Z</time></trkpt><trkpt lat="44.608173969227046" lon="10.517184722299866"><ele>284.0</ele><time>2026-04-18T12:53:28Z</time></trkpt><trkpt lat="44.60817990955693" lon="10.517037512231902"><ele>285.8</ele><time>2026-04-18T12:53:30Z</time></trkpt><trkpt lat="44.60823171000149" lon="10.51696544546872"><ele>287.59999999999997</ele><time>2026-04-18T12:53:31Z</time></trkpt><trkpt lat="44.608324795533036" lon="10.516915783663606"><ele>289.4</ele><time>2026-04-18T12:53:32Z</time></trkpt><trkpt lat="44.60843022859885" lon="10.516858185668966"><ele>291.2</ele><time>2026-04-18T12:53:33Z</time></trkpt><trkpt lat="44.60850447905001" lon="10.516813141471529"><ele>293.0</ele><time>2026-04-18T12:53:34Z</time></trkpt><trkpt lat="44.60857364192465" lon="10.516745363294849"><ele>293.0</ele><time>2026-04-18T12:53:35Z</time></trkpt><trkpt lat="44.60861898058333" lon="10.51667993572571"><ele>293.0</ele><time>2026-04-18T12:53:36Z</time></trkpt><trkpt lat="44.60867046993085" lon="10.516585100623159"><ele>293.0</ele><time>2026-04-18T12:53:37Z</time></trkpt><trkpt lat="44.6087108338127" lon="10.516477468310603"><ele>293.0</ele><time>2026-04-18T12:53:38Z</time></trkpt><trkpt lat="44.60876172432569" lon="10.51632331307866"><ele>293.0</ele><time>2026-04-18T12:53:39Z</time></trkpt><trkpt lat="44.608817455750675" lon="10.516139483078648"><ele>294.4</ele><time>2026-04-18T12:53:40Z</time></trkpt><trkpt lat="44.608873008395136" lon="10.515970399483653"><ele>295.8</ele><time>2026-04-18T12:53:41Z</time></trkpt><trkpt lat="44.60892171823577" lon="10.515826731122514"><ele>297.2</ele><time>2026-04-18T12:53:42Z</time></trkpt><trkpt lat="44.608977329765395" lon="10.515710035641504"><ele>298.6</ele><time>2026-04-18T12:53:43Z</time></trkpt><trkpt lat="44.609002335473235" lon="10.515626256715334"><ele>300.0</ele><time>2026-04-18T12:53:44Z</time></trkpt><trkpt lat="44.609008073483764" lon="10.515523519401773"><ele>302.0</ele><time>2026-04-18T12:53:45Z</time></trkpt><trkpt lat="44.609024985383925" lon="10.515359683283286"><ele>304.0</ele><time>2026-04-18T12:53:46Z</time></trkpt><trkpt lat="44.60906411362016" lon="10.515194348011448"><ele>306.0</ele><time>2026-04-18T12:53:47Z</time></trkpt><trkpt lat="44.609107604636534" lon="10.51503455182335"><ele>308.0</ele><time>2026-04-18T12:53:48Z</time></trkpt><trkpt lat="44.609152185497635" lon="10.514848068134459"><ele>308.0</ele><time>2026-04-18T12:53:49Z</time></trkpt><trkpt lat="44.60919860706468" lon="10.514688153042105"><ele>308.0</ele><time>2026-04-18T12:53:50Z</time></trkpt><trkpt lat="44.60923372348786" lon="10.514531181985761"><ele>308.0</ele><time>2026-04-18T12:53:51Z</time></trkpt><trkpt lat="44.60927074317043" lon="10.514435112110501"><ele>308.0</ele><time>2026-04-18T12:53:52Z</time></trkpt><trkpt lat="44.60925431988577" lon="10.514253392900343"><ele>308.0</ele><time>2026-04-18T12:53:54Z</time></trkpt><trkpt lat="44.60923853762567" lon="10.514116392480808"><ele>308.83333333333337</ele><time>2026-04-18T12:53:55Z</time></trkpt><trkpt lat="44.60922391481695" lon="10.513959270626556"><ele>309.6666666666667</ele><time>2026-04-18T12:53:56Z</time></trkpt><trkpt lat="44.60921262971791" lon="10.513833484291439"><ele>310.5</ele><time>2026-04-18T12:53:57Z</time></trkpt><trkpt lat="44.6091967027398" lon="10.513727821193172"><ele>311.3333333333333</ele><time>2026-04-18T12:53:58Z</time></trkpt><trkpt lat="44.60918032811456" lon="10.513628630320577"><ele>312.16666666666663</ele><time>2026-04-18T12:53:59Z</time></trkpt><trkpt lat="44.609151017008976" lon="10.51352203737937"><ele>313.0</ele><time>2026-04-18T12:54:00Z</time></trkpt><trkpt lat="44.609103525043516" lon="10.513407712317981"><ele>313.0</ele><time>2026-04-18T12:54:01Z</time></trkpt><trkpt lat="44.60906314630246" lon="10.513292521194339"><ele>313.0</ele><time>2026-04-18T12:54:02Z</time></trkpt><trkpt lat="44.6090217207037" lon="10.513175350819196"><ele>313.0</ele><time>2026-04-18T12:54:03Z</time></trkpt><trkpt lat="44.60898911013852" lon="10.513060920326389"><ele>313.0</ele><time>2026-04-18T12:54:04Z</time></trkpt><trkpt lat="44.60896051760109" lon="10.512963672199797"><ele>313.0</ele><time>2026-04-18T12:54:05Z</time></trkpt><trkpt lat="44.608908282817694" lon="10.512828376341998"><ele>311.8</ele><time>2026-04-18T12:54:07Z</time></trkpt><trkpt lat="44.60888552276548" lon="10.512698927087591"><ele>310.6</ele><time>2026-04-18T12:54:09Z</time></trkpt><trkpt lat="44.60879636508999" lon="10.512596340369512"><ele>309.4</ele><time>2026-04-18T12:54:11Z</time></trkpt><trkpt lat="44.60873975929786" lon="10.512493111097319"><ele>308.2</ele><time>2026-04-18T12:54:12Z</time></trkpt><trkpt lat="44.60869719545982" lon="10.512397280554234"><ele>307.0</ele><time>2026-04-18T12:54:13Z</time></trkpt><trkpt lat="44.60865913692117" lon="10.51225090111373"><ele>307.0</ele><time>2026-04-18T12:54:15Z</time></trkpt><trkpt lat="44.60861722725781" lon="10.512160736890008"><ele>307.0</ele><time>2026-04-18T12:54:18Z</time></trkpt><trkpt lat="44.60855537040294" lon="10.511984801539006"><ele>307.0</ele><time>2026-04-18T12:54:20Z</time></trkpt><trkpt lat="44.60853491085822" lon="10.51186461149252"><ele>307.0</ele><time>2026-04-18T12:54:21Z</time></trkpt><trkpt lat="44.60850255049502" lon="10.511735895398292"><ele>307.0</ele><time>2026-04-18T12:54:22Z</time></trkpt><trkpt lat="44.608390974326575" lon="10.511771053445436"><ele>310.0</ele><time>2026-04-18T12:54:23Z</time></trkpt><trkpt lat="44.60827916715757" lon="10.511664394367052"><ele>313.0</ele><time>2026-04-18T12:54:24Z</time></trkpt><trkpt lat="44.608189321431205" lon="10.511545734629665"><ele>316.0</ele><time>2026-04-18T12:54:25Z</time></trkpt><trkpt lat="44.60812949189666" lon="10.511437175735614"><ele>319.0</ele><time>2026-04-18T12:54:26Z</time></trkpt><trkpt lat="44.60805913228381" lon="10.511347228005334"><ele>319.0</ele><time>2026-04-18T12:54:27Z</time></trkpt><trkpt lat="44.607988373265336" lon="10.5112585038048"><ele>319.0</ele><time>2026-04-18T12:54:28Z</time></trkpt><trkpt lat="44.607945446807406" lon="10.511132364214847"><ele>319.0</ele><time>2026-04-18T12:54:29Z</time></trkpt><trkpt lat="44.6079357854138" lon="10.511002259300403"><ele>319.0</ele><time>2026-04-18T12:54:30Z</time></trkpt><trkpt lat="44.60791557547131" lon="10.510903277784765"><ele>319.0</ele><time>2026-04-18T12:54:31Z</time></trkpt><trkpt lat="44.60787084243352" lon="10.510838527803095"><ele>319.0</ele><time>2026-04-18T12:54:32Z</time></trkpt><trkpt lat="44.607790303063446" lon="10.510743228530993"><ele>322.0</ele><time>2026-04-18T12:54:33Z</time></trkpt><trkpt lat="44.60772042914065" lon="10.510624917719909"><ele>325.0</ele><time>2026-04-18T12:54:34Z</time></trkpt><trkpt lat="44.607684537588625" lon="10.510510145167162"><ele>328.0</ele><time>2026-04-18T12:54:35Z</time></trkpt><trkpt lat="44.607635301879355" lon="10.510343518947863"><ele>331.0</ele><time>2026-04-18T12:54:37Z</time></trkpt><trkpt lat="44.60759695155413" lon="10.51019087129131"><ele>334.0</ele><time>2026-04-18T12:54:39Z</time></trkpt><trkpt lat="44.607558329859316" lon="10.510077375714616"><ele>336.0</ele><time>2026-04-18T12:54:40Z</time></trkpt><trkpt lat="44.60752110428542" lon="10.509957130553405"><ele>338.0</ele><time>2026-04-18T12:54:41Z</time></trkpt><trkpt lat="44.60747748381411" lon="10.509813437390928"><ele>340.0</ele><time>2026-04-18T12:54:42Z</time></trkpt><trkpt lat="44.60744261253505" lon="10.509668793806293"><ele>342.0</ele><time>2026-04-18T12:54:43Z</time></trkpt><trkpt lat="44.60742926998963" lon="10.509582040827073"><ele>344.0</ele><time>2026-04-18T12:54:44Z</time></trkpt><trkpt lat="44.60737802887593" lon="10.509470741462604"><ele>344.4</ele><time>2026-04-18T12:54:44.999Z</time></trkpt><trkpt lat="44.6073399252461" lon="10.50932690019264"><ele>344.79999999999995</ele><time>2026-04-18T12:54:45.999Z</time></trkpt><trkpt lat="44.607302669046" lon="10.50920272334339"><ele>345.20000000000005</ele><time>2026-04-18T12:54:46.999Z</time></trkpt><trkpt lat="44.60725584139118" lon="10.509090932938957"><ele>345.6</ele><time>2026-04-18T12:54:47.999Z</time></trkpt><trkpt lat="44.60721874131476" lon="10.508976344795045"><ele>346.0</ele><time>2026-04-18T12:54:48.999Z</time></trkpt><trkpt lat="44.607205829979506" lon="10.508879216933739"><ele>346.0</ele><time>2026-04-18T12:54:49.999Z</time></trkpt><trkpt lat="44.607233200103096" lon="10.508790678464349"><ele>346.0</ele><time>2026-04-18T12:54:50.999Z</time></trkpt><trkpt lat="44.60724438438664" lon="10.50867342346197"><ele>346.0</ele><time>2026-04-18T12:54:51.999Z</time></trkpt><trkpt lat="44.607215217288974" lon="10.508560897823484"><ele>346.0</ele><time>2026-04-18T12:54:52.999Z</time></trkpt><trkpt lat="44.60717195953746" lon="10.50842690967335"><ele>346.0</ele><time>2026-04-18T12:54:53.999Z</time></trkpt><trkpt lat="44.60714129803956" lon="10.508285653134502"><ele>346.0</ele><time>2026-04-18T12:54:54.999Z</time></trkpt><trkpt lat="44.60713209711893" lon="10.508169732286897"><ele>347.20000000000005</ele><time>2026-04-18T12:54:55.999Z</time></trkpt><trkpt lat="44.6070983632298" lon="10.508058256171669"><ele>348.40000000000003</ele><time>2026-04-18T12:54:56.999Z</time></trkpt><trkpt lat="44.60702826627186" lon="10.507976769853359"><ele>349.6</ele><time>2026-04-18T12:54:57.999Z</time></trkpt><trkpt lat="44.60696715045458" lon="10.507885339426025"><ele>350.8</ele><time>2026-04-18T12:54:58.999Z</time></trkpt><trkpt lat="44.606894014314356" lon="10.507772435279362"><ele>352.0</ele><time>2026-04-18T12:54:59.999Z</time></trkpt><trkpt lat="44.60682039040969" lon="10.507662111812557"><ele>352.8</ele><time>2026-04-18T12:55:00.999Z</time></trkpt><trkpt lat="44.60675709290027" lon="10.507535247933154"><ele>353.6</ele><time>2026-04-18T12:55:01.999Z</time></trkpt><trkpt lat="44.60667507636122" lon="10.507408573850386"><ele>354.40000000000003</ele><time>2026-04-18T12:55:02.999Z</time></trkpt><trkpt lat="44.60656866342796" lon="10.507340218423069"><ele>355.20000000000005</ele><time>2026-04-18T12:55:03.999Z</time></trkpt><trkpt lat="44.60648673358574" lon="10.507284560863784"><ele>356.0</ele><time>2026-04-18T12:55:04.999Z</time></trkpt><trkpt lat="44.60642041470863" lon="10.50723821084683"><ele>356.0</ele><time>2026-04-18T12:55:05.999Z</time></trkpt><trkpt lat="44.606328314764205" lon="10.507217805495895"><ele>356.0</ele><time>2026-04-18T12:55:06.999Z</time></trkpt><trkpt lat="44.606214998673195" lon="10.507203700027146"><ele>356.0</ele><time>2026-04-18T12:55:07.999Z</time></trkpt><trkpt lat="44.606099071635036" lon="10.50720940219693"><ele>356.0</ele><time>2026-04-18T12:55:08.999Z</time></trkpt><trkpt lat="44.60601612298471" lon="10.507197326830871"><ele>356.0</ele><time>2026-04-18T12:55:09.999Z</time></trkpt><trkpt lat="44.605929273062536" lon="10.507208533500718"><ele>355.25</ele><time>2026-04-18T12:55:11.999Z</time></trkpt><trkpt lat="44.60578753500973" lon="10.507101369968206"><ele>354.5</ele><time>2026-04-18T12:55:13.999Z</time></trkpt><trkpt lat="44.60571263990047" lon="10.506956045335656"><ele>353.75</ele><time>2026-04-18T12:55:15.999Z</time></trkpt><trkpt lat="44.60568465014281" lon="10.506862011175553"><ele>353.0</ele><time>2026-04-18T12:55:16.999Z</time></trkpt><trkpt lat="44.60561986774444" lon="10.50671578824028"><ele>352.1666666666667</ele><time>2026-04-18T12:55:18.999Z</time></trkpt><trkpt lat="44.60556849964941" lon="10.506654290065402"><ele>351.33333333333337</ele><time>2026-04-18T12:55:19.999Z</time></trkpt><trkpt lat="44.60550364986706" lon="10.506580695325471"><ele>350.5</ele><time>2026-04-18T12:55:20.999Z</time></trkpt><trkpt lat="44.60544227305045" lon="10.50651746229944"><ele>349.6666666666667</ele><time>2026-04-18T12:55:21.999Z</time></trkpt><trkpt lat="44.60536811663005" lon="10.506488780892457"><ele>348.8333333333333</ele><time>2026-04-18T12:55:22.999Z</time></trkpt><trkpt lat="44.605295799022024" lon="10.50647007430074"><ele>348.0</ele><time>2026-04-18T12:55:24Z</time></trkpt><trkpt lat="44.605215233705415" lon="10.506462196818733"><ele>346.75</ele><time>2026-04-18T12:55:26Z</time></trkpt><trkpt lat="44.605185770753884" lon="10.506283191450294"><ele>345.5</ele><time>2026-04-18T12:55:28Z</time></trkpt><trkpt lat="44.605156865158385" lon="10.506104488839243"><ele>344.25</ele><time>2026-04-18T12:55:29Z</time></trkpt><trkpt lat="44.6051155796021" lon="10.505910088626425"><ele>343.0</ele><time>2026-04-18T12:55:30Z</time></trkpt><trkpt lat="44.60505858675565" lon="10.505695337972087"><ele>342.5</ele><time>2026-04-18T12:55:31Z</time></trkpt><trkpt lat="44.604983789229486" lon="10.50549054356367"><ele>342.0</ele><time>2026-04-18T12:55:32Z</time></trkpt><trkpt lat="44.604922669685436" lon="10.505308028904032"><ele>341.5</ele><time>2026-04-18T12:55:33Z</time></trkpt><trkpt lat="44.60485591535311" lon="10.505150824082572"><ele>341.0</ele><time>2026-04-18T12:55:34Z</time></trkpt><trkpt lat="44.60479319112995" lon="10.505030475776534"><ele>341.20000000000005</ele><time>2026-04-18T12:55:35Z</time></trkpt><trkpt lat="44.60473030833147" lon="10.504925127761913"><ele>341.40000000000003</ele><time>2026-04-18T12:55:36Z</time></trkpt><trkpt lat="44.60467195363616" lon="10.504770743948942"><ele>341.6</ele><time>2026-04-18T12:55:37Z</time></trkpt><trkpt lat="44.604625086913416" lon="10.504625471734995"><ele>341.8</ele><time>2026-04-18T12:55:38Z</time></trkpt><trkpt lat="44.604572101031046" lon="10.504512089404452"><ele>342.0</ele><time>2026-04-18T12:55:39Z</time></trkpt><trkpt lat="44.6045192943554" lon="10.504454885794196"><ele>343.6</ele><time>2026-04-18T12:55:40Z</time></trkpt><trkpt lat="44.604393451907015" lon="10.504413797175992"><ele>345.20000000000005</ele><time>2026-04-18T12:55:42Z</time></trkpt><trkpt lat="44.60427625344161" lon="10.504297504882958"><ele>346.8</ele><time>2026-04-18T12:55:44Z</time></trkpt><trkpt lat="44.60421917399032" lon="10.504244080573633"><ele>348.4</ele><time>2026-04-18T12:55:45Z</time></trkpt><trkpt lat="44.60413566818456" lon="10.50417791070792"><ele>350.0</ele><time>2026-04-18T12:55:46Z</time></trkpt><trkpt lat="44.6040429782343" lon="10.504104793118087"><ele>350.0</ele><time>2026-04-18T12:55:47Z</time></trkpt><trkpt lat="44.603981309678524" lon="10.50404859802623"><ele>350.0</ele><time>2026-04-18T12:55:48Z</time></trkpt><trkpt lat="44.60392846684834" lon="10.50398803763829"><ele>350.0</ele><time>2026-04-18T12:55:49Z</time></trkpt><trkpt lat="44.603878947876694" lon="10.503909130885038"><ele>350.0</ele><time>2026-04-18T12:55:50Z</time></trkpt><trkpt lat="44.603826683100074" lon="10.503841926906158"><ele>350.0</ele><time>2026-04-18T12:55:51Z</time></trkpt><trkpt lat="44.60377465741793" lon="10.503735181534347"><ele>350.0</ele><time>2026-04-18T12:55:52Z</time></trkpt><trkpt lat="44.60372908104332" lon="10.503612677555362"><ele>347.75</ele><time>2026-04-18T12:55:53Z</time></trkpt><trkpt lat="44.603672219151186" lon="10.503456527946767"><ele>345.5</ele><time>2026-04-18T12:55:54Z</time></trkpt><trkpt lat="44.603602087222" lon="10.503278357098662"><ele>343.25</ele><time>2026-04-18T12:55:55Z</time></trkpt><trkpt lat="44.603549328996486" lon="10.503122822621615"><ele>341.0</ele><time>2026-04-18T12:55:56Z</time></trkpt><trkpt lat="44.6035049448154" lon="10.502998889146436"><ele>342.20000000000005</ele><time>2026-04-18T12:55:57Z</time></trkpt><trkpt lat="44.60345435586972" lon="10.502854082718885"><ele>343.40000000000003</ele><time>2026-04-18T12:55:58Z</time></trkpt><trkpt lat="44.60342018634596" lon="10.50274556166704"><ele>344.6</ele><time>2026-04-18T12:55:59Z</time></trkpt><trkpt lat="44.60336323141413" lon="10.502626887674445"><ele>345.8</ele><time>2026-04-18T12:56:00Z</time></trkpt><trkpt lat="44.603276274919416" lon="10.502513427267338"><ele>347.0</ele><time>2026-04-18T12:56:01Z</time></trkpt><trkpt lat="44.60319404825066" lon="10.502421194679554"><ele>347.0</ele><time>2026-04-18T12:56:02Z</time></trkpt><trkpt lat="44.60310900744691" lon="10.502321995134503"><ele>347.0</ele><time>2026-04-18T12:56:03Z</time></trkpt><trkpt lat="44.60302113658538" lon="10.502244216122957"><ele>347.0</ele><time>2026-04-18T12:56:04Z</time></trkpt><trkpt lat="44.60293817889853" lon="10.502169171980043"><ele>347.0</ele><time>2026-04-18T12:56:05Z</time></trkpt><trkpt lat="44.602847678149594" lon="10.502116267445057"><ele>347.0</ele><time>2026-04-18T12:56:06Z</time></trkpt><trkpt lat="44.602763221602714" lon="10.502050578043889"><ele>349.0</ele><time>2026-04-18T12:56:07Z</time></trkpt><trkpt lat="44.60271558572449" lon="10.501987758348065"><ele>351.0</ele><time>2026-04-18T12:56:08Z</time></trkpt><trkpt lat="44.602658947599764" lon="10.501816906612952"><ele>353.0</ele><time>2026-04-18T12:56:10Z</time></trkpt><trkpt lat="44.602638896702864" lon="10.501680970049119"><ele>355.0</ele><time>2026-04-18T12:56:11Z</time></trkpt><trkpt lat="44.602618944750695" lon="10.501524117912506"><ele>357.0</ele><time>2026-04-18T12:56:12Z</time></trkpt><trkpt lat="44.6025949219014" lon="10.501373726008733"><ele>358.40000000000003</ele><time>2026-04-18T12:56:13Z</time></trkpt><trkpt lat="44.602548218599715" lon="10.50122497828657"><ele>359.8</ele><time>2026-04-18T12:56:14Z</time></trkpt><trkpt lat="44.60251804518055" lon="10.501082507879149"><ele>361.2</ele><time>2026-04-18T12:56:15Z</time></trkpt><trkpt lat="44.602510919684285" lon="10.50096591342914"><ele>362.6</ele><time>2026-04-18T12:56:16Z</time></trkpt><trkpt lat="44.602502112899856" lon="10.500829908041464"><ele>364.0</ele><time>2026-04-18T12:56:17Z</time></trkpt><trkpt lat="44.602495331384674" lon="10.500676979617085"><ele>364.0</ele><time>2026-04-18T12:56:18Z</time></trkpt><trkpt lat="44.602469202091115" lon="10.500546087960846"><ele>364.0</ele><time>2026-04-18T12:56:19Z</time></trkpt><trkpt lat="44.60242866030627" lon="10.500408608087778"><ele>364.0</ele><time>2026-04-18T12:56:20Z</time></trkpt><trkpt lat="44.60241152995041" lon="10.500276950899638"><ele>364.0</ele><time>2026-04-18T12:56:21Z</time></trkpt><trkpt lat="44.602401592638316" lon="10.500145582925796"><ele>364.0</ele><time>2026-04-18T12:56:22Z</time></trkpt><trkpt lat="44.60236942003407" lon="10.500018442047633"><ele>365.79999999999995</ele><time>2026-04-18T12:56:23Z</time></trkpt><trkpt lat="44.60235238430517" lon="10.499906239317792"><ele>367.59999999999997</ele><time>2026-04-18T12:56:24Z</time></trkpt><trkpt lat="44.60233754101246" lon="10.49977706329087"><ele>369.4</ele><time>2026-04-18T12:56:25Z</time></trkpt><trkpt lat="44.602326715722185" lon="10.499625108715954"><ele>371.2</ele><time>2026-04-18T12:56:26Z</time></trkpt><trkpt lat="44.60232438646036" lon="10.4994832520502"><ele>373.0</ele><time>2026-04-18T12:56:27Z</time></trkpt><trkpt lat="44.60229188743841" lon="10.499341745916889"><ele>374.5</ele><time>2026-04-18T12:56:28Z</time></trkpt><trkpt lat="44.60225428413877" lon="10.499208012568275"><ele>376.0</ele><time>2026-04-18T12:56:29Z</time></trkpt><trkpt lat="44.60222183316471" lon="10.499097540973588"><ele>377.5</ele><time>2026-04-18T12:56:30Z</time></trkpt><trkpt lat="44.60217521933022" lon="10.49902320716666"><ele>379.0</ele><time>2026-04-18T12:56:31Z</time></trkpt><trkpt lat="44.60211677033543" lon="10.498971509535695"><ele>380.5</ele><time>2026-04-18T12:56:32Z</time></trkpt><trkpt lat="44.60200539393798" lon="10.49894442108439"><ele>382.0</ele><time>2026-04-18T12:56:34Z</time></trkpt><trkpt lat="44.60189546006743" lon="10.498945958754742"><ele>382.66666666666663</ele><time>2026-04-18T12:56:36Z</time></trkpt><trkpt lat="44.60182405404602" lon="10.498906695769922"><ele>383.3333333333333</ele><time>2026-04-18T12:56:37Z</time></trkpt><trkpt lat="44.60174381882628" lon="10.498878209990572"><ele>384.0</ele><time>2026-04-18T12:56:38Z</time></trkpt><trkpt lat="44.60166476497244" lon="10.498877853697733"><ele>384.66666666666663</ele><time>2026-04-18T12:56:39Z</time></trkpt><trkpt lat="44.60159796032917" lon="10.498874933388148"><ele>385.3333333333333</ele><time>2026-04-18T12:56:40Z</time></trkpt><trkpt lat="44.601533361359536" lon="10.49880641277763"><ele>386.0</ele><time>2026-04-18T12:56:42Z</time></trkpt><trkpt lat="44.60145835165502" lon="10.498658010268407"><ele>386.20000000000005</ele><time>2026-04-18T12:56:44Z</time></trkpt><trkpt lat="44.60137945059546" lon="10.498546162062443"><ele>386.40000000000003</ele><time>2026-04-18T12:56:45Z</time></trkpt><trkpt lat="44.60131433628618" lon="10.498397435562723"><ele>386.6</ele><time>2026-04-18T12:56:46Z</time></trkpt><trkpt lat="44.6012612801164" lon="10.498262881691153"><ele>386.8</ele><time>2026-04-18T12:56:48Z</time></trkpt><trkpt lat="44.60120301780781" lon="10.498224804536033"><ele>387.0</ele><time>2026-04-18T12:56:49Z</time></trkpt><trkpt lat="44.6011014772151" lon="10.498141201645728"><ele>387.5</ele><time>2026-04-18T12:56:50Z</time></trkpt><trkpt lat="44.60106354568059" lon="10.498056885187912"><ele>388.0</ele><time>2026-04-18T12:56:51Z</time></trkpt><trkpt lat="44.60103963879327" lon="10.497949385544938"><ele>388.5</ele><time>2026-04-18T12:56:51.999Z</time></trkpt><trkpt lat="44.601015331861085" lon="10.497821959473022"><ele>389.0</ele><time>2026-04-18T12:56:53Z</time></trkpt><trkpt lat="44.60101001296767" lon="10.497688060735154"><ele>389.5</ele><time>2026-04-18T12:56:53.999Z</time></trkpt><trkpt lat="44.600982102945565" lon="10.497558831002662"><ele>390.0</ele><time>2026-04-18T12:56:54.999Z</time></trkpt><trkpt lat="44.6009479069983" lon="10.497458413399311"><ele>391.1666666666667</ele><time>2026-04-18T12:56:55.999Z</time></trkpt><trkpt lat="44.600911952514274" lon="10.497384450430436"><ele>392.33333333333337</ele><time>2026-04-18T12:56:56.999Z</time></trkpt><trkpt lat="44.60084209030638" lon="10.49731191061702"><ele>393.5</ele><time>2026-04-18T12:56:58.999Z</time></trkpt><trkpt lat="44.600742818130115" lon="10.497293456941383"><ele>394.6666666666667</ele><time>2026-04-18T12:57:01.999Z</time></trkpt><trkpt lat="44.60066737499083" lon="10.497310456615923"><ele>395.83333333333337</ele><time>2026-04-18T12:57:03.999Z</time></trkpt><trkpt lat="44.60060294494288" lon="10.497329192180572"><ele>397.0</ele><time>2026-04-18T12:57:06.999Z</time></trkpt><trkpt lat="44.60052220210357" lon="10.497383551021972"><ele>397.0</ele><time>2026-04-18T12:57:08.999Z</time></trkpt><trkpt lat="44.60045962315519" lon="10.497407862472238"><ele>397.0</ele><time>2026-04-18T12:57:09.999Z</time></trkpt><trkpt lat="44.60031754301822" lon="10.497455731763159"><ele>397.0</ele><time>2026-04-18T12:57:11.999Z</time></trkpt><trkpt lat="44.60022622102119" lon="10.49746373693815"><ele>397.0</ele><time>2026-04-18T12:57:12.999Z</time></trkpt><trkpt lat="44.60014969266462" lon="10.49750661308122"><ele>397.0</ele><time>2026-04-18T12:57:14.999Z</time></trkpt><trkpt lat="44.60011449161549" lon="10.497583879353948"><ele>397.8</ele><time>2026-04-18T12:57:15.999Z</time></trkpt><trkpt lat="44.60003719622307" lon="10.49766219609984"><ele>398.6</ele><time>2026-04-18T12:57:16.999Z</time></trkpt><trkpt lat="44.59994652575143" lon="10.497740467820798"><ele>399.40000000000003</ele><time>2026-04-18T12:57:17.999Z</time></trkpt><trkpt lat="44.599845828932295" lon="10.497801063690245"><ele>400.20000000000005</ele><time>2026-04-18T12:57:18.999Z</time></trkpt><trkpt lat="44.599770411317756" lon="10.497862215093699"><ele>401.0</ele><time>2026-04-18T12:57:19.999Z</time></trkpt><trkpt lat="44.5996962704815" lon="10.497834002348313"><ele>401.0</ele><time>2026-04-18T12:57:22.999Z</time></trkpt><trkpt lat="44.599575700757704" lon="10.497830938550608"><ele>401.0</ele><time>2026-04-18T12:57:24.999Z</time></trkpt><trkpt lat="44.59949617716792" lon="10.497890326613856"><ele>401.0</ele><time>2026-04-18T12:57:25.999Z</time></trkpt><trkpt lat="44.59941067796964" lon="10.498043987381509"><ele>401.0</ele><time>2026-04-18T12:57:27.999Z</time></trkpt><trkpt lat="44.59935020109531" lon="10.498068950353971"><ele>401.0</ele><time>2026-04-18T12:57:29Z</time></trkpt><trkpt lat="44.59926891164227" lon="10.498057550620945"><ele>403.0</ele><time>2026-04-18T12:57:30Z</time></trkpt><trkpt lat="44.59919155433269" lon="10.498052645084776"><ele>405.0</ele><time>2026-04-18T12:57:31Z</time></trkpt><trkpt lat="44.59907202207911" lon="10.498086139820334"><ele>407.0</ele><time>2026-04-18T12:57:33Z</time></trkpt><trkpt lat="44.598962888068236" lon="10.498155461246277"><ele>409.0</ele><time>2026-04-18T12:57:35Z</time></trkpt><trkpt lat="44.59888941115876" lon="10.498152565120794"><ele>411.0</ele><time>2026-04-18T12:57:37Z</time></trkpt><trkpt lat="44.59878832392952" lon="10.498107521644737"><ele>410.8</ele><time>2026-04-18T12:57:39Z</time></trkpt><trkpt lat="44.59865067043675" lon="10.498025755598531"><ele>410.6</ele><time>2026-04-18T12:57:41Z</time></trkpt><trkpt lat="44.59858668937994" lon="10.498010381022638"><ele>410.4</ele><time>2026-04-18T12:57:42Z</time></trkpt><trkpt lat="44.598515973036186" lon="10.497958325198043"><ele>410.2</ele><time>2026-04-18T12:58:02Z</time></trkpt><trkpt lat="44.59843598545995" lon="10.497933452708372"><ele>410.0</ele><time>2026-04-18T12:58:03Z</time></trkpt><trkpt lat="44.59835172562217" lon="10.497916112248717"><ele>410.0</ele><time>2026-04-18T12:58:04Z</time></trkpt><trkpt lat="44.59827180869309" lon="10.497892807221138"><ele>410.0</ele><time>2026-04-18T12:58:05Z</time></trkpt><trkpt lat="44.598174948789016" lon="10.49789099955586"><ele>410.0</ele><time>2026-04-18T12:58:07Z</time></trkpt><trkpt lat="44.59806771516398" lon="10.49789290094282"><ele>410.0</ele><time>2026-04-18T12:58:09Z</time></trkpt><trkpt lat="44.59796227074485" lon="10.49784588488977"><ele>410.0</ele><time>2026-04-18T12:58:11Z</time></trkpt><trkpt lat="44.597876744067996" lon="10.497726090527747"><ele>409.25</ele><time>2026-04-18T12:58:13Z</time></trkpt><trkpt lat="44.59777078015903" lon="10.497616487197721"><ele>408.5</ele><time>2026-04-18T12:58:15Z</time></trkpt><trkpt lat="44.597689773529616" lon="10.49743594694415"><ele>407.75</ele><time>2026-04-18T12:58:17Z</time></trkpt><trkpt lat="44.59762423818318" lon="10.497319057591795"><ele>407.0</ele><time>2026-04-18T12:58:18Z</time></trkpt><trkpt lat="44.59754600235602" lon="10.497226999385902"><ele>407.0</ele><time>2026-04-18T12:58:19Z</time></trkpt><trkpt lat="44.597486752423514" lon="10.497153107854668"><ele>407.0</ele><time>2026-04-18T12:58:20Z</time></trkpt><trkpt lat="44.59747996512306" lon="10.49698229280663"><ele>407.0</ele><time>2026-04-18T12:58:22Z</time></trkpt><trkpt lat="44.59745496571867" lon="10.496898362680524"><ele>407.0</ele><time>2026-04-18T12:58:23Z</time></trkpt><trkpt lat="44.59743076048047" lon="10.496752603054645"><ele>407.0</ele><time>2026-04-18T12:58:24Z</time></trkpt><trkpt lat="44.5974288433354" lon="10.496552091762135"><ele>407.0</ele><time>2026-04-18T12:58:25Z</time></trkpt><trkpt lat="44.597419694482646" lon="10.496342713833092"><ele>407.0</ele><time>2026-04-18T12:58:26Z</time></trkpt><trkpt lat="44.5974141800511" lon="10.496186914926113"><ele>407.0</ele><time>2026-04-18T12:58:27Z</time></trkpt><trkpt lat="44.5973946067606" lon="10.496048850681891"><ele>407.0</ele><time>2026-04-18T12:58:28Z</time></trkpt><trkpt lat="44.59736727660826" lon="10.495941427143363"><ele>407.0</ele><time>2026-04-18T12:58:29Z</time></trkpt><trkpt lat="44.59734416964539" lon="10.495848278981022"><ele>406.40000000000003</ele><time>2026-04-18T12:58:30Z</time></trkpt><trkpt lat="44.597316150356164" lon="10.495740813613253"><ele>405.8</ele><time>2026-04-18T12:58:31Z</time></trkpt><trkpt lat="44.59720501802244" lon="10.495625954460799"><ele>405.2</ele><time>2026-04-18T12:58:33Z</time></trkpt><trkpt lat="44.59712259194219" lon="10.495537063046156"><ele>404.6</ele><time>2026-04-18T12:58:35Z</time></trkpt><trkpt lat="44.59708557715446" lon="10.495456392824204"><ele>404.0</ele><time>2026-04-18T12:58:36Z</time></trkpt><trkpt lat="44.59701592714421" lon="10.495372155470003"><ele>402.0</ele><time>2026-04-18T12:58:37Z</time></trkpt><trkpt lat="44.59693981139067" lon="10.495298844957702"><ele>400.0</ele><time>2026-04-18T12:58:38Z</time></trkpt><trkpt lat="44.596834771357265" lon="10.49524205139353"><ele>398.0</ele><time>2026-04-18T12:58:39Z</time></trkpt><trkpt lat="44.5967193143837" lon="10.49517634966696"><ele>396.0</ele><time>2026-04-18T12:58:40Z</time></trkpt><trkpt lat="44.596602779530805" lon="10.495090612237714"><ele>396.0</ele><time>2026-04-18T12:58:41Z</time></trkpt><trkpt lat="44.596521905974846" lon="10.4950327435541"><ele>396.0</ele><time>2026-04-18T12:58:42Z</time></trkpt><trkpt lat="44.59645586362159" lon="10.494986873201745"><ele>396.0</ele><time>2026-04-18T12:58:43Z</time></trkpt><trkpt lat="44.59639436126511" lon="10.494949819794247"><ele>396.0</ele><time>2026-04-18T12:58:44Z</time></trkpt><trkpt lat="44.59632418317318" lon="10.494891496561674"><ele>396.0</ele><time>2026-04-18T12:58:45Z</time></trkpt><trkpt lat="44.59624978087989" lon="10.494822941110211"><ele>396.0</ele><time>2026-04-18T12:58:46Z</time></trkpt><trkpt lat="44.59615587535724" lon="10.49476094965508"><ele>395.0</ele><time>2026-04-18T12:58:47Z</time></trkpt><trkpt lat="44.59606393208624" lon="10.494693106165865"><ele>394.0</ele><time>2026-04-18T12:58:48Z</time></trkpt><trkpt lat="44.595966096027375" lon="10.494641039966334"><ele>393.0</ele><time>2026-04-18T12:58:49Z</time></trkpt><trkpt lat="44.59587737436959" lon="10.494591359632198"><ele>392.0</ele><time>2026-04-18T12:58:50Z</time></trkpt><trkpt lat="44.595799507239825" lon="10.494545373913072"><ele>391.0</ele><time>2026-04-18T12:58:51Z</time></trkpt><trkpt lat="44.5957103072852" lon="10.494478492198414"><ele>391.0</ele><time>2026-04-18T12:58:52Z</time></trkpt><trkpt lat="44.59560951366917" lon="10.494392086056562"><ele>391.0</ele><time>2026-04-18T12:58:53Z</time></trkpt><trkpt lat="44.59548231473502" lon="10.49429385784719"><ele>391.0</ele><time>2026-04-18T12:58:54Z</time></trkpt><trkpt lat="44.595374027989735" lon="10.494192867732277"><ele>391.0</ele><time>2026-04-18T12:58:54.999Z</time></trkpt><trkpt lat="44.59531974006369" lon="10.494094421080783"><ele>391.5</ele><time>2026-04-18T12:58:55.999Z</time></trkpt><trkpt lat="44.59524609952856" lon="10.493903541545569"><ele>392.0</ele><time>2026-04-18T12:58:57.999Z</time></trkpt><trkpt lat="44.595174580195675" lon="10.493763883043664"><ele>392.5</ele><time>2026-04-18T12:58:58.999Z</time></trkpt><trkpt lat="44.59508108486151" lon="10.493642125176091"><ele>393.0</ele><time>2026-04-18T12:58:59.999Z</time></trkpt><trkpt lat="44.594997821211926" lon="10.493515245904915"><ele>393.0</ele><time>2026-04-18T12:59:00.999Z</time></trkpt><trkpt lat="44.59494008320209" lon="10.493431932522883"><ele>393.0</ele><time>2026-04-18T12:59:01.999Z</time></trkpt><trkpt lat="44.594873568067364" lon="10.493355404148074"><ele>393.0</ele><time>2026-04-18T12:59:02.999Z</time></trkpt><trkpt lat="44.59480170067973" lon="10.493262463615705"><ele>393.0</ele><time>2026-04-18T12:59:03.999Z</time></trkpt><trkpt lat="44.59472502591889" lon="10.493203757022311"><ele>393.0</ele><time>2026-04-18T12:59:04.999Z</time></trkpt><trkpt lat="44.59463654980035" lon="10.493126524417352"><ele>393.0</ele><time>2026-04-18T12:59:05.999Z</time></trkpt><trkpt lat="44.59457912229352" lon="10.493011791477047"><ele>393.0</ele><time>2026-04-18T12:59:06.999Z</time></trkpt><trkpt lat="44.59452925182265" lon="10.49293698505215"><ele>393.0</ele><time>2026-04-18T12:59:07.999Z</time></trkpt><trkpt lat="44.594461041524795" lon="10.492900385961208"><ele>393.0</ele><time>2026-04-18T12:59:08.999Z</time></trkpt><trkpt lat="44.59439572765622" lon="10.49284110297853"><ele>393.0</ele><time>2026-04-18T12:59:09.999Z</time></trkpt><trkpt lat="44.594353312900324" lon="10.492758376691024"><ele>393.0</ele><time>2026-04-18T12:59:10.999Z</time></trkpt><trkpt lat="44.59428850646298" lon="10.49265284725822"><ele>394.4</ele><time>2026-04-18T12:59:11.999Z</time></trkpt><trkpt lat="44.594241538173485" lon="10.492580806616338"><ele>395.79999999999995</ele><time>2026-04-18T12:59:12.999Z</time></trkpt><trkpt lat="44.594206088683805" lon="10.49247810617712"><ele>397.2</ele><time>2026-04-18T12:59:13.999Z</time></trkpt><trkpt lat="44.59415388109562" lon="10.492367351514634"><ele>398.6</ele><time>2026-04-18T12:59:15.999Z</time></trkpt><trkpt lat="44.59410852715383" lon="10.492223576382596"><ele>400.0</ele><time>2026-04-18T12:59:17.999Z</time></trkpt><trkpt lat="44.594032419495285" lon="10.492065211437238"><ele>401.1666666666667</ele><time>2026-04-18T12:59:19.999Z</time></trkpt><trkpt lat="44.594030881044425" lon="10.491952124637768"><ele>402.33333333333337</ele><time>2026-04-18T12:59:20.999Z</time></trkpt><trkpt lat="44.594023597631434" lon="10.491853168448364"><ele>403.5</ele><time>2026-04-18T12:59:21.999Z</time></trkpt><trkpt lat="44.59398246837312" lon="10.491749868534916"><ele>404.66666666666663</ele><time>2026-04-18T12:59:23.999Z</time></trkpt><trkpt lat="44.59396258818458" lon="10.491640589383039"><ele>405.8333333333333</ele><time>2026-04-18T12:59:24.999Z</time></trkpt><trkpt lat="44.593933426411866" lon="10.49155421577635"><ele>407.0</ele><time>2026-04-18T12:59:25.999Z</time></trkpt><trkpt lat="44.593898477700506" lon="10.491443811015762"><ele>406.99999999999994</ele><time>2026-04-18T12:59:26.999Z</time></trkpt><trkpt lat="44.59389832848148" lon="10.491280217737577"><ele>407.0</ele><time>2026-04-18T12:59:28.999Z</time></trkpt><trkpt lat="44.593897152617025" lon="10.491157410514594"><ele>407.0</ele><time>2026-04-18T12:59:29.999Z</time></trkpt><trkpt lat="44.593847453312456" lon="10.491043349758828"><ele>407.0</ele><time>2026-04-18T12:59:30.999Z</time></trkpt><trkpt lat="44.59380462264868" lon="10.490960439480158"><ele>406.99999999999994</ele><time>2026-04-18T12:59:31.999Z</time></trkpt><trkpt lat="44.59379156442984" lon="10.490859993300841"><ele>407.0</ele><time>2026-04-18T12:59:32.999Z</time></trkpt><trkpt lat="44.593774001163226" lon="10.49075031629764"><ele>408.6</ele><time>2026-04-18T12:59:33.999Z</time></trkpt><trkpt lat="44.59372840189502" lon="10.490639130966631"><ele>410.20000000000005</ele><time>2026-04-18T12:59:36Z</time></trkpt><trkpt lat="44.59363985785546" lon="10.490580851229035"><ele>411.8</ele><time>2026-04-18T12:59:38Z</time></trkpt><trkpt lat="44.593550933042664" lon="10.490545019202225"><ele>413.4</ele><time>2026-04-18T12:59:39Z</time></trkpt><trkpt lat="44.59345082028533" lon="10.490486150913155"><ele>415.0</ele><time>2026-04-18T12:59:40Z</time></trkpt><trkpt lat="44.593343201620435" lon="10.490419209222383"><ele>416.50000000000006</ele><time>2026-04-18T12:59:41Z</time></trkpt><trkpt lat="44.593233230855034" lon="10.490357332406072"><ele>418.0</ele><time>2026-04-18T12:59:42Z</time></trkpt><trkpt lat="44.59316777458085" lon="10.490321016406005"><ele>419.5</ele><time>2026-04-18T12:59:43Z</time></trkpt><trkpt lat="44.593091642673365" lon="10.490257894222426"><ele>421.0</ele><time>2026-04-18T12:59:44Z</time></trkpt><trkpt lat="44.593048222604544" lon="10.490188465914338"><ele>422.50000000000006</ele><time>2026-04-18T12:59:45Z</time></trkpt><trkpt lat="44.59300045238294" lon="10.490070519544915"><ele>424.0</ele><time>2026-04-18T12:59:46Z</time></trkpt><trkpt lat="44.59295581333983" lon="10.489976649140084"><ele>424.00000000000006</ele><time>2026-04-18T12:59:47Z</time></trkpt><trkpt lat="44.59290051271026" lon="10.48984646711409"><ele>424.0</ele><time>2026-04-18T12:59:49Z</time></trkpt><trkpt lat="44.59286969462996" lon="10.489738448207095"><ele>424.0</ele><time>2026-04-18T12:59:52Z</time></trkpt><trkpt lat="44.592808948529836" lon="10.48969073044592"><ele>424.0</ele><time>2026-04-18T12:59:54Z</time></trkpt><trkpt lat="44.592740339557764" lon="10.489610815036263"><ele>424.00000000000006</ele><time>2026-04-18T12:59:56Z</time></trkpt><trkpt lat="44.59270138040212" lon="10.48948728128352"><ele>424.0</ele><time>2026-04-18T12:59:58Z</time></trkpt><trkpt lat="44.59262616307798" lon="10.489390300213357"><ele>427.0</ele><time>2026-04-18T13:00:00Z</time></trkpt><trkpt lat="44.59257036648394" lon="10.489325418820608"><ele>427.0</ele><time>2026-04-18T13:00:02Z</time></trkpt></trkseg></trk></gpx>